<?xml version="1.0" encoding="UTF-8" standalone="no" ?>
<gpx xmlns="http://www.topografix.com/GPX/1/1" xmlns:xsi="http://www.w3.org/2001/XMLSchema-instance" xsi:schemaLocation="http://www.topografix.com/GPX/1/1 http://www.topografix.com/GPX/1/1/gpx.xsd" version="1.1" creator="VisuGPX - https://www.visugpx.com">
  <metadata>
    <name>Dolomites jour 5</name>
    <desc><![CDATA[De Postjona jusque Domegge di cadore]]></desc>
  </metadata>
  <trk>
    <name><![CDATA[Jour 5 - 31/07/2012]]></name>
    <trkseg>
      <trkpt lat="45.80346" lon="14.20674">
        <ele>537.03</ele>
        <time>2012-07-31T06:22:13Z</time>
      </trkpt>
      <trkpt lat="45.80342" lon="14.20668">
        <ele>537.99</ele>
        <time>2012-07-31T06:22:29Z</time>
      </trkpt>
      <trkpt lat="45.80343" lon="14.20662">
        <ele>541.84</ele>
        <time>2012-07-31T06:22:41Z</time>
      </trkpt>
      <trkpt lat="45.80344" lon="14.20663">
        <ele>545.2</ele>
        <time>2012-07-31T06:22:43Z</time>
      </trkpt>
      <trkpt lat="45.80343" lon="14.20663">
        <ele>549.05</ele>
        <time>2012-07-31T06:22:46Z</time>
      </trkpt>
      <trkpt lat="45.80343" lon="14.20664">
        <ele>552.41</ele>
        <time>2012-07-31T06:22:49Z</time>
      </trkpt>
      <trkpt lat="45.80347" lon="14.20664">
        <ele>555.3</ele>
        <time>2012-07-31T06:22:54Z</time>
      </trkpt>
      <trkpt lat="45.80348" lon="14.20665">
        <ele>558.18</ele>
        <time>2012-07-31T06:23:00Z</time>
      </trkpt>
      <trkpt lat="45.80346" lon="14.20666">
        <ele>561.55</ele>
        <time>2012-07-31T06:23:06Z</time>
      </trkpt>
      <trkpt lat="45.80345" lon="14.20666">
        <ele>562.03</ele>
        <time>2012-07-31T06:23:07Z</time>
      </trkpt>
      <trkpt lat="45.80341" lon="14.20669">
        <ele>564.43</ele>
        <time>2012-07-31T06:23:43Z</time>
      </trkpt>
      <trkpt lat="45.80339" lon="14.20673">
        <ele>564.43</ele>
        <time>2012-07-31T06:24:20Z</time>
      </trkpt>
      <trkpt lat="45.80347" lon="14.20668">
        <ele>564.43</ele>
        <time>2012-07-31T06:24:56Z</time>
      </trkpt>
      <trkpt lat="45.80346" lon="14.20669">
        <ele>564.43</ele>
        <time>2012-07-31T06:25:28Z</time>
      </trkpt>
      <trkpt lat="45.80348" lon="14.20668">
        <ele>563.95</ele>
        <time>2012-07-31T06:26:03Z</time>
      </trkpt>
      <trkpt lat="45.80348" lon="14.20667">
        <ele>563.95</ele>
        <time>2012-07-31T06:26:40Z</time>
      </trkpt>
      <trkpt lat="45.80348" lon="14.20664">
        <ele>563.95</ele>
        <time>2012-07-31T06:27:10Z</time>
      </trkpt>
      <trkpt lat="45.80347" lon="14.20664">
        <ele>559.62</ele>
        <time>2012-07-31T06:27:29Z</time>
      </trkpt>
      <trkpt lat="45.80348" lon="14.20664">
        <ele>562.99</ele>
        <time>2012-07-31T06:27:30Z</time>
      </trkpt>
      <trkpt lat="45.8035" lon="14.20646">
        <ele>562.51</ele>
        <time>2012-07-31T06:37:38Z</time>
      </trkpt>
      <trkpt lat="45.8035" lon="14.20652">
        <ele>561.55</ele>
        <time>2012-07-31T06:37:39Z</time>
      </trkpt>
      <trkpt lat="45.80353" lon="14.20659">
        <ele>562.51</ele>
        <time>2012-07-31T06:37:49Z</time>
      </trkpt>
      <trkpt lat="45.80346" lon="14.20668">
        <ele>562.99</ele>
        <time>2012-07-31T06:39:13Z</time>
      </trkpt>
      <trkpt lat="45.80346" lon="14.20668">
        <ele>562.51</ele>
        <time>2012-07-31T06:39:14Z</time>
      </trkpt>
      <trkpt lat="45.80345" lon="14.20651">
        <ele>563.47</ele>
        <time>2012-07-31T06:39:45Z</time>
      </trkpt>
      <trkpt lat="45.80339" lon="14.20653">
        <ele>563.47</ele>
        <time>2012-07-31T06:40:14Z</time>
      </trkpt>
      <trkpt lat="45.80341" lon="14.20656">
        <ele>563.47</ele>
        <time>2012-07-31T06:40:43Z</time>
      </trkpt>
      <trkpt lat="45.80339" lon="14.20656">
        <ele>564.91</ele>
        <time>2012-07-31T06:41:16Z</time>
      </trkpt>
      <trkpt lat="45.8034" lon="14.20659">
        <ele>565.39</ele>
        <time>2012-07-31T06:41:42Z</time>
      </trkpt>
      <trkpt lat="45.8034" lon="14.20661">
        <ele>564.43</ele>
        <time>2012-07-31T06:42:17Z</time>
      </trkpt>
      <trkpt lat="45.8034" lon="14.20664">
        <ele>565.39</ele>
        <time>2012-07-31T06:42:48Z</time>
      </trkpt>
      <trkpt lat="45.8034" lon="14.20663">
        <ele>565.87</ele>
        <time>2012-07-31T06:43:18Z</time>
      </trkpt>
      <trkpt lat="45.80341" lon="14.20664">
        <ele>565.87</ele>
        <time>2012-07-31T06:43:52Z</time>
      </trkpt>
      <trkpt lat="45.8034" lon="14.20664">
        <ele>565.87</ele>
        <time>2012-07-31T06:44:26Z</time>
      </trkpt>
      <trkpt lat="45.80339" lon="14.20666">
        <ele>565.87</ele>
        <time>2012-07-31T06:44:53Z</time>
      </trkpt>
      <trkpt lat="45.80339" lon="14.20666">
        <ele>566.35</ele>
        <time>2012-07-31T06:45:24Z</time>
      </trkpt>
      <trkpt lat="45.80339" lon="14.20666">
        <ele>565.87</ele>
        <time>2012-07-31T06:45:57Z</time>
      </trkpt>
      <trkpt lat="45.80341" lon="14.20667">
        <ele>566.35</ele>
        <time>2012-07-31T06:46:29Z</time>
      </trkpt>
      <trkpt lat="45.8034" lon="14.20668">
        <ele>566.83</ele>
        <time>2012-07-31T06:46:59Z</time>
      </trkpt>
      <trkpt lat="45.80341" lon="14.20666">
        <ele>567.32</ele>
        <time>2012-07-31T06:47:29Z</time>
      </trkpt>
      <trkpt lat="45.80342" lon="14.20667">
        <ele>566.83</ele>
        <time>2012-07-31T06:48:00Z</time>
      </trkpt>
      <trkpt lat="45.80343" lon="14.20667">
        <ele>567.32</ele>
        <time>2012-07-31T06:48:34Z</time>
      </trkpt>
      <trkpt lat="45.80344" lon="14.20667">
        <ele>567.32</ele>
        <time>2012-07-31T06:49:06Z</time>
      </trkpt>
      <trkpt lat="45.80344" lon="14.20666">
        <ele>566.83</ele>
        <time>2012-07-31T06:49:38Z</time>
      </trkpt>
      <trkpt lat="45.80344" lon="14.20666">
        <ele>566.83</ele>
        <time>2012-07-31T06:50:09Z</time>
      </trkpt>
      <trkpt lat="45.80345" lon="14.20665">
        <ele>566.83</ele>
        <time>2012-07-31T06:50:44Z</time>
      </trkpt>
      <trkpt lat="45.80345" lon="14.20665">
        <ele>566.83</ele>
        <time>2012-07-31T06:51:17Z</time>
      </trkpt>
      <trkpt lat="45.80345" lon="14.20663">
        <ele>566.83</ele>
        <time>2012-07-31T06:51:50Z</time>
      </trkpt>
      <trkpt lat="45.80344" lon="14.20662">
        <ele>566.83</ele>
        <time>2012-07-31T06:52:29Z</time>
      </trkpt>
      <trkpt lat="45.80345" lon="14.20662">
        <ele>566.83</ele>
        <time>2012-07-31T06:52:58Z</time>
      </trkpt>
      <trkpt lat="45.80345" lon="14.20663">
        <ele>566.83</ele>
        <time>2012-07-31T06:53:26Z</time>
      </trkpt>
      <trkpt lat="45.80344" lon="14.20663">
        <ele>566.35</ele>
        <time>2012-07-31T06:54:02Z</time>
      </trkpt>
      <trkpt lat="45.80345" lon="14.20663">
        <ele>565.87</ele>
        <time>2012-07-31T06:54:32Z</time>
      </trkpt>
      <trkpt lat="45.80345" lon="14.20662">
        <ele>566.83</ele>
        <time>2012-07-31T06:55:06Z</time>
      </trkpt>
      <trkpt lat="45.80346" lon="14.20661">
        <ele>566.35</ele>
        <time>2012-07-31T06:55:39Z</time>
      </trkpt>
      <trkpt lat="45.80346" lon="14.2066">
        <ele>566.35</ele>
        <time>2012-07-31T06:56:11Z</time>
      </trkpt>
      <trkpt lat="45.80347" lon="14.2066">
        <ele>566.35</ele>
        <time>2012-07-31T06:56:45Z</time>
      </trkpt>
      <trkpt lat="45.80348" lon="14.20663">
        <ele>566.83</ele>
        <time>2012-07-31T06:57:22Z</time>
      </trkpt>
      <trkpt lat="45.80347" lon="14.20665">
        <ele>566.35</ele>
        <time>2012-07-31T06:57:52Z</time>
      </trkpt>
      <trkpt lat="45.80348" lon="14.20665">
        <ele>566.35</ele>
        <time>2012-07-31T06:58:23Z</time>
      </trkpt>
      <trkpt lat="45.80348" lon="14.20666">
        <ele>566.35</ele>
        <time>2012-07-31T06:58:55Z</time>
      </trkpt>
      <trkpt lat="45.80348" lon="14.20666">
        <ele>558.66</ele>
        <time>2012-07-31T06:59:18Z</time>
      </trkpt>
      <trkpt lat="45.80348" lon="14.20666">
        <ele>567.32</ele>
        <time>2012-07-31T06:59:19Z</time>
      </trkpt>
      <trkpt lat="45.80348" lon="14.20666">
        <ele>566.35</ele>
        <time>2012-07-31T06:59:20Z</time>
      </trkpt>
      <trkpt lat="45.80344" lon="14.20667">
        <ele>566.83</ele>
        <time>2012-07-31T07:29:06Z</time>
      </trkpt>
      <trkpt lat="45.80343" lon="14.20668">
        <ele>566.83</ele>
        <time>2012-07-31T07:29:07Z</time>
      </trkpt>
      <trkpt lat="45.80338" lon="14.20667">
        <ele>570.2</ele>
        <time>2012-07-31T07:29:25Z</time>
      </trkpt>
      <trkpt lat="45.80339" lon="14.20669">
        <ele>572.6</ele>
        <time>2012-07-31T07:29:30Z</time>
      </trkpt>
      <trkpt lat="45.80345" lon="14.20669">
        <ele>575.97</ele>
        <time>2012-07-31T07:29:48Z</time>
      </trkpt>
      <trkpt lat="45.80354" lon="14.20664">
        <ele>575.97</ele>
        <time>2012-07-31T07:30:19Z</time>
      </trkpt>
      <trkpt lat="45.80353" lon="14.20665">
        <ele>572.6</ele>
        <time>2012-07-31T07:30:33Z</time>
      </trkpt>
      <trkpt lat="45.80353" lon="14.20665">
        <ele>576.93</ele>
        <time>2012-07-31T07:30:34Z</time>
      </trkpt>
      <trkpt lat="45.80352" lon="14.20665">
        <ele>573.56</ele>
        <time>2012-07-31T07:30:39Z</time>
      </trkpt>
      <trkpt lat="45.80352" lon="14.20665">
        <ele>577.41</ele>
        <time>2012-07-31T07:30:41Z</time>
      </trkpt>
      <trkpt lat="45.80351" lon="14.20665">
        <ele>574.53</ele>
        <time>2012-07-31T07:30:42Z</time>
      </trkpt>
      <trkpt lat="45.80352" lon="14.20666">
        <ele>577.89</ele>
        <time>2012-07-31T07:30:47Z</time>
      </trkpt>
      <trkpt lat="45.80349" lon="14.2067">
        <ele>574.53</ele>
        <time>2012-07-31T07:31:08Z</time>
      </trkpt>
      <trkpt lat="45.80348" lon="14.2067">
        <ele>577.41</ele>
        <time>2012-07-31T07:31:23Z</time>
      </trkpt>
      <trkpt lat="45.80349" lon="14.20668">
        <ele>577.41</ele>
        <time>2012-07-31T07:31:33Z</time>
      </trkpt>
      <trkpt lat="45.80349" lon="14.20671">
        <ele>576.45</ele>
        <time>2012-07-31T07:32:06Z</time>
      </trkpt>
      <trkpt lat="45.80348" lon="14.20669">
        <ele>575.97</ele>
        <time>2012-07-31T07:32:37Z</time>
      </trkpt>
      <trkpt lat="45.80348" lon="14.20669">
        <ele>575.97</ele>
        <time>2012-07-31T07:32:42Z</time>
      </trkpt>
      <trkpt lat="45.80348" lon="14.20667">
        <ele>575.97</ele>
        <time>2012-07-31T07:33:17Z</time>
      </trkpt>
      <trkpt lat="45.80349" lon="14.20666">
        <ele>575.49</ele>
        <time>2012-07-31T07:33:49Z</time>
      </trkpt>
      <trkpt lat="45.80349" lon="14.20666">
        <ele>575.49</ele>
        <time>2012-07-31T07:34:20Z</time>
      </trkpt>
      <trkpt lat="45.80349" lon="14.20666">
        <ele>575.01</ele>
        <time>2012-07-31T07:34:47Z</time>
      </trkpt>
      <trkpt lat="45.8035" lon="14.20668">
        <ele>575.49</ele>
        <time>2012-07-31T07:35:16Z</time>
      </trkpt>
      <trkpt lat="45.80351" lon="14.20668">
        <ele>575.01</ele>
        <time>2012-07-31T07:35:47Z</time>
      </trkpt>
      <trkpt lat="45.8035" lon="14.20668">
        <ele>575.01</ele>
        <time>2012-07-31T07:36:15Z</time>
      </trkpt>
      <trkpt lat="45.8035" lon="14.20669">
        <ele>570.68</ele>
        <time>2012-07-31T07:36:26Z</time>
      </trkpt>
      <trkpt lat="45.8035" lon="14.20669">
        <ele>575.01</ele>
        <time>2012-07-31T07:36:27Z</time>
      </trkpt>
      <trkpt lat="45.8035" lon="14.20668">
        <ele>570.2</ele>
        <time>2012-07-31T07:36:36Z</time>
      </trkpt>
      <trkpt lat="45.8035" lon="14.20668">
        <ele>576.45</ele>
        <time>2012-07-31T07:36:37Z</time>
      </trkpt>
      <trkpt lat="45.80349" lon="14.20666">
        <ele>574.53</ele>
        <time>2012-07-31T07:36:49Z</time>
      </trkpt>
      <trkpt lat="45.80343" lon="14.20664">
        <ele>575.49</ele>
        <time>2012-07-31T07:37:01Z</time>
      </trkpt>
      <trkpt lat="45.80343" lon="14.20661">
        <ele>575.49</ele>
        <time>2012-07-31T07:37:35Z</time>
      </trkpt>
      <trkpt lat="45.80342" lon="14.20661">
        <ele>575.01</ele>
        <time>2012-07-31T07:38:01Z</time>
      </trkpt>
      <trkpt lat="45.80342" lon="14.20661">
        <ele>574.53</ele>
        <time>2012-07-31T07:38:02Z</time>
      </trkpt>
      <trkpt lat="45.80334" lon="14.20665">
        <ele>575.01</ele>
        <time>2012-07-31T07:38:06Z</time>
      </trkpt>
      <trkpt lat="45.80327" lon="14.20672">
        <ele>575.01</ele>
        <time>2012-07-31T07:38:08Z</time>
      </trkpt>
      <trkpt lat="45.80304" lon="14.20693">
        <ele>571.16</ele>
        <time>2012-07-31T07:38:15Z</time>
      </trkpt>
      <trkpt lat="45.80305" lon="14.20696">
        <ele>571.16</ele>
        <time>2012-07-31T07:38:16Z</time>
      </trkpt>
      <trkpt lat="45.80306" lon="14.20701">
        <ele>570.68</ele>
        <time>2012-07-31T07:38:17Z</time>
      </trkpt>
      <trkpt lat="45.80308" lon="14.20706">
        <ele>569.72</ele>
        <time>2012-07-31T07:38:18Z</time>
      </trkpt>
      <trkpt lat="45.80309" lon="14.20712">
        <ele>569.24</ele>
        <time>2012-07-31T07:38:19Z</time>
      </trkpt>
      <trkpt lat="45.80311" lon="14.20716">
        <ele>569.24</ele>
        <time>2012-07-31T07:38:20Z</time>
      </trkpt>
      <trkpt lat="45.80325" lon="14.20718">
        <ele>569.24</ele>
        <time>2012-07-31T07:38:23Z</time>
      </trkpt>
      <trkpt lat="45.8033" lon="14.20717">
        <ele>569.24</ele>
        <time>2012-07-31T07:38:24Z</time>
      </trkpt>
      <trkpt lat="45.80336" lon="14.20715">
        <ele>569.72</ele>
        <time>2012-07-31T07:38:25Z</time>
      </trkpt>
      <trkpt lat="45.80342" lon="14.20711">
        <ele>569.24</ele>
        <time>2012-07-31T07:38:26Z</time>
      </trkpt>
      <trkpt lat="45.80394" lon="14.2067">
        <ele>568.28</ele>
        <time>2012-07-31T07:38:34Z</time>
      </trkpt>
      <trkpt lat="45.80418" lon="14.20634">
        <ele>566.83</ele>
        <time>2012-07-31T07:38:39Z</time>
      </trkpt>
      <trkpt lat="45.8044" lon="14.20592">
        <ele>567.8</ele>
        <time>2012-07-31T07:38:44Z</time>
      </trkpt>
      <trkpt lat="45.80442" lon="14.20583">
        <ele>568.76</ele>
        <time>2012-07-31T07:38:45Z</time>
      </trkpt>
      <trkpt lat="45.80446" lon="14.20566">
        <ele>568.76</ele>
        <time>2012-07-31T07:38:47Z</time>
      </trkpt>
      <trkpt lat="45.80485" lon="14.205">
        <ele>568.76</ele>
        <time>2012-07-31T07:38:57Z</time>
      </trkpt>
      <trkpt lat="45.80489" lon="14.20491">
        <ele>567.8</ele>
        <time>2012-07-31T07:38:58Z</time>
      </trkpt>
      <trkpt lat="45.80496" lon="14.2047">
        <ele>567.32</ele>
        <time>2012-07-31T07:39:01Z</time>
      </trkpt>
      <trkpt lat="45.80496" lon="14.20464">
        <ele>567.32</ele>
        <time>2012-07-31T07:39:02Z</time>
      </trkpt>
      <trkpt lat="45.80495" lon="14.20459">
        <ele>567.32</ele>
        <time>2012-07-31T07:39:03Z</time>
      </trkpt>
      <trkpt lat="45.80493" lon="14.20456">
        <ele>567.32</ele>
        <time>2012-07-31T07:39:04Z</time>
      </trkpt>
      <trkpt lat="45.80492" lon="14.20452">
        <ele>567.32</ele>
        <time>2012-07-31T07:39:05Z</time>
      </trkpt>
      <trkpt lat="45.80492" lon="14.2045">
        <ele>566.83</ele>
        <time>2012-07-31T07:39:06Z</time>
      </trkpt>
      <trkpt lat="45.80492" lon="14.20447">
        <ele>567.8</ele>
        <time>2012-07-31T07:39:17Z</time>
      </trkpt>
      <trkpt lat="45.8049" lon="14.20446">
        <ele>567.8</ele>
        <time>2012-07-31T07:39:37Z</time>
      </trkpt>
      <trkpt lat="45.80494" lon="14.20447">
        <ele>567.32</ele>
        <time>2012-07-31T07:40:08Z</time>
      </trkpt>
      <trkpt lat="45.80493" lon="14.20446">
        <ele>567.32</ele>
        <time>2012-07-31T07:40:38Z</time>
      </trkpt>
      <trkpt lat="45.80491" lon="14.20447">
        <ele>567.32</ele>
        <time>2012-07-31T07:41:13Z</time>
      </trkpt>
      <trkpt lat="45.8049" lon="14.20447">
        <ele>566.83</ele>
        <time>2012-07-31T07:41:46Z</time>
      </trkpt>
      <trkpt lat="45.80491" lon="14.20447">
        <ele>565.87</ele>
        <time>2012-07-31T07:42:18Z</time>
      </trkpt>
      <trkpt lat="45.8049" lon="14.20448">
        <ele>565.87</ele>
        <time>2012-07-31T07:42:52Z</time>
      </trkpt>
      <trkpt lat="45.8049" lon="14.20449">
        <ele>565.87</ele>
        <time>2012-07-31T07:43:25Z</time>
      </trkpt>
      <trkpt lat="45.80491" lon="14.2045">
        <ele>565.87</ele>
        <time>2012-07-31T07:44:00Z</time>
      </trkpt>
      <trkpt lat="45.80491" lon="14.2045">
        <ele>565.39</ele>
        <time>2012-07-31T07:44:30Z</time>
      </trkpt>
      <trkpt lat="45.80491" lon="14.20448">
        <ele>565.87</ele>
        <time>2012-07-31T07:45:04Z</time>
      </trkpt>
      <trkpt lat="45.8049" lon="14.20449">
        <ele>564.91</ele>
        <time>2012-07-31T07:45:41Z</time>
      </trkpt>
      <trkpt lat="45.80491" lon="14.20449">
        <ele>564.91</ele>
        <time>2012-07-31T07:46:19Z</time>
      </trkpt>
      <trkpt lat="45.80491" lon="14.20448">
        <ele>564.43</ele>
        <time>2012-07-31T07:46:53Z</time>
      </trkpt>
      <trkpt lat="45.80491" lon="14.20447">
        <ele>563.95</ele>
        <time>2012-07-31T07:47:29Z</time>
      </trkpt>
      <trkpt lat="45.8049" lon="14.20446">
        <ele>564.91</ele>
        <time>2012-07-31T07:48:01Z</time>
      </trkpt>
      <trkpt lat="45.80489" lon="14.20447">
        <ele>563.95</ele>
        <time>2012-07-31T07:48:32Z</time>
      </trkpt>
      <trkpt lat="45.80488" lon="14.20447">
        <ele>563.95</ele>
        <time>2012-07-31T07:49:07Z</time>
      </trkpt>
      <trkpt lat="45.80489" lon="14.20447">
        <ele>563.47</ele>
        <time>2012-07-31T07:49:31Z</time>
      </trkpt>
      <trkpt lat="45.8049" lon="14.20447">
        <ele>563.95</ele>
        <time>2012-07-31T07:50:04Z</time>
      </trkpt>
      <trkpt lat="45.80491" lon="14.20448">
        <ele>565.39</ele>
        <time>2012-07-31T07:50:38Z</time>
      </trkpt>
      <trkpt lat="45.8049" lon="14.20448">
        <ele>564.91</ele>
        <time>2012-07-31T07:51:14Z</time>
      </trkpt>
      <trkpt lat="45.8049" lon="14.20449">
        <ele>564.43</ele>
        <time>2012-07-31T07:51:47Z</time>
      </trkpt>
      <trkpt lat="45.80491" lon="14.20447">
        <ele>564.43</ele>
        <time>2012-07-31T07:52:14Z</time>
      </trkpt>
      <trkpt lat="45.8049" lon="14.20445">
        <ele>564.43</ele>
        <time>2012-07-31T07:52:42Z</time>
      </trkpt>
      <trkpt lat="45.80491" lon="14.20447">
        <ele>564.91</ele>
        <time>2012-07-31T07:53:10Z</time>
      </trkpt>
      <trkpt lat="45.80492" lon="14.20449">
        <ele>565.39</ele>
        <time>2012-07-31T07:53:44Z</time>
      </trkpt>
      <trkpt lat="45.80493" lon="14.20449">
        <ele>564.43</ele>
        <time>2012-07-31T07:54:15Z</time>
      </trkpt>
      <trkpt lat="45.80494" lon="14.20451">
        <ele>564.91</ele>
        <time>2012-07-31T07:54:47Z</time>
      </trkpt>
      <trkpt lat="45.80492" lon="14.2045">
        <ele>564.91</ele>
        <time>2012-07-31T07:55:20Z</time>
      </trkpt>
      <trkpt lat="45.80493" lon="14.20448">
        <ele>564.91</ele>
        <time>2012-07-31T07:55:53Z</time>
      </trkpt>
      <trkpt lat="45.80493" lon="14.20447">
        <ele>564.43</ele>
        <time>2012-07-31T07:56:32Z</time>
      </trkpt>
      <trkpt lat="45.80489" lon="14.20446">
        <ele>564.43</ele>
        <time>2012-07-31T07:57:08Z</time>
      </trkpt>
      <trkpt lat="45.8049" lon="14.20447">
        <ele>564.43</ele>
        <time>2012-07-31T07:57:46Z</time>
      </trkpt>
      <trkpt lat="45.80491" lon="14.20448">
        <ele>563.95</ele>
        <time>2012-07-31T07:58:23Z</time>
      </trkpt>
      <trkpt lat="45.80491" lon="14.20448">
        <ele>563.95</ele>
        <time>2012-07-31T07:59:02Z</time>
      </trkpt>
      <trkpt lat="45.80492" lon="14.20449">
        <ele>563.95</ele>
        <time>2012-07-31T07:59:37Z</time>
      </trkpt>
      <trkpt lat="45.80493" lon="14.20449">
        <ele>563.95</ele>
        <time>2012-07-31T08:00:14Z</time>
      </trkpt>
      <trkpt lat="45.80491" lon="14.20448">
        <ele>562.99</ele>
        <time>2012-07-31T08:00:45Z</time>
      </trkpt>
      <trkpt lat="45.80492" lon="14.2045">
        <ele>563.47</ele>
        <time>2012-07-31T08:01:21Z</time>
      </trkpt>
      <trkpt lat="45.80491" lon="14.2045">
        <ele>563.47</ele>
        <time>2012-07-31T08:01:51Z</time>
      </trkpt>
      <trkpt lat="45.80492" lon="14.20448">
        <ele>563.47</ele>
        <time>2012-07-31T08:02:30Z</time>
      </trkpt>
      <trkpt lat="45.8049" lon="14.20445">
        <ele>563.95</ele>
        <time>2012-07-31T08:03:07Z</time>
      </trkpt>
      <trkpt lat="45.80491" lon="14.20444">
        <ele>565.39</ele>
        <time>2012-07-31T08:03:41Z</time>
      </trkpt>
      <trkpt lat="45.8049" lon="14.20443">
        <ele>563.95</ele>
        <time>2012-07-31T08:04:07Z</time>
      </trkpt>
      <trkpt lat="45.8049" lon="14.20443">
        <ele>564.91</ele>
        <time>2012-07-31T08:04:44Z</time>
      </trkpt>
      <trkpt lat="45.80489" lon="14.20443">
        <ele>565.39</ele>
        <time>2012-07-31T08:05:03Z</time>
      </trkpt>
      <trkpt lat="45.8049" lon="14.20443">
        <ele>564.91</ele>
        <time>2012-07-31T08:05:33Z</time>
      </trkpt>
      <trkpt lat="45.80489" lon="14.20443">
        <ele>564.43</ele>
        <time>2012-07-31T08:06:04Z</time>
      </trkpt>
      <trkpt lat="45.80489" lon="14.20444">
        <ele>564.43</ele>
        <time>2012-07-31T08:06:31Z</time>
      </trkpt>
      <trkpt lat="45.80489" lon="14.20444">
        <ele>564.43</ele>
        <time>2012-07-31T08:06:49Z</time>
      </trkpt>
      <trkpt lat="45.80491" lon="14.20443">
        <ele>564.43</ele>
        <time>2012-07-31T08:06:52Z</time>
      </trkpt>
      <trkpt lat="45.80493" lon="14.20443">
        <ele>563.95</ele>
        <time>2012-07-31T08:06:53Z</time>
      </trkpt>
      <trkpt lat="45.80497" lon="14.20444">
        <ele>564.43</ele>
        <time>2012-07-31T08:07:00Z</time>
      </trkpt>
      <trkpt lat="45.805" lon="14.20443">
        <ele>564.43</ele>
        <time>2012-07-31T08:07:01Z</time>
      </trkpt>
      <trkpt lat="45.80503" lon="14.20442">
        <ele>564.43</ele>
        <time>2012-07-31T08:07:02Z</time>
      </trkpt>
      <trkpt lat="45.80528" lon="14.20422">
        <ele>565.39</ele>
        <time>2012-07-31T08:07:08Z</time>
      </trkpt>
      <trkpt lat="45.80531" lon="14.20417">
        <ele>565.39</ele>
        <time>2012-07-31T08:07:09Z</time>
      </trkpt>
      <trkpt lat="45.80534" lon="14.20413">
        <ele>565.87</ele>
        <time>2012-07-31T08:07:10Z</time>
      </trkpt>
      <trkpt lat="45.80535" lon="14.20408">
        <ele>566.35</ele>
        <time>2012-07-31T08:07:11Z</time>
      </trkpt>
      <trkpt lat="45.80536" lon="14.20402">
        <ele>566.35</ele>
        <time>2012-07-31T08:07:12Z</time>
      </trkpt>
      <trkpt lat="45.80536" lon="14.20397">
        <ele>564.91</ele>
        <time>2012-07-31T08:07:13Z</time>
      </trkpt>
      <trkpt lat="45.80537" lon="14.2038">
        <ele>568.76</ele>
        <time>2012-07-31T08:07:16Z</time>
      </trkpt>
      <trkpt lat="45.80537" lon="14.20375">
        <ele>568.76</ele>
        <time>2012-07-31T08:07:17Z</time>
      </trkpt>
      <trkpt lat="45.80537" lon="14.20364">
        <ele>567.32</ele>
        <time>2012-07-31T08:07:19Z</time>
      </trkpt>
      <trkpt lat="45.80535" lon="14.20358">
        <ele>567.32</ele>
        <time>2012-07-31T08:07:20Z</time>
      </trkpt>
      <trkpt lat="45.80531" lon="14.20353">
        <ele>567.8</ele>
        <time>2012-07-31T08:07:21Z</time>
      </trkpt>
      <trkpt lat="45.80526" lon="14.20349">
        <ele>564.91</ele>
        <time>2012-07-31T08:07:22Z</time>
      </trkpt>
      <trkpt lat="45.80521" lon="14.20346">
        <ele>565.87</ele>
        <time>2012-07-31T08:07:23Z</time>
      </trkpt>
      <trkpt lat="45.80514" lon="14.20343">
        <ele>568.28</ele>
        <time>2012-07-31T08:07:24Z</time>
      </trkpt>
      <trkpt lat="45.80507" lon="14.20341">
        <ele>569.72</ele>
        <time>2012-07-31T08:07:25Z</time>
      </trkpt>
      <trkpt lat="45.805" lon="14.20339">
        <ele>570.68</ele>
        <time>2012-07-31T08:07:26Z</time>
      </trkpt>
      <trkpt lat="45.80493" lon="14.20338">
        <ele>571.16</ele>
        <time>2012-07-31T08:07:27Z</time>
      </trkpt>
      <trkpt lat="45.80477" lon="14.20336">
        <ele>573.56</ele>
        <time>2012-07-31T08:07:29Z</time>
      </trkpt>
      <trkpt lat="45.80454" lon="14.20337">
        <ele>565.39</ele>
        <time>2012-07-31T08:07:32Z</time>
      </trkpt>
      <trkpt lat="45.80445" lon="14.20338">
        <ele>572.12</ele>
        <time>2012-07-31T08:07:33Z</time>
      </trkpt>
      <trkpt lat="45.80429" lon="14.20338">
        <ele>575.01</ele>
        <time>2012-07-31T08:07:35Z</time>
      </trkpt>
      <trkpt lat="45.80422" lon="14.20337">
        <ele>578.37</ele>
        <time>2012-07-31T08:07:36Z</time>
      </trkpt>
      <trkpt lat="45.80414" lon="14.20335">
        <ele>576.45</ele>
        <time>2012-07-31T08:07:37Z</time>
      </trkpt>
      <trkpt lat="45.80406" lon="14.20329">
        <ele>578.37</ele>
        <time>2012-07-31T08:07:38Z</time>
      </trkpt>
      <trkpt lat="45.80398" lon="14.20323">
        <ele>580.77</ele>
        <time>2012-07-31T08:07:39Z</time>
      </trkpt>
      <trkpt lat="45.80391" lon="14.20317">
        <ele>578.85</ele>
        <time>2012-07-31T08:07:40Z</time>
      </trkpt>
      <trkpt lat="45.80384" lon="14.20308">
        <ele>580.29</ele>
        <time>2012-07-31T08:07:41Z</time>
      </trkpt>
      <trkpt lat="45.80378" lon="14.20298">
        <ele>578.37</ele>
        <time>2012-07-31T08:07:42Z</time>
      </trkpt>
      <trkpt lat="45.80374" lon="14.20287">
        <ele>582.22</ele>
        <time>2012-07-31T08:07:43Z</time>
      </trkpt>
      <trkpt lat="45.80371" lon="14.20275">
        <ele>581.73</ele>
        <time>2012-07-31T08:07:44Z</time>
      </trkpt>
      <trkpt lat="45.80369" lon="14.20263">
        <ele>579.81</ele>
        <time>2012-07-31T08:07:45Z</time>
      </trkpt>
      <trkpt lat="45.80366" lon="14.20239">
        <ele>582.7</ele>
        <time>2012-07-31T08:07:47Z</time>
      </trkpt>
      <trkpt lat="45.80364" lon="14.2023">
        <ele>583.18</ele>
        <time>2012-07-31T08:07:48Z</time>
      </trkpt>
      <trkpt lat="45.8036" lon="14.20221">
        <ele>584.14</ele>
        <time>2012-07-31T08:07:49Z</time>
      </trkpt>
      <trkpt lat="45.80355" lon="14.20214">
        <ele>584.62</ele>
        <time>2012-07-31T08:07:50Z</time>
      </trkpt>
      <trkpt lat="45.80348" lon="14.2021">
        <ele>585.58</ele>
        <time>2012-07-31T08:07:51Z</time>
      </trkpt>
      <trkpt lat="45.80339" lon="14.20207">
        <ele>586.06</ele>
        <time>2012-07-31T08:07:52Z</time>
      </trkpt>
      <trkpt lat="45.80329" lon="14.20204">
        <ele>587.02</ele>
        <time>2012-07-31T08:07:53Z</time>
      </trkpt>
      <trkpt lat="45.8032" lon="14.20201">
        <ele>587.02</ele>
        <time>2012-07-31T08:07:54Z</time>
      </trkpt>
      <trkpt lat="45.80309" lon="14.20194">
        <ele>587.02</ele>
        <time>2012-07-31T08:07:55Z</time>
      </trkpt>
      <trkpt lat="45.80299" lon="14.20186">
        <ele>587.5</ele>
        <time>2012-07-31T08:07:56Z</time>
      </trkpt>
      <trkpt lat="45.80284" lon="14.20165">
        <ele>587.98</ele>
        <time>2012-07-31T08:07:58Z</time>
      </trkpt>
      <trkpt lat="45.80278" lon="14.20152">
        <ele>587.98</ele>
        <time>2012-07-31T08:07:59Z</time>
      </trkpt>
      <trkpt lat="45.80272" lon="14.20137">
        <ele>587.5</ele>
        <time>2012-07-31T08:08:00Z</time>
      </trkpt>
      <trkpt lat="45.80264" lon="14.20123">
        <ele>588.46</ele>
        <time>2012-07-31T08:08:01Z</time>
      </trkpt>
      <trkpt lat="45.80254" lon="14.2011">
        <ele>588.46</ele>
        <time>2012-07-31T08:08:02Z</time>
      </trkpt>
      <trkpt lat="45.80243" lon="14.20096">
        <ele>588.46</ele>
        <time>2012-07-31T08:08:03Z</time>
      </trkpt>
      <trkpt lat="45.80212" lon="14.20051">
        <ele>588.46</ele>
        <time>2012-07-31T08:08:06Z</time>
      </trkpt>
      <trkpt lat="45.80201" lon="14.20039">
        <ele>588.95</ele>
        <time>2012-07-31T08:08:07Z</time>
      </trkpt>
      <trkpt lat="45.80191" lon="14.20029">
        <ele>588.95</ele>
        <time>2012-07-31T08:08:08Z</time>
      </trkpt>
      <trkpt lat="45.80178" lon="14.2002">
        <ele>588.95</ele>
        <time>2012-07-31T08:08:09Z</time>
      </trkpt>
      <trkpt lat="45.80164" lon="14.20014">
        <ele>587.98</ele>
        <time>2012-07-31T08:08:10Z</time>
      </trkpt>
      <trkpt lat="45.80128" lon="14.19999">
        <ele>584.62</ele>
        <time>2012-07-31T08:08:13Z</time>
      </trkpt>
      <trkpt lat="45.80118" lon="14.19992">
        <ele>584.14</ele>
        <time>2012-07-31T08:08:14Z</time>
      </trkpt>
      <trkpt lat="45.80107" lon="14.19981">
        <ele>583.18</ele>
        <time>2012-07-31T08:08:15Z</time>
      </trkpt>
      <trkpt lat="45.80097" lon="14.19967">
        <ele>583.18</ele>
        <time>2012-07-31T08:08:16Z</time>
      </trkpt>
      <trkpt lat="45.80056" lon="14.1991">
        <ele>579.33</ele>
        <time>2012-07-31T08:08:20Z</time>
      </trkpt>
      <trkpt lat="45.80048" lon="14.19898">
        <ele>577.41</ele>
        <time>2012-07-31T08:08:21Z</time>
      </trkpt>
      <trkpt lat="45.80041" lon="14.19889">
        <ele>576.45</ele>
        <time>2012-07-31T08:08:22Z</time>
      </trkpt>
      <trkpt lat="45.80033" lon="14.19885">
        <ele>575.97</ele>
        <time>2012-07-31T08:08:23Z</time>
      </trkpt>
      <trkpt lat="45.80026" lon="14.19883">
        <ele>575.97</ele>
        <time>2012-07-31T08:08:24Z</time>
      </trkpt>
      <trkpt lat="45.80019" lon="14.19884">
        <ele>575.97</ele>
        <time>2012-07-31T08:08:25Z</time>
      </trkpt>
      <trkpt lat="45.80013" lon="14.19886">
        <ele>576.45</ele>
        <time>2012-07-31T08:08:26Z</time>
      </trkpt>
      <trkpt lat="45.80006" lon="14.1989">
        <ele>576.93</ele>
        <time>2012-07-31T08:08:27Z</time>
      </trkpt>
      <trkpt lat="45.79999" lon="14.19896">
        <ele>576.93</ele>
        <time>2012-07-31T08:08:28Z</time>
      </trkpt>
      <trkpt lat="45.79991" lon="14.19904">
        <ele>576.93</ele>
        <time>2012-07-31T08:08:29Z</time>
      </trkpt>
      <trkpt lat="45.79984" lon="14.19914">
        <ele>576.93</ele>
        <time>2012-07-31T08:08:30Z</time>
      </trkpt>
      <trkpt lat="45.79975" lon="14.19926">
        <ele>576.93</ele>
        <time>2012-07-31T08:08:31Z</time>
      </trkpt>
      <trkpt lat="45.79967" lon="14.1994">
        <ele>576.93</ele>
        <time>2012-07-31T08:08:32Z</time>
      </trkpt>
      <trkpt lat="45.79958" lon="14.19959">
        <ele>577.89</ele>
        <time>2012-07-31T08:08:33Z</time>
      </trkpt>
      <trkpt lat="45.79948" lon="14.19975">
        <ele>577.89</ele>
        <time>2012-07-31T08:08:34Z</time>
      </trkpt>
      <trkpt lat="45.79919" lon="14.2002">
        <ele>580.29</ele>
        <time>2012-07-31T08:08:37Z</time>
      </trkpt>
      <trkpt lat="45.79899" lon="14.20052">
        <ele>581.73</ele>
        <time>2012-07-31T08:08:39Z</time>
      </trkpt>
      <trkpt lat="45.79874" lon="14.20073">
        <ele>583.18</ele>
        <time>2012-07-31T08:08:41Z</time>
      </trkpt>
      <trkpt lat="45.79861" lon="14.20081">
        <ele>583.66</ele>
        <time>2012-07-31T08:08:42Z</time>
      </trkpt>
      <trkpt lat="45.79847" lon="14.20085">
        <ele>584.62</ele>
        <time>2012-07-31T08:08:43Z</time>
      </trkpt>
      <trkpt lat="45.79833" lon="14.20086">
        <ele>585.1</ele>
        <time>2012-07-31T08:08:44Z</time>
      </trkpt>
      <trkpt lat="45.79819" lon="14.20086">
        <ele>587.02</ele>
        <time>2012-07-31T08:08:45Z</time>
      </trkpt>
      <trkpt lat="45.79805" lon="14.20085">
        <ele>587.98</ele>
        <time>2012-07-31T08:08:46Z</time>
      </trkpt>
      <trkpt lat="45.79707" lon="14.20075">
        <ele>587.5</ele>
        <time>2012-07-31T08:08:53Z</time>
      </trkpt>
      <trkpt lat="45.79695" lon="14.2007">
        <ele>587.98</ele>
        <time>2012-07-31T08:08:54Z</time>
      </trkpt>
      <trkpt lat="45.79684" lon="14.20062">
        <ele>587.5</ele>
        <time>2012-07-31T08:08:55Z</time>
      </trkpt>
      <trkpt lat="45.79675" lon="14.20052">
        <ele>587.5</ele>
        <time>2012-07-31T08:08:56Z</time>
      </trkpt>
      <trkpt lat="45.79667" lon="14.20039">
        <ele>587.02</ele>
        <time>2012-07-31T08:08:57Z</time>
      </trkpt>
      <trkpt lat="45.7966" lon="14.20024">
        <ele>587.5</ele>
        <time>2012-07-31T08:08:58Z</time>
      </trkpt>
      <trkpt lat="45.79654" lon="14.20007">
        <ele>587.02</ele>
        <time>2012-07-31T08:08:59Z</time>
      </trkpt>
      <trkpt lat="45.79649" lon="14.19989">
        <ele>587.5</ele>
        <time>2012-07-31T08:09:00Z</time>
      </trkpt>
      <trkpt lat="45.79638" lon="14.19956">
        <ele>587.02</ele>
        <time>2012-07-31T08:09:02Z</time>
      </trkpt>
      <trkpt lat="45.79631" lon="14.19943">
        <ele>587.02</ele>
        <time>2012-07-31T08:09:03Z</time>
      </trkpt>
      <trkpt lat="45.79623" lon="14.19931">
        <ele>587.5</ele>
        <time>2012-07-31T08:09:04Z</time>
      </trkpt>
      <trkpt lat="45.79551" lon="14.19853">
        <ele>589.43</ele>
        <time>2012-07-31T08:09:10Z</time>
      </trkpt>
      <trkpt lat="45.79517" lon="14.19817">
        <ele>587.02</ele>
        <time>2012-07-31T08:09:13Z</time>
      </trkpt>
      <trkpt lat="45.79497" lon="14.19801">
        <ele>586.54</ele>
        <time>2012-07-31T08:09:15Z</time>
      </trkpt>
      <trkpt lat="45.79487" lon="14.19796">
        <ele>587.02</ele>
        <time>2012-07-31T08:09:16Z</time>
      </trkpt>
      <trkpt lat="45.79476" lon="14.19793">
        <ele>586.06</ele>
        <time>2012-07-31T08:09:17Z</time>
      </trkpt>
      <trkpt lat="45.79404" lon="14.19783">
        <ele>581.25</ele>
        <time>2012-07-31T08:09:23Z</time>
      </trkpt>
      <trkpt lat="45.79393" lon="14.19781">
        <ele>582.22</ele>
        <time>2012-07-31T08:09:24Z</time>
      </trkpt>
      <trkpt lat="45.7936" lon="14.19775">
        <ele>579.33</ele>
        <time>2012-07-31T08:09:27Z</time>
      </trkpt>
      <trkpt lat="45.79351" lon="14.19771">
        <ele>567.32</ele>
        <time>2012-07-31T08:09:28Z</time>
      </trkpt>
      <trkpt lat="45.79343" lon="14.19767">
        <ele>584.14</ele>
        <time>2012-07-31T08:09:29Z</time>
      </trkpt>
      <trkpt lat="45.79335" lon="14.19762">
        <ele>571.64</ele>
        <time>2012-07-31T08:09:30Z</time>
      </trkpt>
      <trkpt lat="45.79328" lon="14.19756">
        <ele>575.01</ele>
        <time>2012-07-31T08:09:31Z</time>
      </trkpt>
      <trkpt lat="45.79322" lon="14.19746">
        <ele>575.01</ele>
        <time>2012-07-31T08:09:32Z</time>
      </trkpt>
      <trkpt lat="45.79316" lon="14.19734">
        <ele>576.45</ele>
        <time>2012-07-31T08:09:33Z</time>
      </trkpt>
      <trkpt lat="45.79311" lon="14.19721">
        <ele>575.01</ele>
        <time>2012-07-31T08:09:34Z</time>
      </trkpt>
      <trkpt lat="45.79308" lon="14.19705">
        <ele>573.08</ele>
        <time>2012-07-31T08:09:35Z</time>
      </trkpt>
      <trkpt lat="45.79313" lon="14.19686">
        <ele>572.12</ele>
        <time>2012-07-31T08:09:36Z</time>
      </trkpt>
      <trkpt lat="45.79318" lon="14.19668">
        <ele>571.16</ele>
        <time>2012-07-31T08:09:37Z</time>
      </trkpt>
      <trkpt lat="45.79323" lon="14.19651">
        <ele>571.16</ele>
        <time>2012-07-31T08:09:38Z</time>
      </trkpt>
      <trkpt lat="45.79327" lon="14.19637">
        <ele>570.2</ele>
        <time>2012-07-31T08:09:39Z</time>
      </trkpt>
      <trkpt lat="45.79327" lon="14.19622">
        <ele>570.2</ele>
        <time>2012-07-31T08:09:40Z</time>
      </trkpt>
      <trkpt lat="45.79325" lon="14.19608">
        <ele>569.72</ele>
        <time>2012-07-31T08:09:41Z</time>
      </trkpt>
      <trkpt lat="45.79321" lon="14.19595">
        <ele>568.76</ele>
        <time>2012-07-31T08:09:42Z</time>
      </trkpt>
      <trkpt lat="45.79317" lon="14.19582">
        <ele>567.32</ele>
        <time>2012-07-31T08:09:43Z</time>
      </trkpt>
      <trkpt lat="45.79315" lon="14.1957">
        <ele>567.32</ele>
        <time>2012-07-31T08:09:44Z</time>
      </trkpt>
      <trkpt lat="45.79316" lon="14.19558">
        <ele>566.35</ele>
        <time>2012-07-31T08:09:45Z</time>
      </trkpt>
      <trkpt lat="45.79321" lon="14.19546">
        <ele>565.87</ele>
        <time>2012-07-31T08:09:46Z</time>
      </trkpt>
      <trkpt lat="45.79328" lon="14.19534">
        <ele>565.39</ele>
        <time>2012-07-31T08:09:47Z</time>
      </trkpt>
      <trkpt lat="45.79335" lon="14.19523">
        <ele>567.32</ele>
        <time>2012-07-31T08:09:48Z</time>
      </trkpt>
      <trkpt lat="45.79343" lon="14.19514">
        <ele>564.43</ele>
        <time>2012-07-31T08:09:49Z</time>
      </trkpt>
      <trkpt lat="45.7935" lon="14.19504">
        <ele>563.47</ele>
        <time>2012-07-31T08:09:50Z</time>
      </trkpt>
      <trkpt lat="45.79356" lon="14.19495">
        <ele>562.03</ele>
        <time>2012-07-31T08:09:51Z</time>
      </trkpt>
      <trkpt lat="45.79361" lon="14.19484">
        <ele>562.03</ele>
        <time>2012-07-31T08:09:52Z</time>
      </trkpt>
      <trkpt lat="45.79364" lon="14.19473">
        <ele>561.55</ele>
        <time>2012-07-31T08:09:53Z</time>
      </trkpt>
      <trkpt lat="45.79365" lon="14.1946">
        <ele>561.55</ele>
        <time>2012-07-31T08:09:54Z</time>
      </trkpt>
      <trkpt lat="45.79363" lon="14.19448">
        <ele>561.07</ele>
        <time>2012-07-31T08:09:55Z</time>
      </trkpt>
      <trkpt lat="45.79361" lon="14.19435">
        <ele>560.59</ele>
        <time>2012-07-31T08:09:56Z</time>
      </trkpt>
      <trkpt lat="45.79357" lon="14.19421">
        <ele>559.14</ele>
        <time>2012-07-31T08:09:57Z</time>
      </trkpt>
      <trkpt lat="45.79343" lon="14.19383">
        <ele>557.7</ele>
        <time>2012-07-31T08:09:59Z</time>
      </trkpt>
      <trkpt lat="45.79335" lon="14.19364">
        <ele>556.74</ele>
        <time>2012-07-31T08:10:00Z</time>
      </trkpt>
      <trkpt lat="45.79325" lon="14.19347">
        <ele>556.74</ele>
        <time>2012-07-31T08:10:01Z</time>
      </trkpt>
      <trkpt lat="45.79313" lon="14.1933">
        <ele>555.78</ele>
        <time>2012-07-31T08:10:02Z</time>
      </trkpt>
      <trkpt lat="45.793" lon="14.19317">
        <ele>554.34</ele>
        <time>2012-07-31T08:10:03Z</time>
      </trkpt>
      <trkpt lat="45.7929" lon="14.19305">
        <ele>552.9</ele>
        <time>2012-07-31T08:10:04Z</time>
      </trkpt>
      <trkpt lat="45.79283" lon="14.19294">
        <ele>551.93</ele>
        <time>2012-07-31T08:10:05Z</time>
      </trkpt>
      <trkpt lat="45.79276" lon="14.19281">
        <ele>550.49</ele>
        <time>2012-07-31T08:10:06Z</time>
      </trkpt>
      <trkpt lat="45.79273" lon="14.19269">
        <ele>550.01</ele>
        <time>2012-07-31T08:10:07Z</time>
      </trkpt>
      <trkpt lat="45.79274" lon="14.19255">
        <ele>549.05</ele>
        <time>2012-07-31T08:10:08Z</time>
      </trkpt>
      <trkpt lat="45.79277" lon="14.19241">
        <ele>549.05</ele>
        <time>2012-07-31T08:10:09Z</time>
      </trkpt>
      <trkpt lat="45.79281" lon="14.19229">
        <ele>548.57</ele>
        <time>2012-07-31T08:10:10Z</time>
      </trkpt>
      <trkpt lat="45.79283" lon="14.19218">
        <ele>547.13</ele>
        <time>2012-07-31T08:10:11Z</time>
      </trkpt>
      <trkpt lat="45.79281" lon="14.19208">
        <ele>546.65</ele>
        <time>2012-07-31T08:10:12Z</time>
      </trkpt>
      <trkpt lat="45.79277" lon="14.19197">
        <ele>546.65</ele>
        <time>2012-07-31T08:10:13Z</time>
      </trkpt>
      <trkpt lat="45.79267" lon="14.1919">
        <ele>546.17</ele>
        <time>2012-07-31T08:10:14Z</time>
      </trkpt>
      <trkpt lat="45.79256" lon="14.19188">
        <ele>546.65</ele>
        <time>2012-07-31T08:10:15Z</time>
      </trkpt>
      <trkpt lat="45.79244" lon="14.19189">
        <ele>545.69</ele>
        <time>2012-07-31T08:10:16Z</time>
      </trkpt>
      <trkpt lat="45.79232" lon="14.19189">
        <ele>545.69</ele>
        <time>2012-07-31T08:10:17Z</time>
      </trkpt>
      <trkpt lat="45.7922" lon="14.19188">
        <ele>545.2</ele>
        <time>2012-07-31T08:10:18Z</time>
      </trkpt>
      <trkpt lat="45.79209" lon="14.19183">
        <ele>545.2</ele>
        <time>2012-07-31T08:10:19Z</time>
      </trkpt>
      <trkpt lat="45.79197" lon="14.19176">
        <ele>545.2</ele>
        <time>2012-07-31T08:10:20Z</time>
      </trkpt>
      <trkpt lat="45.79185" lon="14.19168">
        <ele>545.69</ele>
        <time>2012-07-31T08:10:21Z</time>
      </trkpt>
      <trkpt lat="45.79094" lon="14.19112">
        <ele>542.32</ele>
        <time>2012-07-31T08:10:29Z</time>
      </trkpt>
      <trkpt lat="45.79084" lon="14.19103">
        <ele>542.32</ele>
        <time>2012-07-31T08:10:30Z</time>
      </trkpt>
      <trkpt lat="45.79074" lon="14.19095">
        <ele>541.36</ele>
        <time>2012-07-31T08:10:31Z</time>
      </trkpt>
      <trkpt lat="45.79065" lon="14.1909">
        <ele>540.4</ele>
        <time>2012-07-31T08:10:32Z</time>
      </trkpt>
      <trkpt lat="45.79057" lon="14.19086">
        <ele>538.48</ele>
        <time>2012-07-31T08:10:33Z</time>
      </trkpt>
      <trkpt lat="45.7905" lon="14.19082">
        <ele>537.99</ele>
        <time>2012-07-31T08:10:34Z</time>
      </trkpt>
      <trkpt lat="45.79045" lon="14.19077">
        <ele>537.99</ele>
        <time>2012-07-31T08:10:35Z</time>
      </trkpt>
      <trkpt lat="45.79042" lon="14.19073">
        <ele>537.51</ele>
        <time>2012-07-31T08:10:36Z</time>
      </trkpt>
      <trkpt lat="45.79041" lon="14.19071">
        <ele>537.51</ele>
        <time>2012-07-31T08:10:37Z</time>
      </trkpt>
      <trkpt lat="45.7904" lon="14.1907">
        <ele>537.51</ele>
        <time>2012-07-31T08:10:39Z</time>
      </trkpt>
      <trkpt lat="45.7904" lon="14.19065">
        <ele>537.51</ele>
        <time>2012-07-31T08:10:40Z</time>
      </trkpt>
      <trkpt lat="45.7904" lon="14.19057">
        <ele>537.99</ele>
        <time>2012-07-31T08:10:41Z</time>
      </trkpt>
      <trkpt lat="45.79043" lon="14.19046">
        <ele>539.44</ele>
        <time>2012-07-31T08:10:42Z</time>
      </trkpt>
      <trkpt lat="45.79046" lon="14.19034">
        <ele>539.44</ele>
        <time>2012-07-31T08:10:43Z</time>
      </trkpt>
      <trkpt lat="45.79051" lon="14.19022">
        <ele>540.4</ele>
        <time>2012-07-31T08:10:44Z</time>
      </trkpt>
      <trkpt lat="45.79058" lon="14.19009">
        <ele>541.36</ele>
        <time>2012-07-31T08:10:45Z</time>
      </trkpt>
      <trkpt lat="45.79066" lon="14.18998">
        <ele>541.36</ele>
        <time>2012-07-31T08:10:46Z</time>
      </trkpt>
      <trkpt lat="45.79075" lon="14.18988">
        <ele>539.44</ele>
        <time>2012-07-31T08:10:47Z</time>
      </trkpt>
      <trkpt lat="45.79085" lon="14.18978">
        <ele>533.19</ele>
        <time>2012-07-31T08:10:48Z</time>
      </trkpt>
      <trkpt lat="45.79095" lon="14.18968">
        <ele>543.28</ele>
        <time>2012-07-31T08:10:49Z</time>
      </trkpt>
      <trkpt lat="45.79116" lon="14.18944">
        <ele>543.28</ele>
        <time>2012-07-31T08:10:51Z</time>
      </trkpt>
      <trkpt lat="45.79126" lon="14.18929">
        <ele>543.76</ele>
        <time>2012-07-31T08:10:52Z</time>
      </trkpt>
      <trkpt lat="45.79135" lon="14.18914">
        <ele>544.72</ele>
        <time>2012-07-31T08:10:53Z</time>
      </trkpt>
      <trkpt lat="45.79143" lon="14.18898">
        <ele>544.72</ele>
        <time>2012-07-31T08:10:54Z</time>
      </trkpt>
      <trkpt lat="45.79151" lon="14.18881">
        <ele>545.2</ele>
        <time>2012-07-31T08:10:55Z</time>
      </trkpt>
      <trkpt lat="45.79178" lon="14.18829">
        <ele>547.13</ele>
        <time>2012-07-31T08:10:58Z</time>
      </trkpt>
      <trkpt lat="45.79215" lon="14.18762">
        <ele>548.57</ele>
        <time>2012-07-31T08:11:02Z</time>
      </trkpt>
      <trkpt lat="45.79268" lon="14.18675">
        <ele>552.41</ele>
        <time>2012-07-31T08:11:07Z</time>
      </trkpt>
      <trkpt lat="45.79368" lon="14.18506">
        <ele>555.78</ele>
        <time>2012-07-31T08:11:16Z</time>
      </trkpt>
      <trkpt lat="45.79402" lon="14.1845">
        <ele>557.22</ele>
        <time>2012-07-31T08:11:19Z</time>
      </trkpt>
      <trkpt lat="45.79471" lon="14.18371">
        <ele>561.07</ele>
        <time>2012-07-31T08:11:24Z</time>
      </trkpt>
      <trkpt lat="45.79483" lon="14.18352">
        <ele>561.07</ele>
        <time>2012-07-31T08:11:25Z</time>
      </trkpt>
      <trkpt lat="45.79505" lon="14.18313">
        <ele>562.51</ele>
        <time>2012-07-31T08:11:27Z</time>
      </trkpt>
      <trkpt lat="45.79587" lon="14.18187">
        <ele>565.87</ele>
        <time>2012-07-31T08:11:34Z</time>
      </trkpt>
      <trkpt lat="45.79599" lon="14.18169">
        <ele>565.87</ele>
        <time>2012-07-31T08:11:35Z</time>
      </trkpt>
      <trkpt lat="45.79663" lon="14.18079">
        <ele>569.24</ele>
        <time>2012-07-31T08:11:40Z</time>
      </trkpt>
      <trkpt lat="45.79708" lon="14.18004">
        <ele>570.68</ele>
        <time>2012-07-31T08:11:44Z</time>
      </trkpt>
      <trkpt lat="45.79778" lon="14.17826">
        <ele>569.24</ele>
        <time>2012-07-31T08:11:53Z</time>
      </trkpt>
      <trkpt lat="45.79785" lon="14.17811">
        <ele>568.76</ele>
        <time>2012-07-31T08:11:54Z</time>
      </trkpt>
      <trkpt lat="45.79793" lon="14.17797">
        <ele>568.76</ele>
        <time>2012-07-31T08:11:55Z</time>
      </trkpt>
      <trkpt lat="45.79803" lon="14.17785">
        <ele>569.72</ele>
        <time>2012-07-31T08:11:56Z</time>
      </trkpt>
      <trkpt lat="45.79814" lon="14.17774">
        <ele>569.72</ele>
        <time>2012-07-31T08:11:57Z</time>
      </trkpt>
      <trkpt lat="45.79864" lon="14.17739">
        <ele>570.2</ele>
        <time>2012-07-31T08:12:01Z</time>
      </trkpt>
      <trkpt lat="45.79888" lon="14.1773">
        <ele>570.2</ele>
        <time>2012-07-31T08:12:03Z</time>
      </trkpt>
      <trkpt lat="45.79899" lon="14.17721">
        <ele>569.72</ele>
        <time>2012-07-31T08:12:04Z</time>
      </trkpt>
      <trkpt lat="45.79907" lon="14.17708">
        <ele>570.2</ele>
        <time>2012-07-31T08:12:05Z</time>
      </trkpt>
      <trkpt lat="45.79912" lon="14.17691">
        <ele>570.2</ele>
        <time>2012-07-31T08:12:06Z</time>
      </trkpt>
      <trkpt lat="45.79915" lon="14.17672">
        <ele>570.2</ele>
        <time>2012-07-31T08:12:07Z</time>
      </trkpt>
      <trkpt lat="45.79917" lon="14.17652">
        <ele>571.16</ele>
        <time>2012-07-31T08:12:08Z</time>
      </trkpt>
      <trkpt lat="45.79925" lon="14.17573">
        <ele>571.16</ele>
        <time>2012-07-31T08:12:12Z</time>
      </trkpt>
      <trkpt lat="45.7993" lon="14.17556">
        <ele>571.64</ele>
        <time>2012-07-31T08:12:13Z</time>
      </trkpt>
      <trkpt lat="45.79938" lon="14.1754">
        <ele>571.64</ele>
        <time>2012-07-31T08:12:14Z</time>
      </trkpt>
      <trkpt lat="45.79948" lon="14.17527">
        <ele>572.12</ele>
        <time>2012-07-31T08:12:15Z</time>
      </trkpt>
      <trkpt lat="45.79959" lon="14.17517">
        <ele>572.12</ele>
        <time>2012-07-31T08:12:16Z</time>
      </trkpt>
      <trkpt lat="45.79973" lon="14.17507">
        <ele>572.6</ele>
        <time>2012-07-31T08:12:17Z</time>
      </trkpt>
      <trkpt lat="45.79987" lon="14.17498">
        <ele>573.56</ele>
        <time>2012-07-31T08:12:18Z</time>
      </trkpt>
      <trkpt lat="45.8" lon="14.1749">
        <ele>573.56</ele>
        <time>2012-07-31T08:12:19Z</time>
      </trkpt>
      <trkpt lat="45.80048" lon="14.17449">
        <ele>573.08</ele>
        <time>2012-07-31T08:12:23Z</time>
      </trkpt>
      <trkpt lat="45.80057" lon="14.17435">
        <ele>573.56</ele>
        <time>2012-07-31T08:12:24Z</time>
      </trkpt>
      <trkpt lat="45.80078" lon="14.17384">
        <ele>575.01</ele>
        <time>2012-07-31T08:12:27Z</time>
      </trkpt>
      <trkpt lat="45.80083" lon="14.17366">
        <ele>574.04</ele>
        <time>2012-07-31T08:12:28Z</time>
      </trkpt>
      <trkpt lat="45.80087" lon="14.17348">
        <ele>575.01</ele>
        <time>2012-07-31T08:12:29Z</time>
      </trkpt>
      <trkpt lat="45.80081" lon="14.17319">
        <ele>574.04</ele>
        <time>2012-07-31T08:12:30Z</time>
      </trkpt>
      <trkpt lat="45.80076" lon="14.17294">
        <ele>574.04</ele>
        <time>2012-07-31T08:12:31Z</time>
      </trkpt>
      <trkpt lat="45.80077" lon="14.17272">
        <ele>574.53</ele>
        <time>2012-07-31T08:12:32Z</time>
      </trkpt>
      <trkpt lat="45.80081" lon="14.17251">
        <ele>574.53</ele>
        <time>2012-07-31T08:12:33Z</time>
      </trkpt>
      <trkpt lat="45.80087" lon="14.17229">
        <ele>575.97</ele>
        <time>2012-07-31T08:12:34Z</time>
      </trkpt>
      <trkpt lat="45.80095" lon="14.17208">
        <ele>576.45</ele>
        <time>2012-07-31T08:12:35Z</time>
      </trkpt>
      <trkpt lat="45.80103" lon="14.17187">
        <ele>576.93</ele>
        <time>2012-07-31T08:12:36Z</time>
      </trkpt>
      <trkpt lat="45.80164" lon="14.17068">
        <ele>577.89</ele>
        <time>2012-07-31T08:12:42Z</time>
      </trkpt>
      <trkpt lat="45.80189" lon="14.17036">
        <ele>578.37</ele>
        <time>2012-07-31T08:12:44Z</time>
      </trkpt>
      <trkpt lat="45.80226" lon="14.16995">
        <ele>578.85</ele>
        <time>2012-07-31T08:12:47Z</time>
      </trkpt>
      <trkpt lat="45.80236" lon="14.16978">
        <ele>579.33</ele>
        <time>2012-07-31T08:12:48Z</time>
      </trkpt>
      <trkpt lat="45.80244" lon="14.1696">
        <ele>578.85</ele>
        <time>2012-07-31T08:12:49Z</time>
      </trkpt>
      <trkpt lat="45.80251" lon="14.1694">
        <ele>579.33</ele>
        <time>2012-07-31T08:12:50Z</time>
      </trkpt>
      <trkpt lat="45.80256" lon="14.16918">
        <ele>579.81</ele>
        <time>2012-07-31T08:12:51Z</time>
      </trkpt>
      <trkpt lat="45.80259" lon="14.16894">
        <ele>579.33</ele>
        <time>2012-07-31T08:12:52Z</time>
      </trkpt>
      <trkpt lat="45.80261" lon="14.16869">
        <ele>580.77</ele>
        <time>2012-07-31T08:12:53Z</time>
      </trkpt>
      <trkpt lat="45.80262" lon="14.16845">
        <ele>581.73</ele>
        <time>2012-07-31T08:12:54Z</time>
      </trkpt>
      <trkpt lat="45.80273" lon="14.16776">
        <ele>580.29</ele>
        <time>2012-07-31T08:12:57Z</time>
      </trkpt>
      <trkpt lat="45.80286" lon="14.16732">
        <ele>580.29</ele>
        <time>2012-07-31T08:12:59Z</time>
      </trkpt>
      <trkpt lat="45.80294" lon="14.16711">
        <ele>580.29</ele>
        <time>2012-07-31T08:13:00Z</time>
      </trkpt>
      <trkpt lat="45.80303" lon="14.16692">
        <ele>579.81</ele>
        <time>2012-07-31T08:13:01Z</time>
      </trkpt>
      <trkpt lat="45.80313" lon="14.16674">
        <ele>579.33</ele>
        <time>2012-07-31T08:13:02Z</time>
      </trkpt>
      <trkpt lat="45.80324" lon="14.16658">
        <ele>579.81</ele>
        <time>2012-07-31T08:13:03Z</time>
      </trkpt>
      <trkpt lat="45.80337" lon="14.16642">
        <ele>580.77</ele>
        <time>2012-07-31T08:13:04Z</time>
      </trkpt>
      <trkpt lat="45.80429" lon="14.16498">
        <ele>581.73</ele>
        <time>2012-07-31T08:13:12Z</time>
      </trkpt>
      <trkpt lat="45.80436" lon="14.16476">
        <ele>581.25</ele>
        <time>2012-07-31T08:13:13Z</time>
      </trkpt>
      <trkpt lat="45.80441" lon="14.16453">
        <ele>581.25</ele>
        <time>2012-07-31T08:13:14Z</time>
      </trkpt>
      <trkpt lat="45.80489" lon="14.16268">
        <ele>581.73</ele>
        <time>2012-07-31T08:13:22Z</time>
      </trkpt>
      <trkpt lat="45.80497" lon="14.16249">
        <ele>576.93</ele>
        <time>2012-07-31T08:13:23Z</time>
      </trkpt>
      <trkpt lat="45.80507" lon="14.16232">
        <ele>581.25</ele>
        <time>2012-07-31T08:13:24Z</time>
      </trkpt>
      <trkpt lat="45.80518" lon="14.16216">
        <ele>580.77</ele>
        <time>2012-07-31T08:13:25Z</time>
      </trkpt>
      <trkpt lat="45.80544" lon="14.16186">
        <ele>579.81</ele>
        <time>2012-07-31T08:13:27Z</time>
      </trkpt>
      <trkpt lat="45.80559" lon="14.16174">
        <ele>578.85</ele>
        <time>2012-07-31T08:13:28Z</time>
      </trkpt>
      <trkpt lat="45.80607" lon="14.16138">
        <ele>575.49</ele>
        <time>2012-07-31T08:13:31Z</time>
      </trkpt>
      <trkpt lat="45.80621" lon="14.16124">
        <ele>574.04</ele>
        <time>2012-07-31T08:13:32Z</time>
      </trkpt>
      <trkpt lat="45.80634" lon="14.16109">
        <ele>573.08</ele>
        <time>2012-07-31T08:13:33Z</time>
      </trkpt>
      <trkpt lat="45.80685" lon="14.16043">
        <ele>570.2</ele>
        <time>2012-07-31T08:13:37Z</time>
      </trkpt>
      <trkpt lat="45.80728" lon="14.15999">
        <ele>566.35</ele>
        <time>2012-07-31T08:13:40Z</time>
      </trkpt>
      <trkpt lat="45.80765" lon="14.15965">
        <ele>562.99</ele>
        <time>2012-07-31T08:13:43Z</time>
      </trkpt>
      <trkpt lat="45.80778" lon="14.15958">
        <ele>561.55</ele>
        <time>2012-07-31T08:13:44Z</time>
      </trkpt>
      <trkpt lat="45.80791" lon="14.15954">
        <ele>560.11</ele>
        <time>2012-07-31T08:13:45Z</time>
      </trkpt>
      <trkpt lat="45.80804" lon="14.15954">
        <ele>559.62</ele>
        <time>2012-07-31T08:13:46Z</time>
      </trkpt>
      <trkpt lat="45.80819" lon="14.15957">
        <ele>559.14</ele>
        <time>2012-07-31T08:13:47Z</time>
      </trkpt>
      <trkpt lat="45.80833" lon="14.15962">
        <ele>559.14</ele>
        <time>2012-07-31T08:13:48Z</time>
      </trkpt>
      <trkpt lat="45.80846" lon="14.15968">
        <ele>558.66</ele>
        <time>2012-07-31T08:13:49Z</time>
      </trkpt>
      <trkpt lat="45.8086" lon="14.15976">
        <ele>557.7</ele>
        <time>2012-07-31T08:13:50Z</time>
      </trkpt>
      <trkpt lat="45.80874" lon="14.15982">
        <ele>555.78</ele>
        <time>2012-07-31T08:13:51Z</time>
      </trkpt>
      <trkpt lat="45.80888" lon="14.15985">
        <ele>555.78</ele>
        <time>2012-07-31T08:13:52Z</time>
      </trkpt>
      <trkpt lat="45.80903" lon="14.15985">
        <ele>555.3</ele>
        <time>2012-07-31T08:13:53Z</time>
      </trkpt>
      <trkpt lat="45.80946" lon="14.15979">
        <ele>551.93</ele>
        <time>2012-07-31T08:13:56Z</time>
      </trkpt>
      <trkpt lat="45.80958" lon="14.15981">
        <ele>551.45</ele>
        <time>2012-07-31T08:13:57Z</time>
      </trkpt>
      <trkpt lat="45.80969" lon="14.15983">
        <ele>550.49</ele>
        <time>2012-07-31T08:13:58Z</time>
      </trkpt>
      <trkpt lat="45.80979" lon="14.15987">
        <ele>550.01</ele>
        <time>2012-07-31T08:13:59Z</time>
      </trkpt>
      <trkpt lat="45.80989" lon="14.1599">
        <ele>549.53</ele>
        <time>2012-07-31T08:14:00Z</time>
      </trkpt>
      <trkpt lat="45.80998" lon="14.15992">
        <ele>549.05</ele>
        <time>2012-07-31T08:14:01Z</time>
      </trkpt>
      <trkpt lat="45.81007" lon="14.15992">
        <ele>548.09</ele>
        <time>2012-07-31T08:14:02Z</time>
      </trkpt>
      <trkpt lat="45.81017" lon="14.15989">
        <ele>547.13</ele>
        <time>2012-07-31T08:14:03Z</time>
      </trkpt>
      <trkpt lat="45.81025" lon="14.15984">
        <ele>546.65</ele>
        <time>2012-07-31T08:14:04Z</time>
      </trkpt>
      <trkpt lat="45.8103" lon="14.15976">
        <ele>546.17</ele>
        <time>2012-07-31T08:14:05Z</time>
      </trkpt>
      <trkpt lat="45.8103" lon="14.1596">
        <ele>546.65</ele>
        <time>2012-07-31T08:14:06Z</time>
      </trkpt>
      <trkpt lat="45.81026" lon="14.15946">
        <ele>547.13</ele>
        <time>2012-07-31T08:14:07Z</time>
      </trkpt>
      <trkpt lat="45.8102" lon="14.15933">
        <ele>547.13</ele>
        <time>2012-07-31T08:14:08Z</time>
      </trkpt>
      <trkpt lat="45.8101" lon="14.15919">
        <ele>547.61</ele>
        <time>2012-07-31T08:14:09Z</time>
      </trkpt>
      <trkpt lat="45.81001" lon="14.15909">
        <ele>548.57</ele>
        <time>2012-07-31T08:14:10Z</time>
      </trkpt>
      <trkpt lat="45.80973" lon="14.15879">
        <ele>550.97</ele>
        <time>2012-07-31T08:14:13Z</time>
      </trkpt>
      <trkpt lat="45.80966" lon="14.15866">
        <ele>551.93</ele>
        <time>2012-07-31T08:14:14Z</time>
      </trkpt>
      <trkpt lat="45.80961" lon="14.15849">
        <ele>554.34</ele>
        <time>2012-07-31T08:14:15Z</time>
      </trkpt>
      <trkpt lat="45.8096" lon="14.15832">
        <ele>557.22</ele>
        <time>2012-07-31T08:14:16Z</time>
      </trkpt>
      <trkpt lat="45.80961" lon="14.15816">
        <ele>556.74</ele>
        <time>2012-07-31T08:14:17Z</time>
      </trkpt>
      <trkpt lat="45.80965" lon="14.15801">
        <ele>558.18</ele>
        <time>2012-07-31T08:14:18Z</time>
      </trkpt>
      <trkpt lat="45.8097" lon="14.15786">
        <ele>558.66</ele>
        <time>2012-07-31T08:14:19Z</time>
      </trkpt>
      <trkpt lat="45.80972" lon="14.15769">
        <ele>560.59</ele>
        <time>2012-07-31T08:14:20Z</time>
      </trkpt>
      <trkpt lat="45.80974" lon="14.15752">
        <ele>561.07</ele>
        <time>2012-07-31T08:14:21Z</time>
      </trkpt>
      <trkpt lat="45.80976" lon="14.15734">
        <ele>562.51</ele>
        <time>2012-07-31T08:14:22Z</time>
      </trkpt>
      <trkpt lat="45.80976" lon="14.15714">
        <ele>564.43</ele>
        <time>2012-07-31T08:14:23Z</time>
      </trkpt>
      <trkpt lat="45.80976" lon="14.15694">
        <ele>565.87</ele>
        <time>2012-07-31T08:14:24Z</time>
      </trkpt>
      <trkpt lat="45.80974" lon="14.15673">
        <ele>567.32</ele>
        <time>2012-07-31T08:14:25Z</time>
      </trkpt>
      <trkpt lat="45.8097" lon="14.15653">
        <ele>569.72</ele>
        <time>2012-07-31T08:14:26Z</time>
      </trkpt>
      <trkpt lat="45.80966" lon="14.15633">
        <ele>571.16</ele>
        <time>2012-07-31T08:14:27Z</time>
      </trkpt>
      <trkpt lat="45.80959" lon="14.15593">
        <ele>574.04</ele>
        <time>2012-07-31T08:14:29Z</time>
      </trkpt>
      <trkpt lat="45.80959" lon="14.15573">
        <ele>575.97</ele>
        <time>2012-07-31T08:14:30Z</time>
      </trkpt>
      <trkpt lat="45.80958" lon="14.15532">
        <ele>578.85</ele>
        <time>2012-07-31T08:14:32Z</time>
      </trkpt>
      <trkpt lat="45.80957" lon="14.15513">
        <ele>579.81</ele>
        <time>2012-07-31T08:14:33Z</time>
      </trkpt>
      <trkpt lat="45.80958" lon="14.15492">
        <ele>581.73</ele>
        <time>2012-07-31T08:14:34Z</time>
      </trkpt>
      <trkpt lat="45.80961" lon="14.15471">
        <ele>583.66</ele>
        <time>2012-07-31T08:14:35Z</time>
      </trkpt>
      <trkpt lat="45.80966" lon="14.15451">
        <ele>584.62</ele>
        <time>2012-07-31T08:14:36Z</time>
      </trkpt>
      <trkpt lat="45.80969" lon="14.15431">
        <ele>586.06</ele>
        <time>2012-07-31T08:14:37Z</time>
      </trkpt>
      <trkpt lat="45.8097" lon="14.15409">
        <ele>587.98</ele>
        <time>2012-07-31T08:14:38Z</time>
      </trkpt>
      <trkpt lat="45.80968" lon="14.15388">
        <ele>589.91</ele>
        <time>2012-07-31T08:14:39Z</time>
      </trkpt>
      <trkpt lat="45.80965" lon="14.15367">
        <ele>591.83</ele>
        <time>2012-07-31T08:14:40Z</time>
      </trkpt>
      <trkpt lat="45.80961" lon="14.15349">
        <ele>592.31</ele>
        <time>2012-07-31T08:14:41Z</time>
      </trkpt>
      <trkpt lat="45.80954" lon="14.15334">
        <ele>591.35</ele>
        <time>2012-07-31T08:14:42Z</time>
      </trkpt>
      <trkpt lat="45.80944" lon="14.1532">
        <ele>591.83</ele>
        <time>2012-07-31T08:14:43Z</time>
      </trkpt>
      <trkpt lat="45.80932" lon="14.1531">
        <ele>593.27</ele>
        <time>2012-07-31T08:14:44Z</time>
      </trkpt>
      <trkpt lat="45.80918" lon="14.15302">
        <ele>595.67</ele>
        <time>2012-07-31T08:14:45Z</time>
      </trkpt>
      <trkpt lat="45.80905" lon="14.15295">
        <ele>596.15</ele>
        <time>2012-07-31T08:14:46Z</time>
      </trkpt>
      <trkpt lat="45.80893" lon="14.15288">
        <ele>596.64</ele>
        <time>2012-07-31T08:14:47Z</time>
      </trkpt>
      <trkpt lat="45.80881" lon="14.15277">
        <ele>597.6</ele>
        <time>2012-07-31T08:14:48Z</time>
      </trkpt>
      <trkpt lat="45.80868" lon="14.15263">
        <ele>599.04</ele>
        <time>2012-07-31T08:14:49Z</time>
      </trkpt>
      <trkpt lat="45.80856" lon="14.15247">
        <ele>600.48</ele>
        <time>2012-07-31T08:14:50Z</time>
      </trkpt>
      <trkpt lat="45.80844" lon="14.15233">
        <ele>602.4</ele>
        <time>2012-07-31T08:14:51Z</time>
      </trkpt>
      <trkpt lat="45.80832" lon="14.15217">
        <ele>603.36</ele>
        <time>2012-07-31T08:14:52Z</time>
      </trkpt>
      <trkpt lat="45.80822" lon="14.152">
        <ele>603.36</ele>
        <time>2012-07-31T08:14:53Z</time>
      </trkpt>
      <trkpt lat="45.80816" lon="14.1518">
        <ele>603.85</ele>
        <time>2012-07-31T08:14:54Z</time>
      </trkpt>
      <trkpt lat="45.80812" lon="14.15161">
        <ele>604.33</ele>
        <time>2012-07-31T08:14:55Z</time>
      </trkpt>
      <trkpt lat="45.80812" lon="14.15141">
        <ele>605.77</ele>
        <time>2012-07-31T08:14:56Z</time>
      </trkpt>
      <trkpt lat="45.80816" lon="14.15119">
        <ele>607.21</ele>
        <time>2012-07-31T08:14:57Z</time>
      </trkpt>
      <trkpt lat="45.80823" lon="14.15096">
        <ele>608.65</ele>
        <time>2012-07-31T08:14:58Z</time>
      </trkpt>
      <trkpt lat="45.80829" lon="14.15076">
        <ele>609.13</ele>
        <time>2012-07-31T08:14:59Z</time>
      </trkpt>
      <trkpt lat="45.80836" lon="14.15056">
        <ele>609.61</ele>
        <time>2012-07-31T08:15:00Z</time>
      </trkpt>
      <trkpt lat="45.80845" lon="14.15014">
        <ele>610.09</ele>
        <time>2012-07-31T08:15:02Z</time>
      </trkpt>
      <trkpt lat="45.80849" lon="14.14992">
        <ele>610.57</ele>
        <time>2012-07-31T08:15:03Z</time>
      </trkpt>
      <trkpt lat="45.80855" lon="14.14969">
        <ele>610.57</ele>
        <time>2012-07-31T08:15:04Z</time>
      </trkpt>
      <trkpt lat="45.80863" lon="14.14948">
        <ele>610.09</ele>
        <time>2012-07-31T08:15:05Z</time>
      </trkpt>
      <trkpt lat="45.80871" lon="14.14929">
        <ele>609.13</ele>
        <time>2012-07-31T08:15:06Z</time>
      </trkpt>
      <trkpt lat="45.80881" lon="14.14914">
        <ele>608.17</ele>
        <time>2012-07-31T08:15:07Z</time>
      </trkpt>
      <trkpt lat="45.80892" lon="14.14901">
        <ele>609.13</ele>
        <time>2012-07-31T08:15:08Z</time>
      </trkpt>
      <trkpt lat="45.80903" lon="14.14889">
        <ele>609.13</ele>
        <time>2012-07-31T08:15:09Z</time>
      </trkpt>
      <trkpt lat="45.80915" lon="14.14877">
        <ele>609.13</ele>
        <time>2012-07-31T08:15:10Z</time>
      </trkpt>
      <trkpt lat="45.80924" lon="14.14861">
        <ele>608.65</ele>
        <time>2012-07-31T08:15:11Z</time>
      </trkpt>
      <trkpt lat="45.80932" lon="14.14841">
        <ele>608.17</ele>
        <time>2012-07-31T08:15:12Z</time>
      </trkpt>
      <trkpt lat="45.80939" lon="14.14819">
        <ele>608.17</ele>
        <time>2012-07-31T08:15:13Z</time>
      </trkpt>
      <trkpt lat="45.80977" lon="14.14693">
        <ele>605.77</ele>
        <time>2012-07-31T08:15:19Z</time>
      </trkpt>
      <trkpt lat="45.80986" lon="14.14677">
        <ele>605.77</ele>
        <time>2012-07-31T08:15:20Z</time>
      </trkpt>
      <trkpt lat="45.80997" lon="14.14664">
        <ele>605.29</ele>
        <time>2012-07-31T08:15:21Z</time>
      </trkpt>
      <trkpt lat="45.8101" lon="14.14653">
        <ele>605.77</ele>
        <time>2012-07-31T08:15:22Z</time>
      </trkpt>
      <trkpt lat="45.81025" lon="14.14645">
        <ele>606.25</ele>
        <time>2012-07-31T08:15:23Z</time>
      </trkpt>
      <trkpt lat="45.8104" lon="14.14639">
        <ele>606.73</ele>
        <time>2012-07-31T08:15:24Z</time>
      </trkpt>
      <trkpt lat="45.81056" lon="14.14639">
        <ele>606.73</ele>
        <time>2012-07-31T08:15:25Z</time>
      </trkpt>
      <trkpt lat="45.81071" lon="14.14642">
        <ele>607.21</ele>
        <time>2012-07-31T08:15:26Z</time>
      </trkpt>
      <trkpt lat="45.81086" lon="14.1465">
        <ele>607.69</ele>
        <time>2012-07-31T08:15:27Z</time>
      </trkpt>
      <trkpt lat="45.811" lon="14.14661">
        <ele>606.25</ele>
        <time>2012-07-31T08:15:28Z</time>
      </trkpt>
      <trkpt lat="45.81113" lon="14.14674">
        <ele>607.21</ele>
        <time>2012-07-31T08:15:29Z</time>
      </trkpt>
      <trkpt lat="45.81124" lon="14.1469">
        <ele>607.69</ele>
        <time>2012-07-31T08:15:30Z</time>
      </trkpt>
      <trkpt lat="45.81135" lon="14.14707">
        <ele>607.21</ele>
        <time>2012-07-31T08:15:31Z</time>
      </trkpt>
      <trkpt lat="45.81177" lon="14.14762">
        <ele>604.81</ele>
        <time>2012-07-31T08:15:35Z</time>
      </trkpt>
      <trkpt lat="45.81189" lon="14.1477">
        <ele>604.33</ele>
        <time>2012-07-31T08:15:36Z</time>
      </trkpt>
      <trkpt lat="45.81201" lon="14.14774">
        <ele>603.85</ele>
        <time>2012-07-31T08:15:37Z</time>
      </trkpt>
      <trkpt lat="45.81214" lon="14.14774">
        <ele>602.88</ele>
        <time>2012-07-31T08:15:38Z</time>
      </trkpt>
      <trkpt lat="45.81227" lon="14.14768">
        <ele>602.88</ele>
        <time>2012-07-31T08:15:39Z</time>
      </trkpt>
      <trkpt lat="45.8124" lon="14.14758">
        <ele>601.92</ele>
        <time>2012-07-31T08:15:40Z</time>
      </trkpt>
      <trkpt lat="45.81251" lon="14.14744">
        <ele>600.96</ele>
        <time>2012-07-31T08:15:41Z</time>
      </trkpt>
      <trkpt lat="45.81261" lon="14.14727">
        <ele>600.48</ele>
        <time>2012-07-31T08:15:42Z</time>
      </trkpt>
      <trkpt lat="45.81271" lon="14.1471">
        <ele>600.48</ele>
        <time>2012-07-31T08:15:43Z</time>
      </trkpt>
      <trkpt lat="45.81283" lon="14.14694">
        <ele>599.04</ele>
        <time>2012-07-31T08:15:44Z</time>
      </trkpt>
      <trkpt lat="45.81296" lon="14.1468">
        <ele>598.56</ele>
        <time>2012-07-31T08:15:45Z</time>
      </trkpt>
      <trkpt lat="45.8131" lon="14.14667">
        <ele>599.04</ele>
        <time>2012-07-31T08:15:46Z</time>
      </trkpt>
      <trkpt lat="45.81336" lon="14.14639">
        <ele>599.04</ele>
        <time>2012-07-31T08:15:48Z</time>
      </trkpt>
      <trkpt lat="45.81348" lon="14.14623">
        <ele>598.56</ele>
        <time>2012-07-31T08:15:49Z</time>
      </trkpt>
      <trkpt lat="45.81384" lon="14.14572">
        <ele>597.6</ele>
        <time>2012-07-31T08:15:52Z</time>
      </trkpt>
      <trkpt lat="45.81399" lon="14.14558">
        <ele>597.12</ele>
        <time>2012-07-31T08:15:53Z</time>
      </trkpt>
      <trkpt lat="45.81415" lon="14.14548">
        <ele>597.12</ele>
        <time>2012-07-31T08:15:54Z</time>
      </trkpt>
      <trkpt lat="45.81458" lon="14.14523">
        <ele>593.75</ele>
        <time>2012-07-31T08:15:57Z</time>
      </trkpt>
      <trkpt lat="45.81472" lon="14.14517">
        <ele>592.31</ele>
        <time>2012-07-31T08:15:58Z</time>
      </trkpt>
      <trkpt lat="45.81486" lon="14.14514">
        <ele>592.31</ele>
        <time>2012-07-31T08:15:59Z</time>
      </trkpt>
      <trkpt lat="45.81501" lon="14.14513">
        <ele>591.83</ele>
        <time>2012-07-31T08:16:00Z</time>
      </trkpt>
      <trkpt lat="45.81515" lon="14.14514">
        <ele>590.39</ele>
        <time>2012-07-31T08:16:01Z</time>
      </trkpt>
      <trkpt lat="45.81528" lon="14.14515">
        <ele>588.46</ele>
        <time>2012-07-31T08:16:02Z</time>
      </trkpt>
      <trkpt lat="45.81541" lon="14.14514">
        <ele>587.5</ele>
        <time>2012-07-31T08:16:03Z</time>
      </trkpt>
      <trkpt lat="45.81554" lon="14.1451">
        <ele>587.02</ele>
        <time>2012-07-31T08:16:04Z</time>
      </trkpt>
      <trkpt lat="45.81566" lon="14.14501">
        <ele>586.06</ele>
        <time>2012-07-31T08:16:05Z</time>
      </trkpt>
      <trkpt lat="45.81577" lon="14.14487">
        <ele>585.1</ele>
        <time>2012-07-31T08:16:06Z</time>
      </trkpt>
      <trkpt lat="45.81588" lon="14.14469">
        <ele>585.1</ele>
        <time>2012-07-31T08:16:07Z</time>
      </trkpt>
      <trkpt lat="45.81599" lon="14.14451">
        <ele>584.62</ele>
        <time>2012-07-31T08:16:08Z</time>
      </trkpt>
      <trkpt lat="45.81613" lon="14.14434">
        <ele>583.66</ele>
        <time>2012-07-31T08:16:09Z</time>
      </trkpt>
      <trkpt lat="45.81628" lon="14.14418">
        <ele>583.66</ele>
        <time>2012-07-31T08:16:10Z</time>
      </trkpt>
      <trkpt lat="45.81644" lon="14.14403">
        <ele>582.7</ele>
        <time>2012-07-31T08:16:11Z</time>
      </trkpt>
      <trkpt lat="45.81675" lon="14.14372">
        <ele>581.73</ele>
        <time>2012-07-31T08:16:13Z</time>
      </trkpt>
      <trkpt lat="45.81689" lon="14.14356">
        <ele>578.85</ele>
        <time>2012-07-31T08:16:14Z</time>
      </trkpt>
      <trkpt lat="45.81731" lon="14.14315">
        <ele>575.01</ele>
        <time>2012-07-31T08:16:17Z</time>
      </trkpt>
      <trkpt lat="45.81747" lon="14.14303">
        <ele>575.49</ele>
        <time>2012-07-31T08:16:18Z</time>
      </trkpt>
      <trkpt lat="45.81791" lon="14.14264">
        <ele>572.12</ele>
        <time>2012-07-31T08:16:21Z</time>
      </trkpt>
      <trkpt lat="45.81803" lon="14.14249">
        <ele>571.64</ele>
        <time>2012-07-31T08:16:22Z</time>
      </trkpt>
      <trkpt lat="45.81815" lon="14.14232">
        <ele>572.12</ele>
        <time>2012-07-31T08:16:23Z</time>
      </trkpt>
      <trkpt lat="45.81823" lon="14.14212">
        <ele>572.6</ele>
        <time>2012-07-31T08:16:24Z</time>
      </trkpt>
      <trkpt lat="45.81829" lon="14.14188">
        <ele>574.04</ele>
        <time>2012-07-31T08:16:25Z</time>
      </trkpt>
      <trkpt lat="45.81835" lon="14.14164">
        <ele>575.01</ele>
        <time>2012-07-31T08:16:26Z</time>
      </trkpt>
      <trkpt lat="45.81841" lon="14.14141">
        <ele>575.49</ele>
        <time>2012-07-31T08:16:27Z</time>
      </trkpt>
      <trkpt lat="45.81862" lon="14.14074">
        <ele>576.45</ele>
        <time>2012-07-31T08:16:30Z</time>
      </trkpt>
      <trkpt lat="45.81872" lon="14.14035">
        <ele>575.97</ele>
        <time>2012-07-31T08:16:32Z</time>
      </trkpt>
      <trkpt lat="45.81879" lon="14.14019">
        <ele>576.45</ele>
        <time>2012-07-31T08:16:33Z</time>
      </trkpt>
      <trkpt lat="45.81888" lon="14.14005">
        <ele>577.41</ele>
        <time>2012-07-31T08:16:34Z</time>
      </trkpt>
      <trkpt lat="45.819" lon="14.13994">
        <ele>578.37</ele>
        <time>2012-07-31T08:16:35Z</time>
      </trkpt>
      <trkpt lat="45.81912" lon="14.13985">
        <ele>579.33</ele>
        <time>2012-07-31T08:16:36Z</time>
      </trkpt>
      <trkpt lat="45.81935" lon="14.13966">
        <ele>581.73</ele>
        <time>2012-07-31T08:16:38Z</time>
      </trkpt>
      <trkpt lat="45.81945" lon="14.13956">
        <ele>581.73</ele>
        <time>2012-07-31T08:16:39Z</time>
      </trkpt>
      <trkpt lat="45.81963" lon="14.1394">
        <ele>584.14</ele>
        <time>2012-07-31T08:16:41Z</time>
      </trkpt>
      <trkpt lat="45.81972" lon="14.13934">
        <ele>585.1</ele>
        <time>2012-07-31T08:16:42Z</time>
      </trkpt>
      <trkpt lat="45.81983" lon="14.13931">
        <ele>585.58</ele>
        <time>2012-07-31T08:16:43Z</time>
      </trkpt>
      <trkpt lat="45.82017" lon="14.1393">
        <ele>588.46</ele>
        <time>2012-07-31T08:16:46Z</time>
      </trkpt>
      <trkpt lat="45.82052" lon="14.13929">
        <ele>591.83</ele>
        <time>2012-07-31T08:16:49Z</time>
      </trkpt>
      <trkpt lat="45.82072" lon="14.13931">
        <ele>593.27</ele>
        <time>2012-07-31T08:16:51Z</time>
      </trkpt>
      <trkpt lat="45.82081" lon="14.13935">
        <ele>594.71</ele>
        <time>2012-07-31T08:16:52Z</time>
      </trkpt>
      <trkpt lat="45.82089" lon="14.1394">
        <ele>595.67</ele>
        <time>2012-07-31T08:16:53Z</time>
      </trkpt>
      <trkpt lat="45.82095" lon="14.13946">
        <ele>595.19</ele>
        <time>2012-07-31T08:16:54Z</time>
      </trkpt>
      <trkpt lat="45.82101" lon="14.13951">
        <ele>596.15</ele>
        <time>2012-07-31T08:16:55Z</time>
      </trkpt>
      <trkpt lat="45.82106" lon="14.13955">
        <ele>596.15</ele>
        <time>2012-07-31T08:16:56Z</time>
      </trkpt>
      <trkpt lat="45.82112" lon="14.13957">
        <ele>596.15</ele>
        <time>2012-07-31T08:16:57Z</time>
      </trkpt>
      <trkpt lat="45.82118" lon="14.13955">
        <ele>596.64</ele>
        <time>2012-07-31T08:16:58Z</time>
      </trkpt>
      <trkpt lat="45.82124" lon="14.13949">
        <ele>596.15</ele>
        <time>2012-07-31T08:16:59Z</time>
      </trkpt>
      <trkpt lat="45.82129" lon="14.13941">
        <ele>597.6</ele>
        <time>2012-07-31T08:17:00Z</time>
      </trkpt>
      <trkpt lat="45.82131" lon="14.1393">
        <ele>597.6</ele>
        <time>2012-07-31T08:17:01Z</time>
      </trkpt>
      <trkpt lat="45.82133" lon="14.13917">
        <ele>599.04</ele>
        <time>2012-07-31T08:17:02Z</time>
      </trkpt>
      <trkpt lat="45.82134" lon="14.13903">
        <ele>599.04</ele>
        <time>2012-07-31T08:17:03Z</time>
      </trkpt>
      <trkpt lat="45.82134" lon="14.13888">
        <ele>608.65</ele>
        <time>2012-07-31T08:17:04Z</time>
      </trkpt>
      <trkpt lat="45.82134" lon="14.1386">
        <ele>607.69</ele>
        <time>2012-07-31T08:17:06Z</time>
      </trkpt>
      <trkpt lat="45.82135" lon="14.13843">
        <ele>594.71</ele>
        <time>2012-07-31T08:17:07Z</time>
      </trkpt>
      <trkpt lat="45.82137" lon="14.13826">
        <ele>602.88</ele>
        <time>2012-07-31T08:17:08Z</time>
      </trkpt>
      <trkpt lat="45.82144" lon="14.13783">
        <ele>599.52</ele>
        <time>2012-07-31T08:17:11Z</time>
      </trkpt>
      <trkpt lat="45.82143" lon="14.13769">
        <ele>599.04</ele>
        <time>2012-07-31T08:17:12Z</time>
      </trkpt>
      <trkpt lat="45.82139" lon="14.13756">
        <ele>599.04</ele>
        <time>2012-07-31T08:17:13Z</time>
      </trkpt>
      <trkpt lat="45.82133" lon="14.13743">
        <ele>598.56</ele>
        <time>2012-07-31T08:17:14Z</time>
      </trkpt>
      <trkpt lat="45.82125" lon="14.13729">
        <ele>598.08</ele>
        <time>2012-07-31T08:17:15Z</time>
      </trkpt>
      <trkpt lat="45.82116" lon="14.13716">
        <ele>598.08</ele>
        <time>2012-07-31T08:17:16Z</time>
      </trkpt>
      <trkpt lat="45.82106" lon="14.13705">
        <ele>597.6</ele>
        <time>2012-07-31T08:17:17Z</time>
      </trkpt>
      <trkpt lat="45.82095" lon="14.13698">
        <ele>598.08</ele>
        <time>2012-07-31T08:17:18Z</time>
      </trkpt>
      <trkpt lat="45.82083" lon="14.13691">
        <ele>596.15</ele>
        <time>2012-07-31T08:17:19Z</time>
      </trkpt>
      <trkpt lat="45.8207" lon="14.13686">
        <ele>595.19</ele>
        <time>2012-07-31T08:17:20Z</time>
      </trkpt>
      <trkpt lat="45.82056" lon="14.1368">
        <ele>595.19</ele>
        <time>2012-07-31T08:17:21Z</time>
      </trkpt>
      <trkpt lat="45.82013" lon="14.13665">
        <ele>593.27</ele>
        <time>2012-07-31T08:17:24Z</time>
      </trkpt>
      <trkpt lat="45.81966" lon="14.13659">
        <ele>589.91</ele>
        <time>2012-07-31T08:17:27Z</time>
      </trkpt>
      <trkpt lat="45.81916" lon="14.1366">
        <ele>586.54</ele>
        <time>2012-07-31T08:17:30Z</time>
      </trkpt>
      <trkpt lat="45.81888" lon="14.13664">
        <ele>582.22</ele>
        <time>2012-07-31T08:17:32Z</time>
      </trkpt>
      <trkpt lat="45.81867" lon="14.13667">
        <ele>578.85</ele>
        <time>2012-07-31T08:17:34Z</time>
      </trkpt>
      <trkpt lat="45.81831" lon="14.13617">
        <ele>576.45</ele>
        <time>2012-07-31T08:17:40Z</time>
      </trkpt>
      <trkpt lat="45.81795" lon="14.13561">
        <ele>574.53</ele>
        <time>2012-07-31T08:17:44Z</time>
      </trkpt>
      <trkpt lat="45.81784" lon="14.1355">
        <ele>574.53</ele>
        <time>2012-07-31T08:17:45Z</time>
      </trkpt>
      <trkpt lat="45.81736" lon="14.13509">
        <ele>571.16</ele>
        <time>2012-07-31T08:17:49Z</time>
      </trkpt>
      <trkpt lat="45.81713" lon="14.13499">
        <ele>569.24</ele>
        <time>2012-07-31T08:17:51Z</time>
      </trkpt>
      <trkpt lat="45.8166" lon="14.13501">
        <ele>564.43</ele>
        <time>2012-07-31T08:17:55Z</time>
      </trkpt>
      <trkpt lat="45.81614" lon="14.13492">
        <ele>561.07</ele>
        <time>2012-07-31T08:17:59Z</time>
      </trkpt>
      <trkpt lat="45.81584" lon="14.13452">
        <ele>556.74</ele>
        <time>2012-07-31T08:18:04Z</time>
      </trkpt>
      <trkpt lat="45.81584" lon="14.13438">
        <ele>556.26</ele>
        <time>2012-07-31T08:18:05Z</time>
      </trkpt>
      <trkpt lat="45.81585" lon="14.13423">
        <ele>556.26</ele>
        <time>2012-07-31T08:18:06Z</time>
      </trkpt>
      <trkpt lat="45.81585" lon="14.13407">
        <ele>555.3</ele>
        <time>2012-07-31T08:18:07Z</time>
      </trkpt>
      <trkpt lat="45.81583" lon="14.13391">
        <ele>555.3</ele>
        <time>2012-07-31T08:18:08Z</time>
      </trkpt>
      <trkpt lat="45.8158" lon="14.13375">
        <ele>555.3</ele>
        <time>2012-07-31T08:18:09Z</time>
      </trkpt>
      <trkpt lat="45.81574" lon="14.13359">
        <ele>554.34</ele>
        <time>2012-07-31T08:18:10Z</time>
      </trkpt>
      <trkpt lat="45.81567" lon="14.13342">
        <ele>553.86</ele>
        <time>2012-07-31T08:18:11Z</time>
      </trkpt>
      <trkpt lat="45.81559" lon="14.13326">
        <ele>552.9</ele>
        <time>2012-07-31T08:18:12Z</time>
      </trkpt>
      <trkpt lat="45.81548" lon="14.13311">
        <ele>551.45</ele>
        <time>2012-07-31T08:18:13Z</time>
      </trkpt>
      <trkpt lat="45.81537" lon="14.13297">
        <ele>550.01</ele>
        <time>2012-07-31T08:18:14Z</time>
      </trkpt>
      <trkpt lat="45.81517" lon="14.13272">
        <ele>545.2</ele>
        <time>2012-07-31T08:18:16Z</time>
      </trkpt>
      <trkpt lat="45.81502" lon="14.1325">
        <ele>541.36</ele>
        <time>2012-07-31T08:18:18Z</time>
      </trkpt>
      <trkpt lat="45.81497" lon="14.13237">
        <ele>540.88</ele>
        <time>2012-07-31T08:18:19Z</time>
      </trkpt>
      <trkpt lat="45.81494" lon="14.13221">
        <ele>539.92</ele>
        <time>2012-07-31T08:18:20Z</time>
      </trkpt>
      <trkpt lat="45.81493" lon="14.13205">
        <ele>539.44</ele>
        <time>2012-07-31T08:18:21Z</time>
      </trkpt>
      <trkpt lat="45.81491" lon="14.13188">
        <ele>538.48</ele>
        <time>2012-07-31T08:18:22Z</time>
      </trkpt>
      <trkpt lat="45.81486" lon="14.1317">
        <ele>538.96</ele>
        <time>2012-07-31T08:18:23Z</time>
      </trkpt>
      <trkpt lat="45.81479" lon="14.13155">
        <ele>539.44</ele>
        <time>2012-07-31T08:18:24Z</time>
      </trkpt>
      <trkpt lat="45.81468" lon="14.1314">
        <ele>538.96</ele>
        <time>2012-07-31T08:18:25Z</time>
      </trkpt>
      <trkpt lat="45.81457" lon="14.13128">
        <ele>537.51</ele>
        <time>2012-07-31T08:18:26Z</time>
      </trkpt>
      <trkpt lat="45.81444" lon="14.13117">
        <ele>537.51</ele>
        <time>2012-07-31T08:18:27Z</time>
      </trkpt>
      <trkpt lat="45.81418" lon="14.13095">
        <ele>534.15</ele>
        <time>2012-07-31T08:18:29Z</time>
      </trkpt>
      <trkpt lat="45.81388" lon="14.13065">
        <ele>532.23</ele>
        <time>2012-07-31T08:18:32Z</time>
      </trkpt>
      <trkpt lat="45.81382" lon="14.13054">
        <ele>531.27</ele>
        <time>2012-07-31T08:18:33Z</time>
      </trkpt>
      <trkpt lat="45.81377" lon="14.13043">
        <ele>531.27</ele>
        <time>2012-07-31T08:18:34Z</time>
      </trkpt>
      <trkpt lat="45.81374" lon="14.13031">
        <ele>530.3</ele>
        <time>2012-07-31T08:18:35Z</time>
      </trkpt>
      <trkpt lat="45.81374" lon="14.1302">
        <ele>529.82</ele>
        <time>2012-07-31T08:18:36Z</time>
      </trkpt>
      <trkpt lat="45.81375" lon="14.13008">
        <ele>529.82</ele>
        <time>2012-07-31T08:18:37Z</time>
      </trkpt>
      <trkpt lat="45.81379" lon="14.12994">
        <ele>529.82</ele>
        <time>2012-07-31T08:18:38Z</time>
      </trkpt>
      <trkpt lat="45.81383" lon="14.12979">
        <ele>529.34</ele>
        <time>2012-07-31T08:18:39Z</time>
      </trkpt>
      <trkpt lat="45.81389" lon="14.12965">
        <ele>527.9</ele>
        <time>2012-07-31T08:18:40Z</time>
      </trkpt>
      <trkpt lat="45.81394" lon="14.12952">
        <ele>526.94</ele>
        <time>2012-07-31T08:18:41Z</time>
      </trkpt>
      <trkpt lat="45.81399" lon="14.12939">
        <ele>525.98</ele>
        <time>2012-07-31T08:18:42Z</time>
      </trkpt>
      <trkpt lat="45.81402" lon="14.12925">
        <ele>524.54</ele>
        <time>2012-07-31T08:18:43Z</time>
      </trkpt>
      <trkpt lat="45.81404" lon="14.1291">
        <ele>523.09</ele>
        <time>2012-07-31T08:18:44Z</time>
      </trkpt>
      <trkpt lat="45.81406" lon="14.12872">
        <ele>519.73</ele>
        <time>2012-07-31T08:18:47Z</time>
      </trkpt>
      <trkpt lat="45.81408" lon="14.12862">
        <ele>518.77</ele>
        <time>2012-07-31T08:18:48Z</time>
      </trkpt>
      <trkpt lat="45.81412" lon="14.12853">
        <ele>517.81</ele>
        <time>2012-07-31T08:18:49Z</time>
      </trkpt>
      <trkpt lat="45.81417" lon="14.12844">
        <ele>517.81</ele>
        <time>2012-07-31T08:18:50Z</time>
      </trkpt>
      <trkpt lat="45.81423" lon="14.12838">
        <ele>517.81</ele>
        <time>2012-07-31T08:18:51Z</time>
      </trkpt>
      <trkpt lat="45.81428" lon="14.12834">
        <ele>517.33</ele>
        <time>2012-07-31T08:18:52Z</time>
      </trkpt>
      <trkpt lat="45.81432" lon="14.12831">
        <ele>516.85</ele>
        <time>2012-07-31T08:18:53Z</time>
      </trkpt>
      <trkpt lat="45.81436" lon="14.1283">
        <ele>517.33</ele>
        <time>2012-07-31T08:18:54Z</time>
      </trkpt>
      <trkpt lat="45.81449" lon="14.12814">
        <ele>518.29</ele>
        <time>2012-07-31T08:19:00Z</time>
      </trkpt>
      <trkpt lat="45.81449" lon="14.12812">
        <ele>518.29</ele>
        <time>2012-07-31T08:19:01Z</time>
      </trkpt>
      <trkpt lat="45.81444" lon="14.1283">
        <ele>519.25</ele>
        <time>2012-07-31T08:35:51Z</time>
      </trkpt>
      <trkpt lat="45.81445" lon="14.1283">
        <ele>518.29</ele>
        <time>2012-07-31T08:35:52Z</time>
      </trkpt>
      <trkpt lat="45.81447" lon="14.12821">
        <ele>517.81</ele>
        <time>2012-07-31T08:35:54Z</time>
      </trkpt>
      <trkpt lat="45.81449" lon="14.12813">
        <ele>513.96</ele>
        <time>2012-07-31T08:36:22Z</time>
      </trkpt>
      <trkpt lat="45.81449" lon="14.12813">
        <ele>513.96</ele>
        <time>2012-07-31T08:36:23Z</time>
      </trkpt>
      <trkpt lat="45.81448" lon="14.12813">
        <ele>515.4</ele>
        <time>2012-07-31T08:36:25Z</time>
      </trkpt>
      <trkpt lat="45.81447" lon="14.12812">
        <ele>514.44</ele>
        <time>2012-07-31T08:36:58Z</time>
      </trkpt>
      <trkpt lat="45.81446" lon="14.12816">
        <ele>515.4</ele>
        <time>2012-07-31T08:37:30Z</time>
      </trkpt>
      <trkpt lat="45.81449" lon="14.12813">
        <ele>514.92</ele>
        <time>2012-07-31T08:38:01Z</time>
      </trkpt>
      <trkpt lat="45.81447" lon="14.12813">
        <ele>515.4</ele>
        <time>2012-07-31T08:38:38Z</time>
      </trkpt>
      <trkpt lat="45.81447" lon="14.12814">
        <ele>515.88</ele>
        <time>2012-07-31T08:39:15Z</time>
      </trkpt>
      <trkpt lat="45.81447" lon="14.12814">
        <ele>515.4</ele>
        <time>2012-07-31T08:39:26Z</time>
      </trkpt>
      <trkpt lat="45.81447" lon="14.12814">
        <ele>512.52</ele>
        <time>2012-07-31T08:39:34Z</time>
      </trkpt>
      <trkpt lat="45.81447" lon="14.12814">
        <ele>516.37</ele>
        <time>2012-07-31T08:39:35Z</time>
      </trkpt>
      <trkpt lat="45.81447" lon="14.12814">
        <ele>513.48</ele>
        <time>2012-07-31T08:39:38Z</time>
      </trkpt>
      <trkpt lat="45.81447" lon="14.12814">
        <ele>516.37</ele>
        <time>2012-07-31T08:39:39Z</time>
      </trkpt>
      <trkpt lat="45.81447" lon="14.12814">
        <ele>515.4</ele>
        <time>2012-07-31T08:39:40Z</time>
      </trkpt>
      <trkpt lat="45.81446" lon="14.12814">
        <ele>513.96</ele>
        <time>2012-07-31T08:40:15Z</time>
      </trkpt>
      <trkpt lat="45.81445" lon="14.12813">
        <ele>514.44</ele>
        <time>2012-07-31T08:40:50Z</time>
      </trkpt>
      <trkpt lat="45.81445" lon="14.12814">
        <ele>514.44</ele>
        <time>2012-07-31T08:41:28Z</time>
      </trkpt>
      <trkpt lat="45.81444" lon="14.12815">
        <ele>513.96</ele>
        <time>2012-07-31T08:42:07Z</time>
      </trkpt>
      <trkpt lat="45.81444" lon="14.12814">
        <ele>514.44</ele>
        <time>2012-07-31T08:42:37Z</time>
      </trkpt>
      <trkpt lat="45.81444" lon="14.12814">
        <ele>515.4</ele>
        <time>2012-07-31T08:42:45Z</time>
      </trkpt>
      <trkpt lat="45.81444" lon="14.12814">
        <ele>512.52</ele>
        <time>2012-07-31T08:42:47Z</time>
      </trkpt>
      <trkpt lat="45.81444" lon="14.12813">
        <ele>516.37</ele>
        <time>2012-07-31T08:42:51Z</time>
      </trkpt>
      <trkpt lat="45.81444" lon="14.12814">
        <ele>513.96</ele>
        <time>2012-07-31T08:43:23Z</time>
      </trkpt>
      <trkpt lat="45.81443" lon="14.12815">
        <ele>513.96</ele>
        <time>2012-07-31T08:43:59Z</time>
      </trkpt>
      <trkpt lat="45.81443" lon="14.12816">
        <ele>513.96</ele>
        <time>2012-07-31T08:44:35Z</time>
      </trkpt>
      <trkpt lat="45.81443" lon="14.12817">
        <ele>514.44</ele>
        <time>2012-07-31T08:45:14Z</time>
      </trkpt>
      <trkpt lat="45.81443" lon="14.12817">
        <ele>514.92</ele>
        <time>2012-07-31T08:45:49Z</time>
      </trkpt>
      <trkpt lat="45.81444" lon="14.12818">
        <ele>514.44</ele>
        <time>2012-07-31T08:46:14Z</time>
      </trkpt>
      <trkpt lat="45.81443" lon="14.12817">
        <ele>514.44</ele>
        <time>2012-07-31T08:46:41Z</time>
      </trkpt>
      <trkpt lat="45.81443" lon="14.12817">
        <ele>514.44</ele>
        <time>2012-07-31T08:47:11Z</time>
      </trkpt>
      <trkpt lat="45.81444" lon="14.12817">
        <ele>514.92</ele>
        <time>2012-07-31T08:47:32Z</time>
      </trkpt>
      <trkpt lat="45.81447" lon="14.12817">
        <ele>514.44</ele>
        <time>2012-07-31T08:47:41Z</time>
      </trkpt>
      <trkpt lat="45.81443" lon="14.1282">
        <ele>515.4</ele>
        <time>2012-07-31T08:47:43Z</time>
      </trkpt>
      <trkpt lat="45.81439" lon="14.12823">
        <ele>515.4</ele>
        <time>2012-07-31T08:47:44Z</time>
      </trkpt>
      <trkpt lat="45.81433" lon="14.12826">
        <ele>514.92</ele>
        <time>2012-07-31T08:47:45Z</time>
      </trkpt>
      <trkpt lat="45.81427" lon="14.12831">
        <ele>515.4</ele>
        <time>2012-07-31T08:47:46Z</time>
      </trkpt>
      <trkpt lat="45.81421" lon="14.12836">
        <ele>514.92</ele>
        <time>2012-07-31T08:47:47Z</time>
      </trkpt>
      <trkpt lat="45.81415" lon="14.12843">
        <ele>514.92</ele>
        <time>2012-07-31T08:47:48Z</time>
      </trkpt>
      <trkpt lat="45.81409" lon="14.1285">
        <ele>513.96</ele>
        <time>2012-07-31T08:47:49Z</time>
      </trkpt>
      <trkpt lat="45.81405" lon="14.12859">
        <ele>514.44</ele>
        <time>2012-07-31T08:47:50Z</time>
      </trkpt>
      <trkpt lat="45.81402" lon="14.1287">
        <ele>514.92</ele>
        <time>2012-07-31T08:47:51Z</time>
      </trkpt>
      <trkpt lat="45.81401" lon="14.12883">
        <ele>515.88</ele>
        <time>2012-07-31T08:47:52Z</time>
      </trkpt>
      <trkpt lat="45.814" lon="14.12893">
        <ele>516.85</ele>
        <time>2012-07-31T08:47:53Z</time>
      </trkpt>
      <trkpt lat="45.814" lon="14.12902">
        <ele>516.85</ele>
        <time>2012-07-31T08:47:54Z</time>
      </trkpt>
      <trkpt lat="45.814" lon="14.12912">
        <ele>516.85</ele>
        <time>2012-07-31T08:47:56Z</time>
      </trkpt>
      <trkpt lat="45.8141" lon="14.12908">
        <ele>518.29</ele>
        <time>2012-07-31T08:48:00Z</time>
      </trkpt>
      <trkpt lat="45.81415" lon="14.12904">
        <ele>518.77</ele>
        <time>2012-07-31T08:48:01Z</time>
      </trkpt>
      <trkpt lat="45.8142" lon="14.129">
        <ele>519.25</ele>
        <time>2012-07-31T08:48:02Z</time>
      </trkpt>
      <trkpt lat="45.81426" lon="14.12896">
        <ele>520.21</ele>
        <time>2012-07-31T08:48:03Z</time>
      </trkpt>
      <trkpt lat="45.81431" lon="14.12894">
        <ele>521.17</ele>
        <time>2012-07-31T08:48:04Z</time>
      </trkpt>
      <trkpt lat="45.81435" lon="14.12894">
        <ele>521.65</ele>
        <time>2012-07-31T08:48:05Z</time>
      </trkpt>
      <trkpt lat="45.81439" lon="14.12896">
        <ele>521.65</ele>
        <time>2012-07-31T08:48:06Z</time>
      </trkpt>
      <trkpt lat="45.81459" lon="14.12921">
        <ele>523.09</ele>
        <time>2012-07-31T08:48:14Z</time>
      </trkpt>
      <trkpt lat="45.8145" lon="14.12907">
        <ele>523.58</ele>
        <time>2012-07-31T08:48:20Z</time>
      </trkpt>
      <trkpt lat="45.81434" lon="14.12895">
        <ele>521.65</ele>
        <time>2012-07-31T08:48:28Z</time>
      </trkpt>
      <trkpt lat="45.81438" lon="14.12895">
        <ele>522.61</ele>
        <time>2012-07-31T08:48:36Z</time>
      </trkpt>
      <trkpt lat="45.81434" lon="14.12902">
        <ele>522.13</ele>
        <time>2012-07-31T08:48:39Z</time>
      </trkpt>
      <trkpt lat="45.81424" lon="14.12937">
        <ele>524.06</ele>
        <time>2012-07-31T08:48:48Z</time>
      </trkpt>
      <trkpt lat="45.81421" lon="14.12949">
        <ele>524.54</ele>
        <time>2012-07-31T08:49:09Z</time>
      </trkpt>
      <trkpt lat="45.81417" lon="14.12982">
        <ele>527.42</ele>
        <time>2012-07-31T08:49:16Z</time>
      </trkpt>
      <trkpt lat="45.81416" lon="14.13002">
        <ele>529.82</ele>
        <time>2012-07-31T08:49:20Z</time>
      </trkpt>
      <trkpt lat="45.81422" lon="14.13037">
        <ele>533.67</ele>
        <time>2012-07-31T08:49:27Z</time>
      </trkpt>
      <trkpt lat="45.81434" lon="14.13059">
        <ele>536.55</ele>
        <time>2012-07-31T08:49:32Z</time>
      </trkpt>
      <trkpt lat="45.81446" lon="14.13071">
        <ele>538.48</ele>
        <time>2012-07-31T08:49:36Z</time>
      </trkpt>
      <trkpt lat="45.81449" lon="14.13075">
        <ele>538.48</ele>
        <time>2012-07-31T08:49:37Z</time>
      </trkpt>
      <trkpt lat="45.81453" lon="14.13081">
        <ele>539.44</ele>
        <time>2012-07-31T08:49:38Z</time>
      </trkpt>
      <trkpt lat="45.81457" lon="14.13087">
        <ele>539.44</ele>
        <time>2012-07-31T08:49:39Z</time>
      </trkpt>
      <trkpt lat="45.81463" lon="14.13093">
        <ele>539.44</ele>
        <time>2012-07-31T08:49:40Z</time>
      </trkpt>
      <trkpt lat="45.81468" lon="14.13099">
        <ele>539.44</ele>
        <time>2012-07-31T08:49:41Z</time>
      </trkpt>
      <trkpt lat="45.81484" lon="14.13122">
        <ele>542.32</ele>
        <time>2012-07-31T08:49:44Z</time>
      </trkpt>
      <trkpt lat="45.81519" lon="14.13171">
        <ele>545.69</ele>
        <time>2012-07-31T08:49:50Z</time>
      </trkpt>
      <trkpt lat="45.81524" lon="14.1318">
        <ele>546.65</ele>
        <time>2012-07-31T08:49:51Z</time>
      </trkpt>
      <trkpt lat="45.81534" lon="14.13199">
        <ele>550.49</ele>
        <time>2012-07-31T08:49:53Z</time>
      </trkpt>
      <trkpt lat="45.81541" lon="14.13217">
        <ele>552.9</ele>
        <time>2012-07-31T08:49:55Z</time>
      </trkpt>
      <trkpt lat="45.81544" lon="14.13227">
        <ele>553.38</ele>
        <time>2012-07-31T08:49:56Z</time>
      </trkpt>
      <trkpt lat="45.81548" lon="14.13249">
        <ele>553.38</ele>
        <time>2012-07-31T08:49:58Z</time>
      </trkpt>
      <trkpt lat="45.81583" lon="14.13371">
        <ele>550.49</ele>
        <time>2012-07-31T08:50:07Z</time>
      </trkpt>
      <trkpt lat="45.81585" lon="14.13383">
        <ele>550.01</ele>
        <time>2012-07-31T08:50:08Z</time>
      </trkpt>
      <trkpt lat="45.81584" lon="14.13396">
        <ele>550.97</ele>
        <time>2012-07-31T08:50:09Z</time>
      </trkpt>
      <trkpt lat="45.81583" lon="14.13454">
        <ele>553.38</ele>
        <time>2012-07-31T08:50:13Z</time>
      </trkpt>
      <trkpt lat="45.8159" lon="14.13477">
        <ele>554.34</ele>
        <time>2012-07-31T08:50:15Z</time>
      </trkpt>
      <trkpt lat="45.81616" lon="14.13494">
        <ele>557.7</ele>
        <time>2012-07-31T08:50:18Z</time>
      </trkpt>
      <trkpt lat="45.81639" lon="14.13498">
        <ele>559.14</ele>
        <time>2012-07-31T08:50:20Z</time>
      </trkpt>
      <trkpt lat="45.81678" lon="14.135">
        <ele>562.51</ele>
        <time>2012-07-31T08:50:23Z</time>
      </trkpt>
      <trkpt lat="45.81705" lon="14.13499">
        <ele>563.47</ele>
        <time>2012-07-31T08:50:25Z</time>
      </trkpt>
      <trkpt lat="45.81754" lon="14.13521">
        <ele>566.35</ele>
        <time>2012-07-31T08:50:29Z</time>
      </trkpt>
      <trkpt lat="45.81799" lon="14.13566">
        <ele>570.2</ele>
        <time>2012-07-31T08:50:33Z</time>
      </trkpt>
      <trkpt lat="45.81846" lon="14.13658">
        <ele>572.6</ele>
        <time>2012-07-31T08:50:40Z</time>
      </trkpt>
      <trkpt lat="45.81874" lon="14.13665">
        <ele>575.49</ele>
        <time>2012-07-31T08:50:43Z</time>
      </trkpt>
      <trkpt lat="45.81923" lon="14.13657">
        <ele>580.29</ele>
        <time>2012-07-31T08:50:47Z</time>
      </trkpt>
      <trkpt lat="45.81943" lon="14.13656">
        <ele>582.7</ele>
        <time>2012-07-31T08:50:49Z</time>
      </trkpt>
      <trkpt lat="45.8199" lon="14.13658">
        <ele>586.54</ele>
        <time>2012-07-31T08:50:52Z</time>
      </trkpt>
      <trkpt lat="45.82041" lon="14.13674">
        <ele>590.39</ele>
        <time>2012-07-31T08:50:56Z</time>
      </trkpt>
      <trkpt lat="45.82079" lon="14.13688">
        <ele>593.75</ele>
        <time>2012-07-31T08:50:59Z</time>
      </trkpt>
      <trkpt lat="45.82091" lon="14.13695">
        <ele>593.75</ele>
        <time>2012-07-31T08:51:00Z</time>
      </trkpt>
      <trkpt lat="45.82103" lon="14.13703">
        <ele>593.75</ele>
        <time>2012-07-31T08:51:01Z</time>
      </trkpt>
      <trkpt lat="45.82113" lon="14.13713">
        <ele>594.23</ele>
        <time>2012-07-31T08:51:02Z</time>
      </trkpt>
      <trkpt lat="45.82121" lon="14.13725">
        <ele>594.71</ele>
        <time>2012-07-31T08:51:03Z</time>
      </trkpt>
      <trkpt lat="45.82129" lon="14.13737">
        <ele>595.19</ele>
        <time>2012-07-31T08:51:04Z</time>
      </trkpt>
      <trkpt lat="45.82135" lon="14.13749">
        <ele>595.19</ele>
        <time>2012-07-31T08:51:05Z</time>
      </trkpt>
      <trkpt lat="45.8214" lon="14.13762">
        <ele>595.67</ele>
        <time>2012-07-31T08:51:06Z</time>
      </trkpt>
      <trkpt lat="45.82142" lon="14.13778">
        <ele>596.15</ele>
        <time>2012-07-31T08:51:07Z</time>
      </trkpt>
      <trkpt lat="45.82141" lon="14.13794">
        <ele>597.12</ele>
        <time>2012-07-31T08:51:08Z</time>
      </trkpt>
      <trkpt lat="45.82138" lon="14.13811">
        <ele>597.12</ele>
        <time>2012-07-31T08:51:09Z</time>
      </trkpt>
      <trkpt lat="45.82135" lon="14.13828">
        <ele>597.6</ele>
        <time>2012-07-31T08:51:10Z</time>
      </trkpt>
      <trkpt lat="45.82133" lon="14.13844">
        <ele>598.08</ele>
        <time>2012-07-31T08:51:11Z</time>
      </trkpt>
      <trkpt lat="45.82124" lon="14.13936">
        <ele>593.27</ele>
        <time>2012-07-31T08:51:18Z</time>
      </trkpt>
      <trkpt lat="45.82122" lon="14.13945">
        <ele>593.27</ele>
        <time>2012-07-31T08:51:19Z</time>
      </trkpt>
      <trkpt lat="45.82118" lon="14.13951">
        <ele>592.31</ele>
        <time>2012-07-31T08:51:20Z</time>
      </trkpt>
      <trkpt lat="45.82112" lon="14.13953">
        <ele>591.83</ele>
        <time>2012-07-31T08:51:21Z</time>
      </trkpt>
      <trkpt lat="45.82105" lon="14.13951">
        <ele>591.83</ele>
        <time>2012-07-31T08:51:22Z</time>
      </trkpt>
      <trkpt lat="45.82099" lon="14.13946">
        <ele>591.83</ele>
        <time>2012-07-31T08:51:23Z</time>
      </trkpt>
      <trkpt lat="45.82091" lon="14.13939">
        <ele>591.83</ele>
        <time>2012-07-31T08:51:24Z</time>
      </trkpt>
      <trkpt lat="45.82082" lon="14.13932">
        <ele>590.87</ele>
        <time>2012-07-31T08:51:25Z</time>
      </trkpt>
      <trkpt lat="45.82072" lon="14.13928">
        <ele>590.39</ele>
        <time>2012-07-31T08:51:26Z</time>
      </trkpt>
      <trkpt lat="45.8206" lon="14.13927">
        <ele>589.91</ele>
        <time>2012-07-31T08:51:27Z</time>
      </trkpt>
      <trkpt lat="45.82016" lon="14.13927">
        <ele>586.06</ele>
        <time>2012-07-31T08:51:30Z</time>
      </trkpt>
      <trkpt lat="45.81978" lon="14.13931">
        <ele>582.7</ele>
        <time>2012-07-31T08:51:33Z</time>
      </trkpt>
      <trkpt lat="45.81965" lon="14.13936">
        <ele>581.73</ele>
        <time>2012-07-31T08:51:34Z</time>
      </trkpt>
      <trkpt lat="45.81953" lon="14.13946">
        <ele>580.29</ele>
        <time>2012-07-31T08:51:35Z</time>
      </trkpt>
      <trkpt lat="45.81915" lon="14.13983">
        <ele>577.41</ele>
        <time>2012-07-31T08:51:38Z</time>
      </trkpt>
      <trkpt lat="45.8189" lon="14.14002">
        <ele>575.49</ele>
        <time>2012-07-31T08:51:40Z</time>
      </trkpt>
      <trkpt lat="45.8188" lon="14.14015">
        <ele>574.04</ele>
        <time>2012-07-31T08:51:41Z</time>
      </trkpt>
      <trkpt lat="45.81871" lon="14.1403">
        <ele>572.6</ele>
        <time>2012-07-31T08:51:42Z</time>
      </trkpt>
      <trkpt lat="45.81865" lon="14.14049">
        <ele>573.08</ele>
        <time>2012-07-31T08:51:43Z</time>
      </trkpt>
      <trkpt lat="45.81861" lon="14.1407">
        <ele>572.6</ele>
        <time>2012-07-31T08:51:44Z</time>
      </trkpt>
      <trkpt lat="45.81831" lon="14.14171">
        <ele>569.72</ele>
        <time>2012-07-31T08:51:49Z</time>
      </trkpt>
      <trkpt lat="45.81827" lon="14.14192">
        <ele>568.76</ele>
        <time>2012-07-31T08:51:50Z</time>
      </trkpt>
      <trkpt lat="45.8182" lon="14.14213">
        <ele>569.24</ele>
        <time>2012-07-31T08:51:51Z</time>
      </trkpt>
      <trkpt lat="45.81811" lon="14.14233">
        <ele>568.28</ele>
        <time>2012-07-31T08:51:52Z</time>
      </trkpt>
      <trkpt lat="45.81798" lon="14.1425">
        <ele>568.76</ele>
        <time>2012-07-31T08:51:53Z</time>
      </trkpt>
      <trkpt lat="45.81784" lon="14.14266">
        <ele>569.72</ele>
        <time>2012-07-31T08:51:54Z</time>
      </trkpt>
      <trkpt lat="45.81769" lon="14.1428">
        <ele>570.2</ele>
        <time>2012-07-31T08:51:55Z</time>
      </trkpt>
      <trkpt lat="45.81752" lon="14.14293">
        <ele>570.2</ele>
        <time>2012-07-31T08:51:56Z</time>
      </trkpt>
      <trkpt lat="45.81688" lon="14.14349">
        <ele>575.49</ele>
        <time>2012-07-31T08:52:00Z</time>
      </trkpt>
      <trkpt lat="45.81674" lon="14.14366">
        <ele>575.01</ele>
        <time>2012-07-31T08:52:01Z</time>
      </trkpt>
      <trkpt lat="45.8163" lon="14.14412">
        <ele>576.93</ele>
        <time>2012-07-31T08:52:04Z</time>
      </trkpt>
      <trkpt lat="45.81602" lon="14.1444">
        <ele>577.41</ele>
        <time>2012-07-31T08:52:06Z</time>
      </trkpt>
      <trkpt lat="45.81591" lon="14.14456">
        <ele>578.37</ele>
        <time>2012-07-31T08:52:07Z</time>
      </trkpt>
      <trkpt lat="45.81574" lon="14.14485">
        <ele>579.81</ele>
        <time>2012-07-31T08:52:09Z</time>
      </trkpt>
      <trkpt lat="45.81563" lon="14.14496">
        <ele>579.81</ele>
        <time>2012-07-31T08:52:10Z</time>
      </trkpt>
      <trkpt lat="45.81551" lon="14.14505">
        <ele>580.77</ele>
        <time>2012-07-31T08:52:11Z</time>
      </trkpt>
      <trkpt lat="45.81538" lon="14.14508">
        <ele>580.77</ele>
        <time>2012-07-31T08:52:12Z</time>
      </trkpt>
      <trkpt lat="45.81524" lon="14.14509">
        <ele>582.7</ele>
        <time>2012-07-31T08:52:13Z</time>
      </trkpt>
      <trkpt lat="45.8151" lon="14.14507">
        <ele>582.7</ele>
        <time>2012-07-31T08:52:14Z</time>
      </trkpt>
      <trkpt lat="45.81495" lon="14.14508">
        <ele>583.18</ele>
        <time>2012-07-31T08:52:15Z</time>
      </trkpt>
      <trkpt lat="45.8148" lon="14.1451">
        <ele>585.58</ele>
        <time>2012-07-31T08:52:16Z</time>
      </trkpt>
      <trkpt lat="45.81465" lon="14.14515">
        <ele>587.5</ele>
        <time>2012-07-31T08:52:17Z</time>
      </trkpt>
      <trkpt lat="45.8145" lon="14.14521">
        <ele>588.46</ele>
        <time>2012-07-31T08:52:18Z</time>
      </trkpt>
      <trkpt lat="45.81435" lon="14.1453">
        <ele>589.43</ele>
        <time>2012-07-31T08:52:19Z</time>
      </trkpt>
      <trkpt lat="45.8142" lon="14.1454">
        <ele>589.91</ele>
        <time>2012-07-31T08:52:20Z</time>
      </trkpt>
      <trkpt lat="45.81376" lon="14.14575">
        <ele>590.87</ele>
        <time>2012-07-31T08:52:23Z</time>
      </trkpt>
      <trkpt lat="45.81364" lon="14.14592">
        <ele>591.83</ele>
        <time>2012-07-31T08:52:24Z</time>
      </trkpt>
      <trkpt lat="45.8134" lon="14.14628">
        <ele>597.12</ele>
        <time>2012-07-31T08:52:26Z</time>
      </trkpt>
      <trkpt lat="45.81326" lon="14.14644">
        <ele>596.15</ele>
        <time>2012-07-31T08:52:27Z</time>
      </trkpt>
      <trkpt lat="45.81283" lon="14.14686">
        <ele>594.23</ele>
        <time>2012-07-31T08:52:30Z</time>
      </trkpt>
      <trkpt lat="45.81271" lon="14.14702">
        <ele>594.71</ele>
        <time>2012-07-31T08:52:31Z</time>
      </trkpt>
      <trkpt lat="45.81261" lon="14.1472">
        <ele>595.67</ele>
        <time>2012-07-31T08:52:32Z</time>
      </trkpt>
      <trkpt lat="45.81251" lon="14.14736">
        <ele>595.67</ele>
        <time>2012-07-31T08:52:33Z</time>
      </trkpt>
      <trkpt lat="45.81241" lon="14.14751">
        <ele>595.19</ele>
        <time>2012-07-31T08:52:34Z</time>
      </trkpt>
      <trkpt lat="45.81229" lon="14.14762">
        <ele>596.15</ele>
        <time>2012-07-31T08:52:35Z</time>
      </trkpt>
      <trkpt lat="45.81216" lon="14.14768">
        <ele>596.15</ele>
        <time>2012-07-31T08:52:36Z</time>
      </trkpt>
      <trkpt lat="45.81203" lon="14.1477">
        <ele>596.64</ele>
        <time>2012-07-31T08:52:37Z</time>
      </trkpt>
      <trkpt lat="45.81189" lon="14.14766">
        <ele>597.12</ele>
        <time>2012-07-31T08:52:38Z</time>
      </trkpt>
      <trkpt lat="45.81176" lon="14.14758">
        <ele>598.08</ele>
        <time>2012-07-31T08:52:39Z</time>
      </trkpt>
      <trkpt lat="45.81163" lon="14.14745">
        <ele>599.52</ele>
        <time>2012-07-31T08:52:40Z</time>
      </trkpt>
      <trkpt lat="45.81152" lon="14.14728">
        <ele>600.48</ele>
        <time>2012-07-31T08:52:41Z</time>
      </trkpt>
      <trkpt lat="45.8114" lon="14.14711">
        <ele>601.92</ele>
        <time>2012-07-31T08:52:42Z</time>
      </trkpt>
      <trkpt lat="45.81129" lon="14.14693">
        <ele>601.92</ele>
        <time>2012-07-31T08:52:43Z</time>
      </trkpt>
      <trkpt lat="45.81103" lon="14.14662">
        <ele>600.96</ele>
        <time>2012-07-31T08:52:45Z</time>
      </trkpt>
      <trkpt lat="45.8109" lon="14.1465">
        <ele>600.48</ele>
        <time>2012-07-31T08:52:46Z</time>
      </trkpt>
      <trkpt lat="45.81075" lon="14.14641">
        <ele>600.48</ele>
        <time>2012-07-31T08:52:47Z</time>
      </trkpt>
      <trkpt lat="45.81058" lon="14.14637">
        <ele>600.96</ele>
        <time>2012-07-31T08:52:48Z</time>
      </trkpt>
      <trkpt lat="45.81041" lon="14.14636">
        <ele>601.44</ele>
        <time>2012-07-31T08:52:49Z</time>
      </trkpt>
      <trkpt lat="45.81025" lon="14.1464">
        <ele>601.44</ele>
        <time>2012-07-31T08:52:50Z</time>
      </trkpt>
      <trkpt lat="45.8101" lon="14.14648">
        <ele>600.96</ele>
        <time>2012-07-31T08:52:51Z</time>
      </trkpt>
      <trkpt lat="45.80997" lon="14.14657">
        <ele>600.48</ele>
        <time>2012-07-31T08:52:52Z</time>
      </trkpt>
      <trkpt lat="45.80985" lon="14.14667">
        <ele>600</ele>
        <time>2012-07-31T08:52:53Z</time>
      </trkpt>
      <trkpt lat="45.80882" lon="14.14748">
        <ele>600.96</ele>
        <time>2012-07-31T08:53:01Z</time>
      </trkpt>
      <trkpt lat="45.80852" lon="14.14762">
        <ele>599.52</ele>
        <time>2012-07-31T08:53:03Z</time>
      </trkpt>
      <trkpt lat="45.80836" lon="14.14764">
        <ele>599.52</ele>
        <time>2012-07-31T08:53:04Z</time>
      </trkpt>
      <trkpt lat="45.80821" lon="14.14764">
        <ele>599.52</ele>
        <time>2012-07-31T08:53:05Z</time>
      </trkpt>
      <trkpt lat="45.80781" lon="14.14761">
        <ele>596.15</ele>
        <time>2012-07-31T08:53:08Z</time>
      </trkpt>
      <trkpt lat="45.8077" lon="14.14758">
        <ele>596.15</ele>
        <time>2012-07-31T08:53:09Z</time>
      </trkpt>
      <trkpt lat="45.80761" lon="14.1475">
        <ele>595.67</ele>
        <time>2012-07-31T08:53:10Z</time>
      </trkpt>
      <trkpt lat="45.80736" lon="14.14725">
        <ele>599.04</ele>
        <time>2012-07-31T08:53:13Z</time>
      </trkpt>
      <trkpt lat="45.80727" lon="14.14717">
        <ele>599.04</ele>
        <time>2012-07-31T08:53:14Z</time>
      </trkpt>
      <trkpt lat="45.8071" lon="14.14702">
        <ele>597.6</ele>
        <time>2012-07-31T08:53:16Z</time>
      </trkpt>
      <trkpt lat="45.80696" lon="14.1469">
        <ele>596.64</ele>
        <time>2012-07-31T08:53:18Z</time>
      </trkpt>
      <trkpt lat="45.8069" lon="14.14682">
        <ele>597.12</ele>
        <time>2012-07-31T08:53:19Z</time>
      </trkpt>
      <trkpt lat="45.80683" lon="14.14671">
        <ele>597.6</ele>
        <time>2012-07-31T08:53:20Z</time>
      </trkpt>
      <trkpt lat="45.80676" lon="14.14658">
        <ele>597.12</ele>
        <time>2012-07-31T08:53:21Z</time>
      </trkpt>
      <trkpt lat="45.80668" lon="14.1464">
        <ele>596.64</ele>
        <time>2012-07-31T08:53:22Z</time>
      </trkpt>
      <trkpt lat="45.80661" lon="14.14621">
        <ele>597.12</ele>
        <time>2012-07-31T08:53:23Z</time>
      </trkpt>
      <trkpt lat="45.80653" lon="14.146">
        <ele>596.64</ele>
        <time>2012-07-31T08:53:24Z</time>
      </trkpt>
      <trkpt lat="45.80635" lon="14.14559">
        <ele>596.15</ele>
        <time>2012-07-31T08:53:26Z</time>
      </trkpt>
      <trkpt lat="45.80623" lon="14.14542">
        <ele>596.64</ele>
        <time>2012-07-31T08:53:27Z</time>
      </trkpt>
      <trkpt lat="45.80608" lon="14.14527">
        <ele>596.15</ele>
        <time>2012-07-31T08:53:28Z</time>
      </trkpt>
      <trkpt lat="45.80456" lon="14.14413">
        <ele>595.67</ele>
        <time>2012-07-31T08:53:37Z</time>
      </trkpt>
      <trkpt lat="45.8044" lon="14.14403">
        <ele>595.19</ele>
        <time>2012-07-31T08:53:38Z</time>
      </trkpt>
      <trkpt lat="45.8041" lon="14.14382">
        <ele>594.71</ele>
        <time>2012-07-31T08:53:40Z</time>
      </trkpt>
      <trkpt lat="45.80397" lon="14.1437">
        <ele>594.71</ele>
        <time>2012-07-31T08:53:41Z</time>
      </trkpt>
      <trkpt lat="45.80387" lon="14.14355">
        <ele>594.71</ele>
        <time>2012-07-31T08:53:42Z</time>
      </trkpt>
      <trkpt lat="45.80377" lon="14.14336">
        <ele>596.15</ele>
        <time>2012-07-31T08:53:43Z</time>
      </trkpt>
      <trkpt lat="45.80369" lon="14.14316">
        <ele>596.64</ele>
        <time>2012-07-31T08:53:44Z</time>
      </trkpt>
      <trkpt lat="45.80361" lon="14.14294">
        <ele>596.15</ele>
        <time>2012-07-31T08:53:45Z</time>
      </trkpt>
      <trkpt lat="45.80354" lon="14.14272">
        <ele>594.71</ele>
        <time>2012-07-31T08:53:46Z</time>
      </trkpt>
      <trkpt lat="45.8035" lon="14.14251">
        <ele>593.27</ele>
        <time>2012-07-31T08:53:47Z</time>
      </trkpt>
      <trkpt lat="45.80341" lon="14.14197">
        <ele>590.39</ele>
        <time>2012-07-31T08:53:50Z</time>
      </trkpt>
      <trkpt lat="45.80333" lon="14.14184">
        <ele>589.91</ele>
        <time>2012-07-31T08:53:51Z</time>
      </trkpt>
      <trkpt lat="45.80315" lon="14.14161">
        <ele>589.43</ele>
        <time>2012-07-31T08:53:53Z</time>
      </trkpt>
      <trkpt lat="45.80304" lon="14.14157">
        <ele>588.95</ele>
        <time>2012-07-31T08:53:54Z</time>
      </trkpt>
      <trkpt lat="45.80291" lon="14.14159">
        <ele>588.46</ele>
        <time>2012-07-31T08:53:55Z</time>
      </trkpt>
      <trkpt lat="45.80278" lon="14.14166">
        <ele>587.5</ele>
        <time>2012-07-31T08:53:56Z</time>
      </trkpt>
      <trkpt lat="45.80267" lon="14.14175">
        <ele>585.1</ele>
        <time>2012-07-31T08:53:57Z</time>
      </trkpt>
      <trkpt lat="45.80256" lon="14.14183">
        <ele>584.14</ele>
        <time>2012-07-31T08:53:58Z</time>
      </trkpt>
      <trkpt lat="45.80245" lon="14.14185">
        <ele>583.66</ele>
        <time>2012-07-31T08:53:59Z</time>
      </trkpt>
      <trkpt lat="45.80234" lon="14.14181">
        <ele>583.66</ele>
        <time>2012-07-31T08:54:00Z</time>
      </trkpt>
      <trkpt lat="45.80223" lon="14.14171">
        <ele>584.62</ele>
        <time>2012-07-31T08:54:01Z</time>
      </trkpt>
      <trkpt lat="45.80215" lon="14.14157">
        <ele>583.66</ele>
        <time>2012-07-31T08:54:02Z</time>
      </trkpt>
      <trkpt lat="45.80208" lon="14.14144">
        <ele>583.18</ele>
        <time>2012-07-31T08:54:03Z</time>
      </trkpt>
      <trkpt lat="45.80201" lon="14.14133">
        <ele>581.73</ele>
        <time>2012-07-31T08:54:04Z</time>
      </trkpt>
      <trkpt lat="45.80184" lon="14.14114">
        <ele>581.25</ele>
        <time>2012-07-31T08:54:06Z</time>
      </trkpt>
      <trkpt lat="45.80175" lon="14.14107">
        <ele>580.77</ele>
        <time>2012-07-31T08:54:07Z</time>
      </trkpt>
      <trkpt lat="45.80152" lon="14.14095">
        <ele>578.37</ele>
        <time>2012-07-31T08:54:09Z</time>
      </trkpt>
      <trkpt lat="45.80099" lon="14.14082">
        <ele>576.45</ele>
        <time>2012-07-31T08:54:12Z</time>
      </trkpt>
      <trkpt lat="45.80088" lon="14.14072">
        <ele>576.93</ele>
        <time>2012-07-31T08:54:13Z</time>
      </trkpt>
      <trkpt lat="45.80078" lon="14.1406">
        <ele>577.41</ele>
        <time>2012-07-31T08:54:14Z</time>
      </trkpt>
      <trkpt lat="45.8007" lon="14.14044">
        <ele>577.89</ele>
        <time>2012-07-31T08:54:15Z</time>
      </trkpt>
      <trkpt lat="45.80066" lon="14.14024">
        <ele>579.33</ele>
        <time>2012-07-31T08:54:16Z</time>
      </trkpt>
      <trkpt lat="45.80065" lon="14.13997">
        <ele>578.37</ele>
        <time>2012-07-31T08:54:17Z</time>
      </trkpt>
      <trkpt lat="45.80064" lon="14.13975">
        <ele>578.37</ele>
        <time>2012-07-31T08:54:18Z</time>
      </trkpt>
      <trkpt lat="45.80061" lon="14.13927">
        <ele>576.93</ele>
        <time>2012-07-31T08:54:20Z</time>
      </trkpt>
      <trkpt lat="45.80056" lon="14.13907">
        <ele>577.41</ele>
        <time>2012-07-31T08:54:21Z</time>
      </trkpt>
      <trkpt lat="45.80049" lon="14.13888">
        <ele>576.93</ele>
        <time>2012-07-31T08:54:22Z</time>
      </trkpt>
      <trkpt lat="45.80023" lon="14.13836">
        <ele>574.04</ele>
        <time>2012-07-31T08:54:25Z</time>
      </trkpt>
      <trkpt lat="45.80009" lon="14.13805">
        <ele>572.12</ele>
        <time>2012-07-31T08:54:27Z</time>
      </trkpt>
      <trkpt lat="45.80001" lon="14.13792">
        <ele>570.2</ele>
        <time>2012-07-31T08:54:28Z</time>
      </trkpt>
      <trkpt lat="45.7999" lon="14.13783">
        <ele>569.24</ele>
        <time>2012-07-31T08:54:29Z</time>
      </trkpt>
      <trkpt lat="45.79979" lon="14.13778">
        <ele>567.8</ele>
        <time>2012-07-31T08:54:30Z</time>
      </trkpt>
      <trkpt lat="45.79967" lon="14.13778">
        <ele>566.35</ele>
        <time>2012-07-31T08:54:31Z</time>
      </trkpt>
      <trkpt lat="45.79955" lon="14.13781">
        <ele>564.43</ele>
        <time>2012-07-31T08:54:32Z</time>
      </trkpt>
      <trkpt lat="45.79945" lon="14.13783">
        <ele>561.55</ele>
        <time>2012-07-31T08:54:33Z</time>
      </trkpt>
      <trkpt lat="45.79935" lon="14.13782">
        <ele>560.11</ele>
        <time>2012-07-31T08:54:34Z</time>
      </trkpt>
      <trkpt lat="45.79927" lon="14.13779">
        <ele>558.66</ele>
        <time>2012-07-31T08:54:35Z</time>
      </trkpt>
      <trkpt lat="45.7992" lon="14.13772">
        <ele>558.66</ele>
        <time>2012-07-31T08:54:36Z</time>
      </trkpt>
      <trkpt lat="45.79915" lon="14.13762">
        <ele>558.18</ele>
        <time>2012-07-31T08:54:37Z</time>
      </trkpt>
      <trkpt lat="45.79911" lon="14.13749">
        <ele>557.22</ele>
        <time>2012-07-31T08:54:38Z</time>
      </trkpt>
      <trkpt lat="45.79904" lon="14.13735">
        <ele>556.74</ele>
        <time>2012-07-31T08:54:39Z</time>
      </trkpt>
      <trkpt lat="45.79893" lon="14.13725">
        <ele>556.26</ele>
        <time>2012-07-31T08:54:40Z</time>
      </trkpt>
      <trkpt lat="45.7988" lon="14.13722">
        <ele>555.78</ele>
        <time>2012-07-31T08:54:41Z</time>
      </trkpt>
      <trkpt lat="45.79866" lon="14.13719">
        <ele>555.3</ele>
        <time>2012-07-31T08:54:42Z</time>
      </trkpt>
      <trkpt lat="45.79852" lon="14.13714">
        <ele>554.34</ele>
        <time>2012-07-31T08:54:43Z</time>
      </trkpt>
      <trkpt lat="45.79839" lon="14.13706">
        <ele>553.86</ele>
        <time>2012-07-31T08:54:44Z</time>
      </trkpt>
      <trkpt lat="45.79826" lon="14.13695">
        <ele>552.9</ele>
        <time>2012-07-31T08:54:45Z</time>
      </trkpt>
      <trkpt lat="45.79814" lon="14.13682">
        <ele>551.93</ele>
        <time>2012-07-31T08:54:46Z</time>
      </trkpt>
      <trkpt lat="45.79801" lon="14.13668">
        <ele>550.97</ele>
        <time>2012-07-31T08:54:47Z</time>
      </trkpt>
      <trkpt lat="45.79788" lon="14.13655">
        <ele>550.01</ele>
        <time>2012-07-31T08:54:48Z</time>
      </trkpt>
      <trkpt lat="45.79775" lon="14.13644">
        <ele>550.49</ele>
        <time>2012-07-31T08:54:49Z</time>
      </trkpt>
      <trkpt lat="45.79734" lon="14.13619">
        <ele>549.05</ele>
        <time>2012-07-31T08:54:52Z</time>
      </trkpt>
      <trkpt lat="45.7967" lon="14.13593">
        <ele>547.13</ele>
        <time>2012-07-31T08:54:57Z</time>
      </trkpt>
      <trkpt lat="45.79641" lon="14.1357">
        <ele>545.69</ele>
        <time>2012-07-31T08:55:00Z</time>
      </trkpt>
      <trkpt lat="45.79631" lon="14.13564">
        <ele>545.69</ele>
        <time>2012-07-31T08:55:01Z</time>
      </trkpt>
      <trkpt lat="45.7962" lon="14.1356">
        <ele>544.72</ele>
        <time>2012-07-31T08:55:02Z</time>
      </trkpt>
      <trkpt lat="45.79611" lon="14.13559">
        <ele>544.24</ele>
        <time>2012-07-31T08:55:03Z</time>
      </trkpt>
      <trkpt lat="45.79602" lon="14.13558">
        <ele>542.8</ele>
        <time>2012-07-31T08:55:04Z</time>
      </trkpt>
      <trkpt lat="45.79594" lon="14.13556">
        <ele>542.8</ele>
        <time>2012-07-31T08:55:05Z</time>
      </trkpt>
      <trkpt lat="45.79588" lon="14.13551">
        <ele>542.32</ele>
        <time>2012-07-31T08:55:06Z</time>
      </trkpt>
      <trkpt lat="45.79584" lon="14.13541">
        <ele>542.32</ele>
        <time>2012-07-31T08:55:07Z</time>
      </trkpt>
      <trkpt lat="45.7958" lon="14.13529">
        <ele>542.8</ele>
        <time>2012-07-31T08:55:08Z</time>
      </trkpt>
      <trkpt lat="45.79577" lon="14.13516">
        <ele>543.76</ele>
        <time>2012-07-31T08:55:09Z</time>
      </trkpt>
      <trkpt lat="45.7954" lon="14.13421">
        <ele>541.84</ele>
        <time>2012-07-31T08:55:16Z</time>
      </trkpt>
      <trkpt lat="45.79503" lon="14.13373">
        <ele>540.88</ele>
        <time>2012-07-31T08:55:21Z</time>
      </trkpt>
      <trkpt lat="45.79494" lon="14.13367">
        <ele>541.36</ele>
        <time>2012-07-31T08:55:22Z</time>
      </trkpt>
      <trkpt lat="45.79377" lon="14.13309">
        <ele>542.8</ele>
        <time>2012-07-31T08:55:34Z</time>
      </trkpt>
      <trkpt lat="45.79347" lon="14.13296">
        <ele>545.2</ele>
        <time>2012-07-31T08:55:37Z</time>
      </trkpt>
      <trkpt lat="45.79318" lon="14.13287">
        <ele>548.57</ele>
        <time>2012-07-31T08:55:40Z</time>
      </trkpt>
      <trkpt lat="45.79309" lon="14.13284">
        <ele>548.57</ele>
        <time>2012-07-31T08:55:41Z</time>
      </trkpt>
      <trkpt lat="45.79285" lon="14.13272">
        <ele>549.05</ele>
        <time>2012-07-31T08:55:44Z</time>
      </trkpt>
      <trkpt lat="45.79278" lon="14.13264">
        <ele>549.05</ele>
        <time>2012-07-31T08:55:45Z</time>
      </trkpt>
      <trkpt lat="45.79272" lon="14.13255">
        <ele>549.05</ele>
        <time>2012-07-31T08:55:46Z</time>
      </trkpt>
      <trkpt lat="45.79268" lon="14.13244">
        <ele>549.53</ele>
        <time>2012-07-31T08:55:47Z</time>
      </trkpt>
      <trkpt lat="45.79264" lon="14.1323">
        <ele>550.01</ele>
        <time>2012-07-31T08:55:48Z</time>
      </trkpt>
      <trkpt lat="45.79261" lon="14.13215">
        <ele>549.05</ele>
        <time>2012-07-31T08:55:49Z</time>
      </trkpt>
      <trkpt lat="45.79245" lon="14.13129">
        <ele>547.61</ele>
        <time>2012-07-31T08:55:54Z</time>
      </trkpt>
      <trkpt lat="45.7924" lon="14.13095">
        <ele>545.2</ele>
        <time>2012-07-31T08:55:56Z</time>
      </trkpt>
      <trkpt lat="45.79236" lon="14.1308">
        <ele>544.24</ele>
        <time>2012-07-31T08:55:57Z</time>
      </trkpt>
      <trkpt lat="45.79229" lon="14.13065">
        <ele>544.24</ele>
        <time>2012-07-31T08:55:58Z</time>
      </trkpt>
      <trkpt lat="45.79219" lon="14.13053">
        <ele>544.72</ele>
        <time>2012-07-31T08:55:59Z</time>
      </trkpt>
      <trkpt lat="45.79208" lon="14.13044">
        <ele>544.24</ele>
        <time>2012-07-31T08:56:00Z</time>
      </trkpt>
      <trkpt lat="45.79196" lon="14.13038">
        <ele>544.24</ele>
        <time>2012-07-31T08:56:01Z</time>
      </trkpt>
      <trkpt lat="45.79182" lon="14.13034">
        <ele>544.72</ele>
        <time>2012-07-31T08:56:02Z</time>
      </trkpt>
      <trkpt lat="45.79168" lon="14.13032">
        <ele>545.2</ele>
        <time>2012-07-31T08:56:03Z</time>
      </trkpt>
      <trkpt lat="45.7908" lon="14.13013">
        <ele>541.84</ele>
        <time>2012-07-31T08:56:09Z</time>
      </trkpt>
      <trkpt lat="45.79065" lon="14.13011">
        <ele>543.76</ele>
        <time>2012-07-31T08:56:10Z</time>
      </trkpt>
      <trkpt lat="45.78924" lon="14.12982">
        <ele>543.28</ele>
        <time>2012-07-31T08:56:20Z</time>
      </trkpt>
      <trkpt lat="45.78897" lon="14.12972">
        <ele>541.36</ele>
        <time>2012-07-31T08:56:22Z</time>
      </trkpt>
      <trkpt lat="45.78883" lon="14.1297">
        <ele>540.88</ele>
        <time>2012-07-31T08:56:23Z</time>
      </trkpt>
      <trkpt lat="45.78869" lon="14.1297">
        <ele>540.4</ele>
        <time>2012-07-31T08:56:24Z</time>
      </trkpt>
      <trkpt lat="45.78745" lon="14.12996">
        <ele>540.4</ele>
        <time>2012-07-31T08:56:32Z</time>
      </trkpt>
      <trkpt lat="45.78671" lon="14.13002">
        <ele>540.88</ele>
        <time>2012-07-31T08:56:37Z</time>
      </trkpt>
      <trkpt lat="45.78657" lon="14.13009">
        <ele>539.92</ele>
        <time>2012-07-31T08:56:38Z</time>
      </trkpt>
      <trkpt lat="45.78643" lon="14.13018">
        <ele>541.36</ele>
        <time>2012-07-31T08:56:39Z</time>
      </trkpt>
      <trkpt lat="45.78629" lon="14.1303">
        <ele>539.44</ele>
        <time>2012-07-31T08:56:40Z</time>
      </trkpt>
      <trkpt lat="45.78615" lon="14.13043">
        <ele>538.48</ele>
        <time>2012-07-31T08:56:41Z</time>
      </trkpt>
      <trkpt lat="45.78601" lon="14.13058">
        <ele>538.48</ele>
        <time>2012-07-31T08:56:42Z</time>
      </trkpt>
      <trkpt lat="45.78589" lon="14.13074">
        <ele>539.92</ele>
        <time>2012-07-31T08:56:43Z</time>
      </trkpt>
      <trkpt lat="45.78414" lon="14.13271">
        <ele>539.44</ele>
        <time>2012-07-31T08:56:56Z</time>
      </trkpt>
      <trkpt lat="45.784" lon="14.13283">
        <ele>537.99</ele>
        <time>2012-07-31T08:56:57Z</time>
      </trkpt>
      <trkpt lat="45.78387" lon="14.13295">
        <ele>537.99</ele>
        <time>2012-07-31T08:56:58Z</time>
      </trkpt>
      <trkpt lat="45.78376" lon="14.13308">
        <ele>539.44</ele>
        <time>2012-07-31T08:56:59Z</time>
      </trkpt>
      <trkpt lat="45.78368" lon="14.13325">
        <ele>540.4</ele>
        <time>2012-07-31T08:57:00Z</time>
      </trkpt>
      <trkpt lat="45.78361" lon="14.13342">
        <ele>542.32</ele>
        <time>2012-07-31T08:57:01Z</time>
      </trkpt>
      <trkpt lat="45.78354" lon="14.1336">
        <ele>543.28</ele>
        <time>2012-07-31T08:57:02Z</time>
      </trkpt>
      <trkpt lat="45.783" lon="14.13479">
        <ele>544.24</ele>
        <time>2012-07-31T08:57:09Z</time>
      </trkpt>
      <trkpt lat="45.78289" lon="14.13492">
        <ele>543.76</ele>
        <time>2012-07-31T08:57:10Z</time>
      </trkpt>
      <trkpt lat="45.78276" lon="14.13503">
        <ele>544.24</ele>
        <time>2012-07-31T08:57:11Z</time>
      </trkpt>
      <trkpt lat="45.78261" lon="14.13511">
        <ele>544.24</ele>
        <time>2012-07-31T08:57:12Z</time>
      </trkpt>
      <trkpt lat="45.78246" lon="14.13517">
        <ele>544.24</ele>
        <time>2012-07-31T08:57:13Z</time>
      </trkpt>
      <trkpt lat="45.78229" lon="14.13523">
        <ele>544.24</ele>
        <time>2012-07-31T08:57:14Z</time>
      </trkpt>
      <trkpt lat="45.78107" lon="14.13556">
        <ele>543.76</ele>
        <time>2012-07-31T08:57:21Z</time>
      </trkpt>
      <trkpt lat="45.78091" lon="14.13555">
        <ele>544.24</ele>
        <time>2012-07-31T08:57:22Z</time>
      </trkpt>
      <trkpt lat="45.78075" lon="14.1355">
        <ele>543.76</ele>
        <time>2012-07-31T08:57:23Z</time>
      </trkpt>
      <trkpt lat="45.78059" lon="14.13541">
        <ele>544.24</ele>
        <time>2012-07-31T08:57:24Z</time>
      </trkpt>
      <trkpt lat="45.78045" lon="14.13531">
        <ele>544.24</ele>
        <time>2012-07-31T08:57:25Z</time>
      </trkpt>
      <trkpt lat="45.77989" lon="14.13486">
        <ele>547.61</ele>
        <time>2012-07-31T08:57:29Z</time>
      </trkpt>
      <trkpt lat="45.77978" lon="14.13477">
        <ele>547.61</ele>
        <time>2012-07-31T08:57:30Z</time>
      </trkpt>
      <trkpt lat="45.77944" lon="14.13451">
        <ele>551.93</ele>
        <time>2012-07-31T08:57:34Z</time>
      </trkpt>
      <trkpt lat="45.77935" lon="14.13448">
        <ele>552.41</ele>
        <time>2012-07-31T08:57:35Z</time>
      </trkpt>
      <trkpt lat="45.77927" lon="14.13447">
        <ele>552.41</ele>
        <time>2012-07-31T08:57:36Z</time>
      </trkpt>
      <trkpt lat="45.77919" lon="14.13448">
        <ele>552.41</ele>
        <time>2012-07-31T08:57:37Z</time>
      </trkpt>
      <trkpt lat="45.77911" lon="14.13451">
        <ele>553.38</ele>
        <time>2012-07-31T08:57:38Z</time>
      </trkpt>
      <trkpt lat="45.77879" lon="14.13466">
        <ele>556.74</ele>
        <time>2012-07-31T08:57:42Z</time>
      </trkpt>
      <trkpt lat="45.77827" lon="14.13504">
        <ele>559.14</ele>
        <time>2012-07-31T08:57:49Z</time>
      </trkpt>
      <trkpt lat="45.77824" lon="14.13506">
        <ele>559.14</ele>
        <time>2012-07-31T08:57:50Z</time>
      </trkpt>
      <trkpt lat="45.77822" lon="14.13508">
        <ele>559.14</ele>
        <time>2012-07-31T08:57:58Z</time>
      </trkpt>
      <trkpt lat="45.7782" lon="14.13507">
        <ele>559.14</ele>
        <time>2012-07-31T08:58:01Z</time>
      </trkpt>
      <trkpt lat="45.77819" lon="14.13504">
        <ele>558.18</ele>
        <time>2012-07-31T08:58:02Z</time>
      </trkpt>
      <trkpt lat="45.77818" lon="14.13499">
        <ele>558.66</ele>
        <time>2012-07-31T08:58:03Z</time>
      </trkpt>
      <trkpt lat="45.77841" lon="14.13438">
        <ele>559.62</ele>
        <time>2012-07-31T08:58:09Z</time>
      </trkpt>
      <trkpt lat="45.77845" lon="14.13425">
        <ele>559.62</ele>
        <time>2012-07-31T08:58:10Z</time>
      </trkpt>
      <trkpt lat="45.77849" lon="14.13411">
        <ele>558.66</ele>
        <time>2012-07-31T08:58:11Z</time>
      </trkpt>
      <trkpt lat="45.77852" lon="14.13397">
        <ele>559.62</ele>
        <time>2012-07-31T08:58:12Z</time>
      </trkpt>
      <trkpt lat="45.77854" lon="14.13381">
        <ele>559.14</ele>
        <time>2012-07-31T08:58:13Z</time>
      </trkpt>
      <trkpt lat="45.77856" lon="14.13365">
        <ele>559.14</ele>
        <time>2012-07-31T08:58:14Z</time>
      </trkpt>
      <trkpt lat="45.77865" lon="14.13321">
        <ele>560.11</ele>
        <time>2012-07-31T08:58:17Z</time>
      </trkpt>
      <trkpt lat="45.7787" lon="14.13308">
        <ele>560.11</ele>
        <time>2012-07-31T08:58:18Z</time>
      </trkpt>
      <trkpt lat="45.77875" lon="14.13296">
        <ele>560.11</ele>
        <time>2012-07-31T08:58:19Z</time>
      </trkpt>
      <trkpt lat="45.77882" lon="14.13285">
        <ele>561.55</ele>
        <time>2012-07-31T08:58:20Z</time>
      </trkpt>
      <trkpt lat="45.77888" lon="14.13275">
        <ele>561.55</ele>
        <time>2012-07-31T08:58:21Z</time>
      </trkpt>
      <trkpt lat="45.7793" lon="14.13212">
        <ele>564.43</ele>
        <time>2012-07-31T08:58:27Z</time>
      </trkpt>
      <trkpt lat="45.77935" lon="14.13201">
        <ele>565.87</ele>
        <time>2012-07-31T08:58:28Z</time>
      </trkpt>
      <trkpt lat="45.77946" lon="14.13177">
        <ele>564.91</ele>
        <time>2012-07-31T08:58:30Z</time>
      </trkpt>
      <trkpt lat="45.77952" lon="14.13167">
        <ele>565.87</ele>
        <time>2012-07-31T08:58:31Z</time>
      </trkpt>
      <trkpt lat="45.77959" lon="14.1316">
        <ele>567.32</ele>
        <time>2012-07-31T08:58:32Z</time>
      </trkpt>
      <trkpt lat="45.77967" lon="14.13156">
        <ele>567.8</ele>
        <time>2012-07-31T08:58:33Z</time>
      </trkpt>
      <trkpt lat="45.77974" lon="14.13152">
        <ele>568.76</ele>
        <time>2012-07-31T08:58:34Z</time>
      </trkpt>
      <trkpt lat="45.77987" lon="14.13142">
        <ele>570.68</ele>
        <time>2012-07-31T08:58:36Z</time>
      </trkpt>
      <trkpt lat="45.77993" lon="14.13135">
        <ele>572.12</ele>
        <time>2012-07-31T08:58:37Z</time>
      </trkpt>
      <trkpt lat="45.78012" lon="14.13109">
        <ele>575.01</ele>
        <time>2012-07-31T08:58:40Z</time>
      </trkpt>
      <trkpt lat="45.78057" lon="14.13045">
        <ele>578.37</ele>
        <time>2012-07-31T08:58:47Z</time>
      </trkpt>
      <trkpt lat="45.78061" lon="14.13035">
        <ele>578.85</ele>
        <time>2012-07-31T08:58:48Z</time>
      </trkpt>
      <trkpt lat="45.78064" lon="14.13025">
        <ele>579.81</ele>
        <time>2012-07-31T08:58:49Z</time>
      </trkpt>
      <trkpt lat="45.78067" lon="14.13015">
        <ele>579.81</ele>
        <time>2012-07-31T08:58:50Z</time>
      </trkpt>
      <trkpt lat="45.78069" lon="14.13005">
        <ele>581.25</ele>
        <time>2012-07-31T08:58:51Z</time>
      </trkpt>
      <trkpt lat="45.78074" lon="14.12987">
        <ele>582.22</ele>
        <time>2012-07-31T08:58:53Z</time>
      </trkpt>
      <trkpt lat="45.78083" lon="14.12954">
        <ele>582.7</ele>
        <time>2012-07-31T08:58:58Z</time>
      </trkpt>
      <trkpt lat="45.78077" lon="14.12954">
        <ele>582.22</ele>
        <time>2012-07-31T08:59:04Z</time>
      </trkpt>
      <trkpt lat="45.78077" lon="14.12954">
        <ele>582.22</ele>
        <time>2012-07-31T08:59:05Z</time>
      </trkpt>
      <trkpt lat="45.78076" lon="14.12972">
        <ele>582.7</ele>
        <time>2012-07-31T08:59:09Z</time>
      </trkpt>
      <trkpt lat="45.78073" lon="14.12977">
        <ele>581.73</ele>
        <time>2012-07-31T08:59:10Z</time>
      </trkpt>
      <trkpt lat="45.7807" lon="14.12979">
        <ele>581.25</ele>
        <time>2012-07-31T08:59:11Z</time>
      </trkpt>
      <trkpt lat="45.78068" lon="14.12981">
        <ele>581.25</ele>
        <time>2012-07-31T08:59:12Z</time>
      </trkpt>
      <trkpt lat="45.78068" lon="14.12983">
        <ele>580.77</ele>
        <time>2012-07-31T08:59:13Z</time>
      </trkpt>
      <trkpt lat="45.78068" lon="14.12985">
        <ele>580.77</ele>
        <time>2012-07-31T08:59:25Z</time>
      </trkpt>
      <trkpt lat="45.78065" lon="14.13012">
        <ele>579.81</ele>
        <time>2012-07-31T08:59:39Z</time>
      </trkpt>
      <trkpt lat="45.78063" lon="14.13019">
        <ele>578.85</ele>
        <time>2012-07-31T08:59:40Z</time>
      </trkpt>
      <trkpt lat="45.78062" lon="14.13024">
        <ele>578.37</ele>
        <time>2012-07-31T08:59:41Z</time>
      </trkpt>
      <trkpt lat="45.78057" lon="14.13034">
        <ele>578.37</ele>
        <time>2012-07-31T08:59:43Z</time>
      </trkpt>
      <trkpt lat="45.78046" lon="14.13053">
        <ele>576.93</ele>
        <time>2012-07-31T08:59:46Z</time>
      </trkpt>
      <trkpt lat="45.7803" lon="14.13073">
        <ele>573.56</ele>
        <time>2012-07-31T08:59:49Z</time>
      </trkpt>
      <trkpt lat="45.77977" lon="14.13145">
        <ele>570.2</ele>
        <time>2012-07-31T08:59:58Z</time>
      </trkpt>
      <trkpt lat="45.7797" lon="14.13151">
        <ele>569.72</ele>
        <time>2012-07-31T08:59:59Z</time>
      </trkpt>
      <trkpt lat="45.77954" lon="14.13161">
        <ele>567.8</ele>
        <time>2012-07-31T09:00:01Z</time>
      </trkpt>
      <trkpt lat="45.77946" lon="14.13171">
        <ele>566.83</ele>
        <time>2012-07-31T09:00:02Z</time>
      </trkpt>
      <trkpt lat="45.77938" lon="14.13187">
        <ele>566.83</ele>
        <time>2012-07-31T09:00:03Z</time>
      </trkpt>
      <trkpt lat="45.77924" lon="14.13221">
        <ele>564.43</ele>
        <time>2012-07-31T09:00:05Z</time>
      </trkpt>
      <trkpt lat="45.77915" lon="14.13236">
        <ele>564.43</ele>
        <time>2012-07-31T09:00:06Z</time>
      </trkpt>
      <trkpt lat="45.77876" lon="14.13293">
        <ele>561.55</ele>
        <time>2012-07-31T09:00:10Z</time>
      </trkpt>
      <trkpt lat="45.77869" lon="14.13308">
        <ele>561.55</ele>
        <time>2012-07-31T09:00:11Z</time>
      </trkpt>
      <trkpt lat="45.77863" lon="14.13324">
        <ele>561.55</ele>
        <time>2012-07-31T09:00:12Z</time>
      </trkpt>
      <trkpt lat="45.77859" lon="14.13341">
        <ele>561.55</ele>
        <time>2012-07-31T09:00:13Z</time>
      </trkpt>
      <trkpt lat="45.77856" lon="14.13359">
        <ele>562.03</ele>
        <time>2012-07-31T09:00:14Z</time>
      </trkpt>
      <trkpt lat="45.77848" lon="14.13411">
        <ele>561.07</ele>
        <time>2012-07-31T09:00:17Z</time>
      </trkpt>
      <trkpt lat="45.77844" lon="14.13426">
        <ele>560.11</ele>
        <time>2012-07-31T09:00:18Z</time>
      </trkpt>
      <trkpt lat="45.77838" lon="14.13439">
        <ele>560.11</ele>
        <time>2012-07-31T09:00:19Z</time>
      </trkpt>
      <trkpt lat="45.77824" lon="14.13475">
        <ele>560.11</ele>
        <time>2012-07-31T09:00:22Z</time>
      </trkpt>
      <trkpt lat="45.77821" lon="14.13487">
        <ele>560.59</ele>
        <time>2012-07-31T09:00:23Z</time>
      </trkpt>
      <trkpt lat="45.77814" lon="14.13509">
        <ele>562.03</ele>
        <time>2012-07-31T09:00:25Z</time>
      </trkpt>
      <trkpt lat="45.7781" lon="14.13519">
        <ele>562.51</ele>
        <time>2012-07-31T09:00:26Z</time>
      </trkpt>
      <trkpt lat="45.77804" lon="14.13529">
        <ele>562.99</ele>
        <time>2012-07-31T09:00:27Z</time>
      </trkpt>
      <trkpt lat="45.77782" lon="14.13559">
        <ele>564.43</ele>
        <time>2012-07-31T09:00:30Z</time>
      </trkpt>
      <trkpt lat="45.77775" lon="14.13571">
        <ele>563.95</ele>
        <time>2012-07-31T09:00:31Z</time>
      </trkpt>
      <trkpt lat="45.7777" lon="14.13583">
        <ele>563.95</ele>
        <time>2012-07-31T09:00:32Z</time>
      </trkpt>
      <trkpt lat="45.77765" lon="14.13598">
        <ele>564.43</ele>
        <time>2012-07-31T09:00:33Z</time>
      </trkpt>
      <trkpt lat="45.7776" lon="14.13614">
        <ele>565.39</ele>
        <time>2012-07-31T09:00:34Z</time>
      </trkpt>
      <trkpt lat="45.77728" lon="14.13724">
        <ele>566.83</ele>
        <time>2012-07-31T09:00:40Z</time>
      </trkpt>
      <trkpt lat="45.77712" lon="14.13761">
        <ele>565.39</ele>
        <time>2012-07-31T09:00:42Z</time>
      </trkpt>
      <trkpt lat="45.77703" lon="14.13778">
        <ele>564.91</ele>
        <time>2012-07-31T09:00:43Z</time>
      </trkpt>
      <trkpt lat="45.77692" lon="14.13792">
        <ele>565.39</ele>
        <time>2012-07-31T09:00:44Z</time>
      </trkpt>
      <trkpt lat="45.7764" lon="14.13845">
        <ele>566.83</ele>
        <time>2012-07-31T09:00:48Z</time>
      </trkpt>
      <trkpt lat="45.77597" lon="14.13876">
        <ele>566.35</ele>
        <time>2012-07-31T09:00:51Z</time>
      </trkpt>
      <trkpt lat="45.77581" lon="14.13881">
        <ele>566.35</ele>
        <time>2012-07-31T09:00:52Z</time>
      </trkpt>
      <trkpt lat="45.77565" lon="14.13884">
        <ele>566.83</ele>
        <time>2012-07-31T09:00:53Z</time>
      </trkpt>
      <trkpt lat="45.7755" lon="14.13885">
        <ele>566.35</ele>
        <time>2012-07-31T09:00:54Z</time>
      </trkpt>
      <trkpt lat="45.77534" lon="14.13884">
        <ele>566.35</ele>
        <time>2012-07-31T09:00:55Z</time>
      </trkpt>
      <trkpt lat="45.77517" lon="14.13882">
        <ele>566.83</ele>
        <time>2012-07-31T09:00:56Z</time>
      </trkpt>
      <trkpt lat="45.7745" lon="14.13861">
        <ele>564.43</ele>
        <time>2012-07-31T09:01:00Z</time>
      </trkpt>
      <trkpt lat="45.77434" lon="14.1385">
        <ele>562.99</ele>
        <time>2012-07-31T09:01:01Z</time>
      </trkpt>
      <trkpt lat="45.77418" lon="14.13837">
        <ele>563.95</ele>
        <time>2012-07-31T09:01:02Z</time>
      </trkpt>
      <trkpt lat="45.77372" lon="14.13802">
        <ele>561.07</ele>
        <time>2012-07-31T09:01:05Z</time>
      </trkpt>
      <trkpt lat="45.77356" lon="14.13794">
        <ele>559.62</ele>
        <time>2012-07-31T09:01:06Z</time>
      </trkpt>
      <trkpt lat="45.77339" lon="14.13788">
        <ele>560.11</ele>
        <time>2012-07-31T09:01:07Z</time>
      </trkpt>
      <trkpt lat="45.77321" lon="14.13785">
        <ele>558.66</ele>
        <time>2012-07-31T09:01:08Z</time>
      </trkpt>
      <trkpt lat="45.77303" lon="14.13785">
        <ele>558.18</ele>
        <time>2012-07-31T09:01:09Z</time>
      </trkpt>
      <trkpt lat="45.77285" lon="14.13786">
        <ele>558.66</ele>
        <time>2012-07-31T09:01:10Z</time>
      </trkpt>
      <trkpt lat="45.77249" lon="14.13788">
        <ele>555.3</ele>
        <time>2012-07-31T09:01:12Z</time>
      </trkpt>
      <trkpt lat="45.77232" lon="14.13789">
        <ele>556.26</ele>
        <time>2012-07-31T09:01:13Z</time>
      </trkpt>
      <trkpt lat="45.77201" lon="14.1379">
        <ele>551.93</ele>
        <time>2012-07-31T09:01:15Z</time>
      </trkpt>
      <trkpt lat="45.77188" lon="14.1379">
        <ele>553.38</ele>
        <time>2012-07-31T09:01:16Z</time>
      </trkpt>
      <trkpt lat="45.77127" lon="14.13793">
        <ele>550.01</ele>
        <time>2012-07-31T09:01:22Z</time>
      </trkpt>
      <trkpt lat="45.77108" lon="14.13789">
        <ele>548.57</ele>
        <time>2012-07-31T09:01:26Z</time>
      </trkpt>
      <trkpt lat="45.77104" lon="14.13785">
        <ele>549.05</ele>
        <time>2012-07-31T09:01:27Z</time>
      </trkpt>
      <trkpt lat="45.77098" lon="14.13778">
        <ele>549.53</ele>
        <time>2012-07-31T09:01:28Z</time>
      </trkpt>
      <trkpt lat="45.77093" lon="14.13768">
        <ele>549.53</ele>
        <time>2012-07-31T09:01:29Z</time>
      </trkpt>
      <trkpt lat="45.77087" lon="14.13756">
        <ele>549.05</ele>
        <time>2012-07-31T09:01:30Z</time>
      </trkpt>
      <trkpt lat="45.77018" lon="14.13615">
        <ele>551.93</ele>
        <time>2012-07-31T09:01:38Z</time>
      </trkpt>
      <trkpt lat="45.7691" lon="14.13395">
        <ele>550.49</ele>
        <time>2012-07-31T09:01:49Z</time>
      </trkpt>
      <trkpt lat="45.76826" lon="14.13225">
        <ele>548.57</ele>
        <time>2012-07-31T09:01:57Z</time>
      </trkpt>
      <trkpt lat="45.76671" lon="14.12911">
        <ele>550.01</ele>
        <time>2012-07-31T09:02:11Z</time>
      </trkpt>
      <trkpt lat="45.76616" lon="14.12789">
        <ele>551.93</ele>
        <time>2012-07-31T09:02:16Z</time>
      </trkpt>
      <trkpt lat="45.76492" lon="14.12513">
        <ele>548.57</ele>
        <time>2012-07-31T09:02:27Z</time>
      </trkpt>
      <trkpt lat="45.76454" lon="14.12447">
        <ele>552.9</ele>
        <time>2012-07-31T09:02:30Z</time>
      </trkpt>
      <trkpt lat="45.76403" lon="14.12361">
        <ele>558.18</ele>
        <time>2012-07-31T09:02:34Z</time>
      </trkpt>
      <trkpt lat="45.76391" lon="14.12338">
        <ele>558.18</ele>
        <time>2012-07-31T09:02:35Z</time>
      </trkpt>
      <trkpt lat="45.76361" lon="14.1227">
        <ele>561.07</ele>
        <time>2012-07-31T09:02:38Z</time>
      </trkpt>
      <trkpt lat="45.76354" lon="14.12246">
        <ele>561.55</ele>
        <time>2012-07-31T09:02:39Z</time>
      </trkpt>
      <trkpt lat="45.76349" lon="14.12221">
        <ele>560.59</ele>
        <time>2012-07-31T09:02:40Z</time>
      </trkpt>
      <trkpt lat="45.76344" lon="14.12196">
        <ele>565.39</ele>
        <time>2012-07-31T09:02:41Z</time>
      </trkpt>
      <trkpt lat="45.76338" lon="14.12149">
        <ele>566.35</ele>
        <time>2012-07-31T09:02:43Z</time>
      </trkpt>
      <trkpt lat="45.76336" lon="14.12127">
        <ele>561.55</ele>
        <time>2012-07-31T09:02:44Z</time>
      </trkpt>
      <trkpt lat="45.76335" lon="14.12104">
        <ele>569.24</ele>
        <time>2012-07-31T09:02:45Z</time>
      </trkpt>
      <trkpt lat="45.76324" lon="14.11879">
        <ele>566.83</ele>
        <time>2012-07-31T09:02:54Z</time>
      </trkpt>
      <trkpt lat="45.7632" lon="14.11799">
        <ele>568.28</ele>
        <time>2012-07-31T09:02:57Z</time>
      </trkpt>
      <trkpt lat="45.76318" lon="14.11748">
        <ele>564.43</ele>
        <time>2012-07-31T09:02:59Z</time>
      </trkpt>
      <trkpt lat="45.76315" lon="14.11676">
        <ele>561.55</ele>
        <time>2012-07-31T09:03:02Z</time>
      </trkpt>
      <trkpt lat="45.76311" lon="14.11633">
        <ele>561.07</ele>
        <time>2012-07-31T09:03:04Z</time>
      </trkpt>
      <trkpt lat="45.76306" lon="14.11612">
        <ele>561.07</ele>
        <time>2012-07-31T09:03:05Z</time>
      </trkpt>
      <trkpt lat="45.76298" lon="14.11593">
        <ele>560.59</ele>
        <time>2012-07-31T09:03:06Z</time>
      </trkpt>
      <trkpt lat="45.76287" lon="14.11575">
        <ele>558.66</ele>
        <time>2012-07-31T09:03:07Z</time>
      </trkpt>
      <trkpt lat="45.76277" lon="14.11557">
        <ele>560.11</ele>
        <time>2012-07-31T09:03:08Z</time>
      </trkpt>
      <trkpt lat="45.76223" lon="14.11469">
        <ele>558.18</ele>
        <time>2012-07-31T09:03:13Z</time>
      </trkpt>
      <trkpt lat="45.76203" lon="14.11437">
        <ele>556.26</ele>
        <time>2012-07-31T09:03:15Z</time>
      </trkpt>
      <trkpt lat="45.76187" lon="14.11403">
        <ele>552.9</ele>
        <time>2012-07-31T09:03:17Z</time>
      </trkpt>
      <trkpt lat="45.76182" lon="14.11384">
        <ele>552.41</ele>
        <time>2012-07-31T09:03:18Z</time>
      </trkpt>
      <trkpt lat="45.7618" lon="14.11363">
        <ele>552.41</ele>
        <time>2012-07-31T09:03:19Z</time>
      </trkpt>
      <trkpt lat="45.7618" lon="14.1134">
        <ele>552.41</ele>
        <time>2012-07-31T09:03:20Z</time>
      </trkpt>
      <trkpt lat="45.76181" lon="14.11317">
        <ele>553.38</ele>
        <time>2012-07-31T09:03:21Z</time>
      </trkpt>
      <trkpt lat="45.76187" lon="14.11246">
        <ele>551.93</ele>
        <time>2012-07-31T09:03:24Z</time>
      </trkpt>
      <trkpt lat="45.76214" lon="14.11113">
        <ele>550.01</ele>
        <time>2012-07-31T09:03:31Z</time>
      </trkpt>
      <trkpt lat="45.76234" lon="14.11012">
        <ele>550.49</ele>
        <time>2012-07-31T09:03:37Z</time>
      </trkpt>
      <trkpt lat="45.76234" lon="14.10993">
        <ele>550.97</ele>
        <time>2012-07-31T09:03:38Z</time>
      </trkpt>
      <trkpt lat="45.76231" lon="14.10974">
        <ele>550.97</ele>
        <time>2012-07-31T09:03:39Z</time>
      </trkpt>
      <trkpt lat="45.76227" lon="14.10955">
        <ele>548.09</ele>
        <time>2012-07-31T09:03:40Z</time>
      </trkpt>
      <trkpt lat="45.76221" lon="14.10936">
        <ele>551.93</ele>
        <time>2012-07-31T09:03:41Z</time>
      </trkpt>
      <trkpt lat="45.7621" lon="14.10895">
        <ele>551.45</ele>
        <time>2012-07-31T09:03:43Z</time>
      </trkpt>
      <trkpt lat="45.76206" lon="14.10872">
        <ele>551.45</ele>
        <time>2012-07-31T09:03:44Z</time>
      </trkpt>
      <trkpt lat="45.76189" lon="14.10774">
        <ele>547.61</ele>
        <time>2012-07-31T09:03:48Z</time>
      </trkpt>
      <trkpt lat="45.76141" lon="14.10601">
        <ele>546.65</ele>
        <time>2012-07-31T09:03:55Z</time>
      </trkpt>
      <trkpt lat="45.76133" lon="14.10552">
        <ele>546.65</ele>
        <time>2012-07-31T09:03:57Z</time>
      </trkpt>
      <trkpt lat="45.76111" lon="14.1035">
        <ele>550.49</ele>
        <time>2012-07-31T09:04:05Z</time>
      </trkpt>
      <trkpt lat="45.76106" lon="14.10325">
        <ele>550.01</ele>
        <time>2012-07-31T09:04:06Z</time>
      </trkpt>
      <trkpt lat="45.76101" lon="14.103">
        <ele>546.17</ele>
        <time>2012-07-31T09:04:07Z</time>
      </trkpt>
      <trkpt lat="45.76095" lon="14.10276">
        <ele>546.65</ele>
        <time>2012-07-31T09:04:08Z</time>
      </trkpt>
      <trkpt lat="45.76048" lon="14.10073">
        <ele>545.69</ele>
        <time>2012-07-31T09:04:16Z</time>
      </trkpt>
      <trkpt lat="45.76047" lon="14.10049">
        <ele>546.17</ele>
        <time>2012-07-31T09:04:17Z</time>
      </trkpt>
      <trkpt lat="45.76049" lon="14.10025">
        <ele>546.17</ele>
        <time>2012-07-31T09:04:18Z</time>
      </trkpt>
      <trkpt lat="45.76054" lon="14.10001">
        <ele>546.17</ele>
        <time>2012-07-31T09:04:19Z</time>
      </trkpt>
      <trkpt lat="45.76061" lon="14.09978">
        <ele>546.65</ele>
        <time>2012-07-31T09:04:20Z</time>
      </trkpt>
      <trkpt lat="45.76071" lon="14.09956">
        <ele>547.61</ele>
        <time>2012-07-31T09:04:21Z</time>
      </trkpt>
      <trkpt lat="45.76082" lon="14.09936">
        <ele>548.57</ele>
        <time>2012-07-31T09:04:22Z</time>
      </trkpt>
      <trkpt lat="45.76094" lon="14.09917">
        <ele>549.05</ele>
        <time>2012-07-31T09:04:23Z</time>
      </trkpt>
      <trkpt lat="45.76118" lon="14.0988">
        <ele>549.05</ele>
        <time>2012-07-31T09:04:25Z</time>
      </trkpt>
      <trkpt lat="45.76127" lon="14.09861">
        <ele>549.05</ele>
        <time>2012-07-31T09:04:26Z</time>
      </trkpt>
      <trkpt lat="45.76134" lon="14.09839">
        <ele>550.01</ele>
        <time>2012-07-31T09:04:27Z</time>
      </trkpt>
      <trkpt lat="45.76138" lon="14.09815">
        <ele>549.53</ele>
        <time>2012-07-31T09:04:28Z</time>
      </trkpt>
      <trkpt lat="45.76139" lon="14.0979">
        <ele>549.53</ele>
        <time>2012-07-31T09:04:29Z</time>
      </trkpt>
      <trkpt lat="45.76137" lon="14.09766">
        <ele>550.49</ele>
        <time>2012-07-31T09:04:30Z</time>
      </trkpt>
      <trkpt lat="45.76132" lon="14.09743">
        <ele>552.41</ele>
        <time>2012-07-31T09:04:31Z</time>
      </trkpt>
      <trkpt lat="45.76124" lon="14.0972">
        <ele>553.86</ele>
        <time>2012-07-31T09:04:32Z</time>
      </trkpt>
      <trkpt lat="45.76116" lon="14.09699">
        <ele>554.82</ele>
        <time>2012-07-31T09:04:33Z</time>
      </trkpt>
      <trkpt lat="45.76088" lon="14.09613">
        <ele>558.66</ele>
        <time>2012-07-31T09:04:37Z</time>
      </trkpt>
      <trkpt lat="45.76078" lon="14.09567">
        <ele>561.55</ele>
        <time>2012-07-31T09:04:39Z</time>
      </trkpt>
      <trkpt lat="45.76076" lon="14.09543">
        <ele>562.99</ele>
        <time>2012-07-31T09:04:40Z</time>
      </trkpt>
      <trkpt lat="45.76076" lon="14.09519">
        <ele>564.43</ele>
        <time>2012-07-31T09:04:41Z</time>
      </trkpt>
      <trkpt lat="45.76079" lon="14.09495">
        <ele>564.91</ele>
        <time>2012-07-31T09:04:42Z</time>
      </trkpt>
      <trkpt lat="45.76083" lon="14.09471">
        <ele>565.87</ele>
        <time>2012-07-31T09:04:43Z</time>
      </trkpt>
      <trkpt lat="45.76091" lon="14.09422">
        <ele>566.83</ele>
        <time>2012-07-31T09:04:45Z</time>
      </trkpt>
      <trkpt lat="45.76094" lon="14.09396">
        <ele>567.32</ele>
        <time>2012-07-31T09:04:46Z</time>
      </trkpt>
      <trkpt lat="45.76097" lon="14.09164">
        <ele>567.32</ele>
        <time>2012-07-31T09:04:55Z</time>
      </trkpt>
      <trkpt lat="45.76079" lon="14.09067">
        <ele>571.16</ele>
        <time>2012-07-31T09:04:59Z</time>
      </trkpt>
      <trkpt lat="45.76073" lon="14.09043">
        <ele>571.16</ele>
        <time>2012-07-31T09:05:00Z</time>
      </trkpt>
      <trkpt lat="45.76031" lon="14.0886">
        <ele>573.56</ele>
        <time>2012-07-31T09:05:08Z</time>
      </trkpt>
      <trkpt lat="45.76022" lon="14.08814">
        <ele>573.08</ele>
        <time>2012-07-31T09:05:10Z</time>
      </trkpt>
      <trkpt lat="45.76021" lon="14.08791">
        <ele>573.08</ele>
        <time>2012-07-31T09:05:11Z</time>
      </trkpt>
      <trkpt lat="45.76023" lon="14.08768">
        <ele>574.04</ele>
        <time>2012-07-31T09:05:12Z</time>
      </trkpt>
      <trkpt lat="45.76027" lon="14.08745">
        <ele>574.53</ele>
        <time>2012-07-31T09:05:13Z</time>
      </trkpt>
      <trkpt lat="45.76034" lon="14.08723">
        <ele>574.04</ele>
        <time>2012-07-31T09:05:14Z</time>
      </trkpt>
      <trkpt lat="45.76042" lon="14.08701">
        <ele>575.01</ele>
        <time>2012-07-31T09:05:15Z</time>
      </trkpt>
      <trkpt lat="45.76074" lon="14.08585">
        <ele>572.12</ele>
        <time>2012-07-31T09:05:20Z</time>
      </trkpt>
      <trkpt lat="45.76083" lon="14.08377">
        <ele>570.2</ele>
        <time>2012-07-31T09:05:28Z</time>
      </trkpt>
      <trkpt lat="45.76081" lon="14.08245">
        <ele>565.87</ele>
        <time>2012-07-31T09:05:33Z</time>
      </trkpt>
      <trkpt lat="45.76087" lon="14.08193">
        <ele>563.95</ele>
        <time>2012-07-31T09:05:35Z</time>
      </trkpt>
      <trkpt lat="45.76119" lon="14.08042">
        <ele>567.32</ele>
        <time>2012-07-31T09:05:41Z</time>
      </trkpt>
      <trkpt lat="45.76123" lon="14.08017">
        <ele>566.35</ele>
        <time>2012-07-31T09:05:42Z</time>
      </trkpt>
      <trkpt lat="45.76125" lon="14.07991">
        <ele>564.43</ele>
        <time>2012-07-31T09:05:43Z</time>
      </trkpt>
      <trkpt lat="45.76124" lon="14.07938">
        <ele>566.83</ele>
        <time>2012-07-31T09:05:45Z</time>
      </trkpt>
      <trkpt lat="45.76122" lon="14.07912">
        <ele>565.87</ele>
        <time>2012-07-31T09:05:46Z</time>
      </trkpt>
      <trkpt lat="45.76108" lon="14.07804">
        <ele>566.83</ele>
        <time>2012-07-31T09:05:50Z</time>
      </trkpt>
      <trkpt lat="45.76093" lon="14.07695">
        <ele>569.72</ele>
        <time>2012-07-31T09:05:54Z</time>
      </trkpt>
      <trkpt lat="45.76089" lon="14.07668">
        <ele>570.2</ele>
        <time>2012-07-31T09:05:55Z</time>
      </trkpt>
      <trkpt lat="45.7604" lon="14.07531">
        <ele>571.16</ele>
        <time>2012-07-31T09:06:01Z</time>
      </trkpt>
      <trkpt lat="45.75957" lon="14.07423">
        <ele>568.76</ele>
        <time>2012-07-31T09:06:07Z</time>
      </trkpt>
      <trkpt lat="45.75916" lon="14.07378">
        <ele>569.24</ele>
        <time>2012-07-31T09:06:10Z</time>
      </trkpt>
      <trkpt lat="45.75904" lon="14.07358">
        <ele>568.76</ele>
        <time>2012-07-31T09:06:11Z</time>
      </trkpt>
      <trkpt lat="45.75894" lon="14.07337">
        <ele>568.76</ele>
        <time>2012-07-31T09:06:12Z</time>
      </trkpt>
      <trkpt lat="45.75886" lon="14.07315">
        <ele>569.72</ele>
        <time>2012-07-31T09:06:13Z</time>
      </trkpt>
      <trkpt lat="45.7588" lon="14.07291">
        <ele>569.72</ele>
        <time>2012-07-31T09:06:14Z</time>
      </trkpt>
      <trkpt lat="45.75875" lon="14.07265">
        <ele>570.2</ele>
        <time>2012-07-31T09:06:15Z</time>
      </trkpt>
      <trkpt lat="45.75873" lon="14.07239">
        <ele>571.16</ele>
        <time>2012-07-31T09:06:16Z</time>
      </trkpt>
      <trkpt lat="45.75871" lon="14.07213">
        <ele>571.16</ele>
        <time>2012-07-31T09:06:17Z</time>
      </trkpt>
      <trkpt lat="45.75865" lon="14.07143">
        <ele>571.64</ele>
        <time>2012-07-31T09:06:20Z</time>
      </trkpt>
      <trkpt lat="45.75861" lon="14.0712">
        <ele>572.6</ele>
        <time>2012-07-31T09:06:21Z</time>
      </trkpt>
      <trkpt lat="45.75856" lon="14.07098">
        <ele>570.68</ele>
        <time>2012-07-31T09:06:22Z</time>
      </trkpt>
      <trkpt lat="45.7585" lon="14.07075">
        <ele>572.12</ele>
        <time>2012-07-31T09:06:23Z</time>
      </trkpt>
      <trkpt lat="45.75843" lon="14.07052">
        <ele>572.12</ele>
        <time>2012-07-31T09:06:24Z</time>
      </trkpt>
      <trkpt lat="45.75834" lon="14.07031">
        <ele>573.08</ele>
        <time>2012-07-31T09:06:25Z</time>
      </trkpt>
      <trkpt lat="45.75825" lon="14.0701">
        <ele>572.6</ele>
        <time>2012-07-31T09:06:26Z</time>
      </trkpt>
      <trkpt lat="45.75815" lon="14.06991">
        <ele>572.6</ele>
        <time>2012-07-31T09:06:27Z</time>
      </trkpt>
      <trkpt lat="45.75775" lon="14.06899">
        <ele>572.12</ele>
        <time>2012-07-31T09:06:32Z</time>
      </trkpt>
      <trkpt lat="45.75771" lon="14.06878">
        <ele>571.16</ele>
        <time>2012-07-31T09:06:33Z</time>
      </trkpt>
      <trkpt lat="45.75768" lon="14.06857">
        <ele>573.56</ele>
        <time>2012-07-31T09:06:34Z</time>
      </trkpt>
      <trkpt lat="45.75766" lon="14.06835">
        <ele>574.04</ele>
        <time>2012-07-31T09:06:35Z</time>
      </trkpt>
      <trkpt lat="45.75765" lon="14.06813">
        <ele>574.04</ele>
        <time>2012-07-31T09:06:36Z</time>
      </trkpt>
      <trkpt lat="45.75763" lon="14.06767">
        <ele>575.97</ele>
        <time>2012-07-31T09:06:38Z</time>
      </trkpt>
      <trkpt lat="45.75752" lon="14.06571">
        <ele>578.37</ele>
        <time>2012-07-31T09:06:46Z</time>
      </trkpt>
      <trkpt lat="45.75729" lon="14.06416">
        <ele>581.73</ele>
        <time>2012-07-31T09:06:53Z</time>
      </trkpt>
      <trkpt lat="45.75726" lon="14.06396">
        <ele>581.73</ele>
        <time>2012-07-31T09:06:54Z</time>
      </trkpt>
      <trkpt lat="45.75721" lon="14.06333">
        <ele>583.66</ele>
        <time>2012-07-31T09:06:57Z</time>
      </trkpt>
      <trkpt lat="45.75705" lon="14.06189">
        <ele>584.62</ele>
        <time>2012-07-31T09:07:04Z</time>
      </trkpt>
      <trkpt lat="45.75695" lon="14.06092">
        <ele>583.18</ele>
        <time>2012-07-31T09:07:09Z</time>
      </trkpt>
      <trkpt lat="45.75686" lon="14.06055">
        <ele>583.18</ele>
        <time>2012-07-31T09:07:11Z</time>
      </trkpt>
      <trkpt lat="45.75679" lon="14.06039">
        <ele>581.73</ele>
        <time>2012-07-31T09:07:12Z</time>
      </trkpt>
      <trkpt lat="45.75671" lon="14.06024">
        <ele>581.73</ele>
        <time>2012-07-31T09:07:13Z</time>
      </trkpt>
      <trkpt lat="45.75665" lon="14.06011">
        <ele>581.25</ele>
        <time>2012-07-31T09:07:14Z</time>
      </trkpt>
      <trkpt lat="45.75662" lon="14.05997">
        <ele>580.77</ele>
        <time>2012-07-31T09:07:15Z</time>
      </trkpt>
      <trkpt lat="45.75661" lon="14.05982">
        <ele>581.73</ele>
        <time>2012-07-31T09:07:16Z</time>
      </trkpt>
      <trkpt lat="45.75664" lon="14.05965">
        <ele>582.7</ele>
        <time>2012-07-31T09:07:17Z</time>
      </trkpt>
      <trkpt lat="45.75668" lon="14.05946">
        <ele>584.62</ele>
        <time>2012-07-31T09:07:18Z</time>
      </trkpt>
      <trkpt lat="45.7567" lon="14.05926">
        <ele>585.1</ele>
        <time>2012-07-31T09:07:19Z</time>
      </trkpt>
      <trkpt lat="45.75672" lon="14.05907">
        <ele>585.58</ele>
        <time>2012-07-31T09:07:20Z</time>
      </trkpt>
      <trkpt lat="45.75686" lon="14.05719">
        <ele>588.95</ele>
        <time>2012-07-31T09:07:29Z</time>
      </trkpt>
      <trkpt lat="45.75691" lon="14.05655">
        <ele>589.91</ele>
        <time>2012-07-31T09:07:32Z</time>
      </trkpt>
      <trkpt lat="45.7569" lon="14.05633">
        <ele>590.39</ele>
        <time>2012-07-31T09:07:33Z</time>
      </trkpt>
      <trkpt lat="45.75688" lon="14.05611">
        <ele>591.35</ele>
        <time>2012-07-31T09:07:34Z</time>
      </trkpt>
      <trkpt lat="45.75682" lon="14.0559">
        <ele>592.31</ele>
        <time>2012-07-31T09:07:35Z</time>
      </trkpt>
      <trkpt lat="45.75675" lon="14.05569">
        <ele>591.83</ele>
        <time>2012-07-31T09:07:36Z</time>
      </trkpt>
      <trkpt lat="45.75665" lon="14.05549">
        <ele>591.35</ele>
        <time>2012-07-31T09:07:37Z</time>
      </trkpt>
      <trkpt lat="45.75654" lon="14.05531">
        <ele>591.83</ele>
        <time>2012-07-31T09:07:38Z</time>
      </trkpt>
      <trkpt lat="45.7564" lon="14.05515">
        <ele>590.87</ele>
        <time>2012-07-31T09:07:39Z</time>
      </trkpt>
      <trkpt lat="45.75626" lon="14.05502">
        <ele>592.31</ele>
        <time>2012-07-31T09:07:40Z</time>
      </trkpt>
      <trkpt lat="45.75611" lon="14.05489">
        <ele>592.31</ele>
        <time>2012-07-31T09:07:41Z</time>
      </trkpt>
      <trkpt lat="45.7557" lon="14.05447">
        <ele>595.19</ele>
        <time>2012-07-31T09:07:44Z</time>
      </trkpt>
      <trkpt lat="45.75559" lon="14.05429">
        <ele>595.67</ele>
        <time>2012-07-31T09:07:45Z</time>
      </trkpt>
      <trkpt lat="45.7555" lon="14.05409">
        <ele>597.6</ele>
        <time>2012-07-31T09:07:46Z</time>
      </trkpt>
      <trkpt lat="45.75543" lon="14.05388">
        <ele>598.56</ele>
        <time>2012-07-31T09:07:47Z</time>
      </trkpt>
      <trkpt lat="45.75538" lon="14.05366">
        <ele>598.08</ele>
        <time>2012-07-31T09:07:48Z</time>
      </trkpt>
      <trkpt lat="45.75536" lon="14.05343">
        <ele>600.48</ele>
        <time>2012-07-31T09:07:49Z</time>
      </trkpt>
      <trkpt lat="45.75536" lon="14.05321">
        <ele>601.44</ele>
        <time>2012-07-31T09:07:50Z</time>
      </trkpt>
      <trkpt lat="45.75538" lon="14.05298">
        <ele>601.92</ele>
        <time>2012-07-31T09:07:51Z</time>
      </trkpt>
      <trkpt lat="45.75542" lon="14.05275">
        <ele>603.36</ele>
        <time>2012-07-31T09:07:52Z</time>
      </trkpt>
      <trkpt lat="45.75548" lon="14.05253">
        <ele>603.85</ele>
        <time>2012-07-31T09:07:53Z</time>
      </trkpt>
      <trkpt lat="45.75557" lon="14.05233">
        <ele>605.29</ele>
        <time>2012-07-31T09:07:54Z</time>
      </trkpt>
      <trkpt lat="45.75567" lon="14.05214">
        <ele>605.29</ele>
        <time>2012-07-31T09:07:55Z</time>
      </trkpt>
      <trkpt lat="45.75578" lon="14.05196">
        <ele>607.21</ele>
        <time>2012-07-31T09:07:56Z</time>
      </trkpt>
      <trkpt lat="45.7559" lon="14.05179">
        <ele>607.69</ele>
        <time>2012-07-31T09:07:57Z</time>
      </trkpt>
      <trkpt lat="45.75615" lon="14.05143">
        <ele>609.13</ele>
        <time>2012-07-31T09:07:59Z</time>
      </trkpt>
      <trkpt lat="45.75624" lon="14.05125">
        <ele>607.69</ele>
        <time>2012-07-31T09:08:00Z</time>
      </trkpt>
      <trkpt lat="45.75633" lon="14.05106">
        <ele>608.17</ele>
        <time>2012-07-31T09:08:01Z</time>
      </trkpt>
      <trkpt lat="45.7564" lon="14.05086">
        <ele>609.61</ele>
        <time>2012-07-31T09:08:02Z</time>
      </trkpt>
      <trkpt lat="45.75645" lon="14.05065">
        <ele>610.09</ele>
        <time>2012-07-31T09:08:03Z</time>
      </trkpt>
      <trkpt lat="45.75649" lon="14.05042">
        <ele>609.61</ele>
        <time>2012-07-31T09:08:04Z</time>
      </trkpt>
      <trkpt lat="45.75651" lon="14.05019">
        <ele>609.61</ele>
        <time>2012-07-31T09:08:05Z</time>
      </trkpt>
      <trkpt lat="45.75652" lon="14.04996">
        <ele>609.61</ele>
        <time>2012-07-31T09:08:06Z</time>
      </trkpt>
      <trkpt lat="45.75652" lon="14.04972">
        <ele>609.13</ele>
        <time>2012-07-31T09:08:07Z</time>
      </trkpt>
      <trkpt lat="45.75652" lon="14.04851">
        <ele>605.77</ele>
        <time>2012-07-31T09:08:12Z</time>
      </trkpt>
      <trkpt lat="45.75655" lon="14.04827">
        <ele>605.29</ele>
        <time>2012-07-31T09:08:13Z</time>
      </trkpt>
      <trkpt lat="45.75662" lon="14.04804">
        <ele>604.33</ele>
        <time>2012-07-31T09:08:14Z</time>
      </trkpt>
      <trkpt lat="45.7567" lon="14.04781">
        <ele>605.29</ele>
        <time>2012-07-31T09:08:15Z</time>
      </trkpt>
      <trkpt lat="45.7568" lon="14.04759">
        <ele>605.29</ele>
        <time>2012-07-31T09:08:16Z</time>
      </trkpt>
      <trkpt lat="45.7569" lon="14.04737">
        <ele>604.81</ele>
        <time>2012-07-31T09:08:17Z</time>
      </trkpt>
      <trkpt lat="45.7571" lon="14.0469">
        <ele>600.96</ele>
        <time>2012-07-31T09:08:19Z</time>
      </trkpt>
      <trkpt lat="45.75716" lon="14.04666">
        <ele>598.08</ele>
        <time>2012-07-31T09:08:20Z</time>
      </trkpt>
      <trkpt lat="45.75719" lon="14.04644">
        <ele>595.19</ele>
        <time>2012-07-31T09:08:21Z</time>
      </trkpt>
      <trkpt lat="45.75725" lon="14.04604">
        <ele>592.79</ele>
        <time>2012-07-31T09:08:23Z</time>
      </trkpt>
      <trkpt lat="45.75731" lon="14.04586">
        <ele>591.83</ele>
        <time>2012-07-31T09:08:24Z</time>
      </trkpt>
      <trkpt lat="45.75741" lon="14.0457">
        <ele>590.87</ele>
        <time>2012-07-31T09:08:25Z</time>
      </trkpt>
      <trkpt lat="45.75754" lon="14.04557">
        <ele>590.87</ele>
        <time>2012-07-31T09:08:26Z</time>
      </trkpt>
      <trkpt lat="45.7577" lon="14.04548">
        <ele>590.87</ele>
        <time>2012-07-31T09:08:27Z</time>
      </trkpt>
      <trkpt lat="45.75785" lon="14.04539">
        <ele>589.43</ele>
        <time>2012-07-31T09:08:28Z</time>
      </trkpt>
      <trkpt lat="45.75799" lon="14.0453">
        <ele>587.98</ele>
        <time>2012-07-31T09:08:29Z</time>
      </trkpt>
      <trkpt lat="45.75812" lon="14.04516">
        <ele>588.95</ele>
        <time>2012-07-31T09:08:30Z</time>
      </trkpt>
      <trkpt lat="45.75822" lon="14.04498">
        <ele>587.98</ele>
        <time>2012-07-31T09:08:31Z</time>
      </trkpt>
      <trkpt lat="45.7583" lon="14.04478">
        <ele>586.54</ele>
        <time>2012-07-31T09:08:32Z</time>
      </trkpt>
      <trkpt lat="45.75838" lon="14.04456">
        <ele>586.06</ele>
        <time>2012-07-31T09:08:33Z</time>
      </trkpt>
      <trkpt lat="45.75848" lon="14.04436">
        <ele>585.58</ele>
        <time>2012-07-31T09:08:34Z</time>
      </trkpt>
      <trkpt lat="45.75861" lon="14.04418">
        <ele>587.02</ele>
        <time>2012-07-31T09:08:35Z</time>
      </trkpt>
      <trkpt lat="45.75875" lon="14.04403">
        <ele>587.5</ele>
        <time>2012-07-31T09:08:36Z</time>
      </trkpt>
      <trkpt lat="45.75915" lon="14.04358">
        <ele>583.66</ele>
        <time>2012-07-31T09:08:39Z</time>
      </trkpt>
      <trkpt lat="45.75928" lon="14.04344">
        <ele>584.14</ele>
        <time>2012-07-31T09:08:40Z</time>
      </trkpt>
      <trkpt lat="45.7594" lon="14.04332">
        <ele>582.7</ele>
        <time>2012-07-31T09:08:41Z</time>
      </trkpt>
      <trkpt lat="45.75981" lon="14.043">
        <ele>580.29</ele>
        <time>2012-07-31T09:08:44Z</time>
      </trkpt>
      <trkpt lat="45.75996" lon="14.04293">
        <ele>580.77</ele>
        <time>2012-07-31T09:08:45Z</time>
      </trkpt>
      <trkpt lat="45.7606" lon="14.0427">
        <ele>576.45</ele>
        <time>2012-07-31T09:08:49Z</time>
      </trkpt>
      <trkpt lat="45.76076" lon="14.04265">
        <ele>576.45</ele>
        <time>2012-07-31T09:08:50Z</time>
      </trkpt>
      <trkpt lat="45.76092" lon="14.04258">
        <ele>575.97</ele>
        <time>2012-07-31T09:08:51Z</time>
      </trkpt>
      <trkpt lat="45.76106" lon="14.04248">
        <ele>575.01</ele>
        <time>2012-07-31T09:08:52Z</time>
      </trkpt>
      <trkpt lat="45.76121" lon="14.04234">
        <ele>573.56</ele>
        <time>2012-07-31T09:08:53Z</time>
      </trkpt>
      <trkpt lat="45.76134" lon="14.04218">
        <ele>571.64</ele>
        <time>2012-07-31T09:08:54Z</time>
      </trkpt>
      <trkpt lat="45.76146" lon="14.042">
        <ele>574.53</ele>
        <time>2012-07-31T09:08:55Z</time>
      </trkpt>
      <trkpt lat="45.76156" lon="14.0418">
        <ele>570.68</ele>
        <time>2012-07-31T09:08:56Z</time>
      </trkpt>
      <trkpt lat="45.76166" lon="14.04159">
        <ele>567.32</ele>
        <time>2012-07-31T09:08:57Z</time>
      </trkpt>
      <trkpt lat="45.76186" lon="14.04114">
        <ele>565.87</ele>
        <time>2012-07-31T09:08:59Z</time>
      </trkpt>
      <trkpt lat="45.76219" lon="14.04051">
        <ele>561.55</ele>
        <time>2012-07-31T09:09:02Z</time>
      </trkpt>
      <trkpt lat="45.76257" lon="14.03992">
        <ele>557.22</ele>
        <time>2012-07-31T09:09:05Z</time>
      </trkpt>
      <trkpt lat="45.76313" lon="14.03923">
        <ele>553.86</ele>
        <time>2012-07-31T09:09:09Z</time>
      </trkpt>
      <trkpt lat="45.76341" lon="14.03892">
        <ele>552.9</ele>
        <time>2012-07-31T09:09:11Z</time>
      </trkpt>
      <trkpt lat="45.76364" lon="14.03857">
        <ele>550.49</ele>
        <time>2012-07-31T09:09:13Z</time>
      </trkpt>
      <trkpt lat="45.76373" lon="14.03836">
        <ele>550.49</ele>
        <time>2012-07-31T09:09:14Z</time>
      </trkpt>
      <trkpt lat="45.7638" lon="14.03813">
        <ele>549.05</ele>
        <time>2012-07-31T09:09:15Z</time>
      </trkpt>
      <trkpt lat="45.76385" lon="14.03789">
        <ele>547.61</ele>
        <time>2012-07-31T09:09:16Z</time>
      </trkpt>
      <trkpt lat="45.7639" lon="14.03764">
        <ele>546.65</ele>
        <time>2012-07-31T09:09:17Z</time>
      </trkpt>
      <trkpt lat="45.76406" lon="14.03686">
        <ele>543.28</ele>
        <time>2012-07-31T09:09:20Z</time>
      </trkpt>
      <trkpt lat="45.76417" lon="14.03634">
        <ele>541.36</ele>
        <time>2012-07-31T09:09:22Z</time>
      </trkpt>
      <trkpt lat="45.76432" lon="14.0356">
        <ele>537.99</ele>
        <time>2012-07-31T09:09:25Z</time>
      </trkpt>
      <trkpt lat="45.76448" lon="14.03489">
        <ele>533.67</ele>
        <time>2012-07-31T09:09:28Z</time>
      </trkpt>
      <trkpt lat="45.76464" lon="14.03444">
        <ele>532.71</ele>
        <time>2012-07-31T09:09:30Z</time>
      </trkpt>
      <trkpt lat="45.76483" lon="14.03399">
        <ele>530.3</ele>
        <time>2012-07-31T09:09:32Z</time>
      </trkpt>
      <trkpt lat="45.76507" lon="14.03326">
        <ele>526.46</ele>
        <time>2012-07-31T09:09:35Z</time>
      </trkpt>
      <trkpt lat="45.76534" lon="14.03233">
        <ele>522.61</ele>
        <time>2012-07-31T09:09:39Z</time>
      </trkpt>
      <trkpt lat="45.76554" lon="14.03172">
        <ele>519.25</ele>
        <time>2012-07-31T09:09:42Z</time>
      </trkpt>
      <trkpt lat="45.76561" lon="14.03157">
        <ele>516.85</ele>
        <time>2012-07-31T09:09:43Z</time>
      </trkpt>
      <trkpt lat="45.7657" lon="14.03144">
        <ele>516.37</ele>
        <time>2012-07-31T09:09:44Z</time>
      </trkpt>
      <trkpt lat="45.76581" lon="14.03136">
        <ele>515.88</ele>
        <time>2012-07-31T09:09:45Z</time>
      </trkpt>
      <trkpt lat="45.76592" lon="14.03134">
        <ele>514.92</ele>
        <time>2012-07-31T09:09:46Z</time>
      </trkpt>
      <trkpt lat="45.76605" lon="14.03136">
        <ele>515.88</ele>
        <time>2012-07-31T09:09:47Z</time>
      </trkpt>
      <trkpt lat="45.76617" lon="14.0314">
        <ele>514.92</ele>
        <time>2012-07-31T09:09:48Z</time>
      </trkpt>
      <trkpt lat="45.76675" lon="14.03145">
        <ele>511.08</ele>
        <time>2012-07-31T09:09:52Z</time>
      </trkpt>
      <trkpt lat="45.7669" lon="14.03142">
        <ele>510.12</ele>
        <time>2012-07-31T09:09:53Z</time>
      </trkpt>
      <trkpt lat="45.76704" lon="14.03136">
        <ele>509.64</ele>
        <time>2012-07-31T09:09:54Z</time>
      </trkpt>
      <trkpt lat="45.76719" lon="14.03127">
        <ele>508.67</ele>
        <time>2012-07-31T09:09:55Z</time>
      </trkpt>
      <trkpt lat="45.76818" lon="14.03063">
        <ele>504.83</ele>
        <time>2012-07-31T09:10:02Z</time>
      </trkpt>
      <trkpt lat="45.76863" lon="14.03036">
        <ele>501.46</ele>
        <time>2012-07-31T09:10:05Z</time>
      </trkpt>
      <trkpt lat="45.76905" lon="14.03003">
        <ele>499.06</ele>
        <time>2012-07-31T09:10:08Z</time>
      </trkpt>
      <trkpt lat="45.76916" lon="14.02989">
        <ele>498.58</ele>
        <time>2012-07-31T09:10:09Z</time>
      </trkpt>
      <trkpt lat="45.76927" lon="14.02972">
        <ele>498.58</ele>
        <time>2012-07-31T09:10:10Z</time>
      </trkpt>
      <trkpt lat="45.76945" lon="14.02935">
        <ele>495.22</ele>
        <time>2012-07-31T09:10:12Z</time>
      </trkpt>
      <trkpt lat="45.76954" lon="14.0292">
        <ele>494.74</ele>
        <time>2012-07-31T09:10:13Z</time>
      </trkpt>
      <trkpt lat="45.76964" lon="14.02907">
        <ele>493.29</ele>
        <time>2012-07-31T09:10:14Z</time>
      </trkpt>
      <trkpt lat="45.76975" lon="14.02897">
        <ele>491.85</ele>
        <time>2012-07-31T09:10:15Z</time>
      </trkpt>
      <trkpt lat="45.76988" lon="14.02891">
        <ele>492.81</ele>
        <time>2012-07-31T09:10:16Z</time>
      </trkpt>
      <trkpt lat="45.77001" lon="14.02889">
        <ele>492.33</ele>
        <time>2012-07-31T09:10:17Z</time>
      </trkpt>
      <trkpt lat="45.77015" lon="14.02889">
        <ele>492.81</ele>
        <time>2012-07-31T09:10:18Z</time>
      </trkpt>
      <trkpt lat="45.77028" lon="14.02887">
        <ele>492.33</ele>
        <time>2012-07-31T09:10:19Z</time>
      </trkpt>
      <trkpt lat="45.77041" lon="14.02881">
        <ele>491.85</ele>
        <time>2012-07-31T09:10:20Z</time>
      </trkpt>
      <trkpt lat="45.77054" lon="14.02871">
        <ele>489.93</ele>
        <time>2012-07-31T09:10:21Z</time>
      </trkpt>
      <trkpt lat="45.77066" lon="14.02857">
        <ele>488.97</ele>
        <time>2012-07-31T09:10:22Z</time>
      </trkpt>
      <trkpt lat="45.77077" lon="14.0284">
        <ele>487.53</ele>
        <time>2012-07-31T09:10:23Z</time>
      </trkpt>
      <trkpt lat="45.77086" lon="14.0282">
        <ele>486.08</ele>
        <time>2012-07-31T09:10:24Z</time>
      </trkpt>
      <trkpt lat="45.77094" lon="14.02799">
        <ele>484.16</ele>
        <time>2012-07-31T09:10:25Z</time>
      </trkpt>
      <trkpt lat="45.77101" lon="14.02777">
        <ele>485.12</ele>
        <time>2012-07-31T09:10:26Z</time>
      </trkpt>
      <trkpt lat="45.77106" lon="14.02755">
        <ele>483.2</ele>
        <time>2012-07-31T09:10:27Z</time>
      </trkpt>
      <trkpt lat="45.77111" lon="14.02733">
        <ele>482.24</ele>
        <time>2012-07-31T09:10:28Z</time>
      </trkpt>
      <trkpt lat="45.77115" lon="14.02711">
        <ele>480.8</ele>
        <time>2012-07-31T09:10:29Z</time>
      </trkpt>
      <trkpt lat="45.77126" lon="14.02669">
        <ele>478.87</ele>
        <time>2012-07-31T09:10:31Z</time>
      </trkpt>
      <trkpt lat="45.77135" lon="14.02649">
        <ele>478.87</ele>
        <time>2012-07-31T09:10:32Z</time>
      </trkpt>
      <trkpt lat="45.77145" lon="14.0263">
        <ele>477.43</ele>
        <time>2012-07-31T09:10:33Z</time>
      </trkpt>
      <trkpt lat="45.77191" lon="14.02554">
        <ele>474.55</ele>
        <time>2012-07-31T09:10:37Z</time>
      </trkpt>
      <trkpt lat="45.77212" lon="14.02518">
        <ele>472.63</ele>
        <time>2012-07-31T09:10:39Z</time>
      </trkpt>
      <trkpt lat="45.7722" lon="14.02498">
        <ele>472.63</ele>
        <time>2012-07-31T09:10:40Z</time>
      </trkpt>
      <trkpt lat="45.77227" lon="14.02476">
        <ele>470.7</ele>
        <time>2012-07-31T09:10:41Z</time>
      </trkpt>
      <trkpt lat="45.77233" lon="14.02453">
        <ele>470.7</ele>
        <time>2012-07-31T09:10:42Z</time>
      </trkpt>
      <trkpt lat="45.77251" lon="14.02383">
        <ele>467.34</ele>
        <time>2012-07-31T09:10:45Z</time>
      </trkpt>
      <trkpt lat="45.77257" lon="14.0236">
        <ele>465.42</ele>
        <time>2012-07-31T09:10:46Z</time>
      </trkpt>
      <trkpt lat="45.77262" lon="14.02336">
        <ele>463.97</ele>
        <time>2012-07-31T09:10:47Z</time>
      </trkpt>
      <trkpt lat="45.77264" lon="14.02315">
        <ele>463.01</ele>
        <time>2012-07-31T09:10:48Z</time>
      </trkpt>
      <trkpt lat="45.77268" lon="14.02281">
        <ele>459.17</ele>
        <time>2012-07-31T09:10:50Z</time>
      </trkpt>
      <trkpt lat="45.77273" lon="14.0227">
        <ele>457.72</ele>
        <time>2012-07-31T09:10:51Z</time>
      </trkpt>
      <trkpt lat="45.77282" lon="14.02262">
        <ele>457.72</ele>
        <time>2012-07-31T09:10:52Z</time>
      </trkpt>
      <trkpt lat="45.77295" lon="14.02257">
        <ele>458.21</ele>
        <time>2012-07-31T09:10:53Z</time>
      </trkpt>
      <trkpt lat="45.7731" lon="14.02254">
        <ele>457.72</ele>
        <time>2012-07-31T09:10:54Z</time>
      </trkpt>
      <trkpt lat="45.77326" lon="14.02248">
        <ele>457.24</ele>
        <time>2012-07-31T09:10:55Z</time>
      </trkpt>
      <trkpt lat="45.77343" lon="14.02238">
        <ele>458.69</ele>
        <time>2012-07-31T09:10:56Z</time>
      </trkpt>
      <trkpt lat="45.77374" lon="14.02217">
        <ele>457.24</ele>
        <time>2012-07-31T09:10:58Z</time>
      </trkpt>
      <trkpt lat="45.77389" lon="14.02211">
        <ele>452.44</ele>
        <time>2012-07-31T09:10:59Z</time>
      </trkpt>
      <trkpt lat="45.77405" lon="14.02209">
        <ele>450.03</ele>
        <time>2012-07-31T09:11:00Z</time>
      </trkpt>
      <trkpt lat="45.77431" lon="14.02204">
        <ele>447.63</ele>
        <time>2012-07-31T09:11:02Z</time>
      </trkpt>
      <trkpt lat="45.77441" lon="14.02197">
        <ele>446.19</ele>
        <time>2012-07-31T09:11:03Z</time>
      </trkpt>
      <trkpt lat="45.77448" lon="14.02185">
        <ele>445.71</ele>
        <time>2012-07-31T09:11:04Z</time>
      </trkpt>
      <trkpt lat="45.77452" lon="14.02169">
        <ele>445.23</ele>
        <time>2012-07-31T09:11:05Z</time>
      </trkpt>
      <trkpt lat="45.77453" lon="14.0215">
        <ele>444.75</ele>
        <time>2012-07-31T09:11:06Z</time>
      </trkpt>
      <trkpt lat="45.77454" lon="14.02133">
        <ele>443.79</ele>
        <time>2012-07-31T09:11:07Z</time>
      </trkpt>
      <trkpt lat="45.77458" lon="14.02119">
        <ele>442.34</ele>
        <time>2012-07-31T09:11:08Z</time>
      </trkpt>
      <trkpt lat="45.77464" lon="14.02107">
        <ele>441.86</ele>
        <time>2012-07-31T09:11:09Z</time>
      </trkpt>
      <trkpt lat="45.77474" lon="14.021">
        <ele>442.34</ele>
        <time>2012-07-31T09:11:10Z</time>
      </trkpt>
      <trkpt lat="45.77487" lon="14.02099">
        <ele>441.86</ele>
        <time>2012-07-31T09:11:11Z</time>
      </trkpt>
      <trkpt lat="45.77501" lon="14.02099">
        <ele>441.86</ele>
        <time>2012-07-31T09:11:12Z</time>
      </trkpt>
      <trkpt lat="45.77516" lon="14.02099">
        <ele>442.82</ele>
        <time>2012-07-31T09:11:13Z</time>
      </trkpt>
      <trkpt lat="45.77533" lon="14.02095">
        <ele>442.82</ele>
        <time>2012-07-31T09:11:14Z</time>
      </trkpt>
      <trkpt lat="45.77549" lon="14.02089">
        <ele>441.86</ele>
        <time>2012-07-31T09:11:15Z</time>
      </trkpt>
      <trkpt lat="45.77594" lon="14.02064">
        <ele>438.98</ele>
        <time>2012-07-31T09:11:18Z</time>
      </trkpt>
      <trkpt lat="45.77607" lon="14.02052">
        <ele>437.06</ele>
        <time>2012-07-31T09:11:19Z</time>
      </trkpt>
      <trkpt lat="45.77617" lon="14.02036">
        <ele>435.61</ele>
        <time>2012-07-31T09:11:20Z</time>
      </trkpt>
      <trkpt lat="45.77625" lon="14.02017">
        <ele>433.21</ele>
        <time>2012-07-31T09:11:21Z</time>
      </trkpt>
      <trkpt lat="45.77632" lon="14.02">
        <ele>432.73</ele>
        <time>2012-07-31T09:11:22Z</time>
      </trkpt>
      <trkpt lat="45.77641" lon="14.01986">
        <ele>431.29</ele>
        <time>2012-07-31T09:11:23Z</time>
      </trkpt>
      <trkpt lat="45.77651" lon="14.01974">
        <ele>430.81</ele>
        <time>2012-07-31T09:11:24Z</time>
      </trkpt>
      <trkpt lat="45.77665" lon="14.01965">
        <ele>430.81</ele>
        <time>2012-07-31T09:11:25Z</time>
      </trkpt>
      <trkpt lat="45.7768" lon="14.0196">
        <ele>430.33</ele>
        <time>2012-07-31T09:11:26Z</time>
      </trkpt>
      <trkpt lat="45.77696" lon="14.01956">
        <ele>430.33</ele>
        <time>2012-07-31T09:11:27Z</time>
      </trkpt>
      <trkpt lat="45.77713" lon="14.0195">
        <ele>430.33</ele>
        <time>2012-07-31T09:11:28Z</time>
      </trkpt>
      <trkpt lat="45.77729" lon="14.01942">
        <ele>429.85</ele>
        <time>2012-07-31T09:11:29Z</time>
      </trkpt>
      <trkpt lat="45.77745" lon="14.01932">
        <ele>428.89</ele>
        <time>2012-07-31T09:11:30Z</time>
      </trkpt>
      <trkpt lat="45.77759" lon="14.0192">
        <ele>427.44</ele>
        <time>2012-07-31T09:11:31Z</time>
      </trkpt>
      <trkpt lat="45.77773" lon="14.01906">
        <ele>426.48</ele>
        <time>2012-07-31T09:11:32Z</time>
      </trkpt>
      <trkpt lat="45.77786" lon="14.01891">
        <ele>426.48</ele>
        <time>2012-07-31T09:11:33Z</time>
      </trkpt>
      <trkpt lat="45.77798" lon="14.01874">
        <ele>425.04</ele>
        <time>2012-07-31T09:11:34Z</time>
      </trkpt>
      <trkpt lat="45.77809" lon="14.01855">
        <ele>423.6</ele>
        <time>2012-07-31T09:11:35Z</time>
      </trkpt>
      <trkpt lat="45.77818" lon="14.01836">
        <ele>422.16</ele>
        <time>2012-07-31T09:11:36Z</time>
      </trkpt>
      <trkpt lat="45.77825" lon="14.01815">
        <ele>421.19</ele>
        <time>2012-07-31T09:11:37Z</time>
      </trkpt>
      <trkpt lat="45.77829" lon="14.01792">
        <ele>421.19</ele>
        <time>2012-07-31T09:11:38Z</time>
      </trkpt>
      <trkpt lat="45.7783" lon="14.01769">
        <ele>419.27</ele>
        <time>2012-07-31T09:11:39Z</time>
      </trkpt>
      <trkpt lat="45.77834" lon="14.01746">
        <ele>415.91</ele>
        <time>2012-07-31T09:11:40Z</time>
      </trkpt>
      <trkpt lat="45.77841" lon="14.01723">
        <ele>416.39</ele>
        <time>2012-07-31T09:11:41Z</time>
      </trkpt>
      <trkpt lat="45.7785" lon="14.017">
        <ele>417.35</ele>
        <time>2012-07-31T09:11:42Z</time>
      </trkpt>
      <trkpt lat="45.77862" lon="14.01679">
        <ele>413.5</ele>
        <time>2012-07-31T09:11:43Z</time>
      </trkpt>
      <trkpt lat="45.77873" lon="14.01658">
        <ele>409.66</ele>
        <time>2012-07-31T09:11:44Z</time>
      </trkpt>
      <trkpt lat="45.77882" lon="14.01637">
        <ele>409.18</ele>
        <time>2012-07-31T09:11:45Z</time>
      </trkpt>
      <trkpt lat="45.77889" lon="14.01614">
        <ele>409.18</ele>
        <time>2012-07-31T09:11:46Z</time>
      </trkpt>
      <trkpt lat="45.77894" lon="14.01589">
        <ele>408.22</ele>
        <time>2012-07-31T09:11:47Z</time>
      </trkpt>
      <trkpt lat="45.77896" lon="14.01563">
        <ele>406.77</ele>
        <time>2012-07-31T09:11:48Z</time>
      </trkpt>
      <trkpt lat="45.77898" lon="14.01537">
        <ele>404.37</ele>
        <time>2012-07-31T09:11:49Z</time>
      </trkpt>
      <trkpt lat="45.77902" lon="14.01512">
        <ele>403.89</ele>
        <time>2012-07-31T09:11:50Z</time>
      </trkpt>
      <trkpt lat="45.7791" lon="14.01488">
        <ele>403.89</ele>
        <time>2012-07-31T09:11:51Z</time>
      </trkpt>
      <trkpt lat="45.7792" lon="14.01465">
        <ele>402.93</ele>
        <time>2012-07-31T09:11:52Z</time>
      </trkpt>
      <trkpt lat="45.77931" lon="14.01442">
        <ele>401.97</ele>
        <time>2012-07-31T09:11:53Z</time>
      </trkpt>
      <trkpt lat="45.77952" lon="14.01396">
        <ele>398.6</ele>
        <time>2012-07-31T09:11:55Z</time>
      </trkpt>
      <trkpt lat="45.77975" lon="14.01355">
        <ele>395.72</ele>
        <time>2012-07-31T09:11:57Z</time>
      </trkpt>
      <trkpt lat="45.77998" lon="14.01321">
        <ele>393.8</ele>
        <time>2012-07-31T09:11:59Z</time>
      </trkpt>
      <trkpt lat="45.78007" lon="14.01305">
        <ele>393.32</ele>
        <time>2012-07-31T09:12:00Z</time>
      </trkpt>
      <trkpt lat="45.78014" lon="14.01288">
        <ele>393.32</ele>
        <time>2012-07-31T09:12:01Z</time>
      </trkpt>
      <trkpt lat="45.78018" lon="14.0127">
        <ele>392.36</ele>
        <time>2012-07-31T09:12:02Z</time>
      </trkpt>
      <trkpt lat="45.78018" lon="14.0125">
        <ele>390.91</ele>
        <time>2012-07-31T09:12:03Z</time>
      </trkpt>
      <trkpt lat="45.78015" lon="14.0123">
        <ele>388.99</ele>
        <time>2012-07-31T09:12:04Z</time>
      </trkpt>
      <trkpt lat="45.78012" lon="14.01211">
        <ele>387.07</ele>
        <time>2012-07-31T09:12:05Z</time>
      </trkpt>
      <trkpt lat="45.78012" lon="14.01191">
        <ele>384.66</ele>
        <time>2012-07-31T09:12:06Z</time>
      </trkpt>
      <trkpt lat="45.78016" lon="14.01173">
        <ele>383.7</ele>
        <time>2012-07-31T09:12:07Z</time>
      </trkpt>
      <trkpt lat="45.78025" lon="14.01158">
        <ele>383.22</ele>
        <time>2012-07-31T09:12:08Z</time>
      </trkpt>
      <trkpt lat="45.78036" lon="14.01146">
        <ele>383.7</ele>
        <time>2012-07-31T09:12:09Z</time>
      </trkpt>
      <trkpt lat="45.78051" lon="14.01138">
        <ele>384.66</ele>
        <time>2012-07-31T09:12:10Z</time>
      </trkpt>
      <trkpt lat="45.78067" lon="14.01131">
        <ele>384.18</ele>
        <time>2012-07-31T09:12:11Z</time>
      </trkpt>
      <trkpt lat="45.7815" lon="14.01092">
        <ele>379.38</ele>
        <time>2012-07-31T09:12:16Z</time>
      </trkpt>
      <trkpt lat="45.78162" lon="14.01079">
        <ele>376.97</ele>
        <time>2012-07-31T09:12:17Z</time>
      </trkpt>
      <trkpt lat="45.78174" lon="14.01063">
        <ele>377.45</ele>
        <time>2012-07-31T09:12:18Z</time>
      </trkpt>
      <trkpt lat="45.78185" lon="14.01044">
        <ele>373.61</ele>
        <time>2012-07-31T09:12:19Z</time>
      </trkpt>
      <trkpt lat="45.78203" lon="14.01009">
        <ele>371.69</ele>
        <time>2012-07-31T09:12:21Z</time>
      </trkpt>
      <trkpt lat="45.78208" lon="14.00988">
        <ele>371.21</ele>
        <time>2012-07-31T09:12:22Z</time>
      </trkpt>
      <trkpt lat="45.78211" lon="14.00965">
        <ele>369.76</ele>
        <time>2012-07-31T09:12:23Z</time>
      </trkpt>
      <trkpt lat="45.78211" lon="14.0094">
        <ele>367.84</ele>
        <time>2012-07-31T09:12:24Z</time>
      </trkpt>
      <trkpt lat="45.78211" lon="14.00917">
        <ele>366.4</ele>
        <time>2012-07-31T09:12:25Z</time>
      </trkpt>
      <trkpt lat="45.78212" lon="14.00878">
        <ele>364</ele>
        <time>2012-07-31T09:12:27Z</time>
      </trkpt>
      <trkpt lat="45.78215" lon="14.00861">
        <ele>363.04</ele>
        <time>2012-07-31T09:12:28Z</time>
      </trkpt>
      <trkpt lat="45.78221" lon="14.00846">
        <ele>363.04</ele>
        <time>2012-07-31T09:12:29Z</time>
      </trkpt>
      <trkpt lat="45.7823" lon="14.00833">
        <ele>362.07</ele>
        <time>2012-07-31T09:12:30Z</time>
      </trkpt>
      <trkpt lat="45.78242" lon="14.00825">
        <ele>362.07</ele>
        <time>2012-07-31T09:12:31Z</time>
      </trkpt>
      <trkpt lat="45.78255" lon="14.00819">
        <ele>361.59</ele>
        <time>2012-07-31T09:12:32Z</time>
      </trkpt>
      <trkpt lat="45.7827" lon="14.00814">
        <ele>361.11</ele>
        <time>2012-07-31T09:12:33Z</time>
      </trkpt>
      <trkpt lat="45.78286" lon="14.00811">
        <ele>361.11</ele>
        <time>2012-07-31T09:12:34Z</time>
      </trkpt>
      <trkpt lat="45.78301" lon="14.00808">
        <ele>360.15</ele>
        <time>2012-07-31T09:12:35Z</time>
      </trkpt>
      <trkpt lat="45.78327" lon="14.00802">
        <ele>358.71</ele>
        <time>2012-07-31T09:12:37Z</time>
      </trkpt>
      <trkpt lat="45.78338" lon="14.00795">
        <ele>357.27</ele>
        <time>2012-07-31T09:12:38Z</time>
      </trkpt>
      <trkpt lat="45.78347" lon="14.00784">
        <ele>357.27</ele>
        <time>2012-07-31T09:12:39Z</time>
      </trkpt>
      <trkpt lat="45.78353" lon="14.0077">
        <ele>356.31</ele>
        <time>2012-07-31T09:12:40Z</time>
      </trkpt>
      <trkpt lat="45.78356" lon="14.00752">
        <ele>355.34</ele>
        <time>2012-07-31T09:12:41Z</time>
      </trkpt>
      <trkpt lat="45.78356" lon="14.00732">
        <ele>354.86</ele>
        <time>2012-07-31T09:12:42Z</time>
      </trkpt>
      <trkpt lat="45.78354" lon="14.00711">
        <ele>354.86</ele>
        <time>2012-07-31T09:12:43Z</time>
      </trkpt>
      <trkpt lat="45.78354" lon="14.00689">
        <ele>353.9</ele>
        <time>2012-07-31T09:12:44Z</time>
      </trkpt>
      <trkpt lat="45.78357" lon="14.00665">
        <ele>352.46</ele>
        <time>2012-07-31T09:12:45Z</time>
      </trkpt>
      <trkpt lat="45.78361" lon="14.0062">
        <ele>350.54</ele>
        <time>2012-07-31T09:12:47Z</time>
      </trkpt>
      <trkpt lat="45.78359" lon="14.00597">
        <ele>350.06</ele>
        <time>2012-07-31T09:12:48Z</time>
      </trkpt>
      <trkpt lat="45.78354" lon="14.00576">
        <ele>349.1</ele>
        <time>2012-07-31T09:12:49Z</time>
      </trkpt>
      <trkpt lat="45.78345" lon="14.0054">
        <ele>345.25</ele>
        <time>2012-07-31T09:12:51Z</time>
      </trkpt>
      <trkpt lat="45.78345" lon="14.00522">
        <ele>345.25</ele>
        <time>2012-07-31T09:12:52Z</time>
      </trkpt>
      <trkpt lat="45.78349" lon="14.00502">
        <ele>343.33</ele>
        <time>2012-07-31T09:12:53Z</time>
      </trkpt>
      <trkpt lat="45.78356" lon="14.00483">
        <ele>343.33</ele>
        <time>2012-07-31T09:12:54Z</time>
      </trkpt>
      <trkpt lat="45.78365" lon="14.00463">
        <ele>343.33</ele>
        <time>2012-07-31T09:12:55Z</time>
      </trkpt>
      <trkpt lat="45.78402" lon="14.00378">
        <ele>339.48</ele>
        <time>2012-07-31T09:12:59Z</time>
      </trkpt>
      <trkpt lat="45.78418" lon="14.00345">
        <ele>337.56</ele>
        <time>2012-07-31T09:13:01Z</time>
      </trkpt>
      <trkpt lat="45.78428" lon="14.00333">
        <ele>335.16</ele>
        <time>2012-07-31T09:13:02Z</time>
      </trkpt>
      <trkpt lat="45.78442" lon="14.00327">
        <ele>335.16</ele>
        <time>2012-07-31T09:13:03Z</time>
      </trkpt>
      <trkpt lat="45.78457" lon="14.00324">
        <ele>336.12</ele>
        <time>2012-07-31T09:13:04Z</time>
      </trkpt>
      <trkpt lat="45.7847" lon="14.00322">
        <ele>334.2</ele>
        <time>2012-07-31T09:13:05Z</time>
      </trkpt>
      <trkpt lat="45.78481" lon="14.00317">
        <ele>333.23</ele>
        <time>2012-07-31T09:13:06Z</time>
      </trkpt>
      <trkpt lat="45.78489" lon="14.00305">
        <ele>333.23</ele>
        <time>2012-07-31T09:13:07Z</time>
      </trkpt>
      <trkpt lat="45.78494" lon="14.00288">
        <ele>333.23</ele>
        <time>2012-07-31T09:13:08Z</time>
      </trkpt>
      <trkpt lat="45.78494" lon="14.00268">
        <ele>332.27</ele>
        <time>2012-07-31T09:13:09Z</time>
      </trkpt>
      <trkpt lat="45.78491" lon="14.00247">
        <ele>330.35</ele>
        <time>2012-07-31T09:13:10Z</time>
      </trkpt>
      <trkpt lat="45.78488" lon="14.00229">
        <ele>328.43</ele>
        <time>2012-07-31T09:13:11Z</time>
      </trkpt>
      <trkpt lat="45.78488" lon="14.00213">
        <ele>326.5</ele>
        <time>2012-07-31T09:13:12Z</time>
      </trkpt>
      <trkpt lat="45.78492" lon="14.00197">
        <ele>325.54</ele>
        <time>2012-07-31T09:13:13Z</time>
      </trkpt>
      <trkpt lat="45.785" lon="14.00184">
        <ele>325.06</ele>
        <time>2012-07-31T09:13:14Z</time>
      </trkpt>
      <trkpt lat="45.78511" lon="14.00176">
        <ele>324.58</ele>
        <time>2012-07-31T09:13:15Z</time>
      </trkpt>
      <trkpt lat="45.78525" lon="14.00171">
        <ele>325.54</ele>
        <time>2012-07-31T09:13:16Z</time>
      </trkpt>
      <trkpt lat="45.7854" lon="14.0017">
        <ele>325.54</ele>
        <time>2012-07-31T09:13:17Z</time>
      </trkpt>
      <trkpt lat="45.78557" lon="14.00171">
        <ele>325.54</ele>
        <time>2012-07-31T09:13:18Z</time>
      </trkpt>
      <trkpt lat="45.78575" lon="14.00169">
        <ele>326.5</ele>
        <time>2012-07-31T09:13:19Z</time>
      </trkpt>
      <trkpt lat="45.78593" lon="14.00165">
        <ele>325.54</ele>
        <time>2012-07-31T09:13:20Z</time>
      </trkpt>
      <trkpt lat="45.7861" lon="14.0016">
        <ele>323.62</ele>
        <time>2012-07-31T09:13:21Z</time>
      </trkpt>
      <trkpt lat="45.78628" lon="14.00154">
        <ele>323.62</ele>
        <time>2012-07-31T09:13:22Z</time>
      </trkpt>
      <trkpt lat="45.78645" lon="14.00149">
        <ele>320.26</ele>
        <time>2012-07-31T09:13:23Z</time>
      </trkpt>
      <trkpt lat="45.78661" lon="14.00147">
        <ele>320.26</ele>
        <time>2012-07-31T09:13:24Z</time>
      </trkpt>
      <trkpt lat="45.78677" lon="14.00149">
        <ele>317.85</ele>
        <time>2012-07-31T09:13:25Z</time>
      </trkpt>
      <trkpt lat="45.78705" lon="14.0016">
        <ele>315.93</ele>
        <time>2012-07-31T09:13:27Z</time>
      </trkpt>
      <trkpt lat="45.78717" lon="14.00162">
        <ele>314.97</ele>
        <time>2012-07-31T09:13:28Z</time>
      </trkpt>
      <trkpt lat="45.78729" lon="14.00159">
        <ele>312.09</ele>
        <time>2012-07-31T09:13:29Z</time>
      </trkpt>
      <trkpt lat="45.78738" lon="14.00151">
        <ele>310.64</ele>
        <time>2012-07-31T09:13:30Z</time>
      </trkpt>
      <trkpt lat="45.78745" lon="14.00137">
        <ele>309.68</ele>
        <time>2012-07-31T09:13:31Z</time>
      </trkpt>
      <trkpt lat="45.78748" lon="14.00117">
        <ele>309.68</ele>
        <time>2012-07-31T09:13:32Z</time>
      </trkpt>
      <trkpt lat="45.78749" lon="14.00095">
        <ele>309.2</ele>
        <time>2012-07-31T09:13:33Z</time>
      </trkpt>
      <trkpt lat="45.78749" lon="14.00071">
        <ele>308.72</ele>
        <time>2012-07-31T09:13:34Z</time>
      </trkpt>
      <trkpt lat="45.78754" lon="14.00002">
        <ele>304.39</ele>
        <time>2012-07-31T09:13:37Z</time>
      </trkpt>
      <trkpt lat="45.78757" lon="13.99983">
        <ele>303.91</ele>
        <time>2012-07-31T09:13:38Z</time>
      </trkpt>
      <trkpt lat="45.78762" lon="13.99965">
        <ele>302.95</ele>
        <time>2012-07-31T09:13:39Z</time>
      </trkpt>
      <trkpt lat="45.78771" lon="13.99947">
        <ele>300.55</ele>
        <time>2012-07-31T09:13:40Z</time>
      </trkpt>
      <trkpt lat="45.78815" lon="13.99876">
        <ele>301.03</ele>
        <time>2012-07-31T09:13:44Z</time>
      </trkpt>
      <trkpt lat="45.78829" lon="13.99861">
        <ele>299.59</ele>
        <time>2012-07-31T09:13:45Z</time>
      </trkpt>
      <trkpt lat="45.78843" lon="13.99845">
        <ele>298.63</ele>
        <time>2012-07-31T09:13:46Z</time>
      </trkpt>
      <trkpt lat="45.78855" lon="13.99825">
        <ele>297.67</ele>
        <time>2012-07-31T09:13:47Z</time>
      </trkpt>
      <trkpt lat="45.78866" lon="13.99804">
        <ele>297.67</ele>
        <time>2012-07-31T09:13:48Z</time>
      </trkpt>
      <trkpt lat="45.78876" lon="13.99784">
        <ele>294.78</ele>
        <time>2012-07-31T09:13:49Z</time>
      </trkpt>
      <trkpt lat="45.78888" lon="13.99766">
        <ele>294.78</ele>
        <time>2012-07-31T09:13:50Z</time>
      </trkpt>
      <trkpt lat="45.78902" lon="13.99752">
        <ele>294.78</ele>
        <time>2012-07-31T09:13:51Z</time>
      </trkpt>
      <trkpt lat="45.78917" lon="13.99742">
        <ele>295.26</ele>
        <time>2012-07-31T09:13:52Z</time>
      </trkpt>
      <trkpt lat="45.78933" lon="13.99734">
        <ele>294.3</ele>
        <time>2012-07-31T09:13:53Z</time>
      </trkpt>
      <trkpt lat="45.78948" lon="13.99724">
        <ele>292.86</ele>
        <time>2012-07-31T09:13:54Z</time>
      </trkpt>
      <trkpt lat="45.78963" lon="13.99711">
        <ele>292.38</ele>
        <time>2012-07-31T09:13:55Z</time>
      </trkpt>
      <trkpt lat="45.78976" lon="13.99694">
        <ele>290.94</ele>
        <time>2012-07-31T09:13:56Z</time>
      </trkpt>
      <trkpt lat="45.79001" lon="13.99659">
        <ele>288.53</ele>
        <time>2012-07-31T09:13:58Z</time>
      </trkpt>
      <trkpt lat="45.79015" lon="13.99646">
        <ele>288.53</ele>
        <time>2012-07-31T09:13:59Z</time>
      </trkpt>
      <trkpt lat="45.79029" lon="13.99637">
        <ele>287.09</ele>
        <time>2012-07-31T09:14:00Z</time>
      </trkpt>
      <trkpt lat="45.79054" lon="13.99622">
        <ele>284.69</ele>
        <time>2012-07-31T09:14:02Z</time>
      </trkpt>
      <trkpt lat="45.79063" lon="13.99611">
        <ele>283.25</ele>
        <time>2012-07-31T09:14:03Z</time>
      </trkpt>
      <trkpt lat="45.7907" lon="13.99594">
        <ele>282.77</ele>
        <time>2012-07-31T09:14:04Z</time>
      </trkpt>
      <trkpt lat="45.79075" lon="13.99573">
        <ele>282.77</ele>
        <time>2012-07-31T09:14:05Z</time>
      </trkpt>
      <trkpt lat="45.79076" lon="13.9955">
        <ele>283.25</ele>
        <time>2012-07-31T09:14:06Z</time>
      </trkpt>
      <trkpt lat="45.79077" lon="13.99525">
        <ele>284.21</ele>
        <time>2012-07-31T09:14:07Z</time>
      </trkpt>
      <trkpt lat="45.79074" lon="13.99449">
        <ele>285.17</ele>
        <time>2012-07-31T09:14:10Z</time>
      </trkpt>
      <trkpt lat="45.7907" lon="13.99423">
        <ele>280.36</ele>
        <time>2012-07-31T09:14:11Z</time>
      </trkpt>
      <trkpt lat="45.79066" lon="13.99396">
        <ele>276.04</ele>
        <time>2012-07-31T09:14:12Z</time>
      </trkpt>
      <trkpt lat="45.79048" lon="13.99291">
        <ele>269.31</ele>
        <time>2012-07-31T09:14:16Z</time>
      </trkpt>
      <trkpt lat="45.79044" lon="13.99248">
        <ele>267.38</ele>
        <time>2012-07-31T09:14:18Z</time>
      </trkpt>
      <trkpt lat="45.79044" lon="13.99228">
        <ele>265.94</ele>
        <time>2012-07-31T09:14:19Z</time>
      </trkpt>
      <trkpt lat="45.79047" lon="13.99209">
        <ele>263.54</ele>
        <time>2012-07-31T09:14:20Z</time>
      </trkpt>
      <trkpt lat="45.79054" lon="13.99192">
        <ele>263.54</ele>
        <time>2012-07-31T09:14:21Z</time>
      </trkpt>
      <trkpt lat="45.79064" lon="13.99178">
        <ele>263.54</ele>
        <time>2012-07-31T09:14:22Z</time>
      </trkpt>
      <trkpt lat="45.79078" lon="13.99167">
        <ele>262.58</ele>
        <time>2012-07-31T09:14:23Z</time>
      </trkpt>
      <trkpt lat="45.79093" lon="13.99158">
        <ele>262.1</ele>
        <time>2012-07-31T09:14:24Z</time>
      </trkpt>
      <trkpt lat="45.7911" lon="13.9915">
        <ele>262.1</ele>
        <time>2012-07-31T09:14:25Z</time>
      </trkpt>
      <trkpt lat="45.79127" lon="13.9914">
        <ele>263.54</ele>
        <time>2012-07-31T09:14:26Z</time>
      </trkpt>
      <trkpt lat="45.79143" lon="13.99128">
        <ele>263.54</ele>
        <time>2012-07-31T09:14:27Z</time>
      </trkpt>
      <trkpt lat="45.7917" lon="13.99104">
        <ele>260.17</ele>
        <time>2012-07-31T09:14:29Z</time>
      </trkpt>
      <trkpt lat="45.79181" lon="13.99088">
        <ele>259.69</ele>
        <time>2012-07-31T09:14:30Z</time>
      </trkpt>
      <trkpt lat="45.7919" lon="13.99068">
        <ele>259.21</ele>
        <time>2012-07-31T09:14:31Z</time>
      </trkpt>
      <trkpt lat="45.79196" lon="13.99044">
        <ele>258.25</ele>
        <time>2012-07-31T09:14:32Z</time>
      </trkpt>
      <trkpt lat="45.792" lon="13.99018">
        <ele>256.81</ele>
        <time>2012-07-31T09:14:33Z</time>
      </trkpt>
      <trkpt lat="45.79204" lon="13.98991">
        <ele>256.81</ele>
        <time>2012-07-31T09:14:34Z</time>
      </trkpt>
      <trkpt lat="45.79214" lon="13.98908">
        <ele>252.96</ele>
        <time>2012-07-31T09:14:37Z</time>
      </trkpt>
      <trkpt lat="45.79213" lon="13.9888">
        <ele>251.52</ele>
        <time>2012-07-31T09:14:38Z</time>
      </trkpt>
      <trkpt lat="45.79211" lon="13.98851">
        <ele>251.52</ele>
        <time>2012-07-31T09:14:39Z</time>
      </trkpt>
      <trkpt lat="45.79204" lon="13.98763">
        <ele>248.16</ele>
        <time>2012-07-31T09:14:42Z</time>
      </trkpt>
      <trkpt lat="45.79202" lon="13.98702">
        <ele>243.83</ele>
        <time>2012-07-31T09:14:44Z</time>
      </trkpt>
      <trkpt lat="45.792" lon="13.98639">
        <ele>241.91</ele>
        <time>2012-07-31T09:14:46Z</time>
      </trkpt>
      <trkpt lat="45.79198" lon="13.98581">
        <ele>237.58</ele>
        <time>2012-07-31T09:14:48Z</time>
      </trkpt>
      <trkpt lat="45.79199" lon="13.9853">
        <ele>234.7</ele>
        <time>2012-07-31T09:14:50Z</time>
      </trkpt>
      <trkpt lat="45.79202" lon="13.98504">
        <ele>233.26</ele>
        <time>2012-07-31T09:14:51Z</time>
      </trkpt>
      <trkpt lat="45.79207" lon="13.98479">
        <ele>233.74</ele>
        <time>2012-07-31T09:14:52Z</time>
      </trkpt>
      <trkpt lat="45.79215" lon="13.98453">
        <ele>232.3</ele>
        <time>2012-07-31T09:14:53Z</time>
      </trkpt>
      <trkpt lat="45.79224" lon="13.98428">
        <ele>229.41</ele>
        <time>2012-07-31T09:14:54Z</time>
      </trkpt>
      <trkpt lat="45.79235" lon="13.98404">
        <ele>230.85</ele>
        <time>2012-07-31T09:14:55Z</time>
      </trkpt>
      <trkpt lat="45.79248" lon="13.98382">
        <ele>229.41</ele>
        <time>2012-07-31T09:14:56Z</time>
      </trkpt>
      <trkpt lat="45.79263" lon="13.98361">
        <ele>227.97</ele>
        <time>2012-07-31T09:14:57Z</time>
      </trkpt>
      <trkpt lat="45.79279" lon="13.9834">
        <ele>229.41</ele>
        <time>2012-07-31T09:14:58Z</time>
      </trkpt>
      <trkpt lat="45.79354" lon="13.98229">
        <ele>226.05</ele>
        <time>2012-07-31T09:15:03Z</time>
      </trkpt>
      <trkpt lat="45.79365" lon="13.98204">
        <ele>223.64</ele>
        <time>2012-07-31T09:15:04Z</time>
      </trkpt>
      <trkpt lat="45.79375" lon="13.98177">
        <ele>223.16</ele>
        <time>2012-07-31T09:15:05Z</time>
      </trkpt>
      <trkpt lat="45.79414" lon="13.9804">
        <ele>218.84</ele>
        <time>2012-07-31T09:15:10Z</time>
      </trkpt>
      <trkpt lat="45.79429" lon="13.97987">
        <ele>214.99</ele>
        <time>2012-07-31T09:15:12Z</time>
      </trkpt>
      <trkpt lat="45.79466" lon="13.97851">
        <ele>210.67</ele>
        <time>2012-07-31T09:15:17Z</time>
      </trkpt>
      <trkpt lat="45.79491" lon="13.97706">
        <ele>207.3</ele>
        <time>2012-07-31T09:15:22Z</time>
      </trkpt>
      <trkpt lat="45.79498" lon="13.97543">
        <ele>203.94</ele>
        <time>2012-07-31T09:15:28Z</time>
      </trkpt>
      <trkpt lat="45.79501" lon="13.97523">
        <ele>202.49</ele>
        <time>2012-07-31T09:15:29Z</time>
      </trkpt>
      <trkpt lat="45.79506" lon="13.97505">
        <ele>202.98</ele>
        <time>2012-07-31T09:15:30Z</time>
      </trkpt>
      <trkpt lat="45.79513" lon="13.97489">
        <ele>203.94</ele>
        <time>2012-07-31T09:15:31Z</time>
      </trkpt>
      <trkpt lat="45.79521" lon="13.97474">
        <ele>202.98</ele>
        <time>2012-07-31T09:15:32Z</time>
      </trkpt>
      <trkpt lat="45.79531" lon="13.9746">
        <ele>202.01</ele>
        <time>2012-07-31T09:15:33Z</time>
      </trkpt>
      <trkpt lat="45.79542" lon="13.97447">
        <ele>202.98</ele>
        <time>2012-07-31T09:15:34Z</time>
      </trkpt>
      <trkpt lat="45.79554" lon="13.97435">
        <ele>202.98</ele>
        <time>2012-07-31T09:15:35Z</time>
      </trkpt>
      <trkpt lat="45.79568" lon="13.97424">
        <ele>201.05</ele>
        <time>2012-07-31T09:15:36Z</time>
      </trkpt>
      <trkpt lat="45.79581" lon="13.97416">
        <ele>201.05</ele>
        <time>2012-07-31T09:15:37Z</time>
      </trkpt>
      <trkpt lat="45.79622" lon="13.97397">
        <ele>196.73</ele>
        <time>2012-07-31T09:15:40Z</time>
      </trkpt>
      <trkpt lat="45.79647" lon="13.97383">
        <ele>196.25</ele>
        <time>2012-07-31T09:15:42Z</time>
      </trkpt>
      <trkpt lat="45.79659" lon="13.97372">
        <ele>198.17</ele>
        <time>2012-07-31T09:15:43Z</time>
      </trkpt>
      <trkpt lat="45.7967" lon="13.9736">
        <ele>196.73</ele>
        <time>2012-07-31T09:15:44Z</time>
      </trkpt>
      <trkpt lat="45.79678" lon="13.97344">
        <ele>196.25</ele>
        <time>2012-07-31T09:15:45Z</time>
      </trkpt>
      <trkpt lat="45.79684" lon="13.97325">
        <ele>196.73</ele>
        <time>2012-07-31T09:15:46Z</time>
      </trkpt>
      <trkpt lat="45.79688" lon="13.97304">
        <ele>196.73</ele>
        <time>2012-07-31T09:15:47Z</time>
      </trkpt>
      <trkpt lat="45.79692" lon="13.97284">
        <ele>196.25</ele>
        <time>2012-07-31T09:15:48Z</time>
      </trkpt>
      <trkpt lat="45.79697" lon="13.97265">
        <ele>196.25</ele>
        <time>2012-07-31T09:15:49Z</time>
      </trkpt>
      <trkpt lat="45.79703" lon="13.97247">
        <ele>195.77</ele>
        <time>2012-07-31T09:15:50Z</time>
      </trkpt>
      <trkpt lat="45.79711" lon="13.97229">
        <ele>196.73</ele>
        <time>2012-07-31T09:15:51Z</time>
      </trkpt>
      <trkpt lat="45.7972" lon="13.97212">
        <ele>196.73</ele>
        <time>2012-07-31T09:15:52Z</time>
      </trkpt>
      <trkpt lat="45.7973" lon="13.97196">
        <ele>197.21</ele>
        <time>2012-07-31T09:15:53Z</time>
      </trkpt>
      <trkpt lat="45.79741" lon="13.97182">
        <ele>198.17</ele>
        <time>2012-07-31T09:15:54Z</time>
      </trkpt>
      <trkpt lat="45.79753" lon="13.97168">
        <ele>198.65</ele>
        <time>2012-07-31T09:15:55Z</time>
      </trkpt>
      <trkpt lat="45.79764" lon="13.97156">
        <ele>199.13</ele>
        <time>2012-07-31T09:15:56Z</time>
      </trkpt>
      <trkpt lat="45.79787" lon="13.97134">
        <ele>199.61</ele>
        <time>2012-07-31T09:15:58Z</time>
      </trkpt>
      <trkpt lat="45.79799" lon="13.97125">
        <ele>199.13</ele>
        <time>2012-07-31T09:15:59Z</time>
      </trkpt>
      <trkpt lat="45.79812" lon="13.9712">
        <ele>199.13</ele>
        <time>2012-07-31T09:16:00Z</time>
      </trkpt>
      <trkpt lat="45.79826" lon="13.97117">
        <ele>199.13</ele>
        <time>2012-07-31T09:16:01Z</time>
      </trkpt>
      <trkpt lat="45.7984" lon="13.97117">
        <ele>199.61</ele>
        <time>2012-07-31T09:16:02Z</time>
      </trkpt>
      <trkpt lat="45.7999" lon="13.97084">
        <ele>202.49</ele>
        <time>2012-07-31T09:16:11Z</time>
      </trkpt>
      <trkpt lat="45.80008" lon="13.97079">
        <ele>202.01</ele>
        <time>2012-07-31T09:16:12Z</time>
      </trkpt>
      <trkpt lat="45.80095" lon="13.97041">
        <ele>193.84</ele>
        <time>2012-07-31T09:16:17Z</time>
      </trkpt>
      <trkpt lat="45.80111" lon="13.97027">
        <ele>192.88</ele>
        <time>2012-07-31T09:16:18Z</time>
      </trkpt>
      <trkpt lat="45.80124" lon="13.9701">
        <ele>196.25</ele>
        <time>2012-07-31T09:16:19Z</time>
      </trkpt>
      <trkpt lat="45.80136" lon="13.96989">
        <ele>192.4</ele>
        <time>2012-07-31T09:16:20Z</time>
      </trkpt>
      <trkpt lat="45.80147" lon="13.96966">
        <ele>190.96</ele>
        <time>2012-07-31T09:16:21Z</time>
      </trkpt>
      <trkpt lat="45.80242" lon="13.96852">
        <ele>190.48</ele>
        <time>2012-07-31T09:16:27Z</time>
      </trkpt>
      <trkpt lat="45.80381" lon="13.96781">
        <ele>187.59</ele>
        <time>2012-07-31T09:16:34Z</time>
      </trkpt>
      <trkpt lat="45.80401" lon="13.96772">
        <ele>188.08</ele>
        <time>2012-07-31T09:16:35Z</time>
      </trkpt>
      <trkpt lat="45.80498" lon="13.96709">
        <ele>184.23</ele>
        <time>2012-07-31T09:16:40Z</time>
      </trkpt>
      <trkpt lat="45.80591" lon="13.96629">
        <ele>183.75</ele>
        <time>2012-07-31T09:16:45Z</time>
      </trkpt>
      <trkpt lat="45.80747" lon="13.96536">
        <ele>181.35</ele>
        <time>2012-07-31T09:16:53Z</time>
      </trkpt>
      <trkpt lat="45.80788" lon="13.9652">
        <ele>180.38</ele>
        <time>2012-07-31T09:16:55Z</time>
      </trkpt>
      <trkpt lat="45.80891" lon="13.96478">
        <ele>179.42</ele>
        <time>2012-07-31T09:17:00Z</time>
      </trkpt>
      <trkpt lat="45.80976" lon="13.96443">
        <ele>179.42</ele>
        <time>2012-07-31T09:17:04Z</time>
      </trkpt>
      <trkpt lat="45.81018" lon="13.96427">
        <ele>175.58</ele>
        <time>2012-07-31T09:17:06Z</time>
      </trkpt>
      <trkpt lat="45.81039" lon="13.96418">
        <ele>177.5</ele>
        <time>2012-07-31T09:17:07Z</time>
      </trkpt>
      <trkpt lat="45.8106" lon="13.9641">
        <ele>173.66</ele>
        <time>2012-07-31T09:17:08Z</time>
      </trkpt>
      <trkpt lat="45.81142" lon="13.96376">
        <ele>173.17</ele>
        <time>2012-07-31T09:17:12Z</time>
      </trkpt>
      <trkpt lat="45.81284" lon="13.96322">
        <ele>170.77</ele>
        <time>2012-07-31T09:17:19Z</time>
      </trkpt>
      <trkpt lat="45.81325" lon="13.96311">
        <ele>166.93</ele>
        <time>2012-07-31T09:17:21Z</time>
      </trkpt>
      <trkpt lat="45.81346" lon="13.96306">
        <ele>171.25</ele>
        <time>2012-07-31T09:17:22Z</time>
      </trkpt>
      <trkpt lat="45.81407" lon="13.9629">
        <ele>166.93</ele>
        <time>2012-07-31T09:17:25Z</time>
      </trkpt>
      <trkpt lat="45.81428" lon="13.96285">
        <ele>170.29</ele>
        <time>2012-07-31T09:17:26Z</time>
      </trkpt>
      <trkpt lat="45.81489" lon="13.96269">
        <ele>166.93</ele>
        <time>2012-07-31T09:17:29Z</time>
      </trkpt>
      <trkpt lat="45.81509" lon="13.96263">
        <ele>167.41</ele>
        <time>2012-07-31T09:17:30Z</time>
      </trkpt>
      <trkpt lat="45.81691" lon="13.96221">
        <ele>166.45</ele>
        <time>2012-07-31T09:17:39Z</time>
      </trkpt>
      <trkpt lat="45.8175" lon="13.96195">
        <ele>163.08</ele>
        <time>2012-07-31T09:17:42Z</time>
      </trkpt>
      <trkpt lat="45.81771" lon="13.96187">
        <ele>163.08</ele>
        <time>2012-07-31T09:17:43Z</time>
      </trkpt>
      <trkpt lat="45.81876" lon="13.96145">
        <ele>159.24</ele>
        <time>2012-07-31T09:17:48Z</time>
      </trkpt>
      <trkpt lat="45.81897" lon="13.96137">
        <ele>161.16</ele>
        <time>2012-07-31T09:17:49Z</time>
      </trkpt>
      <trkpt lat="45.8204" lon="13.9608">
        <ele>157.79</ele>
        <time>2012-07-31T09:17:56Z</time>
      </trkpt>
      <trkpt lat="45.82141" lon="13.9604">
        <ele>156.35</ele>
        <time>2012-07-31T09:18:01Z</time>
      </trkpt>
      <trkpt lat="45.82183" lon="13.96024">
        <ele>159.24</ele>
        <time>2012-07-31T09:18:03Z</time>
      </trkpt>
      <trkpt lat="45.82204" lon="13.96015">
        <ele>153.95</ele>
        <time>2012-07-31T09:18:04Z</time>
      </trkpt>
      <trkpt lat="45.82224" lon="13.96007">
        <ele>155.39</ele>
        <time>2012-07-31T09:18:05Z</time>
      </trkpt>
      <trkpt lat="45.82319" lon="13.95944">
        <ele>152.03</ele>
        <time>2012-07-31T09:18:10Z</time>
      </trkpt>
      <trkpt lat="45.82336" lon="13.95926">
        <ele>151.54</ele>
        <time>2012-07-31T09:18:11Z</time>
      </trkpt>
      <trkpt lat="45.82387" lon="13.95871">
        <ele>148.18</ele>
        <time>2012-07-31T09:18:14Z</time>
      </trkpt>
      <trkpt lat="45.82443" lon="13.95818">
        <ele>145.3</ele>
        <time>2012-07-31T09:18:18Z</time>
      </trkpt>
      <trkpt lat="45.82455" lon="13.95809">
        <ele>144.82</ele>
        <time>2012-07-31T09:18:19Z</time>
      </trkpt>
      <trkpt lat="45.82481" lon="13.95796">
        <ele>141.45</ele>
        <time>2012-07-31T09:18:23Z</time>
      </trkpt>
      <trkpt lat="45.82488" lon="13.95789">
        <ele>141.45</ele>
        <time>2012-07-31T09:18:26Z</time>
      </trkpt>
      <trkpt lat="45.82488" lon="13.95781">
        <ele>141.45</ele>
        <time>2012-07-31T09:18:27Z</time>
      </trkpt>
      <trkpt lat="45.82487" lon="13.9577">
        <ele>141.45</ele>
        <time>2012-07-31T09:18:28Z</time>
      </trkpt>
      <trkpt lat="45.82486" lon="13.95756">
        <ele>142.41</ele>
        <time>2012-07-31T09:18:29Z</time>
      </trkpt>
      <trkpt lat="45.82485" lon="13.95739">
        <ele>142.89</ele>
        <time>2012-07-31T09:18:30Z</time>
      </trkpt>
      <trkpt lat="45.82485" lon="13.9572">
        <ele>143.37</ele>
        <time>2012-07-31T09:18:31Z</time>
      </trkpt>
      <trkpt lat="45.82485" lon="13.95676">
        <ele>144.82</ele>
        <time>2012-07-31T09:18:33Z</time>
      </trkpt>
      <trkpt lat="45.82485" lon="13.95601">
        <ele>145.78</ele>
        <time>2012-07-31T09:18:36Z</time>
      </trkpt>
      <trkpt lat="45.82485" lon="13.95519">
        <ele>147.7</ele>
        <time>2012-07-31T09:18:39Z</time>
      </trkpt>
      <trkpt lat="45.82488" lon="13.95174">
        <ele>146.74</ele>
        <time>2012-07-31T09:18:51Z</time>
      </trkpt>
      <trkpt lat="45.82493" lon="13.95149">
        <ele>146.26</ele>
        <time>2012-07-31T09:18:52Z</time>
      </trkpt>
      <trkpt lat="45.82501" lon="13.95124">
        <ele>147.22</ele>
        <time>2012-07-31T09:18:53Z</time>
      </trkpt>
      <trkpt lat="45.82521" lon="13.95075">
        <ele>152.03</ele>
        <time>2012-07-31T09:18:55Z</time>
      </trkpt>
      <trkpt lat="45.82542" lon="13.95026">
        <ele>146.74</ele>
        <time>2012-07-31T09:18:57Z</time>
      </trkpt>
      <trkpt lat="45.82558" lon="13.94985">
        <ele>142.89</ele>
        <time>2012-07-31T09:18:59Z</time>
      </trkpt>
      <trkpt lat="45.82563" lon="13.94966">
        <ele>142.41</ele>
        <time>2012-07-31T09:19:00Z</time>
      </trkpt>
      <trkpt lat="45.82565" lon="13.94949">
        <ele>141.45</ele>
        <time>2012-07-31T09:19:01Z</time>
      </trkpt>
      <trkpt lat="45.82562" lon="13.94931">
        <ele>141.45</ele>
        <time>2012-07-31T09:19:02Z</time>
      </trkpt>
      <trkpt lat="45.82555" lon="13.94913">
        <ele>142.41</ele>
        <time>2012-07-31T09:19:03Z</time>
      </trkpt>
      <trkpt lat="45.82545" lon="13.94894">
        <ele>142.41</ele>
        <time>2012-07-31T09:19:04Z</time>
      </trkpt>
      <trkpt lat="45.82484" lon="13.94773">
        <ele>145.3</ele>
        <time>2012-07-31T09:19:10Z</time>
      </trkpt>
      <trkpt lat="45.82469" lon="13.94726">
        <ele>146.26</ele>
        <time>2012-07-31T09:19:12Z</time>
      </trkpt>
      <trkpt lat="45.82422" lon="13.94582">
        <ele>144.82</ele>
        <time>2012-07-31T09:19:18Z</time>
      </trkpt>
      <trkpt lat="45.8241" lon="13.94564">
        <ele>145.78</ele>
        <time>2012-07-31T09:19:19Z</time>
      </trkpt>
      <trkpt lat="45.82395" lon="13.9455">
        <ele>146.26</ele>
        <time>2012-07-31T09:19:20Z</time>
      </trkpt>
      <trkpt lat="45.82378" lon="13.9454">
        <ele>146.26</ele>
        <time>2012-07-31T09:19:21Z</time>
      </trkpt>
      <trkpt lat="45.82361" lon="13.94532">
        <ele>146.26</ele>
        <time>2012-07-31T09:19:22Z</time>
      </trkpt>
      <trkpt lat="45.82289" lon="13.94483">
        <ele>147.7</ele>
        <time>2012-07-31T09:19:26Z</time>
      </trkpt>
      <trkpt lat="45.82255" lon="13.94451">
        <ele>148.18</ele>
        <time>2012-07-31T09:19:28Z</time>
      </trkpt>
      <trkpt lat="45.82237" lon="13.94438">
        <ele>148.18</ele>
        <time>2012-07-31T09:19:29Z</time>
      </trkpt>
      <trkpt lat="45.82219" lon="13.9443">
        <ele>148.18</ele>
        <time>2012-07-31T09:19:30Z</time>
      </trkpt>
      <trkpt lat="45.82203" lon="13.94426">
        <ele>147.7</ele>
        <time>2012-07-31T09:19:31Z</time>
      </trkpt>
      <trkpt lat="45.82188" lon="13.94425">
        <ele>146.74</ele>
        <time>2012-07-31T09:19:32Z</time>
      </trkpt>
      <trkpt lat="45.82174" lon="13.94423">
        <ele>146.26</ele>
        <time>2012-07-31T09:19:33Z</time>
      </trkpt>
      <trkpt lat="45.82163" lon="13.94417">
        <ele>146.26</ele>
        <time>2012-07-31T09:19:34Z</time>
      </trkpt>
      <trkpt lat="45.82153" lon="13.94406">
        <ele>145.78</ele>
        <time>2012-07-31T09:19:35Z</time>
      </trkpt>
      <trkpt lat="45.82147" lon="13.94389">
        <ele>145.78</ele>
        <time>2012-07-31T09:19:36Z</time>
      </trkpt>
      <trkpt lat="45.82144" lon="13.94368">
        <ele>147.22</ele>
        <time>2012-07-31T09:19:37Z</time>
      </trkpt>
      <trkpt lat="45.82141" lon="13.94346">
        <ele>148.18</ele>
        <time>2012-07-31T09:19:38Z</time>
      </trkpt>
      <trkpt lat="45.82131" lon="13.9427">
        <ele>150.58</ele>
        <time>2012-07-31T09:19:41Z</time>
      </trkpt>
      <trkpt lat="45.82114" lon="13.94138">
        <ele>153.47</ele>
        <time>2012-07-31T09:19:46Z</time>
      </trkpt>
      <trkpt lat="45.82109" lon="13.94113">
        <ele>153.95</ele>
        <time>2012-07-31T09:19:47Z</time>
      </trkpt>
      <trkpt lat="45.82102" lon="13.9409">
        <ele>153.95</ele>
        <time>2012-07-31T09:19:48Z</time>
      </trkpt>
      <trkpt lat="45.82055" lon="13.9393">
        <ele>156.83</ele>
        <time>2012-07-31T09:19:55Z</time>
      </trkpt>
      <trkpt lat="45.8205" lon="13.93911">
        <ele>156.35</ele>
        <time>2012-07-31T09:19:56Z</time>
      </trkpt>
      <trkpt lat="45.82043" lon="13.93892">
        <ele>157.31</ele>
        <time>2012-07-31T09:19:57Z</time>
      </trkpt>
      <trkpt lat="45.82" lon="13.93803">
        <ele>160.68</ele>
        <time>2012-07-31T09:20:02Z</time>
      </trkpt>
      <trkpt lat="45.81982" lon="13.93754">
        <ele>160.68</ele>
        <time>2012-07-31T09:20:05Z</time>
      </trkpt>
      <trkpt lat="45.81975" lon="13.93741">
        <ele>160.68</ele>
        <time>2012-07-31T09:20:06Z</time>
      </trkpt>
      <trkpt lat="45.81968" lon="13.9373">
        <ele>160.2</ele>
        <time>2012-07-31T09:20:07Z</time>
      </trkpt>
      <trkpt lat="45.81961" lon="13.93723">
        <ele>159.72</ele>
        <time>2012-07-31T09:20:08Z</time>
      </trkpt>
      <trkpt lat="45.81954" lon="13.93719">
        <ele>159.72</ele>
        <time>2012-07-31T09:20:09Z</time>
      </trkpt>
      <trkpt lat="45.81946" lon="13.93716">
        <ele>159.72</ele>
        <time>2012-07-31T09:20:10Z</time>
      </trkpt>
      <trkpt lat="45.81938" lon="13.93712">
        <ele>160.2</ele>
        <time>2012-07-31T09:20:11Z</time>
      </trkpt>
      <trkpt lat="45.81923" lon="13.93705">
        <ele>160.2</ele>
        <time>2012-07-31T09:20:13Z</time>
      </trkpt>
      <trkpt lat="45.81917" lon="13.93706">
        <ele>159.72</ele>
        <time>2012-07-31T09:20:14Z</time>
      </trkpt>
      <trkpt lat="45.81911" lon="13.93713">
        <ele>160.68</ele>
        <time>2012-07-31T09:20:15Z</time>
      </trkpt>
      <trkpt lat="45.81906" lon="13.93723">
        <ele>161.16</ele>
        <time>2012-07-31T09:20:16Z</time>
      </trkpt>
      <trkpt lat="45.81902" lon="13.93736">
        <ele>162.12</ele>
        <time>2012-07-31T09:20:17Z</time>
      </trkpt>
      <trkpt lat="45.81891" lon="13.93764">
        <ele>163.56</ele>
        <time>2012-07-31T09:20:19Z</time>
      </trkpt>
      <trkpt lat="45.81867" lon="13.93829">
        <ele>164.52</ele>
        <time>2012-07-31T09:20:24Z</time>
      </trkpt>
      <trkpt lat="45.81861" lon="13.93841">
        <ele>165.96</ele>
        <time>2012-07-31T09:20:25Z</time>
      </trkpt>
      <trkpt lat="45.81854" lon="13.93852">
        <ele>165</ele>
        <time>2012-07-31T09:20:26Z</time>
      </trkpt>
      <trkpt lat="45.81826" lon="13.93886">
        <ele>166.93</ele>
        <time>2012-07-31T09:20:29Z</time>
      </trkpt>
      <trkpt lat="45.81798" lon="13.93914">
        <ele>167.41</ele>
        <time>2012-07-31T09:20:32Z</time>
      </trkpt>
      <trkpt lat="45.81789" lon="13.93918">
        <ele>167.41</ele>
        <time>2012-07-31T09:20:33Z</time>
      </trkpt>
      <trkpt lat="45.81781" lon="13.93917">
        <ele>166.93</ele>
        <time>2012-07-31T09:20:34Z</time>
      </trkpt>
      <trkpt lat="45.81776" lon="13.93911">
        <ele>166.93</ele>
        <time>2012-07-31T09:20:35Z</time>
      </trkpt>
      <trkpt lat="45.81774" lon="13.93901">
        <ele>168.37</ele>
        <time>2012-07-31T09:20:36Z</time>
      </trkpt>
      <trkpt lat="45.81776" lon="13.93889">
        <ele>169.33</ele>
        <time>2012-07-31T09:20:37Z</time>
      </trkpt>
      <trkpt lat="45.81781" lon="13.93876">
        <ele>169.81</ele>
        <time>2012-07-31T09:20:38Z</time>
      </trkpt>
      <trkpt lat="45.81787" lon="13.93861">
        <ele>170.77</ele>
        <time>2012-07-31T09:20:39Z</time>
      </trkpt>
      <trkpt lat="45.81792" lon="13.93846">
        <ele>172.21</ele>
        <time>2012-07-31T09:20:40Z</time>
      </trkpt>
      <trkpt lat="45.81795" lon="13.93827">
        <ele>172.69</ele>
        <time>2012-07-31T09:20:41Z</time>
      </trkpt>
      <trkpt lat="45.81798" lon="13.93807">
        <ele>173.66</ele>
        <time>2012-07-31T09:20:42Z</time>
      </trkpt>
      <trkpt lat="45.81799" lon="13.93786">
        <ele>175.1</ele>
        <time>2012-07-31T09:20:43Z</time>
      </trkpt>
      <trkpt lat="45.81801" lon="13.93765">
        <ele>175.1</ele>
        <time>2012-07-31T09:20:44Z</time>
      </trkpt>
      <trkpt lat="45.81809" lon="13.93703">
        <ele>178.46</ele>
        <time>2012-07-31T09:20:47Z</time>
      </trkpt>
      <trkpt lat="45.81812" lon="13.93663">
        <ele>179.42</ele>
        <time>2012-07-31T09:20:49Z</time>
      </trkpt>
      <trkpt lat="45.8181" lon="13.93644">
        <ele>180.38</ele>
        <time>2012-07-31T09:20:50Z</time>
      </trkpt>
      <trkpt lat="45.81806" lon="13.93624">
        <ele>181.35</ele>
        <time>2012-07-31T09:20:51Z</time>
      </trkpt>
      <trkpt lat="45.81775" lon="13.93522">
        <ele>183.27</ele>
        <time>2012-07-31T09:20:57Z</time>
      </trkpt>
      <trkpt lat="45.8177" lon="13.93516">
        <ele>183.27</ele>
        <time>2012-07-31T09:20:58Z</time>
      </trkpt>
      <trkpt lat="45.81765" lon="13.93516">
        <ele>183.27</ele>
        <time>2012-07-31T09:20:59Z</time>
      </trkpt>
      <trkpt lat="45.81761" lon="13.93521">
        <ele>184.23</ele>
        <time>2012-07-31T09:21:00Z</time>
      </trkpt>
      <trkpt lat="45.8176" lon="13.9353">
        <ele>184.71</ele>
        <time>2012-07-31T09:21:01Z</time>
      </trkpt>
      <trkpt lat="45.81761" lon="13.93541">
        <ele>185.67</ele>
        <time>2012-07-31T09:21:02Z</time>
      </trkpt>
      <trkpt lat="45.81764" lon="13.93555">
        <ele>186.15</ele>
        <time>2012-07-31T09:21:03Z</time>
      </trkpt>
      <trkpt lat="45.81767" lon="13.9357">
        <ele>184.23</ele>
        <time>2012-07-31T09:21:04Z</time>
      </trkpt>
      <trkpt lat="45.81771" lon="13.93588">
        <ele>187.59</ele>
        <time>2012-07-31T09:21:05Z</time>
      </trkpt>
      <trkpt lat="45.81779" lon="13.93644">
        <ele>189.52</ele>
        <time>2012-07-31T09:21:08Z</time>
      </trkpt>
      <trkpt lat="45.81779" lon="13.9366">
        <ele>189.04</ele>
        <time>2012-07-31T09:21:09Z</time>
      </trkpt>
      <trkpt lat="45.81778" lon="13.93673">
        <ele>189.04</ele>
        <time>2012-07-31T09:21:10Z</time>
      </trkpt>
      <trkpt lat="45.81776" lon="13.93681">
        <ele>187.59</ele>
        <time>2012-07-31T09:21:11Z</time>
      </trkpt>
      <trkpt lat="45.81772" lon="13.93684">
        <ele>187.59</ele>
        <time>2012-07-31T09:21:12Z</time>
      </trkpt>
      <trkpt lat="45.81768" lon="13.93684">
        <ele>188.56</ele>
        <time>2012-07-31T09:21:13Z</time>
      </trkpt>
      <trkpt lat="45.81765" lon="13.93678">
        <ele>189.04</ele>
        <time>2012-07-31T09:21:14Z</time>
      </trkpt>
      <trkpt lat="45.81765" lon="13.9367">
        <ele>190</ele>
        <time>2012-07-31T09:21:15Z</time>
      </trkpt>
      <trkpt lat="45.81766" lon="13.93658">
        <ele>190</ele>
        <time>2012-07-31T09:21:16Z</time>
      </trkpt>
      <trkpt lat="45.81766" lon="13.93645">
        <ele>190.48</ele>
        <time>2012-07-31T09:21:17Z</time>
      </trkpt>
      <trkpt lat="45.81764" lon="13.93629">
        <ele>191.44</ele>
        <time>2012-07-31T09:21:18Z</time>
      </trkpt>
      <trkpt lat="45.81758" lon="13.93613">
        <ele>192.88</ele>
        <time>2012-07-31T09:21:19Z</time>
      </trkpt>
      <trkpt lat="45.81751" lon="13.93597">
        <ele>193.84</ele>
        <time>2012-07-31T09:21:20Z</time>
      </trkpt>
      <trkpt lat="45.81742" lon="13.93581">
        <ele>194.8</ele>
        <time>2012-07-31T09:21:21Z</time>
      </trkpt>
      <trkpt lat="45.81709" lon="13.93509">
        <ele>199.13</ele>
        <time>2012-07-31T09:21:25Z</time>
      </trkpt>
      <trkpt lat="45.81689" lon="13.93446">
        <ele>202.98</ele>
        <time>2012-07-31T09:21:28Z</time>
      </trkpt>
      <trkpt lat="45.81662" lon="13.93355">
        <ele>206.34</ele>
        <time>2012-07-31T09:21:32Z</time>
      </trkpt>
      <trkpt lat="45.81641" lon="13.93284">
        <ele>210.19</ele>
        <time>2012-07-31T09:21:35Z</time>
      </trkpt>
      <trkpt lat="45.81622" lon="13.93212">
        <ele>212.59</ele>
        <time>2012-07-31T09:21:38Z</time>
      </trkpt>
      <trkpt lat="45.81611" lon="13.93162">
        <ele>214.51</ele>
        <time>2012-07-31T09:21:40Z</time>
      </trkpt>
      <trkpt lat="45.81596" lon="13.93087">
        <ele>217.88</ele>
        <time>2012-07-31T09:21:43Z</time>
      </trkpt>
      <trkpt lat="45.81579" lon="13.92985">
        <ele>221.72</ele>
        <time>2012-07-31T09:21:47Z</time>
      </trkpt>
      <trkpt lat="45.81576" lon="13.92932">
        <ele>224.61</ele>
        <time>2012-07-31T09:21:49Z</time>
      </trkpt>
      <trkpt lat="45.81569" lon="13.92852">
        <ele>226.53</ele>
        <time>2012-07-31T09:21:52Z</time>
      </trkpt>
      <trkpt lat="45.81561" lon="13.92766">
        <ele>226.53</ele>
        <time>2012-07-31T09:21:56Z</time>
      </trkpt>
      <trkpt lat="45.81555" lon="13.9275">
        <ele>227.01</ele>
        <time>2012-07-31T09:21:57Z</time>
      </trkpt>
      <trkpt lat="45.81547" lon="13.92735">
        <ele>227.97</ele>
        <time>2012-07-31T09:21:58Z</time>
      </trkpt>
      <trkpt lat="45.81525" lon="13.92707">
        <ele>229.89</ele>
        <time>2012-07-31T09:22:00Z</time>
      </trkpt>
      <trkpt lat="45.81515" lon="13.92691">
        <ele>231.33</ele>
        <time>2012-07-31T09:22:01Z</time>
      </trkpt>
      <trkpt lat="45.81489" lon="13.9264">
        <ele>233.74</ele>
        <time>2012-07-31T09:22:04Z</time>
      </trkpt>
      <trkpt lat="45.81483" lon="13.92621">
        <ele>234.7</ele>
        <time>2012-07-31T09:22:05Z</time>
      </trkpt>
      <trkpt lat="45.81479" lon="13.92599">
        <ele>236.14</ele>
        <time>2012-07-31T09:22:06Z</time>
      </trkpt>
      <trkpt lat="45.81465" lon="13.92506">
        <ele>239.99</ele>
        <time>2012-07-31T09:22:10Z</time>
      </trkpt>
      <trkpt lat="45.81455" lon="13.92433">
        <ele>242.87</ele>
        <time>2012-07-31T09:22:13Z</time>
      </trkpt>
      <trkpt lat="45.81453" lon="13.92329">
        <ele>246.72</ele>
        <time>2012-07-31T09:22:17Z</time>
      </trkpt>
      <trkpt lat="45.81453" lon="13.92275">
        <ele>247.68</ele>
        <time>2012-07-31T09:22:19Z</time>
      </trkpt>
      <trkpt lat="45.81452" lon="13.92225">
        <ele>249.6</ele>
        <time>2012-07-31T09:22:21Z</time>
      </trkpt>
      <trkpt lat="45.8145" lon="13.92202">
        <ele>249.12</ele>
        <time>2012-07-31T09:22:22Z</time>
      </trkpt>
      <trkpt lat="45.81446" lon="13.92179">
        <ele>249.6</ele>
        <time>2012-07-31T09:22:23Z</time>
      </trkpt>
      <trkpt lat="45.8142" lon="13.91971">
        <ele>246.23</ele>
        <time>2012-07-31T09:22:31Z</time>
      </trkpt>
      <trkpt lat="45.81417" lon="13.91944">
        <ele>246.23</ele>
        <time>2012-07-31T09:22:32Z</time>
      </trkpt>
      <trkpt lat="45.81393" lon="13.91812">
        <ele>241.91</ele>
        <time>2012-07-31T09:22:37Z</time>
      </trkpt>
      <trkpt lat="45.81385" lon="13.91787">
        <ele>240.95</ele>
        <time>2012-07-31T09:22:38Z</time>
      </trkpt>
      <trkpt lat="45.8137" lon="13.91737">
        <ele>239.02</ele>
        <time>2012-07-31T09:22:40Z</time>
      </trkpt>
      <trkpt lat="45.81357" lon="13.9169">
        <ele>238.06</ele>
        <time>2012-07-31T09:22:42Z</time>
      </trkpt>
      <trkpt lat="45.81339" lon="13.91645">
        <ele>236.62</ele>
        <time>2012-07-31T09:22:44Z</time>
      </trkpt>
      <trkpt lat="45.81328" lon="13.91624">
        <ele>236.14</ele>
        <time>2012-07-31T09:22:45Z</time>
      </trkpt>
      <trkpt lat="45.81285" lon="13.91534">
        <ele>231.81</ele>
        <time>2012-07-31T09:22:49Z</time>
      </trkpt>
      <trkpt lat="45.81256" lon="13.91449">
        <ele>228.93</ele>
        <time>2012-07-31T09:22:53Z</time>
      </trkpt>
      <trkpt lat="45.8122" lon="13.91287">
        <ele>224.61</ele>
        <time>2012-07-31T09:23:00Z</time>
      </trkpt>
      <trkpt lat="45.81213" lon="13.91271">
        <ele>222.68</ele>
        <time>2012-07-31T09:23:01Z</time>
      </trkpt>
      <trkpt lat="45.81208" lon="13.91254">
        <ele>221.24</ele>
        <time>2012-07-31T09:23:02Z</time>
      </trkpt>
      <trkpt lat="45.81206" lon="13.91236">
        <ele>221.24</ele>
        <time>2012-07-31T09:23:03Z</time>
      </trkpt>
      <trkpt lat="45.81207" lon="13.91215">
        <ele>221.24</ele>
        <time>2012-07-31T09:23:04Z</time>
      </trkpt>
      <trkpt lat="45.81209" lon="13.91193">
        <ele>221.72</ele>
        <time>2012-07-31T09:23:05Z</time>
      </trkpt>
      <trkpt lat="45.8121" lon="13.9117">
        <ele>221.24</ele>
        <time>2012-07-31T09:23:06Z</time>
      </trkpt>
      <trkpt lat="45.81209" lon="13.91099">
        <ele>220.28</ele>
        <time>2012-07-31T09:23:09Z</time>
      </trkpt>
      <trkpt lat="45.8121" lon="13.91077">
        <ele>219.32</ele>
        <time>2012-07-31T09:23:10Z</time>
      </trkpt>
      <trkpt lat="45.81213" lon="13.91055">
        <ele>218.84</ele>
        <time>2012-07-31T09:23:11Z</time>
      </trkpt>
      <trkpt lat="45.81219" lon="13.91034">
        <ele>218.84</ele>
        <time>2012-07-31T09:23:12Z</time>
      </trkpt>
      <trkpt lat="45.81245" lon="13.90944">
        <ele>216.91</ele>
        <time>2012-07-31T09:23:16Z</time>
      </trkpt>
      <trkpt lat="45.81254" lon="13.90897">
        <ele>214.99</ele>
        <time>2012-07-31T09:23:18Z</time>
      </trkpt>
      <trkpt lat="45.81262" lon="13.90873">
        <ele>214.99</ele>
        <time>2012-07-31T09:23:19Z</time>
      </trkpt>
      <trkpt lat="45.81303" lon="13.90792">
        <ele>211.63</ele>
        <time>2012-07-31T09:23:23Z</time>
      </trkpt>
      <trkpt lat="45.81315" lon="13.90777">
        <ele>211.15</ele>
        <time>2012-07-31T09:23:24Z</time>
      </trkpt>
      <trkpt lat="45.81327" lon="13.90766">
        <ele>209.7</ele>
        <time>2012-07-31T09:23:25Z</time>
      </trkpt>
      <trkpt lat="45.81337" lon="13.90755">
        <ele>208.74</ele>
        <time>2012-07-31T09:23:26Z</time>
      </trkpt>
      <trkpt lat="45.81344" lon="13.90742">
        <ele>209.22</ele>
        <time>2012-07-31T09:23:27Z</time>
      </trkpt>
      <trkpt lat="45.81348" lon="13.90724">
        <ele>208.74</ele>
        <time>2012-07-31T09:23:28Z</time>
      </trkpt>
      <trkpt lat="45.8135" lon="13.90703">
        <ele>208.74</ele>
        <time>2012-07-31T09:23:29Z</time>
      </trkpt>
      <trkpt lat="45.81352" lon="13.90681">
        <ele>208.74</ele>
        <time>2012-07-31T09:23:30Z</time>
      </trkpt>
      <trkpt lat="45.81357" lon="13.9066">
        <ele>208.26</ele>
        <time>2012-07-31T09:23:31Z</time>
      </trkpt>
      <trkpt lat="45.81363" lon="13.90639">
        <ele>207.78</ele>
        <time>2012-07-31T09:23:32Z</time>
      </trkpt>
      <trkpt lat="45.81372" lon="13.90618">
        <ele>207.78</ele>
        <time>2012-07-31T09:23:33Z</time>
      </trkpt>
      <trkpt lat="45.81382" lon="13.90597">
        <ele>208.74</ele>
        <time>2012-07-31T09:23:34Z</time>
      </trkpt>
      <trkpt lat="45.81393" lon="13.90576">
        <ele>208.74</ele>
        <time>2012-07-31T09:23:35Z</time>
      </trkpt>
      <trkpt lat="45.81417" lon="13.90536">
        <ele>207.3</ele>
        <time>2012-07-31T09:23:37Z</time>
      </trkpt>
      <trkpt lat="45.81438" lon="13.90501">
        <ele>203.46</ele>
        <time>2012-07-31T09:23:39Z</time>
      </trkpt>
      <trkpt lat="45.81447" lon="13.90485">
        <ele>202.49</ele>
        <time>2012-07-31T09:23:40Z</time>
      </trkpt>
      <trkpt lat="45.81453" lon="13.90466">
        <ele>202.01</ele>
        <time>2012-07-31T09:23:41Z</time>
      </trkpt>
      <trkpt lat="45.81457" lon="13.90445">
        <ele>202.49</ele>
        <time>2012-07-31T09:23:42Z</time>
      </trkpt>
      <trkpt lat="45.81457" lon="13.90421">
        <ele>202.98</ele>
        <time>2012-07-31T09:23:43Z</time>
      </trkpt>
      <trkpt lat="45.81455" lon="13.90396">
        <ele>203.94</ele>
        <time>2012-07-31T09:23:44Z</time>
      </trkpt>
      <trkpt lat="45.81452" lon="13.9037">
        <ele>203.94</ele>
        <time>2012-07-31T09:23:45Z</time>
      </trkpt>
      <trkpt lat="45.81449" lon="13.90345">
        <ele>202.98</ele>
        <time>2012-07-31T09:23:46Z</time>
      </trkpt>
      <trkpt lat="45.81445" lon="13.90274">
        <ele>201.05</ele>
        <time>2012-07-31T09:23:49Z</time>
      </trkpt>
      <trkpt lat="45.81447" lon="13.90251">
        <ele>200.57</ele>
        <time>2012-07-31T09:23:50Z</time>
      </trkpt>
      <trkpt lat="45.81455" lon="13.90186">
        <ele>197.21</ele>
        <time>2012-07-31T09:23:53Z</time>
      </trkpt>
      <trkpt lat="45.81456" lon="13.90164">
        <ele>197.21</ele>
        <time>2012-07-31T09:23:54Z</time>
      </trkpt>
      <trkpt lat="45.81457" lon="13.90143">
        <ele>195.77</ele>
        <time>2012-07-31T09:23:55Z</time>
      </trkpt>
      <trkpt lat="45.81454" lon="13.90122">
        <ele>195.77</ele>
        <time>2012-07-31T09:23:56Z</time>
      </trkpt>
      <trkpt lat="45.81447" lon="13.90101">
        <ele>195.77</ele>
        <time>2012-07-31T09:23:57Z</time>
      </trkpt>
      <trkpt lat="45.81439" lon="13.90081">
        <ele>196.25</ele>
        <time>2012-07-31T09:23:58Z</time>
      </trkpt>
      <trkpt lat="45.8143" lon="13.90061">
        <ele>196.25</ele>
        <time>2012-07-31T09:23:59Z</time>
      </trkpt>
      <trkpt lat="45.81387" lon="13.89964">
        <ele>192.88</ele>
        <time>2012-07-31T09:24:04Z</time>
      </trkpt>
      <trkpt lat="45.81377" lon="13.89949">
        <ele>191.92</ele>
        <time>2012-07-31T09:24:05Z</time>
      </trkpt>
      <trkpt lat="45.81365" lon="13.89937">
        <ele>191.44</ele>
        <time>2012-07-31T09:24:06Z</time>
      </trkpt>
      <trkpt lat="45.81351" lon="13.89928">
        <ele>191.92</ele>
        <time>2012-07-31T09:24:07Z</time>
      </trkpt>
      <trkpt lat="45.8132" lon="13.89913">
        <ele>191.44</ele>
        <time>2012-07-31T09:24:09Z</time>
      </trkpt>
      <trkpt lat="45.81304" lon="13.89902">
        <ele>191.44</ele>
        <time>2012-07-31T09:24:10Z</time>
      </trkpt>
      <trkpt lat="45.8129" lon="13.89888">
        <ele>190.96</ele>
        <time>2012-07-31T09:24:11Z</time>
      </trkpt>
      <trkpt lat="45.81278" lon="13.89871">
        <ele>190.48</ele>
        <time>2012-07-31T09:24:12Z</time>
      </trkpt>
      <trkpt lat="45.81268" lon="13.8985">
        <ele>189.52</ele>
        <time>2012-07-31T09:24:13Z</time>
      </trkpt>
      <trkpt lat="45.81261" lon="13.89826">
        <ele>190</ele>
        <time>2012-07-31T09:24:14Z</time>
      </trkpt>
      <trkpt lat="45.81256" lon="13.89801">
        <ele>190</ele>
        <time>2012-07-31T09:24:15Z</time>
      </trkpt>
      <trkpt lat="45.81252" lon="13.89775">
        <ele>189.52</ele>
        <time>2012-07-31T09:24:16Z</time>
      </trkpt>
      <trkpt lat="45.81249" lon="13.89752">
        <ele>188.56</ele>
        <time>2012-07-31T09:24:17Z</time>
      </trkpt>
      <trkpt lat="45.81248" lon="13.8973">
        <ele>187.11</ele>
        <time>2012-07-31T09:24:18Z</time>
      </trkpt>
      <trkpt lat="45.81252" lon="13.89707">
        <ele>187.11</ele>
        <time>2012-07-31T09:24:19Z</time>
      </trkpt>
      <trkpt lat="45.81259" lon="13.89685">
        <ele>187.11</ele>
        <time>2012-07-31T09:24:20Z</time>
      </trkpt>
      <trkpt lat="45.81268" lon="13.89663">
        <ele>187.11</ele>
        <time>2012-07-31T09:24:21Z</time>
      </trkpt>
      <trkpt lat="45.81278" lon="13.8964">
        <ele>187.59</ele>
        <time>2012-07-31T09:24:22Z</time>
      </trkpt>
      <trkpt lat="45.81296" lon="13.89592">
        <ele>186.15</ele>
        <time>2012-07-31T09:24:24Z</time>
      </trkpt>
      <trkpt lat="45.81302" lon="13.89566">
        <ele>185.67</ele>
        <time>2012-07-31T09:24:25Z</time>
      </trkpt>
      <trkpt lat="45.81305" lon="13.8954">
        <ele>185.67</ele>
        <time>2012-07-31T09:24:26Z</time>
      </trkpt>
      <trkpt lat="45.81306" lon="13.89515">
        <ele>185.67</ele>
        <time>2012-07-31T09:24:27Z</time>
      </trkpt>
      <trkpt lat="45.81306" lon="13.89491">
        <ele>185.67</ele>
        <time>2012-07-31T09:24:28Z</time>
      </trkpt>
      <trkpt lat="45.81307" lon="13.89469">
        <ele>184.71</ele>
        <time>2012-07-31T09:24:29Z</time>
      </trkpt>
      <trkpt lat="45.8131" lon="13.89449">
        <ele>183.75</ele>
        <time>2012-07-31T09:24:30Z</time>
      </trkpt>
      <trkpt lat="45.81316" lon="13.89431">
        <ele>183.75</ele>
        <time>2012-07-31T09:24:31Z</time>
      </trkpt>
      <trkpt lat="45.81325" lon="13.89415">
        <ele>183.75</ele>
        <time>2012-07-31T09:24:32Z</time>
      </trkpt>
      <trkpt lat="45.81336" lon="13.89399">
        <ele>184.23</ele>
        <time>2012-07-31T09:24:33Z</time>
      </trkpt>
      <trkpt lat="45.81345" lon="13.8938">
        <ele>185.67</ele>
        <time>2012-07-31T09:24:34Z</time>
      </trkpt>
      <trkpt lat="45.81352" lon="13.89358">
        <ele>185.67</ele>
        <time>2012-07-31T09:24:35Z</time>
      </trkpt>
      <trkpt lat="45.81358" lon="13.89333">
        <ele>186.15</ele>
        <time>2012-07-31T09:24:36Z</time>
      </trkpt>
      <trkpt lat="45.81364" lon="13.89307">
        <ele>186.15</ele>
        <time>2012-07-31T09:24:37Z</time>
      </trkpt>
      <trkpt lat="45.81367" lon="13.89282">
        <ele>185.67</ele>
        <time>2012-07-31T09:24:38Z</time>
      </trkpt>
      <trkpt lat="45.81369" lon="13.89257">
        <ele>184.23</ele>
        <time>2012-07-31T09:24:39Z</time>
      </trkpt>
      <trkpt lat="45.81369" lon="13.89236">
        <ele>182.79</ele>
        <time>2012-07-31T09:24:40Z</time>
      </trkpt>
      <trkpt lat="45.81368" lon="13.8922">
        <ele>180.87</ele>
        <time>2012-07-31T09:24:41Z</time>
      </trkpt>
      <trkpt lat="45.81367" lon="13.89207">
        <ele>179.9</ele>
        <time>2012-07-31T09:24:42Z</time>
      </trkpt>
      <trkpt lat="45.81367" lon="13.89196">
        <ele>178.94</ele>
        <time>2012-07-31T09:24:43Z</time>
      </trkpt>
      <trkpt lat="45.81368" lon="13.89186">
        <ele>179.9</ele>
        <time>2012-07-31T09:24:44Z</time>
      </trkpt>
      <trkpt lat="45.81372" lon="13.89175">
        <ele>179.42</ele>
        <time>2012-07-31T09:24:45Z</time>
      </trkpt>
      <trkpt lat="45.81377" lon="13.89163">
        <ele>180.87</ele>
        <time>2012-07-31T09:24:46Z</time>
      </trkpt>
      <trkpt lat="45.81383" lon="13.89151">
        <ele>181.35</ele>
        <time>2012-07-31T09:24:47Z</time>
      </trkpt>
      <trkpt lat="45.8141" lon="13.89096">
        <ele>184.23</ele>
        <time>2012-07-31T09:24:51Z</time>
      </trkpt>
      <trkpt lat="45.81418" lon="13.89084">
        <ele>184.71</ele>
        <time>2012-07-31T09:24:52Z</time>
      </trkpt>
      <trkpt lat="45.81441" lon="13.89052">
        <ele>182.31</ele>
        <time>2012-07-31T09:24:55Z</time>
      </trkpt>
      <trkpt lat="45.81444" lon="13.89044">
        <ele>181.35</ele>
        <time>2012-07-31T09:24:56Z</time>
      </trkpt>
      <trkpt lat="45.81445" lon="13.89034">
        <ele>181.83</ele>
        <time>2012-07-31T09:24:57Z</time>
      </trkpt>
      <trkpt lat="45.81444" lon="13.89022">
        <ele>182.31</ele>
        <time>2012-07-31T09:24:58Z</time>
      </trkpt>
      <trkpt lat="45.81444" lon="13.89009">
        <ele>182.79</ele>
        <time>2012-07-31T09:24:59Z</time>
      </trkpt>
      <trkpt lat="45.81445" lon="13.88996">
        <ele>182.79</ele>
        <time>2012-07-31T09:25:00Z</time>
      </trkpt>
      <trkpt lat="45.81449" lon="13.88982">
        <ele>183.27</ele>
        <time>2012-07-31T09:25:01Z</time>
      </trkpt>
      <trkpt lat="45.81454" lon="13.88968">
        <ele>183.27</ele>
        <time>2012-07-31T09:25:02Z</time>
      </trkpt>
      <trkpt lat="45.81461" lon="13.88954">
        <ele>184.71</ele>
        <time>2012-07-31T09:25:03Z</time>
      </trkpt>
      <trkpt lat="45.8147" lon="13.8894">
        <ele>185.67</ele>
        <time>2012-07-31T09:25:04Z</time>
      </trkpt>
      <trkpt lat="45.8148" lon="13.88927">
        <ele>184.71</ele>
        <time>2012-07-31T09:25:05Z</time>
      </trkpt>
      <trkpt lat="45.81491" lon="13.88914">
        <ele>184.23</ele>
        <time>2012-07-31T09:25:06Z</time>
      </trkpt>
      <trkpt lat="45.81502" lon="13.88903">
        <ele>185.19</ele>
        <time>2012-07-31T09:25:07Z</time>
      </trkpt>
      <trkpt lat="45.81596" lon="13.88832">
        <ele>184.71</ele>
        <time>2012-07-31T09:25:14Z</time>
      </trkpt>
      <trkpt lat="45.8166" lon="13.88789">
        <ele>180.87</ele>
        <time>2012-07-31T09:25:19Z</time>
      </trkpt>
      <trkpt lat="45.81681" lon="13.88776">
        <ele>178.46</ele>
        <time>2012-07-31T09:25:21Z</time>
      </trkpt>
      <trkpt lat="45.8169" lon="13.88771">
        <ele>177.5</ele>
        <time>2012-07-31T09:25:22Z</time>
      </trkpt>
      <trkpt lat="45.81708" lon="13.88763">
        <ele>177.98</ele>
        <time>2012-07-31T09:25:24Z</time>
      </trkpt>
      <trkpt lat="45.81715" lon="13.88754">
        <ele>177.5</ele>
        <time>2012-07-31T09:25:25Z</time>
      </trkpt>
      <trkpt lat="45.81721" lon="13.88742">
        <ele>176.06</ele>
        <time>2012-07-31T09:25:26Z</time>
      </trkpt>
      <trkpt lat="45.81728" lon="13.88728">
        <ele>174.62</ele>
        <time>2012-07-31T09:25:27Z</time>
      </trkpt>
      <trkpt lat="45.81737" lon="13.88716">
        <ele>174.14</ele>
        <time>2012-07-31T09:25:28Z</time>
      </trkpt>
      <trkpt lat="45.81749" lon="13.88705">
        <ele>173.66</ele>
        <time>2012-07-31T09:25:29Z</time>
      </trkpt>
      <trkpt lat="45.81763" lon="13.88694">
        <ele>175.58</ele>
        <time>2012-07-31T09:25:30Z</time>
      </trkpt>
      <trkpt lat="45.81777" lon="13.88685">
        <ele>174.14</ele>
        <time>2012-07-31T09:25:31Z</time>
      </trkpt>
      <trkpt lat="45.81835" lon="13.8864">
        <ele>172.21</ele>
        <time>2012-07-31T09:25:35Z</time>
      </trkpt>
      <trkpt lat="45.81873" lon="13.88609">
        <ele>170.29</ele>
        <time>2012-07-31T09:25:38Z</time>
      </trkpt>
      <trkpt lat="45.81954" lon="13.88515">
        <ele>166.93</ele>
        <time>2012-07-31T09:25:46Z</time>
      </trkpt>
      <trkpt lat="45.81958" lon="13.88508">
        <ele>165.48</ele>
        <time>2012-07-31T09:25:47Z</time>
      </trkpt>
      <trkpt lat="45.8196" lon="13.88503">
        <ele>165</ele>
        <time>2012-07-31T09:25:48Z</time>
      </trkpt>
      <trkpt lat="45.81962" lon="13.885">
        <ele>165</ele>
        <time>2012-07-31T09:25:49Z</time>
      </trkpt>
      <trkpt lat="45.8196" lon="13.88499">
        <ele>165</ele>
        <time>2012-07-31T09:26:00Z</time>
      </trkpt>
      <trkpt lat="45.81959" lon="13.88499">
        <ele>164.52</ele>
        <time>2012-07-31T09:26:23Z</time>
      </trkpt>
      <trkpt lat="45.81965" lon="13.88488">
        <ele>165</ele>
        <time>2012-07-31T09:26:31Z</time>
      </trkpt>
      <trkpt lat="45.81969" lon="13.88478">
        <ele>165</ele>
        <time>2012-07-31T09:26:32Z</time>
      </trkpt>
      <trkpt lat="45.81975" lon="13.88468">
        <ele>165</ele>
        <time>2012-07-31T09:26:33Z</time>
      </trkpt>
      <trkpt lat="45.81981" lon="13.88456">
        <ele>165</ele>
        <time>2012-07-31T09:26:34Z</time>
      </trkpt>
      <trkpt lat="45.81989" lon="13.88444">
        <ele>165.48</ele>
        <time>2012-07-31T09:26:35Z</time>
      </trkpt>
      <trkpt lat="45.81998" lon="13.88431">
        <ele>165.96</ele>
        <time>2012-07-31T09:26:36Z</time>
      </trkpt>
      <trkpt lat="45.82008" lon="13.8842">
        <ele>165.96</ele>
        <time>2012-07-31T09:26:37Z</time>
      </trkpt>
      <trkpt lat="45.82114" lon="13.88287">
        <ele>165.96</ele>
        <time>2012-07-31T09:26:46Z</time>
      </trkpt>
      <trkpt lat="45.82219" lon="13.88123">
        <ele>165.96</ele>
        <time>2012-07-31T09:26:55Z</time>
      </trkpt>
      <trkpt lat="45.823" lon="13.8801">
        <ele>166.93</ele>
        <time>2012-07-31T09:27:02Z</time>
      </trkpt>
      <trkpt lat="45.82341" lon="13.87974">
        <ele>165.96</ele>
        <time>2012-07-31T09:27:05Z</time>
      </trkpt>
      <trkpt lat="45.82352" lon="13.87959">
        <ele>165.48</ele>
        <time>2012-07-31T09:27:06Z</time>
      </trkpt>
      <trkpt lat="45.82362" lon="13.8794">
        <ele>166.93</ele>
        <time>2012-07-31T09:27:07Z</time>
      </trkpt>
      <trkpt lat="45.82397" lon="13.87859">
        <ele>166.45</ele>
        <time>2012-07-31T09:27:11Z</time>
      </trkpt>
      <trkpt lat="45.82423" lon="13.87798">
        <ele>163.08</ele>
        <time>2012-07-31T09:27:14Z</time>
      </trkpt>
      <trkpt lat="45.8243" lon="13.87779">
        <ele>163.56</ele>
        <time>2012-07-31T09:27:15Z</time>
      </trkpt>
      <trkpt lat="45.82437" lon="13.87761">
        <ele>162.12</ele>
        <time>2012-07-31T09:27:16Z</time>
      </trkpt>
      <trkpt lat="45.82446" lon="13.87745">
        <ele>161.16</ele>
        <time>2012-07-31T09:27:17Z</time>
      </trkpt>
      <trkpt lat="45.82457" lon="13.87731">
        <ele>159.72</ele>
        <time>2012-07-31T09:27:18Z</time>
      </trkpt>
      <trkpt lat="45.82477" lon="13.87704">
        <ele>157.79</ele>
        <time>2012-07-31T09:27:20Z</time>
      </trkpt>
      <trkpt lat="45.82485" lon="13.87687">
        <ele>158.75</ele>
        <time>2012-07-31T09:27:21Z</time>
      </trkpt>
      <trkpt lat="45.82491" lon="13.87667">
        <ele>160.2</ele>
        <time>2012-07-31T09:27:22Z</time>
      </trkpt>
      <trkpt lat="45.82495" lon="13.87646">
        <ele>161.16</ele>
        <time>2012-07-31T09:27:23Z</time>
      </trkpt>
      <trkpt lat="45.82498" lon="13.87624">
        <ele>161.64</ele>
        <time>2012-07-31T09:27:24Z</time>
      </trkpt>
      <trkpt lat="45.82527" lon="13.87461">
        <ele>161.16</ele>
        <time>2012-07-31T09:27:31Z</time>
      </trkpt>
      <trkpt lat="45.8253" lon="13.87436">
        <ele>161.16</ele>
        <time>2012-07-31T09:27:32Z</time>
      </trkpt>
      <trkpt lat="45.82532" lon="13.87411">
        <ele>161.16</ele>
        <time>2012-07-31T09:27:33Z</time>
      </trkpt>
      <trkpt lat="45.82531" lon="13.87268">
        <ele>157.79</ele>
        <time>2012-07-31T09:27:39Z</time>
      </trkpt>
      <trkpt lat="45.82532" lon="13.87248">
        <ele>156.83</ele>
        <time>2012-07-31T09:27:40Z</time>
      </trkpt>
      <trkpt lat="45.82535" lon="13.87228">
        <ele>157.31</ele>
        <time>2012-07-31T09:27:41Z</time>
      </trkpt>
      <trkpt lat="45.82539" lon="13.87207">
        <ele>157.31</ele>
        <time>2012-07-31T09:27:42Z</time>
      </trkpt>
      <trkpt lat="45.82544" lon="13.87187">
        <ele>156.83</ele>
        <time>2012-07-31T09:27:43Z</time>
      </trkpt>
      <trkpt lat="45.82549" lon="13.8717">
        <ele>156.83</ele>
        <time>2012-07-31T09:27:44Z</time>
      </trkpt>
      <trkpt lat="45.82556" lon="13.87154">
        <ele>156.35</ele>
        <time>2012-07-31T09:27:45Z</time>
      </trkpt>
      <trkpt lat="45.82564" lon="13.87139">
        <ele>155.87</ele>
        <time>2012-07-31T09:27:46Z</time>
      </trkpt>
      <trkpt lat="45.82573" lon="13.87125">
        <ele>156.35</ele>
        <time>2012-07-31T09:27:47Z</time>
      </trkpt>
      <trkpt lat="45.82616" lon="13.87066">
        <ele>157.79</ele>
        <time>2012-07-31T09:27:51Z</time>
      </trkpt>
      <trkpt lat="45.82636" lon="13.87035">
        <ele>157.79</ele>
        <time>2012-07-31T09:27:53Z</time>
      </trkpt>
      <trkpt lat="45.82645" lon="13.8702">
        <ele>157.79</ele>
        <time>2012-07-31T09:27:54Z</time>
      </trkpt>
      <trkpt lat="45.82693" lon="13.86983">
        <ele>157.79</ele>
        <time>2012-07-31T09:27:59Z</time>
      </trkpt>
      <trkpt lat="45.82717" lon="13.86989">
        <ele>157.79</ele>
        <time>2012-07-31T09:28:01Z</time>
      </trkpt>
      <trkpt lat="45.82729" lon="13.86996">
        <ele>156.35</ele>
        <time>2012-07-31T09:28:02Z</time>
      </trkpt>
      <trkpt lat="45.82739" lon="13.87001">
        <ele>155.39</ele>
        <time>2012-07-31T09:28:03Z</time>
      </trkpt>
      <trkpt lat="45.82748" lon="13.87005">
        <ele>153.95</ele>
        <time>2012-07-31T09:28:04Z</time>
      </trkpt>
      <trkpt lat="45.82756" lon="13.87005">
        <ele>153.47</ele>
        <time>2012-07-31T09:28:05Z</time>
      </trkpt>
      <trkpt lat="45.82767" lon="13.86995">
        <ele>152.51</ele>
        <time>2012-07-31T09:28:07Z</time>
      </trkpt>
      <trkpt lat="45.82768" lon="13.86987">
        <ele>152.51</ele>
        <time>2012-07-31T09:28:08Z</time>
      </trkpt>
      <trkpt lat="45.82767" lon="13.86978">
        <ele>152.03</ele>
        <time>2012-07-31T09:28:09Z</time>
      </trkpt>
      <trkpt lat="45.82762" lon="13.86968">
        <ele>152.99</ele>
        <time>2012-07-31T09:28:10Z</time>
      </trkpt>
      <trkpt lat="45.82755" lon="13.86958">
        <ele>152.99</ele>
        <time>2012-07-31T09:28:11Z</time>
      </trkpt>
      <trkpt lat="45.82747" lon="13.86948">
        <ele>153.47</ele>
        <time>2012-07-31T09:28:12Z</time>
      </trkpt>
      <trkpt lat="45.82684" lon="13.86853">
        <ele>151.54</ele>
        <time>2012-07-31T09:28:19Z</time>
      </trkpt>
      <trkpt lat="45.82679" lon="13.86837">
        <ele>151.06</ele>
        <time>2012-07-31T09:28:20Z</time>
      </trkpt>
      <trkpt lat="45.82674" lon="13.86819">
        <ele>151.54</ele>
        <time>2012-07-31T09:28:21Z</time>
      </trkpt>
      <trkpt lat="45.82671" lon="13.86802">
        <ele>151.06</ele>
        <time>2012-07-31T09:28:22Z</time>
      </trkpt>
      <trkpt lat="45.82669" lon="13.86783">
        <ele>152.51</ele>
        <time>2012-07-31T09:28:23Z</time>
      </trkpt>
      <trkpt lat="45.82668" lon="13.86764">
        <ele>151.54</ele>
        <time>2012-07-31T09:28:24Z</time>
      </trkpt>
      <trkpt lat="45.8267" lon="13.86743">
        <ele>152.03</ele>
        <time>2012-07-31T09:28:25Z</time>
      </trkpt>
      <trkpt lat="45.8267" lon="13.86722">
        <ele>153.47</ele>
        <time>2012-07-31T09:28:26Z</time>
      </trkpt>
      <trkpt lat="45.82669" lon="13.86701">
        <ele>153.95</ele>
        <time>2012-07-31T09:28:27Z</time>
      </trkpt>
      <trkpt lat="45.82636" lon="13.86524">
        <ele>153.95</ele>
        <time>2012-07-31T09:28:35Z</time>
      </trkpt>
      <trkpt lat="45.82594" lon="13.8629">
        <ele>152.51</ele>
        <time>2012-07-31T09:28:46Z</time>
      </trkpt>
      <trkpt lat="45.82594" lon="13.86269">
        <ele>153.47</ele>
        <time>2012-07-31T09:28:47Z</time>
      </trkpt>
      <trkpt lat="45.82596" lon="13.86248">
        <ele>151.54</ele>
        <time>2012-07-31T09:28:48Z</time>
      </trkpt>
      <trkpt lat="45.82599" lon="13.86228">
        <ele>149.62</ele>
        <time>2012-07-31T09:28:49Z</time>
      </trkpt>
      <trkpt lat="45.82603" lon="13.86208">
        <ele>150.58</ele>
        <time>2012-07-31T09:28:50Z</time>
      </trkpt>
      <trkpt lat="45.82609" lon="13.86189">
        <ele>149.62</ele>
        <time>2012-07-31T09:28:51Z</time>
      </trkpt>
      <trkpt lat="45.82624" lon="13.86152">
        <ele>149.14</ele>
        <time>2012-07-31T09:28:53Z</time>
      </trkpt>
      <trkpt lat="45.82634" lon="13.86134">
        <ele>149.14</ele>
        <time>2012-07-31T09:28:54Z</time>
      </trkpt>
      <trkpt lat="45.82644" lon="13.86117">
        <ele>150.58</ele>
        <time>2012-07-31T09:28:55Z</time>
      </trkpt>
      <trkpt lat="45.82655" lon="13.86099">
        <ele>150.58</ele>
        <time>2012-07-31T09:28:56Z</time>
      </trkpt>
      <trkpt lat="45.82696" lon="13.86037">
        <ele>150.1</ele>
        <time>2012-07-31T09:29:00Z</time>
      </trkpt>
      <trkpt lat="45.82701" lon="13.86019">
        <ele>151.54</ele>
        <time>2012-07-31T09:29:01Z</time>
      </trkpt>
      <trkpt lat="45.82704" lon="13.85999">
        <ele>151.54</ele>
        <time>2012-07-31T09:29:02Z</time>
      </trkpt>
      <trkpt lat="45.82709" lon="13.85959">
        <ele>150.58</ele>
        <time>2012-07-31T09:29:04Z</time>
      </trkpt>
      <trkpt lat="45.82713" lon="13.85939">
        <ele>150.58</ele>
        <time>2012-07-31T09:29:05Z</time>
      </trkpt>
      <trkpt lat="45.8272" lon="13.8592">
        <ele>150.1</ele>
        <time>2012-07-31T09:29:06Z</time>
      </trkpt>
      <trkpt lat="45.82726" lon="13.859">
        <ele>150.58</ele>
        <time>2012-07-31T09:29:07Z</time>
      </trkpt>
      <trkpt lat="45.8273" lon="13.85879">
        <ele>149.62</ele>
        <time>2012-07-31T09:29:08Z</time>
      </trkpt>
      <trkpt lat="45.82733" lon="13.85858">
        <ele>149.14</ele>
        <time>2012-07-31T09:29:09Z</time>
      </trkpt>
      <trkpt lat="45.82746" lon="13.85761">
        <ele>148.18</ele>
        <time>2012-07-31T09:29:14Z</time>
      </trkpt>
      <trkpt lat="45.82802" lon="13.85577">
        <ele>146.26</ele>
        <time>2012-07-31T09:29:23Z</time>
      </trkpt>
      <trkpt lat="45.82815" lon="13.85543">
        <ele>146.74</ele>
        <time>2012-07-31T09:29:25Z</time>
      </trkpt>
      <trkpt lat="45.82824" lon="13.85527">
        <ele>146.74</ele>
        <time>2012-07-31T09:29:26Z</time>
      </trkpt>
      <trkpt lat="45.82861" lon="13.85444">
        <ele>145.3</ele>
        <time>2012-07-31T09:29:31Z</time>
      </trkpt>
      <trkpt lat="45.82865" lon="13.85426">
        <ele>146.26</ele>
        <time>2012-07-31T09:29:32Z</time>
      </trkpt>
      <trkpt lat="45.82866" lon="13.85408">
        <ele>145.78</ele>
        <time>2012-07-31T09:29:33Z</time>
      </trkpt>
      <trkpt lat="45.82866" lon="13.8539">
        <ele>145.78</ele>
        <time>2012-07-31T09:29:34Z</time>
      </trkpt>
      <trkpt lat="45.82865" lon="13.85374">
        <ele>144.82</ele>
        <time>2012-07-31T09:29:35Z</time>
      </trkpt>
      <trkpt lat="45.82865" lon="13.85358">
        <ele>143.85</ele>
        <time>2012-07-31T09:29:36Z</time>
      </trkpt>
      <trkpt lat="45.82869" lon="13.85342">
        <ele>143.85</ele>
        <time>2012-07-31T09:29:37Z</time>
      </trkpt>
      <trkpt lat="45.82876" lon="13.85326">
        <ele>144.34</ele>
        <time>2012-07-31T09:29:38Z</time>
      </trkpt>
      <trkpt lat="45.82892" lon="13.85291">
        <ele>144.34</ele>
        <time>2012-07-31T09:29:40Z</time>
      </trkpt>
      <trkpt lat="45.82899" lon="13.85271">
        <ele>145.78</ele>
        <time>2012-07-31T09:29:41Z</time>
      </trkpt>
      <trkpt lat="45.82905" lon="13.85249">
        <ele>145.78</ele>
        <time>2012-07-31T09:29:42Z</time>
      </trkpt>
      <trkpt lat="45.82927" lon="13.8516">
        <ele>145.3</ele>
        <time>2012-07-31T09:29:46Z</time>
      </trkpt>
      <trkpt lat="45.82934" lon="13.8514">
        <ele>144.82</ele>
        <time>2012-07-31T09:29:47Z</time>
      </trkpt>
      <trkpt lat="45.82941" lon="13.85121">
        <ele>144.34</ele>
        <time>2012-07-31T09:29:48Z</time>
      </trkpt>
      <trkpt lat="45.82946" lon="13.85103">
        <ele>144.34</ele>
        <time>2012-07-31T09:29:49Z</time>
      </trkpt>
      <trkpt lat="45.82949" lon="13.85084">
        <ele>144.34</ele>
        <time>2012-07-31T09:29:50Z</time>
      </trkpt>
      <trkpt lat="45.82946" lon="13.85044">
        <ele>144.82</ele>
        <time>2012-07-31T09:29:52Z</time>
      </trkpt>
      <trkpt lat="45.82943" lon="13.85024">
        <ele>144.82</ele>
        <time>2012-07-31T09:29:53Z</time>
      </trkpt>
      <trkpt lat="45.8291" lon="13.84911">
        <ele>142.89</ele>
        <time>2012-07-31T09:29:59Z</time>
      </trkpt>
      <trkpt lat="45.82903" lon="13.84895">
        <ele>142.41</ele>
        <time>2012-07-31T09:30:00Z</time>
      </trkpt>
      <trkpt lat="45.82897" lon="13.84879">
        <ele>141.45</ele>
        <time>2012-07-31T09:30:01Z</time>
      </trkpt>
      <trkpt lat="45.82894" lon="13.84864">
        <ele>140.49</ele>
        <time>2012-07-31T09:30:02Z</time>
      </trkpt>
      <trkpt lat="45.82893" lon="13.84851">
        <ele>139.53</ele>
        <time>2012-07-31T09:30:03Z</time>
      </trkpt>
      <trkpt lat="45.82894" lon="13.84838">
        <ele>139.53</ele>
        <time>2012-07-31T09:30:04Z</time>
      </trkpt>
      <trkpt lat="45.82897" lon="13.84825">
        <ele>138.57</ele>
        <time>2012-07-31T09:30:05Z</time>
      </trkpt>
      <trkpt lat="45.82903" lon="13.84808">
        <ele>139.53</ele>
        <time>2012-07-31T09:30:06Z</time>
      </trkpt>
      <trkpt lat="45.82911" lon="13.84789">
        <ele>141.93</ele>
        <time>2012-07-31T09:30:07Z</time>
      </trkpt>
      <trkpt lat="45.82921" lon="13.84769">
        <ele>144.34</ele>
        <time>2012-07-31T09:30:08Z</time>
      </trkpt>
      <trkpt lat="45.82931" lon="13.84749">
        <ele>143.37</ele>
        <time>2012-07-31T09:30:09Z</time>
      </trkpt>
      <trkpt lat="45.8297" lon="13.84687">
        <ele>146.74</ele>
        <time>2012-07-31T09:30:12Z</time>
      </trkpt>
      <trkpt lat="45.83008" lon="13.84641">
        <ele>144.34</ele>
        <time>2012-07-31T09:30:15Z</time>
      </trkpt>
      <trkpt lat="45.83021" lon="13.84628">
        <ele>144.82</ele>
        <time>2012-07-31T09:30:16Z</time>
      </trkpt>
      <trkpt lat="45.83037" lon="13.84615">
        <ele>146.26</ele>
        <time>2012-07-31T09:30:17Z</time>
      </trkpt>
      <trkpt lat="45.8307" lon="13.84593">
        <ele>141.93</ele>
        <time>2012-07-31T09:30:19Z</time>
      </trkpt>
      <trkpt lat="45.83098" lon="13.84582">
        <ele>140.49</ele>
        <time>2012-07-31T09:30:21Z</time>
      </trkpt>
      <trkpt lat="45.83113" lon="13.84579">
        <ele>139.53</ele>
        <time>2012-07-31T09:30:22Z</time>
      </trkpt>
      <trkpt lat="45.83127" lon="13.84572">
        <ele>139.05</ele>
        <time>2012-07-31T09:30:23Z</time>
      </trkpt>
      <trkpt lat="45.83142" lon="13.8456">
        <ele>139.05</ele>
        <time>2012-07-31T09:30:24Z</time>
      </trkpt>
      <trkpt lat="45.83156" lon="13.84542">
        <ele>139.53</ele>
        <time>2012-07-31T09:30:25Z</time>
      </trkpt>
      <trkpt lat="45.83167" lon="13.84522">
        <ele>138.09</ele>
        <time>2012-07-31T09:30:26Z</time>
      </trkpt>
      <trkpt lat="45.83176" lon="13.84498">
        <ele>139.05</ele>
        <time>2012-07-31T09:30:27Z</time>
      </trkpt>
      <trkpt lat="45.83184" lon="13.84473">
        <ele>140.01</ele>
        <time>2012-07-31T09:30:28Z</time>
      </trkpt>
      <trkpt lat="45.83191" lon="13.8445">
        <ele>140.01</ele>
        <time>2012-07-31T09:30:29Z</time>
      </trkpt>
      <trkpt lat="45.83222" lon="13.84357">
        <ele>135.68</ele>
        <time>2012-07-31T09:30:34Z</time>
      </trkpt>
      <trkpt lat="45.83229" lon="13.84342">
        <ele>135.68</ele>
        <time>2012-07-31T09:30:35Z</time>
      </trkpt>
      <trkpt lat="45.83239" lon="13.84327">
        <ele>135.68</ele>
        <time>2012-07-31T09:30:36Z</time>
      </trkpt>
      <trkpt lat="45.8325" lon="13.84312">
        <ele>135.2</ele>
        <time>2012-07-31T09:30:37Z</time>
      </trkpt>
      <trkpt lat="45.83284" lon="13.84265">
        <ele>136.16</ele>
        <time>2012-07-31T09:30:40Z</time>
      </trkpt>
      <trkpt lat="45.83292" lon="13.84248">
        <ele>136.16</ele>
        <time>2012-07-31T09:30:41Z</time>
      </trkpt>
      <trkpt lat="45.83299" lon="13.8423">
        <ele>136.16</ele>
        <time>2012-07-31T09:30:42Z</time>
      </trkpt>
      <trkpt lat="45.83325" lon="13.84159">
        <ele>135.68</ele>
        <time>2012-07-31T09:30:46Z</time>
      </trkpt>
      <trkpt lat="45.8333" lon="13.84141">
        <ele>135.2</ele>
        <time>2012-07-31T09:30:47Z</time>
      </trkpt>
      <trkpt lat="45.83338" lon="13.84105">
        <ele>134.24</ele>
        <time>2012-07-31T09:30:49Z</time>
      </trkpt>
      <trkpt lat="45.83348" lon="13.84076">
        <ele>133.28</ele>
        <time>2012-07-31T09:30:51Z</time>
      </trkpt>
      <trkpt lat="45.83355" lon="13.84065">
        <ele>132.32</ele>
        <time>2012-07-31T09:30:52Z</time>
      </trkpt>
      <trkpt lat="45.83362" lon="13.84057">
        <ele>131.36</ele>
        <time>2012-07-31T09:30:53Z</time>
      </trkpt>
      <trkpt lat="45.83371" lon="13.84054">
        <ele>131.36</ele>
        <time>2012-07-31T09:30:54Z</time>
      </trkpt>
      <trkpt lat="45.83382" lon="13.84055">
        <ele>131.36</ele>
        <time>2012-07-31T09:30:55Z</time>
      </trkpt>
      <trkpt lat="45.83394" lon="13.84059">
        <ele>131.84</ele>
        <time>2012-07-31T09:30:56Z</time>
      </trkpt>
      <trkpt lat="45.83406" lon="13.84066">
        <ele>132.32</ele>
        <time>2012-07-31T09:30:57Z</time>
      </trkpt>
      <trkpt lat="45.83443" lon="13.84077">
        <ele>131.36</ele>
        <time>2012-07-31T09:31:00Z</time>
      </trkpt>
      <trkpt lat="45.83456" lon="13.84075">
        <ele>131.36</ele>
        <time>2012-07-31T09:31:01Z</time>
      </trkpt>
      <trkpt lat="45.83468" lon="13.84071">
        <ele>131.36</ele>
        <time>2012-07-31T09:31:02Z</time>
      </trkpt>
      <trkpt lat="45.8348" lon="13.84065">
        <ele>131.84</ele>
        <time>2012-07-31T09:31:03Z</time>
      </trkpt>
      <trkpt lat="45.83492" lon="13.84055">
        <ele>131.84</ele>
        <time>2012-07-31T09:31:04Z</time>
      </trkpt>
      <trkpt lat="45.83503" lon="13.84044">
        <ele>131.84</ele>
        <time>2012-07-31T09:31:05Z</time>
      </trkpt>
      <trkpt lat="45.83514" lon="13.84033">
        <ele>131.36</ele>
        <time>2012-07-31T09:31:06Z</time>
      </trkpt>
      <trkpt lat="45.83612" lon="13.83961">
        <ele>129.92</ele>
        <time>2012-07-31T09:31:14Z</time>
      </trkpt>
      <trkpt lat="45.83619" lon="13.83952">
        <ele>128.95</ele>
        <time>2012-07-31T09:31:15Z</time>
      </trkpt>
      <trkpt lat="45.83624" lon="13.83943">
        <ele>128.47</ele>
        <time>2012-07-31T09:31:16Z</time>
      </trkpt>
      <trkpt lat="45.83628" lon="13.83934">
        <ele>128.47</ele>
        <time>2012-07-31T09:31:17Z</time>
      </trkpt>
      <trkpt lat="45.83631" lon="13.83923">
        <ele>128.95</ele>
        <time>2012-07-31T09:31:18Z</time>
      </trkpt>
      <trkpt lat="45.83635" lon="13.83911">
        <ele>128.47</ele>
        <time>2012-07-31T09:31:19Z</time>
      </trkpt>
      <trkpt lat="45.83639" lon="13.83887">
        <ele>127.03</ele>
        <time>2012-07-31T09:31:21Z</time>
      </trkpt>
      <trkpt lat="45.83639" lon="13.8385">
        <ele>125.11</ele>
        <time>2012-07-31T09:31:24Z</time>
      </trkpt>
      <trkpt lat="45.8364" lon="13.83842">
        <ele>125.11</ele>
        <time>2012-07-31T09:31:25Z</time>
      </trkpt>
      <trkpt lat="45.83636" lon="13.83832">
        <ele>125.11</ele>
        <time>2012-07-31T09:31:26Z</time>
      </trkpt>
      <trkpt lat="45.83642" lon="13.83809">
        <ele>126.55</ele>
        <time>2012-07-31T09:31:29Z</time>
      </trkpt>
      <trkpt lat="45.83647" lon="13.83799">
        <ele>126.55</ele>
        <time>2012-07-31T09:31:30Z</time>
      </trkpt>
      <trkpt lat="45.83654" lon="13.8379">
        <ele>126.55</ele>
        <time>2012-07-31T09:31:31Z</time>
      </trkpt>
      <trkpt lat="45.83662" lon="13.83785">
        <ele>125.59</ele>
        <time>2012-07-31T09:31:32Z</time>
      </trkpt>
      <trkpt lat="45.83672" lon="13.83783">
        <ele>125.11</ele>
        <time>2012-07-31T09:31:33Z</time>
      </trkpt>
      <trkpt lat="45.83682" lon="13.83787">
        <ele>125.11</ele>
        <time>2012-07-31T09:31:34Z</time>
      </trkpt>
      <trkpt lat="45.8369" lon="13.83795">
        <ele>124.63</ele>
        <time>2012-07-31T09:31:35Z</time>
      </trkpt>
      <trkpt lat="45.83697" lon="13.83804">
        <ele>123.67</ele>
        <time>2012-07-31T09:31:36Z</time>
      </trkpt>
      <trkpt lat="45.83703" lon="13.83813">
        <ele>123.19</ele>
        <time>2012-07-31T09:31:37Z</time>
      </trkpt>
      <trkpt lat="45.8371" lon="13.83819">
        <ele>123.19</ele>
        <time>2012-07-31T09:31:38Z</time>
      </trkpt>
      <trkpt lat="45.83717" lon="13.83821">
        <ele>123.19</ele>
        <time>2012-07-31T09:31:39Z</time>
      </trkpt>
      <trkpt lat="45.83727" lon="13.8382">
        <ele>123.67</ele>
        <time>2012-07-31T09:31:40Z</time>
      </trkpt>
      <trkpt lat="45.83737" lon="13.83818">
        <ele>123.67</ele>
        <time>2012-07-31T09:31:41Z</time>
      </trkpt>
      <trkpt lat="45.83746" lon="13.83817">
        <ele>123.19</ele>
        <time>2012-07-31T09:31:42Z</time>
      </trkpt>
      <trkpt lat="45.83755" lon="13.83816">
        <ele>122.22</ele>
        <time>2012-07-31T09:31:43Z</time>
      </trkpt>
      <trkpt lat="45.83762" lon="13.8381">
        <ele>121.26</ele>
        <time>2012-07-31T09:31:44Z</time>
      </trkpt>
      <trkpt lat="45.83768" lon="13.83801">
        <ele>121.26</ele>
        <time>2012-07-31T09:31:45Z</time>
      </trkpt>
      <trkpt lat="45.8377" lon="13.8379">
        <ele>120.78</ele>
        <time>2012-07-31T09:31:46Z</time>
      </trkpt>
      <trkpt lat="45.83769" lon="13.83778">
        <ele>120.78</ele>
        <time>2012-07-31T09:31:47Z</time>
      </trkpt>
      <trkpt lat="45.83767" lon="13.83764">
        <ele>120.3</ele>
        <time>2012-07-31T09:31:48Z</time>
      </trkpt>
      <trkpt lat="45.83765" lon="13.83749">
        <ele>120.3</ele>
        <time>2012-07-31T09:31:49Z</time>
      </trkpt>
      <trkpt lat="45.83766" lon="13.83734">
        <ele>119.82</ele>
        <time>2012-07-31T09:31:50Z</time>
      </trkpt>
      <trkpt lat="45.83769" lon="13.83718">
        <ele>120.3</ele>
        <time>2012-07-31T09:31:51Z</time>
      </trkpt>
      <trkpt lat="45.8381" lon="13.83548">
        <ele>121.74</ele>
        <time>2012-07-31T09:32:01Z</time>
      </trkpt>
      <trkpt lat="45.83867" lon="13.83385">
        <ele>123.19</ele>
        <time>2012-07-31T09:32:09Z</time>
      </trkpt>
      <trkpt lat="45.83871" lon="13.83362">
        <ele>123.19</ele>
        <time>2012-07-31T09:32:10Z</time>
      </trkpt>
      <trkpt lat="45.83884" lon="13.83269">
        <ele>124.63</ele>
        <time>2012-07-31T09:32:14Z</time>
      </trkpt>
      <trkpt lat="45.83892" lon="13.83224">
        <ele>124.15</ele>
        <time>2012-07-31T09:32:16Z</time>
      </trkpt>
      <trkpt lat="45.83899" lon="13.83202">
        <ele>121.74</ele>
        <time>2012-07-31T09:32:17Z</time>
      </trkpt>
      <trkpt lat="45.83906" lon="13.83181">
        <ele>122.22</ele>
        <time>2012-07-31T09:32:18Z</time>
      </trkpt>
      <trkpt lat="45.83973" lon="13.83019">
        <ele>118.38</ele>
        <time>2012-07-31T09:32:26Z</time>
      </trkpt>
      <trkpt lat="45.83983" lon="13.83007">
        <ele>117.9</ele>
        <time>2012-07-31T09:32:27Z</time>
      </trkpt>
      <trkpt lat="45.83993" lon="13.82998">
        <ele>117.9</ele>
        <time>2012-07-31T09:32:28Z</time>
      </trkpt>
      <trkpt lat="45.84006" lon="13.82994">
        <ele>117.42</ele>
        <time>2012-07-31T09:32:29Z</time>
      </trkpt>
      <trkpt lat="45.8402" lon="13.82995">
        <ele>117.9</ele>
        <time>2012-07-31T09:32:30Z</time>
      </trkpt>
      <trkpt lat="45.84034" lon="13.82998">
        <ele>118.38</ele>
        <time>2012-07-31T09:32:31Z</time>
      </trkpt>
      <trkpt lat="45.84076" lon="13.83005">
        <ele>118.38</ele>
        <time>2012-07-31T09:32:34Z</time>
      </trkpt>
      <trkpt lat="45.8409" lon="13.83004">
        <ele>118.38</ele>
        <time>2012-07-31T09:32:35Z</time>
      </trkpt>
      <trkpt lat="45.84103" lon="13.82998">
        <ele>118.38</ele>
        <time>2012-07-31T09:32:36Z</time>
      </trkpt>
      <trkpt lat="45.84116" lon="13.82989">
        <ele>118.86</ele>
        <time>2012-07-31T09:32:37Z</time>
      </trkpt>
      <trkpt lat="45.84129" lon="13.82977">
        <ele>118.38</ele>
        <time>2012-07-31T09:32:38Z</time>
      </trkpt>
      <trkpt lat="45.84142" lon="13.82965">
        <ele>118.38</ele>
        <time>2012-07-31T09:32:39Z</time>
      </trkpt>
      <trkpt lat="45.84198" lon="13.82914">
        <ele>121.74</ele>
        <time>2012-07-31T09:32:43Z</time>
      </trkpt>
      <trkpt lat="45.84223" lon="13.82891">
        <ele>118.86</ele>
        <time>2012-07-31T09:32:45Z</time>
      </trkpt>
      <trkpt lat="45.84247" lon="13.82868">
        <ele>116.46</ele>
        <time>2012-07-31T09:32:47Z</time>
      </trkpt>
      <trkpt lat="45.84349" lon="13.82759">
        <ele>113.09</ele>
        <time>2012-07-31T09:32:55Z</time>
      </trkpt>
      <trkpt lat="45.8436" lon="13.82745">
        <ele>113.09</ele>
        <time>2012-07-31T09:32:56Z</time>
      </trkpt>
      <trkpt lat="45.84369" lon="13.82731">
        <ele>113.09</ele>
        <time>2012-07-31T09:32:57Z</time>
      </trkpt>
      <trkpt lat="45.84377" lon="13.82715">
        <ele>113.09</ele>
        <time>2012-07-31T09:32:58Z</time>
      </trkpt>
      <trkpt lat="45.844" lon="13.82652">
        <ele>110.21</ele>
        <time>2012-07-31T09:33:03Z</time>
      </trkpt>
      <trkpt lat="45.844" lon="13.82642">
        <ele>110.21</ele>
        <time>2012-07-31T09:33:04Z</time>
      </trkpt>
      <trkpt lat="45.84398" lon="13.82629">
        <ele>111.17</ele>
        <time>2012-07-31T09:33:05Z</time>
      </trkpt>
      <trkpt lat="45.84397" lon="13.82614">
        <ele>111.17</ele>
        <time>2012-07-31T09:33:06Z</time>
      </trkpt>
      <trkpt lat="45.84395" lon="13.82597">
        <ele>111.65</ele>
        <time>2012-07-31T09:33:07Z</time>
      </trkpt>
      <trkpt lat="45.84395" lon="13.82579">
        <ele>112.13</ele>
        <time>2012-07-31T09:33:08Z</time>
      </trkpt>
      <trkpt lat="45.84397" lon="13.8256">
        <ele>111.65</ele>
        <time>2012-07-31T09:33:09Z</time>
      </trkpt>
      <trkpt lat="45.84399" lon="13.82541">
        <ele>111.65</ele>
        <time>2012-07-31T09:33:10Z</time>
      </trkpt>
      <trkpt lat="45.84403" lon="13.8252">
        <ele>112.13</ele>
        <time>2012-07-31T09:33:11Z</time>
      </trkpt>
      <trkpt lat="45.84433" lon="13.82361">
        <ele>113.09</ele>
        <time>2012-07-31T09:33:18Z</time>
      </trkpt>
      <trkpt lat="45.84441" lon="13.82339">
        <ele>113.57</ele>
        <time>2012-07-31T09:33:19Z</time>
      </trkpt>
      <trkpt lat="45.8445" lon="13.82318">
        <ele>113.09</ele>
        <time>2012-07-31T09:33:20Z</time>
      </trkpt>
      <trkpt lat="45.8446" lon="13.82297">
        <ele>113.57</ele>
        <time>2012-07-31T09:33:21Z</time>
      </trkpt>
      <trkpt lat="45.84471" lon="13.82276">
        <ele>113.09</ele>
        <time>2012-07-31T09:33:22Z</time>
      </trkpt>
      <trkpt lat="45.8453" lon="13.8217">
        <ele>114.05</ele>
        <time>2012-07-31T09:33:27Z</time>
      </trkpt>
      <trkpt lat="45.84601" lon="13.8204">
        <ele>112.13</ele>
        <time>2012-07-31T09:33:33Z</time>
      </trkpt>
      <trkpt lat="45.84684" lon="13.8189">
        <ele>108.77</ele>
        <time>2012-07-31T09:33:40Z</time>
      </trkpt>
      <trkpt lat="45.84694" lon="13.81871">
        <ele>108.77</ele>
        <time>2012-07-31T09:33:41Z</time>
      </trkpt>
      <trkpt lat="45.84719" lon="13.81834">
        <ele>110.21</ele>
        <time>2012-07-31T09:33:43Z</time>
      </trkpt>
      <trkpt lat="45.84785" lon="13.81742">
        <ele>109.73</ele>
        <time>2012-07-31T09:33:49Z</time>
      </trkpt>
      <trkpt lat="45.84792" lon="13.81726">
        <ele>110.21</ele>
        <time>2012-07-31T09:33:50Z</time>
      </trkpt>
      <trkpt lat="45.84797" lon="13.81708">
        <ele>110.69</ele>
        <time>2012-07-31T09:33:51Z</time>
      </trkpt>
      <trkpt lat="45.84799" lon="13.81689">
        <ele>110.69</ele>
        <time>2012-07-31T09:33:52Z</time>
      </trkpt>
      <trkpt lat="45.84798" lon="13.81672">
        <ele>109.73</ele>
        <time>2012-07-31T09:33:53Z</time>
      </trkpt>
      <trkpt lat="45.84795" lon="13.81656">
        <ele>109.25</ele>
        <time>2012-07-31T09:33:54Z</time>
      </trkpt>
      <trkpt lat="45.84789" lon="13.81639">
        <ele>109.25</ele>
        <time>2012-07-31T09:33:55Z</time>
      </trkpt>
      <trkpt lat="45.84784" lon="13.81622">
        <ele>108.77</ele>
        <time>2012-07-31T09:33:56Z</time>
      </trkpt>
      <trkpt lat="45.84782" lon="13.81604">
        <ele>109.25</ele>
        <time>2012-07-31T09:33:57Z</time>
      </trkpt>
      <trkpt lat="45.84782" lon="13.81583">
        <ele>109.73</ele>
        <time>2012-07-31T09:33:58Z</time>
      </trkpt>
      <trkpt lat="45.84783" lon="13.81561">
        <ele>110.21</ele>
        <time>2012-07-31T09:33:59Z</time>
      </trkpt>
      <trkpt lat="45.84786" lon="13.81538">
        <ele>110.21</ele>
        <time>2012-07-31T09:34:00Z</time>
      </trkpt>
      <trkpt lat="45.84814" lon="13.81322">
        <ele>107.81</ele>
        <time>2012-07-31T09:34:09Z</time>
      </trkpt>
      <trkpt lat="45.84873" lon="13.81092">
        <ele>106.36</ele>
        <time>2012-07-31T09:34:18Z</time>
      </trkpt>
      <trkpt lat="45.84884" lon="13.8107">
        <ele>105.4</ele>
        <time>2012-07-31T09:34:19Z</time>
      </trkpt>
      <trkpt lat="45.84917" lon="13.81009">
        <ele>106.36</ele>
        <time>2012-07-31T09:34:22Z</time>
      </trkpt>
      <trkpt lat="45.84929" lon="13.80994">
        <ele>105.4</ele>
        <time>2012-07-31T09:34:23Z</time>
      </trkpt>
      <trkpt lat="45.84942" lon="13.80982">
        <ele>105.88</ele>
        <time>2012-07-31T09:34:24Z</time>
      </trkpt>
      <trkpt lat="45.84956" lon="13.80974">
        <ele>105.4</ele>
        <time>2012-07-31T09:34:25Z</time>
      </trkpt>
      <trkpt lat="45.84971" lon="13.80968">
        <ele>105.88</ele>
        <time>2012-07-31T09:34:26Z</time>
      </trkpt>
      <trkpt lat="45.84985" lon="13.80958">
        <ele>105.88</ele>
        <time>2012-07-31T09:34:27Z</time>
      </trkpt>
      <trkpt lat="45.84997" lon="13.80944">
        <ele>107.32</ele>
        <time>2012-07-31T09:34:28Z</time>
      </trkpt>
      <trkpt lat="45.85007" lon="13.80927">
        <ele>107.32</ele>
        <time>2012-07-31T09:34:29Z</time>
      </trkpt>
      <trkpt lat="45.85017" lon="13.80908">
        <ele>106.84</ele>
        <time>2012-07-31T09:34:30Z</time>
      </trkpt>
      <trkpt lat="45.85036" lon="13.80869">
        <ele>106.36</ele>
        <time>2012-07-31T09:34:32Z</time>
      </trkpt>
      <trkpt lat="45.85043" lon="13.80847">
        <ele>106.84</ele>
        <time>2012-07-31T09:34:33Z</time>
      </trkpt>
      <trkpt lat="45.85092" lon="13.80694">
        <ele>103</ele>
        <time>2012-07-31T09:34:40Z</time>
      </trkpt>
      <trkpt lat="45.85115" lon="13.80635">
        <ele>101.08</ele>
        <time>2012-07-31T09:34:43Z</time>
      </trkpt>
      <trkpt lat="45.85155" lon="13.80497">
        <ele>100.6</ele>
        <time>2012-07-31T09:34:51Z</time>
      </trkpt>
      <trkpt lat="45.85162" lon="13.80474">
        <ele>98.19</ele>
        <time>2012-07-31T09:34:54Z</time>
      </trkpt>
      <trkpt lat="45.85165" lon="13.8047">
        <ele>98.67</ele>
        <time>2012-07-31T09:35:01Z</time>
      </trkpt>
      <trkpt lat="45.85185" lon="13.8046">
        <ele>98.19</ele>
        <time>2012-07-31T09:35:16Z</time>
      </trkpt>
      <trkpt lat="45.85193" lon="13.80454">
        <ele>98.19</ele>
        <time>2012-07-31T09:35:17Z</time>
      </trkpt>
      <trkpt lat="45.85202" lon="13.80447">
        <ele>98.19</ele>
        <time>2012-07-31T09:35:18Z</time>
      </trkpt>
      <trkpt lat="45.85211" lon="13.80437">
        <ele>98.67</ele>
        <time>2012-07-31T09:35:19Z</time>
      </trkpt>
      <trkpt lat="45.85219" lon="13.80424">
        <ele>98.19</ele>
        <time>2012-07-31T09:35:20Z</time>
      </trkpt>
      <trkpt lat="45.85228" lon="13.80411">
        <ele>98.67</ele>
        <time>2012-07-31T09:35:21Z</time>
      </trkpt>
      <trkpt lat="45.85237" lon="13.80395">
        <ele>98.19</ele>
        <time>2012-07-31T09:35:22Z</time>
      </trkpt>
      <trkpt lat="45.85245" lon="13.80378">
        <ele>98.67</ele>
        <time>2012-07-31T09:35:23Z</time>
      </trkpt>
      <trkpt lat="45.85253" lon="13.80359">
        <ele>99.63</ele>
        <time>2012-07-31T09:35:24Z</time>
      </trkpt>
      <trkpt lat="45.85337" lon="13.80199">
        <ele>98.19</ele>
        <time>2012-07-31T09:35:32Z</time>
      </trkpt>
      <trkpt lat="45.85364" lon="13.80158">
        <ele>99.63</ele>
        <time>2012-07-31T09:35:34Z</time>
      </trkpt>
      <trkpt lat="45.85402" lon="13.80099">
        <ele>101.56</ele>
        <time>2012-07-31T09:35:37Z</time>
      </trkpt>
      <trkpt lat="45.85442" lon="13.80039">
        <ele>103</ele>
        <time>2012-07-31T09:35:40Z</time>
      </trkpt>
      <trkpt lat="45.85534" lon="13.79889">
        <ele>106.36</ele>
        <time>2012-07-31T09:35:47Z</time>
      </trkpt>
      <trkpt lat="45.85543" lon="13.79864">
        <ele>106.36</ele>
        <time>2012-07-31T09:35:48Z</time>
      </trkpt>
      <trkpt lat="45.85549" lon="13.79838">
        <ele>105.4</ele>
        <time>2012-07-31T09:35:49Z</time>
      </trkpt>
      <trkpt lat="45.85614" lon="13.79587">
        <ele>103</ele>
        <time>2012-07-31T09:35:58Z</time>
      </trkpt>
      <trkpt lat="45.85631" lon="13.79532">
        <ele>102.04</ele>
        <time>2012-07-31T09:36:00Z</time>
      </trkpt>
      <trkpt lat="45.85716" lon="13.79337">
        <ele>103.48</ele>
        <time>2012-07-31T09:36:08Z</time>
      </trkpt>
      <trkpt lat="45.85745" lon="13.7927">
        <ele>99.15</ele>
        <time>2012-07-31T09:36:11Z</time>
      </trkpt>
      <trkpt lat="45.8581" lon="13.79087">
        <ele>97.23</ele>
        <time>2012-07-31T09:36:19Z</time>
      </trkpt>
      <trkpt lat="45.85839" lon="13.78965">
        <ele>93.87</ele>
        <time>2012-07-31T09:36:24Z</time>
      </trkpt>
      <trkpt lat="45.85881" lon="13.788">
        <ele>90.5</ele>
        <time>2012-07-31T09:36:31Z</time>
      </trkpt>
      <trkpt lat="45.85891" lon="13.78767">
        <ele>89.54</ele>
        <time>2012-07-31T09:36:33Z</time>
      </trkpt>
      <trkpt lat="45.85898" lon="13.78753">
        <ele>89.06</ele>
        <time>2012-07-31T09:36:34Z</time>
      </trkpt>
      <trkpt lat="45.85908" lon="13.78741">
        <ele>89.54</ele>
        <time>2012-07-31T09:36:35Z</time>
      </trkpt>
      <trkpt lat="45.85919" lon="13.78732">
        <ele>91.46</ele>
        <time>2012-07-31T09:36:36Z</time>
      </trkpt>
      <trkpt lat="45.85933" lon="13.78724">
        <ele>92.42</ele>
        <time>2012-07-31T09:36:37Z</time>
      </trkpt>
      <trkpt lat="45.85961" lon="13.78705">
        <ele>93.39</ele>
        <time>2012-07-31T09:36:39Z</time>
      </trkpt>
      <trkpt lat="45.86058" lon="13.7862">
        <ele>93.87</ele>
        <time>2012-07-31T09:36:46Z</time>
      </trkpt>
      <trkpt lat="45.86069" lon="13.78604">
        <ele>94.83</ele>
        <time>2012-07-31T09:36:47Z</time>
      </trkpt>
      <trkpt lat="45.86079" lon="13.78586">
        <ele>94.83</ele>
        <time>2012-07-31T09:36:48Z</time>
      </trkpt>
      <trkpt lat="45.8612" lon="13.78517">
        <ele>91.94</ele>
        <time>2012-07-31T09:36:52Z</time>
      </trkpt>
      <trkpt lat="45.86132" lon="13.78505">
        <ele>90.98</ele>
        <time>2012-07-31T09:36:53Z</time>
      </trkpt>
      <trkpt lat="45.86145" lon="13.78495">
        <ele>91.46</ele>
        <time>2012-07-31T09:36:54Z</time>
      </trkpt>
      <trkpt lat="45.86159" lon="13.78489">
        <ele>91.46</ele>
        <time>2012-07-31T09:36:55Z</time>
      </trkpt>
      <trkpt lat="45.86172" lon="13.78482">
        <ele>90.5</ele>
        <time>2012-07-31T09:36:56Z</time>
      </trkpt>
      <trkpt lat="45.86184" lon="13.78473">
        <ele>90.5</ele>
        <time>2012-07-31T09:36:57Z</time>
      </trkpt>
      <trkpt lat="45.86195" lon="13.7846">
        <ele>91.46</ele>
        <time>2012-07-31T09:36:58Z</time>
      </trkpt>
      <trkpt lat="45.86204" lon="13.78444">
        <ele>90.02</ele>
        <time>2012-07-31T09:36:59Z</time>
      </trkpt>
      <trkpt lat="45.86213" lon="13.78426">
        <ele>90.5</ele>
        <time>2012-07-31T09:37:00Z</time>
      </trkpt>
      <trkpt lat="45.86273" lon="13.78304">
        <ele>90.02</ele>
        <time>2012-07-31T09:37:06Z</time>
      </trkpt>
      <trkpt lat="45.86324" lon="13.78233">
        <ele>89.06</ele>
        <time>2012-07-31T09:37:10Z</time>
      </trkpt>
      <trkpt lat="45.86338" lon="13.78219">
        <ele>90.5</ele>
        <time>2012-07-31T09:37:11Z</time>
      </trkpt>
      <trkpt lat="45.86354" lon="13.78208">
        <ele>89.54</ele>
        <time>2012-07-31T09:37:12Z</time>
      </trkpt>
      <trkpt lat="45.86371" lon="13.78199">
        <ele>90.02</ele>
        <time>2012-07-31T09:37:13Z</time>
      </trkpt>
      <trkpt lat="45.86389" lon="13.78191">
        <ele>90.98</ele>
        <time>2012-07-31T09:37:14Z</time>
      </trkpt>
      <trkpt lat="45.86408" lon="13.78184">
        <ele>90.98</ele>
        <time>2012-07-31T09:37:15Z</time>
      </trkpt>
      <trkpt lat="45.86461" lon="13.78162">
        <ele>89.54</ele>
        <time>2012-07-31T09:37:18Z</time>
      </trkpt>
      <trkpt lat="45.86478" lon="13.7815">
        <ele>88.58</ele>
        <time>2012-07-31T09:37:19Z</time>
      </trkpt>
      <trkpt lat="45.86493" lon="13.78134">
        <ele>89.06</ele>
        <time>2012-07-31T09:37:20Z</time>
      </trkpt>
      <trkpt lat="45.86618" lon="13.78035">
        <ele>91.46</ele>
        <time>2012-07-31T09:37:27Z</time>
      </trkpt>
      <trkpt lat="45.86649" lon="13.78006">
        <ele>91.46</ele>
        <time>2012-07-31T09:37:29Z</time>
      </trkpt>
      <trkpt lat="45.86662" lon="13.77987">
        <ele>91.46</ele>
        <time>2012-07-31T09:37:30Z</time>
      </trkpt>
      <trkpt lat="45.86674" lon="13.77966">
        <ele>91.46</ele>
        <time>2012-07-31T09:37:31Z</time>
      </trkpt>
      <trkpt lat="45.86683" lon="13.77943">
        <ele>90.98</ele>
        <time>2012-07-31T09:37:32Z</time>
      </trkpt>
      <trkpt lat="45.8669" lon="13.77916">
        <ele>90.98</ele>
        <time>2012-07-31T09:37:33Z</time>
      </trkpt>
      <trkpt lat="45.86695" lon="13.77887">
        <ele>90.5</ele>
        <time>2012-07-31T09:37:34Z</time>
      </trkpt>
      <trkpt lat="45.86698" lon="13.77857">
        <ele>90.5</ele>
        <time>2012-07-31T09:37:35Z</time>
      </trkpt>
      <trkpt lat="45.867" lon="13.77827">
        <ele>90.02</ele>
        <time>2012-07-31T09:37:36Z</time>
      </trkpt>
      <trkpt lat="45.86732" lon="13.77677">
        <ele>86.66</ele>
        <time>2012-07-31T09:37:41Z</time>
      </trkpt>
      <trkpt lat="45.86741" lon="13.77647">
        <ele>86.18</ele>
        <time>2012-07-31T09:37:42Z</time>
      </trkpt>
      <trkpt lat="45.86795" lon="13.77505">
        <ele>85.69</ele>
        <time>2012-07-31T09:37:47Z</time>
      </trkpt>
      <trkpt lat="45.86892" lon="13.77292">
        <ele>84.73</ele>
        <time>2012-07-31T09:37:55Z</time>
      </trkpt>
      <trkpt lat="45.86907" lon="13.77271">
        <ele>84.73</ele>
        <time>2012-07-31T09:37:56Z</time>
      </trkpt>
      <trkpt lat="45.86925" lon="13.77252">
        <ele>85.21</ele>
        <time>2012-07-31T09:37:57Z</time>
      </trkpt>
      <trkpt lat="45.86979" lon="13.77195">
        <ele>85.21</ele>
        <time>2012-07-31T09:38:00Z</time>
      </trkpt>
      <trkpt lat="45.86995" lon="13.77172">
        <ele>86.18</ele>
        <time>2012-07-31T09:38:01Z</time>
      </trkpt>
      <trkpt lat="45.87114" lon="13.76929">
        <ele>87.14</ele>
        <time>2012-07-31T09:38:10Z</time>
      </trkpt>
      <trkpt lat="45.87178" lon="13.76754">
        <ele>87.14</ele>
        <time>2012-07-31T09:38:16Z</time>
      </trkpt>
      <trkpt lat="45.87239" lon="13.76639">
        <ele>85.21</ele>
        <time>2012-07-31T09:38:21Z</time>
      </trkpt>
      <trkpt lat="45.87252" lon="13.76621">
        <ele>86.18</ele>
        <time>2012-07-31T09:38:22Z</time>
      </trkpt>
      <trkpt lat="45.87267" lon="13.76605">
        <ele>85.69</ele>
        <time>2012-07-31T09:38:23Z</time>
      </trkpt>
      <trkpt lat="45.87285" lon="13.7659">
        <ele>85.69</ele>
        <time>2012-07-31T09:38:24Z</time>
      </trkpt>
      <trkpt lat="45.87303" lon="13.76577">
        <ele>86.18</ele>
        <time>2012-07-31T09:38:25Z</time>
      </trkpt>
      <trkpt lat="45.87362" lon="13.76532">
        <ele>84.25</ele>
        <time>2012-07-31T09:38:28Z</time>
      </trkpt>
      <trkpt lat="45.87514" lon="13.76369">
        <ele>83.77</ele>
        <time>2012-07-31T09:38:37Z</time>
      </trkpt>
      <trkpt lat="45.87524" lon="13.76346">
        <ele>82.81</ele>
        <time>2012-07-31T09:38:38Z</time>
      </trkpt>
      <trkpt lat="45.87533" lon="13.76322">
        <ele>82.33</ele>
        <time>2012-07-31T09:38:39Z</time>
      </trkpt>
      <trkpt lat="45.87539" lon="13.76296">
        <ele>81.37</ele>
        <time>2012-07-31T09:38:40Z</time>
      </trkpt>
      <trkpt lat="45.87542" lon="13.76268">
        <ele>81.85</ele>
        <time>2012-07-31T09:38:41Z</time>
      </trkpt>
      <trkpt lat="45.87543" lon="13.76241">
        <ele>80.41</ele>
        <time>2012-07-31T09:38:42Z</time>
      </trkpt>
      <trkpt lat="45.87543" lon="13.76213">
        <ele>80.89</ele>
        <time>2012-07-31T09:38:43Z</time>
      </trkpt>
      <trkpt lat="45.87544" lon="13.76155">
        <ele>82.33</ele>
        <time>2012-07-31T09:38:45Z</time>
      </trkpt>
      <trkpt lat="45.87546" lon="13.76126">
        <ele>80.89</ele>
        <time>2012-07-31T09:38:46Z</time>
      </trkpt>
      <trkpt lat="45.8755" lon="13.76097">
        <ele>81.37</ele>
        <time>2012-07-31T09:38:47Z</time>
      </trkpt>
      <trkpt lat="45.87557" lon="13.76071">
        <ele>79.45</ele>
        <time>2012-07-31T09:38:48Z</time>
      </trkpt>
      <trkpt lat="45.87567" lon="13.76048">
        <ele>79.93</ele>
        <time>2012-07-31T09:38:49Z</time>
      </trkpt>
      <trkpt lat="45.87579" lon="13.76025">
        <ele>80.41</ele>
        <time>2012-07-31T09:38:50Z</time>
      </trkpt>
      <trkpt lat="45.87589" lon="13.76">
        <ele>81.85</ele>
        <time>2012-07-31T09:38:51Z</time>
      </trkpt>
      <trkpt lat="45.87596" lon="13.75973">
        <ele>81.85</ele>
        <time>2012-07-31T09:38:52Z</time>
      </trkpt>
      <trkpt lat="45.876" lon="13.75945">
        <ele>81.85</ele>
        <time>2012-07-31T09:38:53Z</time>
      </trkpt>
      <trkpt lat="45.87606" lon="13.75834">
        <ele>82.33</ele>
        <time>2012-07-31T09:38:58Z</time>
      </trkpt>
      <trkpt lat="45.87603" lon="13.75817">
        <ele>82.81</ele>
        <time>2012-07-31T09:38:59Z</time>
      </trkpt>
      <trkpt lat="45.87597" lon="13.75803">
        <ele>84.25</ele>
        <time>2012-07-31T09:39:00Z</time>
      </trkpt>
      <trkpt lat="45.8759" lon="13.75793">
        <ele>85.21</ele>
        <time>2012-07-31T09:39:01Z</time>
      </trkpt>
      <trkpt lat="45.87584" lon="13.75783">
        <ele>84.73</ele>
        <time>2012-07-31T09:39:02Z</time>
      </trkpt>
      <trkpt lat="45.8758" lon="13.75773">
        <ele>85.21</ele>
        <time>2012-07-31T09:39:03Z</time>
      </trkpt>
      <trkpt lat="45.87579" lon="13.75762">
        <ele>84.25</ele>
        <time>2012-07-31T09:39:04Z</time>
      </trkpt>
      <trkpt lat="45.87582" lon="13.75749">
        <ele>84.73</ele>
        <time>2012-07-31T09:39:05Z</time>
      </trkpt>
      <trkpt lat="45.87587" lon="13.75736">
        <ele>83.77</ele>
        <time>2012-07-31T09:39:06Z</time>
      </trkpt>
      <trkpt lat="45.87592" lon="13.75723">
        <ele>83.77</ele>
        <time>2012-07-31T09:39:07Z</time>
      </trkpt>
      <trkpt lat="45.87629" lon="13.75629">
        <ele>81.37</ele>
        <time>2012-07-31T09:39:13Z</time>
      </trkpt>
      <trkpt lat="45.87649" lon="13.75568">
        <ele>80.41</ele>
        <time>2012-07-31T09:39:16Z</time>
      </trkpt>
      <trkpt lat="45.87653" lon="13.75547">
        <ele>80.41</ele>
        <time>2012-07-31T09:39:17Z</time>
      </trkpt>
      <trkpt lat="45.87655" lon="13.75526">
        <ele>79.93</ele>
        <time>2012-07-31T09:39:18Z</time>
      </trkpt>
      <trkpt lat="45.87657" lon="13.75442">
        <ele>80.41</ele>
        <time>2012-07-31T09:39:22Z</time>
      </trkpt>
      <trkpt lat="45.8766" lon="13.75421">
        <ele>80.89</ele>
        <time>2012-07-31T09:39:23Z</time>
      </trkpt>
      <trkpt lat="45.87665" lon="13.75401">
        <ele>81.37</ele>
        <time>2012-07-31T09:39:24Z</time>
      </trkpt>
      <trkpt lat="45.87672" lon="13.75382">
        <ele>81.37</ele>
        <time>2012-07-31T09:39:25Z</time>
      </trkpt>
      <trkpt lat="45.87681" lon="13.75363">
        <ele>81.37</ele>
        <time>2012-07-31T09:39:26Z</time>
      </trkpt>
      <trkpt lat="45.87734" lon="13.75271">
        <ele>81.85</ele>
        <time>2012-07-31T09:39:31Z</time>
      </trkpt>
      <trkpt lat="45.87751" lon="13.75241">
        <ele>81.85</ele>
        <time>2012-07-31T09:39:33Z</time>
      </trkpt>
      <trkpt lat="45.87758" lon="13.75225">
        <ele>83.29</ele>
        <time>2012-07-31T09:39:34Z</time>
      </trkpt>
      <trkpt lat="45.87765" lon="13.75208">
        <ele>82.81</ele>
        <time>2012-07-31T09:39:35Z</time>
      </trkpt>
      <trkpt lat="45.8777" lon="13.75189">
        <ele>83.77</ele>
        <time>2012-07-31T09:39:36Z</time>
      </trkpt>
      <trkpt lat="45.87774" lon="13.75169">
        <ele>83.29</ele>
        <time>2012-07-31T09:39:37Z</time>
      </trkpt>
      <trkpt lat="45.87776" lon="13.75148">
        <ele>83.77</ele>
        <time>2012-07-31T09:39:38Z</time>
      </trkpt>
      <trkpt lat="45.87776" lon="13.75128">
        <ele>83.29</ele>
        <time>2012-07-31T09:39:39Z</time>
      </trkpt>
      <trkpt lat="45.87776" lon="13.75107">
        <ele>83.29</ele>
        <time>2012-07-31T09:39:40Z</time>
      </trkpt>
      <trkpt lat="45.87775" lon="13.75086">
        <ele>82.33</ele>
        <time>2012-07-31T09:39:41Z</time>
      </trkpt>
      <trkpt lat="45.87775" lon="13.75065">
        <ele>81.85</ele>
        <time>2012-07-31T09:39:42Z</time>
      </trkpt>
      <trkpt lat="45.87788" lon="13.74926">
        <ele>79.45</ele>
        <time>2012-07-31T09:39:49Z</time>
      </trkpt>
      <trkpt lat="45.87793" lon="13.74741">
        <ele>79.93</ele>
        <time>2012-07-31T09:39:58Z</time>
      </trkpt>
      <trkpt lat="45.88118" lon="13.74097">
        <ele>104.92</ele>
        <time>2012-07-31T09:45:08Z</time>
      </trkpt>
      <trkpt lat="45.8813" lon="13.74087">
        <ele>104.92</ele>
        <time>2012-07-31T09:45:09Z</time>
      </trkpt>
      <trkpt lat="45.88154" lon="13.74068">
        <ele>106.84</ele>
        <time>2012-07-31T09:45:11Z</time>
      </trkpt>
      <trkpt lat="45.88167" lon="13.74061">
        <ele>107.32</ele>
        <time>2012-07-31T09:45:12Z</time>
      </trkpt>
      <trkpt lat="45.88242" lon="13.7401">
        <ele>108.77</ele>
        <time>2012-07-31T09:45:17Z</time>
      </trkpt>
      <trkpt lat="45.88253" lon="13.73992">
        <ele>108.29</ele>
        <time>2012-07-31T09:45:18Z</time>
      </trkpt>
      <trkpt lat="45.88261" lon="13.73971">
        <ele>108.77</ele>
        <time>2012-07-31T09:45:19Z</time>
      </trkpt>
      <trkpt lat="45.88291" lon="13.73892">
        <ele>107.81</ele>
        <time>2012-07-31T09:45:23Z</time>
      </trkpt>
      <trkpt lat="45.88301" lon="13.73875">
        <ele>107.32</ele>
        <time>2012-07-31T09:45:24Z</time>
      </trkpt>
      <trkpt lat="45.88345" lon="13.73805">
        <ele>103</ele>
        <time>2012-07-31T09:45:28Z</time>
      </trkpt>
      <trkpt lat="45.88365" lon="13.73777">
        <ele>98.67</ele>
        <time>2012-07-31T09:45:30Z</time>
      </trkpt>
      <trkpt lat="45.88375" lon="13.73766">
        <ele>96.75</ele>
        <time>2012-07-31T09:45:31Z</time>
      </trkpt>
      <trkpt lat="45.88387" lon="13.73758">
        <ele>95.79</ele>
        <time>2012-07-31T09:45:32Z</time>
      </trkpt>
      <trkpt lat="45.88399" lon="13.73752">
        <ele>95.79</ele>
        <time>2012-07-31T09:45:33Z</time>
      </trkpt>
      <trkpt lat="45.88412" lon="13.73747">
        <ele>95.31</ele>
        <time>2012-07-31T09:45:34Z</time>
      </trkpt>
      <trkpt lat="45.88425" lon="13.7374">
        <ele>94.35</ele>
        <time>2012-07-31T09:45:35Z</time>
      </trkpt>
      <trkpt lat="45.88437" lon="13.7373">
        <ele>93.39</ele>
        <time>2012-07-31T09:45:36Z</time>
      </trkpt>
      <trkpt lat="45.88448" lon="13.73718">
        <ele>92.42</ele>
        <time>2012-07-31T09:45:37Z</time>
      </trkpt>
      <trkpt lat="45.88505" lon="13.73658">
        <ele>88.58</ele>
        <time>2012-07-31T09:45:42Z</time>
      </trkpt>
      <trkpt lat="45.88542" lon="13.73629">
        <ele>86.66</ele>
        <time>2012-07-31T09:45:45Z</time>
      </trkpt>
      <trkpt lat="45.88564" lon="13.73617">
        <ele>84.25</ele>
        <time>2012-07-31T09:45:47Z</time>
      </trkpt>
      <trkpt lat="45.88573" lon="13.73608">
        <ele>83.29</ele>
        <time>2012-07-31T09:45:48Z</time>
      </trkpt>
      <trkpt lat="45.88581" lon="13.73595">
        <ele>83.29</ele>
        <time>2012-07-31T09:45:49Z</time>
      </trkpt>
      <trkpt lat="45.88589" lon="13.7358">
        <ele>82.81</ele>
        <time>2012-07-31T09:45:50Z</time>
      </trkpt>
      <trkpt lat="45.88596" lon="13.73565">
        <ele>81.85</ele>
        <time>2012-07-31T09:45:51Z</time>
      </trkpt>
      <trkpt lat="45.88607" lon="13.73538">
        <ele>79.45</ele>
        <time>2012-07-31T09:45:53Z</time>
      </trkpt>
      <trkpt lat="45.8861" lon="13.73525">
        <ele>79.93</ele>
        <time>2012-07-31T09:45:54Z</time>
      </trkpt>
      <trkpt lat="45.88609" lon="13.73511">
        <ele>80.41</ele>
        <time>2012-07-31T09:45:55Z</time>
      </trkpt>
      <trkpt lat="45.88605" lon="13.73497">
        <ele>79.93</ele>
        <time>2012-07-31T09:45:56Z</time>
      </trkpt>
      <trkpt lat="45.88597" lon="13.73483">
        <ele>80.41</ele>
        <time>2012-07-31T09:45:57Z</time>
      </trkpt>
      <trkpt lat="45.88588" lon="13.73471">
        <ele>80.41</ele>
        <time>2012-07-31T09:45:58Z</time>
      </trkpt>
      <trkpt lat="45.88578" lon="13.7346">
        <ele>80.89</ele>
        <time>2012-07-31T09:45:59Z</time>
      </trkpt>
      <trkpt lat="45.88568" lon="13.7345">
        <ele>80.41</ele>
        <time>2012-07-31T09:46:00Z</time>
      </trkpt>
      <trkpt lat="45.88531" lon="13.7341">
        <ele>78.97</ele>
        <time>2012-07-31T09:46:04Z</time>
      </trkpt>
      <trkpt lat="45.88523" lon="13.73396">
        <ele>78</ele>
        <time>2012-07-31T09:46:05Z</time>
      </trkpt>
      <trkpt lat="45.88519" lon="13.73381">
        <ele>76.56</ele>
        <time>2012-07-31T09:46:06Z</time>
      </trkpt>
      <trkpt lat="45.88516" lon="13.73365">
        <ele>76.08</ele>
        <time>2012-07-31T09:46:07Z</time>
      </trkpt>
      <trkpt lat="45.88516" lon="13.73348">
        <ele>75.12</ele>
        <time>2012-07-31T09:46:08Z</time>
      </trkpt>
      <trkpt lat="45.88517" lon="13.73331">
        <ele>74.16</ele>
        <time>2012-07-31T09:46:09Z</time>
      </trkpt>
      <trkpt lat="45.8852" lon="13.73315">
        <ele>73.68</ele>
        <time>2012-07-31T09:46:10Z</time>
      </trkpt>
      <trkpt lat="45.88532" lon="13.73248">
        <ele>72.72</ele>
        <time>2012-07-31T09:46:14Z</time>
      </trkpt>
      <trkpt lat="45.88534" lon="13.7323">
        <ele>72.72</ele>
        <time>2012-07-31T09:46:15Z</time>
      </trkpt>
      <trkpt lat="45.88534" lon="13.73211">
        <ele>72.24</ele>
        <time>2012-07-31T09:46:16Z</time>
      </trkpt>
      <trkpt lat="45.88523" lon="13.73066">
        <ele>70.79</ele>
        <time>2012-07-31T09:46:23Z</time>
      </trkpt>
      <trkpt lat="45.88514" lon="13.72833">
        <ele>68.39</ele>
        <time>2012-07-31T09:46:33Z</time>
      </trkpt>
      <trkpt lat="45.88517" lon="13.72784">
        <ele>67.91</ele>
        <time>2012-07-31T09:46:35Z</time>
      </trkpt>
      <trkpt lat="45.88553" lon="13.72555">
        <ele>64.55</ele>
        <time>2012-07-31T09:46:44Z</time>
      </trkpt>
      <trkpt lat="45.88557" lon="13.72529">
        <ele>64.55</ele>
        <time>2012-07-31T09:46:45Z</time>
      </trkpt>
      <trkpt lat="45.8857" lon="13.72446">
        <ele>59.74</ele>
        <time>2012-07-31T09:46:48Z</time>
      </trkpt>
      <trkpt lat="45.88575" lon="13.72417">
        <ele>60.22</ele>
        <time>2012-07-31T09:46:49Z</time>
      </trkpt>
      <trkpt lat="45.88622" lon="13.72133">
        <ele>57.82</ele>
        <time>2012-07-31T09:46:59Z</time>
      </trkpt>
      <trkpt lat="45.88645" lon="13.71842">
        <ele>57.82</ele>
        <time>2012-07-31T09:47:09Z</time>
      </trkpt>
      <trkpt lat="45.88645" lon="13.71754">
        <ele>56.37</ele>
        <time>2012-07-31T09:47:12Z</time>
      </trkpt>
      <trkpt lat="45.8865" lon="13.71644">
        <ele>55.41</ele>
        <time>2012-07-31T09:47:16Z</time>
      </trkpt>
      <trkpt lat="45.88655" lon="13.71617">
        <ele>54.93</ele>
        <time>2012-07-31T09:47:17Z</time>
      </trkpt>
      <trkpt lat="45.88662" lon="13.71591">
        <ele>54.93</ele>
        <time>2012-07-31T09:47:18Z</time>
      </trkpt>
      <trkpt lat="45.88671" lon="13.71565">
        <ele>54.93</ele>
        <time>2012-07-31T09:47:19Z</time>
      </trkpt>
      <trkpt lat="45.88681" lon="13.71542">
        <ele>54.45</ele>
        <time>2012-07-31T09:47:20Z</time>
      </trkpt>
      <trkpt lat="45.88692" lon="13.7152">
        <ele>53.49</ele>
        <time>2012-07-31T09:47:21Z</time>
      </trkpt>
      <trkpt lat="45.88796" lon="13.71308">
        <ele>54.93</ele>
        <time>2012-07-31T09:47:32Z</time>
      </trkpt>
      <trkpt lat="45.88805" lon="13.71287">
        <ele>54.93</ele>
        <time>2012-07-31T09:47:33Z</time>
      </trkpt>
      <trkpt lat="45.8889" lon="13.71093">
        <ele>53.49</ele>
        <time>2012-07-31T09:47:42Z</time>
      </trkpt>
      <trkpt lat="45.88903" lon="13.71077">
        <ele>53.97</ele>
        <time>2012-07-31T09:47:43Z</time>
      </trkpt>
      <trkpt lat="45.88917" lon="13.71062">
        <ele>53.97</ele>
        <time>2012-07-31T09:47:44Z</time>
      </trkpt>
      <trkpt lat="45.89048" lon="13.70933">
        <ele>53.97</ele>
        <time>2012-07-31T09:47:53Z</time>
      </trkpt>
      <trkpt lat="45.89217" lon="13.70773">
        <ele>56.86</ele>
        <time>2012-07-31T09:48:03Z</time>
      </trkpt>
      <trkpt lat="45.89316" lon="13.70678">
        <ele>53.01</ele>
        <time>2012-07-31T09:48:09Z</time>
      </trkpt>
      <trkpt lat="45.89366" lon="13.70631">
        <ele>55.41</ele>
        <time>2012-07-31T09:48:12Z</time>
      </trkpt>
      <trkpt lat="45.89409" lon="13.70574">
        <ele>54.45</ele>
        <time>2012-07-31T09:48:15Z</time>
      </trkpt>
      <trkpt lat="45.8942" lon="13.70551">
        <ele>54.45</ele>
        <time>2012-07-31T09:48:16Z</time>
      </trkpt>
      <trkpt lat="45.89429" lon="13.70526">
        <ele>54.45</ele>
        <time>2012-07-31T09:48:17Z</time>
      </trkpt>
      <trkpt lat="45.89437" lon="13.705">
        <ele>55.41</ele>
        <time>2012-07-31T09:48:18Z</time>
      </trkpt>
      <trkpt lat="45.89443" lon="13.70473">
        <ele>54.93</ele>
        <time>2012-07-31T09:48:19Z</time>
      </trkpt>
      <trkpt lat="45.89461" lon="13.70387">
        <ele>53.49</ele>
        <time>2012-07-31T09:48:22Z</time>
      </trkpt>
      <trkpt lat="45.89548" lon="13.70058">
        <ele>53.01</ele>
        <time>2012-07-31T09:48:34Z</time>
      </trkpt>
      <trkpt lat="45.89575" lon="13.69826">
        <ele>54.45</ele>
        <time>2012-07-31T09:48:42Z</time>
      </trkpt>
      <trkpt lat="45.89579" lon="13.69538">
        <ele>52.05</ele>
        <time>2012-07-31T09:48:52Z</time>
      </trkpt>
      <trkpt lat="45.89575" lon="13.69431">
        <ele>52.05</ele>
        <time>2012-07-31T09:48:56Z</time>
      </trkpt>
      <trkpt lat="45.89577" lon="13.69384">
        <ele>51.57</ele>
        <time>2012-07-31T09:48:58Z</time>
      </trkpt>
      <trkpt lat="45.89582" lon="13.69361">
        <ele>52.05</ele>
        <time>2012-07-31T09:48:59Z</time>
      </trkpt>
      <trkpt lat="45.8959" lon="13.69339">
        <ele>53.01</ele>
        <time>2012-07-31T09:49:00Z</time>
      </trkpt>
      <trkpt lat="45.89599" lon="13.69318">
        <ele>53.97</ele>
        <time>2012-07-31T09:49:01Z</time>
      </trkpt>
      <trkpt lat="45.8961" lon="13.69297">
        <ele>54.93</ele>
        <time>2012-07-31T09:49:02Z</time>
      </trkpt>
      <trkpt lat="45.89631" lon="13.69252">
        <ele>55.89</ele>
        <time>2012-07-31T09:49:04Z</time>
      </trkpt>
      <trkpt lat="45.89719" lon="13.69002">
        <ele>53.97</ele>
        <time>2012-07-31T09:49:14Z</time>
      </trkpt>
      <trkpt lat="45.89762" lon="13.68863">
        <ele>53.01</ele>
        <time>2012-07-31T09:49:20Z</time>
      </trkpt>
      <trkpt lat="45.89767" lon="13.68839">
        <ele>52.53</ele>
        <time>2012-07-31T09:49:21Z</time>
      </trkpt>
      <trkpt lat="45.8977" lon="13.68814">
        <ele>52.53</ele>
        <time>2012-07-31T09:49:22Z</time>
      </trkpt>
      <trkpt lat="45.89781" lon="13.68721">
        <ele>51.09</ele>
        <time>2012-07-31T09:49:26Z</time>
      </trkpt>
      <trkpt lat="45.89786" lon="13.687">
        <ele>51.57</ele>
        <time>2012-07-31T09:49:27Z</time>
      </trkpt>
      <trkpt lat="45.89791" lon="13.6868">
        <ele>51.09</ele>
        <time>2012-07-31T09:49:28Z</time>
      </trkpt>
      <trkpt lat="45.89799" lon="13.68663">
        <ele>51.09</ele>
        <time>2012-07-31T09:49:29Z</time>
      </trkpt>
      <trkpt lat="45.89809" lon="13.68647">
        <ele>51.09</ele>
        <time>2012-07-31T09:49:30Z</time>
      </trkpt>
      <trkpt lat="45.89821" lon="13.68633">
        <ele>50.61</ele>
        <time>2012-07-31T09:49:31Z</time>
      </trkpt>
      <trkpt lat="45.89834" lon="13.6862">
        <ele>50.61</ele>
        <time>2012-07-31T09:49:32Z</time>
      </trkpt>
      <trkpt lat="45.89859" lon="13.68588">
        <ele>50.61</ele>
        <time>2012-07-31T09:49:34Z</time>
      </trkpt>
      <trkpt lat="45.89869" lon="13.68568">
        <ele>52.05</ele>
        <time>2012-07-31T09:49:35Z</time>
      </trkpt>
      <trkpt lat="45.89901" lon="13.68509">
        <ele>50.61</ele>
        <time>2012-07-31T09:49:38Z</time>
      </trkpt>
      <trkpt lat="45.89934" lon="13.68453">
        <ele>51.09</ele>
        <time>2012-07-31T09:49:41Z</time>
      </trkpt>
      <trkpt lat="45.89943" lon="13.68432">
        <ele>51.57</ele>
        <time>2012-07-31T09:49:42Z</time>
      </trkpt>
      <trkpt lat="45.89949" lon="13.68409">
        <ele>51.09</ele>
        <time>2012-07-31T09:49:43Z</time>
      </trkpt>
      <trkpt lat="45.89954" lon="13.68386">
        <ele>51.57</ele>
        <time>2012-07-31T09:49:44Z</time>
      </trkpt>
      <trkpt lat="45.89957" lon="13.68362">
        <ele>51.09</ele>
        <time>2012-07-31T09:49:45Z</time>
      </trkpt>
      <trkpt lat="45.89958" lon="13.68338">
        <ele>51.57</ele>
        <time>2012-07-31T09:49:46Z</time>
      </trkpt>
      <trkpt lat="45.8996" lon="13.68314">
        <ele>52.05</ele>
        <time>2012-07-31T09:49:47Z</time>
      </trkpt>
      <trkpt lat="45.89964" lon="13.68268">
        <ele>51.09</ele>
        <time>2012-07-31T09:49:49Z</time>
      </trkpt>
      <trkpt lat="45.89969" lon="13.68245">
        <ele>51.09</ele>
        <time>2012-07-31T09:49:50Z</time>
      </trkpt>
      <trkpt lat="45.89977" lon="13.68224">
        <ele>51.09</ele>
        <time>2012-07-31T09:49:51Z</time>
      </trkpt>
      <trkpt lat="45.89988" lon="13.68205">
        <ele>51.09</ele>
        <time>2012-07-31T09:49:52Z</time>
      </trkpt>
      <trkpt lat="45.9" lon="13.68187">
        <ele>51.09</ele>
        <time>2012-07-31T09:49:53Z</time>
      </trkpt>
      <trkpt lat="45.90062" lon="13.68073">
        <ele>49.16</ele>
        <time>2012-07-31T09:50:00Z</time>
      </trkpt>
      <trkpt lat="45.9007" lon="13.68059">
        <ele>48.68</ele>
        <time>2012-07-31T09:50:01Z</time>
      </trkpt>
      <trkpt lat="45.9008" lon="13.68045">
        <ele>49.65</ele>
        <time>2012-07-31T09:50:02Z</time>
      </trkpt>
      <trkpt lat="45.9009" lon="13.68034">
        <ele>50.61</ele>
        <time>2012-07-31T09:50:03Z</time>
      </trkpt>
      <trkpt lat="45.90102" lon="13.68025">
        <ele>52.05</ele>
        <time>2012-07-31T09:50:04Z</time>
      </trkpt>
      <trkpt lat="45.90114" lon="13.68016">
        <ele>53.01</ele>
        <time>2012-07-31T09:50:05Z</time>
      </trkpt>
      <trkpt lat="45.90161" lon="13.67977">
        <ele>54.45</ele>
        <time>2012-07-31T09:50:09Z</time>
      </trkpt>
      <trkpt lat="45.90241" lon="13.67897">
        <ele>56.86</ele>
        <time>2012-07-31T09:50:18Z</time>
      </trkpt>
      <trkpt lat="45.90262" lon="13.67882">
        <ele>57.34</ele>
        <time>2012-07-31T09:50:22Z</time>
      </trkpt>
      <trkpt lat="45.90268" lon="13.67881">
        <ele>57.82</ele>
        <time>2012-07-31T09:50:23Z</time>
      </trkpt>
      <trkpt lat="45.90274" lon="13.67883">
        <ele>57.82</ele>
        <time>2012-07-31T09:50:24Z</time>
      </trkpt>
      <trkpt lat="45.9028" lon="13.67886">
        <ele>58.78</ele>
        <time>2012-07-31T09:50:25Z</time>
      </trkpt>
      <trkpt lat="45.90285" lon="13.67889">
        <ele>58.3</ele>
        <time>2012-07-31T09:50:26Z</time>
      </trkpt>
      <trkpt lat="45.90292" lon="13.6789">
        <ele>58.3</ele>
        <time>2012-07-31T09:50:27Z</time>
      </trkpt>
      <trkpt lat="45.90299" lon="13.67888">
        <ele>57.82</ele>
        <time>2012-07-31T09:50:28Z</time>
      </trkpt>
      <trkpt lat="45.90305" lon="13.67883">
        <ele>57.82</ele>
        <time>2012-07-31T09:50:29Z</time>
      </trkpt>
      <trkpt lat="45.90311" lon="13.67875">
        <ele>57.82</ele>
        <time>2012-07-31T09:50:30Z</time>
      </trkpt>
      <trkpt lat="45.90317" lon="13.67865">
        <ele>57.82</ele>
        <time>2012-07-31T09:50:31Z</time>
      </trkpt>
      <trkpt lat="45.90322" lon="13.67853">
        <ele>56.86</ele>
        <time>2012-07-31T09:50:32Z</time>
      </trkpt>
      <trkpt lat="45.90327" lon="13.67839">
        <ele>56.86</ele>
        <time>2012-07-31T09:50:33Z</time>
      </trkpt>
      <trkpt lat="45.90357" lon="13.67757">
        <ele>53.01</ele>
        <time>2012-07-31T09:50:39Z</time>
      </trkpt>
      <trkpt lat="45.90364" lon="13.67746">
        <ele>53.01</ele>
        <time>2012-07-31T09:50:40Z</time>
      </trkpt>
      <trkpt lat="45.90371" lon="13.67738">
        <ele>53.01</ele>
        <time>2012-07-31T09:50:41Z</time>
      </trkpt>
      <trkpt lat="45.90381" lon="13.67733">
        <ele>53.01</ele>
        <time>2012-07-31T09:50:42Z</time>
      </trkpt>
      <trkpt lat="45.90391" lon="13.6773">
        <ele>53.01</ele>
        <time>2012-07-31T09:50:43Z</time>
      </trkpt>
      <trkpt lat="45.90402" lon="13.67728">
        <ele>53.01</ele>
        <time>2012-07-31T09:50:44Z</time>
      </trkpt>
      <trkpt lat="45.90423" lon="13.67724">
        <ele>52.53</ele>
        <time>2012-07-31T09:50:46Z</time>
      </trkpt>
      <trkpt lat="45.90549" lon="13.67683">
        <ele>54.93</ele>
        <time>2012-07-31T09:50:58Z</time>
      </trkpt>
      <trkpt lat="45.9068" lon="13.67627">
        <ele>54.93</ele>
        <time>2012-07-31T09:51:10Z</time>
      </trkpt>
      <trkpt lat="45.90758" lon="13.6759">
        <ele>55.89</ele>
        <time>2012-07-31T09:51:17Z</time>
      </trkpt>
      <trkpt lat="45.90769" lon="13.67581">
        <ele>55.89</ele>
        <time>2012-07-31T09:51:18Z</time>
      </trkpt>
      <trkpt lat="45.90896" lon="13.67476">
        <ele>55.89</ele>
        <time>2012-07-31T09:51:30Z</time>
      </trkpt>
      <trkpt lat="45.91027" lon="13.67365">
        <ele>57.82</ele>
        <time>2012-07-31T09:51:42Z</time>
      </trkpt>
      <trkpt lat="45.91055" lon="13.67337">
        <ele>55.89</ele>
        <time>2012-07-31T09:51:45Z</time>
      </trkpt>
      <trkpt lat="45.91129" lon="13.67219">
        <ele>57.34</ele>
        <time>2012-07-31T09:51:54Z</time>
      </trkpt>
      <trkpt lat="45.91194" lon="13.67062">
        <ele>57.82</ele>
        <time>2012-07-31T09:52:05Z</time>
      </trkpt>
      <trkpt lat="45.91266" lon="13.66874">
        <ele>58.78</ele>
        <time>2012-07-31T09:52:18Z</time>
      </trkpt>
      <trkpt lat="45.91279" lon="13.66843">
        <ele>59.26</ele>
        <time>2012-07-31T09:52:20Z</time>
      </trkpt>
      <trkpt lat="45.91287" lon="13.66828">
        <ele>59.26</ele>
        <time>2012-07-31T09:52:21Z</time>
      </trkpt>
      <trkpt lat="45.91296" lon="13.66814">
        <ele>59.74</ele>
        <time>2012-07-31T09:52:22Z</time>
      </trkpt>
      <trkpt lat="45.91415" lon="13.66595">
        <ele>61.66</ele>
        <time>2012-07-31T09:52:36Z</time>
      </trkpt>
      <trkpt lat="45.91518" lon="13.66406">
        <ele>61.66</ele>
        <time>2012-07-31T09:52:48Z</time>
      </trkpt>
      <trkpt lat="45.91608" lon="13.66237">
        <ele>61.66</ele>
        <time>2012-07-31T09:53:00Z</time>
      </trkpt>
      <trkpt lat="45.91612" lon="13.66225">
        <ele>62.14</ele>
        <time>2012-07-31T09:53:01Z</time>
      </trkpt>
      <trkpt lat="45.91615" lon="13.66212">
        <ele>62.14</ele>
        <time>2012-07-31T09:53:02Z</time>
      </trkpt>
      <trkpt lat="45.91639" lon="13.6612">
        <ele>63.58</ele>
        <time>2012-07-31T09:53:10Z</time>
      </trkpt>
      <trkpt lat="45.91644" lon="13.66108">
        <ele>63.58</ele>
        <time>2012-07-31T09:53:11Z</time>
      </trkpt>
      <trkpt lat="45.91651" lon="13.66096">
        <ele>63.58</ele>
        <time>2012-07-31T09:53:12Z</time>
      </trkpt>
      <trkpt lat="45.91717" lon="13.65985">
        <ele>66.95</ele>
        <time>2012-07-31T09:53:21Z</time>
      </trkpt>
      <trkpt lat="45.91726" lon="13.65972">
        <ele>66.95</ele>
        <time>2012-07-31T09:53:22Z</time>
      </trkpt>
      <trkpt lat="45.91853" lon="13.65796">
        <ele>68.87</ele>
        <time>2012-07-31T09:53:35Z</time>
      </trkpt>
      <trkpt lat="45.91934" lon="13.6567">
        <ele>70.79</ele>
        <time>2012-07-31T09:53:43Z</time>
      </trkpt>
      <trkpt lat="45.91965" lon="13.6562">
        <ele>72.24</ele>
        <time>2012-07-31T09:53:46Z</time>
      </trkpt>
      <trkpt lat="45.92018" lon="13.6554">
        <ele>76.08</ele>
        <time>2012-07-31T09:53:51Z</time>
      </trkpt>
      <trkpt lat="45.9203" lon="13.65527">
        <ele>75.6</ele>
        <time>2012-07-31T09:53:52Z</time>
      </trkpt>
      <trkpt lat="45.92044" lon="13.65516">
        <ele>75.6</ele>
        <time>2012-07-31T09:53:53Z</time>
      </trkpt>
      <trkpt lat="45.92126" lon="13.65451">
        <ele>78.97</ele>
        <time>2012-07-31T09:53:59Z</time>
      </trkpt>
      <trkpt lat="45.92221" lon="13.65337">
        <ele>81.37</ele>
        <time>2012-07-31T09:54:08Z</time>
      </trkpt>
      <trkpt lat="45.92255" lon="13.65293">
        <ele>81.85</ele>
        <time>2012-07-31T09:54:14Z</time>
      </trkpt>
      <trkpt lat="45.92261" lon="13.6529">
        <ele>81.85</ele>
        <time>2012-07-31T09:54:15Z</time>
      </trkpt>
      <trkpt lat="45.92266" lon="13.6529">
        <ele>82.33</ele>
        <time>2012-07-31T09:54:16Z</time>
      </trkpt>
      <trkpt lat="45.92271" lon="13.65294">
        <ele>82.33</ele>
        <time>2012-07-31T09:54:17Z</time>
      </trkpt>
      <trkpt lat="45.92276" lon="13.65297">
        <ele>82.33</ele>
        <time>2012-07-31T09:54:18Z</time>
      </trkpt>
      <trkpt lat="45.92281" lon="13.65299">
        <ele>81.85</ele>
        <time>2012-07-31T09:54:19Z</time>
      </trkpt>
      <trkpt lat="45.92286" lon="13.65298">
        <ele>82.33</ele>
        <time>2012-07-31T09:54:20Z</time>
      </trkpt>
      <trkpt lat="45.92292" lon="13.65295">
        <ele>81.85</ele>
        <time>2012-07-31T09:54:21Z</time>
      </trkpt>
      <trkpt lat="45.92297" lon="13.65291">
        <ele>81.85</ele>
        <time>2012-07-31T09:54:22Z</time>
      </trkpt>
      <trkpt lat="45.92302" lon="13.65286">
        <ele>81.85</ele>
        <time>2012-07-31T09:54:23Z</time>
      </trkpt>
      <trkpt lat="45.92307" lon="13.6528">
        <ele>81.37</ele>
        <time>2012-07-31T09:54:24Z</time>
      </trkpt>
      <trkpt lat="45.92312" lon="13.65274">
        <ele>81.37</ele>
        <time>2012-07-31T09:54:25Z</time>
      </trkpt>
      <trkpt lat="45.92377" lon="13.65195">
        <ele>82.33</ele>
        <time>2012-07-31T09:54:34Z</time>
      </trkpt>
      <trkpt lat="45.92423" lon="13.6512">
        <ele>80.89</ele>
        <time>2012-07-31T09:54:40Z</time>
      </trkpt>
      <trkpt lat="45.92428" lon="13.65106">
        <ele>80.41</ele>
        <time>2012-07-31T09:54:41Z</time>
      </trkpt>
      <trkpt lat="45.92432" lon="13.65092">
        <ele>79.93</ele>
        <time>2012-07-31T09:54:42Z</time>
      </trkpt>
      <trkpt lat="45.92435" lon="13.65077">
        <ele>79.45</ele>
        <time>2012-07-31T09:54:43Z</time>
      </trkpt>
      <trkpt lat="45.92435" lon="13.65062">
        <ele>78.97</ele>
        <time>2012-07-31T09:54:44Z</time>
      </trkpt>
      <trkpt lat="45.92434" lon="13.65046">
        <ele>78.48</ele>
        <time>2012-07-31T09:54:45Z</time>
      </trkpt>
      <trkpt lat="45.92435" lon="13.64984">
        <ele>76.56</ele>
        <time>2012-07-31T09:54:49Z</time>
      </trkpt>
      <trkpt lat="45.92437" lon="13.64968">
        <ele>77.04</ele>
        <time>2012-07-31T09:54:50Z</time>
      </trkpt>
      <trkpt lat="45.92441" lon="13.64953">
        <ele>76.56</ele>
        <time>2012-07-31T09:54:51Z</time>
      </trkpt>
      <trkpt lat="45.92919" lon="13.64157">
        <ele>69.83</ele>
        <time>2012-07-31T09:57:21Z</time>
      </trkpt>
      <trkpt lat="45.92931" lon="13.6414">
        <ele>71.76</ele>
        <time>2012-07-31T09:57:36Z</time>
      </trkpt>
      <trkpt lat="45.92932" lon="13.64136">
        <ele>74.64</ele>
        <time>2012-07-31T09:57:50Z</time>
      </trkpt>
      <trkpt lat="45.92932" lon="13.64136">
        <ele>76.56</ele>
        <time>2012-07-31T09:57:54Z</time>
      </trkpt>
      <trkpt lat="45.9293" lon="13.64135">
        <ele>79.45</ele>
        <time>2012-07-31T09:58:11Z</time>
      </trkpt>
      <trkpt lat="45.92929" lon="13.64135">
        <ele>79.93</ele>
        <time>2012-07-31T09:58:12Z</time>
      </trkpt>
      <trkpt lat="45.9293" lon="13.64137">
        <ele>81.37</ele>
        <time>2012-07-31T09:58:48Z</time>
      </trkpt>
      <trkpt lat="45.92929" lon="13.6414">
        <ele>81.37</ele>
        <time>2012-07-31T09:59:11Z</time>
      </trkpt>
      <trkpt lat="45.92922" lon="13.6414">
        <ele>81.37</ele>
        <time>2012-07-31T09:59:44Z</time>
      </trkpt>
      <trkpt lat="45.92921" lon="13.64141">
        <ele>80.89</ele>
        <time>2012-07-31T10:00:18Z</time>
      </trkpt>
      <trkpt lat="45.92921" lon="13.64141">
        <ele>81.37</ele>
        <time>2012-07-31T10:00:50Z</time>
      </trkpt>
      <trkpt lat="45.9292" lon="13.64141">
        <ele>80.89</ele>
        <time>2012-07-31T10:01:20Z</time>
      </trkpt>
      <trkpt lat="45.92921" lon="13.64141">
        <ele>81.37</ele>
        <time>2012-07-31T10:01:54Z</time>
      </trkpt>
      <trkpt lat="45.92921" lon="13.64141">
        <ele>80.89</ele>
        <time>2012-07-31T10:02:29Z</time>
      </trkpt>
      <trkpt lat="45.9292" lon="13.64141">
        <ele>81.37</ele>
        <time>2012-07-31T10:02:51Z</time>
      </trkpt>
      <trkpt lat="45.92921" lon="13.64141">
        <ele>81.37</ele>
        <time>2012-07-31T10:03:24Z</time>
      </trkpt>
      <trkpt lat="45.92922" lon="13.6414">
        <ele>81.37</ele>
        <time>2012-07-31T10:03:53Z</time>
      </trkpt>
      <trkpt lat="45.92921" lon="13.6414">
        <ele>83.29</ele>
        <time>2012-07-31T10:04:31Z</time>
      </trkpt>
      <trkpt lat="45.92921" lon="13.64139">
        <ele>81.37</ele>
        <time>2012-07-31T10:05:10Z</time>
      </trkpt>
      <trkpt lat="45.92933" lon="13.64102">
        <ele>81.37</ele>
        <time>2012-07-31T10:06:46Z</time>
      </trkpt>
      <trkpt lat="45.92936" lon="13.64101">
        <ele>81.37</ele>
        <time>2012-07-31T10:06:49Z</time>
      </trkpt>
      <trkpt lat="45.92938" lon="13.64101">
        <ele>81.37</ele>
        <time>2012-07-31T10:06:51Z</time>
      </trkpt>
      <trkpt lat="45.93021" lon="13.6398">
        <ele>82.33</ele>
        <time>2012-07-31T10:20:54Z</time>
      </trkpt>
      <trkpt lat="45.93066" lon="13.6389">
        <ele>83.29</ele>
        <time>2012-07-31T10:21:07Z</time>
      </trkpt>
      <trkpt lat="45.9309" lon="13.63816">
        <ele>82.81</ele>
        <time>2012-07-31T10:21:13Z</time>
      </trkpt>
      <trkpt lat="45.93163" lon="13.63709">
        <ele>81.37</ele>
        <time>2012-07-31T10:21:23Z</time>
      </trkpt>
      <trkpt lat="45.93237" lon="13.63555">
        <ele>80.89</ele>
        <time>2012-07-31T10:21:33Z</time>
      </trkpt>
      <trkpt lat="45.93285" lon="13.63448">
        <ele>79.45</ele>
        <time>2012-07-31T10:21:40Z</time>
      </trkpt>
      <trkpt lat="45.93295" lon="13.63435">
        <ele>79.45</ele>
        <time>2012-07-31T10:21:41Z</time>
      </trkpt>
      <trkpt lat="45.9339" lon="13.63349">
        <ele>79.93</ele>
        <time>2012-07-31T10:21:50Z</time>
      </trkpt>
      <trkpt lat="45.93408" lon="13.63327">
        <ele>80.89</ele>
        <time>2012-07-31T10:21:52Z</time>
      </trkpt>
      <trkpt lat="45.93456" lon="13.63235">
        <ele>78.97</ele>
        <time>2012-07-31T10:21:59Z</time>
      </trkpt>
      <trkpt lat="45.9349" lon="13.63159">
        <ele>78.48</ele>
        <time>2012-07-31T10:22:05Z</time>
      </trkpt>
      <trkpt lat="45.93518" lon="13.63102">
        <ele>77.52</ele>
        <time>2012-07-31T10:22:13Z</time>
      </trkpt>
      <trkpt lat="45.93523" lon="13.63095">
        <ele>77.52</ele>
        <time>2012-07-31T10:22:21Z</time>
      </trkpt>
      <trkpt lat="45.9353" lon="13.63075">
        <ele>78</ele>
        <time>2012-07-31T10:22:31Z</time>
      </trkpt>
      <trkpt lat="45.93566" lon="13.62996">
        <ele>78.97</ele>
        <time>2012-07-31T10:22:39Z</time>
      </trkpt>
      <trkpt lat="45.93629" lon="13.62862">
        <ele>80.41</ele>
        <time>2012-07-31T10:22:50Z</time>
      </trkpt>
      <trkpt lat="45.93711" lon="13.62681">
        <ele>79.93</ele>
        <time>2012-07-31T10:23:04Z</time>
      </trkpt>
      <trkpt lat="45.93735" lon="13.62591">
        <ele>80.41</ele>
        <time>2012-07-31T10:23:11Z</time>
      </trkpt>
      <trkpt lat="45.93769" lon="13.62514">
        <ele>81.37</ele>
        <time>2012-07-31T10:23:17Z</time>
      </trkpt>
      <trkpt lat="45.93776" lon="13.625">
        <ele>80.89</ele>
        <time>2012-07-31T10:23:18Z</time>
      </trkpt>
      <trkpt lat="45.93845" lon="13.62363">
        <ele>80.89</ele>
        <time>2012-07-31T10:23:30Z</time>
      </trkpt>
      <trkpt lat="45.9391" lon="13.62234">
        <ele>81.85</ele>
        <time>2012-07-31T10:23:41Z</time>
      </trkpt>
      <trkpt lat="45.93947" lon="13.62152">
        <ele>81.85</ele>
        <time>2012-07-31T10:23:50Z</time>
      </trkpt>
      <trkpt lat="45.9396" lon="13.62108">
        <ele>81.85</ele>
        <time>2012-07-31T10:23:54Z</time>
      </trkpt>
      <trkpt lat="45.93963" lon="13.62096">
        <ele>81.85</ele>
        <time>2012-07-31T10:23:55Z</time>
      </trkpt>
      <trkpt lat="45.93967" lon="13.62086">
        <ele>81.85</ele>
        <time>2012-07-31T10:23:56Z</time>
      </trkpt>
      <trkpt lat="45.93971" lon="13.62077">
        <ele>81.37</ele>
        <time>2012-07-31T10:23:57Z</time>
      </trkpt>
      <trkpt lat="45.93975" lon="13.62071">
        <ele>81.37</ele>
        <time>2012-07-31T10:23:58Z</time>
      </trkpt>
      <trkpt lat="45.93978" lon="13.62067">
        <ele>80.41</ele>
        <time>2012-07-31T10:23:59Z</time>
      </trkpt>
      <trkpt lat="45.93986" lon="13.6206">
        <ele>80.89</ele>
        <time>2012-07-31T10:24:07Z</time>
      </trkpt>
      <trkpt lat="45.93989" lon="13.62059">
        <ele>81.37</ele>
        <time>2012-07-31T10:24:37Z</time>
      </trkpt>
      <trkpt lat="45.9399" lon="13.62056">
        <ele>80.89</ele>
        <time>2012-07-31T10:24:38Z</time>
      </trkpt>
      <trkpt lat="45.93992" lon="13.6205">
        <ele>80.89</ele>
        <time>2012-07-31T10:24:39Z</time>
      </trkpt>
      <trkpt lat="45.93993" lon="13.62041">
        <ele>80.41</ele>
        <time>2012-07-31T10:24:40Z</time>
      </trkpt>
      <trkpt lat="45.93992" lon="13.62033">
        <ele>80.89</ele>
        <time>2012-07-31T10:24:41Z</time>
      </trkpt>
      <trkpt lat="45.93989" lon="13.62025">
        <ele>81.37</ele>
        <time>2012-07-31T10:24:42Z</time>
      </trkpt>
      <trkpt lat="45.93984" lon="13.62018">
        <ele>81.85</ele>
        <time>2012-07-31T10:24:43Z</time>
      </trkpt>
      <trkpt lat="45.93978" lon="13.62012">
        <ele>81.37</ele>
        <time>2012-07-31T10:24:44Z</time>
      </trkpt>
      <trkpt lat="45.93972" lon="13.62006">
        <ele>81.37</ele>
        <time>2012-07-31T10:24:45Z</time>
      </trkpt>
      <trkpt lat="45.93927" lon="13.61967">
        <ele>81.85</ele>
        <time>2012-07-31T10:24:51Z</time>
      </trkpt>
      <trkpt lat="45.9392" lon="13.61958">
        <ele>81.37</ele>
        <time>2012-07-31T10:24:52Z</time>
      </trkpt>
      <trkpt lat="45.93885" lon="13.61908">
        <ele>81.85</ele>
        <time>2012-07-31T10:24:57Z</time>
      </trkpt>
      <trkpt lat="45.93817" lon="13.61807">
        <ele>82.33</ele>
        <time>2012-07-31T10:25:06Z</time>
      </trkpt>
      <trkpt lat="45.9374" lon="13.61673">
        <ele>81.85</ele>
        <time>2012-07-31T10:25:16Z</time>
      </trkpt>
      <trkpt lat="45.93664" lon="13.61532">
        <ele>80.89</ele>
        <time>2012-07-31T10:25:27Z</time>
      </trkpt>
      <trkpt lat="45.93597" lon="13.614">
        <ele>79.93</ele>
        <time>2012-07-31T10:25:39Z</time>
      </trkpt>
      <trkpt lat="45.93554" lon="13.61296">
        <ele>80.89</ele>
        <time>2012-07-31T10:25:47Z</time>
      </trkpt>
      <trkpt lat="45.93491" lon="13.61158">
        <ele>79.93</ele>
        <time>2012-07-31T10:25:57Z</time>
      </trkpt>
      <trkpt lat="45.93466" lon="13.61098">
        <ele>78</ele>
        <time>2012-07-31T10:26:01Z</time>
      </trkpt>
      <trkpt lat="45.93463" lon="13.61083">
        <ele>78</ele>
        <time>2012-07-31T10:26:02Z</time>
      </trkpt>
      <trkpt lat="45.93461" lon="13.61067">
        <ele>77.52</ele>
        <time>2012-07-31T10:26:03Z</time>
      </trkpt>
      <trkpt lat="45.93462" lon="13.60914">
        <ele>76.08</ele>
        <time>2012-07-31T10:26:12Z</time>
      </trkpt>
      <trkpt lat="45.93462" lon="13.60869">
        <ele>74.16</ele>
        <time>2012-07-31T10:26:18Z</time>
      </trkpt>
      <trkpt lat="45.93462" lon="13.6086">
        <ele>75.12</ele>
        <time>2012-07-31T10:26:21Z</time>
      </trkpt>
      <trkpt lat="45.9346" lon="13.60837">
        <ele>75.6</ele>
        <time>2012-07-31T10:26:23Z</time>
      </trkpt>
      <trkpt lat="45.93435" lon="13.60723">
        <ele>72.24</ele>
        <time>2012-07-31T10:26:31Z</time>
      </trkpt>
      <trkpt lat="45.93408" lon="13.60637">
        <ele>68.87</ele>
        <time>2012-07-31T10:26:37Z</time>
      </trkpt>
      <trkpt lat="45.93397" lon="13.60611">
        <ele>67.91</ele>
        <time>2012-07-31T10:26:39Z</time>
      </trkpt>
      <trkpt lat="45.93375" lon="13.60566">
        <ele>67.91</ele>
        <time>2012-07-31T10:26:43Z</time>
      </trkpt>
      <trkpt lat="45.9337" lon="13.60551">
        <ele>67.43</ele>
        <time>2012-07-31T10:26:44Z</time>
      </trkpt>
      <trkpt lat="45.93367" lon="13.60536">
        <ele>66.95</ele>
        <time>2012-07-31T10:26:45Z</time>
      </trkpt>
      <trkpt lat="45.93366" lon="13.6052">
        <ele>67.43</ele>
        <time>2012-07-31T10:26:46Z</time>
      </trkpt>
      <trkpt lat="45.93366" lon="13.60504">
        <ele>66.95</ele>
        <time>2012-07-31T10:26:47Z</time>
      </trkpt>
      <trkpt lat="45.93368" lon="13.60488">
        <ele>66.47</ele>
        <time>2012-07-31T10:26:48Z</time>
      </trkpt>
      <trkpt lat="45.93399" lon="13.60316">
        <ele>65.51</ele>
        <time>2012-07-31T10:26:59Z</time>
      </trkpt>
      <trkpt lat="45.93415" lon="13.60218">
        <ele>64.07</ele>
        <time>2012-07-31T10:27:05Z</time>
      </trkpt>
      <trkpt lat="45.93424" lon="13.60169">
        <ele>60.7</ele>
        <time>2012-07-31T10:27:08Z</time>
      </trkpt>
      <trkpt lat="45.9344" lon="13.60088">
        <ele>59.74</ele>
        <time>2012-07-31T10:27:14Z</time>
      </trkpt>
      <trkpt lat="45.93445" lon="13.60078">
        <ele>59.26</ele>
        <time>2012-07-31T10:27:15Z</time>
      </trkpt>
      <trkpt lat="45.93452" lon="13.60068">
        <ele>59.26</ele>
        <time>2012-07-31T10:27:16Z</time>
      </trkpt>
      <trkpt lat="45.93467" lon="13.60047">
        <ele>58.78</ele>
        <time>2012-07-31T10:27:18Z</time>
      </trkpt>
      <trkpt lat="45.93472" lon="13.60033">
        <ele>58.3</ele>
        <time>2012-07-31T10:27:19Z</time>
      </trkpt>
      <trkpt lat="45.93476" lon="13.60017">
        <ele>58.3</ele>
        <time>2012-07-31T10:27:20Z</time>
      </trkpt>
      <trkpt lat="45.93478" lon="13.6">
        <ele>58.78</ele>
        <time>2012-07-31T10:27:21Z</time>
      </trkpt>
      <trkpt lat="45.9348" lon="13.59982">
        <ele>58.3</ele>
        <time>2012-07-31T10:27:22Z</time>
      </trkpt>
      <trkpt lat="45.93482" lon="13.59963">
        <ele>57.82</ele>
        <time>2012-07-31T10:27:23Z</time>
      </trkpt>
      <trkpt lat="45.93486" lon="13.59942">
        <ele>58.3</ele>
        <time>2012-07-31T10:27:24Z</time>
      </trkpt>
      <trkpt lat="45.93536" lon="13.59666">
        <ele>58.3</ele>
        <time>2012-07-31T10:27:37Z</time>
      </trkpt>
      <trkpt lat="45.93598" lon="13.59327">
        <ele>59.26</ele>
        <time>2012-07-31T10:27:50Z</time>
      </trkpt>
      <trkpt lat="45.93617" lon="13.59225">
        <ele>55.89</ele>
        <time>2012-07-31T10:27:54Z</time>
      </trkpt>
      <trkpt lat="45.93623" lon="13.59176">
        <ele>54.93</ele>
        <time>2012-07-31T10:27:56Z</time>
      </trkpt>
      <trkpt lat="45.93634" lon="13.59082">
        <ele>52.05</ele>
        <time>2012-07-31T10:28:00Z</time>
      </trkpt>
      <trkpt lat="45.93654" lon="13.58963">
        <ele>50.61</ele>
        <time>2012-07-31T10:28:05Z</time>
      </trkpt>
      <trkpt lat="45.93663" lon="13.58891">
        <ele>52.05</ele>
        <time>2012-07-31T10:28:08Z</time>
      </trkpt>
      <trkpt lat="45.93663" lon="13.58692">
        <ele>49.65</ele>
        <time>2012-07-31T10:28:17Z</time>
      </trkpt>
      <trkpt lat="45.93651" lon="13.58536">
        <ele>54.45</ele>
        <time>2012-07-31T10:28:24Z</time>
      </trkpt>
      <trkpt lat="45.9365" lon="13.58513">
        <ele>51.57</ele>
        <time>2012-07-31T10:28:25Z</time>
      </trkpt>
      <trkpt lat="45.93636" lon="13.58268">
        <ele>53.97</ele>
        <time>2012-07-31T10:28:37Z</time>
      </trkpt>
      <trkpt lat="45.9364" lon="13.58154">
        <ele>56.86</ele>
        <time>2012-07-31T10:28:43Z</time>
      </trkpt>
      <trkpt lat="45.93632" lon="13.57992">
        <ele>57.82</ele>
        <time>2012-07-31T10:28:51Z</time>
      </trkpt>
      <trkpt lat="45.93604" lon="13.57862">
        <ele>61.18</ele>
        <time>2012-07-31T10:28:59Z</time>
      </trkpt>
      <trkpt lat="45.936" lon="13.57845">
        <ele>61.18</ele>
        <time>2012-07-31T10:29:00Z</time>
      </trkpt>
      <trkpt lat="45.93591" lon="13.57791">
        <ele>62.62</ele>
        <time>2012-07-31T10:29:03Z</time>
      </trkpt>
      <trkpt lat="45.9359" lon="13.57735">
        <ele>64.55</ele>
        <time>2012-07-31T10:29:06Z</time>
      </trkpt>
      <trkpt lat="45.93597" lon="13.57656">
        <ele>68.39</ele>
        <time>2012-07-31T10:29:10Z</time>
      </trkpt>
      <trkpt lat="45.936" lon="13.57637">
        <ele>67.91</ele>
        <time>2012-07-31T10:29:11Z</time>
      </trkpt>
      <trkpt lat="45.93604" lon="13.57621">
        <ele>68.39</ele>
        <time>2012-07-31T10:29:12Z</time>
      </trkpt>
      <trkpt lat="45.93622" lon="13.57514">
        <ele>68.39</ele>
        <time>2012-07-31T10:29:20Z</time>
      </trkpt>
      <trkpt lat="45.93621" lon="13.57505">
        <ele>68.39</ele>
        <time>2012-07-31T10:29:21Z</time>
      </trkpt>
      <trkpt lat="45.93611" lon="13.57453">
        <ele>67.91</ele>
        <time>2012-07-31T10:29:27Z</time>
      </trkpt>
      <trkpt lat="45.93607" lon="13.57416">
        <ele>68.39</ele>
        <time>2012-07-31T10:29:31Z</time>
      </trkpt>
      <trkpt lat="45.93604" lon="13.57405">
        <ele>68.87</ele>
        <time>2012-07-31T10:29:32Z</time>
      </trkpt>
      <trkpt lat="45.93586" lon="13.57315">
        <ele>67.43</ele>
        <time>2012-07-31T10:29:39Z</time>
      </trkpt>
      <trkpt lat="45.93571" lon="13.57238">
        <ele>67.43</ele>
        <time>2012-07-31T10:29:47Z</time>
      </trkpt>
      <trkpt lat="45.93571" lon="13.57231">
        <ele>67.43</ele>
        <time>2012-07-31T10:29:48Z</time>
      </trkpt>
      <trkpt lat="45.9357" lon="13.57226">
        <ele>67.43</ele>
        <time>2012-07-31T10:29:49Z</time>
      </trkpt>
      <trkpt lat="45.93569" lon="13.57223">
        <ele>67.43</ele>
        <time>2012-07-31T10:29:50Z</time>
      </trkpt>
      <trkpt lat="45.93569" lon="13.5722">
        <ele>66.95</ele>
        <time>2012-07-31T10:29:57Z</time>
      </trkpt>
      <trkpt lat="45.93568" lon="13.57215">
        <ele>67.43</ele>
        <time>2012-07-31T10:29:58Z</time>
      </trkpt>
      <trkpt lat="45.93566" lon="13.57209">
        <ele>67.43</ele>
        <time>2012-07-31T10:29:59Z</time>
      </trkpt>
      <trkpt lat="45.93548" lon="13.57129">
        <ele>68.39</ele>
        <time>2012-07-31T10:30:06Z</time>
      </trkpt>
      <trkpt lat="45.9351" lon="13.56894">
        <ele>68.39</ele>
        <time>2012-07-31T10:30:20Z</time>
      </trkpt>
      <trkpt lat="45.93511" lon="13.56705">
        <ele>69.35</ele>
        <time>2012-07-31T10:30:30Z</time>
      </trkpt>
      <trkpt lat="45.93539" lon="13.56463">
        <ele>67.43</ele>
        <time>2012-07-31T10:30:43Z</time>
      </trkpt>
      <trkpt lat="45.93573" lon="13.5627">
        <ele>68.39</ele>
        <time>2012-07-31T10:30:53Z</time>
      </trkpt>
      <trkpt lat="45.93624" lon="13.55951">
        <ele>69.35</ele>
        <time>2012-07-31T10:31:07Z</time>
      </trkpt>
      <trkpt lat="45.93606" lon="13.55767">
        <ele>68.39</ele>
        <time>2012-07-31T10:31:14Z</time>
      </trkpt>
      <trkpt lat="45.9356" lon="13.55512">
        <ele>66.47</ele>
        <time>2012-07-31T10:31:24Z</time>
      </trkpt>
      <trkpt lat="45.93552" lon="13.55471">
        <ele>65.51</ele>
        <time>2012-07-31T10:31:26Z</time>
      </trkpt>
      <trkpt lat="45.93516" lon="13.55216">
        <ele>64.55</ele>
        <time>2012-07-31T10:31:38Z</time>
      </trkpt>
      <trkpt lat="45.93493" lon="13.54955">
        <ele>64.07</ele>
        <time>2012-07-31T10:31:50Z</time>
      </trkpt>
      <trkpt lat="45.93482" lon="13.54781">
        <ele>62.62</ele>
        <time>2012-07-31T10:31:59Z</time>
      </trkpt>
      <trkpt lat="45.93467" lon="13.54591">
        <ele>62.14</ele>
        <time>2012-07-31T10:32:09Z</time>
      </trkpt>
      <trkpt lat="45.93426" lon="13.54392">
        <ele>62.14</ele>
        <time>2012-07-31T10:32:19Z</time>
      </trkpt>
      <trkpt lat="45.93403" lon="13.54235">
        <ele>59.74</ele>
        <time>2012-07-31T10:32:28Z</time>
      </trkpt>
      <trkpt lat="45.93401" lon="13.54204">
        <ele>58.78</ele>
        <time>2012-07-31T10:32:34Z</time>
      </trkpt>
      <trkpt lat="45.93403" lon="13.54197">
        <ele>58.78</ele>
        <time>2012-07-31T10:32:35Z</time>
      </trkpt>
      <trkpt lat="45.93405" lon="13.54188">
        <ele>58.78</ele>
        <time>2012-07-31T10:32:36Z</time>
      </trkpt>
      <trkpt lat="45.93408" lon="13.54178">
        <ele>58.78</ele>
        <time>2012-07-31T10:32:37Z</time>
      </trkpt>
      <trkpt lat="45.9341" lon="13.54167">
        <ele>58.78</ele>
        <time>2012-07-31T10:32:38Z</time>
      </trkpt>
      <trkpt lat="45.9341" lon="13.54154">
        <ele>58.78</ele>
        <time>2012-07-31T10:32:39Z</time>
      </trkpt>
      <trkpt lat="45.93407" lon="13.54142">
        <ele>59.74</ele>
        <time>2012-07-31T10:32:40Z</time>
      </trkpt>
      <trkpt lat="45.93402" lon="13.5413">
        <ele>59.26</ele>
        <time>2012-07-31T10:32:41Z</time>
      </trkpt>
      <trkpt lat="45.93394" lon="13.5412">
        <ele>59.74</ele>
        <time>2012-07-31T10:32:42Z</time>
      </trkpt>
      <trkpt lat="45.93386" lon="13.5411">
        <ele>59.26</ele>
        <time>2012-07-31T10:32:43Z</time>
      </trkpt>
      <trkpt lat="45.93379" lon="13.54098">
        <ele>59.74</ele>
        <time>2012-07-31T10:32:44Z</time>
      </trkpt>
      <trkpt lat="45.93374" lon="13.54084">
        <ele>59.26</ele>
        <time>2012-07-31T10:32:45Z</time>
      </trkpt>
      <trkpt lat="45.93371" lon="13.54068">
        <ele>59.74</ele>
        <time>2012-07-31T10:32:46Z</time>
      </trkpt>
      <trkpt lat="45.93368" lon="13.5405">
        <ele>60.22</ele>
        <time>2012-07-31T10:32:47Z</time>
      </trkpt>
      <trkpt lat="45.93365" lon="13.54033">
        <ele>60.7</ele>
        <time>2012-07-31T10:32:48Z</time>
      </trkpt>
      <trkpt lat="45.93323" lon="13.53762">
        <ele>60.7</ele>
        <time>2012-07-31T10:33:01Z</time>
      </trkpt>
      <trkpt lat="45.93294" lon="13.53507">
        <ele>61.18</ele>
        <time>2012-07-31T10:33:11Z</time>
      </trkpt>
      <trkpt lat="45.93281" lon="13.53202">
        <ele>60.7</ele>
        <time>2012-07-31T10:33:23Z</time>
      </trkpt>
      <trkpt lat="45.93317" lon="13.53018">
        <ele>58.3</ele>
        <time>2012-07-31T10:33:31Z</time>
      </trkpt>
      <trkpt lat="45.93323" lon="13.52997">
        <ele>58.3</ele>
        <time>2012-07-31T10:33:32Z</time>
      </trkpt>
      <trkpt lat="45.93398" lon="13.5277">
        <ele>58.3</ele>
        <time>2012-07-31T10:33:44Z</time>
      </trkpt>
      <trkpt lat="45.93472" lon="13.52536">
        <ele>58.3</ele>
        <time>2012-07-31T10:33:55Z</time>
      </trkpt>
      <trkpt lat="45.93568" lon="13.52266">
        <ele>58.3</ele>
        <time>2012-07-31T10:34:06Z</time>
      </trkpt>
      <trkpt lat="45.93713" lon="13.51935">
        <ele>56.86</ele>
        <time>2012-07-31T10:34:20Z</time>
      </trkpt>
      <trkpt lat="45.9376" lon="13.51857">
        <ele>55.41</ele>
        <time>2012-07-31T10:34:24Z</time>
      </trkpt>
      <trkpt lat="45.93849" lon="13.51714">
        <ele>53.97</ele>
        <time>2012-07-31T10:34:32Z</time>
      </trkpt>
      <trkpt lat="45.93857" lon="13.51694">
        <ele>54.45</ele>
        <time>2012-07-31T10:34:33Z</time>
      </trkpt>
      <trkpt lat="45.93863" lon="13.51671">
        <ele>53.97</ele>
        <time>2012-07-31T10:34:34Z</time>
      </trkpt>
      <trkpt lat="45.93867" lon="13.51648">
        <ele>53.49</ele>
        <time>2012-07-31T10:34:35Z</time>
      </trkpt>
      <trkpt lat="45.9387" lon="13.51624">
        <ele>53.97</ele>
        <time>2012-07-31T10:34:36Z</time>
      </trkpt>
      <trkpt lat="45.93882" lon="13.51542">
        <ele>52.05</ele>
        <time>2012-07-31T10:34:40Z</time>
      </trkpt>
      <trkpt lat="45.93913" lon="13.51313">
        <ele>52.05</ele>
        <time>2012-07-31T10:34:52Z</time>
      </trkpt>
      <trkpt lat="45.93928" lon="13.51079">
        <ele>52.53</ele>
        <time>2012-07-31T10:35:02Z</time>
      </trkpt>
      <trkpt lat="45.9392" lon="13.50729">
        <ele>53.01</ele>
        <time>2012-07-31T10:35:16Z</time>
      </trkpt>
      <trkpt lat="45.93919" lon="13.50391">
        <ele>52.53</ele>
        <time>2012-07-31T10:35:29Z</time>
      </trkpt>
      <trkpt lat="45.93938" lon="13.50292">
        <ele>51.09</ele>
        <time>2012-07-31T10:35:33Z</time>
      </trkpt>
      <trkpt lat="45.93992" lon="13.50149">
        <ele>49.65</ele>
        <time>2012-07-31T10:35:41Z</time>
      </trkpt>
      <trkpt lat="45.94074" lon="13.49959">
        <ele>53.01</ele>
        <time>2012-07-31T10:35:51Z</time>
      </trkpt>
      <trkpt lat="45.9418" lon="13.49718">
        <ele>54.93</ele>
        <time>2012-07-31T10:36:03Z</time>
      </trkpt>
      <trkpt lat="45.94202" lon="13.49668">
        <ele>58.3</ele>
        <time>2012-07-31T10:36:05Z</time>
      </trkpt>
      <trkpt lat="45.94214" lon="13.49642">
        <ele>58.3</ele>
        <time>2012-07-31T10:36:06Z</time>
      </trkpt>
      <trkpt lat="45.94339" lon="13.49405">
        <ele>55.89</ele>
        <time>2012-07-31T10:36:15Z</time>
      </trkpt>
      <trkpt lat="45.94458" lon="13.49129">
        <ele>56.86</ele>
        <time>2012-07-31T10:36:25Z</time>
      </trkpt>
      <trkpt lat="45.94571" lon="13.48712">
        <ele>54.93</ele>
        <time>2012-07-31T10:36:39Z</time>
      </trkpt>
      <trkpt lat="45.94623" lon="13.48491">
        <ele>55.41</ele>
        <time>2012-07-31T10:36:48Z</time>
      </trkpt>
      <trkpt lat="45.94685" lon="13.48248">
        <ele>54.93</ele>
        <time>2012-07-31T10:36:58Z</time>
      </trkpt>
      <trkpt lat="45.94698" lon="13.482">
        <ele>53.49</ele>
        <time>2012-07-31T10:37:00Z</time>
      </trkpt>
      <trkpt lat="45.94777" lon="13.48025">
        <ele>52.05</ele>
        <time>2012-07-31T10:37:08Z</time>
      </trkpt>
      <trkpt lat="45.94929" lon="13.4774">
        <ele>49.16</ele>
        <time>2012-07-31T10:37:23Z</time>
      </trkpt>
      <trkpt lat="45.95068" lon="13.4747">
        <ele>50.61</ele>
        <time>2012-07-31T10:37:37Z</time>
      </trkpt>
      <trkpt lat="45.95156" lon="13.47295">
        <ele>51.57</ele>
        <time>2012-07-31T10:37:47Z</time>
      </trkpt>
      <trkpt lat="45.95217" lon="13.47172">
        <ele>50.13</ele>
        <time>2012-07-31T10:37:56Z</time>
      </trkpt>
      <trkpt lat="45.95245" lon="13.47097">
        <ele>50.13</ele>
        <time>2012-07-31T10:38:01Z</time>
      </trkpt>
      <trkpt lat="45.95249" lon="13.47079">
        <ele>50.61</ele>
        <time>2012-07-31T10:38:02Z</time>
      </trkpt>
      <trkpt lat="45.95251" lon="13.47059">
        <ele>50.61</ele>
        <time>2012-07-31T10:38:03Z</time>
      </trkpt>
      <trkpt lat="45.95255" lon="13.46832">
        <ele>52.53</ele>
        <time>2012-07-31T10:38:14Z</time>
      </trkpt>
      <trkpt lat="45.95257" lon="13.46543">
        <ele>53.49</ele>
        <time>2012-07-31T10:38:26Z</time>
      </trkpt>
      <trkpt lat="45.95258" lon="13.46228">
        <ele>54.45</ele>
        <time>2012-07-31T10:38:39Z</time>
      </trkpt>
      <trkpt lat="45.95262" lon="13.4596">
        <ele>54.45</ele>
        <time>2012-07-31T10:38:50Z</time>
      </trkpt>
      <trkpt lat="45.95266" lon="13.45524">
        <ele>55.89</ele>
        <time>2012-07-31T10:39:07Z</time>
      </trkpt>
      <trkpt lat="45.95267" lon="13.45388">
        <ele>57.82</ele>
        <time>2012-07-31T10:39:12Z</time>
      </trkpt>
      <trkpt lat="45.95272" lon="13.44921">
        <ele>58.3</ele>
        <time>2012-07-31T10:39:28Z</time>
      </trkpt>
      <trkpt lat="45.95275" lon="13.44551">
        <ele>56.86</ele>
        <time>2012-07-31T10:39:40Z</time>
      </trkpt>
      <trkpt lat="45.95278" lon="13.44174">
        <ele>54.93</ele>
        <time>2012-07-31T10:39:53Z</time>
      </trkpt>
      <trkpt lat="45.95279" lon="13.44058">
        <ele>53.49</ele>
        <time>2012-07-31T10:39:57Z</time>
      </trkpt>
      <trkpt lat="45.95282" lon="13.43659">
        <ele>52.05</ele>
        <time>2012-07-31T10:40:11Z</time>
      </trkpt>
      <trkpt lat="45.95285" lon="13.43422">
        <ele>50.13</ele>
        <time>2012-07-31T10:40:20Z</time>
      </trkpt>
      <trkpt lat="45.9529" lon="13.43324">
        <ele>51.09</ele>
        <time>2012-07-31T10:40:24Z</time>
      </trkpt>
      <trkpt lat="45.95295" lon="13.43301">
        <ele>50.61</ele>
        <time>2012-07-31T10:40:25Z</time>
      </trkpt>
      <trkpt lat="45.953" lon="13.4328">
        <ele>50.13</ele>
        <time>2012-07-31T10:40:26Z</time>
      </trkpt>
      <trkpt lat="45.95305" lon="13.43264">
        <ele>49.65</ele>
        <time>2012-07-31T10:40:27Z</time>
      </trkpt>
      <trkpt lat="45.95311" lon="13.43249">
        <ele>49.16</ele>
        <time>2012-07-31T10:40:28Z</time>
      </trkpt>
      <trkpt lat="45.95317" lon="13.43233">
        <ele>49.65</ele>
        <time>2012-07-31T10:40:29Z</time>
      </trkpt>
      <trkpt lat="45.95325" lon="13.43218">
        <ele>49.65</ele>
        <time>2012-07-31T10:40:30Z</time>
      </trkpt>
      <trkpt lat="45.95334" lon="13.43201">
        <ele>51.09</ele>
        <time>2012-07-31T10:40:31Z</time>
      </trkpt>
      <trkpt lat="45.95353" lon="13.43168">
        <ele>52.05</ele>
        <time>2012-07-31T10:40:33Z</time>
      </trkpt>
      <trkpt lat="45.95472" lon="13.42966">
        <ele>53.01</ele>
        <time>2012-07-31T10:40:45Z</time>
      </trkpt>
      <trkpt lat="45.96676" lon="13.40926">
        <ele>64.07</ele>
        <time>2012-07-31T10:42:56Z</time>
      </trkpt>
      <trkpt lat="45.96837" lon="13.40625">
        <ele>62.62</ele>
        <time>2012-07-31T10:43:10Z</time>
      </trkpt>
      <trkpt lat="45.96865" lon="13.40573">
        <ele>61.18</ele>
        <time>2012-07-31T10:43:13Z</time>
      </trkpt>
      <trkpt lat="45.96936" lon="13.40438">
        <ele>63.58</ele>
        <time>2012-07-31T10:43:21Z</time>
      </trkpt>
      <trkpt lat="45.97004" lon="13.40312">
        <ele>62.14</ele>
        <time>2012-07-31T10:43:29Z</time>
      </trkpt>
      <trkpt lat="45.97121" lon="13.40095">
        <ele>63.1</ele>
        <time>2012-07-31T10:43:42Z</time>
      </trkpt>
      <trkpt lat="45.97177" lon="13.3999">
        <ele>61.66</ele>
        <time>2012-07-31T10:43:48Z</time>
      </trkpt>
      <trkpt lat="45.97256" lon="13.39839">
        <ele>62.14</ele>
        <time>2012-07-31T10:43:58Z</time>
      </trkpt>
      <trkpt lat="45.97293" lon="13.39763">
        <ele>61.66</ele>
        <time>2012-07-31T10:44:03Z</time>
      </trkpt>
      <trkpt lat="45.97302" lon="13.39749">
        <ele>60.22</ele>
        <time>2012-07-31T10:44:04Z</time>
      </trkpt>
      <trkpt lat="45.97357" lon="13.39654">
        <ele>63.58</ele>
        <time>2012-07-31T10:44:10Z</time>
      </trkpt>
      <trkpt lat="45.97448" lon="13.39484">
        <ele>62.62</ele>
        <time>2012-07-31T10:44:20Z</time>
      </trkpt>
      <trkpt lat="45.97469" lon="13.39444">
        <ele>60.7</ele>
        <time>2012-07-31T10:44:24Z</time>
      </trkpt>
      <trkpt lat="45.97489" lon="13.39409">
        <ele>60.22</ele>
        <time>2012-07-31T10:44:31Z</time>
      </trkpt>
      <trkpt lat="45.9749" lon="13.39408">
        <ele>60.22</ele>
        <time>2012-07-31T10:45:05Z</time>
      </trkpt>
      <trkpt lat="45.97513" lon="13.3936">
        <ele>62.14</ele>
        <time>2012-07-31T10:45:11Z</time>
      </trkpt>
      <trkpt lat="45.97519" lon="13.39348">
        <ele>62.14</ele>
        <time>2012-07-31T10:45:12Z</time>
      </trkpt>
      <trkpt lat="45.97548" lon="13.39294">
        <ele>63.1</ele>
        <time>2012-07-31T10:45:16Z</time>
      </trkpt>
      <trkpt lat="45.97639" lon="13.39123">
        <ele>66.47</ele>
        <time>2012-07-31T10:45:26Z</time>
      </trkpt>
      <trkpt lat="45.97795" lon="13.3883">
        <ele>66.95</ele>
        <time>2012-07-31T10:45:40Z</time>
      </trkpt>
      <trkpt lat="45.97918" lon="13.38599">
        <ele>63.58</ele>
        <time>2012-07-31T10:45:50Z</time>
      </trkpt>
      <trkpt lat="45.98052" lon="13.38347">
        <ele>60.7</ele>
        <time>2012-07-31T10:46:01Z</time>
      </trkpt>
      <trkpt lat="45.98074" lon="13.38306">
        <ele>59.74</ele>
        <time>2012-07-31T10:46:03Z</time>
      </trkpt>
      <trkpt lat="45.98163" lon="13.38144">
        <ele>58.3</ele>
        <time>2012-07-31T10:46:12Z</time>
      </trkpt>
      <trkpt lat="45.98292" lon="13.37901">
        <ele>58.3</ele>
        <time>2012-07-31T10:46:25Z</time>
      </trkpt>
      <trkpt lat="45.9838" lon="13.37738">
        <ele>60.22</ele>
        <time>2012-07-31T10:46:34Z</time>
      </trkpt>
      <trkpt lat="45.98499" lon="13.37515">
        <ele>61.18</ele>
        <time>2012-07-31T10:46:46Z</time>
      </trkpt>
      <trkpt lat="45.9852" lon="13.37477">
        <ele>62.62</ele>
        <time>2012-07-31T10:46:48Z</time>
      </trkpt>
      <trkpt lat="45.98634" lon="13.3726">
        <ele>63.58</ele>
        <time>2012-07-31T10:47:00Z</time>
      </trkpt>
      <trkpt lat="45.98805" lon="13.36941">
        <ele>64.07</ele>
        <time>2012-07-31T10:47:17Z</time>
      </trkpt>
      <trkpt lat="45.98967" lon="13.36638">
        <ele>64.07</ele>
        <time>2012-07-31T10:47:32Z</time>
      </trkpt>
      <trkpt lat="45.99146" lon="13.36305">
        <ele>65.51</ele>
        <time>2012-07-31T10:47:48Z</time>
      </trkpt>
      <trkpt lat="45.99329" lon="13.3596">
        <ele>65.03</ele>
        <time>2012-07-31T10:48:04Z</time>
      </trkpt>
      <trkpt lat="45.99603" lon="13.35453">
        <ele>64.07</ele>
        <time>2012-07-31T10:48:27Z</time>
      </trkpt>
      <trkpt lat="45.9964" lon="13.35385">
        <ele>66.47</ele>
        <time>2012-07-31T10:48:30Z</time>
      </trkpt>
      <trkpt lat="45.99837" lon="13.35009">
        <ele>65.51</ele>
        <time>2012-07-31T10:48:47Z</time>
      </trkpt>
      <trkpt lat="46.00046" lon="13.34619">
        <ele>67.91</ele>
        <time>2012-07-31T10:49:05Z</time>
      </trkpt>
      <trkpt lat="46.00195" lon="13.34338">
        <ele>66.95</ele>
        <time>2012-07-31T10:49:18Z</time>
      </trkpt>
      <trkpt lat="46.0032" lon="13.34106">
        <ele>66.95</ele>
        <time>2012-07-31T10:49:30Z</time>
      </trkpt>
      <trkpt lat="46.00408" lon="13.33941">
        <ele>65.51</ele>
        <time>2012-07-31T10:49:40Z</time>
      </trkpt>
      <trkpt lat="46.00464" lon="13.33838">
        <ele>66.95</ele>
        <time>2012-07-31T10:49:48Z</time>
      </trkpt>
      <trkpt lat="46.00565" lon="13.3365">
        <ele>69.83</ele>
        <time>2012-07-31T10:49:59Z</time>
      </trkpt>
      <trkpt lat="46.00575" lon="13.33631">
        <ele>69.35</ele>
        <time>2012-07-31T10:50:00Z</time>
      </trkpt>
      <trkpt lat="46.00741" lon="13.33315">
        <ele>69.83</ele>
        <time>2012-07-31T10:50:16Z</time>
      </trkpt>
      <trkpt lat="46.00886" lon="13.33041">
        <ele>70.79</ele>
        <time>2012-07-31T10:50:30Z</time>
      </trkpt>
      <trkpt lat="46.00901" lon="13.33012">
        <ele>69.83</ele>
        <time>2012-07-31T10:50:32Z</time>
      </trkpt>
      <trkpt lat="46.00947" lon="13.32942">
        <ele>68.87</ele>
        <time>2012-07-31T10:50:39Z</time>
      </trkpt>
      <trkpt lat="46.00954" lon="13.32937">
        <ele>69.35</ele>
        <time>2012-07-31T10:50:40Z</time>
      </trkpt>
      <trkpt lat="46.00962" lon="13.32933">
        <ele>69.83</ele>
        <time>2012-07-31T10:50:41Z</time>
      </trkpt>
      <trkpt lat="46.0097" lon="13.32929">
        <ele>68.87</ele>
        <time>2012-07-31T10:50:42Z</time>
      </trkpt>
      <trkpt lat="46.00978" lon="13.32922">
        <ele>69.35</ele>
        <time>2012-07-31T10:50:43Z</time>
      </trkpt>
      <trkpt lat="46.00984" lon="13.32912">
        <ele>69.83</ele>
        <time>2012-07-31T10:50:44Z</time>
      </trkpt>
      <trkpt lat="46.00987" lon="13.329">
        <ele>69.83</ele>
        <time>2012-07-31T10:50:45Z</time>
      </trkpt>
      <trkpt lat="46.00988" lon="13.32888">
        <ele>69.83</ele>
        <time>2012-07-31T10:50:46Z</time>
      </trkpt>
      <trkpt lat="46.00988" lon="13.32875">
        <ele>69.35</ele>
        <time>2012-07-31T10:50:47Z</time>
      </trkpt>
      <trkpt lat="46.0099" lon="13.32863">
        <ele>69.35</ele>
        <time>2012-07-31T10:50:48Z</time>
      </trkpt>
      <trkpt lat="46.00994" lon="13.32852">
        <ele>69.35</ele>
        <time>2012-07-31T10:50:49Z</time>
      </trkpt>
      <trkpt lat="46.00999" lon="13.32841">
        <ele>69.35</ele>
        <time>2012-07-31T10:50:50Z</time>
      </trkpt>
      <trkpt lat="46.01038" lon="13.3276">
        <ele>71.27</ele>
        <time>2012-07-31T10:50:57Z</time>
      </trkpt>
      <trkpt lat="46.01141" lon="13.32564">
        <ele>72.24</ele>
        <time>2012-07-31T10:51:10Z</time>
      </trkpt>
      <trkpt lat="46.01198" lon="13.32458">
        <ele>74.16</ele>
        <time>2012-07-31T10:51:17Z</time>
      </trkpt>
      <trkpt lat="46.01232" lon="13.32394">
        <ele>78</ele>
        <time>2012-07-31T10:51:20Z</time>
      </trkpt>
      <trkpt lat="46.01277" lon="13.3231">
        <ele>74.64</ele>
        <time>2012-07-31T10:51:24Z</time>
      </trkpt>
      <trkpt lat="46.01365" lon="13.32145">
        <ele>73.68</ele>
        <time>2012-07-31T10:51:34Z</time>
      </trkpt>
      <trkpt lat="46.014" lon="13.32091">
        <ele>73.2</ele>
        <time>2012-07-31T10:51:39Z</time>
      </trkpt>
      <trkpt lat="46.01408" lon="13.32085">
        <ele>73.68</ele>
        <time>2012-07-31T10:51:40Z</time>
      </trkpt>
      <trkpt lat="46.01423" lon="13.32072">
        <ele>72.72</ele>
        <time>2012-07-31T10:51:42Z</time>
      </trkpt>
      <trkpt lat="46.01428" lon="13.32064">
        <ele>72.24</ele>
        <time>2012-07-31T10:51:43Z</time>
      </trkpt>
      <trkpt lat="46.01431" lon="13.32054">
        <ele>72.24</ele>
        <time>2012-07-31T10:51:44Z</time>
      </trkpt>
      <trkpt lat="46.01432" lon="13.32043">
        <ele>71.76</ele>
        <time>2012-07-31T10:51:45Z</time>
      </trkpt>
      <trkpt lat="46.01429" lon="13.32033">
        <ele>72.24</ele>
        <time>2012-07-31T10:51:46Z</time>
      </trkpt>
      <trkpt lat="46.01424" lon="13.32025">
        <ele>71.76</ele>
        <time>2012-07-31T10:51:47Z</time>
      </trkpt>
      <trkpt lat="46.01417" lon="13.32021">
        <ele>71.27</ele>
        <time>2012-07-31T10:51:48Z</time>
      </trkpt>
      <trkpt lat="46.0141" lon="13.32022">
        <ele>71.76</ele>
        <time>2012-07-31T10:51:49Z</time>
      </trkpt>
      <trkpt lat="46.01402" lon="13.32026">
        <ele>71.76</ele>
        <time>2012-07-31T10:51:50Z</time>
      </trkpt>
      <trkpt lat="46.01396" lon="13.32034">
        <ele>71.76</ele>
        <time>2012-07-31T10:51:51Z</time>
      </trkpt>
      <trkpt lat="46.01393" lon="13.32043">
        <ele>71.76</ele>
        <time>2012-07-31T10:51:52Z</time>
      </trkpt>
      <trkpt lat="46.01393" lon="13.32053">
        <ele>72.24</ele>
        <time>2012-07-31T10:51:53Z</time>
      </trkpt>
      <trkpt lat="46.01395" lon="13.32063">
        <ele>72.24</ele>
        <time>2012-07-31T10:51:54Z</time>
      </trkpt>
      <trkpt lat="46.014" lon="13.32071">
        <ele>72.24</ele>
        <time>2012-07-31T10:51:55Z</time>
      </trkpt>
      <trkpt lat="46.01407" lon="13.32076">
        <ele>72.72</ele>
        <time>2012-07-31T10:51:56Z</time>
      </trkpt>
      <trkpt lat="46.01414" lon="13.32077">
        <ele>72.72</ele>
        <time>2012-07-31T10:51:57Z</time>
      </trkpt>
      <trkpt lat="46.01422" lon="13.32074">
        <ele>73.2</ele>
        <time>2012-07-31T10:51:58Z</time>
      </trkpt>
      <trkpt lat="46.01428" lon="13.32068">
        <ele>73.2</ele>
        <time>2012-07-31T10:51:59Z</time>
      </trkpt>
      <trkpt lat="46.01431" lon="13.32059">
        <ele>72.24</ele>
        <time>2012-07-31T10:52:00Z</time>
      </trkpt>
      <trkpt lat="46.01433" lon="13.32049">
        <ele>72.72</ele>
        <time>2012-07-31T10:52:01Z</time>
      </trkpt>
      <trkpt lat="46.01431" lon="13.32038">
        <ele>72.24</ele>
        <time>2012-07-31T10:52:02Z</time>
      </trkpt>
      <trkpt lat="46.01427" lon="13.32029">
        <ele>71.27</ele>
        <time>2012-07-31T10:52:03Z</time>
      </trkpt>
      <trkpt lat="46.01421" lon="13.32023">
        <ele>71.27</ele>
        <time>2012-07-31T10:52:04Z</time>
      </trkpt>
      <trkpt lat="46.01413" lon="13.3202">
        <ele>71.27</ele>
        <time>2012-07-31T10:52:05Z</time>
      </trkpt>
      <trkpt lat="46.01405" lon="13.32022">
        <ele>71.76</ele>
        <time>2012-07-31T10:52:06Z</time>
      </trkpt>
      <trkpt lat="46.01398" lon="13.32027">
        <ele>71.76</ele>
        <time>2012-07-31T10:52:07Z</time>
      </trkpt>
      <trkpt lat="46.01392" lon="13.32032">
        <ele>71.76</ele>
        <time>2012-07-31T10:52:08Z</time>
      </trkpt>
      <trkpt lat="46.01386" lon="13.32038">
        <ele>71.76</ele>
        <time>2012-07-31T10:52:09Z</time>
      </trkpt>
      <trkpt lat="46.01338" lon="13.32083">
        <ele>71.27</ele>
        <time>2012-07-31T10:52:19Z</time>
      </trkpt>
      <trkpt lat="46.01335" lon="13.32089">
        <ele>71.27</ele>
        <time>2012-07-31T10:52:20Z</time>
      </trkpt>
      <trkpt lat="46.01334" lon="13.32094">
        <ele>71.27</ele>
        <time>2012-07-31T10:52:21Z</time>
      </trkpt>
      <trkpt lat="46.01334" lon="13.321">
        <ele>71.27</ele>
        <time>2012-07-31T10:52:22Z</time>
      </trkpt>
      <trkpt lat="46.01334" lon="13.32107">
        <ele>71.27</ele>
        <time>2012-07-31T10:52:23Z</time>
      </trkpt>
      <trkpt lat="46.01332" lon="13.32115">
        <ele>71.27</ele>
        <time>2012-07-31T10:52:24Z</time>
      </trkpt>
      <trkpt lat="46.0133" lon="13.32124">
        <ele>71.76</ele>
        <time>2012-07-31T10:52:25Z</time>
      </trkpt>
      <trkpt lat="46.01326" lon="13.32133">
        <ele>71.76</ele>
        <time>2012-07-31T10:52:26Z</time>
      </trkpt>
      <trkpt lat="46.01323" lon="13.32141">
        <ele>71.27</ele>
        <time>2012-07-31T10:52:27Z</time>
      </trkpt>
      <trkpt lat="46.0128" lon="13.32219">
        <ele>71.27</ele>
        <time>2012-07-31T10:52:38Z</time>
      </trkpt>
      <trkpt lat="46.01265" lon="13.32249">
        <ele>70.79</ele>
        <time>2012-07-31T10:52:42Z</time>
      </trkpt>
      <trkpt lat="46.01263" lon="13.32257">
        <ele>70.79</ele>
        <time>2012-07-31T10:52:43Z</time>
      </trkpt>
      <trkpt lat="46.01264" lon="13.32264">
        <ele>70.79</ele>
        <time>2012-07-31T10:52:44Z</time>
      </trkpt>
      <trkpt lat="46.01267" lon="13.32271">
        <ele>71.27</ele>
        <time>2012-07-31T10:52:45Z</time>
      </trkpt>
      <trkpt lat="46.0127" lon="13.32276">
        <ele>71.76</ele>
        <time>2012-07-31T10:52:46Z</time>
      </trkpt>
      <trkpt lat="46.01274" lon="13.3228">
        <ele>70.79</ele>
        <time>2012-07-31T10:52:47Z</time>
      </trkpt>
      <trkpt lat="46.01277" lon="13.32282">
        <ele>70.79</ele>
        <time>2012-07-31T10:52:48Z</time>
      </trkpt>
      <trkpt lat="46.01281" lon="13.32288">
        <ele>71.27</ele>
        <time>2012-07-31T10:52:57Z</time>
      </trkpt>
      <trkpt lat="46.01281" lon="13.3229">
        <ele>70.79</ele>
        <time>2012-07-31T10:52:59Z</time>
      </trkpt>
      <trkpt lat="46.01281" lon="13.32294">
        <ele>71.76</ele>
        <time>2012-07-31T10:53:00Z</time>
      </trkpt>
      <trkpt lat="46.01279" lon="13.323">
        <ele>71.76</ele>
        <time>2012-07-31T10:53:01Z</time>
      </trkpt>
      <trkpt lat="46.01276" lon="13.32307">
        <ele>71.76</ele>
        <time>2012-07-31T10:53:02Z</time>
      </trkpt>
      <trkpt lat="46.01271" lon="13.32315">
        <ele>72.24</ele>
        <time>2012-07-31T10:53:03Z</time>
      </trkpt>
      <trkpt lat="46.01203" lon="13.32443">
        <ele>72.24</ele>
        <time>2012-07-31T10:53:15Z</time>
      </trkpt>
      <trkpt lat="46.01184" lon="13.32475">
        <ele>70.79</ele>
        <time>2012-07-31T10:53:19Z</time>
      </trkpt>
      <trkpt lat="46.01179" lon="13.32475">
        <ele>70.79</ele>
        <time>2012-07-31T10:53:20Z</time>
      </trkpt>
      <trkpt lat="46.01174" lon="13.32471">
        <ele>70.79</ele>
        <time>2012-07-31T10:53:21Z</time>
      </trkpt>
      <trkpt lat="46.0117" lon="13.32465">
        <ele>70.79</ele>
        <time>2012-07-31T10:53:22Z</time>
      </trkpt>
      <trkpt lat="46.01164" lon="13.32458">
        <ele>70.79</ele>
        <time>2012-07-31T10:53:23Z</time>
      </trkpt>
      <trkpt lat="46.01158" lon="13.32452">
        <ele>70.79</ele>
        <time>2012-07-31T10:53:24Z</time>
      </trkpt>
      <trkpt lat="46.01152" lon="13.32446">
        <ele>69.83</ele>
        <time>2012-07-31T10:53:25Z</time>
      </trkpt>
      <trkpt lat="46.01088" lon="13.32556">
        <ele>70.79</ele>
        <time>2012-07-31T11:44:19Z</time>
      </trkpt>
      <trkpt lat="46.01087" lon="13.32557">
        <ele>71.76</ele>
        <time>2012-07-31T11:44:21Z</time>
      </trkpt>
      <trkpt lat="46.01083" lon="13.32561">
        <ele>74.64</ele>
        <time>2012-07-31T11:44:45Z</time>
      </trkpt>
      <trkpt lat="46.01083" lon="13.32562">
        <ele>78</ele>
        <time>2012-07-31T11:45:06Z</time>
      </trkpt>
      <trkpt lat="46.01081" lon="13.32561">
        <ele>78</ele>
        <time>2012-07-31T11:45:37Z</time>
      </trkpt>
      <trkpt lat="46.01083" lon="13.32559">
        <ele>76.56</ele>
        <time>2012-07-31T11:46:04Z</time>
      </trkpt>
      <trkpt lat="46.01088" lon="13.32568">
        <ele>76.56</ele>
        <time>2012-07-31T11:46:18Z</time>
      </trkpt>
      <trkpt lat="46.01089" lon="13.32568">
        <ele>77.04</ele>
        <time>2012-07-31T11:46:44Z</time>
      </trkpt>
      <trkpt lat="46.01089" lon="13.32568">
        <ele>76.08</ele>
        <time>2012-07-31T11:47:04Z</time>
      </trkpt>
      <trkpt lat="46.01096" lon="13.32575">
        <ele>76.56</ele>
        <time>2012-07-31T11:47:10Z</time>
      </trkpt>
      <trkpt lat="46.011" lon="13.32582">
        <ele>76.56</ele>
        <time>2012-07-31T11:47:11Z</time>
      </trkpt>
      <trkpt lat="46.01114" lon="13.326">
        <ele>77.52</ele>
        <time>2012-07-31T11:47:16Z</time>
      </trkpt>
      <trkpt lat="46.01119" lon="13.326">
        <ele>77.52</ele>
        <time>2012-07-31T11:47:17Z</time>
      </trkpt>
      <trkpt lat="46.01123" lon="13.32597">
        <ele>78.48</ele>
        <time>2012-07-31T11:47:18Z</time>
      </trkpt>
      <trkpt lat="46.01128" lon="13.32591">
        <ele>77.52</ele>
        <time>2012-07-31T11:47:19Z</time>
      </trkpt>
      <trkpt lat="46.01133" lon="13.32582">
        <ele>78</ele>
        <time>2012-07-31T11:47:20Z</time>
      </trkpt>
      <trkpt lat="46.01138" lon="13.32571">
        <ele>78</ele>
        <time>2012-07-31T11:47:21Z</time>
      </trkpt>
      <trkpt lat="46.01199" lon="13.32458">
        <ele>80.41</ele>
        <time>2012-07-31T11:47:29Z</time>
      </trkpt>
      <trkpt lat="46.01342" lon="13.32188">
        <ele>81.37</ele>
        <time>2012-07-31T11:47:46Z</time>
      </trkpt>
      <trkpt lat="46.01372" lon="13.32133">
        <ele>81.37</ele>
        <time>2012-07-31T11:47:50Z</time>
      </trkpt>
      <trkpt lat="46.01406" lon="13.32088">
        <ele>81.37</ele>
        <time>2012-07-31T11:47:55Z</time>
      </trkpt>
      <trkpt lat="46.0142" lon="13.32076">
        <ele>80.89</ele>
        <time>2012-07-31T11:47:57Z</time>
      </trkpt>
      <trkpt lat="46.01426" lon="13.32068">
        <ele>80.89</ele>
        <time>2012-07-31T11:47:58Z</time>
      </trkpt>
      <trkpt lat="46.01431" lon="13.32057">
        <ele>80.41</ele>
        <time>2012-07-31T11:47:59Z</time>
      </trkpt>
      <trkpt lat="46.01433" lon="13.32045">
        <ele>81.37</ele>
        <time>2012-07-31T11:48:00Z</time>
      </trkpt>
      <trkpt lat="46.01435" lon="13.32032">
        <ele>81.37</ele>
        <time>2012-07-31T11:48:01Z</time>
      </trkpt>
      <trkpt lat="46.01438" lon="13.32018">
        <ele>81.37</ele>
        <time>2012-07-31T11:48:02Z</time>
      </trkpt>
      <trkpt lat="46.01441" lon="13.32006">
        <ele>81.85</ele>
        <time>2012-07-31T11:48:03Z</time>
      </trkpt>
      <trkpt lat="46.01446" lon="13.31994">
        <ele>81.85</ele>
        <time>2012-07-31T11:48:04Z</time>
      </trkpt>
      <trkpt lat="46.01502" lon="13.31888">
        <ele>83.29</ele>
        <time>2012-07-31T11:48:13Z</time>
      </trkpt>
      <trkpt lat="46.01547" lon="13.31784">
        <ele>85.21</ele>
        <time>2012-07-31T11:48:19Z</time>
      </trkpt>
      <trkpt lat="46.01596" lon="13.31562">
        <ele>88.1</ele>
        <time>2012-07-31T11:48:29Z</time>
      </trkpt>
      <trkpt lat="46.01647" lon="13.31211">
        <ele>91.94</ele>
        <time>2012-07-31T11:48:43Z</time>
      </trkpt>
      <trkpt lat="46.01703" lon="13.30841">
        <ele>88.1</ele>
        <time>2012-07-31T11:48:58Z</time>
      </trkpt>
      <trkpt lat="46.01712" lon="13.30773">
        <ele>86.18</ele>
        <time>2012-07-31T11:49:01Z</time>
      </trkpt>
      <trkpt lat="46.01728" lon="13.30662">
        <ele>82.33</ele>
        <time>2012-07-31T11:49:07Z</time>
      </trkpt>
      <trkpt lat="46.01734" lon="13.30632">
        <ele>81.37</ele>
        <time>2012-07-31T11:49:13Z</time>
      </trkpt>
      <trkpt lat="46.01735" lon="13.30633">
        <ele>81.37</ele>
        <time>2012-07-31T11:49:30Z</time>
      </trkpt>
      <trkpt lat="46.01736" lon="13.30618">
        <ele>81.85</ele>
        <time>2012-07-31T11:49:53Z</time>
      </trkpt>
      <trkpt lat="46.01749" lon="13.3053">
        <ele>82.33</ele>
        <time>2012-07-31T11:50:02Z</time>
      </trkpt>
      <trkpt lat="46.01751" lon="13.3052">
        <ele>81.85</ele>
        <time>2012-07-31T11:50:03Z</time>
      </trkpt>
      <trkpt lat="46.01756" lon="13.30511">
        <ele>82.33</ele>
        <time>2012-07-31T11:50:04Z</time>
      </trkpt>
      <trkpt lat="46.01762" lon="13.30505">
        <ele>82.33</ele>
        <time>2012-07-31T11:50:05Z</time>
      </trkpt>
      <trkpt lat="46.0177" lon="13.30504">
        <ele>82.81</ele>
        <time>2012-07-31T11:50:06Z</time>
      </trkpt>
      <trkpt lat="46.01779" lon="13.30507">
        <ele>83.29</ele>
        <time>2012-07-31T11:50:07Z</time>
      </trkpt>
      <trkpt lat="46.0179" lon="13.30512">
        <ele>83.77</ele>
        <time>2012-07-31T11:50:08Z</time>
      </trkpt>
      <trkpt lat="46.01902" lon="13.30584">
        <ele>85.69</ele>
        <time>2012-07-31T11:50:17Z</time>
      </trkpt>
      <trkpt lat="46.02071" lon="13.30695">
        <ele>87.14</ele>
        <time>2012-07-31T11:50:29Z</time>
      </trkpt>
      <trkpt lat="46.02102" lon="13.3071">
        <ele>88.1</ele>
        <time>2012-07-31T11:50:31Z</time>
      </trkpt>
      <trkpt lat="46.02118" lon="13.30714">
        <ele>88.58</ele>
        <time>2012-07-31T11:50:32Z</time>
      </trkpt>
      <trkpt lat="46.02136" lon="13.30716">
        <ele>88.58</ele>
        <time>2012-07-31T11:50:33Z</time>
      </trkpt>
      <trkpt lat="46.02224" lon="13.30721">
        <ele>91.94</ele>
        <time>2012-07-31T11:50:38Z</time>
      </trkpt>
      <trkpt lat="46.0226" lon="13.30727">
        <ele>92.9</ele>
        <time>2012-07-31T11:50:40Z</time>
      </trkpt>
      <trkpt lat="46.02455" lon="13.30808">
        <ele>94.35</ele>
        <time>2012-07-31T11:50:51Z</time>
      </trkpt>
      <trkpt lat="46.02646" lon="13.30852">
        <ele>95.31</ele>
        <time>2012-07-31T11:51:01Z</time>
      </trkpt>
      <trkpt lat="46.02805" lon="13.3087">
        <ele>95.31</ele>
        <time>2012-07-31T11:51:09Z</time>
      </trkpt>
      <trkpt lat="46.02824" lon="13.30865">
        <ele>94.83</ele>
        <time>2012-07-31T11:51:10Z</time>
      </trkpt>
      <trkpt lat="46.02843" lon="13.30857">
        <ele>94.83</ele>
        <time>2012-07-31T11:51:11Z</time>
      </trkpt>
      <trkpt lat="46.02862" lon="13.30848">
        <ele>94.35</ele>
        <time>2012-07-31T11:51:12Z</time>
      </trkpt>
      <trkpt lat="46.02881" lon="13.30837">
        <ele>94.35</ele>
        <time>2012-07-31T11:51:13Z</time>
      </trkpt>
      <trkpt lat="46.03037" lon="13.3075">
        <ele>92.42</ele>
        <time>2012-07-31T11:51:22Z</time>
      </trkpt>
      <trkpt lat="46.03194" lon="13.30685">
        <ele>90.5</ele>
        <time>2012-07-31T11:51:32Z</time>
      </trkpt>
      <trkpt lat="46.03254" lon="13.30659">
        <ele>89.54</ele>
        <time>2012-07-31T11:51:37Z</time>
      </trkpt>
      <trkpt lat="46.03276" lon="13.30647">
        <ele>88.58</ele>
        <time>2012-07-31T11:51:40Z</time>
      </trkpt>
      <trkpt lat="46.0328" lon="13.3064">
        <ele>88.1</ele>
        <time>2012-07-31T11:51:41Z</time>
      </trkpt>
      <trkpt lat="46.0328" lon="13.30632">
        <ele>88.1</ele>
        <time>2012-07-31T11:51:42Z</time>
      </trkpt>
      <trkpt lat="46.03277" lon="13.30622">
        <ele>88.58</ele>
        <time>2012-07-31T11:51:43Z</time>
      </trkpt>
      <trkpt lat="46.03272" lon="13.3061">
        <ele>88.58</ele>
        <time>2012-07-31T11:51:44Z</time>
      </trkpt>
      <trkpt lat="46.03245" lon="13.30538">
        <ele>89.54</ele>
        <time>2012-07-31T11:51:49Z</time>
      </trkpt>
      <trkpt lat="46.03235" lon="13.30508">
        <ele>89.54</ele>
        <time>2012-07-31T11:51:51Z</time>
      </trkpt>
      <trkpt lat="46.03232" lon="13.30493">
        <ele>90.02</ele>
        <time>2012-07-31T11:51:52Z</time>
      </trkpt>
      <trkpt lat="46.03224" lon="13.30394">
        <ele>91.46</ele>
        <time>2012-07-31T11:51:58Z</time>
      </trkpt>
      <trkpt lat="46.03226" lon="13.30378">
        <ele>90.98</ele>
        <time>2012-07-31T11:51:59Z</time>
      </trkpt>
      <trkpt lat="46.03284" lon="13.30194">
        <ele>93.87</ele>
        <time>2012-07-31T11:52:11Z</time>
      </trkpt>
      <trkpt lat="46.03342" lon="13.30061">
        <ele>92.9</ele>
        <time>2012-07-31T11:52:20Z</time>
      </trkpt>
      <trkpt lat="46.03427" lon="13.29845">
        <ele>94.83</ele>
        <time>2012-07-31T11:52:32Z</time>
      </trkpt>
      <trkpt lat="46.03528" lon="13.29639">
        <ele>97.23</ele>
        <time>2012-07-31T11:52:44Z</time>
      </trkpt>
      <trkpt lat="46.03631" lon="13.29415">
        <ele>97.23</ele>
        <time>2012-07-31T11:52:57Z</time>
      </trkpt>
      <trkpt lat="46.03656" lon="13.29385">
        <ele>96.27</ele>
        <time>2012-07-31T11:53:00Z</time>
      </trkpt>
      <trkpt lat="46.03662" lon="13.2938">
        <ele>95.31</ele>
        <time>2012-07-31T11:53:01Z</time>
      </trkpt>
      <trkpt lat="46.0367" lon="13.29377">
        <ele>95.79</ele>
        <time>2012-07-31T11:53:02Z</time>
      </trkpt>
      <trkpt lat="46.03679" lon="13.29378">
        <ele>96.27</ele>
        <time>2012-07-31T11:53:03Z</time>
      </trkpt>
      <trkpt lat="46.03689" lon="13.29379">
        <ele>96.27</ele>
        <time>2012-07-31T11:53:04Z</time>
      </trkpt>
      <trkpt lat="46.037" lon="13.29379">
        <ele>96.27</ele>
        <time>2012-07-31T11:53:05Z</time>
      </trkpt>
      <trkpt lat="46.03711" lon="13.29374">
        <ele>96.27</ele>
        <time>2012-07-31T11:53:06Z</time>
      </trkpt>
      <trkpt lat="46.03721" lon="13.29364">
        <ele>96.27</ele>
        <time>2012-07-31T11:53:07Z</time>
      </trkpt>
      <trkpt lat="46.03729" lon="13.2935">
        <ele>96.75</ele>
        <time>2012-07-31T11:53:08Z</time>
      </trkpt>
      <trkpt lat="46.03733" lon="13.29332">
        <ele>96.75</ele>
        <time>2012-07-31T11:53:09Z</time>
      </trkpt>
      <trkpt lat="46.03735" lon="13.29312">
        <ele>96.27</ele>
        <time>2012-07-31T11:53:10Z</time>
      </trkpt>
      <trkpt lat="46.03739" lon="13.29295">
        <ele>96.27</ele>
        <time>2012-07-31T11:53:11Z</time>
      </trkpt>
      <trkpt lat="46.03745" lon="13.29278">
        <ele>97.23</ele>
        <time>2012-07-31T11:53:12Z</time>
      </trkpt>
      <trkpt lat="46.03755" lon="13.29264">
        <ele>97.23</ele>
        <time>2012-07-31T11:53:13Z</time>
      </trkpt>
      <trkpt lat="46.0387" lon="13.29125">
        <ele>99.63</ele>
        <time>2012-07-31T11:53:22Z</time>
      </trkpt>
      <trkpt lat="46.04127" lon="13.28817">
        <ele>99.63</ele>
        <time>2012-07-31T11:53:41Z</time>
      </trkpt>
      <trkpt lat="46.04228" lon="13.28639">
        <ele>101.08</ele>
        <time>2012-07-31T11:53:50Z</time>
      </trkpt>
      <trkpt lat="46.04308" lon="13.28464">
        <ele>103.96</ele>
        <time>2012-07-31T11:53:57Z</time>
      </trkpt>
      <trkpt lat="46.04439" lon="13.28143">
        <ele>103.96</ele>
        <time>2012-07-31T11:54:09Z</time>
      </trkpt>
      <trkpt lat="46.04585" lon="13.27775">
        <ele>103.48</ele>
        <time>2012-07-31T11:54:23Z</time>
      </trkpt>
      <trkpt lat="46.04656" lon="13.27582">
        <ele>103.96</ele>
        <time>2012-07-31T11:54:32Z</time>
      </trkpt>
      <trkpt lat="46.04727" lon="13.27363">
        <ele>103.96</ele>
        <time>2012-07-31T11:54:42Z</time>
      </trkpt>
      <trkpt lat="46.04808" lon="13.27107">
        <ele>100.6</ele>
        <time>2012-07-31T11:54:53Z</time>
      </trkpt>
      <trkpt lat="46.04848" lon="13.26967">
        <ele>103.48</ele>
        <time>2012-07-31T11:54:59Z</time>
      </trkpt>
      <trkpt lat="46.04855" lon="13.26946">
        <ele>103.48</ele>
        <time>2012-07-31T11:55:00Z</time>
      </trkpt>
      <trkpt lat="46.04939" lon="13.26793">
        <ele>104.92</ele>
        <time>2012-07-31T11:55:08Z</time>
      </trkpt>
      <trkpt lat="46.05136" lon="13.26502">
        <ele>104.92</ele>
        <time>2012-07-31T11:55:25Z</time>
      </trkpt>
      <trkpt lat="46.05184" lon="13.26398">
        <ele>103.48</ele>
        <time>2012-07-31T11:55:32Z</time>
      </trkpt>
      <trkpt lat="46.05192" lon="13.26386">
        <ele>103.48</ele>
        <time>2012-07-31T11:55:33Z</time>
      </trkpt>
      <trkpt lat="46.052" lon="13.26374">
        <ele>103.48</ele>
        <time>2012-07-31T11:55:34Z</time>
      </trkpt>
      <trkpt lat="46.05292" lon="13.26227">
        <ele>105.4</ele>
        <time>2012-07-31T11:55:44Z</time>
      </trkpt>
      <trkpt lat="46.05369" lon="13.26113">
        <ele>108.29</ele>
        <time>2012-07-31T11:55:51Z</time>
      </trkpt>
      <trkpt lat="46.05442" lon="13.25961">
        <ele>107.81</ele>
        <time>2012-07-31T11:55:59Z</time>
      </trkpt>
      <trkpt lat="46.05533" lon="13.25816">
        <ele>108.77</ele>
        <time>2012-07-31T11:56:08Z</time>
      </trkpt>
      <trkpt lat="46.05699" lon="13.25582">
        <ele>106.84</ele>
        <time>2012-07-31T11:56:23Z</time>
      </trkpt>
      <trkpt lat="46.05709" lon="13.25572">
        <ele>107.32</ele>
        <time>2012-07-31T11:56:24Z</time>
      </trkpt>
      <trkpt lat="46.05727" lon="13.25558">
        <ele>106.84</ele>
        <time>2012-07-31T11:56:26Z</time>
      </trkpt>
      <trkpt lat="46.05734" lon="13.25557">
        <ele>105.88</ele>
        <time>2012-07-31T11:56:27Z</time>
      </trkpt>
      <trkpt lat="46.0574" lon="13.2556">
        <ele>105.4</ele>
        <time>2012-07-31T11:56:28Z</time>
      </trkpt>
      <trkpt lat="46.05746" lon="13.25563">
        <ele>105.88</ele>
        <time>2012-07-31T11:56:29Z</time>
      </trkpt>
      <trkpt lat="46.05752" lon="13.25561">
        <ele>105.4</ele>
        <time>2012-07-31T11:56:30Z</time>
      </trkpt>
      <trkpt lat="46.05757" lon="13.25554">
        <ele>106.36</ele>
        <time>2012-07-31T11:56:31Z</time>
      </trkpt>
      <trkpt lat="46.05761" lon="13.25542">
        <ele>106.36</ele>
        <time>2012-07-31T11:56:32Z</time>
      </trkpt>
      <trkpt lat="46.05765" lon="13.25529">
        <ele>107.32</ele>
        <time>2012-07-31T11:56:33Z</time>
      </trkpt>
      <trkpt lat="46.05772" lon="13.25516">
        <ele>107.81</ele>
        <time>2012-07-31T11:56:34Z</time>
      </trkpt>
      <trkpt lat="46.05781" lon="13.25505">
        <ele>108.29</ele>
        <time>2012-07-31T11:56:35Z</time>
      </trkpt>
      <trkpt lat="46.05791" lon="13.25494">
        <ele>108.29</ele>
        <time>2012-07-31T11:56:36Z</time>
      </trkpt>
      <trkpt lat="46.05801" lon="13.25484">
        <ele>108.29</ele>
        <time>2012-07-31T11:56:37Z</time>
      </trkpt>
      <trkpt lat="46.05839" lon="13.25437">
        <ele>107.32</ele>
        <time>2012-07-31T11:56:41Z</time>
      </trkpt>
      <trkpt lat="46.05864" lon="13.2539">
        <ele>108.77</ele>
        <time>2012-07-31T11:56:44Z</time>
      </trkpt>
      <trkpt lat="46.05954" lon="13.25214">
        <ele>108.29</ele>
        <time>2012-07-31T11:56:56Z</time>
      </trkpt>
      <trkpt lat="46.06004" lon="13.2513">
        <ele>109.25</ele>
        <time>2012-07-31T11:57:04Z</time>
      </trkpt>
      <trkpt lat="46.06028" lon="13.25087">
        <ele>108.29</ele>
        <time>2012-07-31T11:57:08Z</time>
      </trkpt>
      <trkpt lat="46.06032" lon="13.25077">
        <ele>107.81</ele>
        <time>2012-07-31T11:57:09Z</time>
      </trkpt>
      <trkpt lat="46.06034" lon="13.25066">
        <ele>107.81</ele>
        <time>2012-07-31T11:57:10Z</time>
      </trkpt>
      <trkpt lat="46.06047" lon="13.2499">
        <ele>108.29</ele>
        <time>2012-07-31T11:57:18Z</time>
      </trkpt>
      <trkpt lat="46.06048" lon="13.24981">
        <ele>107.81</ele>
        <time>2012-07-31T11:57:19Z</time>
      </trkpt>
      <trkpt lat="46.0605" lon="13.24973">
        <ele>107.81</ele>
        <time>2012-07-31T11:57:20Z</time>
      </trkpt>
      <trkpt lat="46.06053" lon="13.24965">
        <ele>107.81</ele>
        <time>2012-07-31T11:57:21Z</time>
      </trkpt>
      <trkpt lat="46.06059" lon="13.24958">
        <ele>108.29</ele>
        <time>2012-07-31T11:57:22Z</time>
      </trkpt>
      <trkpt lat="46.06066" lon="13.24953">
        <ele>108.77</ele>
        <time>2012-07-31T11:57:23Z</time>
      </trkpt>
      <trkpt lat="46.06075" lon="13.24947">
        <ele>108.77</ele>
        <time>2012-07-31T11:57:24Z</time>
      </trkpt>
      <trkpt lat="46.06157" lon="13.24858">
        <ele>110.21</ele>
        <time>2012-07-31T11:57:34Z</time>
      </trkpt>
      <trkpt lat="46.06228" lon="13.24771">
        <ele>108.77</ele>
        <time>2012-07-31T11:57:45Z</time>
      </trkpt>
      <trkpt lat="46.06234" lon="13.24763">
        <ele>108.29</ele>
        <time>2012-07-31T11:57:53Z</time>
      </trkpt>
      <trkpt lat="46.0624" lon="13.24758">
        <ele>108.77</ele>
        <time>2012-07-31T11:57:55Z</time>
      </trkpt>
      <trkpt lat="46.06245" lon="13.24756">
        <ele>109.25</ele>
        <time>2012-07-31T11:57:56Z</time>
      </trkpt>
      <trkpt lat="46.06297" lon="13.24745">
        <ele>109.25</ele>
        <time>2012-07-31T11:58:03Z</time>
      </trkpt>
      <trkpt lat="46.06311" lon="13.2474">
        <ele>108.29</ele>
        <time>2012-07-31T11:58:10Z</time>
      </trkpt>
      <trkpt lat="46.06312" lon="13.24737">
        <ele>108.77</ele>
        <time>2012-07-31T11:58:46Z</time>
      </trkpt>
      <trkpt lat="46.06322" lon="13.24734">
        <ele>109.25</ele>
        <time>2012-07-31T11:58:53Z</time>
      </trkpt>
      <trkpt lat="46.0634" lon="13.24726">
        <ele>109.73</ele>
        <time>2012-07-31T11:58:56Z</time>
      </trkpt>
      <trkpt lat="46.06422" lon="13.24682">
        <ele>110.69</ele>
        <time>2012-07-31T11:59:05Z</time>
      </trkpt>
      <trkpt lat="46.06554" lon="13.24611">
        <ele>111.17</ele>
        <time>2012-07-31T11:59:18Z</time>
      </trkpt>
      <trkpt lat="46.06688" lon="13.2454">
        <ele>112.13</ele>
        <time>2012-07-31T11:59:31Z</time>
      </trkpt>
      <trkpt lat="46.0681" lon="13.24475">
        <ele>112.13</ele>
        <time>2012-07-31T11:59:43Z</time>
      </trkpt>
      <trkpt lat="46.06922" lon="13.24419">
        <ele>113.09</ele>
        <time>2012-07-31T11:59:54Z</time>
      </trkpt>
      <trkpt lat="46.07034" lon="13.24356">
        <ele>114.05</ele>
        <time>2012-07-31T12:00:04Z</time>
      </trkpt>
      <trkpt lat="46.07086" lon="13.24323">
        <ele>114.05</ele>
        <time>2012-07-31T12:00:09Z</time>
      </trkpt>
      <trkpt lat="46.07096" lon="13.24313">
        <ele>114.53</ele>
        <time>2012-07-31T12:00:10Z</time>
      </trkpt>
      <trkpt lat="46.07104" lon="13.24302">
        <ele>114.53</ele>
        <time>2012-07-31T12:00:11Z</time>
      </trkpt>
      <trkpt lat="46.07139" lon="13.24246">
        <ele>113.09</ele>
        <time>2012-07-31T12:00:17Z</time>
      </trkpt>
      <trkpt lat="46.07151" lon="13.24235">
        <ele>113.09</ele>
        <time>2012-07-31T12:00:19Z</time>
      </trkpt>
      <trkpt lat="46.07154" lon="13.24227">
        <ele>112.61</ele>
        <time>2012-07-31T12:00:20Z</time>
      </trkpt>
      <trkpt lat="46.07155" lon="13.24216">
        <ele>112.61</ele>
        <time>2012-07-31T12:00:21Z</time>
      </trkpt>
      <trkpt lat="46.07148" lon="13.24087">
        <ele>113.57</ele>
        <time>2012-07-31T12:00:30Z</time>
      </trkpt>
      <trkpt lat="46.07138" lon="13.239">
        <ele>114.05</ele>
        <time>2012-07-31T12:00:41Z</time>
      </trkpt>
      <trkpt lat="46.07125" lon="13.23741">
        <ele>111.65</ele>
        <time>2012-07-31T12:00:51Z</time>
      </trkpt>
      <trkpt lat="46.07121" lon="13.23684">
        <ele>112.13</ele>
        <time>2012-07-31T12:00:55Z</time>
      </trkpt>
      <trkpt lat="46.07117" lon="13.23598">
        <ele>111.17</ele>
        <time>2012-07-31T12:01:04Z</time>
      </trkpt>
      <trkpt lat="46.07119" lon="13.23594">
        <ele>111.17</ele>
        <time>2012-07-31T12:01:12Z</time>
      </trkpt>
      <trkpt lat="46.07119" lon="13.23571">
        <ele>111.17</ele>
        <time>2012-07-31T12:01:26Z</time>
      </trkpt>
      <trkpt lat="46.0711" lon="13.23489">
        <ele>112.13</ele>
        <time>2012-07-31T12:01:35Z</time>
      </trkpt>
      <trkpt lat="46.07108" lon="13.23481">
        <ele>111.65</ele>
        <time>2012-07-31T12:01:36Z</time>
      </trkpt>
      <trkpt lat="46.07104" lon="13.23476">
        <ele>111.65</ele>
        <time>2012-07-31T12:01:37Z</time>
      </trkpt>
      <trkpt lat="46.07101" lon="13.23473">
        <ele>111.65</ele>
        <time>2012-07-31T12:01:38Z</time>
      </trkpt>
      <trkpt lat="46.07097" lon="13.23472">
        <ele>111.17</ele>
        <time>2012-07-31T12:01:39Z</time>
      </trkpt>
      <trkpt lat="46.07094" lon="13.23471">
        <ele>111.17</ele>
        <time>2012-07-31T12:01:40Z</time>
      </trkpt>
      <trkpt lat="46.07091" lon="13.23471">
        <ele>111.17</ele>
        <time>2012-07-31T12:01:41Z</time>
      </trkpt>
      <trkpt lat="46.07088" lon="13.23471">
        <ele>111.17</ele>
        <time>2012-07-31T12:01:53Z</time>
      </trkpt>
      <trkpt lat="46.07086" lon="13.2347">
        <ele>111.65</ele>
        <time>2012-07-31T12:01:58Z</time>
      </trkpt>
      <trkpt lat="46.07085" lon="13.23468">
        <ele>111.17</ele>
        <time>2012-07-31T12:01:59Z</time>
      </trkpt>
      <trkpt lat="46.07084" lon="13.23466">
        <ele>111.65</ele>
        <time>2012-07-31T12:02:00Z</time>
      </trkpt>
      <trkpt lat="46.0708" lon="13.23465">
        <ele>111.65</ele>
        <time>2012-07-31T12:02:01Z</time>
      </trkpt>
      <trkpt lat="46.07076" lon="13.23465">
        <ele>112.13</ele>
        <time>2012-07-31T12:02:02Z</time>
      </trkpt>
      <trkpt lat="46.0707" lon="13.23464">
        <ele>112.61</ele>
        <time>2012-07-31T12:02:03Z</time>
      </trkpt>
      <trkpt lat="46.07065" lon="13.23462">
        <ele>112.13</ele>
        <time>2012-07-31T12:02:04Z</time>
      </trkpt>
      <trkpt lat="46.07059" lon="13.23458">
        <ele>112.13</ele>
        <time>2012-07-31T12:02:05Z</time>
      </trkpt>
      <trkpt lat="46.07051" lon="13.23453">
        <ele>112.13</ele>
        <time>2012-07-31T12:02:06Z</time>
      </trkpt>
      <trkpt lat="46.07043" lon="13.23448">
        <ele>111.65</ele>
        <time>2012-07-31T12:02:07Z</time>
      </trkpt>
      <trkpt lat="46.07035" lon="13.23445">
        <ele>112.13</ele>
        <time>2012-07-31T12:02:08Z</time>
      </trkpt>
      <trkpt lat="46.07027" lon="13.23441">
        <ele>111.65</ele>
        <time>2012-07-31T12:02:09Z</time>
      </trkpt>
      <trkpt lat="46.06947" lon="13.23411">
        <ele>110.69</ele>
        <time>2012-07-31T12:02:21Z</time>
      </trkpt>
      <trkpt lat="46.06915" lon="13.23225">
        <ele>115.98</ele>
        <time>2012-07-31T12:10:25Z</time>
      </trkpt>
      <trkpt lat="46.06915" lon="13.23217">
        <ele>115.98</ele>
        <time>2012-07-31T12:10:26Z</time>
      </trkpt>
      <trkpt lat="46.06916" lon="13.23209">
        <ele>115.5</ele>
        <time>2012-07-31T12:10:27Z</time>
      </trkpt>
      <trkpt lat="46.06893" lon="13.23125">
        <ele>114.05</ele>
        <time>2012-07-31T12:10:37Z</time>
      </trkpt>
      <trkpt lat="46.0691" lon="13.23102">
        <ele>115.5</ele>
        <time>2012-07-31T12:10:43Z</time>
      </trkpt>
      <trkpt lat="46.07001" lon="13.23064">
        <ele>114.53</ele>
        <time>2012-07-31T12:10:56Z</time>
      </trkpt>
      <trkpt lat="46.07035" lon="13.23052">
        <ele>113.57</ele>
        <time>2012-07-31T12:11:02Z</time>
      </trkpt>
      <trkpt lat="46.07052" lon="13.23045">
        <ele>112.61</ele>
        <time>2012-07-31T12:11:10Z</time>
      </trkpt>
      <trkpt lat="46.07053" lon="13.23049">
        <ele>112.61</ele>
        <time>2012-07-31T12:11:11Z</time>
      </trkpt>
      <trkpt lat="46.07054" lon="13.23055">
        <ele>112.61</ele>
        <time>2012-07-31T12:11:12Z</time>
      </trkpt>
      <trkpt lat="46.07054" lon="13.23064">
        <ele>113.57</ele>
        <time>2012-07-31T12:11:13Z</time>
      </trkpt>
      <trkpt lat="46.07055" lon="13.23074">
        <ele>113.57</ele>
        <time>2012-07-31T12:11:14Z</time>
      </trkpt>
      <trkpt lat="46.07064" lon="13.23252">
        <ele>114.05</ele>
        <time>2012-07-31T12:11:27Z</time>
      </trkpt>
      <trkpt lat="46.07074" lon="13.23419">
        <ele>115.01</ele>
        <time>2012-07-31T12:11:36Z</time>
      </trkpt>
      <trkpt lat="46.07077" lon="13.23472">
        <ele>112.61</ele>
        <time>2012-07-31T12:11:39Z</time>
      </trkpt>
      <trkpt lat="46.07079" lon="13.23487">
        <ele>113.09</ele>
        <time>2012-07-31T12:11:40Z</time>
      </trkpt>
      <trkpt lat="46.07081" lon="13.235">
        <ele>112.61</ele>
        <time>2012-07-31T12:11:41Z</time>
      </trkpt>
      <trkpt lat="46.07085" lon="13.23511">
        <ele>112.13</ele>
        <time>2012-07-31T12:11:42Z</time>
      </trkpt>
      <trkpt lat="46.0709" lon="13.23519">
        <ele>111.65</ele>
        <time>2012-07-31T12:11:43Z</time>
      </trkpt>
      <trkpt lat="46.07095" lon="13.23524">
        <ele>111.65</ele>
        <time>2012-07-31T12:11:44Z</time>
      </trkpt>
      <trkpt lat="46.07099" lon="13.23526">
        <ele>111.65</ele>
        <time>2012-07-31T12:11:45Z</time>
      </trkpt>
      <trkpt lat="46.07103" lon="13.23527">
        <ele>111.65</ele>
        <time>2012-07-31T12:11:46Z</time>
      </trkpt>
      <trkpt lat="46.07105" lon="13.23527">
        <ele>111.17</ele>
        <time>2012-07-31T12:11:47Z</time>
      </trkpt>
      <trkpt lat="46.07111" lon="13.23527">
        <ele>111.65</ele>
        <time>2012-07-31T12:11:54Z</time>
      </trkpt>
      <trkpt lat="46.07114" lon="13.23521">
        <ele>111.65</ele>
        <time>2012-07-31T12:11:55Z</time>
      </trkpt>
      <trkpt lat="46.07117" lon="13.23514">
        <ele>113.57</ele>
        <time>2012-07-31T12:11:56Z</time>
      </trkpt>
      <trkpt lat="46.07122" lon="13.23497">
        <ele>112.13</ele>
        <time>2012-07-31T12:11:58Z</time>
      </trkpt>
      <trkpt lat="46.07125" lon="13.2349">
        <ele>112.13</ele>
        <time>2012-07-31T12:11:59Z</time>
      </trkpt>
      <trkpt lat="46.0713" lon="13.23484">
        <ele>111.65</ele>
        <time>2012-07-31T12:12:00Z</time>
      </trkpt>
      <trkpt lat="46.07136" lon="13.23481">
        <ele>112.61</ele>
        <time>2012-07-31T12:12:01Z</time>
      </trkpt>
      <trkpt lat="46.07143" lon="13.23479">
        <ele>112.61</ele>
        <time>2012-07-31T12:12:02Z</time>
      </trkpt>
      <trkpt lat="46.07151" lon="13.23477">
        <ele>113.09</ele>
        <time>2012-07-31T12:12:03Z</time>
      </trkpt>
      <trkpt lat="46.07198" lon="13.23475">
        <ele>108.29</ele>
        <time>2012-07-31T12:12:08Z</time>
      </trkpt>
      <trkpt lat="46.07209" lon="13.23475">
        <ele>112.13</ele>
        <time>2012-07-31T12:12:09Z</time>
      </trkpt>
      <trkpt lat="46.07232" lon="13.23475">
        <ele>115.5</ele>
        <time>2012-07-31T12:12:11Z</time>
      </trkpt>
      <trkpt lat="46.07244" lon="13.23476">
        <ele>115.5</ele>
        <time>2012-07-31T12:12:12Z</time>
      </trkpt>
      <trkpt lat="46.07385" lon="13.23477">
        <ele>115.5</ele>
        <time>2012-07-31T12:12:24Z</time>
      </trkpt>
      <trkpt lat="46.07564" lon="13.23479">
        <ele>115.5</ele>
        <time>2012-07-31T12:12:38Z</time>
      </trkpt>
      <trkpt lat="46.07669" lon="13.2348">
        <ele>115.5</ele>
        <time>2012-07-31T12:12:47Z</time>
      </trkpt>
      <trkpt lat="46.0771" lon="13.23481">
        <ele>114.05</ele>
        <time>2012-07-31T12:12:55Z</time>
      </trkpt>
      <trkpt lat="46.07728" lon="13.2348">
        <ele>113.57</ele>
        <time>2012-07-31T12:13:03Z</time>
      </trkpt>
      <trkpt lat="46.07738" lon="13.23481">
        <ele>114.53</ele>
        <time>2012-07-31T12:13:05Z</time>
      </trkpt>
      <trkpt lat="46.07742" lon="13.23483">
        <ele>114.05</ele>
        <time>2012-07-31T12:13:06Z</time>
      </trkpt>
      <trkpt lat="46.07746" lon="13.23488">
        <ele>114.05</ele>
        <time>2012-07-31T12:13:07Z</time>
      </trkpt>
      <trkpt lat="46.07749" lon="13.23494">
        <ele>114.05</ele>
        <time>2012-07-31T12:13:08Z</time>
      </trkpt>
      <trkpt lat="46.07751" lon="13.23501">
        <ele>114.53</ele>
        <time>2012-07-31T12:13:09Z</time>
      </trkpt>
      <trkpt lat="46.07754" lon="13.23509">
        <ele>114.05</ele>
        <time>2012-07-31T12:13:10Z</time>
      </trkpt>
      <trkpt lat="46.07762" lon="13.23541">
        <ele>114.53</ele>
        <time>2012-07-31T12:13:14Z</time>
      </trkpt>
      <trkpt lat="46.07765" lon="13.23547">
        <ele>114.53</ele>
        <time>2012-07-31T12:13:15Z</time>
      </trkpt>
      <trkpt lat="46.07768" lon="13.23552">
        <ele>115.01</ele>
        <time>2012-07-31T12:13:16Z</time>
      </trkpt>
      <trkpt lat="46.07772" lon="13.23557">
        <ele>115.01</ele>
        <time>2012-07-31T12:13:17Z</time>
      </trkpt>
      <trkpt lat="46.07778" lon="13.23558">
        <ele>115.01</ele>
        <time>2012-07-31T12:13:18Z</time>
      </trkpt>
      <trkpt lat="46.07785" lon="13.23557">
        <ele>115.01</ele>
        <time>2012-07-31T12:13:19Z</time>
      </trkpt>
      <trkpt lat="46.07791" lon="13.23553">
        <ele>115.01</ele>
        <time>2012-07-31T12:13:20Z</time>
      </trkpt>
      <trkpt lat="46.07796" lon="13.23547">
        <ele>115.01</ele>
        <time>2012-07-31T12:13:21Z</time>
      </trkpt>
      <trkpt lat="46.078" lon="13.23539">
        <ele>115.01</ele>
        <time>2012-07-31T12:13:22Z</time>
      </trkpt>
      <trkpt lat="46.07802" lon="13.23531">
        <ele>114.53</ele>
        <time>2012-07-31T12:13:23Z</time>
      </trkpt>
      <trkpt lat="46.07803" lon="13.23523">
        <ele>115.01</ele>
        <time>2012-07-31T12:13:24Z</time>
      </trkpt>
      <trkpt lat="46.07804" lon="13.23514">
        <ele>115.01</ele>
        <time>2012-07-31T12:13:25Z</time>
      </trkpt>
      <trkpt lat="46.07805" lon="13.23506">
        <ele>115.01</ele>
        <time>2012-07-31T12:13:26Z</time>
      </trkpt>
      <trkpt lat="46.07808" lon="13.2349">
        <ele>114.53</ele>
        <time>2012-07-31T12:13:28Z</time>
      </trkpt>
      <trkpt lat="46.07811" lon="13.23483">
        <ele>115.01</ele>
        <time>2012-07-31T12:13:29Z</time>
      </trkpt>
      <trkpt lat="46.07816" lon="13.2348">
        <ele>114.53</ele>
        <time>2012-07-31T12:13:30Z</time>
      </trkpt>
      <trkpt lat="46.07822" lon="13.23477">
        <ele>115.01</ele>
        <time>2012-07-31T12:13:31Z</time>
      </trkpt>
      <trkpt lat="46.0783" lon="13.23476">
        <ele>115.01</ele>
        <time>2012-07-31T12:13:32Z</time>
      </trkpt>
      <trkpt lat="46.07917" lon="13.23452">
        <ele>116.94</ele>
        <time>2012-07-31T12:13:42Z</time>
      </trkpt>
      <trkpt lat="46.08069" lon="13.2342">
        <ele>118.86</ele>
        <time>2012-07-31T12:13:55Z</time>
      </trkpt>
      <trkpt lat="46.08236" lon="13.23386">
        <ele>120.78</ele>
        <time>2012-07-31T12:14:08Z</time>
      </trkpt>
      <trkpt lat="46.08412" lon="13.23348">
        <ele>121.26</ele>
        <time>2012-07-31T12:14:21Z</time>
      </trkpt>
      <trkpt lat="46.08571" lon="13.23314">
        <ele>120.78</ele>
        <time>2012-07-31T12:14:33Z</time>
      </trkpt>
      <trkpt lat="46.08742" lon="13.23281">
        <ele>121.74</ele>
        <time>2012-07-31T12:14:47Z</time>
      </trkpt>
      <trkpt lat="46.08915" lon="13.23244">
        <ele>122.71</ele>
        <time>2012-07-31T12:15:01Z</time>
      </trkpt>
      <trkpt lat="46.09079" lon="13.23212">
        <ele>123.19</ele>
        <time>2012-07-31T12:15:15Z</time>
      </trkpt>
      <trkpt lat="46.09219" lon="13.23181">
        <ele>125.11</ele>
        <time>2012-07-31T12:15:27Z</time>
      </trkpt>
      <trkpt lat="46.09386" lon="13.23146">
        <ele>124.63</ele>
        <time>2012-07-31T12:15:41Z</time>
      </trkpt>
      <trkpt lat="46.09442" lon="13.23145">
        <ele>125.11</ele>
        <time>2012-07-31T12:15:47Z</time>
      </trkpt>
      <trkpt lat="46.09449" lon="13.23149">
        <ele>124.63</ele>
        <time>2012-07-31T12:15:48Z</time>
      </trkpt>
      <trkpt lat="46.09465" lon="13.23158">
        <ele>125.11</ele>
        <time>2012-07-31T12:15:50Z</time>
      </trkpt>
      <trkpt lat="46.09474" lon="13.23158">
        <ele>125.11</ele>
        <time>2012-07-31T12:15:51Z</time>
      </trkpt>
      <trkpt lat="46.09483" lon="13.23157">
        <ele>125.11</ele>
        <time>2012-07-31T12:15:52Z</time>
      </trkpt>
      <trkpt lat="46.09492" lon="13.23154">
        <ele>125.11</ele>
        <time>2012-07-31T12:15:53Z</time>
      </trkpt>
      <trkpt lat="46.095" lon="13.2315">
        <ele>124.63</ele>
        <time>2012-07-31T12:15:54Z</time>
      </trkpt>
      <trkpt lat="46.09507" lon="13.23144">
        <ele>124.63</ele>
        <time>2012-07-31T12:15:55Z</time>
      </trkpt>
      <trkpt lat="46.09512" lon="13.23137">
        <ele>125.11</ele>
        <time>2012-07-31T12:15:56Z</time>
      </trkpt>
      <trkpt lat="46.09518" lon="13.2313">
        <ele>124.63</ele>
        <time>2012-07-31T12:15:57Z</time>
      </trkpt>
      <trkpt lat="46.09525" lon="13.23124">
        <ele>125.11</ele>
        <time>2012-07-31T12:15:58Z</time>
      </trkpt>
      <trkpt lat="46.09533" lon="13.2312">
        <ele>125.11</ele>
        <time>2012-07-31T12:15:59Z</time>
      </trkpt>
      <trkpt lat="46.09541" lon="13.23117">
        <ele>125.59</ele>
        <time>2012-07-31T12:16:00Z</time>
      </trkpt>
      <trkpt lat="46.0955" lon="13.23115">
        <ele>125.59</ele>
        <time>2012-07-31T12:16:01Z</time>
      </trkpt>
      <trkpt lat="46.09559" lon="13.23112">
        <ele>125.59</ele>
        <time>2012-07-31T12:16:02Z</time>
      </trkpt>
      <trkpt lat="46.0961" lon="13.23096">
        <ele>126.07</ele>
        <time>2012-07-31T12:16:08Z</time>
      </trkpt>
      <trkpt lat="46.09615" lon="13.23091">
        <ele>125.11</ele>
        <time>2012-07-31T12:16:09Z</time>
      </trkpt>
      <trkpt lat="46.09618" lon="13.23086">
        <ele>125.11</ele>
        <time>2012-07-31T12:16:10Z</time>
      </trkpt>
      <trkpt lat="46.09621" lon="13.23081">
        <ele>125.11</ele>
        <time>2012-07-31T12:16:11Z</time>
      </trkpt>
      <trkpt lat="46.09625" lon="13.23077">
        <ele>125.59</ele>
        <time>2012-07-31T12:16:12Z</time>
      </trkpt>
      <trkpt lat="46.09629" lon="13.23075">
        <ele>125.11</ele>
        <time>2012-07-31T12:16:13Z</time>
      </trkpt>
      <trkpt lat="46.09632" lon="13.23074">
        <ele>125.11</ele>
        <time>2012-07-31T12:16:14Z</time>
      </trkpt>
      <trkpt lat="46.09634" lon="13.23072">
        <ele>125.11</ele>
        <time>2012-07-31T12:16:15Z</time>
      </trkpt>
      <trkpt lat="46.09636" lon="13.23071">
        <ele>125.59</ele>
        <time>2012-07-31T12:16:16Z</time>
      </trkpt>
      <trkpt lat="46.09642" lon="13.2307">
        <ele>124.63</ele>
        <time>2012-07-31T12:20:12Z</time>
      </trkpt>
      <trkpt lat="46.09639" lon="13.23057">
        <ele>125.11</ele>
        <time>2012-07-31T12:20:21Z</time>
      </trkpt>
      <trkpt lat="46.09639" lon="13.23058">
        <ele>127.03</ele>
        <time>2012-07-31T12:20:25Z</time>
      </trkpt>
      <trkpt lat="46.09538" lon="13.23102">
        <ele>130.4</ele>
        <time>2012-07-31T13:09:41Z</time>
      </trkpt>
      <trkpt lat="46.09539" lon="13.23103">
        <ele>131.36</ele>
        <time>2012-07-31T13:09:43Z</time>
      </trkpt>
      <trkpt lat="46.09554" lon="13.23099">
        <ele>131.36</ele>
        <time>2012-07-31T13:09:53Z</time>
      </trkpt>
      <trkpt lat="46.09554" lon="13.23099">
        <ele>131.84</ele>
        <time>2012-07-31T13:09:55Z</time>
      </trkpt>
      <trkpt lat="46.09566" lon="13.23088">
        <ele>131.36</ele>
        <time>2012-07-31T13:10:01Z</time>
      </trkpt>
      <trkpt lat="46.0957" lon="13.23084">
        <ele>131.36</ele>
        <time>2012-07-31T13:10:04Z</time>
      </trkpt>
      <trkpt lat="46.09583" lon="13.23094">
        <ele>131.36</ele>
        <time>2012-07-31T13:10:13Z</time>
      </trkpt>
      <trkpt lat="46.09602" lon="13.2309">
        <ele>130.88</ele>
        <time>2012-07-31T13:10:24Z</time>
      </trkpt>
      <trkpt lat="46.09607" lon="13.23091">
        <ele>130.88</ele>
        <time>2012-07-31T13:10:33Z</time>
      </trkpt>
      <trkpt lat="46.09609" lon="13.2309">
        <ele>130.88</ele>
        <time>2012-07-31T13:10:34Z</time>
      </trkpt>
      <trkpt lat="46.09619" lon="13.2308">
        <ele>131.36</ele>
        <time>2012-07-31T13:10:42Z</time>
      </trkpt>
      <trkpt lat="46.09627" lon="13.23073">
        <ele>131.36</ele>
        <time>2012-07-31T13:10:50Z</time>
      </trkpt>
      <trkpt lat="46.09631" lon="13.23073">
        <ele>131.36</ele>
        <time>2012-07-31T13:10:53Z</time>
      </trkpt>
      <trkpt lat="46.09639" lon="13.23069">
        <ele>131.84</ele>
        <time>2012-07-31T13:11:02Z</time>
      </trkpt>
      <trkpt lat="46.0964" lon="13.23068">
        <ele>132.32</ele>
        <time>2012-07-31T13:11:03Z</time>
      </trkpt>
      <trkpt lat="46.09642" lon="13.23065">
        <ele>132.32</ele>
        <time>2012-07-31T13:11:06Z</time>
      </trkpt>
      <trkpt lat="46.09647" lon="13.23047">
        <ele>130.88</ele>
        <time>2012-07-31T13:11:19Z</time>
      </trkpt>
      <trkpt lat="46.09644" lon="13.23042">
        <ele>131.84</ele>
        <time>2012-07-31T13:11:22Z</time>
      </trkpt>
      <trkpt lat="46.09636" lon="13.2303">
        <ele>131.84</ele>
        <time>2012-07-31T13:11:27Z</time>
      </trkpt>
      <trkpt lat="46.09635" lon="13.23027">
        <ele>131.84</ele>
        <time>2012-07-31T13:11:41Z</time>
      </trkpt>
      <trkpt lat="46.09632" lon="13.23023">
        <ele>131.36</ele>
        <time>2012-07-31T13:11:56Z</time>
      </trkpt>
      <trkpt lat="46.09635" lon="13.23023">
        <ele>131.84</ele>
        <time>2012-07-31T13:12:13Z</time>
      </trkpt>
      <trkpt lat="46.09637" lon="13.23022">
        <ele>131.84</ele>
        <time>2012-07-31T13:12:23Z</time>
      </trkpt>
      <trkpt lat="46.09652" lon="13.23034">
        <ele>132.8</ele>
        <time>2012-07-31T13:20:00Z</time>
      </trkpt>
      <trkpt lat="46.0965" lon="13.23033">
        <ele>133.28</ele>
        <time>2012-07-31T13:20:01Z</time>
      </trkpt>
      <trkpt lat="46.09641" lon="13.23036">
        <ele>132.8</ele>
        <time>2012-07-31T13:20:35Z</time>
      </trkpt>
      <trkpt lat="46.09644" lon="13.23038">
        <ele>129.92</ele>
        <time>2012-07-31T13:20:43Z</time>
      </trkpt>
      <trkpt lat="46.09653" lon="13.2304">
        <ele>128.47</ele>
        <time>2012-07-31T13:21:15Z</time>
      </trkpt>
      <trkpt lat="46.0965" lon="13.23041">
        <ele>128.95</ele>
        <time>2012-07-31T13:21:45Z</time>
      </trkpt>
      <trkpt lat="46.09648" lon="13.23039">
        <ele>128.95</ele>
        <time>2012-07-31T13:21:50Z</time>
      </trkpt>
      <trkpt lat="46.09645" lon="13.23038">
        <ele>129.92</ele>
        <time>2012-07-31T13:22:19Z</time>
      </trkpt>
      <trkpt lat="46.09644" lon="13.23037">
        <ele>129.92</ele>
        <time>2012-07-31T13:22:46Z</time>
      </trkpt>
      <trkpt lat="46.09643" lon="13.23035">
        <ele>129.92</ele>
        <time>2012-07-31T13:23:22Z</time>
      </trkpt>
      <trkpt lat="46.09642" lon="13.23034">
        <ele>129.43</ele>
        <time>2012-07-31T13:23:38Z</time>
      </trkpt>
      <trkpt lat="46.09607" lon="13.23112">
        <ele>131.36</ele>
        <time>2012-07-31T13:51:32Z</time>
      </trkpt>
      <trkpt lat="46.09607" lon="13.23112">
        <ele>130.4</ele>
        <time>2012-07-31T13:51:33Z</time>
      </trkpt>
      <trkpt lat="46.09606" lon="13.23111">
        <ele>131.36</ele>
        <time>2012-07-31T13:51:42Z</time>
      </trkpt>
      <trkpt lat="46.09603" lon="13.23106">
        <ele>130.88</ele>
        <time>2012-07-31T13:51:46Z</time>
      </trkpt>
      <trkpt lat="46.09593" lon="13.23101">
        <ele>130.88</ele>
        <time>2012-07-31T13:51:53Z</time>
      </trkpt>
      <trkpt lat="46.0958" lon="13.23108">
        <ele>130.88</ele>
        <time>2012-07-31T13:52:05Z</time>
      </trkpt>
      <trkpt lat="46.09576" lon="13.23108">
        <ele>130.4</ele>
        <time>2012-07-31T13:52:08Z</time>
      </trkpt>
      <trkpt lat="46.09569" lon="13.23108">
        <ele>130.88</ele>
        <time>2012-07-31T13:52:13Z</time>
      </trkpt>
      <trkpt lat="46.09561" lon="13.23106">
        <ele>130.4</ele>
        <time>2012-07-31T13:52:22Z</time>
      </trkpt>
      <trkpt lat="46.09555" lon="13.23112">
        <ele>130.4</ele>
        <time>2012-07-31T13:52:30Z</time>
      </trkpt>
      <trkpt lat="46.09549" lon="13.23111">
        <ele>130.88</ele>
        <time>2012-07-31T13:52:37Z</time>
      </trkpt>
      <trkpt lat="46.09535" lon="13.23102">
        <ele>131.36</ele>
        <time>2012-07-31T13:52:49Z</time>
      </trkpt>
      <trkpt lat="46.09529" lon="13.23093">
        <ele>129.92</ele>
        <time>2012-07-31T13:52:56Z</time>
      </trkpt>
      <trkpt lat="46.09526" lon="13.23084">
        <ele>128.47</ele>
        <time>2012-07-31T13:53:01Z</time>
      </trkpt>
      <trkpt lat="46.09523" lon="13.23069">
        <ele>130.4</ele>
        <time>2012-07-31T13:53:08Z</time>
      </trkpt>
      <trkpt lat="46.09523" lon="13.23065">
        <ele>132.32</ele>
        <time>2012-07-31T13:53:11Z</time>
      </trkpt>
      <trkpt lat="46.09523" lon="13.2306">
        <ele>128.47</ele>
        <time>2012-07-31T13:53:14Z</time>
      </trkpt>
      <trkpt lat="46.09524" lon="13.23059">
        <ele>131.84</ele>
        <time>2012-07-31T13:53:16Z</time>
      </trkpt>
      <trkpt lat="46.09527" lon="13.23056">
        <ele>130.4</ele>
        <time>2012-07-31T13:53:19Z</time>
      </trkpt>
      <trkpt lat="46.09529" lon="13.23054">
        <ele>131.36</ele>
        <time>2012-07-31T13:53:22Z</time>
      </trkpt>
      <trkpt lat="46.09531" lon="13.23053">
        <ele>127.51</ele>
        <time>2012-07-31T13:53:24Z</time>
      </trkpt>
      <trkpt lat="46.09532" lon="13.23052">
        <ele>132.32</ele>
        <time>2012-07-31T13:53:25Z</time>
      </trkpt>
      <trkpt lat="46.09532" lon="13.23051">
        <ele>132.32</ele>
        <time>2012-07-31T13:53:26Z</time>
      </trkpt>
      <trkpt lat="46.09535" lon="13.23049">
        <ele>130.4</ele>
        <time>2012-07-31T13:53:29Z</time>
      </trkpt>
      <trkpt lat="46.09537" lon="13.23048">
        <ele>131.36</ele>
        <time>2012-07-31T13:53:31Z</time>
      </trkpt>
      <trkpt lat="46.09546" lon="13.23039">
        <ele>132.32</ele>
        <time>2012-07-31T13:53:43Z</time>
      </trkpt>
      <trkpt lat="46.09547" lon="13.23038">
        <ele>128.95</ele>
        <time>2012-07-31T13:53:44Z</time>
      </trkpt>
      <trkpt lat="46.09548" lon="13.23038">
        <ele>133.76</ele>
        <time>2012-07-31T13:53:45Z</time>
      </trkpt>
      <trkpt lat="46.09601" lon="13.22997">
        <ele>132.32</ele>
        <time>2012-07-31T14:06:05Z</time>
      </trkpt>
      <trkpt lat="46.0963" lon="13.2304">
        <ele>135.68</ele>
        <time>2012-07-31T14:06:33Z</time>
      </trkpt>
      <trkpt lat="46.0963" lon="13.2304">
        <ele>136.64</ele>
        <time>2012-07-31T14:06:40Z</time>
      </trkpt>
      <trkpt lat="46.09632" lon="13.23041">
        <ele>140.97</ele>
        <time>2012-07-31T14:06:48Z</time>
      </trkpt>
      <trkpt lat="46.09632" lon="13.23042">
        <ele>136.16</ele>
        <time>2012-07-31T14:06:53Z</time>
      </trkpt>
      <trkpt lat="46.09633" lon="13.23042">
        <ele>141.45</ele>
        <time>2012-07-31T14:06:55Z</time>
      </trkpt>
      <trkpt lat="46.09633" lon="13.23042">
        <ele>140.97</ele>
        <time>2012-07-31T14:06:56Z</time>
      </trkpt>
      <trkpt lat="46.09638" lon="13.2304">
        <ele>139.53</ele>
        <time>2012-07-31T14:07:27Z</time>
      </trkpt>
      <trkpt lat="46.09637" lon="13.23041">
        <ele>140.49</ele>
        <time>2012-07-31T14:07:54Z</time>
      </trkpt>
      <trkpt lat="46.09653" lon="13.23045">
        <ele>140.97</ele>
        <time>2012-07-31T14:09:41Z</time>
      </trkpt>
      <trkpt lat="46.09657" lon="13.23053">
        <ele>140.49</ele>
        <time>2012-07-31T14:09:43Z</time>
      </trkpt>
      <trkpt lat="46.09665" lon="13.23078">
        <ele>138.09</ele>
        <time>2012-07-31T14:09:51Z</time>
      </trkpt>
      <trkpt lat="46.09664" lon="13.23078">
        <ele>135.2</ele>
        <time>2012-07-31T14:10:02Z</time>
      </trkpt>
      <trkpt lat="46.09664" lon="13.23079">
        <ele>133.76</ele>
        <time>2012-07-31T14:10:08Z</time>
      </trkpt>
      <trkpt lat="46.09672" lon="13.23088">
        <ele>133.76</ele>
        <time>2012-07-31T14:10:12Z</time>
      </trkpt>
      <trkpt lat="46.09677" lon="13.23087">
        <ele>133.76</ele>
        <time>2012-07-31T14:10:13Z</time>
      </trkpt>
      <trkpt lat="46.09684" lon="13.23085">
        <ele>133.28</ele>
        <time>2012-07-31T14:10:14Z</time>
      </trkpt>
      <trkpt lat="46.09752" lon="13.23071">
        <ele>134.72</ele>
        <time>2012-07-31T14:10:20Z</time>
      </trkpt>
      <trkpt lat="46.0982" lon="13.23057">
        <ele>133.76</ele>
        <time>2012-07-31T14:10:25Z</time>
      </trkpt>
      <trkpt lat="46.09956" lon="13.23027">
        <ele>132.8</ele>
        <time>2012-07-31T14:10:34Z</time>
      </trkpt>
      <trkpt lat="46.10009" lon="13.23015">
        <ele>131.84</ele>
        <time>2012-07-31T14:10:38Z</time>
      </trkpt>
      <trkpt lat="46.10022" lon="13.23013">
        <ele>131.84</ele>
        <time>2012-07-31T14:10:39Z</time>
      </trkpt>
      <trkpt lat="46.10035" lon="13.2301">
        <ele>131.84</ele>
        <time>2012-07-31T14:10:40Z</time>
      </trkpt>
      <trkpt lat="46.10175" lon="13.22981">
        <ele>132.32</ele>
        <time>2012-07-31T14:10:50Z</time>
      </trkpt>
      <trkpt lat="46.10368" lon="13.22941">
        <ele>133.28</ele>
        <time>2012-07-31T14:11:04Z</time>
      </trkpt>
      <trkpt lat="46.10421" lon="13.2293">
        <ele>131.84</ele>
        <time>2012-07-31T14:11:08Z</time>
      </trkpt>
      <trkpt lat="46.10559" lon="13.22902">
        <ele>133.28</ele>
        <time>2012-07-31T14:11:19Z</time>
      </trkpt>
      <trkpt lat="46.10653" lon="13.2288">
        <ele>132.8</ele>
        <time>2012-07-31T14:11:29Z</time>
      </trkpt>
      <trkpt lat="46.10665" lon="13.22877">
        <ele>132.32</ele>
        <time>2012-07-31T14:11:31Z</time>
      </trkpt>
      <trkpt lat="46.10677" lon="13.22873">
        <ele>132.8</ele>
        <time>2012-07-31T14:11:33Z</time>
      </trkpt>
      <trkpt lat="46.10751" lon="13.22861">
        <ele>133.28</ele>
        <time>2012-07-31T14:11:41Z</time>
      </trkpt>
      <trkpt lat="46.10845" lon="13.22839">
        <ele>135.2</ele>
        <time>2012-07-31T14:11:50Z</time>
      </trkpt>
      <trkpt lat="46.10999" lon="13.22809">
        <ele>137.13</ele>
        <time>2012-07-31T14:12:01Z</time>
      </trkpt>
      <trkpt lat="46.11162" lon="13.22775">
        <ele>140.49</ele>
        <time>2012-07-31T14:12:11Z</time>
      </trkpt>
      <trkpt lat="46.1146" lon="13.22713">
        <ele>142.41</ele>
        <time>2012-07-31T14:12:28Z</time>
      </trkpt>
      <trkpt lat="46.11639" lon="13.22676">
        <ele>144.82</ele>
        <time>2012-07-31T14:12:38Z</time>
      </trkpt>
      <trkpt lat="46.11963" lon="13.22609">
        <ele>145.3</ele>
        <time>2012-07-31T14:12:56Z</time>
      </trkpt>
      <trkpt lat="46.12036" lon="13.226">
        <ele>145.3</ele>
        <time>2012-07-31T14:13:01Z</time>
      </trkpt>
      <trkpt lat="46.1205" lon="13.22603">
        <ele>145.3</ele>
        <time>2012-07-31T14:13:02Z</time>
      </trkpt>
      <trkpt lat="46.12064" lon="13.22609">
        <ele>145.3</ele>
        <time>2012-07-31T14:13:03Z</time>
      </trkpt>
      <trkpt lat="46.12078" lon="13.22618">
        <ele>145.78</ele>
        <time>2012-07-31T14:13:04Z</time>
      </trkpt>
      <trkpt lat="46.12091" lon="13.22631">
        <ele>145.78</ele>
        <time>2012-07-31T14:13:05Z</time>
      </trkpt>
      <trkpt lat="46.12102" lon="13.22647">
        <ele>146.26</ele>
        <time>2012-07-31T14:13:06Z</time>
      </trkpt>
      <trkpt lat="46.12114" lon="13.22663">
        <ele>146.26</ele>
        <time>2012-07-31T14:13:07Z</time>
      </trkpt>
      <trkpt lat="46.12127" lon="13.22678">
        <ele>146.26</ele>
        <time>2012-07-31T14:13:08Z</time>
      </trkpt>
      <trkpt lat="46.12141" lon="13.22691">
        <ele>146.74</ele>
        <time>2012-07-31T14:13:09Z</time>
      </trkpt>
      <trkpt lat="46.12156" lon="13.22702">
        <ele>146.74</ele>
        <time>2012-07-31T14:13:10Z</time>
      </trkpt>
      <trkpt lat="46.12173" lon="13.22709">
        <ele>147.22</ele>
        <time>2012-07-31T14:13:11Z</time>
      </trkpt>
      <trkpt lat="46.1219" lon="13.22714">
        <ele>147.7</ele>
        <time>2012-07-31T14:13:12Z</time>
      </trkpt>
      <trkpt lat="46.12409" lon="13.22788">
        <ele>146.74</ele>
        <time>2012-07-31T14:13:25Z</time>
      </trkpt>
      <trkpt lat="46.12457" lon="13.22788">
        <ele>146.74</ele>
        <time>2012-07-31T14:13:28Z</time>
      </trkpt>
      <trkpt lat="46.12473" lon="13.22783">
        <ele>146.74</ele>
        <time>2012-07-31T14:13:29Z</time>
      </trkpt>
      <trkpt lat="46.12489" lon="13.22775">
        <ele>146.26</ele>
        <time>2012-07-31T14:13:30Z</time>
      </trkpt>
      <trkpt lat="46.12502" lon="13.22764">
        <ele>146.74</ele>
        <time>2012-07-31T14:13:31Z</time>
      </trkpt>
      <trkpt lat="46.12514" lon="13.2275">
        <ele>146.74</ele>
        <time>2012-07-31T14:13:32Z</time>
      </trkpt>
      <trkpt lat="46.12524" lon="13.22736">
        <ele>147.22</ele>
        <time>2012-07-31T14:13:33Z</time>
      </trkpt>
      <trkpt lat="46.12533" lon="13.2272">
        <ele>147.7</ele>
        <time>2012-07-31T14:13:34Z</time>
      </trkpt>
      <trkpt lat="46.12541" lon="13.22702">
        <ele>148.18</ele>
        <time>2012-07-31T14:13:35Z</time>
      </trkpt>
      <trkpt lat="46.12549" lon="13.22684">
        <ele>148.18</ele>
        <time>2012-07-31T14:13:36Z</time>
      </trkpt>
      <trkpt lat="46.12625" lon="13.22502">
        <ele>149.14</ele>
        <time>2012-07-31T14:13:46Z</time>
      </trkpt>
      <trkpt lat="46.12634" lon="13.22492">
        <ele>148.18</ele>
        <time>2012-07-31T14:13:47Z</time>
      </trkpt>
      <trkpt lat="46.12642" lon="13.22484">
        <ele>148.18</ele>
        <time>2012-07-31T14:13:48Z</time>
      </trkpt>
      <trkpt lat="46.1265" lon="13.22478">
        <ele>148.18</ele>
        <time>2012-07-31T14:13:49Z</time>
      </trkpt>
      <trkpt lat="46.12657" lon="13.22473">
        <ele>147.7</ele>
        <time>2012-07-31T14:13:50Z</time>
      </trkpt>
      <trkpt lat="46.12665" lon="13.22469">
        <ele>147.7</ele>
        <time>2012-07-31T14:13:51Z</time>
      </trkpt>
      <trkpt lat="46.12672" lon="13.22466">
        <ele>148.18</ele>
        <time>2012-07-31T14:13:52Z</time>
      </trkpt>
      <trkpt lat="46.12679" lon="13.22463">
        <ele>148.18</ele>
        <time>2012-07-31T14:13:53Z</time>
      </trkpt>
      <trkpt lat="46.12687" lon="13.22461">
        <ele>147.7</ele>
        <time>2012-07-31T14:13:54Z</time>
      </trkpt>
      <trkpt lat="46.12794" lon="13.22439">
        <ele>150.1</ele>
        <time>2012-07-31T14:14:05Z</time>
      </trkpt>
      <trkpt lat="46.12904" lon="13.22423">
        <ele>150.58</ele>
        <time>2012-07-31T14:14:15Z</time>
      </trkpt>
      <trkpt lat="46.12912" lon="13.22423">
        <ele>150.58</ele>
        <time>2012-07-31T14:14:16Z</time>
      </trkpt>
      <trkpt lat="46.1292" lon="13.22425">
        <ele>151.06</ele>
        <time>2012-07-31T14:14:17Z</time>
      </trkpt>
      <trkpt lat="46.12927" lon="13.22429">
        <ele>150.58</ele>
        <time>2012-07-31T14:14:18Z</time>
      </trkpt>
      <trkpt lat="46.12933" lon="13.22432">
        <ele>151.06</ele>
        <time>2012-07-31T14:14:19Z</time>
      </trkpt>
      <trkpt lat="46.1294" lon="13.22431">
        <ele>150.58</ele>
        <time>2012-07-31T14:14:20Z</time>
      </trkpt>
      <trkpt lat="46.12947" lon="13.22427">
        <ele>150.58</ele>
        <time>2012-07-31T14:14:21Z</time>
      </trkpt>
      <trkpt lat="46.12953" lon="13.22421">
        <ele>151.06</ele>
        <time>2012-07-31T14:14:22Z</time>
      </trkpt>
      <trkpt lat="46.12959" lon="13.22415">
        <ele>151.06</ele>
        <time>2012-07-31T14:14:23Z</time>
      </trkpt>
      <trkpt lat="46.12967" lon="13.2241">
        <ele>151.54</ele>
        <time>2012-07-31T14:14:24Z</time>
      </trkpt>
      <trkpt lat="46.12975" lon="13.22407">
        <ele>151.54</ele>
        <time>2012-07-31T14:14:25Z</time>
      </trkpt>
      <trkpt lat="46.12983" lon="13.22405">
        <ele>150.58</ele>
        <time>2012-07-31T14:14:26Z</time>
      </trkpt>
      <trkpt lat="46.13064" lon="13.22385">
        <ele>152.51</ele>
        <time>2012-07-31T14:14:38Z</time>
      </trkpt>
      <trkpt lat="46.13164" lon="13.22359">
        <ele>153.95</ele>
        <time>2012-07-31T14:14:47Z</time>
      </trkpt>
      <trkpt lat="46.13307" lon="13.22329">
        <ele>157.31</ele>
        <time>2012-07-31T14:14:57Z</time>
      </trkpt>
      <trkpt lat="46.13487" lon="13.22291">
        <ele>158.27</ele>
        <time>2012-07-31T14:15:09Z</time>
      </trkpt>
      <trkpt lat="46.13632" lon="13.22261">
        <ele>158.27</ele>
        <time>2012-07-31T14:15:21Z</time>
      </trkpt>
      <trkpt lat="46.13771" lon="13.22233">
        <ele>160.2</ele>
        <time>2012-07-31T14:15:33Z</time>
      </trkpt>
      <trkpt lat="46.13911" lon="13.22203">
        <ele>163.56</ele>
        <time>2012-07-31T14:15:44Z</time>
      </trkpt>
      <trkpt lat="46.13993" lon="13.22186">
        <ele>165</ele>
        <time>2012-07-31T14:15:49Z</time>
      </trkpt>
      <trkpt lat="46.14183" lon="13.22148">
        <ele>166.93</ele>
        <time>2012-07-31T14:16:00Z</time>
      </trkpt>
      <trkpt lat="46.14347" lon="13.22114">
        <ele>166.45</ele>
        <time>2012-07-31T14:16:11Z</time>
      </trkpt>
      <trkpt lat="46.14402" lon="13.22102">
        <ele>165.48</ele>
        <time>2012-07-31T14:16:18Z</time>
      </trkpt>
      <trkpt lat="46.14426" lon="13.22098">
        <ele>165</ele>
        <time>2012-07-31T14:16:27Z</time>
      </trkpt>
      <trkpt lat="46.14431" lon="13.22097">
        <ele>165.96</ele>
        <time>2012-07-31T14:16:40Z</time>
      </trkpt>
      <trkpt lat="46.14457" lon="13.22091">
        <ele>167.41</ele>
        <time>2012-07-31T14:16:43Z</time>
      </trkpt>
      <trkpt lat="46.14495" lon="13.22083">
        <ele>169.33</ele>
        <time>2012-07-31T14:16:46Z</time>
      </trkpt>
      <trkpt lat="46.14671" lon="13.22045">
        <ele>172.69</ele>
        <time>2012-07-31T14:16:57Z</time>
      </trkpt>
      <trkpt lat="46.14869" lon="13.22006">
        <ele>176.06</ele>
        <time>2012-07-31T14:17:08Z</time>
      </trkpt>
      <trkpt lat="46.15132" lon="13.21951">
        <ele>176.06</ele>
        <time>2012-07-31T14:17:23Z</time>
      </trkpt>
      <trkpt lat="46.15272" lon="13.21922">
        <ele>177.02</ele>
        <time>2012-07-31T14:17:33Z</time>
      </trkpt>
      <trkpt lat="46.153" lon="13.21916">
        <ele>176.06</ele>
        <time>2012-07-31T14:17:36Z</time>
      </trkpt>
      <trkpt lat="46.15911" lon="13.21471">
        <ele>184.23</ele>
        <time>2012-07-31T14:22:24Z</time>
      </trkpt>
      <trkpt lat="46.15913" lon="13.21473">
        <ele>183.75</ele>
        <time>2012-07-31T14:22:25Z</time>
      </trkpt>
      <trkpt lat="46.15911" lon="13.21471">
        <ele>183.75</ele>
        <time>2012-07-31T14:22:34Z</time>
      </trkpt>
      <trkpt lat="46.15914" lon="13.21458">
        <ele>184.23</ele>
        <time>2012-07-31T14:22:37Z</time>
      </trkpt>
      <trkpt lat="46.15915" lon="13.21452">
        <ele>184.23</ele>
        <time>2012-07-31T14:22:38Z</time>
      </trkpt>
      <trkpt lat="46.15916" lon="13.21447">
        <ele>184.23</ele>
        <time>2012-07-31T14:22:39Z</time>
      </trkpt>
      <trkpt lat="46.15917" lon="13.21433">
        <ele>185.67</ele>
        <time>2012-07-31T14:22:42Z</time>
      </trkpt>
      <trkpt lat="46.15916" lon="13.21429">
        <ele>185.19</ele>
        <time>2012-07-31T14:22:43Z</time>
      </trkpt>
      <trkpt lat="46.15916" lon="13.21426">
        <ele>185.67</ele>
        <time>2012-07-31T14:22:44Z</time>
      </trkpt>
      <trkpt lat="46.15915" lon="13.21424">
        <ele>185.67</ele>
        <time>2012-07-31T14:22:45Z</time>
      </trkpt>
      <trkpt lat="46.15914" lon="13.2142">
        <ele>186.15</ele>
        <time>2012-07-31T14:22:59Z</time>
      </trkpt>
      <trkpt lat="46.15913" lon="13.21419">
        <ele>186.15</ele>
        <time>2012-07-31T14:23:05Z</time>
      </trkpt>
      <trkpt lat="46.15912" lon="13.21416">
        <ele>186.63</ele>
        <time>2012-07-31T14:23:06Z</time>
      </trkpt>
      <trkpt lat="46.15912" lon="13.21405">
        <ele>186.63</ele>
        <time>2012-07-31T14:23:08Z</time>
      </trkpt>
      <trkpt lat="46.15917" lon="13.21374">
        <ele>186.15</ele>
        <time>2012-07-31T14:23:17Z</time>
      </trkpt>
      <trkpt lat="46.15917" lon="13.21371">
        <ele>186.15</ele>
        <time>2012-07-31T14:23:24Z</time>
      </trkpt>
      <trkpt lat="46.15918" lon="13.21367">
        <ele>186.15</ele>
        <time>2012-07-31T14:23:25Z</time>
      </trkpt>
      <trkpt lat="46.15918" lon="13.21363">
        <ele>188.56</ele>
        <time>2012-07-31T14:23:26Z</time>
      </trkpt>
      <trkpt lat="46.15919" lon="13.21358">
        <ele>186.63</ele>
        <time>2012-07-31T14:23:27Z</time>
      </trkpt>
      <trkpt lat="46.1592" lon="13.21352">
        <ele>186.63</ele>
        <time>2012-07-31T14:23:28Z</time>
      </trkpt>
      <trkpt lat="46.15921" lon="13.21346">
        <ele>187.11</ele>
        <time>2012-07-31T14:23:29Z</time>
      </trkpt>
      <trkpt lat="46.15935" lon="13.21247">
        <ele>188.56</ele>
        <time>2012-07-31T14:23:41Z</time>
      </trkpt>
      <trkpt lat="46.15985" lon="13.21115">
        <ele>188.08</ele>
        <time>2012-07-31T14:23:52Z</time>
      </trkpt>
      <trkpt lat="46.15992" lon="13.21106">
        <ele>188.56</ele>
        <time>2012-07-31T14:23:53Z</time>
      </trkpt>
      <trkpt lat="46.16058" lon="13.21058">
        <ele>189.04</ele>
        <time>2012-07-31T14:24:01Z</time>
      </trkpt>
      <trkpt lat="46.16068" lon="13.21056">
        <ele>189.04</ele>
        <time>2012-07-31T14:24:02Z</time>
      </trkpt>
      <trkpt lat="46.16079" lon="13.21055">
        <ele>189.04</ele>
        <time>2012-07-31T14:24:03Z</time>
      </trkpt>
      <trkpt lat="46.16089" lon="13.21055">
        <ele>189.04</ele>
        <time>2012-07-31T14:24:04Z</time>
      </trkpt>
      <trkpt lat="46.16098" lon="13.21056">
        <ele>189.04</ele>
        <time>2012-07-31T14:24:05Z</time>
      </trkpt>
      <trkpt lat="46.16108" lon="13.21057">
        <ele>189.04</ele>
        <time>2012-07-31T14:24:06Z</time>
      </trkpt>
      <trkpt lat="46.16117" lon="13.2106">
        <ele>188.56</ele>
        <time>2012-07-31T14:24:07Z</time>
      </trkpt>
      <trkpt lat="46.16153" lon="13.21074">
        <ele>188.08</ele>
        <time>2012-07-31T14:24:11Z</time>
      </trkpt>
      <trkpt lat="46.16169" lon="13.21082">
        <ele>188.08</ele>
        <time>2012-07-31T14:24:13Z</time>
      </trkpt>
      <trkpt lat="46.16177" lon="13.21084">
        <ele>188.08</ele>
        <time>2012-07-31T14:24:14Z</time>
      </trkpt>
      <trkpt lat="46.16186" lon="13.21085">
        <ele>188.08</ele>
        <time>2012-07-31T14:24:15Z</time>
      </trkpt>
      <trkpt lat="46.16196" lon="13.21084">
        <ele>188.56</ele>
        <time>2012-07-31T14:24:16Z</time>
      </trkpt>
      <trkpt lat="46.16217" lon="13.2108">
        <ele>188.56</ele>
        <time>2012-07-31T14:24:18Z</time>
      </trkpt>
      <trkpt lat="46.16227" lon="13.21077">
        <ele>188.56</ele>
        <time>2012-07-31T14:24:19Z</time>
      </trkpt>
      <trkpt lat="46.16309" lon="13.21053">
        <ele>185.19</ele>
        <time>2012-07-31T14:24:27Z</time>
      </trkpt>
      <trkpt lat="46.1632" lon="13.2105">
        <ele>184.71</ele>
        <time>2012-07-31T14:24:28Z</time>
      </trkpt>
      <trkpt lat="46.16443" lon="13.21001">
        <ele>183.75</ele>
        <time>2012-07-31T14:24:38Z</time>
      </trkpt>
      <trkpt lat="46.16528" lon="13.20938">
        <ele>180.38</ele>
        <time>2012-07-31T14:24:44Z</time>
      </trkpt>
      <trkpt lat="46.1657" lon="13.20905">
        <ele>179.42</ele>
        <time>2012-07-31T14:24:47Z</time>
      </trkpt>
      <trkpt lat="46.16741" lon="13.20775">
        <ele>176.06</ele>
        <time>2012-07-31T14:24:59Z</time>
      </trkpt>
      <trkpt lat="46.16754" lon="13.20765">
        <ele>175.58</ele>
        <time>2012-07-31T14:25:00Z</time>
      </trkpt>
      <trkpt lat="46.16881" lon="13.20683">
        <ele>177.02</ele>
        <time>2012-07-31T14:25:10Z</time>
      </trkpt>
      <trkpt lat="46.17052" lon="13.20645">
        <ele>177.5</ele>
        <time>2012-07-31T14:25:20Z</time>
      </trkpt>
      <trkpt lat="46.17298" lon="13.20594">
        <ele>178.46</ele>
        <time>2012-07-31T14:25:33Z</time>
      </trkpt>
      <trkpt lat="46.1762" lon="13.20527">
        <ele>181.83</ele>
        <time>2012-07-31T14:25:50Z</time>
      </trkpt>
      <trkpt lat="46.17877" lon="13.20473">
        <ele>180.38</ele>
        <time>2012-07-31T14:26:05Z</time>
      </trkpt>
      <trkpt lat="46.17959" lon="13.2045">
        <ele>179.9</ele>
        <time>2012-07-31T14:26:12Z</time>
      </trkpt>
      <trkpt lat="46.18046" lon="13.204">
        <ele>180.38</ele>
        <time>2012-07-31T14:26:20Z</time>
      </trkpt>
      <trkpt lat="46.18133" lon="13.20346">
        <ele>183.27</ele>
        <time>2012-07-31T14:26:26Z</time>
      </trkpt>
      <trkpt lat="46.18215" lon="13.20292">
        <ele>186.15</ele>
        <time>2012-07-31T14:26:31Z</time>
      </trkpt>
      <trkpt lat="46.18289" lon="13.20242">
        <ele>187.11</ele>
        <time>2012-07-31T14:26:35Z</time>
      </trkpt>
      <trkpt lat="46.18467" lon="13.2013">
        <ele>187.11</ele>
        <time>2012-07-31T14:26:45Z</time>
      </trkpt>
      <trkpt lat="46.18593" lon="13.20049">
        <ele>191.92</ele>
        <time>2012-07-31T14:26:52Z</time>
      </trkpt>
      <trkpt lat="46.18613" lon="13.20036">
        <ele>190.96</ele>
        <time>2012-07-31T14:26:53Z</time>
      </trkpt>
      <trkpt lat="46.18767" lon="13.1993">
        <ele>190</ele>
        <time>2012-07-31T14:27:02Z</time>
      </trkpt>
      <trkpt lat="46.18953" lon="13.19778">
        <ele>190.48</ele>
        <time>2012-07-31T14:27:14Z</time>
      </trkpt>
      <trkpt lat="46.19194" lon="13.19589">
        <ele>193.36</ele>
        <time>2012-07-31T14:27:29Z</time>
      </trkpt>
      <trkpt lat="46.19251" lon="13.19544">
        <ele>195.77</ele>
        <time>2012-07-31T14:27:32Z</time>
      </trkpt>
      <trkpt lat="46.19467" lon="13.19411">
        <ele>195.28</ele>
        <time>2012-07-31T14:27:43Z</time>
      </trkpt>
      <trkpt lat="46.19574" lon="13.19354">
        <ele>197.21</ele>
        <time>2012-07-31T14:27:49Z</time>
      </trkpt>
      <trkpt lat="46.19661" lon="13.19311">
        <ele>200.09</ele>
        <time>2012-07-31T14:27:54Z</time>
      </trkpt>
      <trkpt lat="46.19775" lon="13.19281">
        <ele>202.98</ele>
        <time>2012-07-31T14:28:00Z</time>
      </trkpt>
      <trkpt lat="46.19814" lon="13.19271">
        <ele>203.94</ele>
        <time>2012-07-31T14:28:02Z</time>
      </trkpt>
      <trkpt lat="46.19968" lon="13.19228">
        <ele>207.78</ele>
        <time>2012-07-31T14:28:10Z</time>
      </trkpt>
      <trkpt lat="46.19987" lon="13.19219">
        <ele>207.3</ele>
        <time>2012-07-31T14:28:11Z</time>
      </trkpt>
      <trkpt lat="46.20151" lon="13.19115">
        <ele>204.42</ele>
        <time>2012-07-31T14:28:20Z</time>
      </trkpt>
      <trkpt lat="46.20188" lon="13.19089">
        <ele>203.46</ele>
        <time>2012-07-31T14:28:22Z</time>
      </trkpt>
      <trkpt lat="46.20284" lon="13.19026">
        <ele>201.53</ele>
        <time>2012-07-31T14:28:27Z</time>
      </trkpt>
      <trkpt lat="46.20697" lon="13.18755">
        <ele>199.13</ele>
        <time>2012-07-31T14:28:49Z</time>
      </trkpt>
      <trkpt lat="46.21035" lon="13.18534">
        <ele>198.17</ele>
        <time>2012-07-31T14:29:07Z</time>
      </trkpt>
      <trkpt lat="46.21384" lon="13.18303">
        <ele>198.65</ele>
        <time>2012-07-31T14:29:25Z</time>
      </trkpt>
      <trkpt lat="46.21678" lon="13.1814">
        <ele>200.09</ele>
        <time>2012-07-31T14:29:40Z</time>
      </trkpt>
      <trkpt lat="46.21873" lon="13.18044">
        <ele>199.61</ele>
        <time>2012-07-31T14:29:51Z</time>
      </trkpt>
      <trkpt lat="46.21969" lon="13.17997">
        <ele>197.21</ele>
        <time>2012-07-31T14:29:57Z</time>
      </trkpt>
      <trkpt lat="46.22147" lon="13.17909">
        <ele>195.77</ele>
        <time>2012-07-31T14:30:09Z</time>
      </trkpt>
      <trkpt lat="46.22371" lon="13.17799">
        <ele>194.8</ele>
        <time>2012-07-31T14:30:23Z</time>
      </trkpt>
      <trkpt lat="46.22498" lon="13.17687">
        <ele>195.28</ele>
        <time>2012-07-31T14:30:31Z</time>
      </trkpt>
      <trkpt lat="46.22695" lon="13.1747">
        <ele>193.36</ele>
        <time>2012-07-31T14:30:45Z</time>
      </trkpt>
      <trkpt lat="46.22833" lon="13.17274">
        <ele>194.32</ele>
        <time>2012-07-31T14:30:55Z</time>
      </trkpt>
      <trkpt lat="46.22933" lon="13.17045">
        <ele>192.4</ele>
        <time>2012-07-31T14:31:04Z</time>
      </trkpt>
      <trkpt lat="46.22996" lon="13.16767">
        <ele>190</ele>
        <time>2012-07-31T14:31:14Z</time>
      </trkpt>
      <trkpt lat="46.2304" lon="13.16538">
        <ele>189.04</ele>
        <time>2012-07-31T14:31:23Z</time>
      </trkpt>
      <trkpt lat="46.23108" lon="13.16169">
        <ele>190.48</ele>
        <time>2012-07-31T14:31:36Z</time>
      </trkpt>
      <trkpt lat="46.23136" lon="13.16013">
        <ele>194.32</ele>
        <time>2012-07-31T14:31:41Z</time>
      </trkpt>
      <trkpt lat="46.23242" lon="13.15442">
        <ele>192.4</ele>
        <time>2012-07-31T14:31:59Z</time>
      </trkpt>
      <trkpt lat="46.23274" lon="13.15291">
        <ele>190</ele>
        <time>2012-07-31T14:32:04Z</time>
      </trkpt>
      <trkpt lat="46.23371" lon="13.14984">
        <ele>190</ele>
        <time>2012-07-31T14:32:15Z</time>
      </trkpt>
      <trkpt lat="46.23482" lon="13.14686">
        <ele>187.11</ele>
        <time>2012-07-31T14:32:26Z</time>
      </trkpt>
      <trkpt lat="46.2364" lon="13.14433">
        <ele>185.19</ele>
        <time>2012-07-31T14:32:37Z</time>
      </trkpt>
      <trkpt lat="46.23813" lon="13.14216">
        <ele>183.27</ele>
        <time>2012-07-31T14:32:48Z</time>
      </trkpt>
      <trkpt lat="46.24052" lon="13.14002">
        <ele>182.31</ele>
        <time>2012-07-31T14:33:02Z</time>
      </trkpt>
      <trkpt lat="46.24262" lon="13.13796">
        <ele>181.83</ele>
        <time>2012-07-31T14:33:15Z</time>
      </trkpt>
      <trkpt lat="46.24356" lon="13.13611">
        <ele>182.79</ele>
        <time>2012-07-31T14:33:23Z</time>
      </trkpt>
      <trkpt lat="46.24417" lon="13.13356">
        <ele>182.31</ele>
        <time>2012-07-31T14:33:32Z</time>
      </trkpt>
      <trkpt lat="46.24483" lon="13.13077">
        <ele>182.79</ele>
        <time>2012-07-31T14:33:42Z</time>
      </trkpt>
      <trkpt lat="46.2456" lon="13.12745">
        <ele>182.79</ele>
        <time>2012-07-31T14:33:54Z</time>
      </trkpt>
      <trkpt lat="46.24639" lon="13.1247">
        <ele>183.27</ele>
        <time>2012-07-31T14:34:04Z</time>
      </trkpt>
      <trkpt lat="46.24656" lon="13.12423">
        <ele>182.31</ele>
        <time>2012-07-31T14:34:06Z</time>
      </trkpt>
      <trkpt lat="46.24741" lon="13.12271">
        <ele>180.87</ele>
        <time>2012-07-31T14:34:14Z</time>
      </trkpt>
      <trkpt lat="46.24886" lon="13.12055">
        <ele>181.35</ele>
        <time>2012-07-31T14:34:26Z</time>
      </trkpt>
      <trkpt lat="46.25044" lon="13.11821">
        <ele>181.35</ele>
        <time>2012-07-31T14:34:40Z</time>
      </trkpt>
      <trkpt lat="46.25169" lon="13.11633">
        <ele>181.35</ele>
        <time>2012-07-31T14:34:53Z</time>
      </trkpt>
      <trkpt lat="46.25295" lon="13.11491">
        <ele>182.31</ele>
        <time>2012-07-31T14:35:05Z</time>
      </trkpt>
      <trkpt lat="46.25421" lon="13.11364">
        <ele>182.79</ele>
        <time>2012-07-31T14:35:17Z</time>
      </trkpt>
      <trkpt lat="46.25576" lon="13.11205">
        <ele>184.23</ele>
        <time>2012-07-31T14:35:29Z</time>
      </trkpt>
      <trkpt lat="46.25765" lon="13.11017">
        <ele>187.11</ele>
        <time>2012-07-31T14:35:43Z</time>
      </trkpt>
      <trkpt lat="46.25835" lon="13.10961">
        <ele>190.48</ele>
        <time>2012-07-31T14:35:48Z</time>
      </trkpt>
      <trkpt lat="46.25875" lon="13.10929">
        <ele>191.92</ele>
        <time>2012-07-31T14:35:51Z</time>
      </trkpt>
      <trkpt lat="46.25903" lon="13.10908">
        <ele>192.88</ele>
        <time>2012-07-31T14:35:53Z</time>
      </trkpt>
      <trkpt lat="46.26031" lon="13.10847">
        <ele>192.88</ele>
        <time>2012-07-31T14:36:02Z</time>
      </trkpt>
      <trkpt lat="46.26105" lon="13.10836">
        <ele>189.52</ele>
        <time>2012-07-31T14:36:08Z</time>
      </trkpt>
      <trkpt lat="46.26165" lon="13.10827">
        <ele>187.11</ele>
        <time>2012-07-31T14:36:13Z</time>
      </trkpt>
      <trkpt lat="46.26324" lon="13.10808">
        <ele>187.59</ele>
        <time>2012-07-31T14:36:25Z</time>
      </trkpt>
      <trkpt lat="46.26478" lon="13.10789">
        <ele>187.11</ele>
        <time>2012-07-31T14:36:39Z</time>
      </trkpt>
      <trkpt lat="46.26547" lon="13.10781">
        <ele>186.63</ele>
        <time>2012-07-31T14:36:49Z</time>
      </trkpt>
      <trkpt lat="46.26548" lon="13.10781">
        <ele>186.63</ele>
        <time>2012-07-31T14:36:52Z</time>
      </trkpt>
      <trkpt lat="46.26552" lon="13.10782">
        <ele>186.63</ele>
        <time>2012-07-31T14:36:53Z</time>
      </trkpt>
      <trkpt lat="46.26558" lon="13.10783">
        <ele>187.11</ele>
        <time>2012-07-31T14:36:54Z</time>
      </trkpt>
      <trkpt lat="46.26616" lon="13.10773">
        <ele>187.59</ele>
        <time>2012-07-31T14:37:04Z</time>
      </trkpt>
      <trkpt lat="46.26699" lon="13.10761">
        <ele>190</ele>
        <time>2012-07-31T14:37:12Z</time>
      </trkpt>
      <trkpt lat="46.26851" lon="13.10743">
        <ele>193.84</ele>
        <time>2012-07-31T14:37:22Z</time>
      </trkpt>
      <trkpt lat="46.26868" lon="13.10741">
        <ele>193.36</ele>
        <time>2012-07-31T14:37:23Z</time>
      </trkpt>
      <trkpt lat="46.27023" lon="13.10754">
        <ele>195.77</ele>
        <time>2012-07-31T14:37:31Z</time>
      </trkpt>
      <trkpt lat="46.27133" lon="13.10776">
        <ele>197.21</ele>
        <time>2012-07-31T14:37:36Z</time>
      </trkpt>
      <trkpt lat="46.27339" lon="13.10814">
        <ele>196.25</ele>
        <time>2012-07-31T14:37:46Z</time>
      </trkpt>
      <trkpt lat="46.27583" lon="13.10859">
        <ele>195.77</ele>
        <time>2012-07-31T14:37:59Z</time>
      </trkpt>
      <trkpt lat="46.2783" lon="13.10903">
        <ele>195.77</ele>
        <time>2012-07-31T14:38:14Z</time>
      </trkpt>
      <trkpt lat="46.27979" lon="13.10927">
        <ele>195.28</ele>
        <time>2012-07-31T14:38:25Z</time>
      </trkpt>
      <trkpt lat="46.28055" lon="13.10941">
        <ele>195.28</ele>
        <time>2012-07-31T14:38:35Z</time>
      </trkpt>
      <trkpt lat="46.28119" lon="13.10952">
        <ele>198.17</ele>
        <time>2012-07-31T14:38:40Z</time>
      </trkpt>
      <trkpt lat="46.28262" lon="13.10976">
        <ele>199.61</ele>
        <time>2012-07-31T14:38:49Z</time>
      </trkpt>
      <trkpt lat="46.28424" lon="13.11019">
        <ele>199.13</ele>
        <time>2012-07-31T14:38:59Z</time>
      </trkpt>
      <trkpt lat="46.28541" lon="13.11104">
        <ele>200.57</ele>
        <time>2012-07-31T14:39:07Z</time>
      </trkpt>
      <trkpt lat="46.28725" lon="13.11239">
        <ele>202.49</ele>
        <time>2012-07-31T14:39:19Z</time>
      </trkpt>
      <trkpt lat="46.28855" lon="13.11334">
        <ele>204.42</ele>
        <time>2012-07-31T14:39:27Z</time>
      </trkpt>
      <trkpt lat="46.28939" lon="13.11396">
        <ele>205.86</ele>
        <time>2012-07-31T14:39:32Z</time>
      </trkpt>
      <trkpt lat="46.29105" lon="13.11478">
        <ele>207.3</ele>
        <time>2012-07-31T14:39:41Z</time>
      </trkpt>
      <trkpt lat="46.29376" lon="13.11535">
        <ele>208.74</ele>
        <time>2012-07-31T14:39:55Z</time>
      </trkpt>
      <trkpt lat="46.29617" lon="13.11539">
        <ele>210.67</ele>
        <time>2012-07-31T14:40:07Z</time>
      </trkpt>
      <trkpt lat="46.29729" lon="13.11604">
        <ele>211.15</ele>
        <time>2012-07-31T14:40:13Z</time>
      </trkpt>
      <trkpt lat="46.30017" lon="13.11831">
        <ele>213.07</ele>
        <time>2012-07-31T14:40:29Z</time>
      </trkpt>
      <trkpt lat="46.30053" lon="13.11859">
        <ele>214.03</ele>
        <time>2012-07-31T14:40:31Z</time>
      </trkpt>
      <trkpt lat="46.30327" lon="13.12092">
        <ele>216.91</ele>
        <time>2012-07-31T14:40:47Z</time>
      </trkpt>
      <trkpt lat="46.30359" lon="13.12124">
        <ele>218.36</ele>
        <time>2012-07-31T14:40:49Z</time>
      </trkpt>
      <trkpt lat="46.30437" lon="13.12206">
        <ele>221.24</ele>
        <time>2012-07-31T14:40:54Z</time>
      </trkpt>
      <trkpt lat="46.30486" lon="13.12259">
        <ele>224.61</ele>
        <time>2012-07-31T14:40:57Z</time>
      </trkpt>
      <trkpt lat="46.30515" lon="13.12299">
        <ele>225.57</ele>
        <time>2012-07-31T14:40:59Z</time>
      </trkpt>
      <trkpt lat="46.30555" lon="13.12368">
        <ele>229.41</ele>
        <time>2012-07-31T14:41:02Z</time>
      </trkpt>
      <trkpt lat="46.30627" lon="13.12512">
        <ele>232.3</ele>
        <time>2012-07-31T14:41:08Z</time>
      </trkpt>
      <trkpt lat="46.30744" lon="13.12729">
        <ele>234.22</ele>
        <time>2012-07-31T14:41:17Z</time>
      </trkpt>
      <trkpt lat="46.3076" lon="13.12749">
        <ele>233.74</ele>
        <time>2012-07-31T14:41:18Z</time>
      </trkpt>
      <trkpt lat="46.30776" lon="13.12768">
        <ele>232.78</ele>
        <time>2012-07-31T14:41:19Z</time>
      </trkpt>
      <trkpt lat="46.30794" lon="13.12786">
        <ele>233.26</ele>
        <time>2012-07-31T14:41:20Z</time>
      </trkpt>
      <trkpt lat="46.30813" lon="13.12802">
        <ele>232.78</ele>
        <time>2012-07-31T14:41:21Z</time>
      </trkpt>
      <trkpt lat="46.30832" lon="13.12815">
        <ele>231.81</ele>
        <time>2012-07-31T14:41:22Z</time>
      </trkpt>
      <trkpt lat="46.30853" lon="13.12827">
        <ele>230.85</ele>
        <time>2012-07-31T14:41:23Z</time>
      </trkpt>
      <trkpt lat="46.30873" lon="13.12836">
        <ele>231.33</ele>
        <time>2012-07-31T14:41:24Z</time>
      </trkpt>
      <trkpt lat="46.30895" lon="13.12843">
        <ele>230.85</ele>
        <time>2012-07-31T14:41:25Z</time>
      </trkpt>
      <trkpt lat="46.30916" lon="13.12847">
        <ele>230.85</ele>
        <time>2012-07-31T14:41:26Z</time>
      </trkpt>
      <trkpt lat="46.30937" lon="13.12849">
        <ele>230.37</ele>
        <time>2012-07-31T14:41:27Z</time>
      </trkpt>
      <trkpt lat="46.31023" lon="13.12852">
        <ele>231.33</ele>
        <time>2012-07-31T14:41:31Z</time>
      </trkpt>
      <trkpt lat="46.31333" lon="13.12862">
        <ele>231.81</ele>
        <time>2012-07-31T14:41:45Z</time>
      </trkpt>
      <trkpt lat="46.31598" lon="13.12908">
        <ele>232.78</ele>
        <time>2012-07-31T14:41:57Z</time>
      </trkpt>
      <trkpt lat="46.31805" lon="13.13029">
        <ele>229.89</ele>
        <time>2012-07-31T14:42:07Z</time>
      </trkpt>
      <trkpt lat="46.31848" lon="13.13044">
        <ele>228.93</ele>
        <time>2012-07-31T14:42:09Z</time>
      </trkpt>
      <trkpt lat="46.32008" lon="13.1305">
        <ele>226.53</ele>
        <time>2012-07-31T14:42:16Z</time>
      </trkpt>
      <trkpt lat="46.32205" lon="13.13089">
        <ele>226.05</ele>
        <time>2012-07-31T14:42:25Z</time>
      </trkpt>
      <trkpt lat="46.32462" lon="13.13191">
        <ele>225.57</ele>
        <time>2012-07-31T14:42:37Z</time>
      </trkpt>
      <trkpt lat="46.32646" lon="13.13362">
        <ele>226.53</ele>
        <time>2012-07-31T14:42:47Z</time>
      </trkpt>
      <trkpt lat="46.32882" lon="13.13583">
        <ele>227.01</ele>
        <time>2012-07-31T14:43:01Z</time>
      </trkpt>
      <trkpt lat="46.32934" lon="13.13629">
        <ele>228.45</ele>
        <time>2012-07-31T14:43:04Z</time>
      </trkpt>
      <trkpt lat="46.33122" lon="13.13773">
        <ele>228.93</ele>
        <time>2012-07-31T14:43:15Z</time>
      </trkpt>
      <trkpt lat="46.33179" lon="13.13811">
        <ele>229.41</ele>
        <time>2012-07-31T14:43:19Z</time>
      </trkpt>
      <trkpt lat="46.33195" lon="13.13818">
        <ele>229.41</ele>
        <time>2012-07-31T14:43:20Z</time>
      </trkpt>
      <trkpt lat="46.33211" lon="13.13821">
        <ele>229.89</ele>
        <time>2012-07-31T14:43:21Z</time>
      </trkpt>
      <trkpt lat="46.33228" lon="13.1382">
        <ele>230.85</ele>
        <time>2012-07-31T14:43:22Z</time>
      </trkpt>
      <trkpt lat="46.33245" lon="13.13815">
        <ele>230.37</ele>
        <time>2012-07-31T14:43:23Z</time>
      </trkpt>
      <trkpt lat="46.33262" lon="13.13807">
        <ele>231.33</ele>
        <time>2012-07-31T14:43:24Z</time>
      </trkpt>
      <trkpt lat="46.33277" lon="13.13798">
        <ele>231.81</ele>
        <time>2012-07-31T14:43:25Z</time>
      </trkpt>
      <trkpt lat="46.33384" lon="13.13732">
        <ele>231.33</ele>
        <time>2012-07-31T14:43:32Z</time>
      </trkpt>
      <trkpt lat="46.334" lon="13.13729">
        <ele>230.85</ele>
        <time>2012-07-31T14:43:33Z</time>
      </trkpt>
      <trkpt lat="46.33416" lon="13.1373">
        <ele>231.33</ele>
        <time>2012-07-31T14:43:34Z</time>
      </trkpt>
      <trkpt lat="46.33432" lon="13.13736">
        <ele>231.33</ele>
        <time>2012-07-31T14:43:35Z</time>
      </trkpt>
      <trkpt lat="46.33448" lon="13.13746">
        <ele>231.81</ele>
        <time>2012-07-31T14:43:36Z</time>
      </trkpt>
      <trkpt lat="46.33464" lon="13.13756">
        <ele>232.3</ele>
        <time>2012-07-31T14:43:37Z</time>
      </trkpt>
      <trkpt lat="46.3348" lon="13.13767">
        <ele>232.78</ele>
        <time>2012-07-31T14:43:38Z</time>
      </trkpt>
      <trkpt lat="46.33695" lon="13.13895">
        <ele>234.7</ele>
        <time>2012-07-31T14:43:50Z</time>
      </trkpt>
      <trkpt lat="46.33877" lon="13.13979">
        <ele>233.74</ele>
        <time>2012-07-31T14:44:00Z</time>
      </trkpt>
      <trkpt lat="46.34073" lon="13.13978">
        <ele>235.18</ele>
        <time>2012-07-31T14:44:10Z</time>
      </trkpt>
      <trkpt lat="46.3429" lon="13.13969">
        <ele>236.62</ele>
        <time>2012-07-31T14:44:20Z</time>
      </trkpt>
      <trkpt lat="46.344" lon="13.13976">
        <ele>237.58</ele>
        <time>2012-07-31T14:44:25Z</time>
      </trkpt>
      <trkpt lat="46.34422" lon="13.13985">
        <ele>238.54</ele>
        <time>2012-07-31T14:44:26Z</time>
      </trkpt>
      <trkpt lat="46.34444" lon="13.13996">
        <ele>238.06</ele>
        <time>2012-07-31T14:44:27Z</time>
      </trkpt>
      <trkpt lat="46.3461" lon="13.14092">
        <ele>240.47</ele>
        <time>2012-07-31T14:44:35Z</time>
      </trkpt>
      <trkpt lat="46.34667" lon="13.14125">
        <ele>242.39</ele>
        <time>2012-07-31T14:44:38Z</time>
      </trkpt>
      <trkpt lat="46.34763" lon="13.14181">
        <ele>246.23</ele>
        <time>2012-07-31T14:44:43Z</time>
      </trkpt>
      <trkpt lat="46.34843" lon="13.14226">
        <ele>249.12</ele>
        <time>2012-07-31T14:44:47Z</time>
      </trkpt>
      <trkpt lat="46.34864" lon="13.14234">
        <ele>249.6</ele>
        <time>2012-07-31T14:44:48Z</time>
      </trkpt>
      <trkpt lat="46.34885" lon="13.14239">
        <ele>250.08</ele>
        <time>2012-07-31T14:44:49Z</time>
      </trkpt>
      <trkpt lat="46.34906" lon="13.14241">
        <ele>251.04</ele>
        <time>2012-07-31T14:44:50Z</time>
      </trkpt>
      <trkpt lat="46.34928" lon="13.14238">
        <ele>251.52</ele>
        <time>2012-07-31T14:44:51Z</time>
      </trkpt>
      <trkpt lat="46.34949" lon="13.14231">
        <ele>252</ele>
        <time>2012-07-31T14:44:52Z</time>
      </trkpt>
      <trkpt lat="46.3497" lon="13.14223">
        <ele>255.85</ele>
        <time>2012-07-31T14:44:53Z</time>
      </trkpt>
      <trkpt lat="46.34991" lon="13.14213">
        <ele>253.93</ele>
        <time>2012-07-31T14:44:54Z</time>
      </trkpt>
      <trkpt lat="46.35075" lon="13.14173">
        <ele>253.93</ele>
        <time>2012-07-31T14:44:58Z</time>
      </trkpt>
      <trkpt lat="46.35219" lon="13.14082">
        <ele>253.93</ele>
        <time>2012-07-31T14:45:05Z</time>
      </trkpt>
      <trkpt lat="46.3543" lon="13.13944">
        <ele>250.56</ele>
        <time>2012-07-31T14:45:15Z</time>
      </trkpt>
      <trkpt lat="46.35513" lon="13.13894">
        <ele>247.2</ele>
        <time>2012-07-31T14:45:19Z</time>
      </trkpt>
      <trkpt lat="46.35556" lon="13.13874">
        <ele>246.72</ele>
        <time>2012-07-31T14:45:21Z</time>
      </trkpt>
      <trkpt lat="46.35619" lon="13.13845">
        <ele>244.31</ele>
        <time>2012-07-31T14:45:24Z</time>
      </trkpt>
      <trkpt lat="46.35973" lon="13.13683">
        <ele>246.23</ele>
        <time>2012-07-31T14:45:41Z</time>
      </trkpt>
      <trkpt lat="46.36302" lon="13.13562">
        <ele>247.68</ele>
        <time>2012-07-31T14:45:57Z</time>
      </trkpt>
      <trkpt lat="46.36484" lon="13.135">
        <ele>250.56</ele>
        <time>2012-07-31T14:46:06Z</time>
      </trkpt>
      <trkpt lat="46.36524" lon="13.13485">
        <ele>252</ele>
        <time>2012-07-31T14:46:08Z</time>
      </trkpt>
      <trkpt lat="46.36659" lon="13.13476">
        <ele>254.41</ele>
        <time>2012-07-31T14:46:15Z</time>
      </trkpt>
      <trkpt lat="46.36693" lon="13.13487">
        <ele>255.37</ele>
        <time>2012-07-31T14:46:17Z</time>
      </trkpt>
      <trkpt lat="46.36777" lon="13.13517">
        <ele>259.21</ele>
        <time>2012-07-31T14:46:22Z</time>
      </trkpt>
      <trkpt lat="46.36795" lon="13.13524">
        <ele>259.21</ele>
        <time>2012-07-31T14:46:23Z</time>
      </trkpt>
      <trkpt lat="46.36848" lon="13.13544">
        <ele>263.06</ele>
        <time>2012-07-31T14:46:26Z</time>
      </trkpt>
      <trkpt lat="46.36863" lon="13.1355">
        <ele>264.5</ele>
        <time>2012-07-31T14:46:27Z</time>
      </trkpt>
      <trkpt lat="46.36941" lon="13.13555">
        <ele>268.35</ele>
        <time>2012-07-31T14:46:32Z</time>
      </trkpt>
      <trkpt lat="46.37036" lon="13.13611">
        <ele>269.31</ele>
        <time>2012-07-31T14:46:36Z</time>
      </trkpt>
      <trkpt lat="46.37053" lon="13.13595">
        <ele>269.79</ele>
        <time>2012-07-31T14:46:37Z</time>
      </trkpt>
      <trkpt lat="46.37146" lon="13.13571">
        <ele>269.31</ele>
        <time>2012-07-31T14:46:42Z</time>
      </trkpt>
      <trkpt lat="46.37289" lon="13.13586">
        <ele>265.46</ele>
        <time>2012-07-31T14:46:49Z</time>
      </trkpt>
      <trkpt lat="46.3731" lon="13.13591">
        <ele>265.46</ele>
        <time>2012-07-31T14:46:50Z</time>
      </trkpt>
      <trkpt lat="46.37396" lon="13.13615">
        <ele>262.1</ele>
        <time>2012-07-31T14:46:54Z</time>
      </trkpt>
      <trkpt lat="46.37587" lon="13.13696">
        <ele>264.98</ele>
        <time>2012-07-31T14:47:03Z</time>
      </trkpt>
      <trkpt lat="46.376" lon="13.137">
        <ele>265.94</ele>
        <time>2012-07-31T14:47:04Z</time>
      </trkpt>
      <trkpt lat="46.37619" lon="13.13703">
        <ele>266.42</ele>
        <time>2012-07-31T14:47:05Z</time>
      </trkpt>
      <trkpt lat="46.37639" lon="13.13703">
        <ele>266.42</ele>
        <time>2012-07-31T14:47:06Z</time>
      </trkpt>
      <trkpt lat="46.37659" lon="13.13699">
        <ele>266.42</ele>
        <time>2012-07-31T14:47:07Z</time>
      </trkpt>
      <trkpt lat="46.37678" lon="13.13693">
        <ele>267.38</ele>
        <time>2012-07-31T14:47:08Z</time>
      </trkpt>
      <trkpt lat="46.37696" lon="13.13684">
        <ele>266.9</ele>
        <time>2012-07-31T14:47:09Z</time>
      </trkpt>
      <trkpt lat="46.37713" lon="13.13672">
        <ele>267.86</ele>
        <time>2012-07-31T14:47:10Z</time>
      </trkpt>
      <trkpt lat="46.37729" lon="13.13659">
        <ele>268.35</ele>
        <time>2012-07-31T14:47:11Z</time>
      </trkpt>
      <trkpt lat="46.37744" lon="13.13643">
        <ele>269.31</ele>
        <time>2012-07-31T14:47:12Z</time>
      </trkpt>
      <trkpt lat="46.37759" lon="13.13626">
        <ele>270.75</ele>
        <time>2012-07-31T14:47:13Z</time>
      </trkpt>
      <trkpt lat="46.37821" lon="13.13506">
        <ele>271.23</ele>
        <time>2012-07-31T14:47:19Z</time>
      </trkpt>
      <trkpt lat="46.37887" lon="13.13386">
        <ele>269.79</ele>
        <time>2012-07-31T14:47:27Z</time>
      </trkpt>
      <trkpt lat="46.3791" lon="13.13361">
        <ele>269.79</ele>
        <time>2012-07-31T14:47:29Z</time>
      </trkpt>
      <trkpt lat="46.37923" lon="13.13351">
        <ele>270.27</ele>
        <time>2012-07-31T14:47:30Z</time>
      </trkpt>
      <trkpt lat="46.37999" lon="13.13299">
        <ele>267.38</ele>
        <time>2012-07-31T14:47:36Z</time>
      </trkpt>
      <trkpt lat="46.38012" lon="13.13295">
        <ele>266.9</ele>
        <time>2012-07-31T14:47:37Z</time>
      </trkpt>
      <trkpt lat="46.38025" lon="13.13292">
        <ele>266.9</ele>
        <time>2012-07-31T14:47:38Z</time>
      </trkpt>
      <trkpt lat="46.38038" lon="13.13291">
        <ele>266.42</ele>
        <time>2012-07-31T14:47:39Z</time>
      </trkpt>
      <trkpt lat="46.38052" lon="13.13291">
        <ele>266.42</ele>
        <time>2012-07-31T14:47:40Z</time>
      </trkpt>
      <trkpt lat="46.38067" lon="13.13293">
        <ele>265.94</ele>
        <time>2012-07-31T14:47:41Z</time>
      </trkpt>
      <trkpt lat="46.3808" lon="13.13297">
        <ele>264.98</ele>
        <time>2012-07-31T14:47:42Z</time>
      </trkpt>
      <trkpt lat="46.38093" lon="13.13303">
        <ele>264.5</ele>
        <time>2012-07-31T14:47:43Z</time>
      </trkpt>
      <trkpt lat="46.38104" lon="13.1331">
        <ele>263.54</ele>
        <time>2012-07-31T14:47:44Z</time>
      </trkpt>
      <trkpt lat="46.38113" lon="13.13319">
        <ele>263.54</ele>
        <time>2012-07-31T14:47:45Z</time>
      </trkpt>
      <trkpt lat="46.3812" lon="13.13329">
        <ele>263.06</ele>
        <time>2012-07-31T14:47:46Z</time>
      </trkpt>
      <trkpt lat="46.38125" lon="13.13342">
        <ele>262.58</ele>
        <time>2012-07-31T14:47:47Z</time>
      </trkpt>
      <trkpt lat="46.38128" lon="13.13356">
        <ele>262.58</ele>
        <time>2012-07-31T14:47:48Z</time>
      </trkpt>
      <trkpt lat="46.3813" lon="13.13371">
        <ele>263.54</ele>
        <time>2012-07-31T14:47:49Z</time>
      </trkpt>
      <trkpt lat="46.38129" lon="13.13387">
        <ele>263.06</ele>
        <time>2012-07-31T14:47:50Z</time>
      </trkpt>
      <trkpt lat="46.38126" lon="13.13402">
        <ele>263.06</ele>
        <time>2012-07-31T14:47:51Z</time>
      </trkpt>
      <trkpt lat="46.3812" lon="13.13416">
        <ele>263.06</ele>
        <time>2012-07-31T14:47:52Z</time>
      </trkpt>
      <trkpt lat="46.38112" lon="13.13427">
        <ele>263.54</ele>
        <time>2012-07-31T14:47:53Z</time>
      </trkpt>
      <trkpt lat="46.38101" lon="13.13434">
        <ele>264.02</ele>
        <time>2012-07-31T14:47:54Z</time>
      </trkpt>
      <trkpt lat="46.38088" lon="13.13438">
        <ele>264.5</ele>
        <time>2012-07-31T14:47:55Z</time>
      </trkpt>
      <trkpt lat="46.38074" lon="13.13438">
        <ele>265.46</ele>
        <time>2012-07-31T14:47:56Z</time>
      </trkpt>
      <trkpt lat="46.38059" lon="13.13435">
        <ele>266.42</ele>
        <time>2012-07-31T14:47:57Z</time>
      </trkpt>
      <trkpt lat="46.38044" lon="13.13427">
        <ele>265.46</ele>
        <time>2012-07-31T14:47:58Z</time>
      </trkpt>
      <trkpt lat="46.38029" lon="13.13416">
        <ele>264.98</ele>
        <time>2012-07-31T14:47:59Z</time>
      </trkpt>
      <trkpt lat="46.38017" lon="13.134">
        <ele>264.98</ele>
        <time>2012-07-31T14:48:00Z</time>
      </trkpt>
      <trkpt lat="46.38007" lon="13.1338">
        <ele>264.5</ele>
        <time>2012-07-31T14:48:01Z</time>
      </trkpt>
      <trkpt lat="46.37999" lon="13.13358">
        <ele>264.02</ele>
        <time>2012-07-31T14:48:02Z</time>
      </trkpt>
      <trkpt lat="46.37994" lon="13.13333">
        <ele>263.06</ele>
        <time>2012-07-31T14:48:03Z</time>
      </trkpt>
      <trkpt lat="46.37991" lon="13.13308">
        <ele>262.58</ele>
        <time>2012-07-31T14:48:04Z</time>
      </trkpt>
      <trkpt lat="46.37991" lon="13.13283">
        <ele>262.58</ele>
        <time>2012-07-31T14:48:05Z</time>
      </trkpt>
      <trkpt lat="46.37993" lon="13.13258">
        <ele>262.58</ele>
        <time>2012-07-31T14:48:06Z</time>
      </trkpt>
      <trkpt lat="46.37996" lon="13.13233">
        <ele>262.1</ele>
        <time>2012-07-31T14:48:07Z</time>
      </trkpt>
      <trkpt lat="46.37998" lon="13.13208">
        <ele>261.14</ele>
        <time>2012-07-31T14:48:08Z</time>
      </trkpt>
      <trkpt lat="46.38003" lon="13.1313">
        <ele>262.58</ele>
        <time>2012-07-31T14:48:11Z</time>
      </trkpt>
      <trkpt lat="46.37986" lon="13.12952">
        <ele>262.1</ele>
        <time>2012-07-31T14:48:18Z</time>
      </trkpt>
      <trkpt lat="46.37992" lon="13.12768">
        <ele>264.02</ele>
        <time>2012-07-31T14:48:25Z</time>
      </trkpt>
      <trkpt lat="46.38046" lon="13.12553">
        <ele>264.98</ele>
        <time>2012-07-31T14:48:33Z</time>
      </trkpt>
      <trkpt lat="46.38129" lon="13.12244">
        <ele>264.98</ele>
        <time>2012-07-31T14:48:45Z</time>
      </trkpt>
      <trkpt lat="46.38192" lon="13.11963">
        <ele>266.42</ele>
        <time>2012-07-31T14:48:55Z</time>
      </trkpt>
      <trkpt lat="46.38193" lon="13.11932">
        <ele>265.46</ele>
        <time>2012-07-31T14:48:56Z</time>
      </trkpt>
      <trkpt lat="46.3819" lon="13.1187">
        <ele>266.42</ele>
        <time>2012-07-31T14:48:58Z</time>
      </trkpt>
      <trkpt lat="46.38185" lon="13.11839">
        <ele>265.94</ele>
        <time>2012-07-31T14:48:59Z</time>
      </trkpt>
      <trkpt lat="46.38179" lon="13.1181">
        <ele>264.5</ele>
        <time>2012-07-31T14:49:00Z</time>
      </trkpt>
      <trkpt lat="46.38171" lon="13.11782">
        <ele>264.5</ele>
        <time>2012-07-31T14:49:01Z</time>
      </trkpt>
      <trkpt lat="46.38162" lon="13.11754">
        <ele>263.54</ele>
        <time>2012-07-31T14:49:02Z</time>
      </trkpt>
      <trkpt lat="46.38151" lon="13.11727">
        <ele>263.06</ele>
        <time>2012-07-31T14:49:03Z</time>
      </trkpt>
      <trkpt lat="46.3814" lon="13.11701">
        <ele>263.06</ele>
        <time>2012-07-31T14:49:04Z</time>
      </trkpt>
      <trkpt lat="46.38048" lon="13.11539">
        <ele>264.5</ele>
        <time>2012-07-31T14:49:11Z</time>
      </trkpt>
      <trkpt lat="46.37873" lon="13.11235">
        <ele>267.86</ele>
        <time>2012-07-31T14:49:24Z</time>
      </trkpt>
      <trkpt lat="46.37795" lon="13.11022">
        <ele>270.27</ele>
        <time>2012-07-31T14:49:32Z</time>
      </trkpt>
      <trkpt lat="46.37741" lon="13.10803">
        <ele>273.15</ele>
        <time>2012-07-31T14:49:40Z</time>
      </trkpt>
      <trkpt lat="46.37682" lon="13.1065">
        <ele>276.52</ele>
        <time>2012-07-31T14:49:46Z</time>
      </trkpt>
      <trkpt lat="46.37669" lon="13.10628">
        <ele>276.52</ele>
        <time>2012-07-31T14:49:47Z</time>
      </trkpt>
      <trkpt lat="46.37587" lon="13.10497">
        <ele>277.48</ele>
        <time>2012-07-31T14:49:54Z</time>
      </trkpt>
      <trkpt lat="46.37503" lon="13.10346">
        <ele>279.4</ele>
        <time>2012-07-31T14:50:03Z</time>
      </trkpt>
      <trkpt lat="46.37419" lon="13.10173">
        <ele>282.77</ele>
        <time>2012-07-31T14:50:15Z</time>
      </trkpt>
      <trkpt lat="46.37344" lon="13.10029">
        <ele>282.28</ele>
        <time>2012-07-31T14:50:25Z</time>
      </trkpt>
      <trkpt lat="46.37339" lon="13.10015">
        <ele>282.28</ele>
        <time>2012-07-31T14:50:26Z</time>
      </trkpt>
      <trkpt lat="46.37334" lon="13.10001">
        <ele>282.28</ele>
        <time>2012-07-31T14:50:27Z</time>
      </trkpt>
      <trkpt lat="46.37321" lon="13.09921">
        <ele>279.88</ele>
        <time>2012-07-31T14:50:34Z</time>
      </trkpt>
      <trkpt lat="46.37321" lon="13.0991">
        <ele>279.4</ele>
        <time>2012-07-31T14:50:35Z</time>
      </trkpt>
      <trkpt lat="46.37322" lon="13.09898">
        <ele>279.88</ele>
        <time>2012-07-31T14:50:36Z</time>
      </trkpt>
      <trkpt lat="46.37323" lon="13.09884">
        <ele>279.4</ele>
        <time>2012-07-31T14:50:37Z</time>
      </trkpt>
      <trkpt lat="46.37325" lon="13.09869">
        <ele>279.88</ele>
        <time>2012-07-31T14:50:38Z</time>
      </trkpt>
      <trkpt lat="46.37326" lon="13.09698">
        <ele>280.84</ele>
        <time>2012-07-31T14:50:47Z</time>
      </trkpt>
      <trkpt lat="46.37287" lon="13.09509">
        <ele>284.21</ele>
        <time>2012-07-31T14:50:57Z</time>
      </trkpt>
      <trkpt lat="46.37244" lon="13.09331">
        <ele>283.73</ele>
        <time>2012-07-31T14:51:08Z</time>
      </trkpt>
      <trkpt lat="46.37225" lon="13.09253">
        <ele>283.25</ele>
        <time>2012-07-31T14:51:18Z</time>
      </trkpt>
      <trkpt lat="46.37202" lon="13.09161">
        <ele>284.21</ele>
        <time>2012-07-31T14:51:29Z</time>
      </trkpt>
      <trkpt lat="46.37184" lon="13.09107">
        <ele>284.69</ele>
        <time>2012-07-31T14:51:33Z</time>
      </trkpt>
      <trkpt lat="46.3718" lon="13.09093">
        <ele>284.69</ele>
        <time>2012-07-31T14:51:34Z</time>
      </trkpt>
      <trkpt lat="46.37178" lon="13.09078">
        <ele>284.69</ele>
        <time>2012-07-31T14:51:35Z</time>
      </trkpt>
      <trkpt lat="46.37177" lon="13.09062">
        <ele>284.69</ele>
        <time>2012-07-31T14:51:36Z</time>
      </trkpt>
      <trkpt lat="46.37174" lon="13.09046">
        <ele>285.17</ele>
        <time>2012-07-31T14:51:37Z</time>
      </trkpt>
      <trkpt lat="46.3717" lon="13.09029">
        <ele>284.69</ele>
        <time>2012-07-31T14:51:38Z</time>
      </trkpt>
      <trkpt lat="46.37142" lon="13.08866">
        <ele>284.69</ele>
        <time>2012-07-31T14:51:48Z</time>
      </trkpt>
      <trkpt lat="46.37152" lon="13.08697">
        <ele>285.65</ele>
        <time>2012-07-31T14:51:56Z</time>
      </trkpt>
      <trkpt lat="46.37158" lon="13.08603">
        <ele>287.57</ele>
        <time>2012-07-31T14:52:00Z</time>
      </trkpt>
      <trkpt lat="46.37165" lon="13.08365">
        <ele>289.01</ele>
        <time>2012-07-31T14:52:10Z</time>
      </trkpt>
      <trkpt lat="46.37227" lon="13.08114">
        <ele>290.94</ele>
        <time>2012-07-31T14:52:21Z</time>
      </trkpt>
      <trkpt lat="46.37299" lon="13.07853">
        <ele>290.46</ele>
        <time>2012-07-31T14:52:31Z</time>
      </trkpt>
      <trkpt lat="46.37302" lon="13.07822">
        <ele>289.49</ele>
        <time>2012-07-31T14:52:32Z</time>
      </trkpt>
      <trkpt lat="46.37302" lon="13.0779">
        <ele>289.01</ele>
        <time>2012-07-31T14:52:33Z</time>
      </trkpt>
      <trkpt lat="46.37301" lon="13.07757">
        <ele>289.01</ele>
        <time>2012-07-31T14:52:34Z</time>
      </trkpt>
      <trkpt lat="46.37298" lon="13.07725">
        <ele>288.53</ele>
        <time>2012-07-31T14:52:35Z</time>
      </trkpt>
      <trkpt lat="46.37282" lon="13.07593">
        <ele>285.17</ele>
        <time>2012-07-31T14:52:39Z</time>
      </trkpt>
      <trkpt lat="46.37268" lon="13.07459">
        <ele>281.8</ele>
        <time>2012-07-31T14:52:43Z</time>
      </trkpt>
      <trkpt lat="46.37257" lon="13.0733">
        <ele>278.44</ele>
        <time>2012-07-31T14:52:47Z</time>
      </trkpt>
      <trkpt lat="46.37253" lon="13.07078">
        <ele>275.56</ele>
        <time>2012-07-31T14:52:55Z</time>
      </trkpt>
      <trkpt lat="46.37274" lon="13.06716">
        <ele>278.44</ele>
        <time>2012-07-31T14:53:07Z</time>
      </trkpt>
      <trkpt lat="46.37284" lon="13.0646">
        <ele>278.44</ele>
        <time>2012-07-31T14:53:17Z</time>
      </trkpt>
      <trkpt lat="46.37275" lon="13.06115">
        <ele>279.88</ele>
        <time>2012-07-31T14:53:31Z</time>
      </trkpt>
      <trkpt lat="46.37256" lon="13.05789">
        <ele>279.88</ele>
        <time>2012-07-31T14:53:43Z</time>
      </trkpt>
      <trkpt lat="46.37258" lon="13.0553">
        <ele>280.36</ele>
        <time>2012-07-31T14:53:53Z</time>
      </trkpt>
      <trkpt lat="46.37309" lon="13.05361">
        <ele>282.28</ele>
        <time>2012-07-31T14:54:00Z</time>
      </trkpt>
      <trkpt lat="46.37422" lon="13.05199">
        <ele>282.28</ele>
        <time>2012-07-31T14:54:08Z</time>
      </trkpt>
      <trkpt lat="46.37612" lon="13.04971">
        <ele>285.17</ele>
        <time>2012-07-31T14:54:20Z</time>
      </trkpt>
      <trkpt lat="46.37721" lon="13.04846">
        <ele>286.13</ele>
        <time>2012-07-31T14:54:26Z</time>
      </trkpt>
      <trkpt lat="46.37846" lon="13.04698">
        <ele>286.61</ele>
        <time>2012-07-31T14:54:34Z</time>
      </trkpt>
      <trkpt lat="46.38076" lon="13.04424">
        <ele>289.97</ele>
        <time>2012-07-31T14:54:49Z</time>
      </trkpt>
      <trkpt lat="46.3829" lon="13.04197">
        <ele>292.38</ele>
        <time>2012-07-31T14:55:02Z</time>
      </trkpt>
      <trkpt lat="46.38504" lon="13.0405">
        <ele>293.82</ele>
        <time>2012-07-31T14:55:14Z</time>
      </trkpt>
      <trkpt lat="46.38656" lon="13.03901">
        <ele>295.26</ele>
        <time>2012-07-31T14:55:23Z</time>
      </trkpt>
      <trkpt lat="46.38739" lon="13.03726">
        <ele>296.22</ele>
        <time>2012-07-31T14:55:30Z</time>
      </trkpt>
      <trkpt lat="46.38774" lon="13.03525">
        <ele>298.15</ele>
        <time>2012-07-31T14:55:37Z</time>
      </trkpt>
      <trkpt lat="46.38798" lon="13.03187">
        <ele>297.18</ele>
        <time>2012-07-31T14:55:49Z</time>
      </trkpt>
      <trkpt lat="46.38816" lon="13.02998">
        <ele>296.7</ele>
        <time>2012-07-31T14:55:58Z</time>
      </trkpt>
      <trkpt lat="46.38846" lon="13.02837">
        <ele>295.26</ele>
        <time>2012-07-31T14:56:07Z</time>
      </trkpt>
      <trkpt lat="46.3888" lon="13.02758">
        <ele>293.34</ele>
        <time>2012-07-31T14:56:12Z</time>
      </trkpt>
      <trkpt lat="46.38897" lon="13.02733">
        <ele>292.38</ele>
        <time>2012-07-31T14:56:14Z</time>
      </trkpt>
      <trkpt lat="46.38907" lon="13.02724">
        <ele>292.86</ele>
        <time>2012-07-31T14:56:15Z</time>
      </trkpt>
      <trkpt lat="46.38916" lon="13.02717">
        <ele>291.42</ele>
        <time>2012-07-31T14:56:16Z</time>
      </trkpt>
      <trkpt lat="46.38925" lon="13.02713">
        <ele>291.9</ele>
        <time>2012-07-31T14:56:17Z</time>
      </trkpt>
      <trkpt lat="46.38934" lon="13.0271">
        <ele>291.9</ele>
        <time>2012-07-31T14:56:18Z</time>
      </trkpt>
      <trkpt lat="46.38941" lon="13.0271">
        <ele>291.42</ele>
        <time>2012-07-31T14:56:19Z</time>
      </trkpt>
      <trkpt lat="46.38947" lon="13.02711">
        <ele>291.42</ele>
        <time>2012-07-31T14:56:20Z</time>
      </trkpt>
      <trkpt lat="46.38952" lon="13.02714">
        <ele>291.42</ele>
        <time>2012-07-31T14:56:21Z</time>
      </trkpt>
      <trkpt lat="46.38957" lon="13.02718">
        <ele>289.49</ele>
        <time>2012-07-31T14:56:22Z</time>
      </trkpt>
      <trkpt lat="46.38963" lon="13.02723">
        <ele>291.42</ele>
        <time>2012-07-31T14:56:23Z</time>
      </trkpt>
      <trkpt lat="46.38968" lon="13.02731">
        <ele>290.94</ele>
        <time>2012-07-31T14:56:24Z</time>
      </trkpt>
      <trkpt lat="46.38973" lon="13.02741">
        <ele>291.42</ele>
        <time>2012-07-31T14:56:25Z</time>
      </trkpt>
      <trkpt lat="46.38978" lon="13.02752">
        <ele>291.42</ele>
        <time>2012-07-31T14:56:26Z</time>
      </trkpt>
      <trkpt lat="46.38983" lon="13.02765">
        <ele>292.38</ele>
        <time>2012-07-31T14:56:27Z</time>
      </trkpt>
      <trkpt lat="46.38988" lon="13.02777">
        <ele>289.01</ele>
        <time>2012-07-31T14:56:28Z</time>
      </trkpt>
      <trkpt lat="46.38994" lon="13.0279">
        <ele>292.38</ele>
        <time>2012-07-31T14:56:29Z</time>
      </trkpt>
      <trkpt lat="46.39063" lon="13.02944">
        <ele>290.94</ele>
        <time>2012-07-31T14:56:40Z</time>
      </trkpt>
      <trkpt lat="46.39107" lon="13.02991">
        <ele>289.01</ele>
        <time>2012-07-31T14:56:51Z</time>
      </trkpt>
      <trkpt lat="46.3911" lon="13.02987">
        <ele>288.53</ele>
        <time>2012-07-31T14:56:52Z</time>
      </trkpt>
      <trkpt lat="46.39111" lon="13.0298">
        <ele>288.05</ele>
        <time>2012-07-31T14:56:57Z</time>
      </trkpt>
      <trkpt lat="46.3911" lon="13.02979">
        <ele>289.01</ele>
        <time>2012-07-31T14:56:58Z</time>
      </trkpt>
      <trkpt lat="46.39108" lon="13.02977">
        <ele>288.53</ele>
        <time>2012-07-31T14:56:59Z</time>
      </trkpt>
      <trkpt lat="46.39087" lon="13.02971">
        <ele>289.01</ele>
        <time>2012-07-31T14:57:05Z</time>
      </trkpt>
      <trkpt lat="46.39083" lon="13.02967">
        <ele>289.01</ele>
        <time>2012-07-31T14:57:06Z</time>
      </trkpt>
      <trkpt lat="46.39079" lon="13.02961">
        <ele>289.01</ele>
        <time>2012-07-31T14:57:07Z</time>
      </trkpt>
      <trkpt lat="46.39075" lon="13.02953">
        <ele>288.53</ele>
        <time>2012-07-31T14:57:08Z</time>
      </trkpt>
      <trkpt lat="46.39071" lon="13.02944">
        <ele>289.01</ele>
        <time>2012-07-31T14:57:09Z</time>
      </trkpt>
      <trkpt lat="46.39024" lon="13.02844">
        <ele>290.46</ele>
        <time>2012-07-31T14:57:19Z</time>
      </trkpt>
      <trkpt lat="46.38974" lon="13.02732">
        <ele>290.94</ele>
        <time>2012-07-31T14:57:31Z</time>
      </trkpt>
      <trkpt lat="46.38965" lon="13.02707">
        <ele>291.42</ele>
        <time>2012-07-31T14:57:34Z</time>
      </trkpt>
      <trkpt lat="46.38964" lon="13.02699">
        <ele>291.42</ele>
        <time>2012-07-31T14:57:35Z</time>
      </trkpt>
      <trkpt lat="46.38963" lon="13.02691">
        <ele>291.42</ele>
        <time>2012-07-31T14:57:36Z</time>
      </trkpt>
      <trkpt lat="46.38964" lon="13.02684">
        <ele>291.42</ele>
        <time>2012-07-31T14:57:37Z</time>
      </trkpt>
      <trkpt lat="46.38965" lon="13.02677">
        <ele>290.94</ele>
        <time>2012-07-31T14:57:38Z</time>
      </trkpt>
      <trkpt lat="46.38967" lon="13.02669">
        <ele>291.42</ele>
        <time>2012-07-31T14:57:39Z</time>
      </trkpt>
      <trkpt lat="46.38971" lon="13.0266">
        <ele>291.42</ele>
        <time>2012-07-31T14:57:40Z</time>
      </trkpt>
      <trkpt lat="46.38977" lon="13.02652">
        <ele>291.42</ele>
        <time>2012-07-31T14:57:41Z</time>
      </trkpt>
      <trkpt lat="46.38984" lon="13.02645">
        <ele>291.9</ele>
        <time>2012-07-31T14:57:42Z</time>
      </trkpt>
      <trkpt lat="46.38991" lon="13.02638">
        <ele>291.42</ele>
        <time>2012-07-31T14:57:43Z</time>
      </trkpt>
      <trkpt lat="46.39024" lon="13.02607">
        <ele>292.86</ele>
        <time>2012-07-31T14:57:47Z</time>
      </trkpt>
      <trkpt lat="46.39075" lon="13.02562">
        <ele>291.42</ele>
        <time>2012-07-31T14:57:54Z</time>
      </trkpt>
      <trkpt lat="46.39104" lon="13.02536">
        <ele>292.38</ele>
        <time>2012-07-31T14:58:02Z</time>
      </trkpt>
      <trkpt lat="46.39136" lon="13.02508">
        <ele>293.34</ele>
        <time>2012-07-31T14:58:05Z</time>
      </trkpt>
      <trkpt lat="46.39176" lon="13.02474">
        <ele>295.74</ele>
        <time>2012-07-31T14:58:08Z</time>
      </trkpt>
      <trkpt lat="46.3931" lon="13.02357">
        <ele>299.59</ele>
        <time>2012-07-31T14:58:18Z</time>
      </trkpt>
      <trkpt lat="46.39781" lon="13.02497">
        <ele>302.95</ele>
        <time>2012-07-31T15:21:06Z</time>
      </trkpt>
      <trkpt lat="46.3978" lon="13.02496">
        <ele>311.6</ele>
        <time>2012-07-31T15:21:08Z</time>
      </trkpt>
      <trkpt lat="46.39779" lon="13.02498">
        <ele>302.95</ele>
        <time>2012-07-31T15:21:09Z</time>
      </trkpt>
      <trkpt lat="46.39778" lon="13.02499">
        <ele>307.76</ele>
        <time>2012-07-31T15:21:11Z</time>
      </trkpt>
      <trkpt lat="46.39777" lon="13.02498">
        <ele>304.88</ele>
        <time>2012-07-31T15:21:13Z</time>
      </trkpt>
      <trkpt lat="46.39776" lon="13.02497">
        <ele>297.67</ele>
        <time>2012-07-31T15:21:14Z</time>
      </trkpt>
      <trkpt lat="46.39776" lon="13.02497">
        <ele>307.28</ele>
        <time>2012-07-31T15:21:15Z</time>
      </trkpt>
      <trkpt lat="46.39776" lon="13.02496">
        <ele>303.91</ele>
        <time>2012-07-31T15:21:16Z</time>
      </trkpt>
      <trkpt lat="46.39776" lon="13.02494">
        <ele>304.39</ele>
        <time>2012-07-31T15:21:25Z</time>
      </trkpt>
      <trkpt lat="46.39775" lon="13.02501">
        <ele>307.76</ele>
        <time>2012-07-31T15:21:41Z</time>
      </trkpt>
      <trkpt lat="46.39775" lon="13.02501">
        <ele>310.16</ele>
        <time>2012-07-31T15:21:51Z</time>
      </trkpt>
      <trkpt lat="46.39776" lon="13.02504">
        <ele>313.53</ele>
        <time>2012-07-31T15:22:10Z</time>
      </trkpt>
      <trkpt lat="46.39778" lon="13.02498">
        <ele>314.49</ele>
        <time>2012-07-31T15:22:39Z</time>
      </trkpt>
      <trkpt lat="46.39778" lon="13.02496">
        <ele>315.45</ele>
        <time>2012-07-31T15:22:57Z</time>
      </trkpt>
      <trkpt lat="46.39779" lon="13.02497">
        <ele>314.97</ele>
        <time>2012-07-31T15:23:14Z</time>
      </trkpt>
      <trkpt lat="46.39779" lon="13.02494">
        <ele>314.01</ele>
        <time>2012-07-31T15:23:40Z</time>
      </trkpt>
      <trkpt lat="46.39771" lon="13.025">
        <ele>314.49</ele>
        <time>2012-07-31T15:23:44Z</time>
      </trkpt>
      <trkpt lat="46.39767" lon="13.02502">
        <ele>314.49</ele>
        <time>2012-07-31T15:23:45Z</time>
      </trkpt>
      <trkpt lat="46.39763" lon="13.02503">
        <ele>314.49</ele>
        <time>2012-07-31T15:23:46Z</time>
      </trkpt>
      <trkpt lat="46.39747" lon="13.02509">
        <ele>314.01</ele>
        <time>2012-07-31T15:23:55Z</time>
      </trkpt>
      <trkpt lat="46.39745" lon="13.02507">
        <ele>313.53</ele>
        <time>2012-07-31T15:23:56Z</time>
      </trkpt>
      <trkpt lat="46.39742" lon="13.02502">
        <ele>314.01</ele>
        <time>2012-07-31T15:23:57Z</time>
      </trkpt>
      <trkpt lat="46.3974" lon="13.02494">
        <ele>314.49</ele>
        <time>2012-07-31T15:23:58Z</time>
      </trkpt>
      <trkpt lat="46.39737" lon="13.02486">
        <ele>314.49</ele>
        <time>2012-07-31T15:23:59Z</time>
      </trkpt>
      <trkpt lat="46.39706" lon="13.02377">
        <ele>315.45</ele>
        <time>2012-07-31T15:24:08Z</time>
      </trkpt>
      <trkpt lat="46.39646" lon="13.02172">
        <ele>316.41</ele>
        <time>2012-07-31T15:24:21Z</time>
      </trkpt>
      <trkpt lat="46.39612" lon="13.02056">
        <ele>313.53</ele>
        <time>2012-07-31T15:24:30Z</time>
      </trkpt>
      <trkpt lat="46.39607" lon="13.0202">
        <ele>314.01</ele>
        <time>2012-07-31T15:24:36Z</time>
      </trkpt>
      <trkpt lat="46.39605" lon="13.0191">
        <ele>315.45</ele>
        <time>2012-07-31T15:24:45Z</time>
      </trkpt>
      <trkpt lat="46.39594" lon="13.01715">
        <ele>316.89</ele>
        <time>2012-07-31T15:24:57Z</time>
      </trkpt>
      <trkpt lat="46.39594" lon="13.01646">
        <ele>316.89</ele>
        <time>2012-07-31T15:25:01Z</time>
      </trkpt>
      <trkpt lat="46.39597" lon="13.0163">
        <ele>317.37</ele>
        <time>2012-07-31T15:25:02Z</time>
      </trkpt>
      <trkpt lat="46.3961" lon="13.01552">
        <ele>316.89</ele>
        <time>2012-07-31T15:25:07Z</time>
      </trkpt>
      <trkpt lat="46.3961" lon="13.01535">
        <ele>317.37</ele>
        <time>2012-07-31T15:25:08Z</time>
      </trkpt>
      <trkpt lat="46.39609" lon="13.01518">
        <ele>317.37</ele>
        <time>2012-07-31T15:25:09Z</time>
      </trkpt>
      <trkpt lat="46.3957" lon="13.01281">
        <ele>317.85</ele>
        <time>2012-07-31T15:25:22Z</time>
      </trkpt>
      <trkpt lat="46.39562" lon="13.01229">
        <ele>317.37</ele>
        <time>2012-07-31T15:25:25Z</time>
      </trkpt>
      <trkpt lat="46.39562" lon="13.01212">
        <ele>316.89</ele>
        <time>2012-07-31T15:25:26Z</time>
      </trkpt>
      <trkpt lat="46.39563" lon="13.01194">
        <ele>317.37</ele>
        <time>2012-07-31T15:25:27Z</time>
      </trkpt>
      <trkpt lat="46.39585" lon="13.01045">
        <ele>316.89</ele>
        <time>2012-07-31T15:25:36Z</time>
      </trkpt>
      <trkpt lat="46.39588" lon="13.01033">
        <ele>316.41</ele>
        <time>2012-07-31T15:25:37Z</time>
      </trkpt>
      <trkpt lat="46.39593" lon="13.0102">
        <ele>316.41</ele>
        <time>2012-07-31T15:25:38Z</time>
      </trkpt>
      <trkpt lat="46.396" lon="13.01009">
        <ele>316.89</ele>
        <time>2012-07-31T15:25:39Z</time>
      </trkpt>
      <trkpt lat="46.39609" lon="13.01">
        <ele>316.89</ele>
        <time>2012-07-31T15:25:40Z</time>
      </trkpt>
      <trkpt lat="46.39619" lon="13.00991">
        <ele>317.37</ele>
        <time>2012-07-31T15:25:41Z</time>
      </trkpt>
      <trkpt lat="46.3973" lon="13.00895">
        <ele>319.78</ele>
        <time>2012-07-31T15:25:51Z</time>
      </trkpt>
      <trkpt lat="46.39881" lon="13.00765">
        <ele>323.14</ele>
        <time>2012-07-31T15:26:04Z</time>
      </trkpt>
      <trkpt lat="46.40076" lon="13.0059">
        <ele>324.58</ele>
        <time>2012-07-31T15:26:21Z</time>
      </trkpt>
      <trkpt lat="46.40087" lon="13.00585">
        <ele>324.58</ele>
        <time>2012-07-31T15:26:22Z</time>
      </trkpt>
      <trkpt lat="46.40098" lon="13.00582">
        <ele>324.58</ele>
        <time>2012-07-31T15:26:23Z</time>
      </trkpt>
      <trkpt lat="46.40108" lon="13.00581">
        <ele>324.58</ele>
        <time>2012-07-31T15:26:24Z</time>
      </trkpt>
      <trkpt lat="46.40117" lon="13.00582">
        <ele>324.58</ele>
        <time>2012-07-31T15:26:25Z</time>
      </trkpt>
      <trkpt lat="46.40125" lon="13.00583">
        <ele>325.06</ele>
        <time>2012-07-31T15:26:26Z</time>
      </trkpt>
      <trkpt lat="46.40132" lon="13.00582">
        <ele>324.58</ele>
        <time>2012-07-31T15:26:27Z</time>
      </trkpt>
      <trkpt lat="46.40138" lon="13.00578">
        <ele>324.1</ele>
        <time>2012-07-31T15:26:28Z</time>
      </trkpt>
      <trkpt lat="46.40141" lon="13.0057">
        <ele>324.1</ele>
        <time>2012-07-31T15:26:29Z</time>
      </trkpt>
      <trkpt lat="46.4014" lon="13.0056">
        <ele>324.58</ele>
        <time>2012-07-31T15:26:30Z</time>
      </trkpt>
      <trkpt lat="46.40137" lon="13.00548">
        <ele>324.1</ele>
        <time>2012-07-31T15:26:31Z</time>
      </trkpt>
      <trkpt lat="46.40134" lon="13.00536">
        <ele>325.06</ele>
        <time>2012-07-31T15:26:32Z</time>
      </trkpt>
      <trkpt lat="46.40131" lon="13.00522">
        <ele>325.06</ele>
        <time>2012-07-31T15:26:33Z</time>
      </trkpt>
      <trkpt lat="46.40129" lon="13.00508">
        <ele>326.02</ele>
        <time>2012-07-31T15:26:34Z</time>
      </trkpt>
      <trkpt lat="46.40124" lon="13.00466">
        <ele>325.54</ele>
        <time>2012-07-31T15:26:37Z</time>
      </trkpt>
      <trkpt lat="46.40126" lon="13.00454">
        <ele>325.54</ele>
        <time>2012-07-31T15:26:38Z</time>
      </trkpt>
      <trkpt lat="46.40129" lon="13.00445">
        <ele>326.02</ele>
        <time>2012-07-31T15:26:39Z</time>
      </trkpt>
      <trkpt lat="46.40134" lon="13.00437">
        <ele>326.5</ele>
        <time>2012-07-31T15:26:40Z</time>
      </trkpt>
      <trkpt lat="46.40141" lon="13.00432">
        <ele>326.5</ele>
        <time>2012-07-31T15:26:41Z</time>
      </trkpt>
      <trkpt lat="46.40149" lon="13.0043">
        <ele>326.99</ele>
        <time>2012-07-31T15:26:42Z</time>
      </trkpt>
      <trkpt lat="46.40159" lon="13.00431">
        <ele>327.95</ele>
        <time>2012-07-31T15:26:43Z</time>
      </trkpt>
      <trkpt lat="46.40171" lon="13.00433">
        <ele>329.39</ele>
        <time>2012-07-31T15:26:44Z</time>
      </trkpt>
      <trkpt lat="46.40211" lon="13.00435">
        <ele>331.79</ele>
        <time>2012-07-31T15:26:47Z</time>
      </trkpt>
      <trkpt lat="46.40223" lon="13.00432">
        <ele>332.27</ele>
        <time>2012-07-31T15:26:48Z</time>
      </trkpt>
      <trkpt lat="46.40234" lon="13.00425">
        <ele>332.75</ele>
        <time>2012-07-31T15:26:49Z</time>
      </trkpt>
      <trkpt lat="46.40243" lon="13.00415">
        <ele>333.23</ele>
        <time>2012-07-31T15:26:50Z</time>
      </trkpt>
      <trkpt lat="46.4025" lon="13.00402">
        <ele>333.71</ele>
        <time>2012-07-31T15:26:51Z</time>
      </trkpt>
      <trkpt lat="46.40253" lon="13.00386">
        <ele>333.71</ele>
        <time>2012-07-31T15:26:52Z</time>
      </trkpt>
      <trkpt lat="46.40253" lon="13.0037">
        <ele>334.68</ele>
        <time>2012-07-31T15:26:53Z</time>
      </trkpt>
      <trkpt lat="46.4025" lon="13.00354">
        <ele>334.2</ele>
        <time>2012-07-31T15:26:54Z</time>
      </trkpt>
      <trkpt lat="46.40244" lon="13.0034">
        <ele>334.2</ele>
        <time>2012-07-31T15:26:55Z</time>
      </trkpt>
      <trkpt lat="46.40235" lon="13.00327">
        <ele>334.68</ele>
        <time>2012-07-31T15:26:56Z</time>
      </trkpt>
      <trkpt lat="46.40223" lon="13.00317">
        <ele>335.16</ele>
        <time>2012-07-31T15:26:57Z</time>
      </trkpt>
      <trkpt lat="46.40209" lon="13.00309">
        <ele>334.68</ele>
        <time>2012-07-31T15:26:58Z</time>
      </trkpt>
      <trkpt lat="46.40196" lon="13.00303">
        <ele>334.68</ele>
        <time>2012-07-31T15:26:59Z</time>
      </trkpt>
      <trkpt lat="46.4016" lon="13.00288">
        <ele>332.75</ele>
        <time>2012-07-31T15:27:02Z</time>
      </trkpt>
      <trkpt lat="46.40152" lon="13.00281">
        <ele>331.79</ele>
        <time>2012-07-31T15:27:03Z</time>
      </trkpt>
      <trkpt lat="46.40146" lon="13.00271">
        <ele>331.31</ele>
        <time>2012-07-31T15:27:04Z</time>
      </trkpt>
      <trkpt lat="46.40143" lon="13.00259">
        <ele>331.31</ele>
        <time>2012-07-31T15:27:05Z</time>
      </trkpt>
      <trkpt lat="46.40142" lon="13.00245">
        <ele>332.27</ele>
        <time>2012-07-31T15:27:06Z</time>
      </trkpt>
      <trkpt lat="46.40143" lon="13.00228">
        <ele>332.75</ele>
        <time>2012-07-31T15:27:07Z</time>
      </trkpt>
      <trkpt lat="46.40145" lon="13.0021">
        <ele>332.75</ele>
        <time>2012-07-31T15:27:08Z</time>
      </trkpt>
      <trkpt lat="46.40148" lon="13.00192">
        <ele>332.75</ele>
        <time>2012-07-31T15:27:09Z</time>
      </trkpt>
      <trkpt lat="46.40152" lon="13.00173">
        <ele>333.23</ele>
        <time>2012-07-31T15:27:10Z</time>
      </trkpt>
      <trkpt lat="46.40203" lon="12.99951">
        <ele>335.16</ele>
        <time>2012-07-31T15:27:20Z</time>
      </trkpt>
      <trkpt lat="46.40282" lon="12.99716">
        <ele>334.68</ele>
        <time>2012-07-31T15:27:30Z</time>
      </trkpt>
      <trkpt lat="46.40415" lon="12.99445">
        <ele>333.71</ele>
        <time>2012-07-31T15:27:42Z</time>
      </trkpt>
      <trkpt lat="46.40528" lon="12.99142">
        <ele>334.2</ele>
        <time>2012-07-31T15:27:54Z</time>
      </trkpt>
      <trkpt lat="46.40619" lon="12.98774">
        <ele>334.68</ele>
        <time>2012-07-31T15:28:07Z</time>
      </trkpt>
      <trkpt lat="46.40671" lon="12.98397">
        <ele>335.64</ele>
        <time>2012-07-31T15:28:20Z</time>
      </trkpt>
      <trkpt lat="46.40723" lon="12.97859">
        <ele>338.04</ele>
        <time>2012-07-31T15:28:38Z</time>
      </trkpt>
      <trkpt lat="46.4079" lon="12.97444">
        <ele>338.04</ele>
        <time>2012-07-31T15:28:52Z</time>
      </trkpt>
      <trkpt lat="46.40874" lon="12.97135">
        <ele>341.41</ele>
        <time>2012-07-31T15:29:03Z</time>
      </trkpt>
      <trkpt lat="46.40883" lon="12.97108">
        <ele>341.41</ele>
        <time>2012-07-31T15:29:04Z</time>
      </trkpt>
      <trkpt lat="46.40942" lon="12.96914">
        <ele>345.25</ele>
        <time>2012-07-31T15:29:11Z</time>
      </trkpt>
      <trkpt lat="46.40975" lon="12.96805">
        <ele>348.13</ele>
        <time>2012-07-31T15:29:15Z</time>
      </trkpt>
      <trkpt lat="46.40984" lon="12.96778">
        <ele>348.13</ele>
        <time>2012-07-31T15:29:16Z</time>
      </trkpt>
      <trkpt lat="46.41007" lon="12.96697">
        <ele>349.58</ele>
        <time>2012-07-31T15:29:19Z</time>
      </trkpt>
      <trkpt lat="46.4102" lon="12.9664">
        <ele>350.54</ele>
        <time>2012-07-31T15:29:21Z</time>
      </trkpt>
      <trkpt lat="46.41043" lon="12.964">
        <ele>351.02</ele>
        <time>2012-07-31T15:29:29Z</time>
      </trkpt>
      <trkpt lat="46.41041" lon="12.96155">
        <ele>349.58</ele>
        <time>2012-07-31T15:29:37Z</time>
      </trkpt>
      <trkpt lat="46.41045" lon="12.96126">
        <ele>349.58</ele>
        <time>2012-07-31T15:29:38Z</time>
      </trkpt>
      <trkpt lat="46.41052" lon="12.96099">
        <ele>349.1</ele>
        <time>2012-07-31T15:29:39Z</time>
      </trkpt>
      <trkpt lat="46.41059" lon="12.96073">
        <ele>348.62</ele>
        <time>2012-07-31T15:29:40Z</time>
      </trkpt>
      <trkpt lat="46.41066" lon="12.96048">
        <ele>348.13</ele>
        <time>2012-07-31T15:29:41Z</time>
      </trkpt>
      <trkpt lat="46.41095" lon="12.95924">
        <ele>346.69</ele>
        <time>2012-07-31T15:29:46Z</time>
      </trkpt>
      <trkpt lat="46.41097" lon="12.95898">
        <ele>346.69</ele>
        <time>2012-07-31T15:29:47Z</time>
      </trkpt>
      <trkpt lat="46.41097" lon="12.95872">
        <ele>346.21</ele>
        <time>2012-07-31T15:29:48Z</time>
      </trkpt>
      <trkpt lat="46.41094" lon="12.95778">
        <ele>343.33</ele>
        <time>2012-07-31T15:29:52Z</time>
      </trkpt>
      <trkpt lat="46.41087" lon="12.95504">
        <ele>343.33</ele>
        <time>2012-07-31T15:30:05Z</time>
      </trkpt>
      <trkpt lat="46.41074" lon="12.95283">
        <ele>342.85</ele>
        <time>2012-07-31T15:30:16Z</time>
      </trkpt>
      <trkpt lat="46.41041" lon="12.95125">
        <ele>343.33</ele>
        <time>2012-07-31T15:30:24Z</time>
      </trkpt>
      <trkpt lat="46.41042" lon="12.94914">
        <ele>345.73</ele>
        <time>2012-07-31T15:30:34Z</time>
      </trkpt>
      <trkpt lat="46.41045" lon="12.94893">
        <ele>345.73</ele>
        <time>2012-07-31T15:30:35Z</time>
      </trkpt>
      <trkpt lat="46.41049" lon="12.94873">
        <ele>346.21</ele>
        <time>2012-07-31T15:30:36Z</time>
      </trkpt>
      <trkpt lat="46.41054" lon="12.94853">
        <ele>346.21</ele>
        <time>2012-07-31T15:30:37Z</time>
      </trkpt>
      <trkpt lat="46.41061" lon="12.94835">
        <ele>347.17</ele>
        <time>2012-07-31T15:30:38Z</time>
      </trkpt>
      <trkpt lat="46.41069" lon="12.94816">
        <ele>348.13</ele>
        <time>2012-07-31T15:30:39Z</time>
      </trkpt>
      <trkpt lat="46.41077" lon="12.94799">
        <ele>348.13</ele>
        <time>2012-07-31T15:30:40Z</time>
      </trkpt>
      <trkpt lat="46.41117" lon="12.9471">
        <ele>350.54</ele>
        <time>2012-07-31T15:30:45Z</time>
      </trkpt>
      <trkpt lat="46.41122" lon="12.9469">
        <ele>351.02</ele>
        <time>2012-07-31T15:30:46Z</time>
      </trkpt>
      <trkpt lat="46.41126" lon="12.94671">
        <ele>350.54</ele>
        <time>2012-07-31T15:30:47Z</time>
      </trkpt>
      <trkpt lat="46.41148" lon="12.94566">
        <ele>350.54</ele>
        <time>2012-07-31T15:30:53Z</time>
      </trkpt>
      <trkpt lat="46.41155" lon="12.9455">
        <ele>350.54</ele>
        <time>2012-07-31T15:30:54Z</time>
      </trkpt>
      <trkpt lat="46.41163" lon="12.94535">
        <ele>351.02</ele>
        <time>2012-07-31T15:30:55Z</time>
      </trkpt>
      <trkpt lat="46.41178" lon="12.94505">
        <ele>351.98</ele>
        <time>2012-07-31T15:30:57Z</time>
      </trkpt>
      <trkpt lat="46.41185" lon="12.94488">
        <ele>352.46</ele>
        <time>2012-07-31T15:30:58Z</time>
      </trkpt>
      <trkpt lat="46.41228" lon="12.94317">
        <ele>352.94</ele>
        <time>2012-07-31T15:31:07Z</time>
      </trkpt>
      <trkpt lat="46.4123" lon="12.94168">
        <ele>354.86</ele>
        <time>2012-07-31T15:31:14Z</time>
      </trkpt>
      <trkpt lat="46.41212" lon="12.93895">
        <ele>357.75</ele>
        <time>2012-07-31T15:31:26Z</time>
      </trkpt>
      <trkpt lat="46.41212" lon="12.93872">
        <ele>357.75</ele>
        <time>2012-07-31T15:31:27Z</time>
      </trkpt>
      <trkpt lat="46.41239" lon="12.93711">
        <ele>360.63</ele>
        <time>2012-07-31T15:31:34Z</time>
      </trkpt>
      <trkpt lat="46.41328" lon="12.93406">
        <ele>360.63</ele>
        <time>2012-07-31T15:31:48Z</time>
      </trkpt>
      <trkpt lat="46.41398" lon="12.9326">
        <ele>362.55</ele>
        <time>2012-07-31T15:31:56Z</time>
      </trkpt>
      <trkpt lat="46.41452" lon="12.93169">
        <ele>365.92</ele>
        <time>2012-07-31T15:32:02Z</time>
      </trkpt>
      <trkpt lat="46.4146" lon="12.93152">
        <ele>365.92</ele>
        <time>2012-07-31T15:32:03Z</time>
      </trkpt>
      <trkpt lat="46.41517" lon="12.93041">
        <ele>367.84</ele>
        <time>2012-07-31T15:32:10Z</time>
      </trkpt>
      <trkpt lat="46.41524" lon="12.93024">
        <ele>368.8</ele>
        <time>2012-07-31T15:32:11Z</time>
      </trkpt>
      <trkpt lat="46.4153" lon="12.93007">
        <ele>368.8</ele>
        <time>2012-07-31T15:32:12Z</time>
      </trkpt>
      <trkpt lat="46.41536" lon="12.92988">
        <ele>367.84</ele>
        <time>2012-07-31T15:32:13Z</time>
      </trkpt>
      <trkpt lat="46.41564" lon="12.92794">
        <ele>365.44</ele>
        <time>2012-07-31T15:32:23Z</time>
      </trkpt>
      <trkpt lat="46.41587" lon="12.92549">
        <ele>365.44</ele>
        <time>2012-07-31T15:32:36Z</time>
      </trkpt>
      <trkpt lat="46.4161" lon="12.92428">
        <ele>366.4</ele>
        <time>2012-07-31T15:32:45Z</time>
      </trkpt>
      <trkpt lat="46.41631" lon="12.92367">
        <ele>366.88</ele>
        <time>2012-07-31T15:32:53Z</time>
      </trkpt>
      <trkpt lat="46.41664" lon="12.92218">
        <ele>368.8</ele>
        <time>2012-07-31T15:33:06Z</time>
      </trkpt>
      <trkpt lat="46.41693" lon="12.92059">
        <ele>369.28</ele>
        <time>2012-07-31T15:33:18Z</time>
      </trkpt>
      <trkpt lat="46.41697" lon="12.92013">
        <ele>370.24</ele>
        <time>2012-07-31T15:33:22Z</time>
      </trkpt>
      <trkpt lat="46.417" lon="12.92004">
        <ele>370.24</ele>
        <time>2012-07-31T15:33:23Z</time>
      </trkpt>
      <trkpt lat="46.41702" lon="12.91995">
        <ele>369.76</ele>
        <time>2012-07-31T15:33:24Z</time>
      </trkpt>
      <trkpt lat="46.41701" lon="12.91986">
        <ele>369.76</ele>
        <time>2012-07-31T15:33:25Z</time>
      </trkpt>
      <trkpt lat="46.41696" lon="12.9198">
        <ele>370.24</ele>
        <time>2012-07-31T15:33:26Z</time>
      </trkpt>
      <trkpt lat="46.41689" lon="12.91976">
        <ele>370.73</ele>
        <time>2012-07-31T15:33:27Z</time>
      </trkpt>
      <trkpt lat="46.41682" lon="12.91973">
        <ele>370.24</ele>
        <time>2012-07-31T15:33:28Z</time>
      </trkpt>
      <trkpt lat="46.41674" lon="12.91967">
        <ele>370.24</ele>
        <time>2012-07-31T15:33:29Z</time>
      </trkpt>
      <trkpt lat="46.41667" lon="12.91959">
        <ele>370.73</ele>
        <time>2012-07-31T15:33:30Z</time>
      </trkpt>
      <trkpt lat="46.4166" lon="12.91949">
        <ele>370.73</ele>
        <time>2012-07-31T15:33:31Z</time>
      </trkpt>
      <trkpt lat="46.41576" lon="12.91823">
        <ele>372.17</ele>
        <time>2012-07-31T15:33:41Z</time>
      </trkpt>
      <trkpt lat="46.41478" lon="12.91661">
        <ele>373.13</ele>
        <time>2012-07-31T15:33:52Z</time>
      </trkpt>
      <trkpt lat="46.41377" lon="12.9137">
        <ele>375.05</ele>
        <time>2012-07-31T15:34:08Z</time>
      </trkpt>
      <trkpt lat="46.4133" lon="12.91232">
        <ele>377.45</ele>
        <time>2012-07-31T15:34:15Z</time>
      </trkpt>
      <trkpt lat="46.41258" lon="12.91024">
        <ele>380.82</ele>
        <time>2012-07-31T15:34:24Z</time>
      </trkpt>
      <trkpt lat="46.4111" lon="12.90599">
        <ele>382.74</ele>
        <time>2012-07-31T15:34:41Z</time>
      </trkpt>
      <trkpt lat="46.41016" lon="12.9027">
        <ele>382.74</ele>
        <time>2012-07-31T15:34:53Z</time>
      </trkpt>
      <trkpt lat="46.4097" lon="12.89912">
        <ele>379.86</ele>
        <time>2012-07-31T15:35:06Z</time>
      </trkpt>
      <trkpt lat="46.40953" lon="12.89617">
        <ele>380.82</ele>
        <time>2012-07-31T15:35:20Z</time>
      </trkpt>
      <trkpt lat="46.40941" lon="12.89348">
        <ele>379.86</ele>
        <time>2012-07-31T15:35:34Z</time>
      </trkpt>
      <trkpt lat="46.40941" lon="12.8931">
        <ele>379.38</ele>
        <time>2012-07-31T15:35:36Z</time>
      </trkpt>
      <trkpt lat="46.40943" lon="12.89292">
        <ele>379.38</ele>
        <time>2012-07-31T15:35:37Z</time>
      </trkpt>
      <trkpt lat="46.40946" lon="12.89273">
        <ele>378.9</ele>
        <time>2012-07-31T15:35:38Z</time>
      </trkpt>
      <trkpt lat="46.40951" lon="12.89256">
        <ele>378.9</ele>
        <time>2012-07-31T15:35:39Z</time>
      </trkpt>
      <trkpt lat="46.40957" lon="12.89239">
        <ele>378.42</ele>
        <time>2012-07-31T15:35:40Z</time>
      </trkpt>
      <trkpt lat="46.41008" lon="12.89115">
        <ele>379.86</ele>
        <time>2012-07-31T15:35:49Z</time>
      </trkpt>
      <trkpt lat="46.41011" lon="12.89105">
        <ele>379.86</ele>
        <time>2012-07-31T15:35:50Z</time>
      </trkpt>
      <trkpt lat="46.41016" lon="12.89082">
        <ele>380.34</ele>
        <time>2012-07-31T15:35:56Z</time>
      </trkpt>
      <trkpt lat="46.41017" lon="12.89084">
        <ele>380.34</ele>
        <time>2012-07-31T15:36:31Z</time>
      </trkpt>
      <trkpt lat="46.41017" lon="12.89083">
        <ele>380.34</ele>
        <time>2012-07-31T15:37:10Z</time>
      </trkpt>
      <trkpt lat="46.4102" lon="12.89056">
        <ele>380.82</ele>
        <time>2012-07-31T15:37:25Z</time>
      </trkpt>
      <trkpt lat="46.41018" lon="12.8902">
        <ele>382.74</ele>
        <time>2012-07-31T15:37:28Z</time>
      </trkpt>
      <trkpt lat="46.41015" lon="12.89007">
        <ele>383.22</ele>
        <time>2012-07-31T15:37:29Z</time>
      </trkpt>
      <trkpt lat="46.40989" lon="12.88847">
        <ele>384.66</ele>
        <time>2012-07-31T15:37:39Z</time>
      </trkpt>
      <trkpt lat="46.40989" lon="12.88828">
        <ele>384.18</ele>
        <time>2012-07-31T15:37:40Z</time>
      </trkpt>
      <trkpt lat="46.4099" lon="12.88809">
        <ele>384.66</ele>
        <time>2012-07-31T15:37:41Z</time>
      </trkpt>
      <trkpt lat="46.41" lon="12.886">
        <ele>387.07</ele>
        <time>2012-07-31T15:37:52Z</time>
      </trkpt>
      <trkpt lat="46.41" lon="12.88431">
        <ele>390.43</ele>
        <time>2012-07-31T15:38:01Z</time>
      </trkpt>
      <trkpt lat="46.41" lon="12.8841">
        <ele>390.43</ele>
        <time>2012-07-31T15:38:02Z</time>
      </trkpt>
      <trkpt lat="46.40985" lon="12.88256">
        <ele>391.39</ele>
        <time>2012-07-31T15:38:10Z</time>
      </trkpt>
      <trkpt lat="46.40984" lon="12.88237">
        <ele>390.91</ele>
        <time>2012-07-31T15:38:11Z</time>
      </trkpt>
      <trkpt lat="46.40984" lon="12.88218">
        <ele>391.39</ele>
        <time>2012-07-31T15:38:12Z</time>
      </trkpt>
      <trkpt lat="46.4099" lon="12.87991">
        <ele>394.28</ele>
        <time>2012-07-31T15:38:24Z</time>
      </trkpt>
      <trkpt lat="46.40987" lon="12.87943">
        <ele>394.28</ele>
        <time>2012-07-31T15:38:27Z</time>
      </trkpt>
      <trkpt lat="46.40984" lon="12.87928">
        <ele>394.76</ele>
        <time>2012-07-31T15:38:28Z</time>
      </trkpt>
      <trkpt lat="46.4097" lon="12.87871">
        <ele>394.76</ele>
        <time>2012-07-31T15:38:32Z</time>
      </trkpt>
      <trkpt lat="46.40968" lon="12.87857">
        <ele>394.76</ele>
        <time>2012-07-31T15:38:33Z</time>
      </trkpt>
      <trkpt lat="46.40966" lon="12.87843">
        <ele>394.76</ele>
        <time>2012-07-31T15:38:34Z</time>
      </trkpt>
      <trkpt lat="46.40966" lon="12.87813">
        <ele>395.72</ele>
        <time>2012-07-31T15:38:36Z</time>
      </trkpt>
      <trkpt lat="46.40985" lon="12.87619">
        <ele>397.16</ele>
        <time>2012-07-31T15:38:48Z</time>
      </trkpt>
      <trkpt lat="46.40982" lon="12.87603">
        <ele>396.68</ele>
        <time>2012-07-31T15:38:49Z</time>
      </trkpt>
      <trkpt lat="46.40976" lon="12.87587">
        <ele>397.16</ele>
        <time>2012-07-31T15:38:50Z</time>
      </trkpt>
      <trkpt lat="46.40968" lon="12.87574">
        <ele>397.64</ele>
        <time>2012-07-31T15:38:51Z</time>
      </trkpt>
      <trkpt lat="46.40958" lon="12.87561">
        <ele>397.16</ele>
        <time>2012-07-31T15:38:52Z</time>
      </trkpt>
      <trkpt lat="46.40842" lon="12.87404">
        <ele>399.57</ele>
        <time>2012-07-31T15:39:04Z</time>
      </trkpt>
      <trkpt lat="46.40739" lon="12.87267">
        <ele>402.93</ele>
        <time>2012-07-31T15:39:13Z</time>
      </trkpt>
      <trkpt lat="46.40716" lon="12.87236">
        <ele>403.89</ele>
        <time>2012-07-31T15:39:15Z</time>
      </trkpt>
      <trkpt lat="46.40632" lon="12.87131">
        <ele>405.33</ele>
        <time>2012-07-31T15:39:22Z</time>
      </trkpt>
      <trkpt lat="46.40622" lon="12.87112">
        <ele>405.33</ele>
        <time>2012-07-31T15:39:23Z</time>
      </trkpt>
      <trkpt lat="46.40614" lon="12.87091">
        <ele>406.77</ele>
        <time>2012-07-31T15:39:24Z</time>
      </trkpt>
      <trkpt lat="46.40607" lon="12.87069">
        <ele>406.77</ele>
        <time>2012-07-31T15:39:25Z</time>
      </trkpt>
      <trkpt lat="46.40603" lon="12.87045">
        <ele>407.26</ele>
        <time>2012-07-31T15:39:26Z</time>
      </trkpt>
      <trkpt lat="46.40599" lon="12.8702">
        <ele>407.74</ele>
        <time>2012-07-31T15:39:27Z</time>
      </trkpt>
      <trkpt lat="46.40597" lon="12.86994">
        <ele>408.7</ele>
        <time>2012-07-31T15:39:28Z</time>
      </trkpt>
      <trkpt lat="46.40596" lon="12.86969">
        <ele>409.18</ele>
        <time>2012-07-31T15:39:29Z</time>
      </trkpt>
      <trkpt lat="46.40594" lon="12.86916">
        <ele>410.14</ele>
        <time>2012-07-31T15:39:31Z</time>
      </trkpt>
      <trkpt lat="46.40616" lon="12.86737">
        <ele>408.22</ele>
        <time>2012-07-31T15:39:38Z</time>
      </trkpt>
      <trkpt lat="46.40633" lon="12.86618">
        <ele>405.81</ele>
        <time>2012-07-31T15:39:43Z</time>
      </trkpt>
      <trkpt lat="46.40632" lon="12.86593">
        <ele>405.33</ele>
        <time>2012-07-31T15:39:44Z</time>
      </trkpt>
      <trkpt lat="46.40612" lon="12.86411">
        <ele>403.41</ele>
        <time>2012-07-31T15:39:51Z</time>
      </trkpt>
      <trkpt lat="46.40606" lon="12.86387">
        <ele>403.89</ele>
        <time>2012-07-31T15:39:52Z</time>
      </trkpt>
      <trkpt lat="46.40598" lon="12.86364">
        <ele>403.89</ele>
        <time>2012-07-31T15:39:53Z</time>
      </trkpt>
      <trkpt lat="46.40588" lon="12.86342">
        <ele>404.85</ele>
        <time>2012-07-31T15:39:54Z</time>
      </trkpt>
      <trkpt lat="46.40576" lon="12.86322">
        <ele>405.33</ele>
        <time>2012-07-31T15:39:55Z</time>
      </trkpt>
      <trkpt lat="46.40565" lon="12.86303">
        <ele>405.81</ele>
        <time>2012-07-31T15:39:56Z</time>
      </trkpt>
      <trkpt lat="46.40494" lon="12.86136">
        <ele>406.77</ele>
        <time>2012-07-31T15:40:04Z</time>
      </trkpt>
      <trkpt lat="46.40489" lon="12.86111">
        <ele>407.26</ele>
        <time>2012-07-31T15:40:05Z</time>
      </trkpt>
      <trkpt lat="46.40455" lon="12.85948">
        <ele>405.33</ele>
        <time>2012-07-31T15:40:12Z</time>
      </trkpt>
      <trkpt lat="46.40447" lon="12.85931">
        <ele>404.37</ele>
        <time>2012-07-31T15:40:13Z</time>
      </trkpt>
      <trkpt lat="46.40438" lon="12.85915">
        <ele>403.89</ele>
        <time>2012-07-31T15:40:14Z</time>
      </trkpt>
      <trkpt lat="46.40427" lon="12.85901">
        <ele>402.93</ele>
        <time>2012-07-31T15:40:15Z</time>
      </trkpt>
      <trkpt lat="46.40415" lon="12.8589">
        <ele>401.97</ele>
        <time>2012-07-31T15:40:16Z</time>
      </trkpt>
      <trkpt lat="46.40403" lon="12.85881">
        <ele>400.53</ele>
        <time>2012-07-31T15:40:17Z</time>
      </trkpt>
      <trkpt lat="46.40391" lon="12.85875">
        <ele>400.05</ele>
        <time>2012-07-31T15:40:18Z</time>
      </trkpt>
      <trkpt lat="46.40378" lon="12.85866">
        <ele>400.05</ele>
        <time>2012-07-31T15:40:19Z</time>
      </trkpt>
      <trkpt lat="46.40367" lon="12.85853">
        <ele>400.05</ele>
        <time>2012-07-31T15:40:20Z</time>
      </trkpt>
      <trkpt lat="46.40303" lon="12.8577">
        <ele>397.64</ele>
        <time>2012-07-31T15:40:25Z</time>
      </trkpt>
      <trkpt lat="46.40288" lon="12.85756">
        <ele>397.16</ele>
        <time>2012-07-31T15:40:26Z</time>
      </trkpt>
      <trkpt lat="46.40273" lon="12.85746">
        <ele>397.64</ele>
        <time>2012-07-31T15:40:27Z</time>
      </trkpt>
      <trkpt lat="46.40259" lon="12.85736">
        <ele>396.68</ele>
        <time>2012-07-31T15:40:28Z</time>
      </trkpt>
      <trkpt lat="46.40245" lon="12.85724">
        <ele>397.16</ele>
        <time>2012-07-31T15:40:29Z</time>
      </trkpt>
      <trkpt lat="46.40232" lon="12.8571">
        <ele>397.16</ele>
        <time>2012-07-31T15:40:30Z</time>
      </trkpt>
      <trkpt lat="46.4022" lon="12.85693">
        <ele>397.16</ele>
        <time>2012-07-31T15:40:31Z</time>
      </trkpt>
      <trkpt lat="46.40207" lon="12.85676">
        <ele>397.64</ele>
        <time>2012-07-31T15:40:32Z</time>
      </trkpt>
      <trkpt lat="46.40031" lon="12.85433">
        <ele>401.49</ele>
        <time>2012-07-31T15:40:46Z</time>
      </trkpt>
      <trkpt lat="46.39897" lon="12.85238">
        <ele>403.89</ele>
        <time>2012-07-31T15:40:57Z</time>
      </trkpt>
      <trkpt lat="46.39887" lon="12.8522">
        <ele>403.89</ele>
        <time>2012-07-31T15:40:58Z</time>
      </trkpt>
      <trkpt lat="46.39837" lon="12.85131">
        <ele>405.33</ele>
        <time>2012-07-31T15:41:03Z</time>
      </trkpt>
      <trkpt lat="46.39732" lon="12.84947">
        <ele>408.7</ele>
        <time>2012-07-31T15:41:15Z</time>
      </trkpt>
      <trkpt lat="46.39676" lon="12.84849">
        <ele>410.14</ele>
        <time>2012-07-31T15:41:24Z</time>
      </trkpt>
      <trkpt lat="46.39675" lon="12.84839">
        <ele>409.66</ele>
        <time>2012-07-31T15:41:25Z</time>
      </trkpt>
      <trkpt lat="46.39676" lon="12.84828">
        <ele>410.14</ele>
        <time>2012-07-31T15:41:26Z</time>
      </trkpt>
      <trkpt lat="46.3968" lon="12.84819">
        <ele>410.62</ele>
        <time>2012-07-31T15:41:27Z</time>
      </trkpt>
      <trkpt lat="46.39686" lon="12.8481">
        <ele>410.62</ele>
        <time>2012-07-31T15:41:28Z</time>
      </trkpt>
      <trkpt lat="46.39693" lon="12.84801">
        <ele>410.62</ele>
        <time>2012-07-31T15:41:29Z</time>
      </trkpt>
      <trkpt lat="46.3974" lon="12.84743">
        <ele>412.06</ele>
        <time>2012-07-31T15:41:35Z</time>
      </trkpt>
      <trkpt lat="46.3975" lon="12.84734">
        <ele>413.02</ele>
        <time>2012-07-31T15:41:36Z</time>
      </trkpt>
      <trkpt lat="46.3976" lon="12.84727">
        <ele>413.98</ele>
        <time>2012-07-31T15:41:37Z</time>
      </trkpt>
      <trkpt lat="46.39805" lon="12.84697">
        <ele>417.35</ele>
        <time>2012-07-31T15:41:41Z</time>
      </trkpt>
      <trkpt lat="46.39817" lon="12.84687">
        <ele>418.31</ele>
        <time>2012-07-31T15:41:42Z</time>
      </trkpt>
      <trkpt lat="46.39846" lon="12.84657">
        <ele>421.68</ele>
        <time>2012-07-31T15:41:45Z</time>
      </trkpt>
      <trkpt lat="46.39885" lon="12.84613">
        <ele>425.04</ele>
        <time>2012-07-31T15:41:48Z</time>
      </trkpt>
      <trkpt lat="46.39895" lon="12.84597">
        <ele>425.52</ele>
        <time>2012-07-31T15:41:49Z</time>
      </trkpt>
      <trkpt lat="46.3991" lon="12.84571">
        <ele>426.48</ele>
        <time>2012-07-31T15:41:51Z</time>
      </trkpt>
      <trkpt lat="46.39918" lon="12.84562">
        <ele>426.48</ele>
        <time>2012-07-31T15:41:52Z</time>
      </trkpt>
      <trkpt lat="46.39927" lon="12.84557">
        <ele>427.44</ele>
        <time>2012-07-31T15:41:53Z</time>
      </trkpt>
      <trkpt lat="46.39937" lon="12.84556">
        <ele>428.4</ele>
        <time>2012-07-31T15:41:54Z</time>
      </trkpt>
      <trkpt lat="46.39947" lon="12.84561">
        <ele>428.89</ele>
        <time>2012-07-31T15:41:55Z</time>
      </trkpt>
      <trkpt lat="46.39957" lon="12.84568">
        <ele>430.33</ele>
        <time>2012-07-31T15:41:56Z</time>
      </trkpt>
      <trkpt lat="46.39968" lon="12.84571">
        <ele>430.81</ele>
        <time>2012-07-31T15:41:57Z</time>
      </trkpt>
      <trkpt lat="46.39978" lon="12.84567">
        <ele>431.77</ele>
        <time>2012-07-31T15:41:58Z</time>
      </trkpt>
      <trkpt lat="46.39987" lon="12.8456">
        <ele>433.21</ele>
        <time>2012-07-31T15:41:59Z</time>
      </trkpt>
      <trkpt lat="46.39997" lon="12.8455">
        <ele>434.65</ele>
        <time>2012-07-31T15:42:00Z</time>
      </trkpt>
      <trkpt lat="46.40009" lon="12.84544">
        <ele>435.61</ele>
        <time>2012-07-31T15:42:01Z</time>
      </trkpt>
      <trkpt lat="46.40022" lon="12.84541">
        <ele>436.58</ele>
        <time>2012-07-31T15:42:02Z</time>
      </trkpt>
      <trkpt lat="46.40037" lon="12.84543">
        <ele>438.5</ele>
        <time>2012-07-31T15:42:03Z</time>
      </trkpt>
      <trkpt lat="46.40051" lon="12.84546">
        <ele>438.98</ele>
        <time>2012-07-31T15:42:04Z</time>
      </trkpt>
      <trkpt lat="46.40063" lon="12.84549">
        <ele>438.98</ele>
        <time>2012-07-31T15:42:05Z</time>
      </trkpt>
      <trkpt lat="46.40074" lon="12.84549">
        <ele>439.46</ele>
        <time>2012-07-31T15:42:06Z</time>
      </trkpt>
      <trkpt lat="46.40085" lon="12.84544">
        <ele>440.42</ele>
        <time>2012-07-31T15:42:07Z</time>
      </trkpt>
      <trkpt lat="46.40095" lon="12.84536">
        <ele>441.86</ele>
        <time>2012-07-31T15:42:08Z</time>
      </trkpt>
      <trkpt lat="46.40104" lon="12.84528">
        <ele>442.34</ele>
        <time>2012-07-31T15:42:09Z</time>
      </trkpt>
      <trkpt lat="46.40112" lon="12.84522">
        <ele>442.82</ele>
        <time>2012-07-31T15:42:10Z</time>
      </trkpt>
      <trkpt lat="46.40119" lon="12.84515">
        <ele>442.82</ele>
        <time>2012-07-31T15:42:11Z</time>
      </trkpt>
      <trkpt lat="46.40125" lon="12.84506">
        <ele>443.79</ele>
        <time>2012-07-31T15:42:12Z</time>
      </trkpt>
      <trkpt lat="46.40129" lon="12.84497">
        <ele>444.75</ele>
        <time>2012-07-31T15:42:13Z</time>
      </trkpt>
      <trkpt lat="46.4013" lon="12.84487">
        <ele>446.19</ele>
        <time>2012-07-31T15:42:14Z</time>
      </trkpt>
      <trkpt lat="46.40127" lon="12.84472">
        <ele>447.15</ele>
        <time>2012-07-31T15:42:15Z</time>
      </trkpt>
      <trkpt lat="46.40122" lon="12.84452">
        <ele>447.63</ele>
        <time>2012-07-31T15:42:16Z</time>
      </trkpt>
      <trkpt lat="46.40119" lon="12.84432">
        <ele>447.63</ele>
        <time>2012-07-31T15:42:17Z</time>
      </trkpt>
      <trkpt lat="46.40121" lon="12.84417">
        <ele>447.63</ele>
        <time>2012-07-31T15:42:18Z</time>
      </trkpt>
      <trkpt lat="46.40126" lon="12.84402">
        <ele>448.59</ele>
        <time>2012-07-31T15:42:19Z</time>
      </trkpt>
      <trkpt lat="46.40134" lon="12.8439">
        <ele>450.03</ele>
        <time>2012-07-31T15:42:20Z</time>
      </trkpt>
      <trkpt lat="46.40141" lon="12.84373">
        <ele>451</ele>
        <time>2012-07-31T15:42:21Z</time>
      </trkpt>
      <trkpt lat="46.40148" lon="12.84355">
        <ele>452.44</ele>
        <time>2012-07-31T15:42:22Z</time>
      </trkpt>
      <trkpt lat="46.40152" lon="12.84332">
        <ele>453.88</ele>
        <time>2012-07-31T15:42:23Z</time>
      </trkpt>
      <trkpt lat="46.40169" lon="12.84265">
        <ele>457.72</ele>
        <time>2012-07-31T15:42:26Z</time>
      </trkpt>
      <trkpt lat="46.40174" lon="12.84244">
        <ele>458.21</ele>
        <time>2012-07-31T15:42:27Z</time>
      </trkpt>
      <trkpt lat="46.40177" lon="12.84221">
        <ele>459.65</ele>
        <time>2012-07-31T15:42:28Z</time>
      </trkpt>
      <trkpt lat="46.40177" lon="12.84198">
        <ele>461.09</ele>
        <time>2012-07-31T15:42:29Z</time>
      </trkpt>
      <trkpt lat="46.40176" lon="12.84151">
        <ele>462.53</ele>
        <time>2012-07-31T15:42:31Z</time>
      </trkpt>
      <trkpt lat="46.40178" lon="12.84127">
        <ele>463.01</ele>
        <time>2012-07-31T15:42:32Z</time>
      </trkpt>
      <trkpt lat="46.40181" lon="12.84102">
        <ele>463.49</ele>
        <time>2012-07-31T15:42:33Z</time>
      </trkpt>
      <trkpt lat="46.40186" lon="12.84077">
        <ele>463.97</ele>
        <time>2012-07-31T15:42:34Z</time>
      </trkpt>
      <trkpt lat="46.40212" lon="12.83895">
        <ele>466.38</ele>
        <time>2012-07-31T15:42:41Z</time>
      </trkpt>
      <trkpt lat="46.40212" lon="12.83868">
        <ele>466.86</ele>
        <time>2012-07-31T15:42:42Z</time>
      </trkpt>
      <trkpt lat="46.40211" lon="12.83841">
        <ele>467.34</ele>
        <time>2012-07-31T15:42:43Z</time>
      </trkpt>
      <trkpt lat="46.40212" lon="12.83813">
        <ele>467.82</ele>
        <time>2012-07-31T15:42:44Z</time>
      </trkpt>
      <trkpt lat="46.40215" lon="12.83786">
        <ele>468.3</ele>
        <time>2012-07-31T15:42:45Z</time>
      </trkpt>
      <trkpt lat="46.40226" lon="12.83642">
        <ele>471.66</ele>
        <time>2012-07-31T15:42:50Z</time>
      </trkpt>
      <trkpt lat="46.40226" lon="12.83556">
        <ele>475.03</ele>
        <time>2012-07-31T15:42:53Z</time>
      </trkpt>
      <trkpt lat="46.40218" lon="12.83442">
        <ele>477.43</ele>
        <time>2012-07-31T15:42:57Z</time>
      </trkpt>
      <trkpt lat="46.40194" lon="12.83227">
        <ele>479.35</ele>
        <time>2012-07-31T15:43:06Z</time>
      </trkpt>
      <trkpt lat="46.40183" lon="12.83024">
        <ele>480.8</ele>
        <time>2012-07-31T15:43:17Z</time>
      </trkpt>
      <trkpt lat="46.40193" lon="12.82874">
        <ele>481.28</ele>
        <time>2012-07-31T15:43:26Z</time>
      </trkpt>
      <trkpt lat="46.40206" lon="12.8271">
        <ele>479.35</ele>
        <time>2012-07-31T15:43:36Z</time>
      </trkpt>
      <trkpt lat="46.4021" lon="12.82694">
        <ele>479.35</ele>
        <time>2012-07-31T15:43:37Z</time>
      </trkpt>
      <trkpt lat="46.40215" lon="12.82678">
        <ele>478.39</ele>
        <time>2012-07-31T15:43:38Z</time>
      </trkpt>
      <trkpt lat="46.40258" lon="12.8254">
        <ele>474.55</ele>
        <time>2012-07-31T15:43:47Z</time>
      </trkpt>
      <trkpt lat="46.40266" lon="12.82491">
        <ele>473.11</ele>
        <time>2012-07-31T15:43:50Z</time>
      </trkpt>
      <trkpt lat="46.40267" lon="12.82474">
        <ele>472.63</ele>
        <time>2012-07-31T15:43:51Z</time>
      </trkpt>
      <trkpt lat="46.40266" lon="12.82457">
        <ele>471.66</ele>
        <time>2012-07-31T15:43:52Z</time>
      </trkpt>
      <trkpt lat="46.40265" lon="12.82439">
        <ele>472.14</ele>
        <time>2012-07-31T15:43:53Z</time>
      </trkpt>
      <trkpt lat="46.40262" lon="12.82422">
        <ele>470.7</ele>
        <time>2012-07-31T15:43:54Z</time>
      </trkpt>
      <trkpt lat="46.40259" lon="12.82404">
        <ele>470.7</ele>
        <time>2012-07-31T15:43:55Z</time>
      </trkpt>
      <trkpt lat="46.40249" lon="12.82338">
        <ele>467.82</ele>
        <time>2012-07-31T15:43:59Z</time>
      </trkpt>
      <trkpt lat="46.40248" lon="12.82321">
        <ele>466.86</ele>
        <time>2012-07-31T15:44:00Z</time>
      </trkpt>
      <trkpt lat="46.40249" lon="12.82304">
        <ele>467.34</ele>
        <time>2012-07-31T15:44:01Z</time>
      </trkpt>
      <trkpt lat="46.40251" lon="12.82287">
        <ele>466.86</ele>
        <time>2012-07-31T15:44:02Z</time>
      </trkpt>
      <trkpt lat="46.40256" lon="12.82271">
        <ele>465.42</ele>
        <time>2012-07-31T15:44:03Z</time>
      </trkpt>
      <trkpt lat="46.40262" lon="12.82255">
        <ele>464.93</ele>
        <time>2012-07-31T15:44:04Z</time>
      </trkpt>
      <trkpt lat="46.40271" lon="12.82239">
        <ele>464.45</ele>
        <time>2012-07-31T15:44:05Z</time>
      </trkpt>
      <trkpt lat="46.40281" lon="12.82224">
        <ele>463.49</ele>
        <time>2012-07-31T15:44:06Z</time>
      </trkpt>
      <trkpt lat="46.40299" lon="12.8219">
        <ele>462.53</ele>
        <time>2012-07-31T15:44:08Z</time>
      </trkpt>
      <trkpt lat="46.40306" lon="12.82171">
        <ele>462.05</ele>
        <time>2012-07-31T15:44:09Z</time>
      </trkpt>
      <trkpt lat="46.40313" lon="12.82151">
        <ele>462.05</ele>
        <time>2012-07-31T15:44:10Z</time>
      </trkpt>
      <trkpt lat="46.40318" lon="12.82129">
        <ele>460.61</ele>
        <time>2012-07-31T15:44:11Z</time>
      </trkpt>
      <trkpt lat="46.40322" lon="12.82108">
        <ele>460.61</ele>
        <time>2012-07-31T15:44:12Z</time>
      </trkpt>
      <trkpt lat="46.40331" lon="12.82068">
        <ele>457.72</ele>
        <time>2012-07-31T15:44:14Z</time>
      </trkpt>
      <trkpt lat="46.40338" lon="12.82051">
        <ele>457.24</ele>
        <time>2012-07-31T15:44:15Z</time>
      </trkpt>
      <trkpt lat="46.40345" lon="12.82035">
        <ele>456.76</ele>
        <time>2012-07-31T15:44:16Z</time>
      </trkpt>
      <trkpt lat="46.40354" lon="12.8202">
        <ele>455.8</ele>
        <time>2012-07-31T15:44:17Z</time>
      </trkpt>
      <trkpt lat="46.40364" lon="12.82006">
        <ele>454.84</ele>
        <time>2012-07-31T15:44:18Z</time>
      </trkpt>
      <trkpt lat="46.40376" lon="12.81995">
        <ele>453.88</ele>
        <time>2012-07-31T15:44:19Z</time>
      </trkpt>
      <trkpt lat="46.40388" lon="12.81986">
        <ele>453.4</ele>
        <time>2012-07-31T15:44:20Z</time>
      </trkpt>
      <trkpt lat="46.40401" lon="12.81978">
        <ele>452.44</ele>
        <time>2012-07-31T15:44:21Z</time>
      </trkpt>
      <trkpt lat="46.40413" lon="12.81972">
        <ele>452.44</ele>
        <time>2012-07-31T15:44:22Z</time>
      </trkpt>
      <trkpt lat="46.40445" lon="12.81955">
        <ele>450.03</ele>
        <time>2012-07-31T15:44:25Z</time>
      </trkpt>
      <trkpt lat="46.40452" lon="12.81945">
        <ele>449.55</ele>
        <time>2012-07-31T15:44:26Z</time>
      </trkpt>
      <trkpt lat="46.40456" lon="12.81934">
        <ele>450.52</ele>
        <time>2012-07-31T15:44:27Z</time>
      </trkpt>
      <trkpt lat="46.4046" lon="12.81921">
        <ele>451</ele>
        <time>2012-07-31T15:44:28Z</time>
      </trkpt>
      <trkpt lat="46.40462" lon="12.81906">
        <ele>451.48</ele>
        <time>2012-07-31T15:44:29Z</time>
      </trkpt>
      <trkpt lat="46.40463" lon="12.81887">
        <ele>451.96</ele>
        <time>2012-07-31T15:44:30Z</time>
      </trkpt>
      <trkpt lat="46.40461" lon="12.81863">
        <ele>451.96</ele>
        <time>2012-07-31T15:44:31Z</time>
      </trkpt>
      <trkpt lat="46.40464" lon="12.81686">
        <ele>455.32</ele>
        <time>2012-07-31T15:44:38Z</time>
      </trkpt>
      <trkpt lat="46.40469" lon="12.81666">
        <ele>455.8</ele>
        <time>2012-07-31T15:44:39Z</time>
      </trkpt>
      <trkpt lat="46.40476" lon="12.8165">
        <ele>456.28</ele>
        <time>2012-07-31T15:44:40Z</time>
      </trkpt>
      <trkpt lat="46.40483" lon="12.81636">
        <ele>456.76</ele>
        <time>2012-07-31T15:44:41Z</time>
      </trkpt>
      <trkpt lat="46.40488" lon="12.8162">
        <ele>457.24</ele>
        <time>2012-07-31T15:44:42Z</time>
      </trkpt>
      <trkpt lat="46.40489" lon="12.816">
        <ele>459.17</ele>
        <time>2012-07-31T15:44:43Z</time>
      </trkpt>
      <trkpt lat="46.40487" lon="12.81578">
        <ele>460.61</ele>
        <time>2012-07-31T15:44:44Z</time>
      </trkpt>
      <trkpt lat="46.40484" lon="12.81555">
        <ele>461.57</ele>
        <time>2012-07-31T15:44:45Z</time>
      </trkpt>
      <trkpt lat="46.40482" lon="12.81514">
        <ele>462.53</ele>
        <time>2012-07-31T15:44:47Z</time>
      </trkpt>
      <trkpt lat="46.40483" lon="12.81493">
        <ele>463.97</ele>
        <time>2012-07-31T15:44:48Z</time>
      </trkpt>
      <trkpt lat="46.40488" lon="12.81473">
        <ele>464.45</ele>
        <time>2012-07-31T15:44:49Z</time>
      </trkpt>
      <trkpt lat="46.40494" lon="12.81453">
        <ele>465.42</ele>
        <time>2012-07-31T15:44:50Z</time>
      </trkpt>
      <trkpt lat="46.405" lon="12.81436">
        <ele>465.9</ele>
        <time>2012-07-31T15:44:51Z</time>
      </trkpt>
      <trkpt lat="46.40503" lon="12.81422">
        <ele>465.9</ele>
        <time>2012-07-31T15:44:52Z</time>
      </trkpt>
      <trkpt lat="46.40504" lon="12.81408">
        <ele>465.9</ele>
        <time>2012-07-31T15:44:53Z</time>
      </trkpt>
      <trkpt lat="46.40502" lon="12.81395">
        <ele>466.38</ele>
        <time>2012-07-31T15:44:54Z</time>
      </trkpt>
      <trkpt lat="46.40497" lon="12.81384">
        <ele>467.34</ele>
        <time>2012-07-31T15:44:55Z</time>
      </trkpt>
      <trkpt lat="46.40488" lon="12.81376">
        <ele>467.82</ele>
        <time>2012-07-31T15:44:56Z</time>
      </trkpt>
      <trkpt lat="46.40478" lon="12.81372">
        <ele>468.78</ele>
        <time>2012-07-31T15:44:57Z</time>
      </trkpt>
      <trkpt lat="46.40468" lon="12.81369">
        <ele>469.26</ele>
        <time>2012-07-31T15:44:58Z</time>
      </trkpt>
      <trkpt lat="46.40458" lon="12.81363">
        <ele>469.26</ele>
        <time>2012-07-31T15:44:59Z</time>
      </trkpt>
      <trkpt lat="46.4045" lon="12.81355">
        <ele>469.26</ele>
        <time>2012-07-31T15:45:00Z</time>
      </trkpt>
      <trkpt lat="46.40445" lon="12.81346">
        <ele>470.22</ele>
        <time>2012-07-31T15:45:01Z</time>
      </trkpt>
      <trkpt lat="46.40444" lon="12.81335">
        <ele>471.18</ele>
        <time>2012-07-31T15:45:02Z</time>
      </trkpt>
      <trkpt lat="46.40444" lon="12.81323">
        <ele>472.63</ele>
        <time>2012-07-31T15:45:03Z</time>
      </trkpt>
      <trkpt lat="46.40446" lon="12.81307">
        <ele>473.59</ele>
        <time>2012-07-31T15:45:04Z</time>
      </trkpt>
      <trkpt lat="46.40448" lon="12.81289">
        <ele>474.55</ele>
        <time>2012-07-31T15:45:05Z</time>
      </trkpt>
      <trkpt lat="46.40452" lon="12.81266">
        <ele>475.99</ele>
        <time>2012-07-31T15:45:06Z</time>
      </trkpt>
      <trkpt lat="46.40462" lon="12.81177">
        <ele>479.84</ele>
        <time>2012-07-31T15:45:10Z</time>
      </trkpt>
      <trkpt lat="46.40466" lon="12.81155">
        <ele>480.8</ele>
        <time>2012-07-31T15:45:11Z</time>
      </trkpt>
      <trkpt lat="46.40472" lon="12.81134">
        <ele>481.76</ele>
        <time>2012-07-31T15:45:12Z</time>
      </trkpt>
      <trkpt lat="46.40478" lon="12.81114">
        <ele>481.76</ele>
        <time>2012-07-31T15:45:13Z</time>
      </trkpt>
      <trkpt lat="46.40482" lon="12.81094">
        <ele>483.68</ele>
        <time>2012-07-31T15:45:14Z</time>
      </trkpt>
      <trkpt lat="46.40483" lon="12.81073">
        <ele>484.64</ele>
        <time>2012-07-31T15:45:15Z</time>
      </trkpt>
      <trkpt lat="46.40482" lon="12.81049">
        <ele>485.6</ele>
        <time>2012-07-31T15:45:16Z</time>
      </trkpt>
      <trkpt lat="46.40479" lon="12.81026">
        <ele>486.56</ele>
        <time>2012-07-31T15:45:17Z</time>
      </trkpt>
      <trkpt lat="46.40476" lon="12.81004">
        <ele>487.05</ele>
        <time>2012-07-31T15:45:18Z</time>
      </trkpt>
      <trkpt lat="46.40475" lon="12.80982">
        <ele>488.49</ele>
        <time>2012-07-31T15:45:19Z</time>
      </trkpt>
      <trkpt lat="46.40476" lon="12.80959">
        <ele>488.97</ele>
        <time>2012-07-31T15:45:20Z</time>
      </trkpt>
      <trkpt lat="46.40481" lon="12.80937">
        <ele>491.37</ele>
        <time>2012-07-31T15:45:21Z</time>
      </trkpt>
      <trkpt lat="46.40486" lon="12.80915">
        <ele>491.85</ele>
        <time>2012-07-31T15:45:22Z</time>
      </trkpt>
      <trkpt lat="46.40512" lon="12.80829">
        <ele>495.22</ele>
        <time>2012-07-31T15:45:26Z</time>
      </trkpt>
      <trkpt lat="46.4052" lon="12.8081">
        <ele>495.7</ele>
        <time>2012-07-31T15:45:27Z</time>
      </trkpt>
      <trkpt lat="46.40529" lon="12.80791">
        <ele>497.14</ele>
        <time>2012-07-31T15:45:28Z</time>
      </trkpt>
      <trkpt lat="46.40536" lon="12.80771">
        <ele>498.58</ele>
        <time>2012-07-31T15:45:29Z</time>
      </trkpt>
      <trkpt lat="46.40548" lon="12.80728">
        <ele>499.54</ele>
        <time>2012-07-31T15:45:31Z</time>
      </trkpt>
      <trkpt lat="46.40551" lon="12.80704">
        <ele>500.98</ele>
        <time>2012-07-31T15:45:32Z</time>
      </trkpt>
      <trkpt lat="46.40551" lon="12.8068">
        <ele>502.91</ele>
        <time>2012-07-31T15:45:33Z</time>
      </trkpt>
      <trkpt lat="46.40551" lon="12.80657">
        <ele>502.91</ele>
        <time>2012-07-31T15:45:34Z</time>
      </trkpt>
      <trkpt lat="46.40549" lon="12.80619">
        <ele>503.39</ele>
        <time>2012-07-31T15:45:36Z</time>
      </trkpt>
      <trkpt lat="46.40544" lon="12.80601">
        <ele>504.35</ele>
        <time>2012-07-31T15:45:37Z</time>
      </trkpt>
      <trkpt lat="46.40537" lon="12.80586">
        <ele>505.31</ele>
        <time>2012-07-31T15:45:38Z</time>
      </trkpt>
      <trkpt lat="46.40528" lon="12.80572">
        <ele>505.31</ele>
        <time>2012-07-31T15:45:39Z</time>
      </trkpt>
      <trkpt lat="46.40521" lon="12.80558">
        <ele>506.27</ele>
        <time>2012-07-31T15:45:40Z</time>
      </trkpt>
      <trkpt lat="46.40516" lon="12.80541">
        <ele>507.23</ele>
        <time>2012-07-31T15:45:41Z</time>
      </trkpt>
      <trkpt lat="46.40514" lon="12.80521">
        <ele>508.19</ele>
        <time>2012-07-31T15:45:42Z</time>
      </trkpt>
      <trkpt lat="46.40514" lon="12.805">
        <ele>509.16</ele>
        <time>2012-07-31T15:45:43Z</time>
      </trkpt>
      <trkpt lat="46.40516" lon="12.80478">
        <ele>511.08</ele>
        <time>2012-07-31T15:45:44Z</time>
      </trkpt>
      <trkpt lat="46.40519" lon="12.80456">
        <ele>512.52</ele>
        <time>2012-07-31T15:45:45Z</time>
      </trkpt>
      <trkpt lat="46.4052" lon="12.80432">
        <ele>513.96</ele>
        <time>2012-07-31T15:45:46Z</time>
      </trkpt>
      <trkpt lat="46.40518" lon="12.80408">
        <ele>514.92</ele>
        <time>2012-07-31T15:45:47Z</time>
      </trkpt>
      <trkpt lat="46.40508" lon="12.80332">
        <ele>518.77</ele>
        <time>2012-07-31T15:45:50Z</time>
      </trkpt>
      <trkpt lat="46.40494" lon="12.80219">
        <ele>520.69</ele>
        <time>2012-07-31T15:45:56Z</time>
      </trkpt>
      <trkpt lat="46.40496" lon="12.80207">
        <ele>520.69</ele>
        <time>2012-07-31T15:45:57Z</time>
      </trkpt>
      <trkpt lat="46.40501" lon="12.80187">
        <ele>521.17</ele>
        <time>2012-07-31T15:45:59Z</time>
      </trkpt>
      <trkpt lat="46.40502" lon="12.80183">
        <ele>521.17</ele>
        <time>2012-07-31T15:46:00Z</time>
      </trkpt>
      <trkpt lat="46.40503" lon="12.80182">
        <ele>522.13</ele>
        <time>2012-07-31T15:46:01Z</time>
      </trkpt>
      <trkpt lat="46.40504" lon="12.80183">
        <ele>522.13</ele>
        <time>2012-07-31T15:46:02Z</time>
      </trkpt>
      <trkpt lat="46.40505" lon="12.80189">
        <ele>523.09</ele>
        <time>2012-07-31T15:46:03Z</time>
      </trkpt>
      <trkpt lat="46.40504" lon="12.80199">
        <ele>523.58</ele>
        <time>2012-07-31T15:46:04Z</time>
      </trkpt>
      <trkpt lat="46.40502" lon="12.80211">
        <ele>524.54</ele>
        <time>2012-07-31T15:46:05Z</time>
      </trkpt>
      <trkpt lat="46.40497" lon="12.80233">
        <ele>525.02</ele>
        <time>2012-07-31T15:46:06Z</time>
      </trkpt>
      <trkpt lat="46.40494" lon="12.80255">
        <ele>525.02</ele>
        <time>2012-07-31T15:46:07Z</time>
      </trkpt>
      <trkpt lat="46.40493" lon="12.80272">
        <ele>525.5</ele>
        <time>2012-07-31T15:46:08Z</time>
      </trkpt>
      <trkpt lat="46.40495" lon="12.80287">
        <ele>524.54</ele>
        <time>2012-07-31T15:46:09Z</time>
      </trkpt>
      <trkpt lat="46.40509" lon="12.80312">
        <ele>524.54</ele>
        <time>2012-07-31T15:46:10Z</time>
      </trkpt>
      <trkpt lat="46.4052" lon="12.80327">
        <ele>525.02</ele>
        <time>2012-07-31T15:46:11Z</time>
      </trkpt>
      <trkpt lat="46.40526" lon="12.80334">
        <ele>525.02</ele>
        <time>2012-07-31T15:46:12Z</time>
      </trkpt>
      <trkpt lat="46.40535" lon="12.80344">
        <ele>525.5</ele>
        <time>2012-07-31T15:46:13Z</time>
      </trkpt>
      <trkpt lat="46.40544" lon="12.80351">
        <ele>525.5</ele>
        <time>2012-07-31T15:46:14Z</time>
      </trkpt>
      <trkpt lat="46.40554" lon="12.80359">
        <ele>524.06</ele>
        <time>2012-07-31T15:46:15Z</time>
      </trkpt>
      <trkpt lat="46.40563" lon="12.80362">
        <ele>522.61</ele>
        <time>2012-07-31T15:46:16Z</time>
      </trkpt>
      <trkpt lat="46.40574" lon="12.80354">
        <ele>522.13</ele>
        <time>2012-07-31T15:46:17Z</time>
      </trkpt>
      <trkpt lat="46.40585" lon="12.80346">
        <ele>522.13</ele>
        <time>2012-07-31T15:46:18Z</time>
      </trkpt>
      <trkpt lat="46.40599" lon="12.80334">
        <ele>522.13</ele>
        <time>2012-07-31T15:46:19Z</time>
      </trkpt>
      <trkpt lat="46.4061" lon="12.80326">
        <ele>522.61</ele>
        <time>2012-07-31T15:46:20Z</time>
      </trkpt>
      <trkpt lat="46.40619" lon="12.80327">
        <ele>522.13</ele>
        <time>2012-07-31T15:46:21Z</time>
      </trkpt>
      <trkpt lat="46.40629" lon="12.80336">
        <ele>521.65</ele>
        <time>2012-07-31T15:46:22Z</time>
      </trkpt>
      <trkpt lat="46.40645" lon="12.80354">
        <ele>521.17</ele>
        <time>2012-07-31T15:46:23Z</time>
      </trkpt>
      <trkpt lat="46.40687" lon="12.80404">
        <ele>518.29</ele>
        <time>2012-07-31T15:46:25Z</time>
      </trkpt>
      <trkpt lat="46.40725" lon="12.80443">
        <ele>516.37</ele>
        <time>2012-07-31T15:46:27Z</time>
      </trkpt>
      <trkpt lat="46.40743" lon="12.80457">
        <ele>515.88</ele>
        <time>2012-07-31T15:46:28Z</time>
      </trkpt>
      <trkpt lat="46.40763" lon="12.80468">
        <ele>516.85</ele>
        <time>2012-07-31T15:46:29Z</time>
      </trkpt>
      <trkpt lat="46.40886" lon="12.80532">
        <ele>517.81</ele>
        <time>2012-07-31T15:46:35Z</time>
      </trkpt>
      <trkpt lat="46.40979" lon="12.80576">
        <ele>521.17</ele>
        <time>2012-07-31T15:46:41Z</time>
      </trkpt>
      <trkpt lat="46.41009" lon="12.80585">
        <ele>522.13</ele>
        <time>2012-07-31T15:46:43Z</time>
      </trkpt>
      <trkpt lat="46.41025" lon="12.80587">
        <ele>522.13</ele>
        <time>2012-07-31T15:46:44Z</time>
      </trkpt>
      <trkpt lat="46.4104" lon="12.80585">
        <ele>523.09</ele>
        <time>2012-07-31T15:46:45Z</time>
      </trkpt>
      <trkpt lat="46.41056" lon="12.8058">
        <ele>524.06</ele>
        <time>2012-07-31T15:46:46Z</time>
      </trkpt>
      <trkpt lat="46.41071" lon="12.80573">
        <ele>524.54</ele>
        <time>2012-07-31T15:46:47Z</time>
      </trkpt>
      <trkpt lat="46.41087" lon="12.80565">
        <ele>525.02</ele>
        <time>2012-07-31T15:46:48Z</time>
      </trkpt>
      <trkpt lat="46.41104" lon="12.80558">
        <ele>525.98</ele>
        <time>2012-07-31T15:46:49Z</time>
      </trkpt>
      <trkpt lat="46.4112" lon="12.80553">
        <ele>525.5</ele>
        <time>2012-07-31T15:46:50Z</time>
      </trkpt>
      <trkpt lat="46.41137" lon="12.8055">
        <ele>525.98</ele>
        <time>2012-07-31T15:46:51Z</time>
      </trkpt>
      <trkpt lat="46.41155" lon="12.8055">
        <ele>526.94</ele>
        <time>2012-07-31T15:46:52Z</time>
      </trkpt>
      <trkpt lat="46.41173" lon="12.8055">
        <ele>527.42</ele>
        <time>2012-07-31T15:46:53Z</time>
      </trkpt>
      <trkpt lat="46.41191" lon="12.8055">
        <ele>527.42</ele>
        <time>2012-07-31T15:46:54Z</time>
      </trkpt>
      <trkpt lat="46.41209" lon="12.80548">
        <ele>527.9</ele>
        <time>2012-07-31T15:46:55Z</time>
      </trkpt>
      <trkpt lat="46.41227" lon="12.80544">
        <ele>528.38</ele>
        <time>2012-07-31T15:46:56Z</time>
      </trkpt>
      <trkpt lat="46.41244" lon="12.80537">
        <ele>528.86</ele>
        <time>2012-07-31T15:46:57Z</time>
      </trkpt>
      <trkpt lat="46.41321" lon="12.80502">
        <ele>531.27</ele>
        <time>2012-07-31T15:47:02Z</time>
      </trkpt>
      <trkpt lat="46.41334" lon="12.80491">
        <ele>530.79</ele>
        <time>2012-07-31T15:47:03Z</time>
      </trkpt>
      <trkpt lat="46.41346" lon="12.80477">
        <ele>531.75</ele>
        <time>2012-07-31T15:47:04Z</time>
      </trkpt>
      <trkpt lat="46.41355" lon="12.8046">
        <ele>531.75</ele>
        <time>2012-07-31T15:47:05Z</time>
      </trkpt>
      <trkpt lat="46.41363" lon="12.80441">
        <ele>532.23</ele>
        <time>2012-07-31T15:47:06Z</time>
      </trkpt>
      <trkpt lat="46.41369" lon="12.8042">
        <ele>533.19</ele>
        <time>2012-07-31T15:47:07Z</time>
      </trkpt>
      <trkpt lat="46.41372" lon="12.80398">
        <ele>533.67</ele>
        <time>2012-07-31T15:47:08Z</time>
      </trkpt>
      <trkpt lat="46.41372" lon="12.80376">
        <ele>534.15</ele>
        <time>2012-07-31T15:47:09Z</time>
      </trkpt>
      <trkpt lat="46.41369" lon="12.80353">
        <ele>535.11</ele>
        <time>2012-07-31T15:47:10Z</time>
      </trkpt>
      <trkpt lat="46.41365" lon="12.8033">
        <ele>536.07</ele>
        <time>2012-07-31T15:47:11Z</time>
      </trkpt>
      <trkpt lat="46.41359" lon="12.80308">
        <ele>536.55</ele>
        <time>2012-07-31T15:47:12Z</time>
      </trkpt>
      <trkpt lat="46.41352" lon="12.80285">
        <ele>537.51</ele>
        <time>2012-07-31T15:47:13Z</time>
      </trkpt>
      <trkpt lat="46.41327" lon="12.80198">
        <ele>538.96</ele>
        <time>2012-07-31T15:47:17Z</time>
      </trkpt>
      <trkpt lat="46.41324" lon="12.80176">
        <ele>538.96</ele>
        <time>2012-07-31T15:47:18Z</time>
      </trkpt>
      <trkpt lat="46.41322" lon="12.80153">
        <ele>539.92</ele>
        <time>2012-07-31T15:47:19Z</time>
      </trkpt>
      <trkpt lat="46.41322" lon="12.8013">
        <ele>540.88</ele>
        <time>2012-07-31T15:47:20Z</time>
      </trkpt>
      <trkpt lat="46.41325" lon="12.80107">
        <ele>541.36</ele>
        <time>2012-07-31T15:47:21Z</time>
      </trkpt>
      <trkpt lat="46.41329" lon="12.80084">
        <ele>542.32</ele>
        <time>2012-07-31T15:47:22Z</time>
      </trkpt>
      <trkpt lat="46.41333" lon="12.80062">
        <ele>542.32</ele>
        <time>2012-07-31T15:47:23Z</time>
      </trkpt>
      <trkpt lat="46.41338" lon="12.80041">
        <ele>542.8</ele>
        <time>2012-07-31T15:47:24Z</time>
      </trkpt>
      <trkpt lat="46.41345" lon="12.80022">
        <ele>543.28</ele>
        <time>2012-07-31T15:47:25Z</time>
      </trkpt>
      <trkpt lat="46.41354" lon="12.80006">
        <ele>543.28</ele>
        <time>2012-07-31T15:47:26Z</time>
      </trkpt>
      <trkpt lat="46.41366" lon="12.79994">
        <ele>543.28</ele>
        <time>2012-07-31T15:47:27Z</time>
      </trkpt>
      <trkpt lat="46.4138" lon="12.79987">
        <ele>543.28</ele>
        <time>2012-07-31T15:47:28Z</time>
      </trkpt>
      <trkpt lat="46.41393" lon="12.79982">
        <ele>543.76</ele>
        <time>2012-07-31T15:47:29Z</time>
      </trkpt>
      <trkpt lat="46.41405" lon="12.79976">
        <ele>543.76</ele>
        <time>2012-07-31T15:47:30Z</time>
      </trkpt>
      <trkpt lat="46.41417" lon="12.79968">
        <ele>543.76</ele>
        <time>2012-07-31T15:47:31Z</time>
      </trkpt>
      <trkpt lat="46.41427" lon="12.79956">
        <ele>544.24</ele>
        <time>2012-07-31T15:47:32Z</time>
      </trkpt>
      <trkpt lat="46.41436" lon="12.79943">
        <ele>544.72</ele>
        <time>2012-07-31T15:47:33Z</time>
      </trkpt>
      <trkpt lat="46.41443" lon="12.79927">
        <ele>544.24</ele>
        <time>2012-07-31T15:47:34Z</time>
      </trkpt>
      <trkpt lat="46.41451" lon="12.79911">
        <ele>545.2</ele>
        <time>2012-07-31T15:47:35Z</time>
      </trkpt>
      <trkpt lat="46.41522" lon="12.79742">
        <ele>546.65</ele>
        <time>2012-07-31T15:47:46Z</time>
      </trkpt>
      <trkpt lat="46.41597" lon="12.79571">
        <ele>547.13</ele>
        <time>2012-07-31T15:47:58Z</time>
      </trkpt>
      <trkpt lat="46.41616" lon="12.79528">
        <ele>548.57</ele>
        <time>2012-07-31T15:48:01Z</time>
      </trkpt>
      <trkpt lat="46.41623" lon="12.79515">
        <ele>549.05</ele>
        <time>2012-07-31T15:48:02Z</time>
      </trkpt>
      <trkpt lat="46.4164" lon="12.7948">
        <ele>550.01</ele>
        <time>2012-07-31T15:48:05Z</time>
      </trkpt>
      <trkpt lat="46.41641" lon="12.79466">
        <ele>550.01</ele>
        <time>2012-07-31T15:48:06Z</time>
      </trkpt>
      <trkpt lat="46.4164" lon="12.79454">
        <ele>550.01</ele>
        <time>2012-07-31T15:48:07Z</time>
      </trkpt>
      <trkpt lat="46.41638" lon="12.7943">
        <ele>549.53</ele>
        <time>2012-07-31T15:48:09Z</time>
      </trkpt>
      <trkpt lat="46.41639" lon="12.79418">
        <ele>550.01</ele>
        <time>2012-07-31T15:48:10Z</time>
      </trkpt>
      <trkpt lat="46.41642" lon="12.79408">
        <ele>550.49</ele>
        <time>2012-07-31T15:48:11Z</time>
      </trkpt>
      <trkpt lat="46.41662" lon="12.79337">
        <ele>551.93</ele>
        <time>2012-07-31T15:48:18Z</time>
      </trkpt>
      <trkpt lat="46.41664" lon="12.79327">
        <ele>551.93</ele>
        <time>2012-07-31T15:48:19Z</time>
      </trkpt>
      <trkpt lat="46.41665" lon="12.79318">
        <ele>552.41</ele>
        <time>2012-07-31T15:48:20Z</time>
      </trkpt>
      <trkpt lat="46.41665" lon="12.79311">
        <ele>552.41</ele>
        <time>2012-07-31T15:48:21Z</time>
      </trkpt>
      <trkpt lat="46.41664" lon="12.79307">
        <ele>552.41</ele>
        <time>2012-07-31T15:48:22Z</time>
      </trkpt>
      <trkpt lat="46.41664" lon="12.79304">
        <ele>552.41</ele>
        <time>2012-07-31T15:48:23Z</time>
      </trkpt>
      <trkpt lat="46.41663" lon="12.79301">
        <ele>552.41</ele>
        <time>2012-07-31T15:48:24Z</time>
      </trkpt>
      <trkpt lat="46.41656" lon="12.79269">
        <ele>552.9</ele>
        <time>2012-07-31T15:48:34Z</time>
      </trkpt>
      <trkpt lat="46.41638" lon="12.79227">
        <ele>554.82</ele>
        <time>2012-07-31T15:48:44Z</time>
      </trkpt>
      <trkpt lat="46.41637" lon="12.79178">
        <ele>554.82</ele>
        <time>2012-07-31T15:48:48Z</time>
      </trkpt>
      <trkpt lat="46.41634" lon="12.79161">
        <ele>554.34</ele>
        <time>2012-07-31T15:48:49Z</time>
      </trkpt>
      <trkpt lat="46.41634" lon="12.79146">
        <ele>553.86</ele>
        <time>2012-07-31T15:48:50Z</time>
      </trkpt>
      <trkpt lat="46.41638" lon="12.79112">
        <ele>555.3</ele>
        <time>2012-07-31T15:48:53Z</time>
      </trkpt>
      <trkpt lat="46.41641" lon="12.79103">
        <ele>554.82</ele>
        <time>2012-07-31T15:48:54Z</time>
      </trkpt>
      <trkpt lat="46.41644" lon="12.79099">
        <ele>555.3</ele>
        <time>2012-07-31T15:48:55Z</time>
      </trkpt>
      <trkpt lat="46.41649" lon="12.79098">
        <ele>555.3</ele>
        <time>2012-07-31T15:48:56Z</time>
      </trkpt>
      <trkpt lat="46.41654" lon="12.79097">
        <ele>555.78</ele>
        <time>2012-07-31T15:48:57Z</time>
      </trkpt>
      <trkpt lat="46.41661" lon="12.79099">
        <ele>556.26</ele>
        <time>2012-07-31T15:48:58Z</time>
      </trkpt>
      <trkpt lat="46.41669" lon="12.791">
        <ele>557.22</ele>
        <time>2012-07-31T15:48:59Z</time>
      </trkpt>
      <trkpt lat="46.41678" lon="12.791">
        <ele>557.7</ele>
        <time>2012-07-31T15:49:00Z</time>
      </trkpt>
      <trkpt lat="46.41687" lon="12.79098">
        <ele>558.18</ele>
        <time>2012-07-31T15:49:01Z</time>
      </trkpt>
      <trkpt lat="46.41696" lon="12.79092">
        <ele>558.18</ele>
        <time>2012-07-31T15:49:02Z</time>
      </trkpt>
      <trkpt lat="46.41704" lon="12.79084">
        <ele>558.66</ele>
        <time>2012-07-31T15:49:03Z</time>
      </trkpt>
      <trkpt lat="46.4171" lon="12.79073">
        <ele>558.66</ele>
        <time>2012-07-31T15:49:04Z</time>
      </trkpt>
      <trkpt lat="46.41714" lon="12.7906">
        <ele>559.62</ele>
        <time>2012-07-31T15:49:05Z</time>
      </trkpt>
      <trkpt lat="46.41723" lon="12.79025">
        <ele>562.03</ele>
        <time>2012-07-31T15:49:07Z</time>
      </trkpt>
      <trkpt lat="46.41743" lon="12.78973">
        <ele>563.47</ele>
        <time>2012-07-31T15:49:10Z</time>
      </trkpt>
      <trkpt lat="46.41756" lon="12.78929">
        <ele>564.91</ele>
        <time>2012-07-31T15:49:13Z</time>
      </trkpt>
      <trkpt lat="46.41757" lon="12.78914">
        <ele>565.39</ele>
        <time>2012-07-31T15:49:14Z</time>
      </trkpt>
      <trkpt lat="46.41756" lon="12.78899">
        <ele>565.39</ele>
        <time>2012-07-31T15:49:15Z</time>
      </trkpt>
      <trkpt lat="46.41752" lon="12.78884">
        <ele>566.83</ele>
        <time>2012-07-31T15:49:16Z</time>
      </trkpt>
      <trkpt lat="46.41746" lon="12.7887">
        <ele>567.8</ele>
        <time>2012-07-31T15:49:17Z</time>
      </trkpt>
      <trkpt lat="46.41737" lon="12.78857">
        <ele>568.76</ele>
        <time>2012-07-31T15:49:18Z</time>
      </trkpt>
      <trkpt lat="46.41727" lon="12.78843">
        <ele>569.72</ele>
        <time>2012-07-31T15:49:19Z</time>
      </trkpt>
      <trkpt lat="46.41717" lon="12.7883">
        <ele>570.68</ele>
        <time>2012-07-31T15:49:20Z</time>
      </trkpt>
      <trkpt lat="46.41705" lon="12.78821">
        <ele>571.64</ele>
        <time>2012-07-31T15:49:21Z</time>
      </trkpt>
      <trkpt lat="46.41693" lon="12.78814">
        <ele>572.6</ele>
        <time>2012-07-31T15:49:22Z</time>
      </trkpt>
      <trkpt lat="46.4168" lon="12.78808">
        <ele>573.08</ele>
        <time>2012-07-31T15:49:23Z</time>
      </trkpt>
      <trkpt lat="46.41666" lon="12.78804">
        <ele>574.04</ele>
        <time>2012-07-31T15:49:24Z</time>
      </trkpt>
      <trkpt lat="46.41623" lon="12.7879">
        <ele>576.93</ele>
        <time>2012-07-31T15:49:27Z</time>
      </trkpt>
      <trkpt lat="46.41598" lon="12.78783">
        <ele>577.41</ele>
        <time>2012-07-31T15:49:29Z</time>
      </trkpt>
      <trkpt lat="46.41587" lon="12.78783">
        <ele>578.37</ele>
        <time>2012-07-31T15:49:30Z</time>
      </trkpt>
      <trkpt lat="46.41576" lon="12.78786">
        <ele>578.85</ele>
        <time>2012-07-31T15:49:31Z</time>
      </trkpt>
      <trkpt lat="46.41566" lon="12.78796">
        <ele>579.33</ele>
        <time>2012-07-31T15:49:32Z</time>
      </trkpt>
      <trkpt lat="46.41557" lon="12.7881">
        <ele>580.29</ele>
        <time>2012-07-31T15:49:33Z</time>
      </trkpt>
      <trkpt lat="46.41551" lon="12.78827">
        <ele>580.29</ele>
        <time>2012-07-31T15:49:34Z</time>
      </trkpt>
      <trkpt lat="46.41545" lon="12.78845">
        <ele>580.29</ele>
        <time>2012-07-31T15:49:35Z</time>
      </trkpt>
      <trkpt lat="46.41536" lon="12.78861">
        <ele>581.73</ele>
        <time>2012-07-31T15:49:36Z</time>
      </trkpt>
      <trkpt lat="46.41525" lon="12.78877">
        <ele>582.7</ele>
        <time>2012-07-31T15:49:37Z</time>
      </trkpt>
      <trkpt lat="46.41513" lon="12.78891">
        <ele>583.66</ele>
        <time>2012-07-31T15:49:38Z</time>
      </trkpt>
      <trkpt lat="46.41502" lon="12.78906">
        <ele>583.66</ele>
        <time>2012-07-31T15:49:39Z</time>
      </trkpt>
      <trkpt lat="46.41483" lon="12.78928">
        <ele>584.62</ele>
        <time>2012-07-31T15:49:41Z</time>
      </trkpt>
      <trkpt lat="46.41474" lon="12.78934">
        <ele>584.62</ele>
        <time>2012-07-31T15:49:42Z</time>
      </trkpt>
      <trkpt lat="46.41465" lon="12.78935">
        <ele>585.58</ele>
        <time>2012-07-31T15:49:43Z</time>
      </trkpt>
      <trkpt lat="46.41456" lon="12.78929">
        <ele>586.06</ele>
        <time>2012-07-31T15:49:44Z</time>
      </trkpt>
      <trkpt lat="46.41448" lon="12.78917">
        <ele>587.02</ele>
        <time>2012-07-31T15:49:45Z</time>
      </trkpt>
      <trkpt lat="46.41441" lon="12.789">
        <ele>588.95</ele>
        <time>2012-07-31T15:49:46Z</time>
      </trkpt>
      <trkpt lat="46.41434" lon="12.78883">
        <ele>589.43</ele>
        <time>2012-07-31T15:49:47Z</time>
      </trkpt>
      <trkpt lat="46.41428" lon="12.78865">
        <ele>590.39</ele>
        <time>2012-07-31T15:49:48Z</time>
      </trkpt>
      <trkpt lat="46.41424" lon="12.78847">
        <ele>591.35</ele>
        <time>2012-07-31T15:49:49Z</time>
      </trkpt>
      <trkpt lat="46.41422" lon="12.78828">
        <ele>592.31</ele>
        <time>2012-07-31T15:49:50Z</time>
      </trkpt>
      <trkpt lat="46.41422" lon="12.78808">
        <ele>592.79</ele>
        <time>2012-07-31T15:49:51Z</time>
      </trkpt>
      <trkpt lat="46.41423" lon="12.78786">
        <ele>594.23</ele>
        <time>2012-07-31T15:49:52Z</time>
      </trkpt>
      <trkpt lat="46.41425" lon="12.78765">
        <ele>595.19</ele>
        <time>2012-07-31T15:49:53Z</time>
      </trkpt>
      <trkpt lat="46.41426" lon="12.78745">
        <ele>596.15</ele>
        <time>2012-07-31T15:49:54Z</time>
      </trkpt>
      <trkpt lat="46.41425" lon="12.78726">
        <ele>596.64</ele>
        <time>2012-07-31T15:49:55Z</time>
      </trkpt>
      <trkpt lat="46.41421" lon="12.78709">
        <ele>597.12</ele>
        <time>2012-07-31T15:49:56Z</time>
      </trkpt>
      <trkpt lat="46.41414" lon="12.78695">
        <ele>598.08</ele>
        <time>2012-07-31T15:49:57Z</time>
      </trkpt>
      <trkpt lat="46.41404" lon="12.78685">
        <ele>598.56</ele>
        <time>2012-07-31T15:49:58Z</time>
      </trkpt>
      <trkpt lat="46.41392" lon="12.78678">
        <ele>599.52</ele>
        <time>2012-07-31T15:49:59Z</time>
      </trkpt>
      <trkpt lat="46.41379" lon="12.78674">
        <ele>600.96</ele>
        <time>2012-07-31T15:50:00Z</time>
      </trkpt>
      <trkpt lat="46.41365" lon="12.7867">
        <ele>601.44</ele>
        <time>2012-07-31T15:50:01Z</time>
      </trkpt>
      <trkpt lat="46.41353" lon="12.78662">
        <ele>601.92</ele>
        <time>2012-07-31T15:50:02Z</time>
      </trkpt>
      <trkpt lat="46.41341" lon="12.78651">
        <ele>603.36</ele>
        <time>2012-07-31T15:50:03Z</time>
      </trkpt>
      <trkpt lat="46.4133" lon="12.78639">
        <ele>604.33</ele>
        <time>2012-07-31T15:50:04Z</time>
      </trkpt>
      <trkpt lat="46.41319" lon="12.78624">
        <ele>605.77</ele>
        <time>2012-07-31T15:50:05Z</time>
      </trkpt>
      <trkpt lat="46.41311" lon="12.78607">
        <ele>606.73</ele>
        <time>2012-07-31T15:50:06Z</time>
      </trkpt>
      <trkpt lat="46.41304" lon="12.78588">
        <ele>607.69</ele>
        <time>2012-07-31T15:50:07Z</time>
      </trkpt>
      <trkpt lat="46.41297" lon="12.78569">
        <ele>608.17</ele>
        <time>2012-07-31T15:50:08Z</time>
      </trkpt>
      <trkpt lat="46.41289" lon="12.78553">
        <ele>608.65</ele>
        <time>2012-07-31T15:50:09Z</time>
      </trkpt>
      <trkpt lat="46.4128" lon="12.7854">
        <ele>609.13</ele>
        <time>2012-07-31T15:50:10Z</time>
      </trkpt>
      <trkpt lat="46.41268" lon="12.78532">
        <ele>610.09</ele>
        <time>2012-07-31T15:50:11Z</time>
      </trkpt>
      <trkpt lat="46.41255" lon="12.78528">
        <ele>610.57</ele>
        <time>2012-07-31T15:50:12Z</time>
      </trkpt>
      <trkpt lat="46.41245" lon="12.78522">
        <ele>610.09</ele>
        <time>2012-07-31T15:50:13Z</time>
      </trkpt>
      <trkpt lat="46.41237" lon="12.78512">
        <ele>610.09</ele>
        <time>2012-07-31T15:50:14Z</time>
      </trkpt>
      <trkpt lat="46.41231" lon="12.78498">
        <ele>610.57</ele>
        <time>2012-07-31T15:50:15Z</time>
      </trkpt>
      <trkpt lat="46.41228" lon="12.78481">
        <ele>611.54</ele>
        <time>2012-07-31T15:50:16Z</time>
      </trkpt>
      <trkpt lat="46.41227" lon="12.78461">
        <ele>613.46</ele>
        <time>2012-07-31T15:50:17Z</time>
      </trkpt>
      <trkpt lat="46.41225" lon="12.78422">
        <ele>614.9</ele>
        <time>2012-07-31T15:50:19Z</time>
      </trkpt>
      <trkpt lat="46.41227" lon="12.78403">
        <ele>616.34</ele>
        <time>2012-07-31T15:50:20Z</time>
      </trkpt>
      <trkpt lat="46.41231" lon="12.78383">
        <ele>616.82</ele>
        <time>2012-07-31T15:50:21Z</time>
      </trkpt>
      <trkpt lat="46.41248" lon="12.78319">
        <ele>620.19</ele>
        <time>2012-07-31T15:50:24Z</time>
      </trkpt>
      <trkpt lat="46.41257" lon="12.78272">
        <ele>623.07</ele>
        <time>2012-07-31T15:50:26Z</time>
      </trkpt>
      <trkpt lat="46.41259" lon="12.78247">
        <ele>624.03</ele>
        <time>2012-07-31T15:50:27Z</time>
      </trkpt>
      <trkpt lat="46.41266" lon="12.78177">
        <ele>626.44</ele>
        <time>2012-07-31T15:50:30Z</time>
      </trkpt>
      <trkpt lat="46.41272" lon="12.78157">
        <ele>627.88</ele>
        <time>2012-07-31T15:50:31Z</time>
      </trkpt>
      <trkpt lat="46.4128" lon="12.78138">
        <ele>628.84</ele>
        <time>2012-07-31T15:50:32Z</time>
      </trkpt>
      <trkpt lat="46.41292" lon="12.78121">
        <ele>629.8</ele>
        <time>2012-07-31T15:50:33Z</time>
      </trkpt>
      <trkpt lat="46.41305" lon="12.78108">
        <ele>630.76</ele>
        <time>2012-07-31T15:50:34Z</time>
      </trkpt>
      <trkpt lat="46.41321" lon="12.78098">
        <ele>632.2</ele>
        <time>2012-07-31T15:50:35Z</time>
      </trkpt>
      <trkpt lat="46.41337" lon="12.78091">
        <ele>634.13</ele>
        <time>2012-07-31T15:50:36Z</time>
      </trkpt>
      <trkpt lat="46.41354" lon="12.78085">
        <ele>635.57</ele>
        <time>2012-07-31T15:50:37Z</time>
      </trkpt>
      <trkpt lat="46.41371" lon="12.78076">
        <ele>637.01</ele>
        <time>2012-07-31T15:50:38Z</time>
      </trkpt>
      <trkpt lat="46.41387" lon="12.78063">
        <ele>638.45</ele>
        <time>2012-07-31T15:50:39Z</time>
      </trkpt>
      <trkpt lat="46.41431" lon="12.78016">
        <ele>640.86</ele>
        <time>2012-07-31T15:50:42Z</time>
      </trkpt>
      <trkpt lat="46.41477" lon="12.77962">
        <ele>639.41</ele>
        <time>2012-07-31T15:50:46Z</time>
      </trkpt>
      <trkpt lat="46.41484" lon="12.77948">
        <ele>639.41</ele>
        <time>2012-07-31T15:50:47Z</time>
      </trkpt>
      <trkpt lat="46.41489" lon="12.77931">
        <ele>639.41</ele>
        <time>2012-07-31T15:50:48Z</time>
      </trkpt>
      <trkpt lat="46.41489" lon="12.77911">
        <ele>640.86</ele>
        <time>2012-07-31T15:50:49Z</time>
      </trkpt>
      <trkpt lat="46.41486" lon="12.77891">
        <ele>642.78</ele>
        <time>2012-07-31T15:50:50Z</time>
      </trkpt>
      <trkpt lat="46.41481" lon="12.7787">
        <ele>644.7</ele>
        <time>2012-07-31T15:50:51Z</time>
      </trkpt>
      <trkpt lat="46.41475" lon="12.77848">
        <ele>645.66</ele>
        <time>2012-07-31T15:50:52Z</time>
      </trkpt>
      <trkpt lat="46.41461" lon="12.77799">
        <ele>649.51</ele>
        <time>2012-07-31T15:50:54Z</time>
      </trkpt>
      <trkpt lat="46.41442" lon="12.7772">
        <ele>653.35</ele>
        <time>2012-07-31T15:50:57Z</time>
      </trkpt>
      <trkpt lat="46.4143" lon="12.77667">
        <ele>655.28</ele>
        <time>2012-07-31T15:50:59Z</time>
      </trkpt>
      <trkpt lat="46.41422" lon="12.77645">
        <ele>655.76</ele>
        <time>2012-07-31T15:51:00Z</time>
      </trkpt>
      <trkpt lat="46.41413" lon="12.77626">
        <ele>656.24</ele>
        <time>2012-07-31T15:51:01Z</time>
      </trkpt>
      <trkpt lat="46.41405" lon="12.7761">
        <ele>655.76</ele>
        <time>2012-07-31T15:51:02Z</time>
      </trkpt>
      <trkpt lat="46.41399" lon="12.77592">
        <ele>657.2</ele>
        <time>2012-07-31T15:51:03Z</time>
      </trkpt>
      <trkpt lat="46.41393" lon="12.77572">
        <ele>658.64</ele>
        <time>2012-07-31T15:51:04Z</time>
      </trkpt>
      <trkpt lat="46.4139" lon="12.77549">
        <ele>659.6</ele>
        <time>2012-07-31T15:51:05Z</time>
      </trkpt>
      <trkpt lat="46.41388" lon="12.77526">
        <ele>661.04</ele>
        <time>2012-07-31T15:51:06Z</time>
      </trkpt>
      <trkpt lat="46.41383" lon="12.77476">
        <ele>664.41</ele>
        <time>2012-07-31T15:51:08Z</time>
      </trkpt>
      <trkpt lat="46.41382" lon="12.77425">
        <ele>666.81</ele>
        <time>2012-07-31T15:51:10Z</time>
      </trkpt>
      <trkpt lat="46.41383" lon="12.77399">
        <ele>668.73</ele>
        <time>2012-07-31T15:51:11Z</time>
      </trkpt>
      <trkpt lat="46.41387" lon="12.77372">
        <ele>669.7</ele>
        <time>2012-07-31T15:51:12Z</time>
      </trkpt>
      <trkpt lat="46.41395" lon="12.77291">
        <ele>673.06</ele>
        <time>2012-07-31T15:51:15Z</time>
      </trkpt>
      <trkpt lat="46.41396" lon="12.77264">
        <ele>673.06</ele>
        <time>2012-07-31T15:51:16Z</time>
      </trkpt>
      <trkpt lat="46.41396" lon="12.77186">
        <ele>672.58</ele>
        <time>2012-07-31T15:51:19Z</time>
      </trkpt>
      <trkpt lat="46.41392" lon="12.7716">
        <ele>674.02</ele>
        <time>2012-07-31T15:51:20Z</time>
      </trkpt>
      <trkpt lat="46.41385" lon="12.77136">
        <ele>675.46</ele>
        <time>2012-07-31T15:51:21Z</time>
      </trkpt>
      <trkpt lat="46.41378" lon="12.77112">
        <ele>675.94</ele>
        <time>2012-07-31T15:51:22Z</time>
      </trkpt>
      <trkpt lat="46.41364" lon="12.77049">
        <ele>677.87</ele>
        <time>2012-07-31T15:51:25Z</time>
      </trkpt>
      <trkpt lat="46.41364" lon="12.77028">
        <ele>678.83</ele>
        <time>2012-07-31T15:51:26Z</time>
      </trkpt>
      <trkpt lat="46.41367" lon="12.77006">
        <ele>679.79</ele>
        <time>2012-07-31T15:51:27Z</time>
      </trkpt>
      <trkpt lat="46.41371" lon="12.76983">
        <ele>681.71</ele>
        <time>2012-07-31T15:51:28Z</time>
      </trkpt>
      <trkpt lat="46.41378" lon="12.7696">
        <ele>683.63</ele>
        <time>2012-07-31T15:51:29Z</time>
      </trkpt>
      <trkpt lat="46.41386" lon="12.76938">
        <ele>685.08</ele>
        <time>2012-07-31T15:51:30Z</time>
      </trkpt>
      <trkpt lat="46.41398" lon="12.76893">
        <ele>686.04</ele>
        <time>2012-07-31T15:51:32Z</time>
      </trkpt>
      <trkpt lat="46.41401" lon="12.76871">
        <ele>687</ele>
        <time>2012-07-31T15:51:33Z</time>
      </trkpt>
      <trkpt lat="46.41401" lon="12.76848">
        <ele>687.48</ele>
        <time>2012-07-31T15:51:34Z</time>
      </trkpt>
      <trkpt lat="46.41397" lon="12.76826">
        <ele>688.92</ele>
        <time>2012-07-31T15:51:35Z</time>
      </trkpt>
      <trkpt lat="46.41389" lon="12.76805">
        <ele>690.36</ele>
        <time>2012-07-31T15:51:36Z</time>
      </trkpt>
      <trkpt lat="46.41378" lon="12.76786">
        <ele>691.81</ele>
        <time>2012-07-31T15:51:37Z</time>
      </trkpt>
      <trkpt lat="46.41366" lon="12.76768">
        <ele>692.77</ele>
        <time>2012-07-31T15:51:38Z</time>
      </trkpt>
      <trkpt lat="46.41354" lon="12.76752">
        <ele>692.77</ele>
        <time>2012-07-31T15:51:39Z</time>
      </trkpt>
      <trkpt lat="46.41346" lon="12.76737">
        <ele>693.25</ele>
        <time>2012-07-31T15:51:40Z</time>
      </trkpt>
      <trkpt lat="46.4134" lon="12.7672">
        <ele>693.25</ele>
        <time>2012-07-31T15:51:41Z</time>
      </trkpt>
      <trkpt lat="46.41338" lon="12.76703">
        <ele>693.73</ele>
        <time>2012-07-31T15:51:42Z</time>
      </trkpt>
      <trkpt lat="46.4134" lon="12.76687">
        <ele>694.69</ele>
        <time>2012-07-31T15:51:43Z</time>
      </trkpt>
      <trkpt lat="46.41348" lon="12.76672">
        <ele>694.69</ele>
        <time>2012-07-31T15:51:44Z</time>
      </trkpt>
      <trkpt lat="46.41358" lon="12.76661">
        <ele>695.65</ele>
        <time>2012-07-31T15:51:45Z</time>
      </trkpt>
      <trkpt lat="46.41369" lon="12.76655">
        <ele>696.61</ele>
        <time>2012-07-31T15:51:46Z</time>
      </trkpt>
      <trkpt lat="46.41382" lon="12.76657">
        <ele>698.05</ele>
        <time>2012-07-31T15:51:47Z</time>
      </trkpt>
      <trkpt lat="46.41398" lon="12.76665">
        <ele>699.5</ele>
        <time>2012-07-31T15:51:48Z</time>
      </trkpt>
      <trkpt lat="46.41414" lon="12.76675">
        <ele>700.94</ele>
        <time>2012-07-31T15:51:49Z</time>
      </trkpt>
      <trkpt lat="46.41431" lon="12.76687">
        <ele>701.9</ele>
        <time>2012-07-31T15:51:50Z</time>
      </trkpt>
      <trkpt lat="46.4149" lon="12.76722">
        <ele>703.82</ele>
        <time>2012-07-31T15:51:54Z</time>
      </trkpt>
      <trkpt lat="46.41503" lon="12.76722">
        <ele>704.3</ele>
        <time>2012-07-31T15:51:55Z</time>
      </trkpt>
      <trkpt lat="46.41515" lon="12.76715">
        <ele>704.78</ele>
        <time>2012-07-31T15:51:56Z</time>
      </trkpt>
      <trkpt lat="46.41524" lon="12.76702">
        <ele>706.23</ele>
        <time>2012-07-31T15:51:57Z</time>
      </trkpt>
      <trkpt lat="46.41531" lon="12.76686">
        <ele>706.71</ele>
        <time>2012-07-31T15:51:58Z</time>
      </trkpt>
      <trkpt lat="46.41532" lon="12.76668">
        <ele>707.19</ele>
        <time>2012-07-31T15:51:59Z</time>
      </trkpt>
      <trkpt lat="46.41528" lon="12.7665">
        <ele>708.15</ele>
        <time>2012-07-31T15:52:00Z</time>
      </trkpt>
      <trkpt lat="46.41519" lon="12.76633">
        <ele>709.11</ele>
        <time>2012-07-31T15:52:01Z</time>
      </trkpt>
      <trkpt lat="46.41507" lon="12.76617">
        <ele>711.03</ele>
        <time>2012-07-31T15:52:02Z</time>
      </trkpt>
      <trkpt lat="46.41467" lon="12.76566">
        <ele>715.84</ele>
        <time>2012-07-31T15:52:05Z</time>
      </trkpt>
      <trkpt lat="46.41422" lon="12.76512">
        <ele>719.2</ele>
        <time>2012-07-31T15:52:08Z</time>
      </trkpt>
      <trkpt lat="46.41383" lon="12.76456">
        <ele>722.09</ele>
        <time>2012-07-31T15:52:11Z</time>
      </trkpt>
      <trkpt lat="46.41373" lon="12.76434">
        <ele>723.05</ele>
        <time>2012-07-31T15:52:12Z</time>
      </trkpt>
      <trkpt lat="46.41363" lon="12.76413">
        <ele>724.01</ele>
        <time>2012-07-31T15:52:13Z</time>
      </trkpt>
      <trkpt lat="46.41342" lon="12.76374">
        <ele>725.45</ele>
        <time>2012-07-31T15:52:15Z</time>
      </trkpt>
      <trkpt lat="46.4133" lon="12.7636">
        <ele>726.89</ele>
        <time>2012-07-31T15:52:16Z</time>
      </trkpt>
      <trkpt lat="46.41317" lon="12.7635">
        <ele>727.86</ele>
        <time>2012-07-31T15:52:17Z</time>
      </trkpt>
      <trkpt lat="46.41302" lon="12.76344">
        <ele>728.82</ele>
        <time>2012-07-31T15:52:18Z</time>
      </trkpt>
      <trkpt lat="46.41287" lon="12.76344">
        <ele>728.34</ele>
        <time>2012-07-31T15:52:19Z</time>
      </trkpt>
      <trkpt lat="46.41272" lon="12.7635">
        <ele>729.78</ele>
        <time>2012-07-31T15:52:20Z</time>
      </trkpt>
      <trkpt lat="46.41257" lon="12.7636">
        <ele>730.26</ele>
        <time>2012-07-31T15:52:21Z</time>
      </trkpt>
      <trkpt lat="46.41242" lon="12.76373">
        <ele>731.7</ele>
        <time>2012-07-31T15:52:22Z</time>
      </trkpt>
      <trkpt lat="46.41229" lon="12.76389">
        <ele>733.62</ele>
        <time>2012-07-31T15:52:23Z</time>
      </trkpt>
      <trkpt lat="46.4123" lon="12.76418">
        <ele>735.07</ele>
        <time>2012-07-31T15:52:24Z</time>
      </trkpt>
      <trkpt lat="46.4123" lon="12.76442">
        <ele>735.55</ele>
        <time>2012-07-31T15:52:25Z</time>
      </trkpt>
      <trkpt lat="46.41232" lon="12.76467">
        <ele>736.03</ele>
        <time>2012-07-31T15:52:26Z</time>
      </trkpt>
      <trkpt lat="46.41232" lon="12.76489">
        <ele>736.99</ele>
        <time>2012-07-31T15:52:27Z</time>
      </trkpt>
      <trkpt lat="46.41228" lon="12.76509">
        <ele>737.95</ele>
        <time>2012-07-31T15:52:28Z</time>
      </trkpt>
      <trkpt lat="46.4122" lon="12.76528">
        <ele>738.43</ele>
        <time>2012-07-31T15:52:29Z</time>
      </trkpt>
      <trkpt lat="46.41208" lon="12.76543">
        <ele>739.87</ele>
        <time>2012-07-31T15:52:30Z</time>
      </trkpt>
      <trkpt lat="46.41194" lon="12.76556">
        <ele>740.83</ele>
        <time>2012-07-31T15:52:31Z</time>
      </trkpt>
      <trkpt lat="46.41186" lon="12.76562">
        <ele>742.28</ele>
        <time>2012-07-31T15:52:32Z</time>
      </trkpt>
      <trkpt lat="46.41164" lon="12.76568">
        <ele>743.24</ele>
        <time>2012-07-31T15:52:33Z</time>
      </trkpt>
      <trkpt lat="46.41148" lon="12.76568">
        <ele>744.2</ele>
        <time>2012-07-31T15:52:34Z</time>
      </trkpt>
      <trkpt lat="46.41133" lon="12.76562">
        <ele>746.12</ele>
        <time>2012-07-31T15:52:35Z</time>
      </trkpt>
      <trkpt lat="46.41117" lon="12.76552">
        <ele>747.56</ele>
        <time>2012-07-31T15:52:36Z</time>
      </trkpt>
      <trkpt lat="46.41103" lon="12.76537">
        <ele>749.97</ele>
        <time>2012-07-31T15:52:37Z</time>
      </trkpt>
      <trkpt lat="46.41068" lon="12.76487">
        <ele>753.33</ele>
        <time>2012-07-31T15:52:40Z</time>
      </trkpt>
      <trkpt lat="46.41042" lon="12.76453">
        <ele>756.69</ele>
        <time>2012-07-31T15:52:42Z</time>
      </trkpt>
      <trkpt lat="46.41027" lon="12.76436">
        <ele>756.69</ele>
        <time>2012-07-31T15:52:43Z</time>
      </trkpt>
      <trkpt lat="46.40991" lon="12.76387">
        <ele>759.1</ele>
        <time>2012-07-31T15:52:46Z</time>
      </trkpt>
      <trkpt lat="46.4096" lon="12.76311">
        <ele>761.98</ele>
        <time>2012-07-31T15:52:50Z</time>
      </trkpt>
      <trkpt lat="46.40956" lon="12.76291">
        <ele>762.94</ele>
        <time>2012-07-31T15:52:51Z</time>
      </trkpt>
      <trkpt lat="46.40955" lon="12.76271">
        <ele>763.9</ele>
        <time>2012-07-31T15:52:52Z</time>
      </trkpt>
      <trkpt lat="46.40956" lon="12.76252">
        <ele>764.39</ele>
        <time>2012-07-31T15:52:53Z</time>
      </trkpt>
      <trkpt lat="46.4096" lon="12.76234">
        <ele>764.87</ele>
        <time>2012-07-31T15:52:54Z</time>
      </trkpt>
      <trkpt lat="46.40962" lon="12.76217">
        <ele>764.87</ele>
        <time>2012-07-31T15:52:55Z</time>
      </trkpt>
      <trkpt lat="46.40964" lon="12.76199">
        <ele>765.83</ele>
        <time>2012-07-31T15:52:56Z</time>
      </trkpt>
      <trkpt lat="46.40964" lon="12.76183">
        <ele>766.31</ele>
        <time>2012-07-31T15:52:57Z</time>
      </trkpt>
      <trkpt lat="46.40963" lon="12.76171">
        <ele>765.35</ele>
        <time>2012-07-31T15:52:58Z</time>
      </trkpt>
      <trkpt lat="46.40954" lon="12.76137">
        <ele>765.83</ele>
        <time>2012-07-31T15:53:04Z</time>
      </trkpt>
      <trkpt lat="46.40951" lon="12.76133">
        <ele>765.35</ele>
        <time>2012-07-31T15:53:21Z</time>
      </trkpt>
      <trkpt lat="46.40951" lon="12.76131">
        <ele>765.83</ele>
        <time>2012-07-31T15:53:30Z</time>
      </trkpt>
      <trkpt lat="46.40949" lon="12.76128">
        <ele>765.83</ele>
        <time>2012-07-31T15:53:31Z</time>
      </trkpt>
      <trkpt lat="46.40919" lon="12.76078">
        <ele>768.71</ele>
        <time>2012-07-31T15:53:37Z</time>
      </trkpt>
      <trkpt lat="46.40871" lon="12.75999">
        <ele>773.04</ele>
        <time>2012-07-31T15:53:44Z</time>
      </trkpt>
      <trkpt lat="46.40841" lon="12.75954">
        <ele>775.44</ele>
        <time>2012-07-31T15:53:47Z</time>
      </trkpt>
      <trkpt lat="46.40829" lon="12.75941">
        <ele>775.44</ele>
        <time>2012-07-31T15:53:48Z</time>
      </trkpt>
      <trkpt lat="46.40814" lon="12.75932">
        <ele>776.4</ele>
        <time>2012-07-31T15:53:49Z</time>
      </trkpt>
      <trkpt lat="46.40799" lon="12.75927">
        <ele>775.92</ele>
        <time>2012-07-31T15:53:50Z</time>
      </trkpt>
      <trkpt lat="46.40782" lon="12.75922">
        <ele>777.84</ele>
        <time>2012-07-31T15:53:51Z</time>
      </trkpt>
      <trkpt lat="46.40766" lon="12.75919">
        <ele>776.88</ele>
        <time>2012-07-31T15:53:52Z</time>
      </trkpt>
      <trkpt lat="46.40706" lon="12.75904">
        <ele>780.25</ele>
        <time>2012-07-31T15:53:56Z</time>
      </trkpt>
      <trkpt lat="46.40691" lon="12.75892">
        <ele>780.25</ele>
        <time>2012-07-31T15:53:57Z</time>
      </trkpt>
      <trkpt lat="46.40678" lon="12.75875">
        <ele>780.73</ele>
        <time>2012-07-31T15:53:58Z</time>
      </trkpt>
      <trkpt lat="46.40667" lon="12.75856">
        <ele>781.69</ele>
        <time>2012-07-31T15:53:59Z</time>
      </trkpt>
      <trkpt lat="46.40631" lon="12.75767">
        <ele>785.05</ele>
        <time>2012-07-31T15:54:03Z</time>
      </trkpt>
      <trkpt lat="46.40612" lon="12.75722">
        <ele>786.98</ele>
        <time>2012-07-31T15:54:05Z</time>
      </trkpt>
      <trkpt lat="46.40564" lon="12.75628">
        <ele>790.82</ele>
        <time>2012-07-31T15:54:09Z</time>
      </trkpt>
      <trkpt lat="46.4052" lon="12.75555">
        <ele>793.71</ele>
        <time>2012-07-31T15:54:12Z</time>
      </trkpt>
      <trkpt lat="46.40462" lon="12.75477">
        <ele>792.26</ele>
        <time>2012-07-31T15:54:16Z</time>
      </trkpt>
      <trkpt lat="46.40449" lon="12.75462">
        <ele>792.74</ele>
        <time>2012-07-31T15:54:17Z</time>
      </trkpt>
      <trkpt lat="46.40435" lon="12.75449">
        <ele>793.71</ele>
        <time>2012-07-31T15:54:18Z</time>
      </trkpt>
      <trkpt lat="46.4042" lon="12.7544">
        <ele>795.15</ele>
        <time>2012-07-31T15:54:19Z</time>
      </trkpt>
      <trkpt lat="46.40402" lon="12.75434">
        <ele>796.11</ele>
        <time>2012-07-31T15:54:20Z</time>
      </trkpt>
      <trkpt lat="46.40382" lon="12.75428">
        <ele>797.55</ele>
        <time>2012-07-31T15:54:21Z</time>
      </trkpt>
      <trkpt lat="46.40342" lon="12.75416">
        <ele>801.4</ele>
        <time>2012-07-31T15:54:23Z</time>
      </trkpt>
      <trkpt lat="46.40279" lon="12.75402">
        <ele>804.76</ele>
        <time>2012-07-31T15:54:26Z</time>
      </trkpt>
      <trkpt lat="46.40236" lon="12.75395">
        <ele>805.72</ele>
        <time>2012-07-31T15:54:28Z</time>
      </trkpt>
      <trkpt lat="46.40142" lon="12.75372">
        <ele>805.72</ele>
        <time>2012-07-31T15:54:33Z</time>
      </trkpt>
      <trkpt lat="46.40123" lon="12.75361">
        <ele>806.68</ele>
        <time>2012-07-31T15:54:34Z</time>
      </trkpt>
      <trkpt lat="46.40105" lon="12.75346">
        <ele>807.16</ele>
        <time>2012-07-31T15:54:35Z</time>
      </trkpt>
      <trkpt lat="46.4005" lon="12.75293">
        <ele>810.53</ele>
        <time>2012-07-31T15:54:38Z</time>
      </trkpt>
      <trkpt lat="46.40032" lon="12.75276">
        <ele>810.05</ele>
        <time>2012-07-31T15:54:39Z</time>
      </trkpt>
      <trkpt lat="46.4" lon="12.75243">
        <ele>809.09</ele>
        <time>2012-07-31T15:54:41Z</time>
      </trkpt>
      <trkpt lat="46.39986" lon="12.75225">
        <ele>810.05</ele>
        <time>2012-07-31T15:54:42Z</time>
      </trkpt>
      <trkpt lat="46.39974" lon="12.75203">
        <ele>811.01</ele>
        <time>2012-07-31T15:54:43Z</time>
      </trkpt>
      <trkpt lat="46.39963" lon="12.75178">
        <ele>812.45</ele>
        <time>2012-07-31T15:54:44Z</time>
      </trkpt>
      <trkpt lat="46.39932" lon="12.751">
        <ele>816.78</ele>
        <time>2012-07-31T15:54:47Z</time>
      </trkpt>
      <trkpt lat="46.39914" lon="12.75048">
        <ele>817.74</ele>
        <time>2012-07-31T15:54:49Z</time>
      </trkpt>
      <trkpt lat="46.3991" lon="12.75021">
        <ele>817.74</ele>
        <time>2012-07-31T15:54:50Z</time>
      </trkpt>
      <trkpt lat="46.39908" lon="12.74992">
        <ele>819.66</ele>
        <time>2012-07-31T15:54:51Z</time>
      </trkpt>
      <trkpt lat="46.39907" lon="12.74932">
        <ele>820.62</ele>
        <time>2012-07-31T15:54:53Z</time>
      </trkpt>
      <trkpt lat="46.39901" lon="12.74846">
        <ele>821.1</ele>
        <time>2012-07-31T15:54:56Z</time>
      </trkpt>
      <trkpt lat="46.39894" lon="12.74818">
        <ele>822.06</ele>
        <time>2012-07-31T15:54:57Z</time>
      </trkpt>
      <trkpt lat="46.39884" lon="12.74792">
        <ele>823.03</ele>
        <time>2012-07-31T15:54:58Z</time>
      </trkpt>
      <trkpt lat="46.39848" lon="12.74714">
        <ele>826.39</ele>
        <time>2012-07-31T15:55:01Z</time>
      </trkpt>
      <trkpt lat="46.39798" lon="12.74614">
        <ele>830.72</ele>
        <time>2012-07-31T15:55:05Z</time>
      </trkpt>
      <trkpt lat="46.39752" lon="12.74514">
        <ele>834.08</ele>
        <time>2012-07-31T15:55:09Z</time>
      </trkpt>
      <trkpt lat="46.39727" lon="12.74432">
        <ele>837.93</ele>
        <time>2012-07-31T15:55:12Z</time>
      </trkpt>
      <trkpt lat="46.39703" lon="12.74352">
        <ele>840.81</ele>
        <time>2012-07-31T15:55:15Z</time>
      </trkpt>
      <trkpt lat="46.39694" lon="12.74328">
        <ele>840.81</ele>
        <time>2012-07-31T15:55:16Z</time>
      </trkpt>
      <trkpt lat="46.39684" lon="12.74308">
        <ele>840.81</ele>
        <time>2012-07-31T15:55:17Z</time>
      </trkpt>
      <trkpt lat="46.39654" lon="12.74254">
        <ele>842.25</ele>
        <time>2012-07-31T15:55:20Z</time>
      </trkpt>
      <trkpt lat="46.39644" lon="12.74234">
        <ele>843.21</ele>
        <time>2012-07-31T15:55:21Z</time>
      </trkpt>
      <trkpt lat="46.39637" lon="12.74211">
        <ele>845.62</ele>
        <time>2012-07-31T15:55:22Z</time>
      </trkpt>
      <trkpt lat="46.39632" lon="12.74186">
        <ele>846.1</ele>
        <time>2012-07-31T15:55:23Z</time>
      </trkpt>
      <trkpt lat="46.39628" lon="12.74161">
        <ele>846.1</ele>
        <time>2012-07-31T15:55:24Z</time>
      </trkpt>
      <trkpt lat="46.39623" lon="12.74136">
        <ele>846.58</ele>
        <time>2012-07-31T15:55:25Z</time>
      </trkpt>
      <trkpt lat="46.3961" lon="12.74093">
        <ele>846.58</ele>
        <time>2012-07-31T15:55:27Z</time>
      </trkpt>
      <trkpt lat="46.39598" lon="12.74073">
        <ele>847.06</ele>
        <time>2012-07-31T15:55:28Z</time>
      </trkpt>
      <trkpt lat="46.39583" lon="12.74055">
        <ele>846.58</ele>
        <time>2012-07-31T15:55:29Z</time>
      </trkpt>
      <trkpt lat="46.39539" lon="12.74003">
        <ele>843.69</ele>
        <time>2012-07-31T15:55:32Z</time>
      </trkpt>
      <trkpt lat="46.39527" lon="12.73983">
        <ele>842.25</ele>
        <time>2012-07-31T15:55:33Z</time>
      </trkpt>
      <trkpt lat="46.39516" lon="12.7396">
        <ele>842.25</ele>
        <time>2012-07-31T15:55:34Z</time>
      </trkpt>
      <trkpt lat="46.39507" lon="12.73935">
        <ele>840.81</ele>
        <time>2012-07-31T15:55:35Z</time>
      </trkpt>
      <trkpt lat="46.39501" lon="12.73909">
        <ele>838.89</ele>
        <time>2012-07-31T15:55:36Z</time>
      </trkpt>
      <trkpt lat="46.39497" lon="12.73885">
        <ele>837.45</ele>
        <time>2012-07-31T15:55:37Z</time>
      </trkpt>
      <trkpt lat="46.39492" lon="12.73842">
        <ele>834.08</ele>
        <time>2012-07-31T15:55:39Z</time>
      </trkpt>
      <trkpt lat="46.39493" lon="12.73821">
        <ele>833.6</ele>
        <time>2012-07-31T15:55:40Z</time>
      </trkpt>
      <trkpt lat="46.39497" lon="12.738">
        <ele>832.64</ele>
        <time>2012-07-31T15:55:41Z</time>
      </trkpt>
      <trkpt lat="46.39505" lon="12.73783">
        <ele>831.2</ele>
        <time>2012-07-31T15:55:42Z</time>
      </trkpt>
      <trkpt lat="46.39516" lon="12.73769">
        <ele>830.24</ele>
        <time>2012-07-31T15:55:43Z</time>
      </trkpt>
      <trkpt lat="46.3953" lon="12.73759">
        <ele>830.24</ele>
        <time>2012-07-31T15:55:44Z</time>
      </trkpt>
      <trkpt lat="46.39545" lon="12.73754">
        <ele>829.76</ele>
        <time>2012-07-31T15:55:45Z</time>
      </trkpt>
      <trkpt lat="46.3956" lon="12.7375">
        <ele>827.83</ele>
        <time>2012-07-31T15:55:46Z</time>
      </trkpt>
      <trkpt lat="46.39574" lon="12.73742">
        <ele>826.87</ele>
        <time>2012-07-31T15:55:47Z</time>
      </trkpt>
      <trkpt lat="46.39586" lon="12.73729">
        <ele>826.87</ele>
        <time>2012-07-31T15:55:48Z</time>
      </trkpt>
      <trkpt lat="46.39596" lon="12.73713">
        <ele>826.87</ele>
        <time>2012-07-31T15:55:49Z</time>
      </trkpt>
      <trkpt lat="46.39604" lon="12.73696">
        <ele>825.91</ele>
        <time>2012-07-31T15:55:50Z</time>
      </trkpt>
      <trkpt lat="46.39611" lon="12.73678">
        <ele>823.99</ele>
        <time>2012-07-31T15:55:51Z</time>
      </trkpt>
      <trkpt lat="46.3962" lon="12.7366">
        <ele>824.47</ele>
        <time>2012-07-31T15:55:52Z</time>
      </trkpt>
      <trkpt lat="46.39631" lon="12.73645">
        <ele>823.51</ele>
        <time>2012-07-31T15:55:53Z</time>
      </trkpt>
      <trkpt lat="46.39644" lon="12.73635">
        <ele>822.55</ele>
        <time>2012-07-31T15:55:54Z</time>
      </trkpt>
      <trkpt lat="46.39657" lon="12.73629">
        <ele>821.58</ele>
        <time>2012-07-31T15:55:55Z</time>
      </trkpt>
      <trkpt lat="46.39671" lon="12.73627">
        <ele>821.1</ele>
        <time>2012-07-31T15:55:56Z</time>
      </trkpt>
      <trkpt lat="46.39685" lon="12.73629">
        <ele>820.14</ele>
        <time>2012-07-31T15:55:57Z</time>
      </trkpt>
      <trkpt lat="46.397" lon="12.73633">
        <ele>818.7</ele>
        <time>2012-07-31T15:55:58Z</time>
      </trkpt>
      <trkpt lat="46.39714" lon="12.73635">
        <ele>817.74</ele>
        <time>2012-07-31T15:55:59Z</time>
      </trkpt>
      <trkpt lat="46.39811" lon="12.73635">
        <ele>815.82</ele>
        <time>2012-07-31T15:56:04Z</time>
      </trkpt>
      <trkpt lat="46.39861" lon="12.73619">
        <ele>815.82</ele>
        <time>2012-07-31T15:56:07Z</time>
      </trkpt>
      <trkpt lat="46.39866" lon="12.73595">
        <ele>816.78</ele>
        <time>2012-07-31T15:56:08Z</time>
      </trkpt>
      <trkpt lat="46.39817" lon="12.73513">
        <ele>817.26</ele>
        <time>2012-07-31T15:56:09Z</time>
      </trkpt>
      <trkpt lat="46.39785" lon="12.73461">
        <ele>817.26</ele>
        <time>2012-07-31T15:56:10Z</time>
      </trkpt>
      <trkpt lat="46.39743" lon="12.73326">
        <ele>818.22</ele>
        <time>2012-07-31T15:56:15Z</time>
      </trkpt>
      <trkpt lat="46.39725" lon="12.73297">
        <ele>818.7</ele>
        <time>2012-07-31T15:56:16Z</time>
      </trkpt>
      <trkpt lat="46.39702" lon="12.73254">
        <ele>817.26</ele>
        <time>2012-07-31T15:56:18Z</time>
      </trkpt>
      <trkpt lat="46.3969" lon="12.73237">
        <ele>817.26</ele>
        <time>2012-07-31T15:56:19Z</time>
      </trkpt>
      <trkpt lat="46.39675" lon="12.73223">
        <ele>816.78</ele>
        <time>2012-07-31T15:56:20Z</time>
      </trkpt>
      <trkpt lat="46.39661" lon="12.73213">
        <ele>816.78</ele>
        <time>2012-07-31T15:56:21Z</time>
      </trkpt>
      <trkpt lat="46.39646" lon="12.73205">
        <ele>816.3</ele>
        <time>2012-07-31T15:56:22Z</time>
      </trkpt>
      <trkpt lat="46.39633" lon="12.73199">
        <ele>814.85</ele>
        <time>2012-07-31T15:56:23Z</time>
      </trkpt>
      <trkpt lat="46.39619" lon="12.73192">
        <ele>814.85</ele>
        <time>2012-07-31T15:56:24Z</time>
      </trkpt>
      <trkpt lat="46.39607" lon="12.73182">
        <ele>814.85</ele>
        <time>2012-07-31T15:56:25Z</time>
      </trkpt>
      <trkpt lat="46.39598" lon="12.73169">
        <ele>813.89</ele>
        <time>2012-07-31T15:56:26Z</time>
      </trkpt>
      <trkpt lat="46.39592" lon="12.73152">
        <ele>813.41</ele>
        <time>2012-07-31T15:56:27Z</time>
      </trkpt>
      <trkpt lat="46.39589" lon="12.73133">
        <ele>812.93</ele>
        <time>2012-07-31T15:56:28Z</time>
      </trkpt>
      <trkpt lat="46.39591" lon="12.73112">
        <ele>812.93</ele>
        <time>2012-07-31T15:56:29Z</time>
      </trkpt>
      <trkpt lat="46.39595" lon="12.73091">
        <ele>811.97</ele>
        <time>2012-07-31T15:56:30Z</time>
      </trkpt>
      <trkpt lat="46.39601" lon="12.73072">
        <ele>811.97</ele>
        <time>2012-07-31T15:56:31Z</time>
      </trkpt>
      <trkpt lat="46.39612" lon="12.73053">
        <ele>811.97</ele>
        <time>2012-07-31T15:56:32Z</time>
      </trkpt>
      <trkpt lat="46.39625" lon="12.73038">
        <ele>811.49</ele>
        <time>2012-07-31T15:56:33Z</time>
      </trkpt>
      <trkpt lat="46.39638" lon="12.73025">
        <ele>810.05</ele>
        <time>2012-07-31T15:56:34Z</time>
      </trkpt>
      <trkpt lat="46.39648" lon="12.73014">
        <ele>808.13</ele>
        <time>2012-07-31T15:56:35Z</time>
      </trkpt>
      <trkpt lat="46.39657" lon="12.73">
        <ele>808.13</ele>
        <time>2012-07-31T15:56:36Z</time>
      </trkpt>
      <trkpt lat="46.39662" lon="12.72981">
        <ele>807.64</ele>
        <time>2012-07-31T15:56:37Z</time>
      </trkpt>
      <trkpt lat="46.39661" lon="12.72928">
        <ele>804.76</ele>
        <time>2012-07-31T15:56:40Z</time>
      </trkpt>
      <trkpt lat="46.3966" lon="12.72906">
        <ele>803.8</ele>
        <time>2012-07-31T15:56:41Z</time>
      </trkpt>
      <trkpt lat="46.39663" lon="12.72886">
        <ele>803.32</ele>
        <time>2012-07-31T15:56:42Z</time>
      </trkpt>
      <trkpt lat="46.3967" lon="12.72867">
        <ele>803.32</ele>
        <time>2012-07-31T15:56:43Z</time>
      </trkpt>
      <trkpt lat="46.39681" lon="12.72846">
        <ele>803.8</ele>
        <time>2012-07-31T15:56:44Z</time>
      </trkpt>
      <trkpt lat="46.39693" lon="12.72824">
        <ele>802.84</ele>
        <time>2012-07-31T15:56:45Z</time>
      </trkpt>
      <trkpt lat="46.39711" lon="12.72783">
        <ele>798.03</ele>
        <time>2012-07-31T15:56:47Z</time>
      </trkpt>
      <trkpt lat="46.39716" lon="12.72763">
        <ele>797.07</ele>
        <time>2012-07-31T15:56:48Z</time>
      </trkpt>
      <trkpt lat="46.39722" lon="12.72724">
        <ele>795.63</ele>
        <time>2012-07-31T15:56:50Z</time>
      </trkpt>
      <trkpt lat="46.39706" lon="12.72662">
        <ele>791.78</ele>
        <time>2012-07-31T15:56:53Z</time>
      </trkpt>
      <trkpt lat="46.39667" lon="12.72617">
        <ele>788.42</ele>
        <time>2012-07-31T15:56:55Z</time>
      </trkpt>
      <trkpt lat="46.39655" lon="12.72602">
        <ele>787.94</ele>
        <time>2012-07-31T15:56:56Z</time>
      </trkpt>
      <trkpt lat="46.3965" lon="12.72583">
        <ele>786.5</ele>
        <time>2012-07-31T15:56:57Z</time>
      </trkpt>
      <trkpt lat="46.3965" lon="12.72562">
        <ele>786.02</ele>
        <time>2012-07-31T15:56:58Z</time>
      </trkpt>
      <trkpt lat="46.39653" lon="12.72541">
        <ele>783.61</ele>
        <time>2012-07-31T15:56:59Z</time>
      </trkpt>
      <trkpt lat="46.39655" lon="12.72519">
        <ele>783.13</ele>
        <time>2012-07-31T15:57:00Z</time>
      </trkpt>
      <trkpt lat="46.39653" lon="12.72496">
        <ele>782.17</ele>
        <time>2012-07-31T15:57:01Z</time>
      </trkpt>
      <trkpt lat="46.39647" lon="12.72475">
        <ele>780.25</ele>
        <time>2012-07-31T15:57:02Z</time>
      </trkpt>
      <trkpt lat="46.39642" lon="12.72453">
        <ele>778.32</ele>
        <time>2012-07-31T15:57:03Z</time>
      </trkpt>
      <trkpt lat="46.39641" lon="12.72429">
        <ele>778.81</ele>
        <time>2012-07-31T15:57:04Z</time>
      </trkpt>
      <trkpt lat="46.39642" lon="12.72401">
        <ele>778.32</ele>
        <time>2012-07-31T15:57:05Z</time>
      </trkpt>
      <trkpt lat="46.39643" lon="12.72371">
        <ele>776.88</ele>
        <time>2012-07-31T15:57:06Z</time>
      </trkpt>
      <trkpt lat="46.39643" lon="12.72343">
        <ele>774.96</ele>
        <time>2012-07-31T15:57:07Z</time>
      </trkpt>
      <trkpt lat="46.39643" lon="12.72317">
        <ele>774</ele>
        <time>2012-07-31T15:57:08Z</time>
      </trkpt>
      <trkpt lat="46.39641" lon="12.72293">
        <ele>770.63</ele>
        <time>2012-07-31T15:57:09Z</time>
      </trkpt>
      <trkpt lat="46.39637" lon="12.72271">
        <ele>768.71</ele>
        <time>2012-07-31T15:57:10Z</time>
      </trkpt>
      <trkpt lat="46.39631" lon="12.7225">
        <ele>766.79</ele>
        <time>2012-07-31T15:57:11Z</time>
      </trkpt>
      <trkpt lat="46.39629" lon="12.72229">
        <ele>765.83</ele>
        <time>2012-07-31T15:57:12Z</time>
      </trkpt>
      <trkpt lat="46.3963" lon="12.72208">
        <ele>765.35</ele>
        <time>2012-07-31T15:57:13Z</time>
      </trkpt>
      <trkpt lat="46.39636" lon="12.72189">
        <ele>764.39</ele>
        <time>2012-07-31T15:57:14Z</time>
      </trkpt>
      <trkpt lat="46.39646" lon="12.72172">
        <ele>763.42</ele>
        <time>2012-07-31T15:57:15Z</time>
      </trkpt>
      <trkpt lat="46.39654" lon="12.72153">
        <ele>762.46</ele>
        <time>2012-07-31T15:57:16Z</time>
      </trkpt>
      <trkpt lat="46.39656" lon="12.72129">
        <ele>762.46</ele>
        <time>2012-07-31T15:57:17Z</time>
      </trkpt>
      <trkpt lat="46.39652" lon="12.72098">
        <ele>762.94</ele>
        <time>2012-07-31T15:57:18Z</time>
      </trkpt>
      <trkpt lat="46.39646" lon="12.72042">
        <ele>757.18</ele>
        <time>2012-07-31T15:57:20Z</time>
      </trkpt>
      <trkpt lat="46.39634" lon="12.71978">
        <ele>753.81</ele>
        <time>2012-07-31T15:57:23Z</time>
      </trkpt>
      <trkpt lat="46.39626" lon="12.71963">
        <ele>753.33</ele>
        <time>2012-07-31T15:57:24Z</time>
      </trkpt>
      <trkpt lat="46.39614" lon="12.71952">
        <ele>752.85</ele>
        <time>2012-07-31T15:57:25Z</time>
      </trkpt>
      <trkpt lat="46.396" lon="12.71942">
        <ele>751.41</ele>
        <time>2012-07-31T15:57:26Z</time>
      </trkpt>
      <trkpt lat="46.39586" lon="12.71933">
        <ele>750.93</ele>
        <time>2012-07-31T15:57:27Z</time>
      </trkpt>
      <trkpt lat="46.39574" lon="12.71919">
        <ele>749.97</ele>
        <time>2012-07-31T15:57:28Z</time>
      </trkpt>
      <trkpt lat="46.39564" lon="12.71902">
        <ele>749.49</ele>
        <time>2012-07-31T15:57:29Z</time>
      </trkpt>
      <trkpt lat="46.39558" lon="12.71881">
        <ele>748.52</ele>
        <time>2012-07-31T15:57:30Z</time>
      </trkpt>
      <trkpt lat="46.39554" lon="12.71855">
        <ele>748.52</ele>
        <time>2012-07-31T15:57:31Z</time>
      </trkpt>
      <trkpt lat="46.39552" lon="12.71827">
        <ele>747.56</ele>
        <time>2012-07-31T15:57:32Z</time>
      </trkpt>
      <trkpt lat="46.39551" lon="12.7174">
        <ele>743.24</ele>
        <time>2012-07-31T15:57:35Z</time>
      </trkpt>
      <trkpt lat="46.39556" lon="12.71686">
        <ele>740.35</ele>
        <time>2012-07-31T15:57:37Z</time>
      </trkpt>
      <trkpt lat="46.39572" lon="12.71612">
        <ele>736.51</ele>
        <time>2012-07-31T15:57:40Z</time>
      </trkpt>
      <trkpt lat="46.39583" lon="12.71592">
        <ele>735.07</ele>
        <time>2012-07-31T15:57:41Z</time>
      </trkpt>
      <trkpt lat="46.39596" lon="12.71572">
        <ele>735.07</ele>
        <time>2012-07-31T15:57:42Z</time>
      </trkpt>
      <trkpt lat="46.39637" lon="12.71515">
        <ele>731.7</ele>
        <time>2012-07-31T15:57:45Z</time>
      </trkpt>
      <trkpt lat="46.39673" lon="12.71447">
        <ele>728.34</ele>
        <time>2012-07-31T15:57:48Z</time>
      </trkpt>
      <trkpt lat="46.39703" lon="12.71392">
        <ele>726.41</ele>
        <time>2012-07-31T15:57:51Z</time>
      </trkpt>
      <trkpt lat="46.39714" lon="12.71377">
        <ele>726.41</ele>
        <time>2012-07-31T15:57:52Z</time>
      </trkpt>
      <trkpt lat="46.39739" lon="12.71328">
        <ele>728.34</ele>
        <time>2012-07-31T15:57:56Z</time>
      </trkpt>
      <trkpt lat="46.39743" lon="12.71319">
        <ele>730.74</ele>
        <time>2012-07-31T15:58:04Z</time>
      </trkpt>
      <trkpt lat="46.39748" lon="12.71309">
        <ele>732.66</ele>
        <time>2012-07-31T15:58:12Z</time>
      </trkpt>
      <trkpt lat="46.39751" lon="12.71303">
        <ele>736.03</ele>
        <time>2012-07-31T15:58:17Z</time>
      </trkpt>
      <trkpt lat="46.39751" lon="12.71302">
        <ele>736.03</ele>
        <time>2012-07-31T15:58:18Z</time>
      </trkpt>
      <trkpt lat="46.39755" lon="12.71294">
        <ele>736.03</ele>
        <time>2012-07-31T15:58:24Z</time>
      </trkpt>
      <trkpt lat="46.3975" lon="12.71306">
        <ele>736.99</ele>
        <time>2012-07-31T15:58:25Z</time>
      </trkpt>
      <trkpt lat="46.39756" lon="12.71293">
        <ele>738.43</ele>
        <time>2012-07-31T15:58:27Z</time>
      </trkpt>
      <trkpt lat="46.39774" lon="12.71253">
        <ele>735.07</ele>
        <time>2012-07-31T15:59:03Z</time>
      </trkpt>
      <trkpt lat="46.39777" lon="12.71247">
        <ele>732.18</ele>
        <time>2012-07-31T15:59:14Z</time>
      </trkpt>
      <trkpt lat="46.3978" lon="12.71241">
        <ele>728.82</ele>
        <time>2012-07-31T15:59:18Z</time>
      </trkpt>
      <trkpt lat="46.39783" lon="12.71232">
        <ele>725.93</ele>
        <time>2012-07-31T15:59:33Z</time>
      </trkpt>
      <trkpt lat="46.39783" lon="12.71232">
        <ele>723.05</ele>
        <time>2012-07-31T15:59:37Z</time>
      </trkpt>
      <trkpt lat="46.39757" lon="12.68647">
        <ele>724.49</ele>
        <time>2012-07-31T15:59:41Z</time>
      </trkpt>
      <trkpt lat="46.39751" lon="12.68619">
        <ele>724.97</ele>
        <time>2012-07-31T15:59:42Z</time>
      </trkpt>
      <trkpt lat="46.39749" lon="12.68591">
        <ele>725.93</ele>
        <time>2012-07-31T15:59:43Z</time>
      </trkpt>
      <trkpt lat="46.39748" lon="12.68562">
        <ele>726.89</ele>
        <time>2012-07-31T15:59:44Z</time>
      </trkpt>
      <trkpt lat="46.39748" lon="12.68532">
        <ele>726.89</ele>
        <time>2012-07-31T15:59:45Z</time>
      </trkpt>
      <trkpt lat="46.39746" lon="12.68475">
        <ele>727.86</ele>
        <time>2012-07-31T15:59:47Z</time>
      </trkpt>
      <trkpt lat="46.39742" lon="12.68446">
        <ele>728.34</ele>
        <time>2012-07-31T15:59:48Z</time>
      </trkpt>
      <trkpt lat="46.39737" lon="12.68416">
        <ele>728.34</ele>
        <time>2012-07-31T15:59:49Z</time>
      </trkpt>
      <trkpt lat="46.3973" lon="12.68389">
        <ele>728.82</ele>
        <time>2012-07-31T15:59:50Z</time>
      </trkpt>
      <trkpt lat="46.39723" lon="12.68363">
        <ele>729.3</ele>
        <time>2012-07-31T15:59:51Z</time>
      </trkpt>
      <trkpt lat="46.39711" lon="12.68316">
        <ele>728.34</ele>
        <time>2012-07-31T15:59:53Z</time>
      </trkpt>
      <trkpt lat="46.39708" lon="12.68293">
        <ele>729.3</ele>
        <time>2012-07-31T15:59:54Z</time>
      </trkpt>
      <trkpt lat="46.39706" lon="12.6827">
        <ele>730.26</ele>
        <time>2012-07-31T15:59:55Z</time>
      </trkpt>
      <trkpt lat="46.39707" lon="12.68198">
        <ele>733.14</ele>
        <time>2012-07-31T15:59:58Z</time>
      </trkpt>
      <trkpt lat="46.39719" lon="12.68101">
        <ele>736.99</ele>
        <time>2012-07-31T16:00:02Z</time>
      </trkpt>
      <trkpt lat="46.3973" lon="12.68004">
        <ele>741.79</ele>
        <time>2012-07-31T16:00:06Z</time>
      </trkpt>
      <trkpt lat="46.39731" lon="12.67979">
        <ele>742.76</ele>
        <time>2012-07-31T16:00:07Z</time>
      </trkpt>
      <trkpt lat="46.39729" lon="12.67929">
        <ele>744.2</ele>
        <time>2012-07-31T16:00:09Z</time>
      </trkpt>
      <trkpt lat="46.39726" lon="12.67842">
        <ele>746.6</ele>
        <time>2012-07-31T16:00:13Z</time>
      </trkpt>
      <trkpt lat="46.39723" lon="12.67825">
        <ele>746.6</ele>
        <time>2012-07-31T16:00:14Z</time>
      </trkpt>
      <trkpt lat="46.39718" lon="12.6781">
        <ele>747.08</ele>
        <time>2012-07-31T16:00:15Z</time>
      </trkpt>
      <trkpt lat="46.39711" lon="12.67799">
        <ele>747.56</ele>
        <time>2012-07-31T16:00:16Z</time>
      </trkpt>
      <trkpt lat="46.397" lon="12.67791">
        <ele>748.52</ele>
        <time>2012-07-31T16:00:17Z</time>
      </trkpt>
      <trkpt lat="46.39687" lon="12.67785">
        <ele>749</ele>
        <time>2012-07-31T16:00:18Z</time>
      </trkpt>
      <trkpt lat="46.39675" lon="12.67781">
        <ele>748.52</ele>
        <time>2012-07-31T16:00:19Z</time>
      </trkpt>
      <trkpt lat="46.39641" lon="12.67771">
        <ele>748.04</ele>
        <time>2012-07-31T16:00:22Z</time>
      </trkpt>
      <trkpt lat="46.39631" lon="12.67773">
        <ele>747.56</ele>
        <time>2012-07-31T16:00:23Z</time>
      </trkpt>
      <trkpt lat="46.39622" lon="12.6778">
        <ele>747.56</ele>
        <time>2012-07-31T16:00:24Z</time>
      </trkpt>
      <trkpt lat="46.39613" lon="12.67792">
        <ele>748.52</ele>
        <time>2012-07-31T16:00:25Z</time>
      </trkpt>
      <trkpt lat="46.39605" lon="12.67806">
        <ele>749.97</ele>
        <time>2012-07-31T16:00:26Z</time>
      </trkpt>
      <trkpt lat="46.39598" lon="12.6782">
        <ele>749.49</ele>
        <time>2012-07-31T16:00:27Z</time>
      </trkpt>
      <trkpt lat="46.39591" lon="12.67834">
        <ele>749.97</ele>
        <time>2012-07-31T16:00:28Z</time>
      </trkpt>
      <trkpt lat="46.39579" lon="12.67859">
        <ele>750.93</ele>
        <time>2012-07-31T16:00:30Z</time>
      </trkpt>
      <trkpt lat="46.39563" lon="12.67885">
        <ele>751.41</ele>
        <time>2012-07-31T16:00:33Z</time>
      </trkpt>
      <trkpt lat="46.39557" lon="12.67888">
        <ele>751.89</ele>
        <time>2012-07-31T16:00:34Z</time>
      </trkpt>
      <trkpt lat="46.3955" lon="12.67887">
        <ele>751.89</ele>
        <time>2012-07-31T16:00:35Z</time>
      </trkpt>
      <trkpt lat="46.39542" lon="12.6788">
        <ele>752.37</ele>
        <time>2012-07-31T16:00:36Z</time>
      </trkpt>
      <trkpt lat="46.39536" lon="12.6787">
        <ele>752.85</ele>
        <time>2012-07-31T16:00:37Z</time>
      </trkpt>
      <trkpt lat="46.39532" lon="12.67858">
        <ele>752.85</ele>
        <time>2012-07-31T16:00:38Z</time>
      </trkpt>
      <trkpt lat="46.39528" lon="12.67845">
        <ele>753.33</ele>
        <time>2012-07-31T16:00:39Z</time>
      </trkpt>
      <trkpt lat="46.39525" lon="12.67832">
        <ele>753.81</ele>
        <time>2012-07-31T16:00:40Z</time>
      </trkpt>
      <trkpt lat="46.39501" lon="12.67732">
        <ele>757.18</ele>
        <time>2012-07-31T16:00:46Z</time>
      </trkpt>
      <trkpt lat="46.39488" lon="12.67677">
        <ele>758.62</ele>
        <time>2012-07-31T16:00:49Z</time>
      </trkpt>
      <trkpt lat="46.39458" lon="12.67545">
        <ele>761.02</ele>
        <time>2012-07-31T16:00:56Z</time>
      </trkpt>
      <trkpt lat="46.3944" lon="12.6747">
        <ele>761.5</ele>
        <time>2012-07-31T16:01:01Z</time>
      </trkpt>
      <trkpt lat="46.39431" lon="12.67398">
        <ele>761.02</ele>
        <time>2012-07-31T16:01:08Z</time>
      </trkpt>
      <trkpt lat="46.39425" lon="12.6731">
        <ele>761.5</ele>
        <time>2012-07-31T16:01:16Z</time>
      </trkpt>
      <trkpt lat="46.39424" lon="12.67297">
        <ele>761.5</ele>
        <time>2012-07-31T16:01:17Z</time>
      </trkpt>
      <trkpt lat="46.39411" lon="12.67137">
        <ele>760.06</ele>
        <time>2012-07-31T16:01:28Z</time>
      </trkpt>
      <trkpt lat="46.39396" lon="12.66937">
        <ele>759.1</ele>
        <time>2012-07-31T16:01:39Z</time>
      </trkpt>
      <trkpt lat="46.39382" lon="12.66814">
        <ele>759.58</ele>
        <time>2012-07-31T16:01:46Z</time>
      </trkpt>
      <trkpt lat="46.39376" lon="12.66798">
        <ele>759.1</ele>
        <time>2012-07-31T16:01:47Z</time>
      </trkpt>
      <trkpt lat="46.39362" lon="12.66768">
        <ele>758.62</ele>
        <time>2012-07-31T16:01:49Z</time>
      </trkpt>
      <trkpt lat="46.39354" lon="12.66756">
        <ele>759.1</ele>
        <time>2012-07-31T16:01:50Z</time>
      </trkpt>
      <trkpt lat="46.39337" lon="12.66734">
        <ele>759.1</ele>
        <time>2012-07-31T16:01:52Z</time>
      </trkpt>
      <trkpt lat="46.3933" lon="12.6672">
        <ele>759.1</ele>
        <time>2012-07-31T16:01:53Z</time>
      </trkpt>
      <trkpt lat="46.39324" lon="12.66704">
        <ele>759.1</ele>
        <time>2012-07-31T16:01:54Z</time>
      </trkpt>
      <trkpt lat="46.39321" lon="12.66688">
        <ele>759.1</ele>
        <time>2012-07-31T16:01:55Z</time>
      </trkpt>
      <trkpt lat="46.39319" lon="12.66671">
        <ele>759.58</ele>
        <time>2012-07-31T16:01:56Z</time>
      </trkpt>
      <trkpt lat="46.3932" lon="12.66653">
        <ele>759.58</ele>
        <time>2012-07-31T16:01:57Z</time>
      </trkpt>
      <trkpt lat="46.39321" lon="12.66636">
        <ele>759.58</ele>
        <time>2012-07-31T16:01:58Z</time>
      </trkpt>
      <trkpt lat="46.39322" lon="12.66618">
        <ele>759.58</ele>
        <time>2012-07-31T16:01:59Z</time>
      </trkpt>
      <trkpt lat="46.39338" lon="12.66457">
        <ele>762.46</ele>
        <time>2012-07-31T16:02:07Z</time>
      </trkpt>
      <trkpt lat="46.39343" lon="12.66389">
        <ele>763.9</ele>
        <time>2012-07-31T16:02:10Z</time>
      </trkpt>
      <trkpt lat="46.39343" lon="12.66299">
        <ele>763.9</ele>
        <time>2012-07-31T16:02:14Z</time>
      </trkpt>
      <trkpt lat="46.39345" lon="12.66277">
        <ele>764.39</ele>
        <time>2012-07-31T16:02:15Z</time>
      </trkpt>
      <trkpt lat="46.3935" lon="12.66255">
        <ele>764.87</ele>
        <time>2012-07-31T16:02:16Z</time>
      </trkpt>
      <trkpt lat="46.39357" lon="12.66233">
        <ele>765.35</ele>
        <time>2012-07-31T16:02:17Z</time>
      </trkpt>
      <trkpt lat="46.39366" lon="12.66212">
        <ele>765.83</ele>
        <time>2012-07-31T16:02:18Z</time>
      </trkpt>
      <trkpt lat="46.39376" lon="12.66191">
        <ele>766.31</ele>
        <time>2012-07-31T16:02:19Z</time>
      </trkpt>
      <trkpt lat="46.39395" lon="12.66147">
        <ele>767.27</ele>
        <time>2012-07-31T16:02:21Z</time>
      </trkpt>
      <trkpt lat="46.39402" lon="12.66123">
        <ele>767.75</ele>
        <time>2012-07-31T16:02:22Z</time>
      </trkpt>
      <trkpt lat="46.39423" lon="12.66031">
        <ele>767.75</ele>
        <time>2012-07-31T16:02:26Z</time>
      </trkpt>
      <trkpt lat="46.39432" lon="12.6601">
        <ele>767.27</ele>
        <time>2012-07-31T16:02:27Z</time>
      </trkpt>
      <trkpt lat="46.39442" lon="12.65991">
        <ele>767.75</ele>
        <time>2012-07-31T16:02:28Z</time>
      </trkpt>
      <trkpt lat="46.39479" lon="12.65937">
        <ele>770.15</ele>
        <time>2012-07-31T16:02:31Z</time>
      </trkpt>
      <trkpt lat="46.39533" lon="12.65866">
        <ele>773.04</ele>
        <time>2012-07-31T16:02:35Z</time>
      </trkpt>
      <trkpt lat="46.3956" lon="12.65828">
        <ele>774.96</ele>
        <time>2012-07-31T16:02:37Z</time>
      </trkpt>
      <trkpt lat="46.39581" lon="12.65786">
        <ele>776.4</ele>
        <time>2012-07-31T16:02:39Z</time>
      </trkpt>
      <trkpt lat="46.39589" lon="12.65763">
        <ele>777.84</ele>
        <time>2012-07-31T16:02:40Z</time>
      </trkpt>
      <trkpt lat="46.39596" lon="12.65738">
        <ele>778.81</ele>
        <time>2012-07-31T16:02:41Z</time>
      </trkpt>
      <trkpt lat="46.39614" lon="12.6566">
        <ele>782.17</ele>
        <time>2012-07-31T16:02:44Z</time>
      </trkpt>
      <trkpt lat="46.39637" lon="12.65553">
        <ele>785.53</ele>
        <time>2012-07-31T16:02:48Z</time>
      </trkpt>
      <trkpt lat="46.39649" lon="12.65498">
        <ele>786.5</ele>
        <time>2012-07-31T16:02:50Z</time>
      </trkpt>
      <trkpt lat="46.39665" lon="12.65416">
        <ele>790.34</ele>
        <time>2012-07-31T16:02:53Z</time>
      </trkpt>
      <trkpt lat="46.39678" lon="12.65361">
        <ele>793.22</ele>
        <time>2012-07-31T16:02:55Z</time>
      </trkpt>
      <trkpt lat="46.39701" lon="12.65281">
        <ele>797.55</ele>
        <time>2012-07-31T16:02:58Z</time>
      </trkpt>
      <trkpt lat="46.39724" lon="12.65199">
        <ele>802.36</ele>
        <time>2012-07-31T16:03:01Z</time>
      </trkpt>
      <trkpt lat="46.3974" lon="12.65112">
        <ele>806.68</ele>
        <time>2012-07-31T16:03:04Z</time>
      </trkpt>
      <trkpt lat="46.3975" lon="12.6502">
        <ele>811.01</ele>
        <time>2012-07-31T16:03:07Z</time>
      </trkpt>
      <trkpt lat="46.39757" lon="12.64961">
        <ele>814.85</ele>
        <time>2012-07-31T16:03:09Z</time>
      </trkpt>
      <trkpt lat="46.39765" lon="12.64861">
        <ele>817.26</ele>
        <time>2012-07-31T16:03:13Z</time>
      </trkpt>
      <trkpt lat="46.39763" lon="12.64839">
        <ele>817.74</ele>
        <time>2012-07-31T16:03:14Z</time>
      </trkpt>
      <trkpt lat="46.39758" lon="12.64819">
        <ele>819.18</ele>
        <time>2012-07-31T16:03:15Z</time>
      </trkpt>
      <trkpt lat="46.39751" lon="12.64801">
        <ele>820.62</ele>
        <time>2012-07-31T16:03:16Z</time>
      </trkpt>
      <trkpt lat="46.3974" lon="12.64783">
        <ele>821.58</ele>
        <time>2012-07-31T16:03:17Z</time>
      </trkpt>
      <trkpt lat="46.39667" lon="12.64687">
        <ele>819.18</ele>
        <time>2012-07-31T16:03:22Z</time>
      </trkpt>
      <trkpt lat="46.39637" lon="12.64647">
        <ele>815.34</ele>
        <time>2012-07-31T16:03:24Z</time>
      </trkpt>
      <trkpt lat="46.3961" lon="12.64608">
        <ele>812.45</ele>
        <time>2012-07-31T16:03:26Z</time>
      </trkpt>
      <trkpt lat="46.39584" lon="12.6457">
        <ele>809.09</ele>
        <time>2012-07-31T16:03:28Z</time>
      </trkpt>
      <trkpt lat="46.39564" lon="12.6453">
        <ele>806.68</ele>
        <time>2012-07-31T16:03:30Z</time>
      </trkpt>
      <trkpt lat="46.39557" lon="12.64507">
        <ele>805.72</ele>
        <time>2012-07-31T16:03:31Z</time>
      </trkpt>
      <trkpt lat="46.39552" lon="12.64483">
        <ele>805.72</ele>
        <time>2012-07-31T16:03:32Z</time>
      </trkpt>
      <trkpt lat="46.39539" lon="12.64356">
        <ele>801.4</ele>
        <time>2012-07-31T16:03:37Z</time>
      </trkpt>
      <trkpt lat="46.39538" lon="12.64331">
        <ele>799.47</ele>
        <time>2012-07-31T16:03:38Z</time>
      </trkpt>
      <trkpt lat="46.3954" lon="12.64307">
        <ele>798.99</ele>
        <time>2012-07-31T16:03:39Z</time>
      </trkpt>
      <trkpt lat="46.39544" lon="12.64282">
        <ele>798.03</ele>
        <time>2012-07-31T16:03:40Z</time>
      </trkpt>
      <trkpt lat="46.3955" lon="12.64258">
        <ele>796.59</ele>
        <time>2012-07-31T16:03:41Z</time>
      </trkpt>
      <trkpt lat="46.39559" lon="12.64234">
        <ele>796.11</ele>
        <time>2012-07-31T16:03:42Z</time>
      </trkpt>
      <trkpt lat="46.39569" lon="12.64215">
        <ele>794.19</ele>
        <time>2012-07-31T16:03:43Z</time>
      </trkpt>
      <trkpt lat="46.39579" lon="12.642">
        <ele>792.26</ele>
        <time>2012-07-31T16:03:44Z</time>
      </trkpt>
      <trkpt lat="46.3959" lon="12.64188">
        <ele>790.82</ele>
        <time>2012-07-31T16:03:45Z</time>
      </trkpt>
      <trkpt lat="46.396" lon="12.6418">
        <ele>789.86</ele>
        <time>2012-07-31T16:03:46Z</time>
      </trkpt>
      <trkpt lat="46.39612" lon="12.64177">
        <ele>789.38</ele>
        <time>2012-07-31T16:03:47Z</time>
      </trkpt>
      <trkpt lat="46.39624" lon="12.64181">
        <ele>788.42</ele>
        <time>2012-07-31T16:03:48Z</time>
      </trkpt>
      <trkpt lat="46.39635" lon="12.6419">
        <ele>787.94</ele>
        <time>2012-07-31T16:03:49Z</time>
      </trkpt>
      <trkpt lat="46.39645" lon="12.64199">
        <ele>787.46</ele>
        <time>2012-07-31T16:03:50Z</time>
      </trkpt>
      <trkpt lat="46.39655" lon="12.64206">
        <ele>786.5</ele>
        <time>2012-07-31T16:03:51Z</time>
      </trkpt>
      <trkpt lat="46.39664" lon="12.64209">
        <ele>786.02</ele>
        <time>2012-07-31T16:03:52Z</time>
      </trkpt>
      <trkpt lat="46.39674" lon="12.64206">
        <ele>785.53</ele>
        <time>2012-07-31T16:03:53Z</time>
      </trkpt>
      <trkpt lat="46.39683" lon="12.64199">
        <ele>785.05</ele>
        <time>2012-07-31T16:03:54Z</time>
      </trkpt>
      <trkpt lat="46.39689" lon="12.6419">
        <ele>784.57</ele>
        <time>2012-07-31T16:03:55Z</time>
      </trkpt>
      <trkpt lat="46.39694" lon="12.64181">
        <ele>784.09</ele>
        <time>2012-07-31T16:03:56Z</time>
      </trkpt>
      <trkpt lat="46.39699" lon="12.64171">
        <ele>784.57</ele>
        <time>2012-07-31T16:03:57Z</time>
      </trkpt>
      <trkpt lat="46.39703" lon="12.64159">
        <ele>784.57</ele>
        <time>2012-07-31T16:03:58Z</time>
      </trkpt>
      <trkpt lat="46.39705" lon="12.64147">
        <ele>785.05</ele>
        <time>2012-07-31T16:03:59Z</time>
      </trkpt>
      <trkpt lat="46.39705" lon="12.64134">
        <ele>785.05</ele>
        <time>2012-07-31T16:04:00Z</time>
      </trkpt>
      <trkpt lat="46.39705" lon="12.6412">
        <ele>785.53</ele>
        <time>2012-07-31T16:04:01Z</time>
      </trkpt>
      <trkpt lat="46.39702" lon="12.64104">
        <ele>785.53</ele>
        <time>2012-07-31T16:04:02Z</time>
      </trkpt>
      <trkpt lat="46.39696" lon="12.64087">
        <ele>786.02</ele>
        <time>2012-07-31T16:04:03Z</time>
      </trkpt>
      <trkpt lat="46.39636" lon="12.63949">
        <ele>783.61</ele>
        <time>2012-07-31T16:04:09Z</time>
      </trkpt>
      <trkpt lat="46.39618" lon="12.63909">
        <ele>781.21</ele>
        <time>2012-07-31T16:04:11Z</time>
      </trkpt>
      <trkpt lat="46.396" lon="12.63876">
        <ele>778.81</ele>
        <time>2012-07-31T16:04:13Z</time>
      </trkpt>
      <trkpt lat="46.39593" lon="12.63857">
        <ele>777.84</ele>
        <time>2012-07-31T16:04:14Z</time>
      </trkpt>
      <trkpt lat="46.39588" lon="12.63837">
        <ele>777.36</ele>
        <time>2012-07-31T16:04:15Z</time>
      </trkpt>
      <trkpt lat="46.39586" lon="12.63816">
        <ele>776.88</ele>
        <time>2012-07-31T16:04:16Z</time>
      </trkpt>
      <trkpt lat="46.39586" lon="12.63793">
        <ele>776.88</ele>
        <time>2012-07-31T16:04:17Z</time>
      </trkpt>
      <trkpt lat="46.39589" lon="12.63769">
        <ele>776.4</ele>
        <time>2012-07-31T16:04:18Z</time>
      </trkpt>
      <trkpt lat="46.39592" lon="12.63743">
        <ele>775.92</ele>
        <time>2012-07-31T16:04:19Z</time>
      </trkpt>
      <trkpt lat="46.39605" lon="12.63607">
        <ele>773.04</ele>
        <time>2012-07-31T16:04:24Z</time>
      </trkpt>
      <trkpt lat="46.3961" lon="12.63527">
        <ele>771.11</ele>
        <time>2012-07-31T16:04:27Z</time>
      </trkpt>
      <trkpt lat="46.39617" lon="12.63341">
        <ele>770.63</ele>
        <time>2012-07-31T16:04:34Z</time>
      </trkpt>
      <trkpt lat="46.39672" lon="12.63081">
        <ele>773.04</ele>
        <time>2012-07-31T16:04:44Z</time>
      </trkpt>
      <trkpt lat="46.39698" lon="12.62947">
        <ele>775.92</ele>
        <time>2012-07-31T16:04:49Z</time>
      </trkpt>
      <trkpt lat="46.39713" lon="12.62864">
        <ele>777.84</ele>
        <time>2012-07-31T16:04:52Z</time>
      </trkpt>
      <trkpt lat="46.39734" lon="12.62752">
        <ele>780.25</ele>
        <time>2012-07-31T16:04:56Z</time>
      </trkpt>
      <trkpt lat="46.39767" lon="12.6257">
        <ele>782.65</ele>
        <time>2012-07-31T16:05:03Z</time>
      </trkpt>
      <trkpt lat="46.39767" lon="12.62544">
        <ele>783.13</ele>
        <time>2012-07-31T16:05:04Z</time>
      </trkpt>
      <trkpt lat="46.39764" lon="12.62519">
        <ele>783.13</ele>
        <time>2012-07-31T16:05:05Z</time>
      </trkpt>
      <trkpt lat="46.39762" lon="12.62493">
        <ele>783.61</ele>
        <time>2012-07-31T16:05:06Z</time>
      </trkpt>
      <trkpt lat="46.39761" lon="12.62468">
        <ele>784.57</ele>
        <time>2012-07-31T16:05:07Z</time>
      </trkpt>
      <trkpt lat="46.39761" lon="12.62442">
        <ele>784.09</ele>
        <time>2012-07-31T16:05:08Z</time>
      </trkpt>
      <trkpt lat="46.39763" lon="12.62418">
        <ele>785.53</ele>
        <time>2012-07-31T16:05:09Z</time>
      </trkpt>
      <trkpt lat="46.39768" lon="12.62393">
        <ele>786.5</ele>
        <time>2012-07-31T16:05:10Z</time>
      </trkpt>
      <trkpt lat="46.39791" lon="12.62321">
        <ele>788.42</ele>
        <time>2012-07-31T16:05:13Z</time>
      </trkpt>
      <trkpt lat="46.39819" lon="12.62247">
        <ele>788.42</ele>
        <time>2012-07-31T16:05:17Z</time>
      </trkpt>
      <trkpt lat="46.39829" lon="12.62233">
        <ele>789.38</ele>
        <time>2012-07-31T16:05:18Z</time>
      </trkpt>
      <trkpt lat="46.3984" lon="12.62221">
        <ele>789.86</ele>
        <time>2012-07-31T16:05:19Z</time>
      </trkpt>
      <trkpt lat="46.39852" lon="12.62211">
        <ele>790.34</ele>
        <time>2012-07-31T16:05:20Z</time>
      </trkpt>
      <trkpt lat="46.39888" lon="12.62183">
        <ele>792.26</ele>
        <time>2012-07-31T16:05:23Z</time>
      </trkpt>
      <trkpt lat="46.39899" lon="12.62172">
        <ele>792.74</ele>
        <time>2012-07-31T16:05:24Z</time>
      </trkpt>
      <trkpt lat="46.39908" lon="12.6216">
        <ele>792.74</ele>
        <time>2012-07-31T16:05:25Z</time>
      </trkpt>
      <trkpt lat="46.39917" lon="12.62149">
        <ele>792.26</ele>
        <time>2012-07-31T16:05:26Z</time>
      </trkpt>
      <trkpt lat="46.39925" lon="12.62138">
        <ele>792.74</ele>
        <time>2012-07-31T16:05:27Z</time>
      </trkpt>
      <trkpt lat="46.39957" lon="12.62091">
        <ele>794.67</ele>
        <time>2012-07-31T16:05:31Z</time>
      </trkpt>
      <trkpt lat="46.39981" lon="12.6205">
        <ele>795.63</ele>
        <time>2012-07-31T16:05:34Z</time>
      </trkpt>
      <trkpt lat="46.39986" lon="12.62037">
        <ele>795.63</ele>
        <time>2012-07-31T16:05:35Z</time>
      </trkpt>
      <trkpt lat="46.40019" lon="12.61937">
        <ele>799.47</ele>
        <time>2012-07-31T16:05:43Z</time>
      </trkpt>
      <trkpt lat="46.4003" lon="12.61906">
        <ele>800.44</ele>
        <time>2012-07-31T16:05:45Z</time>
      </trkpt>
      <trkpt lat="46.40034" lon="12.61888">
        <ele>801.4</ele>
        <time>2012-07-31T16:05:46Z</time>
      </trkpt>
      <trkpt lat="46.40035" lon="12.6187">
        <ele>801.88</ele>
        <time>2012-07-31T16:05:47Z</time>
      </trkpt>
      <trkpt lat="46.40036" lon="12.61852">
        <ele>802.36</ele>
        <time>2012-07-31T16:05:48Z</time>
      </trkpt>
      <trkpt lat="46.4004" lon="12.61836">
        <ele>802.84</ele>
        <time>2012-07-31T16:05:49Z</time>
      </trkpt>
      <trkpt lat="46.40048" lon="12.61821">
        <ele>803.32</ele>
        <time>2012-07-31T16:05:50Z</time>
      </trkpt>
      <trkpt lat="46.40057" lon="12.61809">
        <ele>804.76</ele>
        <time>2012-07-31T16:05:51Z</time>
      </trkpt>
      <trkpt lat="46.40068" lon="12.61796">
        <ele>805.72</ele>
        <time>2012-07-31T16:05:52Z</time>
      </trkpt>
      <trkpt lat="46.40077" lon="12.61781">
        <ele>806.2</ele>
        <time>2012-07-31T16:05:53Z</time>
      </trkpt>
      <trkpt lat="46.40083" lon="12.61762">
        <ele>807.16</ele>
        <time>2012-07-31T16:05:54Z</time>
      </trkpt>
      <trkpt lat="46.40087" lon="12.61741">
        <ele>808.13</ele>
        <time>2012-07-31T16:05:55Z</time>
      </trkpt>
      <trkpt lat="46.40091" lon="12.61721">
        <ele>809.57</ele>
        <time>2012-07-31T16:05:56Z</time>
      </trkpt>
      <trkpt lat="46.40096" lon="12.61702">
        <ele>809.57</ele>
        <time>2012-07-31T16:05:57Z</time>
      </trkpt>
      <trkpt lat="46.40101" lon="12.61684">
        <ele>810.53</ele>
        <time>2012-07-31T16:05:58Z</time>
      </trkpt>
      <trkpt lat="46.40106" lon="12.61667">
        <ele>811.01</ele>
        <time>2012-07-31T16:05:59Z</time>
      </trkpt>
      <trkpt lat="46.40113" lon="12.61649">
        <ele>811.49</ele>
        <time>2012-07-31T16:06:00Z</time>
      </trkpt>
      <trkpt lat="46.40122" lon="12.61633">
        <ele>811.97</ele>
        <time>2012-07-31T16:06:01Z</time>
      </trkpt>
      <trkpt lat="46.40132" lon="12.61618">
        <ele>813.41</ele>
        <time>2012-07-31T16:06:02Z</time>
      </trkpt>
      <trkpt lat="46.40144" lon="12.61604">
        <ele>813.89</ele>
        <time>2012-07-31T16:06:03Z</time>
      </trkpt>
      <trkpt lat="46.40155" lon="12.61592">
        <ele>814.37</ele>
        <time>2012-07-31T16:06:04Z</time>
      </trkpt>
      <trkpt lat="46.40167" lon="12.6158">
        <ele>814.85</ele>
        <time>2012-07-31T16:06:05Z</time>
      </trkpt>
      <trkpt lat="46.40194" lon="12.61544">
        <ele>814.85</ele>
        <time>2012-07-31T16:06:08Z</time>
      </trkpt>
      <trkpt lat="46.40203" lon="12.61519">
        <ele>814.85</ele>
        <time>2012-07-31T16:06:10Z</time>
      </trkpt>
      <trkpt lat="46.40203" lon="12.61506">
        <ele>815.82</ele>
        <time>2012-07-31T16:06:11Z</time>
      </trkpt>
      <trkpt lat="46.40201" lon="12.61494">
        <ele>816.3</ele>
        <time>2012-07-31T16:06:12Z</time>
      </trkpt>
      <trkpt lat="46.40197" lon="12.61482">
        <ele>816.3</ele>
        <time>2012-07-31T16:06:13Z</time>
      </trkpt>
      <trkpt lat="46.4019" lon="12.6147">
        <ele>816.3</ele>
        <time>2012-07-31T16:06:14Z</time>
      </trkpt>
      <trkpt lat="46.40184" lon="12.61458">
        <ele>816.78</ele>
        <time>2012-07-31T16:06:15Z</time>
      </trkpt>
      <trkpt lat="46.40179" lon="12.61446">
        <ele>816.78</ele>
        <time>2012-07-31T16:06:16Z</time>
      </trkpt>
      <trkpt lat="46.40177" lon="12.61432">
        <ele>816.78</ele>
        <time>2012-07-31T16:06:17Z</time>
      </trkpt>
      <trkpt lat="46.40177" lon="12.61418">
        <ele>817.26</ele>
        <time>2012-07-31T16:06:18Z</time>
      </trkpt>
      <trkpt lat="46.40182" lon="12.61403">
        <ele>818.7</ele>
        <time>2012-07-31T16:06:19Z</time>
      </trkpt>
      <trkpt lat="46.4019" lon="12.61389">
        <ele>819.18</ele>
        <time>2012-07-31T16:06:20Z</time>
      </trkpt>
      <trkpt lat="46.40199" lon="12.61376">
        <ele>819.66</ele>
        <time>2012-07-31T16:06:21Z</time>
      </trkpt>
      <trkpt lat="46.40208" lon="12.61365">
        <ele>820.14</ele>
        <time>2012-07-31T16:06:22Z</time>
      </trkpt>
      <trkpt lat="46.40219" lon="12.61358">
        <ele>821.58</ele>
        <time>2012-07-31T16:06:23Z</time>
      </trkpt>
      <trkpt lat="46.4023" lon="12.61355">
        <ele>822.55</ele>
        <time>2012-07-31T16:06:24Z</time>
      </trkpt>
      <trkpt lat="46.40241" lon="12.61354">
        <ele>823.51</ele>
        <time>2012-07-31T16:06:25Z</time>
      </trkpt>
      <trkpt lat="46.40252" lon="12.61354">
        <ele>823.99</ele>
        <time>2012-07-31T16:06:26Z</time>
      </trkpt>
      <trkpt lat="46.40263" lon="12.61351">
        <ele>824.47</ele>
        <time>2012-07-31T16:06:27Z</time>
      </trkpt>
      <trkpt lat="46.40274" lon="12.61344">
        <ele>825.91</ele>
        <time>2012-07-31T16:06:28Z</time>
      </trkpt>
      <trkpt lat="46.40284" lon="12.61333">
        <ele>826.39</ele>
        <time>2012-07-31T16:06:29Z</time>
      </trkpt>
      <trkpt lat="46.40293" lon="12.61316">
        <ele>828.79</ele>
        <time>2012-07-31T16:06:30Z</time>
      </trkpt>
      <trkpt lat="46.40299" lon="12.61296">
        <ele>829.76</ele>
        <time>2012-07-31T16:06:31Z</time>
      </trkpt>
      <trkpt lat="46.40302" lon="12.61274">
        <ele>831.68</ele>
        <time>2012-07-31T16:06:32Z</time>
      </trkpt>
      <trkpt lat="46.40305" lon="12.61254">
        <ele>832.16</ele>
        <time>2012-07-31T16:06:33Z</time>
      </trkpt>
      <trkpt lat="46.40307" lon="12.61237">
        <ele>832.16</ele>
        <time>2012-07-31T16:06:34Z</time>
      </trkpt>
      <trkpt lat="46.40312" lon="12.61222">
        <ele>834.56</ele>
        <time>2012-07-31T16:06:35Z</time>
      </trkpt>
      <trkpt lat="46.4032" lon="12.6121">
        <ele>835.04</ele>
        <time>2012-07-31T16:06:36Z</time>
      </trkpt>
      <trkpt lat="46.4033" lon="12.612">
        <ele>836.48</ele>
        <time>2012-07-31T16:06:37Z</time>
      </trkpt>
      <trkpt lat="46.40338" lon="12.61186">
        <ele>837.45</ele>
        <time>2012-07-31T16:06:38Z</time>
      </trkpt>
      <trkpt lat="46.40345" lon="12.61168">
        <ele>838.89</ele>
        <time>2012-07-31T16:06:39Z</time>
      </trkpt>
      <trkpt lat="46.4035" lon="12.61148">
        <ele>839.37</ele>
        <time>2012-07-31T16:06:40Z</time>
      </trkpt>
      <trkpt lat="46.40355" lon="12.61125">
        <ele>840.33</ele>
        <time>2012-07-31T16:06:41Z</time>
      </trkpt>
      <trkpt lat="46.40366" lon="12.61078">
        <ele>841.77</ele>
        <time>2012-07-31T16:06:43Z</time>
      </trkpt>
      <trkpt lat="46.40376" lon="12.6103">
        <ele>842.73</ele>
        <time>2012-07-31T16:06:45Z</time>
      </trkpt>
      <trkpt lat="46.40378" lon="12.61006">
        <ele>843.21</ele>
        <time>2012-07-31T16:06:46Z</time>
      </trkpt>
      <trkpt lat="46.40379" lon="12.60962">
        <ele>844.18</ele>
        <time>2012-07-31T16:06:48Z</time>
      </trkpt>
      <trkpt lat="46.40385" lon="12.60915">
        <ele>846.58</ele>
        <time>2012-07-31T16:06:50Z</time>
      </trkpt>
      <trkpt lat="46.40405" lon="12.60844">
        <ele>850.42</ele>
        <time>2012-07-31T16:06:53Z</time>
      </trkpt>
      <trkpt lat="46.40426" lon="12.60772">
        <ele>854.75</ele>
        <time>2012-07-31T16:06:56Z</time>
      </trkpt>
      <trkpt lat="46.40447" lon="12.60697">
        <ele>859.08</ele>
        <time>2012-07-31T16:06:59Z</time>
      </trkpt>
      <trkpt lat="46.40467" lon="12.60628">
        <ele>862.92</ele>
        <time>2012-07-31T16:07:02Z</time>
      </trkpt>
      <trkpt lat="46.40476" lon="12.60607">
        <ele>863.88</ele>
        <time>2012-07-31T16:07:03Z</time>
      </trkpt>
      <trkpt lat="46.40487" lon="12.60587">
        <ele>865.32</ele>
        <time>2012-07-31T16:07:04Z</time>
      </trkpt>
      <trkpt lat="46.40498" lon="12.60569">
        <ele>866.77</ele>
        <time>2012-07-31T16:07:05Z</time>
      </trkpt>
      <trkpt lat="46.40524" lon="12.60534">
        <ele>870.13</ele>
        <time>2012-07-31T16:07:07Z</time>
      </trkpt>
      <trkpt lat="46.40538" lon="12.60517">
        <ele>871.09</ele>
        <time>2012-07-31T16:07:08Z</time>
      </trkpt>
      <trkpt lat="46.40584" lon="12.60471">
        <ele>874.94</ele>
        <time>2012-07-31T16:07:11Z</time>
      </trkpt>
      <trkpt lat="46.40598" lon="12.60452">
        <ele>875.9</ele>
        <time>2012-07-31T16:07:12Z</time>
      </trkpt>
      <trkpt lat="46.40674" lon="12.60325">
        <ele>879.74</ele>
        <time>2012-07-31T16:07:18Z</time>
      </trkpt>
      <trkpt lat="46.40687" lon="12.60304">
        <ele>879.74</ele>
        <time>2012-07-31T16:07:19Z</time>
      </trkpt>
      <trkpt lat="46.40775" lon="12.60159">
        <ele>883.11</ele>
        <time>2012-07-31T16:07:26Z</time>
      </trkpt>
      <trkpt lat="46.40839" lon="12.60053">
        <ele>885.03</ele>
        <time>2012-07-31T16:07:31Z</time>
      </trkpt>
      <trkpt lat="46.40942" lon="12.59886">
        <ele>888.88</ele>
        <time>2012-07-31T16:07:40Z</time>
      </trkpt>
      <trkpt lat="46.41" lon="12.59787">
        <ele>890.8</ele>
        <time>2012-07-31T16:07:46Z</time>
      </trkpt>
      <trkpt lat="46.41006" lon="12.59768">
        <ele>891.28</ele>
        <time>2012-07-31T16:07:47Z</time>
      </trkpt>
      <trkpt lat="46.4101" lon="12.59748">
        <ele>891.76</ele>
        <time>2012-07-31T16:07:48Z</time>
      </trkpt>
      <trkpt lat="46.41012" lon="12.59726">
        <ele>891.76</ele>
        <time>2012-07-31T16:07:49Z</time>
      </trkpt>
      <trkpt lat="46.41014" lon="12.59703">
        <ele>892.24</ele>
        <time>2012-07-31T16:07:50Z</time>
      </trkpt>
      <trkpt lat="46.41022" lon="12.59513">
        <ele>895.12</ele>
        <time>2012-07-31T16:07:58Z</time>
      </trkpt>
      <trkpt lat="46.41024" lon="12.59464">
        <ele>896.57</ele>
        <time>2012-07-31T16:08:00Z</time>
      </trkpt>
      <trkpt lat="46.41032" lon="12.59382">
        <ele>898.97</ele>
        <time>2012-07-31T16:08:04Z</time>
      </trkpt>
      <trkpt lat="46.41038" lon="12.59365">
        <ele>899.45</ele>
        <time>2012-07-31T16:08:05Z</time>
      </trkpt>
      <trkpt lat="46.41047" lon="12.59351">
        <ele>899.93</ele>
        <time>2012-07-31T16:08:06Z</time>
      </trkpt>
      <trkpt lat="46.41057" lon="12.59337">
        <ele>900.89</ele>
        <time>2012-07-31T16:08:07Z</time>
      </trkpt>
      <trkpt lat="46.41068" lon="12.59324">
        <ele>900.41</ele>
        <time>2012-07-31T16:08:08Z</time>
      </trkpt>
      <trkpt lat="46.4111" lon="12.59264">
        <ele>896.09</ele>
        <time>2012-07-31T16:08:12Z</time>
      </trkpt>
      <trkpt lat="46.41142" lon="12.59215">
        <ele>892.24</ele>
        <time>2012-07-31T16:08:15Z</time>
      </trkpt>
      <trkpt lat="46.41175" lon="12.59142">
        <ele>888.4</ele>
        <time>2012-07-31T16:08:19Z</time>
      </trkpt>
      <trkpt lat="46.41183" lon="12.59123">
        <ele>887.91</ele>
        <time>2012-07-31T16:08:20Z</time>
      </trkpt>
      <trkpt lat="46.41205" lon="12.59069">
        <ele>885.03</ele>
        <time>2012-07-31T16:08:23Z</time>
      </trkpt>
      <trkpt lat="46.41226" lon="12.59018">
        <ele>881.67</ele>
        <time>2012-07-31T16:08:26Z</time>
      </trkpt>
      <trkpt lat="46.41232" lon="12.59002">
        <ele>881.67</ele>
        <time>2012-07-31T16:08:27Z</time>
      </trkpt>
      <trkpt lat="46.41257" lon="12.58943">
        <ele>877.82</ele>
        <time>2012-07-31T16:08:31Z</time>
      </trkpt>
      <trkpt lat="46.41271" lon="12.58892">
        <ele>873.98</ele>
        <time>2012-07-31T16:08:35Z</time>
      </trkpt>
      <trkpt lat="46.41276" lon="12.58871">
        <ele>873.01</ele>
        <time>2012-07-31T16:08:37Z</time>
      </trkpt>
      <trkpt lat="46.41283" lon="12.58842">
        <ele>871.09</ele>
        <time>2012-07-31T16:08:40Z</time>
      </trkpt>
      <trkpt lat="46.41286" lon="12.58832">
        <ele>871.09</ele>
        <time>2012-07-31T16:08:41Z</time>
      </trkpt>
      <trkpt lat="46.41299" lon="12.58806">
        <ele>869.17</ele>
        <time>2012-07-31T16:08:45Z</time>
      </trkpt>
      <trkpt lat="46.41302" lon="12.58801">
        <ele>868.69</ele>
        <time>2012-07-31T16:08:46Z</time>
      </trkpt>
      <trkpt lat="46.41341" lon="12.58743">
        <ele>866.29</ele>
        <time>2012-07-31T16:08:55Z</time>
      </trkpt>
      <trkpt lat="46.41366" lon="12.58712">
        <ele>864.36</ele>
        <time>2012-07-31T16:08:59Z</time>
      </trkpt>
      <trkpt lat="46.41372" lon="12.58707">
        <ele>862.92</ele>
        <time>2012-07-31T16:09:00Z</time>
      </trkpt>
      <trkpt lat="46.41378" lon="12.58703">
        <ele>862.44</ele>
        <time>2012-07-31T16:09:01Z</time>
      </trkpt>
      <trkpt lat="46.41384" lon="12.58701">
        <ele>861.48</ele>
        <time>2012-07-31T16:09:02Z</time>
      </trkpt>
      <trkpt lat="46.41389" lon="12.58699">
        <ele>861</ele>
        <time>2012-07-31T16:09:03Z</time>
      </trkpt>
      <trkpt lat="46.41395" lon="12.58695">
        <ele>860.52</ele>
        <time>2012-07-31T16:09:05Z</time>
      </trkpt>
      <trkpt lat="46.41396" lon="12.58692">
        <ele>860.52</ele>
        <time>2012-07-31T16:09:06Z</time>
      </trkpt>
      <trkpt lat="46.41395" lon="12.58689">
        <ele>860.52</ele>
        <time>2012-07-31T16:09:07Z</time>
      </trkpt>
      <trkpt lat="46.41392" lon="12.58687">
        <ele>860.52</ele>
        <time>2012-07-31T16:09:08Z</time>
      </trkpt>
      <trkpt lat="46.41389" lon="12.58685">
        <ele>861</ele>
        <time>2012-07-31T16:09:09Z</time>
      </trkpt>
      <trkpt lat="46.41386" lon="12.58684">
        <ele>860.52</ele>
        <time>2012-07-31T16:09:10Z</time>
      </trkpt>
      <trkpt lat="46.41383" lon="12.58683">
        <ele>861</ele>
        <time>2012-07-31T16:09:11Z</time>
      </trkpt>
      <trkpt lat="46.41379" lon="12.58682">
        <ele>860.52</ele>
        <time>2012-07-31T16:09:12Z</time>
      </trkpt>
      <trkpt lat="46.41376" lon="12.5868">
        <ele>861</ele>
        <time>2012-07-31T16:09:13Z</time>
      </trkpt>
      <trkpt lat="46.41373" lon="12.5868">
        <ele>861.48</ele>
        <time>2012-07-31T16:09:14Z</time>
      </trkpt>
      <trkpt lat="46.41371" lon="12.5868">
        <ele>861</ele>
        <time>2012-07-31T16:09:15Z</time>
      </trkpt>
      <trkpt lat="46.4137" lon="12.58679">
        <ele>861</ele>
        <time>2012-07-31T16:09:16Z</time>
      </trkpt>
      <trkpt lat="46.41367" lon="12.58679">
        <ele>861</ele>
        <time>2012-07-31T16:09:17Z</time>
      </trkpt>
      <trkpt lat="46.41364" lon="12.58678">
        <ele>861.48</ele>
        <time>2012-07-31T16:09:18Z</time>
      </trkpt>
      <trkpt lat="46.41308" lon="12.58671">
        <ele>862.44</ele>
        <time>2012-07-31T16:09:26Z</time>
      </trkpt>
      <trkpt lat="46.413" lon="12.58671">
        <ele>862.44</ele>
        <time>2012-07-31T16:09:27Z</time>
      </trkpt>
      <trkpt lat="46.41293" lon="12.58672">
        <ele>862.44</ele>
        <time>2012-07-31T16:09:28Z</time>
      </trkpt>
      <trkpt lat="46.41286" lon="12.58674">
        <ele>862.92</ele>
        <time>2012-07-31T16:09:29Z</time>
      </trkpt>
      <trkpt lat="46.41279" lon="12.58679">
        <ele>863.4</ele>
        <time>2012-07-31T16:09:30Z</time>
      </trkpt>
      <trkpt lat="46.41273" lon="12.58685">
        <ele>863.4</ele>
        <time>2012-07-31T16:09:31Z</time>
      </trkpt>
      <trkpt lat="46.41268" lon="12.58693">
        <ele>864.36</ele>
        <time>2012-07-31T16:09:32Z</time>
      </trkpt>
      <trkpt lat="46.41264" lon="12.58702">
        <ele>864.36</ele>
        <time>2012-07-31T16:09:33Z</time>
      </trkpt>
      <trkpt lat="46.41261" lon="12.58711">
        <ele>864.36</ele>
        <time>2012-07-31T16:09:34Z</time>
      </trkpt>
      <trkpt lat="46.41254" lon="12.58727">
        <ele>864.36</ele>
        <time>2012-07-31T16:09:36Z</time>
      </trkpt>
      <trkpt lat="46.41251" lon="12.58733">
        <ele>864.36</ele>
        <time>2012-07-31T16:09:37Z</time>
      </trkpt>
      <trkpt lat="46.41248" lon="12.58738">
        <ele>864.84</ele>
        <time>2012-07-31T16:09:38Z</time>
      </trkpt>
      <trkpt lat="46.41245" lon="12.5874">
        <ele>863.88</ele>
        <time>2012-07-31T16:09:39Z</time>
      </trkpt>
      <trkpt lat="46.41242" lon="12.58742">
        <ele>864.36</ele>
        <time>2012-07-31T16:09:40Z</time>
      </trkpt>
      <trkpt lat="46.4124" lon="12.58743">
        <ele>863.88</ele>
        <time>2012-07-31T16:09:41Z</time>
      </trkpt>
      <trkpt lat="46.4124" lon="12.58744">
        <ele>864.36</ele>
        <time>2012-07-31T16:09:51Z</time>
      </trkpt>
      <trkpt lat="46.41241" lon="12.58744">
        <ele>864.84</ele>
        <time>2012-07-31T16:10:31Z</time>
      </trkpt>
      <trkpt lat="46.41226" lon="12.58732">
        <ele>858.59</ele>
        <time>2012-07-31T16:19:03Z</time>
      </trkpt>
      <trkpt lat="46.41225" lon="12.58733">
        <ele>858.11</ele>
        <time>2012-07-31T16:19:04Z</time>
      </trkpt>
      <trkpt lat="46.41234" lon="12.58743">
        <ele>861.48</ele>
        <time>2012-07-31T16:19:17Z</time>
      </trkpt>
      <trkpt lat="46.41236" lon="12.58744">
        <ele>864.84</ele>
        <time>2012-07-31T16:19:20Z</time>
      </trkpt>
      <trkpt lat="46.41236" lon="12.58745">
        <ele>866.29</ele>
        <time>2012-07-31T16:19:22Z</time>
      </trkpt>
      <trkpt lat="46.41237" lon="12.58745">
        <ele>869.17</ele>
        <time>2012-07-31T16:19:25Z</time>
      </trkpt>
      <trkpt lat="46.41233" lon="12.58748">
        <ele>870.61</ele>
        <time>2012-07-31T16:19:27Z</time>
      </trkpt>
      <trkpt lat="46.4123" lon="12.58751">
        <ele>871.57</ele>
        <time>2012-07-31T16:19:28Z</time>
      </trkpt>
      <trkpt lat="46.41208" lon="12.5877">
        <ele>874.46</ele>
        <time>2012-07-31T16:19:33Z</time>
      </trkpt>
      <trkpt lat="46.41178" lon="12.58793">
        <ele>878.3</ele>
        <time>2012-07-31T16:19:38Z</time>
      </trkpt>
      <trkpt lat="46.4117" lon="12.58798">
        <ele>878.78</ele>
        <time>2012-07-31T16:19:39Z</time>
      </trkpt>
      <trkpt lat="46.41145" lon="12.58819">
        <ele>880.71</ele>
        <time>2012-07-31T16:19:44Z</time>
      </trkpt>
      <trkpt lat="46.41144" lon="12.58823">
        <ele>881.67</ele>
        <time>2012-07-31T16:19:45Z</time>
      </trkpt>
      <trkpt lat="46.41144" lon="12.58827">
        <ele>882.15</ele>
        <time>2012-07-31T16:19:46Z</time>
      </trkpt>
      <trkpt lat="46.41147" lon="12.5883">
        <ele>882.15</ele>
        <time>2012-07-31T16:19:47Z</time>
      </trkpt>
      <trkpt lat="46.41152" lon="12.5883">
        <ele>883.11</ele>
        <time>2012-07-31T16:19:48Z</time>
      </trkpt>
      <trkpt lat="46.41158" lon="12.58831">
        <ele>883.59</ele>
        <time>2012-07-31T16:19:49Z</time>
      </trkpt>
      <trkpt lat="46.41163" lon="12.58832">
        <ele>883.11</ele>
        <time>2012-07-31T16:19:50Z</time>
      </trkpt>
      <trkpt lat="46.41169" lon="12.58834">
        <ele>883.11</ele>
        <time>2012-07-31T16:19:51Z</time>
      </trkpt>
      <trkpt lat="46.41173" lon="12.58837">
        <ele>884.07</ele>
        <time>2012-07-31T16:19:52Z</time>
      </trkpt>
      <trkpt lat="46.41177" lon="12.58843">
        <ele>884.55</ele>
        <time>2012-07-31T16:19:53Z</time>
      </trkpt>
      <trkpt lat="46.41181" lon="12.5885">
        <ele>885.03</ele>
        <time>2012-07-31T16:19:54Z</time>
      </trkpt>
      <trkpt lat="46.41205" lon="12.58901">
        <ele>889.36</ele>
        <time>2012-07-31T16:19:59Z</time>
      </trkpt>
      <trkpt lat="46.41214" lon="12.58926">
        <ele>890.8</ele>
        <time>2012-07-31T16:20:01Z</time>
      </trkpt>
      <trkpt lat="46.41218" lon="12.58939">
        <ele>891.28</ele>
        <time>2012-07-31T16:20:02Z</time>
      </trkpt>
      <trkpt lat="46.41226" lon="12.58974">
        <ele>893.2</ele>
        <time>2012-07-31T16:20:05Z</time>
      </trkpt>
      <trkpt lat="46.41229" lon="12.58981">
        <ele>893.68</ele>
        <time>2012-07-31T16:20:06Z</time>
      </trkpt>
      <trkpt lat="46.41231" lon="12.58986">
        <ele>893.68</ele>
        <time>2012-07-31T16:20:07Z</time>
      </trkpt>
      <trkpt lat="46.41233" lon="12.58988">
        <ele>893.68</ele>
        <time>2012-07-31T16:20:08Z</time>
      </trkpt>
      <trkpt lat="46.41237" lon="12.5899">
        <ele>893.68</ele>
        <time>2012-07-31T16:20:16Z</time>
      </trkpt>
      <trkpt lat="46.4124" lon="12.58988">
        <ele>893.68</ele>
        <time>2012-07-31T16:20:17Z</time>
      </trkpt>
      <trkpt lat="46.41244" lon="12.58982">
        <ele>894.16</ele>
        <time>2012-07-31T16:20:18Z</time>
      </trkpt>
      <trkpt lat="46.41248" lon="12.58973">
        <ele>894.16</ele>
        <time>2012-07-31T16:20:19Z</time>
      </trkpt>
      <trkpt lat="46.41253" lon="12.58962">
        <ele>894.16</ele>
        <time>2012-07-31T16:20:20Z</time>
      </trkpt>
      <trkpt lat="46.41283" lon="12.5885">
        <ele>891.28</ele>
        <time>2012-07-31T16:20:26Z</time>
      </trkpt>
      <trkpt lat="46.41289" lon="12.58829">
        <ele>890.8</ele>
        <time>2012-07-31T16:20:27Z</time>
      </trkpt>
      <trkpt lat="46.41297" lon="12.58809">
        <ele>890.32</ele>
        <time>2012-07-31T16:20:28Z</time>
      </trkpt>
      <trkpt lat="46.41307" lon="12.58789">
        <ele>889.84</ele>
        <time>2012-07-31T16:20:29Z</time>
      </trkpt>
      <trkpt lat="46.41318" lon="12.58771">
        <ele>888.4</ele>
        <time>2012-07-31T16:20:30Z</time>
      </trkpt>
      <trkpt lat="46.41329" lon="12.58754">
        <ele>886.95</ele>
        <time>2012-07-31T16:20:31Z</time>
      </trkpt>
      <trkpt lat="46.41364" lon="12.58711">
        <ele>883.59</ele>
        <time>2012-07-31T16:20:34Z</time>
      </trkpt>
      <trkpt lat="46.41379" lon="12.58701">
        <ele>883.11</ele>
        <time>2012-07-31T16:20:35Z</time>
      </trkpt>
      <trkpt lat="46.41394" lon="12.58693">
        <ele>882.15</ele>
        <time>2012-07-31T16:20:36Z</time>
      </trkpt>
      <trkpt lat="46.4141" lon="12.58688">
        <ele>881.19</ele>
        <time>2012-07-31T16:20:37Z</time>
      </trkpt>
      <trkpt lat="46.41426" lon="12.58687">
        <ele>880.71</ele>
        <time>2012-07-31T16:20:38Z</time>
      </trkpt>
      <trkpt lat="46.41444" lon="12.58688">
        <ele>879.74</ele>
        <time>2012-07-31T16:20:39Z</time>
      </trkpt>
      <trkpt lat="46.41497" lon="12.58688">
        <ele>877.82</ele>
        <time>2012-07-31T16:20:42Z</time>
      </trkpt>
      <trkpt lat="46.41515" lon="12.58684">
        <ele>878.3</ele>
        <time>2012-07-31T16:20:43Z</time>
      </trkpt>
      <trkpt lat="46.41534" lon="12.58679">
        <ele>878.78</ele>
        <time>2012-07-31T16:20:44Z</time>
      </trkpt>
      <trkpt lat="46.4161" lon="12.58653">
        <ele>878.3</ele>
        <time>2012-07-31T16:20:48Z</time>
      </trkpt>
      <trkpt lat="46.41627" lon="12.58641">
        <ele>878.78</ele>
        <time>2012-07-31T16:20:49Z</time>
      </trkpt>
      <trkpt lat="46.41642" lon="12.58628">
        <ele>878.78</ele>
        <time>2012-07-31T16:20:50Z</time>
      </trkpt>
      <trkpt lat="46.41657" lon="12.58614">
        <ele>877.82</ele>
        <time>2012-07-31T16:20:51Z</time>
      </trkpt>
      <trkpt lat="46.41669" lon="12.58599">
        <ele>877.82</ele>
        <time>2012-07-31T16:20:52Z</time>
      </trkpt>
      <trkpt lat="46.41682" lon="12.58583">
        <ele>877.82</ele>
        <time>2012-07-31T16:20:53Z</time>
      </trkpt>
      <trkpt lat="46.41795" lon="12.58419">
        <ele>876.38</ele>
        <time>2012-07-31T16:21:04Z</time>
      </trkpt>
      <trkpt lat="46.41806" lon="12.58403">
        <ele>875.42</ele>
        <time>2012-07-31T16:21:06Z</time>
      </trkpt>
      <trkpt lat="46.41812" lon="12.58396">
        <ele>875.9</ele>
        <time>2012-07-31T16:21:07Z</time>
      </trkpt>
      <trkpt lat="46.41827" lon="12.58384">
        <ele>876.38</ele>
        <time>2012-07-31T16:21:09Z</time>
      </trkpt>
      <trkpt lat="46.41907" lon="12.58343">
        <ele>877.82</ele>
        <time>2012-07-31T16:21:15Z</time>
      </trkpt>
      <trkpt lat="46.42084" lon="12.58269">
        <ele>881.19</ele>
        <time>2012-07-31T16:21:26Z</time>
      </trkpt>
      <trkpt lat="46.42114" lon="12.58258">
        <ele>882.15</ele>
        <time>2012-07-31T16:21:28Z</time>
      </trkpt>
      <trkpt lat="46.42209" lon="12.58223">
        <ele>885.51</ele>
        <time>2012-07-31T16:21:35Z</time>
      </trkpt>
      <trkpt lat="46.42275" lon="12.58209">
        <ele>889.36</ele>
        <time>2012-07-31T16:21:40Z</time>
      </trkpt>
      <trkpt lat="46.42311" lon="12.58202">
        <ele>890.8</ele>
        <time>2012-07-31T16:21:43Z</time>
      </trkpt>
      <trkpt lat="46.42342" lon="12.58196">
        <ele>892.24</ele>
        <time>2012-07-31T16:21:46Z</time>
      </trkpt>
      <trkpt lat="46.42351" lon="12.58192">
        <ele>892.24</ele>
        <time>2012-07-31T16:21:47Z</time>
      </trkpt>
      <trkpt lat="46.42359" lon="12.58187">
        <ele>892.72</ele>
        <time>2012-07-31T16:21:48Z</time>
      </trkpt>
      <trkpt lat="46.42366" lon="12.5818">
        <ele>892.72</ele>
        <time>2012-07-31T16:21:49Z</time>
      </trkpt>
      <trkpt lat="46.42373" lon="12.5817">
        <ele>893.68</ele>
        <time>2012-07-31T16:21:50Z</time>
      </trkpt>
      <trkpt lat="46.42378" lon="12.58159">
        <ele>894.64</ele>
        <time>2012-07-31T16:21:51Z</time>
      </trkpt>
      <trkpt lat="46.42382" lon="12.58146">
        <ele>895.12</ele>
        <time>2012-07-31T16:21:52Z</time>
      </trkpt>
      <trkpt lat="46.42384" lon="12.58132">
        <ele>895.61</ele>
        <time>2012-07-31T16:21:53Z</time>
      </trkpt>
      <trkpt lat="46.42385" lon="12.58118">
        <ele>895.61</ele>
        <time>2012-07-31T16:21:54Z</time>
      </trkpt>
      <trkpt lat="46.42386" lon="12.58105">
        <ele>895.61</ele>
        <time>2012-07-31T16:21:55Z</time>
      </trkpt>
      <trkpt lat="46.42399" lon="12.57936">
        <ele>895.61</ele>
        <time>2012-07-31T16:22:07Z</time>
      </trkpt>
      <trkpt lat="46.42404" lon="12.57874">
        <ele>895.61</ele>
        <time>2012-07-31T16:22:15Z</time>
      </trkpt>
      <trkpt lat="46.42414" lon="12.5782">
        <ele>897.05</ele>
        <time>2012-07-31T16:22:20Z</time>
      </trkpt>
      <trkpt lat="46.42417" lon="12.57812">
        <ele>896.57</ele>
        <time>2012-07-31T16:22:21Z</time>
      </trkpt>
      <trkpt lat="46.42419" lon="12.57805">
        <ele>896.57</ele>
        <time>2012-07-31T16:22:22Z</time>
      </trkpt>
      <trkpt lat="46.42442" lon="12.57749">
        <ele>899.45</ele>
        <time>2012-07-31T16:22:30Z</time>
      </trkpt>
      <trkpt lat="46.42466" lon="12.57694">
        <ele>902.82</ele>
        <time>2012-07-31T16:22:35Z</time>
      </trkpt>
      <trkpt lat="46.42475" lon="12.57666">
        <ele>904.26</ele>
        <time>2012-07-31T16:22:37Z</time>
      </trkpt>
      <trkpt lat="46.42478" lon="12.57651">
        <ele>905.22</ele>
        <time>2012-07-31T16:22:38Z</time>
      </trkpt>
      <trkpt lat="46.4248" lon="12.57635">
        <ele>905.7</ele>
        <time>2012-07-31T16:22:39Z</time>
      </trkpt>
      <trkpt lat="46.42483" lon="12.57619">
        <ele>906.18</ele>
        <time>2012-07-31T16:22:40Z</time>
      </trkpt>
      <trkpt lat="46.42484" lon="12.57603">
        <ele>907.14</ele>
        <time>2012-07-31T16:22:41Z</time>
      </trkpt>
      <trkpt lat="46.42485" lon="12.57534">
        <ele>910.51</ele>
        <time>2012-07-31T16:22:45Z</time>
      </trkpt>
      <trkpt lat="46.42481" lon="12.57345">
        <ele>913.39</ele>
        <time>2012-07-31T16:22:56Z</time>
      </trkpt>
      <trkpt lat="46.42482" lon="12.5722">
        <ele>915.79</ele>
        <time>2012-07-31T16:23:03Z</time>
      </trkpt>
      <trkpt lat="46.42484" lon="12.57099">
        <ele>917.24</ele>
        <time>2012-07-31T16:23:09Z</time>
      </trkpt>
      <trkpt lat="46.42486" lon="12.57079">
        <ele>918.2</ele>
        <time>2012-07-31T16:23:10Z</time>
      </trkpt>
      <trkpt lat="46.4249" lon="12.57059">
        <ele>918.68</ele>
        <time>2012-07-31T16:23:11Z</time>
      </trkpt>
      <trkpt lat="46.42497" lon="12.5704">
        <ele>918.68</ele>
        <time>2012-07-31T16:23:12Z</time>
      </trkpt>
      <trkpt lat="46.42505" lon="12.57022">
        <ele>919.64</ele>
        <time>2012-07-31T16:23:13Z</time>
      </trkpt>
      <trkpt lat="46.42515" lon="12.57004">
        <ele>920.12</ele>
        <time>2012-07-31T16:23:14Z</time>
      </trkpt>
      <trkpt lat="46.42526" lon="12.56986">
        <ele>922.04</ele>
        <time>2012-07-31T16:23:15Z</time>
      </trkpt>
      <trkpt lat="46.42601" lon="12.56845">
        <ele>922.52</ele>
        <time>2012-07-31T16:23:22Z</time>
      </trkpt>
      <trkpt lat="46.42609" lon="12.56821">
        <ele>923</ele>
        <time>2012-07-31T16:23:23Z</time>
      </trkpt>
      <trkpt lat="46.42615" lon="12.56796">
        <ele>923.48</ele>
        <time>2012-07-31T16:23:24Z</time>
      </trkpt>
      <trkpt lat="46.42633" lon="12.56694">
        <ele>925.89</ele>
        <time>2012-07-31T16:23:28Z</time>
      </trkpt>
      <trkpt lat="46.42646" lon="12.56622">
        <ele>926.85</ele>
        <time>2012-07-31T16:23:31Z</time>
      </trkpt>
      <trkpt lat="46.42653" lon="12.566">
        <ele>927.33</ele>
        <time>2012-07-31T16:23:32Z</time>
      </trkpt>
      <trkpt lat="46.42662" lon="12.56581">
        <ele>927.81</ele>
        <time>2012-07-31T16:23:33Z</time>
      </trkpt>
      <trkpt lat="46.42674" lon="12.56564">
        <ele>928.77</ele>
        <time>2012-07-31T16:23:34Z</time>
      </trkpt>
      <trkpt lat="46.42686" lon="12.56548">
        <ele>930.21</ele>
        <time>2012-07-31T16:23:35Z</time>
      </trkpt>
      <trkpt lat="46.42696" lon="12.56529">
        <ele>930.69</ele>
        <time>2012-07-31T16:23:36Z</time>
      </trkpt>
      <trkpt lat="46.42704" lon="12.5651">
        <ele>931.65</ele>
        <time>2012-07-31T16:23:37Z</time>
      </trkpt>
      <trkpt lat="46.42712" lon="12.56491">
        <ele>932.14</ele>
        <time>2012-07-31T16:23:38Z</time>
      </trkpt>
      <trkpt lat="46.42723" lon="12.56476">
        <ele>933.1</ele>
        <time>2012-07-31T16:23:39Z</time>
      </trkpt>
      <trkpt lat="46.42736" lon="12.56461">
        <ele>935.02</ele>
        <time>2012-07-31T16:23:40Z</time>
      </trkpt>
      <trkpt lat="46.42748" lon="12.56444">
        <ele>935.98</ele>
        <time>2012-07-31T16:23:41Z</time>
      </trkpt>
      <trkpt lat="46.42759" lon="12.56424">
        <ele>937.42</ele>
        <time>2012-07-31T16:23:42Z</time>
      </trkpt>
      <trkpt lat="46.42792" lon="12.56359">
        <ele>940.31</ele>
        <time>2012-07-31T16:23:45Z</time>
      </trkpt>
      <trkpt lat="46.42823" lon="12.56293">
        <ele>943.67</ele>
        <time>2012-07-31T16:23:48Z</time>
      </trkpt>
      <trkpt lat="46.42841" lon="12.56246">
        <ele>946.07</ele>
        <time>2012-07-31T16:23:50Z</time>
      </trkpt>
      <trkpt lat="46.42848" lon="12.56221">
        <ele>946.56</ele>
        <time>2012-07-31T16:23:51Z</time>
      </trkpt>
      <trkpt lat="46.42854" lon="12.56198">
        <ele>947.52</ele>
        <time>2012-07-31T16:23:52Z</time>
      </trkpt>
      <trkpt lat="46.42862" lon="12.56175">
        <ele>948</ele>
        <time>2012-07-31T16:23:53Z</time>
      </trkpt>
      <trkpt lat="46.42873" lon="12.56156">
        <ele>949.92</ele>
        <time>2012-07-31T16:23:54Z</time>
      </trkpt>
      <trkpt lat="46.42887" lon="12.56139">
        <ele>950.4</ele>
        <time>2012-07-31T16:23:55Z</time>
      </trkpt>
      <trkpt lat="46.42901" lon="12.56124">
        <ele>951.36</ele>
        <time>2012-07-31T16:23:56Z</time>
      </trkpt>
      <trkpt lat="46.42941" lon="12.56071">
        <ele>954.73</ele>
        <time>2012-07-31T16:23:59Z</time>
      </trkpt>
      <trkpt lat="46.42952" lon="12.5605">
        <ele>955.69</ele>
        <time>2012-07-31T16:24:00Z</time>
      </trkpt>
      <trkpt lat="46.42962" lon="12.56028">
        <ele>956.65</ele>
        <time>2012-07-31T16:24:01Z</time>
      </trkpt>
      <trkpt lat="46.42997" lon="12.55936">
        <ele>959.53</ele>
        <time>2012-07-31T16:24:05Z</time>
      </trkpt>
      <trkpt lat="46.4304" lon="12.55809">
        <ele>958.09</ele>
        <time>2012-07-31T16:24:11Z</time>
      </trkpt>
      <trkpt lat="46.43049" lon="12.55795">
        <ele>958.09</ele>
        <time>2012-07-31T16:24:12Z</time>
      </trkpt>
      <trkpt lat="46.43061" lon="12.55787">
        <ele>958.57</ele>
        <time>2012-07-31T16:24:13Z</time>
      </trkpt>
      <trkpt lat="46.43075" lon="12.55783">
        <ele>959.05</ele>
        <time>2012-07-31T16:24:14Z</time>
      </trkpt>
      <trkpt lat="46.4309" lon="12.55783">
        <ele>959.53</ele>
        <time>2012-07-31T16:24:15Z</time>
      </trkpt>
      <trkpt lat="46.43105" lon="12.55783">
        <ele>959.05</ele>
        <time>2012-07-31T16:24:16Z</time>
      </trkpt>
      <trkpt lat="46.43119" lon="12.5578">
        <ele>960.01</ele>
        <time>2012-07-31T16:24:17Z</time>
      </trkpt>
      <trkpt lat="46.43133" lon="12.55773">
        <ele>960.49</ele>
        <time>2012-07-31T16:24:18Z</time>
      </trkpt>
      <trkpt lat="46.43147" lon="12.5576">
        <ele>960.98</ele>
        <time>2012-07-31T16:24:19Z</time>
      </trkpt>
      <trkpt lat="46.4316" lon="12.55746">
        <ele>960.98</ele>
        <time>2012-07-31T16:24:20Z</time>
      </trkpt>
      <trkpt lat="46.43181" lon="12.55721">
        <ele>960.01</ele>
        <time>2012-07-31T16:24:22Z</time>
      </trkpt>
      <trkpt lat="46.43188" lon="12.55706">
        <ele>959.05</ele>
        <time>2012-07-31T16:24:23Z</time>
      </trkpt>
      <trkpt lat="46.43194" lon="12.55689">
        <ele>960.01</ele>
        <time>2012-07-31T16:24:24Z</time>
      </trkpt>
      <trkpt lat="46.43194" lon="12.5567">
        <ele>960.49</ele>
        <time>2012-07-31T16:24:25Z</time>
      </trkpt>
      <trkpt lat="46.43188" lon="12.55649">
        <ele>961.46</ele>
        <time>2012-07-31T16:24:26Z</time>
      </trkpt>
      <trkpt lat="46.43174" lon="12.55605">
        <ele>962.42</ele>
        <time>2012-07-31T16:24:28Z</time>
      </trkpt>
      <trkpt lat="46.43168" lon="12.55563">
        <ele>962.42</ele>
        <time>2012-07-31T16:24:30Z</time>
      </trkpt>
      <trkpt lat="46.43163" lon="12.55544">
        <ele>961.94</ele>
        <time>2012-07-31T16:24:31Z</time>
      </trkpt>
      <trkpt lat="46.43156" lon="12.55528">
        <ele>961.94</ele>
        <time>2012-07-31T16:24:32Z</time>
      </trkpt>
      <trkpt lat="46.43151" lon="12.5551">
        <ele>961.94</ele>
        <time>2012-07-31T16:24:33Z</time>
      </trkpt>
      <trkpt lat="46.43147" lon="12.5549">
        <ele>962.9</ele>
        <time>2012-07-31T16:24:34Z</time>
      </trkpt>
      <trkpt lat="46.43145" lon="12.55468">
        <ele>962.9</ele>
        <time>2012-07-31T16:24:35Z</time>
      </trkpt>
      <trkpt lat="46.43143" lon="12.55446">
        <ele>963.38</ele>
        <time>2012-07-31T16:24:36Z</time>
      </trkpt>
      <trkpt lat="46.43136" lon="12.5537">
        <ele>962.42</ele>
        <time>2012-07-31T16:24:40Z</time>
      </trkpt>
      <trkpt lat="46.43141" lon="12.55352">
        <ele>962.9</ele>
        <time>2012-07-31T16:24:41Z</time>
      </trkpt>
      <trkpt lat="46.43149" lon="12.55336">
        <ele>963.38</ele>
        <time>2012-07-31T16:24:42Z</time>
      </trkpt>
      <trkpt lat="46.4316" lon="12.55323">
        <ele>962.9</ele>
        <time>2012-07-31T16:24:43Z</time>
      </trkpt>
      <trkpt lat="46.4317" lon="12.55311">
        <ele>962.42</ele>
        <time>2012-07-31T16:24:44Z</time>
      </trkpt>
      <trkpt lat="46.43179" lon="12.55295">
        <ele>962.9</ele>
        <time>2012-07-31T16:24:45Z</time>
      </trkpt>
      <trkpt lat="46.43185" lon="12.55276">
        <ele>962.9</ele>
        <time>2012-07-31T16:24:46Z</time>
      </trkpt>
      <trkpt lat="46.43187" lon="12.55254">
        <ele>963.38</ele>
        <time>2012-07-31T16:24:47Z</time>
      </trkpt>
      <trkpt lat="46.43187" lon="12.55231">
        <ele>963.86</ele>
        <time>2012-07-31T16:24:48Z</time>
      </trkpt>
      <trkpt lat="46.43187" lon="12.55208">
        <ele>963.86</ele>
        <time>2012-07-31T16:24:49Z</time>
      </trkpt>
      <trkpt lat="46.43188" lon="12.55164">
        <ele>963.38</ele>
        <time>2012-07-31T16:24:51Z</time>
      </trkpt>
      <trkpt lat="46.43192" lon="12.55142">
        <ele>963.86</ele>
        <time>2012-07-31T16:24:52Z</time>
      </trkpt>
      <trkpt lat="46.43197" lon="12.55121">
        <ele>964.34</ele>
        <time>2012-07-31T16:24:53Z</time>
      </trkpt>
      <trkpt lat="46.43206" lon="12.55102">
        <ele>964.34</ele>
        <time>2012-07-31T16:24:54Z</time>
      </trkpt>
      <trkpt lat="46.43216" lon="12.55084">
        <ele>964.34</ele>
        <time>2012-07-31T16:24:55Z</time>
      </trkpt>
      <trkpt lat="46.43228" lon="12.5507">
        <ele>964.34</ele>
        <time>2012-07-31T16:24:56Z</time>
      </trkpt>
      <trkpt lat="46.43242" lon="12.55058">
        <ele>964.82</ele>
        <time>2012-07-31T16:24:57Z</time>
      </trkpt>
      <trkpt lat="46.43258" lon="12.55049">
        <ele>965.3</ele>
        <time>2012-07-31T16:24:58Z</time>
      </trkpt>
      <trkpt lat="46.43275" lon="12.5504">
        <ele>965.78</ele>
        <time>2012-07-31T16:24:59Z</time>
      </trkpt>
      <trkpt lat="46.43294" lon="12.55029">
        <ele>965.78</ele>
        <time>2012-07-31T16:25:00Z</time>
      </trkpt>
      <trkpt lat="46.43309" lon="12.55016">
        <ele>965.78</ele>
        <time>2012-07-31T16:25:01Z</time>
      </trkpt>
      <trkpt lat="46.43325" lon="12.54999">
        <ele>966.26</ele>
        <time>2012-07-31T16:25:02Z</time>
      </trkpt>
      <trkpt lat="46.43392" lon="12.54899">
        <ele>966.74</ele>
        <time>2012-07-31T16:25:07Z</time>
      </trkpt>
      <trkpt lat="46.43401" lon="12.54874">
        <ele>966.26</ele>
        <time>2012-07-31T16:25:08Z</time>
      </trkpt>
      <trkpt lat="46.43407" lon="12.54848">
        <ele>966.74</ele>
        <time>2012-07-31T16:25:09Z</time>
      </trkpt>
      <trkpt lat="46.43428" lon="12.54774">
        <ele>969.15</ele>
        <time>2012-07-31T16:25:12Z</time>
      </trkpt>
      <trkpt lat="46.43438" lon="12.54751">
        <ele>970.11</ele>
        <time>2012-07-31T16:25:13Z</time>
      </trkpt>
      <trkpt lat="46.43449" lon="12.54729">
        <ele>971.55</ele>
        <time>2012-07-31T16:25:14Z</time>
      </trkpt>
      <trkpt lat="46.43484" lon="12.54669">
        <ele>973.95</ele>
        <time>2012-07-31T16:25:17Z</time>
      </trkpt>
      <trkpt lat="46.43496" lon="12.54651">
        <ele>974.91</ele>
        <time>2012-07-31T16:25:18Z</time>
      </trkpt>
      <trkpt lat="46.43509" lon="12.54637">
        <ele>975.88</ele>
        <time>2012-07-31T16:25:19Z</time>
      </trkpt>
      <trkpt lat="46.43524" lon="12.54627">
        <ele>977.32</ele>
        <time>2012-07-31T16:25:20Z</time>
      </trkpt>
      <trkpt lat="46.4354" lon="12.54621">
        <ele>977.8</ele>
        <time>2012-07-31T16:25:21Z</time>
      </trkpt>
      <trkpt lat="46.43555" lon="12.54616">
        <ele>979.24</ele>
        <time>2012-07-31T16:25:22Z</time>
      </trkpt>
      <trkpt lat="46.43571" lon="12.54609">
        <ele>979.72</ele>
        <time>2012-07-31T16:25:23Z</time>
      </trkpt>
      <trkpt lat="46.43585" lon="12.54597">
        <ele>980.68</ele>
        <time>2012-07-31T16:25:24Z</time>
      </trkpt>
      <trkpt lat="46.43597" lon="12.54582">
        <ele>982.12</ele>
        <time>2012-07-31T16:25:25Z</time>
      </trkpt>
      <trkpt lat="46.43633" lon="12.54534">
        <ele>985.01</ele>
        <time>2012-07-31T16:25:28Z</time>
      </trkpt>
      <trkpt lat="46.43647" lon="12.54522">
        <ele>985.49</ele>
        <time>2012-07-31T16:25:29Z</time>
      </trkpt>
      <trkpt lat="46.43663" lon="12.54515">
        <ele>986.93</ele>
        <time>2012-07-31T16:25:30Z</time>
      </trkpt>
      <trkpt lat="46.4368" lon="12.54512">
        <ele>987.89</ele>
        <time>2012-07-31T16:25:31Z</time>
      </trkpt>
      <trkpt lat="46.43696" lon="12.54511">
        <ele>989.33</ele>
        <time>2012-07-31T16:25:32Z</time>
      </trkpt>
      <trkpt lat="46.43713" lon="12.5451">
        <ele>990.78</ele>
        <time>2012-07-31T16:25:33Z</time>
      </trkpt>
      <trkpt lat="46.43729" lon="12.54506">
        <ele>991.26</ele>
        <time>2012-07-31T16:25:34Z</time>
      </trkpt>
      <trkpt lat="46.43746" lon="12.545">
        <ele>991.74</ele>
        <time>2012-07-31T16:25:35Z</time>
      </trkpt>
      <trkpt lat="46.43763" lon="12.54492">
        <ele>993.18</ele>
        <time>2012-07-31T16:25:36Z</time>
      </trkpt>
      <trkpt lat="46.43798" lon="12.5448">
        <ele>995.1</ele>
        <time>2012-07-31T16:25:38Z</time>
      </trkpt>
      <trkpt lat="46.43815" lon="12.54478">
        <ele>995.58</ele>
        <time>2012-07-31T16:25:39Z</time>
      </trkpt>
      <trkpt lat="46.43855" lon="12.54477">
        <ele>998.47</ele>
        <time>2012-07-31T16:25:42Z</time>
      </trkpt>
      <trkpt lat="46.43863" lon="12.54473">
        <ele>1000.87</ele>
        <time>2012-07-31T16:25:43Z</time>
      </trkpt>
      <trkpt lat="46.43891" lon="12.54459">
        <ele>1002.31</ele>
        <time>2012-07-31T16:25:45Z</time>
      </trkpt>
      <trkpt lat="46.43908" lon="12.54451">
        <ele>1003.27</ele>
        <time>2012-07-31T16:25:46Z</time>
      </trkpt>
      <trkpt lat="46.43924" lon="12.54437">
        <ele>1004.23</ele>
        <time>2012-07-31T16:25:47Z</time>
      </trkpt>
      <trkpt lat="46.43939" lon="12.54421">
        <ele>1004.72</ele>
        <time>2012-07-31T16:25:48Z</time>
      </trkpt>
      <trkpt lat="46.43956" lon="12.54406">
        <ele>1006.16</ele>
        <time>2012-07-31T16:25:49Z</time>
      </trkpt>
      <trkpt lat="46.43972" lon="12.54395">
        <ele>1007.12</ele>
        <time>2012-07-31T16:25:50Z</time>
      </trkpt>
      <trkpt lat="46.43986" lon="12.54385">
        <ele>1007.12</ele>
        <time>2012-07-31T16:25:51Z</time>
      </trkpt>
      <trkpt lat="46.44009" lon="12.54366">
        <ele>1007.6</ele>
        <time>2012-07-31T16:25:53Z</time>
      </trkpt>
      <trkpt lat="46.44017" lon="12.54353">
        <ele>1008.08</ele>
        <time>2012-07-31T16:25:54Z</time>
      </trkpt>
      <trkpt lat="46.44025" lon="12.54339">
        <ele>1009.04</ele>
        <time>2012-07-31T16:25:55Z</time>
      </trkpt>
      <trkpt lat="46.44035" lon="12.54327">
        <ele>1010</ele>
        <time>2012-07-31T16:25:56Z</time>
      </trkpt>
      <trkpt lat="46.44046" lon="12.54318">
        <ele>1010.96</ele>
        <time>2012-07-31T16:25:57Z</time>
      </trkpt>
      <trkpt lat="46.44059" lon="12.54311">
        <ele>1011.93</ele>
        <time>2012-07-31T16:25:58Z</time>
      </trkpt>
      <trkpt lat="46.44074" lon="12.54304">
        <ele>1013.37</ele>
        <time>2012-07-31T16:25:59Z</time>
      </trkpt>
      <trkpt lat="46.44099" lon="12.54287">
        <ele>1015.29</ele>
        <time>2012-07-31T16:26:01Z</time>
      </trkpt>
      <trkpt lat="46.44112" lon="12.54274">
        <ele>1017.21</ele>
        <time>2012-07-31T16:26:02Z</time>
      </trkpt>
      <trkpt lat="46.44126" lon="12.54259">
        <ele>1018.65</ele>
        <time>2012-07-31T16:26:03Z</time>
      </trkpt>
      <trkpt lat="46.44142" lon="12.54244">
        <ele>1020.1</ele>
        <time>2012-07-31T16:26:04Z</time>
      </trkpt>
      <trkpt lat="46.44158" lon="12.54231">
        <ele>1021.06</ele>
        <time>2012-07-31T16:26:05Z</time>
      </trkpt>
      <trkpt lat="46.44193" lon="12.54207">
        <ele>1023.94</ele>
        <time>2012-07-31T16:26:07Z</time>
      </trkpt>
      <trkpt lat="46.44249" lon="12.5418">
        <ele>1027.31</ele>
        <time>2012-07-31T16:26:10Z</time>
      </trkpt>
      <trkpt lat="46.443" lon="12.54154">
        <ele>1029.23</ele>
        <time>2012-07-31T16:26:13Z</time>
      </trkpt>
      <trkpt lat="46.44314" lon="12.54144">
        <ele>1030.19</ele>
        <time>2012-07-31T16:26:14Z</time>
      </trkpt>
      <trkpt lat="46.44327" lon="12.54128">
        <ele>1031.15</ele>
        <time>2012-07-31T16:26:15Z</time>
      </trkpt>
      <trkpt lat="46.44336" lon="12.54107">
        <ele>1032.59</ele>
        <time>2012-07-31T16:26:16Z</time>
      </trkpt>
      <trkpt lat="46.44346" lon="12.54084">
        <ele>1034.52</ele>
        <time>2012-07-31T16:26:17Z</time>
      </trkpt>
      <trkpt lat="46.44358" lon="12.54063">
        <ele>1035.48</ele>
        <time>2012-07-31T16:26:18Z</time>
      </trkpt>
      <trkpt lat="46.44371" lon="12.54044">
        <ele>1037.4</ele>
        <time>2012-07-31T16:26:19Z</time>
      </trkpt>
      <trkpt lat="46.44419" lon="12.53974">
        <ele>1040.76</ele>
        <time>2012-07-31T16:26:23Z</time>
      </trkpt>
      <trkpt lat="46.44425" lon="12.53954">
        <ele>1041.73</ele>
        <time>2012-07-31T16:26:24Z</time>
      </trkpt>
      <trkpt lat="46.44429" lon="12.53931">
        <ele>1043.17</ele>
        <time>2012-07-31T16:26:25Z</time>
      </trkpt>
      <trkpt lat="46.4443" lon="12.53909">
        <ele>1044.13</ele>
        <time>2012-07-31T16:26:26Z</time>
      </trkpt>
      <trkpt lat="46.44431" lon="12.53887">
        <ele>1044.13</ele>
        <time>2012-07-31T16:26:27Z</time>
      </trkpt>
      <trkpt lat="46.44435" lon="12.53829">
        <ele>1045.57</ele>
        <time>2012-07-31T16:26:30Z</time>
      </trkpt>
      <trkpt lat="46.4444" lon="12.53816">
        <ele>1045.57</ele>
        <time>2012-07-31T16:26:31Z</time>
      </trkpt>
      <trkpt lat="46.44448" lon="12.53804">
        <ele>1046.53</ele>
        <time>2012-07-31T16:26:32Z</time>
      </trkpt>
      <trkpt lat="46.44469" lon="12.53781">
        <ele>1047.49</ele>
        <time>2012-07-31T16:26:34Z</time>
      </trkpt>
      <trkpt lat="46.44536" lon="12.53723">
        <ele>1050.38</ele>
        <time>2012-07-31T16:26:39Z</time>
      </trkpt>
      <trkpt lat="46.44579" lon="12.53691">
        <ele>1052.78</ele>
        <time>2012-07-31T16:26:42Z</time>
      </trkpt>
      <trkpt lat="46.44602" lon="12.53669">
        <ele>1054.22</ele>
        <time>2012-07-31T16:26:44Z</time>
      </trkpt>
      <trkpt lat="46.4461" lon="12.53653">
        <ele>1055.67</ele>
        <time>2012-07-31T16:26:45Z</time>
      </trkpt>
      <trkpt lat="46.44617" lon="12.53634">
        <ele>1057.11</ele>
        <time>2012-07-31T16:26:46Z</time>
      </trkpt>
      <trkpt lat="46.44626" lon="12.53617">
        <ele>1057.59</ele>
        <time>2012-07-31T16:26:47Z</time>
      </trkpt>
      <trkpt lat="46.44636" lon="12.53601">
        <ele>1058.55</ele>
        <time>2012-07-31T16:26:48Z</time>
      </trkpt>
      <trkpt lat="46.44646" lon="12.53584">
        <ele>1059.51</ele>
        <time>2012-07-31T16:26:49Z</time>
      </trkpt>
      <trkpt lat="46.44665" lon="12.53543">
        <ele>1062.39</ele>
        <time>2012-07-31T16:26:51Z</time>
      </trkpt>
      <trkpt lat="46.44673" lon="12.53522">
        <ele>1063.36</ele>
        <time>2012-07-31T16:26:52Z</time>
      </trkpt>
      <trkpt lat="46.4468" lon="12.53501">
        <ele>1063.36</ele>
        <time>2012-07-31T16:26:53Z</time>
      </trkpt>
      <trkpt lat="46.44685" lon="12.53478">
        <ele>1065.28</ele>
        <time>2012-07-31T16:26:54Z</time>
      </trkpt>
      <trkpt lat="46.44694" lon="12.53458">
        <ele>1066.72</ele>
        <time>2012-07-31T16:26:55Z</time>
      </trkpt>
      <trkpt lat="46.44704" lon="12.53439">
        <ele>1068.64</ele>
        <time>2012-07-31T16:26:56Z</time>
      </trkpt>
      <trkpt lat="46.44713" lon="12.53418">
        <ele>1069.12</ele>
        <time>2012-07-31T16:26:57Z</time>
      </trkpt>
      <trkpt lat="46.44719" lon="12.53394">
        <ele>1070.57</ele>
        <time>2012-07-31T16:26:58Z</time>
      </trkpt>
      <trkpt lat="46.44726" lon="12.53372">
        <ele>1071.53</ele>
        <time>2012-07-31T16:26:59Z</time>
      </trkpt>
      <trkpt lat="46.44735" lon="12.5335">
        <ele>1072.97</ele>
        <time>2012-07-31T16:27:00Z</time>
      </trkpt>
      <trkpt lat="46.44746" lon="12.53329">
        <ele>1073.45</ele>
        <time>2012-07-31T16:27:01Z</time>
      </trkpt>
      <trkpt lat="46.44757" lon="12.53308">
        <ele>1073.93</ele>
        <time>2012-07-31T16:27:02Z</time>
      </trkpt>
      <trkpt lat="46.4479" lon="12.53248">
        <ele>1077.29</ele>
        <time>2012-07-31T16:27:05Z</time>
      </trkpt>
      <trkpt lat="46.44811" lon="12.53215">
        <ele>1077.78</ele>
        <time>2012-07-31T16:27:07Z</time>
      </trkpt>
      <trkpt lat="46.44822" lon="12.532">
        <ele>1078.74</ele>
        <time>2012-07-31T16:27:08Z</time>
      </trkpt>
      <trkpt lat="46.44831" lon="12.53183">
        <ele>1080.18</ele>
        <time>2012-07-31T16:27:09Z</time>
      </trkpt>
      <trkpt lat="46.44847" lon="12.53147">
        <ele>1081.14</ele>
        <time>2012-07-31T16:27:11Z</time>
      </trkpt>
      <trkpt lat="46.44858" lon="12.53134">
        <ele>1082.58</ele>
        <time>2012-07-31T16:27:12Z</time>
      </trkpt>
      <trkpt lat="46.44871" lon="12.53123">
        <ele>1083.54</ele>
        <time>2012-07-31T16:27:13Z</time>
      </trkpt>
      <trkpt lat="46.44883" lon="12.53111">
        <ele>1084.99</ele>
        <time>2012-07-31T16:27:14Z</time>
      </trkpt>
      <trkpt lat="46.44892" lon="12.53095">
        <ele>1085.47</ele>
        <time>2012-07-31T16:27:15Z</time>
      </trkpt>
      <trkpt lat="46.449" lon="12.53077">
        <ele>1085.95</ele>
        <time>2012-07-31T16:27:16Z</time>
      </trkpt>
      <trkpt lat="46.44909" lon="12.5306">
        <ele>1086.91</ele>
        <time>2012-07-31T16:27:17Z</time>
      </trkpt>
      <trkpt lat="46.44921" lon="12.53047">
        <ele>1088.35</ele>
        <time>2012-07-31T16:27:18Z</time>
      </trkpt>
      <trkpt lat="46.44935" lon="12.53034">
        <ele>1089.79</ele>
        <time>2012-07-31T16:27:19Z</time>
      </trkpt>
      <trkpt lat="46.44948" lon="12.53019">
        <ele>1090.75</ele>
        <time>2012-07-31T16:27:20Z</time>
      </trkpt>
      <trkpt lat="46.4496" lon="12.53004">
        <ele>1090.75</ele>
        <time>2012-07-31T16:27:21Z</time>
      </trkpt>
      <trkpt lat="46.44973" lon="12.52993">
        <ele>1091.23</ele>
        <time>2012-07-31T16:27:22Z</time>
      </trkpt>
      <trkpt lat="46.44999" lon="12.52978">
        <ele>1093.16</ele>
        <time>2012-07-31T16:27:24Z</time>
      </trkpt>
      <trkpt lat="46.45009" lon="12.52969">
        <ele>1092.68</ele>
        <time>2012-07-31T16:27:25Z</time>
      </trkpt>
      <trkpt lat="46.45017" lon="12.5296">
        <ele>1092.68</ele>
        <time>2012-07-31T16:27:26Z</time>
      </trkpt>
      <trkpt lat="46.45023" lon="12.52951">
        <ele>1093.16</ele>
        <time>2012-07-31T16:27:27Z</time>
      </trkpt>
      <trkpt lat="46.45028" lon="12.52941">
        <ele>1093.16</ele>
        <time>2012-07-31T16:27:28Z</time>
      </trkpt>
      <trkpt lat="46.4503" lon="12.52931">
        <ele>1093.16</ele>
        <time>2012-07-31T16:27:29Z</time>
      </trkpt>
      <trkpt lat="46.45029" lon="12.52919">
        <ele>1093.16</ele>
        <time>2012-07-31T16:27:30Z</time>
      </trkpt>
      <trkpt lat="46.45024" lon="12.52908">
        <ele>1093.16</ele>
        <time>2012-07-31T16:27:31Z</time>
      </trkpt>
      <trkpt lat="46.45019" lon="12.52901">
        <ele>1093.64</ele>
        <time>2012-07-31T16:27:32Z</time>
      </trkpt>
      <trkpt lat="46.45013" lon="12.52899">
        <ele>1093.64</ele>
        <time>2012-07-31T16:27:33Z</time>
      </trkpt>
      <trkpt lat="46.45008" lon="12.52898">
        <ele>1095.08</ele>
        <time>2012-07-31T16:27:34Z</time>
      </trkpt>
      <trkpt lat="46.45002" lon="12.52899">
        <ele>1095.56</ele>
        <time>2012-07-31T16:27:35Z</time>
      </trkpt>
      <trkpt lat="46.44994" lon="12.52901">
        <ele>1097</ele>
        <time>2012-07-31T16:27:36Z</time>
      </trkpt>
      <trkpt lat="46.44969" lon="12.5291">
        <ele>1098.44</ele>
        <time>2012-07-31T16:27:38Z</time>
      </trkpt>
      <trkpt lat="46.44954" lon="12.52915">
        <ele>1098.92</ele>
        <time>2012-07-31T16:27:39Z</time>
      </trkpt>
      <trkpt lat="46.44942" lon="12.52915">
        <ele>1099.89</ele>
        <time>2012-07-31T16:27:40Z</time>
      </trkpt>
      <trkpt lat="46.44931" lon="12.52911">
        <ele>1099.4</ele>
        <time>2012-07-31T16:27:41Z</time>
      </trkpt>
      <trkpt lat="46.44922" lon="12.52903">
        <ele>1100.37</ele>
        <time>2012-07-31T16:27:42Z</time>
      </trkpt>
      <trkpt lat="46.44916" lon="12.52892">
        <ele>1101.81</ele>
        <time>2012-07-31T16:27:43Z</time>
      </trkpt>
      <trkpt lat="46.44913" lon="12.52877">
        <ele>1102.77</ele>
        <time>2012-07-31T16:27:44Z</time>
      </trkpt>
      <trkpt lat="46.44913" lon="12.5286">
        <ele>1103.73</ele>
        <time>2012-07-31T16:27:45Z</time>
      </trkpt>
      <trkpt lat="46.44914" lon="12.52843">
        <ele>1104.69</ele>
        <time>2012-07-31T16:27:46Z</time>
      </trkpt>
      <trkpt lat="46.44915" lon="12.52825">
        <ele>1105.65</ele>
        <time>2012-07-31T16:27:47Z</time>
      </trkpt>
      <trkpt lat="46.44917" lon="12.52807">
        <ele>1106.61</ele>
        <time>2012-07-31T16:27:48Z</time>
      </trkpt>
      <trkpt lat="46.44918" lon="12.52787">
        <ele>1108.06</ele>
        <time>2012-07-31T16:27:49Z</time>
      </trkpt>
      <trkpt lat="46.44916" lon="12.52723">
        <ele>1111.42</ele>
        <time>2012-07-31T16:27:52Z</time>
      </trkpt>
      <trkpt lat="46.44918" lon="12.52655">
        <ele>1114.31</ele>
        <time>2012-07-31T16:27:55Z</time>
      </trkpt>
      <trkpt lat="46.44923" lon="12.52594">
        <ele>1116.23</ele>
        <time>2012-07-31T16:27:58Z</time>
      </trkpt>
      <trkpt lat="46.44922" lon="12.52574">
        <ele>1117.67</ele>
        <time>2012-07-31T16:27:59Z</time>
      </trkpt>
      <trkpt lat="46.44919" lon="12.52555">
        <ele>1118.15</ele>
        <time>2012-07-31T16:28:00Z</time>
      </trkpt>
      <trkpt lat="46.44915" lon="12.52536">
        <ele>1118.63</ele>
        <time>2012-07-31T16:28:01Z</time>
      </trkpt>
      <trkpt lat="46.44911" lon="12.52517">
        <ele>1119.59</ele>
        <time>2012-07-31T16:28:02Z</time>
      </trkpt>
      <trkpt lat="46.44902" lon="12.5248">
        <ele>1121.52</ele>
        <time>2012-07-31T16:28:04Z</time>
      </trkpt>
      <trkpt lat="46.44894" lon="12.52462">
        <ele>1122</ele>
        <time>2012-07-31T16:28:05Z</time>
      </trkpt>
      <trkpt lat="46.4487" lon="12.52411">
        <ele>1125.36</ele>
        <time>2012-07-31T16:28:08Z</time>
      </trkpt>
      <trkpt lat="46.44857" lon="12.52375">
        <ele>1127.28</ele>
        <time>2012-07-31T16:28:10Z</time>
      </trkpt>
      <trkpt lat="46.44854" lon="12.52355">
        <ele>1128.73</ele>
        <time>2012-07-31T16:28:11Z</time>
      </trkpt>
      <trkpt lat="46.44847" lon="12.52261">
        <ele>1132.09</ele>
        <time>2012-07-31T16:28:16Z</time>
      </trkpt>
      <trkpt lat="46.44849" lon="12.52248">
        <ele>1132.09</ele>
        <time>2012-07-31T16:28:17Z</time>
      </trkpt>
      <trkpt lat="46.44852" lon="12.52235">
        <ele>1133.05</ele>
        <time>2012-07-31T16:28:18Z</time>
      </trkpt>
      <trkpt lat="46.44858" lon="12.52223">
        <ele>1133.53</ele>
        <time>2012-07-31T16:28:19Z</time>
      </trkpt>
      <trkpt lat="46.44863" lon="12.52213">
        <ele>1134.01</ele>
        <time>2012-07-31T16:28:20Z</time>
      </trkpt>
      <trkpt lat="46.44866" lon="12.52202">
        <ele>1134.01</ele>
        <time>2012-07-31T16:28:21Z</time>
      </trkpt>
      <trkpt lat="46.44866" lon="12.52191">
        <ele>1134.49</ele>
        <time>2012-07-31T16:28:22Z</time>
      </trkpt>
      <trkpt lat="46.44864" lon="12.52183">
        <ele>1134.49</ele>
        <time>2012-07-31T16:28:23Z</time>
      </trkpt>
      <trkpt lat="46.44861" lon="12.52178">
        <ele>1134.01</ele>
        <time>2012-07-31T16:28:24Z</time>
      </trkpt>
      <trkpt lat="46.44858" lon="12.52174">
        <ele>1134.49</ele>
        <time>2012-07-31T16:28:25Z</time>
      </trkpt>
      <trkpt lat="46.44856" lon="12.52171">
        <ele>1134.49</ele>
        <time>2012-07-31T16:28:26Z</time>
      </trkpt>
      <trkpt lat="46.44854" lon="12.52167">
        <ele>1134.97</ele>
        <time>2012-07-31T16:28:27Z</time>
      </trkpt>
      <trkpt lat="46.44853" lon="12.52164">
        <ele>1134.49</ele>
        <time>2012-07-31T16:28:28Z</time>
      </trkpt>
      <trkpt lat="46.44854" lon="12.52161">
        <ele>1134.97</ele>
        <time>2012-07-31T16:28:38Z</time>
      </trkpt>
      <trkpt lat="46.44855" lon="12.5216">
        <ele>1134.97</ele>
        <time>2012-07-31T16:28:59Z</time>
      </trkpt>
      <trkpt lat="46.44856" lon="12.52163">
        <ele>1135.45</ele>
        <time>2012-07-31T16:29:32Z</time>
      </trkpt>
      <trkpt lat="46.44858" lon="12.52163">
        <ele>1135.94</ele>
        <time>2012-07-31T16:30:05Z</time>
      </trkpt>
      <trkpt lat="46.44858" lon="12.52164">
        <ele>1135.94</ele>
        <time>2012-07-31T16:30:37Z</time>
      </trkpt>
      <trkpt lat="46.4486" lon="12.52246">
        <ele>1137.86</ele>
        <time>2012-07-31T16:32:33Z</time>
      </trkpt>
      <trkpt lat="46.4486" lon="12.52275">
        <ele>1140.74</ele>
        <time>2012-07-31T16:32:36Z</time>
      </trkpt>
      <trkpt lat="46.44869" lon="12.52305">
        <ele>1143.14</ele>
        <time>2012-07-31T16:32:37Z</time>
      </trkpt>
      <trkpt lat="46.44889" lon="12.5237">
        <ele>1146.51</ele>
        <time>2012-07-31T16:32:40Z</time>
      </trkpt>
      <trkpt lat="46.44939" lon="12.52441">
        <ele>1151.8</ele>
        <time>2012-07-31T16:32:44Z</time>
      </trkpt>
      <trkpt lat="46.44952" lon="12.52462">
        <ele>1153.72</ele>
        <time>2012-07-31T16:32:45Z</time>
      </trkpt>
      <trkpt lat="46.44964" lon="12.52486">
        <ele>1155.16</ele>
        <time>2012-07-31T16:32:46Z</time>
      </trkpt>
      <trkpt lat="46.44974" lon="12.52511">
        <ele>1155.64</ele>
        <time>2012-07-31T16:32:47Z</time>
      </trkpt>
      <trkpt lat="46.44992" lon="12.52563">
        <ele>1159.49</ele>
        <time>2012-07-31T16:32:49Z</time>
      </trkpt>
      <trkpt lat="46.45012" lon="12.52612">
        <ele>1160.93</ele>
        <time>2012-07-31T16:32:51Z</time>
      </trkpt>
      <trkpt lat="46.45034" lon="12.52667">
        <ele>1160.93</ele>
        <time>2012-07-31T16:32:55Z</time>
      </trkpt>
      <trkpt lat="46.45039" lon="12.52672">
        <ele>1161.89</ele>
        <time>2012-07-31T16:32:56Z</time>
      </trkpt>
      <trkpt lat="46.45045" lon="12.52672">
        <ele>1161.89</ele>
        <time>2012-07-31T16:32:57Z</time>
      </trkpt>
      <trkpt lat="46.45051" lon="12.52667">
        <ele>1161.89</ele>
        <time>2012-07-31T16:32:58Z</time>
      </trkpt>
      <trkpt lat="46.45055" lon="12.52662">
        <ele>1163.33</ele>
        <time>2012-07-31T16:32:59Z</time>
      </trkpt>
      <trkpt lat="46.45059" lon="12.52656">
        <ele>1165.26</ele>
        <time>2012-07-31T16:33:00Z</time>
      </trkpt>
      <trkpt lat="46.45062" lon="12.52649">
        <ele>1167.18</ele>
        <time>2012-07-31T16:33:01Z</time>
      </trkpt>
      <trkpt lat="46.45064" lon="12.52642">
        <ele>1169.58</ele>
        <time>2012-07-31T16:33:02Z</time>
      </trkpt>
      <trkpt lat="46.45066" lon="12.52635">
        <ele>1172.95</ele>
        <time>2012-07-31T16:33:03Z</time>
      </trkpt>
      <trkpt lat="46.45067" lon="12.52627">
        <ele>1175.35</ele>
        <time>2012-07-31T16:33:04Z</time>
      </trkpt>
      <trkpt lat="46.45069" lon="12.52619">
        <ele>1176.79</ele>
        <time>2012-07-31T16:33:05Z</time>
      </trkpt>
      <trkpt lat="46.4507" lon="12.5261">
        <ele>1177.75</ele>
        <time>2012-07-31T16:33:06Z</time>
      </trkpt>
      <trkpt lat="46.45071" lon="12.526">
        <ele>1177.27</ele>
        <time>2012-07-31T16:33:07Z</time>
      </trkpt>
      <trkpt lat="46.45072" lon="12.52582">
        <ele>1178.23</ele>
        <time>2012-07-31T16:33:08Z</time>
      </trkpt>
      <trkpt lat="46.4507" lon="12.5256">
        <ele>1180.16</ele>
        <time>2012-07-31T16:33:09Z</time>
      </trkpt>
      <trkpt lat="46.44973" lon="12.52367">
        <ele>1182.08</ele>
        <time>2012-07-31T16:33:10Z</time>
      </trkpt>
      <trkpt lat="46.44965" lon="12.52351">
        <ele>1183.04</ele>
        <time>2012-07-31T16:33:11Z</time>
      </trkpt>
      <trkpt lat="46.44934" lon="12.52273">
        <ele>1184</ele>
        <time>2012-07-31T16:33:14Z</time>
      </trkpt>
      <trkpt lat="46.44932" lon="12.52254">
        <ele>1184</ele>
        <time>2012-07-31T16:33:15Z</time>
      </trkpt>
      <trkpt lat="46.44932" lon="12.52238">
        <ele>1184.48</ele>
        <time>2012-07-31T16:33:16Z</time>
      </trkpt>
      <trkpt lat="46.44935" lon="12.52224">
        <ele>1184</ele>
        <time>2012-07-31T16:33:17Z</time>
      </trkpt>
      <trkpt lat="46.44939" lon="12.52211">
        <ele>1184.48</ele>
        <time>2012-07-31T16:33:18Z</time>
      </trkpt>
      <trkpt lat="46.44946" lon="12.522">
        <ele>1186.4</ele>
        <time>2012-07-31T16:33:19Z</time>
      </trkpt>
      <trkpt lat="46.44957" lon="12.5219">
        <ele>1188.33</ele>
        <time>2012-07-31T16:33:20Z</time>
      </trkpt>
      <trkpt lat="46.4497" lon="12.5218">
        <ele>1189.29</ele>
        <time>2012-07-31T16:33:21Z</time>
      </trkpt>
      <trkpt lat="46.44983" lon="12.52167">
        <ele>1190.25</ele>
        <time>2012-07-31T16:33:22Z</time>
      </trkpt>
      <trkpt lat="46.44993" lon="12.52152">
        <ele>1190.73</ele>
        <time>2012-07-31T16:33:23Z</time>
      </trkpt>
      <trkpt lat="46.44999" lon="12.52136">
        <ele>1190.73</ele>
        <time>2012-07-31T16:33:24Z</time>
      </trkpt>
      <trkpt lat="46.45001" lon="12.52119">
        <ele>1191.21</ele>
        <time>2012-07-31T16:33:25Z</time>
      </trkpt>
      <trkpt lat="46.45002" lon="12.52104">
        <ele>1190.73</ele>
        <time>2012-07-31T16:33:26Z</time>
      </trkpt>
      <trkpt lat="46.45003" lon="12.52092">
        <ele>1190.25</ele>
        <time>2012-07-31T16:33:27Z</time>
      </trkpt>
      <trkpt lat="46.45006" lon="12.52083">
        <ele>1190.25</ele>
        <time>2012-07-31T16:33:28Z</time>
      </trkpt>
      <trkpt lat="46.4501" lon="12.52078">
        <ele>1190.25</ele>
        <time>2012-07-31T16:33:29Z</time>
      </trkpt>
      <trkpt lat="46.45016" lon="12.52078">
        <ele>1190.25</ele>
        <time>2012-07-31T16:33:30Z</time>
      </trkpt>
      <trkpt lat="46.45022" lon="12.5208">
        <ele>1190.25</ele>
        <time>2012-07-31T16:33:31Z</time>
      </trkpt>
      <trkpt lat="46.45028" lon="12.52086">
        <ele>1191.69</ele>
        <time>2012-07-31T16:33:32Z</time>
      </trkpt>
      <trkpt lat="46.45035" lon="12.52095">
        <ele>1192.65</ele>
        <time>2012-07-31T16:33:33Z</time>
      </trkpt>
      <trkpt lat="46.45047" lon="12.52113">
        <ele>1195.06</ele>
        <time>2012-07-31T16:33:35Z</time>
      </trkpt>
      <trkpt lat="46.4505" lon="12.52116">
        <ele>1196.5</ele>
        <time>2012-07-31T16:33:36Z</time>
      </trkpt>
      <trkpt lat="46.4499" lon="12.522">
        <ele>1196.98</ele>
        <time>2012-07-31T16:33:37Z</time>
      </trkpt>
      <trkpt lat="46.44978" lon="12.5221">
        <ele>1196.98</ele>
        <time>2012-07-31T16:33:38Z</time>
      </trkpt>
      <trkpt lat="46.4497" lon="12.52218">
        <ele>1196.98</ele>
        <time>2012-07-31T16:33:39Z</time>
      </trkpt>
      <trkpt lat="46.44963" lon="12.52226">
        <ele>1197.46</ele>
        <time>2012-07-31T16:33:40Z</time>
      </trkpt>
      <trkpt lat="46.44961" lon="12.52238">
        <ele>1197.94</ele>
        <time>2012-07-31T16:33:41Z</time>
      </trkpt>
      <trkpt lat="46.44962" lon="12.5225">
        <ele>1198.9</ele>
        <time>2012-07-31T16:33:42Z</time>
      </trkpt>
      <trkpt lat="46.44963" lon="12.52261">
        <ele>1199.86</ele>
        <time>2012-07-31T16:33:43Z</time>
      </trkpt>
      <trkpt lat="46.44966" lon="12.52272">
        <ele>1202.27</ele>
        <time>2012-07-31T16:33:44Z</time>
      </trkpt>
      <trkpt lat="46.44968" lon="12.523">
        <ele>1205.15</ele>
        <time>2012-07-31T16:33:46Z</time>
      </trkpt>
      <trkpt lat="46.44981" lon="12.52322">
        <ele>1207.07</ele>
        <time>2012-07-31T16:33:47Z</time>
      </trkpt>
      <trkpt lat="46.45003" lon="12.52365">
        <ele>1209.96</ele>
        <time>2012-07-31T16:33:49Z</time>
      </trkpt>
      <trkpt lat="46.45009" lon="12.52401">
        <ele>1213.8</ele>
        <time>2012-07-31T16:33:51Z</time>
      </trkpt>
      <trkpt lat="46.45023" lon="12.52426">
        <ele>1213.8</ele>
        <time>2012-07-31T16:33:52Z</time>
      </trkpt>
      <trkpt lat="46.45036" lon="12.52449">
        <ele>1214.28</ele>
        <time>2012-07-31T16:33:53Z</time>
      </trkpt>
      <trkpt lat="46.45047" lon="12.52471">
        <ele>1215.24</ele>
        <time>2012-07-31T16:33:54Z</time>
      </trkpt>
      <trkpt lat="46.45061" lon="12.52491">
        <ele>1216.69</ele>
        <time>2012-07-31T16:33:55Z</time>
      </trkpt>
      <trkpt lat="46.45077" lon="12.52509">
        <ele>1218.13</ele>
        <time>2012-07-31T16:33:56Z</time>
      </trkpt>
      <trkpt lat="46.45091" lon="12.52525">
        <ele>1217.65</ele>
        <time>2012-07-31T16:33:57Z</time>
      </trkpt>
      <trkpt lat="46.45105" lon="12.52538">
        <ele>1217.65</ele>
        <time>2012-07-31T16:33:58Z</time>
      </trkpt>
      <trkpt lat="46.45119" lon="12.52548">
        <ele>1218.61</ele>
        <time>2012-07-31T16:33:59Z</time>
      </trkpt>
      <trkpt lat="46.45134" lon="12.52553">
        <ele>1220.05</ele>
        <time>2012-07-31T16:34:00Z</time>
      </trkpt>
      <trkpt lat="46.4515" lon="12.52556">
        <ele>1220.53</ele>
        <time>2012-07-31T16:34:01Z</time>
      </trkpt>
      <trkpt lat="46.45163" lon="12.52557">
        <ele>1220.05</ele>
        <time>2012-07-31T16:34:02Z</time>
      </trkpt>
      <trkpt lat="46.45176" lon="12.52556">
        <ele>1219.57</ele>
        <time>2012-07-31T16:34:03Z</time>
      </trkpt>
      <trkpt lat="46.45185" lon="12.5255">
        <ele>1219.57</ele>
        <time>2012-07-31T16:34:04Z</time>
      </trkpt>
      <trkpt lat="46.45192" lon="12.52542">
        <ele>1219.57</ele>
        <time>2012-07-31T16:34:05Z</time>
      </trkpt>
      <trkpt lat="46.452" lon="12.52524">
        <ele>1220.05</ele>
        <time>2012-07-31T16:34:07Z</time>
      </trkpt>
      <trkpt lat="46.45203" lon="12.52515">
        <ele>1220.53</ele>
        <time>2012-07-31T16:34:08Z</time>
      </trkpt>
      <trkpt lat="46.45207" lon="12.52507">
        <ele>1221.01</ele>
        <time>2012-07-31T16:34:09Z</time>
      </trkpt>
      <trkpt lat="46.45212" lon="12.52499">
        <ele>1221.49</ele>
        <time>2012-07-31T16:34:10Z</time>
      </trkpt>
      <trkpt lat="46.45215" lon="12.52489">
        <ele>1221.97</ele>
        <time>2012-07-31T16:34:11Z</time>
      </trkpt>
      <trkpt lat="46.45218" lon="12.52476">
        <ele>1221.97</ele>
        <time>2012-07-31T16:34:12Z</time>
      </trkpt>
      <trkpt lat="46.45216" lon="12.52463">
        <ele>1223.42</ele>
        <time>2012-07-31T16:34:13Z</time>
      </trkpt>
      <trkpt lat="46.45122" lon="12.52496">
        <ele>1226.78</ele>
        <time>2012-07-31T16:34:15Z</time>
      </trkpt>
      <trkpt lat="46.45112" lon="12.52468">
        <ele>1227.26</ele>
        <time>2012-07-31T16:34:16Z</time>
      </trkpt>
      <trkpt lat="46.45106" lon="12.52452">
        <ele>1227.26</ele>
        <time>2012-07-31T16:34:17Z</time>
      </trkpt>
      <trkpt lat="46.45098" lon="12.5242">
        <ele>1229.66</ele>
        <time>2012-07-31T16:34:19Z</time>
      </trkpt>
      <trkpt lat="46.45097" lon="12.52401">
        <ele>1230.62</ele>
        <time>2012-07-31T16:34:20Z</time>
      </trkpt>
      <trkpt lat="46.45095" lon="12.52364">
        <ele>1233.51</ele>
        <time>2012-07-31T16:34:22Z</time>
      </trkpt>
      <trkpt lat="46.45094" lon="12.52346">
        <ele>1234.47</ele>
        <time>2012-07-31T16:34:23Z</time>
      </trkpt>
      <trkpt lat="46.45083" lon="12.52312">
        <ele>1235.43</ele>
        <time>2012-07-31T16:34:25Z</time>
      </trkpt>
      <trkpt lat="46.4507" lon="12.52285">
        <ele>1235.43</ele>
        <time>2012-07-31T16:34:27Z</time>
      </trkpt>
      <trkpt lat="46.45069" lon="12.52271">
        <ele>1236.39</ele>
        <time>2012-07-31T16:34:28Z</time>
      </trkpt>
      <trkpt lat="46.45073" lon="12.52255">
        <ele>1237.35</ele>
        <time>2012-07-31T16:34:29Z</time>
      </trkpt>
      <trkpt lat="46.45077" lon="12.52239">
        <ele>1239.28</ele>
        <time>2012-07-31T16:34:30Z</time>
      </trkpt>
      <trkpt lat="46.45082" lon="12.52219">
        <ele>1240.72</ele>
        <time>2012-07-31T16:34:31Z</time>
      </trkpt>
      <trkpt lat="46.45089" lon="12.52201">
        <ele>1241.68</ele>
        <time>2012-07-31T16:34:32Z</time>
      </trkpt>
      <trkpt lat="46.45097" lon="12.52186">
        <ele>1241.68</ele>
        <time>2012-07-31T16:34:33Z</time>
      </trkpt>
      <trkpt lat="46.45103" lon="12.5217">
        <ele>1242.16</ele>
        <time>2012-07-31T16:34:34Z</time>
      </trkpt>
      <trkpt lat="46.45107" lon="12.52149">
        <ele>1243.12</ele>
        <time>2012-07-31T16:34:35Z</time>
      </trkpt>
      <trkpt lat="46.4511" lon="12.52076">
        <ele>1246.97</ele>
        <time>2012-07-31T16:34:38Z</time>
      </trkpt>
      <trkpt lat="46.45112" lon="12.52053">
        <ele>1247.45</ele>
        <time>2012-07-31T16:34:39Z</time>
      </trkpt>
      <trkpt lat="46.45115" lon="12.52035">
        <ele>1246.49</ele>
        <time>2012-07-31T16:34:40Z</time>
      </trkpt>
      <trkpt lat="46.45121" lon="12.52021">
        <ele>1246.97</ele>
        <time>2012-07-31T16:34:41Z</time>
      </trkpt>
      <trkpt lat="46.45131" lon="12.5201">
        <ele>1247.93</ele>
        <time>2012-07-31T16:34:42Z</time>
      </trkpt>
      <trkpt lat="46.45144" lon="12.52002">
        <ele>1249.85</ele>
        <time>2012-07-31T16:34:43Z</time>
      </trkpt>
      <trkpt lat="46.45158" lon="12.51993">
        <ele>1250.81</ele>
        <time>2012-07-31T16:34:44Z</time>
      </trkpt>
      <trkpt lat="46.45173" lon="12.51984">
        <ele>1251.77</ele>
        <time>2012-07-31T16:34:45Z</time>
      </trkpt>
      <trkpt lat="46.45186" lon="12.51976">
        <ele>1251.29</ele>
        <time>2012-07-31T16:34:46Z</time>
      </trkpt>
      <trkpt lat="46.45199" lon="12.51974">
        <ele>1252.25</ele>
        <time>2012-07-31T16:34:47Z</time>
      </trkpt>
      <trkpt lat="46.45211" lon="12.51973">
        <ele>1253.22</ele>
        <time>2012-07-31T16:34:48Z</time>
      </trkpt>
      <trkpt lat="46.45221" lon="12.51969">
        <ele>1253.7</ele>
        <time>2012-07-31T16:34:49Z</time>
      </trkpt>
      <trkpt lat="46.4523" lon="12.51958">
        <ele>1254.66</ele>
        <time>2012-07-31T16:34:50Z</time>
      </trkpt>
      <trkpt lat="46.45236" lon="12.51941">
        <ele>1255.62</ele>
        <time>2012-07-31T16:34:51Z</time>
      </trkpt>
      <trkpt lat="46.4524" lon="12.51921">
        <ele>1257.06</ele>
        <time>2012-07-31T16:34:52Z</time>
      </trkpt>
      <trkpt lat="46.45245" lon="12.51901">
        <ele>1257.54</ele>
        <time>2012-07-31T16:34:53Z</time>
      </trkpt>
      <trkpt lat="46.45252" lon="12.51885">
        <ele>1258.02</ele>
        <time>2012-07-31T16:34:54Z</time>
      </trkpt>
      <trkpt lat="46.45262" lon="12.51873">
        <ele>1258.98</ele>
        <time>2012-07-31T16:34:55Z</time>
      </trkpt>
      <trkpt lat="46.45276" lon="12.51867">
        <ele>1260.43</ele>
        <time>2012-07-31T16:34:56Z</time>
      </trkpt>
      <trkpt lat="46.45291" lon="12.51863">
        <ele>1261.87</ele>
        <time>2012-07-31T16:34:57Z</time>
      </trkpt>
      <trkpt lat="46.45341" lon="12.51843">
        <ele>1265.71</ele>
        <time>2012-07-31T16:35:00Z</time>
      </trkpt>
      <trkpt lat="46.45356" lon="12.51834">
        <ele>1266.19</ele>
        <time>2012-07-31T16:35:01Z</time>
      </trkpt>
      <trkpt lat="46.45369" lon="12.51824">
        <ele>1266.67</ele>
        <time>2012-07-31T16:35:02Z</time>
      </trkpt>
      <trkpt lat="46.4538" lon="12.51809">
        <ele>1268.12</ele>
        <time>2012-07-31T16:35:03Z</time>
      </trkpt>
      <trkpt lat="46.4539" lon="12.51789">
        <ele>1269.08</ele>
        <time>2012-07-31T16:35:04Z</time>
      </trkpt>
      <trkpt lat="46.45398" lon="12.51766">
        <ele>1270.04</ele>
        <time>2012-07-31T16:35:05Z</time>
      </trkpt>
      <trkpt lat="46.45402" lon="12.51743">
        <ele>1270.04</ele>
        <time>2012-07-31T16:35:06Z</time>
      </trkpt>
      <trkpt lat="46.45406" lon="12.51722">
        <ele>1270.04</ele>
        <time>2012-07-31T16:35:07Z</time>
      </trkpt>
      <trkpt lat="46.45413" lon="12.51704">
        <ele>1270.52</ele>
        <time>2012-07-31T16:35:08Z</time>
      </trkpt>
      <trkpt lat="46.45422" lon="12.51691">
        <ele>1271.48</ele>
        <time>2012-07-31T16:35:09Z</time>
      </trkpt>
      <trkpt lat="46.45431" lon="12.51679">
        <ele>1271</ele>
        <time>2012-07-31T16:35:10Z</time>
      </trkpt>
      <trkpt lat="46.45435" lon="12.51666">
        <ele>1271.48</ele>
        <time>2012-07-31T16:35:11Z</time>
      </trkpt>
      <trkpt lat="46.45435" lon="12.51651">
        <ele>1272.44</ele>
        <time>2012-07-31T16:35:12Z</time>
      </trkpt>
      <trkpt lat="46.45429" lon="12.51636">
        <ele>1273.4</ele>
        <time>2012-07-31T16:35:13Z</time>
      </trkpt>
      <trkpt lat="46.45419" lon="12.51624">
        <ele>1274.85</ele>
        <time>2012-07-31T16:35:14Z</time>
      </trkpt>
      <trkpt lat="46.45407" lon="12.51613">
        <ele>1276.77</ele>
        <time>2012-07-31T16:35:15Z</time>
      </trkpt>
      <trkpt lat="46.45395" lon="12.516">
        <ele>1276.77</ele>
        <time>2012-07-31T16:35:16Z</time>
      </trkpt>
      <trkpt lat="46.45387" lon="12.51587">
        <ele>1277.25</ele>
        <time>2012-07-31T16:35:17Z</time>
      </trkpt>
      <trkpt lat="46.45379" lon="12.51572">
        <ele>1277.73</ele>
        <time>2012-07-31T16:35:18Z</time>
      </trkpt>
      <trkpt lat="46.45373" lon="12.51555">
        <ele>1278.69</ele>
        <time>2012-07-31T16:35:19Z</time>
      </trkpt>
      <trkpt lat="46.45373" lon="12.51537">
        <ele>1279.65</ele>
        <time>2012-07-31T16:35:20Z</time>
      </trkpt>
      <trkpt lat="46.45378" lon="12.51519">
        <ele>1281.09</ele>
        <time>2012-07-31T16:35:21Z</time>
      </trkpt>
      <trkpt lat="46.45387" lon="12.51503">
        <ele>1282.54</ele>
        <time>2012-07-31T16:35:22Z</time>
      </trkpt>
      <trkpt lat="46.45397" lon="12.51487">
        <ele>1283.02</ele>
        <time>2012-07-31T16:35:23Z</time>
      </trkpt>
      <trkpt lat="46.45404" lon="12.51472">
        <ele>1283.02</ele>
        <time>2012-07-31T16:35:24Z</time>
      </trkpt>
      <trkpt lat="46.45409" lon="12.51456">
        <ele>1283.5</ele>
        <time>2012-07-31T16:35:25Z</time>
      </trkpt>
      <trkpt lat="46.45412" lon="12.51442">
        <ele>1283.5</ele>
        <time>2012-07-31T16:35:26Z</time>
      </trkpt>
      <trkpt lat="46.45415" lon="12.51428">
        <ele>1283.98</ele>
        <time>2012-07-31T16:35:27Z</time>
      </trkpt>
      <trkpt lat="46.45424" lon="12.51383">
        <ele>1285.42</ele>
        <time>2012-07-31T16:35:30Z</time>
      </trkpt>
      <trkpt lat="46.45429" lon="12.51368">
        <ele>1286.38</ele>
        <time>2012-07-31T16:35:31Z</time>
      </trkpt>
      <trkpt lat="46.45435" lon="12.51354">
        <ele>1286.86</ele>
        <time>2012-07-31T16:35:32Z</time>
      </trkpt>
      <trkpt lat="46.45442" lon="12.51341">
        <ele>1286.86</ele>
        <time>2012-07-31T16:35:33Z</time>
      </trkpt>
      <trkpt lat="46.45451" lon="12.5133">
        <ele>1287.34</ele>
        <time>2012-07-31T16:35:34Z</time>
      </trkpt>
      <trkpt lat="46.45461" lon="12.5132">
        <ele>1287.34</ele>
        <time>2012-07-31T16:35:35Z</time>
      </trkpt>
      <trkpt lat="46.45471" lon="12.51313">
        <ele>1286.86</ele>
        <time>2012-07-31T16:35:36Z</time>
      </trkpt>
      <trkpt lat="46.45481" lon="12.51309">
        <ele>1284.94</ele>
        <time>2012-07-31T16:35:37Z</time>
      </trkpt>
      <trkpt lat="46.45491" lon="12.51309">
        <ele>1283.5</ele>
        <time>2012-07-31T16:35:38Z</time>
      </trkpt>
      <trkpt lat="46.455" lon="12.51314">
        <ele>1283.5</ele>
        <time>2012-07-31T16:35:39Z</time>
      </trkpt>
      <trkpt lat="46.45509" lon="12.51322">
        <ele>1283.02</ele>
        <time>2012-07-31T16:35:40Z</time>
      </trkpt>
      <trkpt lat="46.45516" lon="12.51332">
        <ele>1282.06</ele>
        <time>2012-07-31T16:35:41Z</time>
      </trkpt>
      <trkpt lat="46.4552" lon="12.51345">
        <ele>1281.09</ele>
        <time>2012-07-31T16:35:42Z</time>
      </trkpt>
      <trkpt lat="46.45524" lon="12.51362">
        <ele>1281.57</ele>
        <time>2012-07-31T16:35:43Z</time>
      </trkpt>
      <trkpt lat="46.45524" lon="12.51379">
        <ele>1281.57</ele>
        <time>2012-07-31T16:35:44Z</time>
      </trkpt>
      <trkpt lat="46.45527" lon="12.51398">
        <ele>1281.57</ele>
        <time>2012-07-31T16:35:45Z</time>
      </trkpt>
      <trkpt lat="46.45533" lon="12.51416">
        <ele>1280.61</ele>
        <time>2012-07-31T16:35:46Z</time>
      </trkpt>
      <trkpt lat="46.4554" lon="12.51434">
        <ele>1279.65</ele>
        <time>2012-07-31T16:35:47Z</time>
      </trkpt>
      <trkpt lat="46.45547" lon="12.51449">
        <ele>1278.69</ele>
        <time>2012-07-31T16:35:48Z</time>
      </trkpt>
      <trkpt lat="46.45555" lon="12.51461">
        <ele>1277.25</ele>
        <time>2012-07-31T16:35:49Z</time>
      </trkpt>
      <trkpt lat="46.45565" lon="12.51469">
        <ele>1277.25</ele>
        <time>2012-07-31T16:35:50Z</time>
      </trkpt>
      <trkpt lat="46.45577" lon="12.51471">
        <ele>1274.85</ele>
        <time>2012-07-31T16:35:51Z</time>
      </trkpt>
      <trkpt lat="46.45589" lon="12.51469">
        <ele>1274.36</ele>
        <time>2012-07-31T16:35:52Z</time>
      </trkpt>
      <trkpt lat="46.45599" lon="12.51462">
        <ele>1273.88</ele>
        <time>2012-07-31T16:35:53Z</time>
      </trkpt>
      <trkpt lat="46.45608" lon="12.51452">
        <ele>1272.92</ele>
        <time>2012-07-31T16:35:54Z</time>
      </trkpt>
      <trkpt lat="46.45616" lon="12.51438">
        <ele>1272.44</ele>
        <time>2012-07-31T16:35:55Z</time>
      </trkpt>
      <trkpt lat="46.45623" lon="12.5142">
        <ele>1272.92</ele>
        <time>2012-07-31T16:35:56Z</time>
      </trkpt>
      <trkpt lat="46.45631" lon="12.51401">
        <ele>1272.44</ele>
        <time>2012-07-31T16:35:57Z</time>
      </trkpt>
      <trkpt lat="46.45666" lon="12.51317">
        <ele>1269.08</ele>
        <time>2012-07-31T16:36:01Z</time>
      </trkpt>
      <trkpt lat="46.45681" lon="12.51277">
        <ele>1265.71</ele>
        <time>2012-07-31T16:36:03Z</time>
      </trkpt>
      <trkpt lat="46.45697" lon="12.51243">
        <ele>1263.31</ele>
        <time>2012-07-31T16:36:05Z</time>
      </trkpt>
      <trkpt lat="46.45708" lon="12.51228">
        <ele>1262.83</ele>
        <time>2012-07-31T16:36:06Z</time>
      </trkpt>
      <trkpt lat="46.4572" lon="12.51216">
        <ele>1262.35</ele>
        <time>2012-07-31T16:36:07Z</time>
      </trkpt>
      <trkpt lat="46.45736" lon="12.51206">
        <ele>1261.87</ele>
        <time>2012-07-31T16:36:08Z</time>
      </trkpt>
      <trkpt lat="46.45752" lon="12.51196">
        <ele>1260.91</ele>
        <time>2012-07-31T16:36:09Z</time>
      </trkpt>
      <trkpt lat="46.45769" lon="12.51185">
        <ele>1260.91</ele>
        <time>2012-07-31T16:36:10Z</time>
      </trkpt>
      <trkpt lat="46.45802" lon="12.51164">
        <ele>1257.54</ele>
        <time>2012-07-31T16:36:12Z</time>
      </trkpt>
      <trkpt lat="46.45831" lon="12.51146">
        <ele>1254.18</ele>
        <time>2012-07-31T16:36:14Z</time>
      </trkpt>
      <trkpt lat="46.45843" lon="12.51138">
        <ele>1252.74</ele>
        <time>2012-07-31T16:36:15Z</time>
      </trkpt>
      <trkpt lat="46.45853" lon="12.51127">
        <ele>1251.77</ele>
        <time>2012-07-31T16:36:16Z</time>
      </trkpt>
      <trkpt lat="46.45859" lon="12.51113">
        <ele>1250.81</ele>
        <time>2012-07-31T16:36:17Z</time>
      </trkpt>
      <trkpt lat="46.45862" lon="12.51098">
        <ele>1250.33</ele>
        <time>2012-07-31T16:36:18Z</time>
      </trkpt>
      <trkpt lat="46.45862" lon="12.5108">
        <ele>1249.37</ele>
        <time>2012-07-31T16:36:19Z</time>
      </trkpt>
      <trkpt lat="46.4586" lon="12.51062">
        <ele>1249.85</ele>
        <time>2012-07-31T16:36:20Z</time>
      </trkpt>
      <trkpt lat="46.45858" lon="12.51044">
        <ele>1248.89</ele>
        <time>2012-07-31T16:36:21Z</time>
      </trkpt>
      <trkpt lat="46.4586" lon="12.51026">
        <ele>1247.45</ele>
        <time>2012-07-31T16:36:22Z</time>
      </trkpt>
      <trkpt lat="46.45864" lon="12.51009">
        <ele>1246.49</ele>
        <time>2012-07-31T16:36:23Z</time>
      </trkpt>
      <trkpt lat="46.4587" lon="12.50995">
        <ele>1245.53</ele>
        <time>2012-07-31T16:36:24Z</time>
      </trkpt>
      <trkpt lat="46.4588" lon="12.50984">
        <ele>1244.56</ele>
        <time>2012-07-31T16:36:25Z</time>
      </trkpt>
      <trkpt lat="46.45893" lon="12.50977">
        <ele>1244.56</ele>
        <time>2012-07-31T16:36:26Z</time>
      </trkpt>
      <trkpt lat="46.45906" lon="12.50974">
        <ele>1243.6</ele>
        <time>2012-07-31T16:36:27Z</time>
      </trkpt>
      <trkpt lat="46.45919" lon="12.5097">
        <ele>1242.16</ele>
        <time>2012-07-31T16:36:28Z</time>
      </trkpt>
      <trkpt lat="46.45931" lon="12.50962">
        <ele>1240.72</ele>
        <time>2012-07-31T16:36:29Z</time>
      </trkpt>
      <trkpt lat="46.45942" lon="12.50949">
        <ele>1240.72</ele>
        <time>2012-07-31T16:36:30Z</time>
      </trkpt>
      <trkpt lat="46.45953" lon="12.50933">
        <ele>1240.72</ele>
        <time>2012-07-31T16:36:31Z</time>
      </trkpt>
      <trkpt lat="46.46002" lon="12.50856">
        <ele>1238.32</ele>
        <time>2012-07-31T16:36:35Z</time>
      </trkpt>
      <trkpt lat="46.46031" lon="12.50784">
        <ele>1233.51</ele>
        <time>2012-07-31T16:36:38Z</time>
      </trkpt>
      <trkpt lat="46.46047" lon="12.50745">
        <ele>1230.14</ele>
        <time>2012-07-31T16:36:40Z</time>
      </trkpt>
      <trkpt lat="46.46056" lon="12.5073">
        <ele>1228.7</ele>
        <time>2012-07-31T16:36:41Z</time>
      </trkpt>
      <trkpt lat="46.46067" lon="12.50718">
        <ele>1227.74</ele>
        <time>2012-07-31T16:36:42Z</time>
      </trkpt>
      <trkpt lat="46.4608" lon="12.50709">
        <ele>1227.26</ele>
        <time>2012-07-31T16:36:43Z</time>
      </trkpt>
      <trkpt lat="46.46093" lon="12.50705">
        <ele>1226.78</ele>
        <time>2012-07-31T16:36:44Z</time>
      </trkpt>
      <trkpt lat="46.46104" lon="12.50701">
        <ele>1225.82</ele>
        <time>2012-07-31T16:36:45Z</time>
      </trkpt>
      <trkpt lat="46.46112" lon="12.50693">
        <ele>1224.86</ele>
        <time>2012-07-31T16:36:46Z</time>
      </trkpt>
      <trkpt lat="46.46117" lon="12.5068">
        <ele>1223.9</ele>
        <time>2012-07-31T16:36:47Z</time>
      </trkpt>
      <trkpt lat="46.46117" lon="12.50661">
        <ele>1224.38</ele>
        <time>2012-07-31T16:36:48Z</time>
      </trkpt>
      <trkpt lat="46.46115" lon="12.50637">
        <ele>1225.34</ele>
        <time>2012-07-31T16:36:49Z</time>
      </trkpt>
      <trkpt lat="46.4611" lon="12.5053">
        <ele>1220.53</ele>
        <time>2012-07-31T16:36:53Z</time>
      </trkpt>
      <trkpt lat="46.46113" lon="12.50491">
        <ele>1217.17</ele>
        <time>2012-07-31T16:36:55Z</time>
      </trkpt>
      <trkpt lat="46.46117" lon="12.50474">
        <ele>1215.72</ele>
        <time>2012-07-31T16:36:56Z</time>
      </trkpt>
      <trkpt lat="46.46125" lon="12.50461">
        <ele>1214.76</ele>
        <time>2012-07-31T16:36:57Z</time>
      </trkpt>
      <trkpt lat="46.46137" lon="12.50452">
        <ele>1214.76</ele>
        <time>2012-07-31T16:36:58Z</time>
      </trkpt>
      <trkpt lat="46.46152" lon="12.50445">
        <ele>1214.76</ele>
        <time>2012-07-31T16:36:59Z</time>
      </trkpt>
      <trkpt lat="46.46169" lon="12.50439">
        <ele>1213.8</ele>
        <time>2012-07-31T16:37:00Z</time>
      </trkpt>
      <trkpt lat="46.46186" lon="12.50436">
        <ele>1212.36</ele>
        <time>2012-07-31T16:37:01Z</time>
      </trkpt>
      <trkpt lat="46.46201" lon="12.50436">
        <ele>1211.4</ele>
        <time>2012-07-31T16:37:02Z</time>
      </trkpt>
      <trkpt lat="46.46214" lon="12.50439">
        <ele>1210.44</ele>
        <time>2012-07-31T16:37:03Z</time>
      </trkpt>
      <trkpt lat="46.46226" lon="12.50442">
        <ele>1209</ele>
        <time>2012-07-31T16:37:04Z</time>
      </trkpt>
      <trkpt lat="46.46237" lon="12.50443">
        <ele>1208.51</ele>
        <time>2012-07-31T16:37:05Z</time>
      </trkpt>
      <trkpt lat="46.46246" lon="12.50438">
        <ele>1207.55</ele>
        <time>2012-07-31T16:37:06Z</time>
      </trkpt>
      <trkpt lat="46.46255" lon="12.50428">
        <ele>1207.07</ele>
        <time>2012-07-31T16:37:07Z</time>
      </trkpt>
      <trkpt lat="46.46261" lon="12.50415">
        <ele>1207.07</ele>
        <time>2012-07-31T16:37:08Z</time>
      </trkpt>
      <trkpt lat="46.46264" lon="12.50399">
        <ele>1207.07</ele>
        <time>2012-07-31T16:37:09Z</time>
      </trkpt>
      <trkpt lat="46.46259" lon="12.5038">
        <ele>1207.55</ele>
        <time>2012-07-31T16:37:10Z</time>
      </trkpt>
      <trkpt lat="46.4625" lon="12.50361">
        <ele>1207.55</ele>
        <time>2012-07-31T16:37:11Z</time>
      </trkpt>
      <trkpt lat="46.46244" lon="12.50342">
        <ele>1206.11</ele>
        <time>2012-07-31T16:37:12Z</time>
      </trkpt>
      <trkpt lat="46.4624" lon="12.5032">
        <ele>1206.11</ele>
        <time>2012-07-31T16:37:13Z</time>
      </trkpt>
      <trkpt lat="46.46238" lon="12.50297">
        <ele>1205.63</ele>
        <time>2012-07-31T16:37:14Z</time>
      </trkpt>
      <trkpt lat="46.46238" lon="12.50274">
        <ele>1204.19</ele>
        <time>2012-07-31T16:37:15Z</time>
      </trkpt>
      <trkpt lat="46.46239" lon="12.50252">
        <ele>1202.75</ele>
        <time>2012-07-31T16:37:16Z</time>
      </trkpt>
      <trkpt lat="46.46242" lon="12.50234">
        <ele>1200.82</ele>
        <time>2012-07-31T16:37:17Z</time>
      </trkpt>
      <trkpt lat="46.46249" lon="12.50218">
        <ele>1200.34</ele>
        <time>2012-07-31T16:37:18Z</time>
      </trkpt>
      <trkpt lat="46.46259" lon="12.50206">
        <ele>1200.34</ele>
        <time>2012-07-31T16:37:19Z</time>
      </trkpt>
      <trkpt lat="46.4627" lon="12.50197">
        <ele>1199.38</ele>
        <time>2012-07-31T16:37:20Z</time>
      </trkpt>
      <trkpt lat="46.4628" lon="12.5019">
        <ele>1197.94</ele>
        <time>2012-07-31T16:37:21Z</time>
      </trkpt>
      <trkpt lat="46.46288" lon="12.50179">
        <ele>1196.98</ele>
        <time>2012-07-31T16:37:22Z</time>
      </trkpt>
      <trkpt lat="46.46293" lon="12.50167">
        <ele>1196.02</ele>
        <time>2012-07-31T16:37:23Z</time>
      </trkpt>
      <trkpt lat="46.46295" lon="12.50154">
        <ele>1194.58</ele>
        <time>2012-07-31T16:37:24Z</time>
      </trkpt>
      <trkpt lat="46.46291" lon="12.50139">
        <ele>1194.58</ele>
        <time>2012-07-31T16:37:25Z</time>
      </trkpt>
      <trkpt lat="46.46276" lon="12.5011">
        <ele>1194.09</ele>
        <time>2012-07-31T16:37:27Z</time>
      </trkpt>
      <trkpt lat="46.46253" lon="12.50089">
        <ele>1191.69</ele>
        <time>2012-07-31T16:37:29Z</time>
      </trkpt>
      <trkpt lat="46.46245" lon="12.50074">
        <ele>1191.21</ele>
        <time>2012-07-31T16:37:30Z</time>
      </trkpt>
      <trkpt lat="46.46242" lon="12.50056">
        <ele>1190.73</ele>
        <time>2012-07-31T16:37:31Z</time>
      </trkpt>
      <trkpt lat="46.4624" lon="12.50036">
        <ele>1190.25</ele>
        <time>2012-07-31T16:37:32Z</time>
      </trkpt>
      <trkpt lat="46.46242" lon="12.50014">
        <ele>1189.29</ele>
        <time>2012-07-31T16:37:33Z</time>
      </trkpt>
      <trkpt lat="46.46245" lon="12.49992">
        <ele>1188.33</ele>
        <time>2012-07-31T16:37:34Z</time>
      </trkpt>
      <trkpt lat="46.46254" lon="12.49933">
        <ele>1185.44</ele>
        <time>2012-07-31T16:37:37Z</time>
      </trkpt>
      <trkpt lat="46.46259" lon="12.49916">
        <ele>1184.96</ele>
        <time>2012-07-31T16:37:38Z</time>
      </trkpt>
      <trkpt lat="46.46265" lon="12.499">
        <ele>1184.48</ele>
        <time>2012-07-31T16:37:39Z</time>
      </trkpt>
      <trkpt lat="46.46271" lon="12.49889">
        <ele>1183.52</ele>
        <time>2012-07-31T16:37:40Z</time>
      </trkpt>
      <trkpt lat="46.463" lon="12.49847">
        <ele>1182.08</ele>
        <time>2012-07-31T16:37:43Z</time>
      </trkpt>
      <trkpt lat="46.46305" lon="12.49831">
        <ele>1182.08</ele>
        <time>2012-07-31T16:37:44Z</time>
      </trkpt>
      <trkpt lat="46.46306" lon="12.49812">
        <ele>1181.6</ele>
        <time>2012-07-31T16:37:45Z</time>
      </trkpt>
      <trkpt lat="46.46306" lon="12.49792">
        <ele>1181.12</ele>
        <time>2012-07-31T16:37:46Z</time>
      </trkpt>
      <trkpt lat="46.46305" lon="12.49774">
        <ele>1179.67</ele>
        <time>2012-07-31T16:37:47Z</time>
      </trkpt>
      <trkpt lat="46.46303" lon="12.49757">
        <ele>1178.23</ele>
        <time>2012-07-31T16:37:48Z</time>
      </trkpt>
      <trkpt lat="46.46299" lon="12.49742">
        <ele>1177.27</ele>
        <time>2012-07-31T16:37:49Z</time>
      </trkpt>
      <trkpt lat="46.46299" lon="12.49728">
        <ele>1176.31</ele>
        <time>2012-07-31T16:37:50Z</time>
      </trkpt>
      <trkpt lat="46.463" lon="12.49714">
        <ele>1175.35</ele>
        <time>2012-07-31T16:37:51Z</time>
      </trkpt>
      <trkpt lat="46.46304" lon="12.49701">
        <ele>1175.83</ele>
        <time>2012-07-31T16:37:52Z</time>
      </trkpt>
      <trkpt lat="46.4631" lon="12.4969">
        <ele>1175.83</ele>
        <time>2012-07-31T16:37:53Z</time>
      </trkpt>
      <trkpt lat="46.46316" lon="12.49681">
        <ele>1174.39</ele>
        <time>2012-07-31T16:37:54Z</time>
      </trkpt>
      <trkpt lat="46.46324" lon="12.49676">
        <ele>1173.91</ele>
        <time>2012-07-31T16:37:55Z</time>
      </trkpt>
      <trkpt lat="46.46335" lon="12.49674">
        <ele>1173.91</ele>
        <time>2012-07-31T16:37:56Z</time>
      </trkpt>
      <trkpt lat="46.46344" lon="12.49668">
        <ele>1172.95</ele>
        <time>2012-07-31T16:37:57Z</time>
      </trkpt>
      <trkpt lat="46.4635" lon="12.4966">
        <ele>1172.47</ele>
        <time>2012-07-31T16:37:58Z</time>
      </trkpt>
      <trkpt lat="46.46355" lon="12.4965">
        <ele>1171.02</ele>
        <time>2012-07-31T16:37:59Z</time>
      </trkpt>
      <trkpt lat="46.46355" lon="12.49638">
        <ele>1171.02</ele>
        <time>2012-07-31T16:38:00Z</time>
      </trkpt>
      <trkpt lat="46.46352" lon="12.49624">
        <ele>1170.54</ele>
        <time>2012-07-31T16:38:01Z</time>
      </trkpt>
      <trkpt lat="46.46348" lon="12.49609">
        <ele>1170.06</ele>
        <time>2012-07-31T16:38:02Z</time>
      </trkpt>
      <trkpt lat="46.46342" lon="12.49598">
        <ele>1168.14</ele>
        <time>2012-07-31T16:38:03Z</time>
      </trkpt>
      <trkpt lat="46.46336" lon="12.49588">
        <ele>1167.66</ele>
        <time>2012-07-31T16:38:04Z</time>
      </trkpt>
      <trkpt lat="46.46332" lon="12.49578">
        <ele>1167.66</ele>
        <time>2012-07-31T16:38:05Z</time>
      </trkpt>
      <trkpt lat="46.46331" lon="12.49566">
        <ele>1167.18</ele>
        <time>2012-07-31T16:38:06Z</time>
      </trkpt>
      <trkpt lat="46.46335" lon="12.49552">
        <ele>1166.7</ele>
        <time>2012-07-31T16:38:07Z</time>
      </trkpt>
      <trkpt lat="46.46339" lon="12.4954">
        <ele>1166.22</ele>
        <time>2012-07-31T16:38:08Z</time>
      </trkpt>
      <trkpt lat="46.46345" lon="12.4953">
        <ele>1166.22</ele>
        <time>2012-07-31T16:38:09Z</time>
      </trkpt>
      <trkpt lat="46.46349" lon="12.49522">
        <ele>1165.74</ele>
        <time>2012-07-31T16:38:10Z</time>
      </trkpt>
      <trkpt lat="46.46352" lon="12.49513">
        <ele>1165.74</ele>
        <time>2012-07-31T16:38:11Z</time>
      </trkpt>
      <trkpt lat="46.46351" lon="12.49505">
        <ele>1165.74</ele>
        <time>2012-07-31T16:38:12Z</time>
      </trkpt>
      <trkpt lat="46.46349" lon="12.49497">
        <ele>1165.74</ele>
        <time>2012-07-31T16:38:13Z</time>
      </trkpt>
      <trkpt lat="46.46346" lon="12.49491">
        <ele>1165.26</ele>
        <time>2012-07-31T16:38:14Z</time>
      </trkpt>
      <trkpt lat="46.4634" lon="12.49495">
        <ele>1164.77</ele>
        <time>2012-07-31T16:38:16Z</time>
      </trkpt>
      <trkpt lat="46.46335" lon="12.49507">
        <ele>1164.77</ele>
        <time>2012-07-31T16:38:17Z</time>
      </trkpt>
      <trkpt lat="46.4633" lon="12.49523">
        <ele>1164.77</ele>
        <time>2012-07-31T16:38:18Z</time>
      </trkpt>
      <trkpt lat="46.46328" lon="12.49542">
        <ele>1164.29</ele>
        <time>2012-07-31T16:38:19Z</time>
      </trkpt>
      <trkpt lat="46.46327" lon="12.49559">
        <ele>1163.33</ele>
        <time>2012-07-31T16:38:20Z</time>
      </trkpt>
      <trkpt lat="46.46325" lon="12.4958">
        <ele>1162.37</ele>
        <time>2012-07-31T16:38:21Z</time>
      </trkpt>
      <trkpt lat="46.46323" lon="12.49597">
        <ele>1161.41</ele>
        <time>2012-07-31T16:38:22Z</time>
      </trkpt>
      <trkpt lat="46.4632" lon="12.49612">
        <ele>1160.45</ele>
        <time>2012-07-31T16:38:23Z</time>
      </trkpt>
      <trkpt lat="46.46315" lon="12.49623">
        <ele>1159.01</ele>
        <time>2012-07-31T16:38:24Z</time>
      </trkpt>
      <trkpt lat="46.46307" lon="12.49633">
        <ele>1158.53</ele>
        <time>2012-07-31T16:38:25Z</time>
      </trkpt>
      <trkpt lat="46.46299" lon="12.49639">
        <ele>1158.53</ele>
        <time>2012-07-31T16:38:26Z</time>
      </trkpt>
      <trkpt lat="46.46291" lon="12.49644">
        <ele>1158.05</ele>
        <time>2012-07-31T16:38:27Z</time>
      </trkpt>
      <trkpt lat="46.46253" lon="12.49669">
        <ele>1155.16</ele>
        <time>2012-07-31T16:38:31Z</time>
      </trkpt>
      <trkpt lat="46.46245" lon="12.49681">
        <ele>1154.68</ele>
        <time>2012-07-31T16:38:32Z</time>
      </trkpt>
      <trkpt lat="46.46238" lon="12.49698">
        <ele>1154.68</ele>
        <time>2012-07-31T16:38:33Z</time>
      </trkpt>
      <trkpt lat="46.46233" lon="12.49715">
        <ele>1154.2</ele>
        <time>2012-07-31T16:38:34Z</time>
      </trkpt>
      <trkpt lat="46.46214" lon="12.49788">
        <ele>1150.84</ele>
        <time>2012-07-31T16:38:38Z</time>
      </trkpt>
      <trkpt lat="46.46201" lon="12.49839">
        <ele>1147.95</ele>
        <time>2012-07-31T16:38:41Z</time>
      </trkpt>
      <trkpt lat="46.46197" lon="12.49851">
        <ele>1146.99</ele>
        <time>2012-07-31T16:38:42Z</time>
      </trkpt>
      <trkpt lat="46.46192" lon="12.49861">
        <ele>1146.51</ele>
        <time>2012-07-31T16:38:43Z</time>
      </trkpt>
      <trkpt lat="46.46185" lon="12.49869">
        <ele>1145.07</ele>
        <time>2012-07-31T16:38:44Z</time>
      </trkpt>
      <trkpt lat="46.46176" lon="12.49872">
        <ele>1145.07</ele>
        <time>2012-07-31T16:38:45Z</time>
      </trkpt>
      <trkpt lat="46.46168" lon="12.49871">
        <ele>1145.07</ele>
        <time>2012-07-31T16:38:46Z</time>
      </trkpt>
      <trkpt lat="46.46159" lon="12.49865">
        <ele>1144.59</ele>
        <time>2012-07-31T16:38:47Z</time>
      </trkpt>
      <trkpt lat="46.46152" lon="12.49853">
        <ele>1144.59</ele>
        <time>2012-07-31T16:38:48Z</time>
      </trkpt>
      <trkpt lat="46.46145" lon="12.49834">
        <ele>1146.03</ele>
        <time>2012-07-31T16:38:49Z</time>
      </trkpt>
      <trkpt lat="46.4614" lon="12.49811">
        <ele>1146.99</ele>
        <time>2012-07-31T16:38:50Z</time>
      </trkpt>
      <trkpt lat="46.46136" lon="12.49784">
        <ele>1147.95</ele>
        <time>2012-07-31T16:38:51Z</time>
      </trkpt>
      <trkpt lat="46.4613" lon="12.49728">
        <ele>1144.11</ele>
        <time>2012-07-31T16:38:53Z</time>
      </trkpt>
      <trkpt lat="46.46124" lon="12.49701">
        <ele>1143.63</ele>
        <time>2012-07-31T16:38:54Z</time>
      </trkpt>
      <trkpt lat="46.46116" lon="12.49673">
        <ele>1143.63</ele>
        <time>2012-07-31T16:38:55Z</time>
      </trkpt>
      <trkpt lat="46.46105" lon="12.49646">
        <ele>1143.14</ele>
        <time>2012-07-31T16:38:56Z</time>
      </trkpt>
      <trkpt lat="46.46084" lon="12.49595">
        <ele>1139.3</ele>
        <time>2012-07-31T16:38:58Z</time>
      </trkpt>
      <trkpt lat="46.46066" lon="12.4955">
        <ele>1135.94</ele>
        <time>2012-07-31T16:39:00Z</time>
      </trkpt>
      <trkpt lat="46.46056" lon="12.49531">
        <ele>1135.45</ele>
        <time>2012-07-31T16:39:01Z</time>
      </trkpt>
      <trkpt lat="46.46043" lon="12.49515">
        <ele>1133.53</ele>
        <time>2012-07-31T16:39:02Z</time>
      </trkpt>
      <trkpt lat="46.46031" lon="12.49504">
        <ele>1131.61</ele>
        <time>2012-07-31T16:39:03Z</time>
      </trkpt>
      <trkpt lat="46.46013" lon="12.49485">
        <ele>1129.21</ele>
        <time>2012-07-31T16:39:05Z</time>
      </trkpt>
      <trkpt lat="46.4601" lon="12.49474">
        <ele>1128.24</ele>
        <time>2012-07-31T16:39:06Z</time>
      </trkpt>
      <trkpt lat="46.4601" lon="12.49464">
        <ele>1127.76</ele>
        <time>2012-07-31T16:39:07Z</time>
      </trkpt>
      <trkpt lat="46.46011" lon="12.49457">
        <ele>1127.28</ele>
        <time>2012-07-31T16:39:08Z</time>
      </trkpt>
      <trkpt lat="46.46013" lon="12.49456">
        <ele>1127.76</ele>
        <time>2012-07-31T16:39:09Z</time>
      </trkpt>
      <trkpt lat="46.46018" lon="12.49466">
        <ele>1129.21</ele>
        <time>2012-07-31T16:39:11Z</time>
      </trkpt>
      <trkpt lat="46.46025" lon="12.49472">
        <ele>1129.21</ele>
        <time>2012-07-31T16:39:12Z</time>
      </trkpt>
      <trkpt lat="46.46035" lon="12.4948">
        <ele>1127.76</ele>
        <time>2012-07-31T16:39:13Z</time>
      </trkpt>
      <trkpt lat="46.46051" lon="12.49495">
        <ele>1125.84</ele>
        <time>2012-07-31T16:39:14Z</time>
      </trkpt>
      <trkpt lat="46.46065" lon="12.49504">
        <ele>1123.92</ele>
        <time>2012-07-31T16:39:15Z</time>
      </trkpt>
      <trkpt lat="46.46079" lon="12.49508">
        <ele>1122</ele>
        <time>2012-07-31T16:39:16Z</time>
      </trkpt>
      <trkpt lat="46.46093" lon="12.49504">
        <ele>1122</ele>
        <time>2012-07-31T16:39:17Z</time>
      </trkpt>
      <trkpt lat="46.4612" lon="12.49475">
        <ele>1122.96</ele>
        <time>2012-07-31T16:39:19Z</time>
      </trkpt>
      <trkpt lat="46.46132" lon="12.4946">
        <ele>1121.52</ele>
        <time>2012-07-31T16:39:20Z</time>
      </trkpt>
      <trkpt lat="46.46143" lon="12.4945">
        <ele>1118.63</ele>
        <time>2012-07-31T16:39:21Z</time>
      </trkpt>
      <trkpt lat="46.46152" lon="12.49442">
        <ele>1117.67</ele>
        <time>2012-07-31T16:39:22Z</time>
      </trkpt>
      <trkpt lat="46.46157" lon="12.49433">
        <ele>1117.19</ele>
        <time>2012-07-31T16:39:23Z</time>
      </trkpt>
      <trkpt lat="46.46158" lon="12.49423">
        <ele>1116.71</ele>
        <time>2012-07-31T16:39:24Z</time>
      </trkpt>
      <trkpt lat="46.46159" lon="12.49412">
        <ele>1116.23</ele>
        <time>2012-07-31T16:39:25Z</time>
      </trkpt>
      <trkpt lat="46.46161" lon="12.49403">
        <ele>1115.75</ele>
        <time>2012-07-31T16:39:26Z</time>
      </trkpt>
      <trkpt lat="46.46164" lon="12.49398">
        <ele>1116.23</ele>
        <time>2012-07-31T16:39:27Z</time>
      </trkpt>
      <trkpt lat="46.46149" lon="12.49454">
        <ele>1116.23</ele>
        <time>2012-07-31T16:39:28Z</time>
      </trkpt>
      <trkpt lat="46.46136" lon="12.49472">
        <ele>1115.27</ele>
        <time>2012-07-31T16:39:30Z</time>
      </trkpt>
      <trkpt lat="46.46128" lon="12.49474">
        <ele>1114.31</ele>
        <time>2012-07-31T16:39:31Z</time>
      </trkpt>
      <trkpt lat="46.46119" lon="12.49469">
        <ele>1113.82</ele>
        <time>2012-07-31T16:39:32Z</time>
      </trkpt>
      <trkpt lat="46.46111" lon="12.49458">
        <ele>1114.79</ele>
        <time>2012-07-31T16:39:33Z</time>
      </trkpt>
      <trkpt lat="46.46104" lon="12.49441">
        <ele>1115.27</ele>
        <time>2012-07-31T16:39:34Z</time>
      </trkpt>
      <trkpt lat="46.46098" lon="12.4942">
        <ele>1114.79</ele>
        <time>2012-07-31T16:39:35Z</time>
      </trkpt>
      <trkpt lat="46.4609" lon="12.49399">
        <ele>1114.31</ele>
        <time>2012-07-31T16:39:36Z</time>
      </trkpt>
      <trkpt lat="46.4608" lon="12.49379">
        <ele>1112.86</ele>
        <time>2012-07-31T16:39:37Z</time>
      </trkpt>
      <trkpt lat="46.46068" lon="12.49362">
        <ele>1110.94</ele>
        <time>2012-07-31T16:39:38Z</time>
      </trkpt>
      <trkpt lat="46.46056" lon="12.49347">
        <ele>1109.02</ele>
        <time>2012-07-31T16:39:39Z</time>
      </trkpt>
      <trkpt lat="46.46047" lon="12.49335">
        <ele>1107.1</ele>
        <time>2012-07-31T16:39:40Z</time>
      </trkpt>
      <trkpt lat="46.46042" lon="12.49324">
        <ele>1106.61</ele>
        <time>2012-07-31T16:39:41Z</time>
      </trkpt>
      <trkpt lat="46.4604" lon="12.49312">
        <ele>1106.61</ele>
        <time>2012-07-31T16:39:42Z</time>
      </trkpt>
      <trkpt lat="46.46039" lon="12.49304">
        <ele>1106.13</ele>
        <time>2012-07-31T16:39:43Z</time>
      </trkpt>
      <trkpt lat="46.46036" lon="12.49296">
        <ele>1107.1</ele>
        <time>2012-07-31T16:39:45Z</time>
      </trkpt>
      <trkpt lat="46.46038" lon="12.49297">
        <ele>1106.61</ele>
        <time>2012-07-31T16:39:46Z</time>
      </trkpt>
      <trkpt lat="46.4604" lon="12.49294">
        <ele>1106.13</ele>
        <time>2012-07-31T16:39:47Z</time>
      </trkpt>
      <trkpt lat="46.4604" lon="12.49286">
        <ele>1106.61</ele>
        <time>2012-07-31T16:39:48Z</time>
      </trkpt>
      <trkpt lat="46.46062" lon="12.49259">
        <ele>1105.65</ele>
        <time>2012-07-31T16:39:50Z</time>
      </trkpt>
      <trkpt lat="46.46072" lon="12.49242">
        <ele>1105.17</ele>
        <time>2012-07-31T16:39:51Z</time>
      </trkpt>
      <trkpt lat="46.46079" lon="12.4923">
        <ele>1103.25</ele>
        <time>2012-07-31T16:39:52Z</time>
      </trkpt>
      <trkpt lat="46.46155" lon="12.49153">
        <ele>1100.85</ele>
        <time>2012-07-31T16:39:55Z</time>
      </trkpt>
      <trkpt lat="46.46188" lon="12.49115">
        <ele>1096.04</ele>
        <time>2012-07-31T16:39:57Z</time>
      </trkpt>
      <trkpt lat="46.46206" lon="12.49101">
        <ele>1093.64</ele>
        <time>2012-07-31T16:39:58Z</time>
      </trkpt>
      <trkpt lat="46.46251" lon="12.49084">
        <ele>1090.75</ele>
        <time>2012-07-31T16:40:00Z</time>
      </trkpt>
      <trkpt lat="46.4627" lon="12.49071">
        <ele>1089.31</ele>
        <time>2012-07-31T16:40:01Z</time>
      </trkpt>
      <trkpt lat="46.46279" lon="12.49051">
        <ele>1089.31</ele>
        <time>2012-07-31T16:40:02Z</time>
      </trkpt>
      <trkpt lat="46.46284" lon="12.49026">
        <ele>1089.31</ele>
        <time>2012-07-31T16:40:03Z</time>
      </trkpt>
      <trkpt lat="46.46287" lon="12.48998">
        <ele>1089.79</ele>
        <time>2012-07-31T16:40:04Z</time>
      </trkpt>
      <trkpt lat="46.46293" lon="12.48969">
        <ele>1089.31</ele>
        <time>2012-07-31T16:40:05Z</time>
      </trkpt>
      <trkpt lat="46.46301" lon="12.4894">
        <ele>1088.83</ele>
        <time>2012-07-31T16:40:06Z</time>
      </trkpt>
      <trkpt lat="46.46324" lon="12.48845">
        <ele>1084.5</ele>
        <time>2012-07-31T16:40:09Z</time>
      </trkpt>
      <trkpt lat="46.46331" lon="12.48814">
        <ele>1083.06</ele>
        <time>2012-07-31T16:40:10Z</time>
      </trkpt>
      <trkpt lat="46.46341" lon="12.48785">
        <ele>1081.14</ele>
        <time>2012-07-31T16:40:11Z</time>
      </trkpt>
      <trkpt lat="46.46358" lon="12.48724">
        <ele>1079.22</ele>
        <time>2012-07-31T16:40:13Z</time>
      </trkpt>
      <trkpt lat="46.46363" lon="12.4869">
        <ele>1079.22</ele>
        <time>2012-07-31T16:40:14Z</time>
      </trkpt>
      <trkpt lat="46.46376" lon="12.48584">
        <ele>1076.33</ele>
        <time>2012-07-31T16:40:17Z</time>
      </trkpt>
      <trkpt lat="46.46388" lon="12.48434">
        <ele>1072.49</ele>
        <time>2012-07-31T16:40:21Z</time>
      </trkpt>
      <trkpt lat="46.46389" lon="12.48368">
        <ele>1067.2</ele>
        <time>2012-07-31T16:40:23Z</time>
      </trkpt>
      <trkpt lat="46.46386" lon="12.48312">
        <ele>1063.36</ele>
        <time>2012-07-31T16:40:25Z</time>
      </trkpt>
      <trkpt lat="46.4638" lon="12.48265">
        <ele>1059.99</ele>
        <time>2012-07-31T16:40:27Z</time>
      </trkpt>
      <trkpt lat="46.46379" lon="12.48244">
        <ele>1058.55</ele>
        <time>2012-07-31T16:40:28Z</time>
      </trkpt>
      <trkpt lat="46.46381" lon="12.48222">
        <ele>1058.55</ele>
        <time>2012-07-31T16:40:29Z</time>
      </trkpt>
      <trkpt lat="46.46387" lon="12.48199">
        <ele>1057.59</ele>
        <time>2012-07-31T16:40:30Z</time>
      </trkpt>
      <trkpt lat="46.46407" lon="12.48123">
        <ele>1054.22</ele>
        <time>2012-07-31T16:40:33Z</time>
      </trkpt>
      <trkpt lat="46.46416" lon="12.48082">
        <ele>1050.38</ele>
        <time>2012-07-31T16:40:35Z</time>
      </trkpt>
      <trkpt lat="46.46417" lon="12.48061">
        <ele>1049.9</ele>
        <time>2012-07-31T16:40:36Z</time>
      </trkpt>
      <trkpt lat="46.46414" lon="12.48019">
        <ele>1046.53</ele>
        <time>2012-07-31T16:40:38Z</time>
      </trkpt>
      <trkpt lat="46.46416" lon="12.47997">
        <ele>1045.57</ele>
        <time>2012-07-31T16:40:39Z</time>
      </trkpt>
      <trkpt lat="46.46419" lon="12.47978">
        <ele>1043.65</ele>
        <time>2012-07-31T16:40:40Z</time>
      </trkpt>
      <trkpt lat="46.46424" lon="12.4796">
        <ele>1042.21</ele>
        <time>2012-07-31T16:40:41Z</time>
      </trkpt>
      <trkpt lat="46.46432" lon="12.47944">
        <ele>1041.73</ele>
        <time>2012-07-31T16:40:42Z</time>
      </trkpt>
      <trkpt lat="46.46441" lon="12.47931">
        <ele>1039.8</ele>
        <time>2012-07-31T16:40:43Z</time>
      </trkpt>
      <trkpt lat="46.46447" lon="12.47915">
        <ele>1038.84</ele>
        <time>2012-07-31T16:40:44Z</time>
      </trkpt>
      <trkpt lat="46.46448" lon="12.47896">
        <ele>1037.4</ele>
        <time>2012-07-31T16:40:45Z</time>
      </trkpt>
      <trkpt lat="46.46446" lon="12.47864">
        <ele>1034.04</ele>
        <time>2012-07-31T16:40:47Z</time>
      </trkpt>
      <trkpt lat="46.46446" lon="12.47849">
        <ele>1033.55</ele>
        <time>2012-07-31T16:40:48Z</time>
      </trkpt>
      <trkpt lat="46.4645" lon="12.47835">
        <ele>1033.55</ele>
        <time>2012-07-31T16:40:49Z</time>
      </trkpt>
      <trkpt lat="46.46463" lon="12.47827">
        <ele>1033.07</ele>
        <time>2012-07-31T16:40:50Z</time>
      </trkpt>
      <trkpt lat="46.4648" lon="12.47818">
        <ele>1032.59</ele>
        <time>2012-07-31T16:40:51Z</time>
      </trkpt>
      <trkpt lat="46.46496" lon="12.47805">
        <ele>1032.11</ele>
        <time>2012-07-31T16:40:52Z</time>
      </trkpt>
      <trkpt lat="46.4651" lon="12.47789">
        <ele>1030.19</ele>
        <time>2012-07-31T16:40:53Z</time>
      </trkpt>
      <trkpt lat="46.46523" lon="12.47773">
        <ele>1028.27</ele>
        <time>2012-07-31T16:40:54Z</time>
      </trkpt>
      <trkpt lat="46.46534" lon="12.47754">
        <ele>1026.83</ele>
        <time>2012-07-31T16:40:55Z</time>
      </trkpt>
      <trkpt lat="46.46542" lon="12.4773">
        <ele>1026.83</ele>
        <time>2012-07-31T16:40:56Z</time>
      </trkpt>
      <trkpt lat="46.46547" lon="12.47705">
        <ele>1025.38</ele>
        <time>2012-07-31T16:40:57Z</time>
      </trkpt>
      <trkpt lat="46.46558" lon="12.47662">
        <ele>1022.02</ele>
        <time>2012-07-31T16:40:59Z</time>
      </trkpt>
      <trkpt lat="46.46567" lon="12.47641">
        <ele>1022.02</ele>
        <time>2012-07-31T16:41:00Z</time>
      </trkpt>
      <trkpt lat="46.46579" lon="12.47621">
        <ele>1021.54</ele>
        <time>2012-07-31T16:41:01Z</time>
      </trkpt>
      <trkpt lat="46.46604" lon="12.47582">
        <ele>1017.69</ele>
        <time>2012-07-31T16:41:03Z</time>
      </trkpt>
      <trkpt lat="46.46624" lon="12.47548">
        <ele>1014.33</ele>
        <time>2012-07-31T16:41:05Z</time>
      </trkpt>
      <trkpt lat="46.4663" lon="12.47529">
        <ele>1014.33</ele>
        <time>2012-07-31T16:41:06Z</time>
      </trkpt>
      <trkpt lat="46.46633" lon="12.47505">
        <ele>1014.33</ele>
        <time>2012-07-31T16:41:07Z</time>
      </trkpt>
      <trkpt lat="46.46635" lon="12.4748">
        <ele>1013.85</ele>
        <time>2012-07-31T16:41:08Z</time>
      </trkpt>
      <trkpt lat="46.46637" lon="12.47457">
        <ele>1012.41</ele>
        <time>2012-07-31T16:41:09Z</time>
      </trkpt>
      <trkpt lat="46.4664" lon="12.47436">
        <ele>1010</ele>
        <time>2012-07-31T16:41:10Z</time>
      </trkpt>
      <trkpt lat="46.46645" lon="12.47416">
        <ele>1009.04</ele>
        <time>2012-07-31T16:41:11Z</time>
      </trkpt>
      <trkpt lat="46.46652" lon="12.47397">
        <ele>1009.04</ele>
        <time>2012-07-31T16:41:12Z</time>
      </trkpt>
      <trkpt lat="46.46662" lon="12.47381">
        <ele>1008.08</ele>
        <time>2012-07-31T16:41:13Z</time>
      </trkpt>
      <trkpt lat="46.46673" lon="12.47367">
        <ele>1007.6</ele>
        <time>2012-07-31T16:41:14Z</time>
      </trkpt>
      <trkpt lat="46.46683" lon="12.47351">
        <ele>1006.64</ele>
        <time>2012-07-31T16:41:15Z</time>
      </trkpt>
      <trkpt lat="46.46689" lon="12.4733">
        <ele>1006.64</ele>
        <time>2012-07-31T16:41:16Z</time>
      </trkpt>
      <trkpt lat="46.46693" lon="12.47306">
        <ele>1007.12</ele>
        <time>2012-07-31T16:41:17Z</time>
      </trkpt>
      <trkpt lat="46.46697" lon="12.47282">
        <ele>1007.12</ele>
        <time>2012-07-31T16:41:18Z</time>
      </trkpt>
      <trkpt lat="46.46698" lon="12.47257">
        <ele>1006.16</ele>
        <time>2012-07-31T16:41:19Z</time>
      </trkpt>
      <trkpt lat="46.46701" lon="12.47135">
        <ele>1002.31</ele>
        <time>2012-07-31T16:41:24Z</time>
      </trkpt>
      <trkpt lat="46.46703" lon="12.47112">
        <ele>1001.35</ele>
        <time>2012-07-31T16:41:25Z</time>
      </trkpt>
      <trkpt lat="46.46707" lon="12.47088">
        <ele>1000.87</ele>
        <time>2012-07-31T16:41:26Z</time>
      </trkpt>
      <trkpt lat="46.4672" lon="12.47013">
        <ele>999.43</ele>
        <time>2012-07-31T16:41:29Z</time>
      </trkpt>
      <trkpt lat="46.46728" lon="12.46989">
        <ele>998.95</ele>
        <time>2012-07-31T16:41:30Z</time>
      </trkpt>
      <trkpt lat="46.46736" lon="12.46968">
        <ele>998.47</ele>
        <time>2012-07-31T16:41:31Z</time>
      </trkpt>
      <trkpt lat="46.46746" lon="12.46949">
        <ele>997.02</ele>
        <time>2012-07-31T16:41:32Z</time>
      </trkpt>
      <trkpt lat="46.46758" lon="12.46934">
        <ele>996.54</ele>
        <time>2012-07-31T16:41:33Z</time>
      </trkpt>
      <trkpt lat="46.46771" lon="12.4692">
        <ele>996.06</ele>
        <time>2012-07-31T16:41:34Z</time>
      </trkpt>
      <trkpt lat="46.46786" lon="12.46905">
        <ele>995.58</ele>
        <time>2012-07-31T16:41:35Z</time>
      </trkpt>
      <trkpt lat="46.46799" lon="12.46887">
        <ele>994.62</ele>
        <time>2012-07-31T16:41:36Z</time>
      </trkpt>
      <trkpt lat="46.46811" lon="12.46866">
        <ele>994.62</ele>
        <time>2012-07-31T16:41:37Z</time>
      </trkpt>
      <trkpt lat="46.46822" lon="12.46846">
        <ele>993.66</ele>
        <time>2012-07-31T16:41:38Z</time>
      </trkpt>
      <trkpt lat="46.46852" lon="12.46794">
        <ele>989.33</ele>
        <time>2012-07-31T16:41:41Z</time>
      </trkpt>
      <trkpt lat="46.46858" lon="12.46778">
        <ele>988.85</ele>
        <time>2012-07-31T16:41:42Z</time>
      </trkpt>
      <trkpt lat="46.46859" lon="12.46756">
        <ele>988.85</ele>
        <time>2012-07-31T16:41:43Z</time>
      </trkpt>
      <trkpt lat="46.4686" lon="12.46579">
        <ele>984.53</ele>
        <time>2012-07-31T16:41:50Z</time>
      </trkpt>
      <trkpt lat="46.46863" lon="12.4653">
        <ele>982.12</ele>
        <time>2012-07-31T16:41:52Z</time>
      </trkpt>
      <trkpt lat="46.46868" lon="12.46507">
        <ele>982.12</ele>
        <time>2012-07-31T16:41:53Z</time>
      </trkpt>
      <trkpt lat="46.46877" lon="12.46485">
        <ele>981.64</ele>
        <time>2012-07-31T16:41:54Z</time>
      </trkpt>
      <trkpt lat="46.46886" lon="12.46461">
        <ele>981.16</ele>
        <time>2012-07-31T16:41:55Z</time>
      </trkpt>
      <trkpt lat="46.46894" lon="12.46435">
        <ele>980.68</ele>
        <time>2012-07-31T16:41:56Z</time>
      </trkpt>
      <trkpt lat="46.46901" lon="12.46408">
        <ele>980.2</ele>
        <time>2012-07-31T16:41:57Z</time>
      </trkpt>
      <trkpt lat="46.46919" lon="12.46338">
        <ele>975.39</ele>
        <time>2012-07-31T16:42:00Z</time>
      </trkpt>
      <trkpt lat="46.46925" lon="12.46318">
        <ele>975.39</ele>
        <time>2012-07-31T16:42:01Z</time>
      </trkpt>
      <trkpt lat="46.46933" lon="12.46299">
        <ele>973.95</ele>
        <time>2012-07-31T16:42:02Z</time>
      </trkpt>
      <trkpt lat="46.46951" lon="12.46262">
        <ele>972.51</ele>
        <time>2012-07-31T16:42:04Z</time>
      </trkpt>
      <trkpt lat="46.46964" lon="12.46221">
        <ele>972.03</ele>
        <time>2012-07-31T16:42:06Z</time>
      </trkpt>
      <trkpt lat="46.46965" lon="12.46194">
        <ele>972.51</ele>
        <time>2012-07-31T16:42:07Z</time>
      </trkpt>
      <trkpt lat="46.46962" lon="12.46111">
        <ele>969.15</ele>
        <time>2012-07-31T16:42:10Z</time>
      </trkpt>
      <trkpt lat="46.46959" lon="12.46084">
        <ele>967.7</ele>
        <time>2012-07-31T16:42:11Z</time>
      </trkpt>
      <trkpt lat="46.46952" lon="12.46036">
        <ele>966.26</ele>
        <time>2012-07-31T16:42:13Z</time>
      </trkpt>
      <trkpt lat="46.4695" lon="12.46011">
        <ele>964.34</ele>
        <time>2012-07-31T16:42:14Z</time>
      </trkpt>
      <trkpt lat="46.46949" lon="12.45987">
        <ele>963.38</ele>
        <time>2012-07-31T16:42:15Z</time>
      </trkpt>
      <trkpt lat="46.46951" lon="12.45963">
        <ele>962.9</ele>
        <time>2012-07-31T16:42:16Z</time>
      </trkpt>
      <trkpt lat="46.46956" lon="12.45939">
        <ele>961.46</ele>
        <time>2012-07-31T16:42:17Z</time>
      </trkpt>
      <trkpt lat="46.46961" lon="12.4592">
        <ele>960.01</ele>
        <time>2012-07-31T16:42:18Z</time>
      </trkpt>
      <trkpt lat="46.46965" lon="12.45903">
        <ele>959.05</ele>
        <time>2012-07-31T16:42:19Z</time>
      </trkpt>
      <trkpt lat="46.46971" lon="12.45886">
        <ele>959.53</ele>
        <time>2012-07-31T16:42:20Z</time>
      </trkpt>
      <trkpt lat="46.4698" lon="12.45869">
        <ele>959.05</ele>
        <time>2012-07-31T16:42:21Z</time>
      </trkpt>
      <trkpt lat="46.46992" lon="12.45854">
        <ele>959.53</ele>
        <time>2012-07-31T16:42:22Z</time>
      </trkpt>
      <trkpt lat="46.47004" lon="12.4584">
        <ele>958.09</ele>
        <time>2012-07-31T16:42:23Z</time>
      </trkpt>
      <trkpt lat="46.47015" lon="12.45829">
        <ele>956.17</ele>
        <time>2012-07-31T16:42:24Z</time>
      </trkpt>
      <trkpt lat="46.47029" lon="12.4582">
        <ele>955.69</ele>
        <time>2012-07-31T16:42:25Z</time>
      </trkpt>
      <trkpt lat="46.47044" lon="12.45815">
        <ele>955.21</ele>
        <time>2012-07-31T16:42:26Z</time>
      </trkpt>
      <trkpt lat="46.47062" lon="12.45811">
        <ele>955.21</ele>
        <time>2012-07-31T16:42:27Z</time>
      </trkpt>
      <trkpt lat="46.47093" lon="12.45804">
        <ele>951.84</ele>
        <time>2012-07-31T16:42:29Z</time>
      </trkpt>
      <trkpt lat="46.47123" lon="12.45804">
        <ele>949.44</ele>
        <time>2012-07-31T16:42:31Z</time>
      </trkpt>
      <trkpt lat="46.47137" lon="12.4581">
        <ele>948.96</ele>
        <time>2012-07-31T16:42:32Z</time>
      </trkpt>
      <trkpt lat="46.47153" lon="12.4582">
        <ele>948.96</ele>
        <time>2012-07-31T16:42:33Z</time>
      </trkpt>
      <trkpt lat="46.47197" lon="12.4585">
        <ele>945.11</ele>
        <time>2012-07-31T16:42:36Z</time>
      </trkpt>
      <trkpt lat="46.47207" lon="12.45859">
        <ele>944.15</ele>
        <time>2012-07-31T16:42:37Z</time>
      </trkpt>
      <trkpt lat="46.47217" lon="12.45871">
        <ele>943.67</ele>
        <time>2012-07-31T16:42:38Z</time>
      </trkpt>
      <trkpt lat="46.47226" lon="12.45886">
        <ele>944.15</ele>
        <time>2012-07-31T16:42:39Z</time>
      </trkpt>
      <trkpt lat="46.47234" lon="12.45903">
        <ele>943.67</ele>
        <time>2012-07-31T16:42:40Z</time>
      </trkpt>
      <trkpt lat="46.47245" lon="12.45918">
        <ele>942.23</ele>
        <time>2012-07-31T16:42:41Z</time>
      </trkpt>
      <trkpt lat="46.47258" lon="12.45931">
        <ele>941.75</ele>
        <time>2012-07-31T16:42:42Z</time>
      </trkpt>
      <trkpt lat="46.47272" lon="12.45942">
        <ele>940.79</ele>
        <time>2012-07-31T16:42:43Z</time>
      </trkpt>
      <trkpt lat="46.47287" lon="12.45952">
        <ele>940.31</ele>
        <time>2012-07-31T16:42:44Z</time>
      </trkpt>
      <trkpt lat="46.47301" lon="12.4596">
        <ele>938.38</ele>
        <time>2012-07-31T16:42:45Z</time>
      </trkpt>
      <trkpt lat="46.47347" lon="12.45995">
        <ele>935.98</ele>
        <time>2012-07-31T16:42:49Z</time>
      </trkpt>
      <trkpt lat="46.47359" lon="12.46025">
        <ele>934.06</ele>
        <time>2012-07-31T16:42:51Z</time>
      </trkpt>
      <trkpt lat="46.47368" lon="12.46033">
        <ele>933.58</ele>
        <time>2012-07-31T16:42:52Z</time>
      </trkpt>
      <trkpt lat="46.47379" lon="12.46034">
        <ele>932.62</ele>
        <time>2012-07-31T16:42:53Z</time>
      </trkpt>
      <trkpt lat="46.47391" lon="12.46037">
        <ele>932.14</ele>
        <time>2012-07-31T16:42:54Z</time>
      </trkpt>
      <trkpt lat="46.47403" lon="12.46046">
        <ele>932.14</ele>
        <time>2012-07-31T16:42:55Z</time>
      </trkpt>
      <trkpt lat="46.47413" lon="12.4606">
        <ele>932.14</ele>
        <time>2012-07-31T16:42:56Z</time>
      </trkpt>
      <trkpt lat="46.47422" lon="12.46078">
        <ele>932.14</ele>
        <time>2012-07-31T16:42:57Z</time>
      </trkpt>
      <trkpt lat="46.47433" lon="12.46096">
        <ele>932.14</ele>
        <time>2012-07-31T16:42:58Z</time>
      </trkpt>
      <trkpt lat="46.47443" lon="12.46116">
        <ele>932.14</ele>
        <time>2012-07-31T16:42:59Z</time>
      </trkpt>
      <trkpt lat="46.47448" lon="12.46143">
        <ele>931.17</ele>
        <time>2012-07-31T16:43:00Z</time>
      </trkpt>
      <trkpt lat="46.47454" lon="12.46168">
        <ele>930.21</ele>
        <time>2012-07-31T16:43:01Z</time>
      </trkpt>
      <trkpt lat="46.47461" lon="12.46191">
        <ele>928.77</ele>
        <time>2012-07-31T16:43:02Z</time>
      </trkpt>
      <trkpt lat="46.47469" lon="12.46212">
        <ele>928.29</ele>
        <time>2012-07-31T16:43:03Z</time>
      </trkpt>
      <trkpt lat="46.47485" lon="12.4625">
        <ele>924.93</ele>
        <time>2012-07-31T16:43:05Z</time>
      </trkpt>
      <trkpt lat="46.47493" lon="12.46268">
        <ele>923.96</ele>
        <time>2012-07-31T16:43:06Z</time>
      </trkpt>
      <trkpt lat="46.47525" lon="12.46324">
        <ele>920.12</ele>
        <time>2012-07-31T16:43:10Z</time>
      </trkpt>
      <trkpt lat="46.47532" lon="12.46332">
        <ele>919.16</ele>
        <time>2012-07-31T16:43:11Z</time>
      </trkpt>
      <trkpt lat="46.47539" lon="12.46337">
        <ele>918.68</ele>
        <time>2012-07-31T16:43:12Z</time>
      </trkpt>
      <trkpt lat="46.47545" lon="12.46337">
        <ele>918.2</ele>
        <time>2012-07-31T16:43:13Z</time>
      </trkpt>
      <trkpt lat="46.47552" lon="12.46331">
        <ele>917.72</ele>
        <time>2012-07-31T16:43:14Z</time>
      </trkpt>
      <trkpt lat="46.47558" lon="12.46319">
        <ele>917.72</ele>
        <time>2012-07-31T16:43:15Z</time>
      </trkpt>
      <trkpt lat="46.47563" lon="12.46304">
        <ele>917.72</ele>
        <time>2012-07-31T16:43:16Z</time>
      </trkpt>
      <trkpt lat="46.47567" lon="12.46287">
        <ele>917.72</ele>
        <time>2012-07-31T16:43:17Z</time>
      </trkpt>
      <trkpt lat="46.47591" lon="12.462">
        <ele>913.39</ele>
        <time>2012-07-31T16:43:22Z</time>
      </trkpt>
      <trkpt lat="46.47599" lon="12.46175">
        <ele>912.43</ele>
        <time>2012-07-31T16:43:24Z</time>
      </trkpt>
      <trkpt lat="46.47604" lon="12.46165">
        <ele>911.47</ele>
        <time>2012-07-31T16:43:25Z</time>
      </trkpt>
      <trkpt lat="46.4761" lon="12.46156">
        <ele>911.47</ele>
        <time>2012-07-31T16:43:26Z</time>
      </trkpt>
      <trkpt lat="46.47618" lon="12.46149">
        <ele>910.99</ele>
        <time>2012-07-31T16:43:27Z</time>
      </trkpt>
      <trkpt lat="46.47627" lon="12.46145">
        <ele>910.99</ele>
        <time>2012-07-31T16:43:28Z</time>
      </trkpt>
      <trkpt lat="46.47637" lon="12.46141">
        <ele>910.03</ele>
        <time>2012-07-31T16:43:29Z</time>
      </trkpt>
      <trkpt lat="46.47645" lon="12.46135">
        <ele>909.54</ele>
        <time>2012-07-31T16:43:30Z</time>
      </trkpt>
      <trkpt lat="46.47653" lon="12.46126">
        <ele>909.54</ele>
        <time>2012-07-31T16:43:31Z</time>
      </trkpt>
      <trkpt lat="46.47661" lon="12.46114">
        <ele>909.54</ele>
        <time>2012-07-31T16:43:32Z</time>
      </trkpt>
      <trkpt lat="46.47668" lon="12.461">
        <ele>909.54</ele>
        <time>2012-07-31T16:43:33Z</time>
      </trkpt>
      <trkpt lat="46.47712" lon="12.46019">
        <ele>906.18</ele>
        <time>2012-07-31T16:43:39Z</time>
      </trkpt>
      <trkpt lat="46.47719" lon="12.46009">
        <ele>905.22</ele>
        <time>2012-07-31T16:43:40Z</time>
      </trkpt>
      <trkpt lat="46.47728" lon="12.46001">
        <ele>904.74</ele>
        <time>2012-07-31T16:43:41Z</time>
      </trkpt>
      <trkpt lat="46.47737" lon="12.45995">
        <ele>904.26</ele>
        <time>2012-07-31T16:43:42Z</time>
      </trkpt>
      <trkpt lat="46.47748" lon="12.45993">
        <ele>903.3</ele>
        <time>2012-07-31T16:43:43Z</time>
      </trkpt>
      <trkpt lat="46.47758" lon="12.45994">
        <ele>903.78</ele>
        <time>2012-07-31T16:43:44Z</time>
      </trkpt>
      <trkpt lat="46.47769" lon="12.45998">
        <ele>903.3</ele>
        <time>2012-07-31T16:43:45Z</time>
      </trkpt>
      <trkpt lat="46.4778" lon="12.46004">
        <ele>902.82</ele>
        <time>2012-07-31T16:43:46Z</time>
      </trkpt>
      <trkpt lat="46.47791" lon="12.46012">
        <ele>902.33</ele>
        <time>2012-07-31T16:43:47Z</time>
      </trkpt>
      <trkpt lat="46.47925" lon="12.46095">
        <ele>900.41</ele>
        <time>2012-07-31T16:43:59Z</time>
      </trkpt>
      <trkpt lat="46.47934" lon="12.46094">
        <ele>899.93</ele>
        <time>2012-07-31T16:44:00Z</time>
      </trkpt>
      <trkpt lat="46.47942" lon="12.4609">
        <ele>899.45</ele>
        <time>2012-07-31T16:44:01Z</time>
      </trkpt>
      <trkpt lat="46.47948" lon="12.46081">
        <ele>899.93</ele>
        <time>2012-07-31T16:44:02Z</time>
      </trkpt>
      <trkpt lat="46.47952" lon="12.46069">
        <ele>899.93</ele>
        <time>2012-07-31T16:44:03Z</time>
      </trkpt>
      <trkpt lat="46.47954" lon="12.46055">
        <ele>899.93</ele>
        <time>2012-07-31T16:44:04Z</time>
      </trkpt>
      <trkpt lat="46.47955" lon="12.46041">
        <ele>899.93</ele>
        <time>2012-07-31T16:44:05Z</time>
      </trkpt>
      <trkpt lat="46.47961" lon="12.46001">
        <ele>900.41</ele>
        <time>2012-07-31T16:44:08Z</time>
      </trkpt>
      <trkpt lat="46.47964" lon="12.4599">
        <ele>899.93</ele>
        <time>2012-07-31T16:44:09Z</time>
      </trkpt>
      <trkpt lat="46.47969" lon="12.4598">
        <ele>899.45</ele>
        <time>2012-07-31T16:44:10Z</time>
      </trkpt>
      <trkpt lat="46.47974" lon="12.4597">
        <ele>898.97</ele>
        <time>2012-07-31T16:44:11Z</time>
      </trkpt>
      <trkpt lat="46.4798" lon="12.45961">
        <ele>898.49</ele>
        <time>2012-07-31T16:44:12Z</time>
      </trkpt>
      <trkpt lat="46.48022" lon="12.45893">
        <ele>894.64</ele>
        <time>2012-07-31T16:44:19Z</time>
      </trkpt>
      <trkpt lat="46.48042" lon="12.45853">
        <ele>891.28</ele>
        <time>2012-07-31T16:44:23Z</time>
      </trkpt>
      <trkpt lat="46.48048" lon="12.45845">
        <ele>891.28</ele>
        <time>2012-07-31T16:44:24Z</time>
      </trkpt>
      <trkpt lat="46.48088" lon="12.45801">
        <ele>888.4</ele>
        <time>2012-07-31T16:44:29Z</time>
      </trkpt>
      <trkpt lat="46.4813" lon="12.45757">
        <ele>885.03</ele>
        <time>2012-07-31T16:44:33Z</time>
      </trkpt>
      <trkpt lat="46.48162" lon="12.45728">
        <ele>881.19</ele>
        <time>2012-07-31T16:44:36Z</time>
      </trkpt>
      <trkpt lat="46.48191" lon="12.45702">
        <ele>878.78</ele>
        <time>2012-07-31T16:44:39Z</time>
      </trkpt>
      <trkpt lat="46.48201" lon="12.45697">
        <ele>877.82</ele>
        <time>2012-07-31T16:44:40Z</time>
      </trkpt>
      <trkpt lat="46.48212" lon="12.45696">
        <ele>877.34</ele>
        <time>2012-07-31T16:44:41Z</time>
      </trkpt>
      <trkpt lat="46.48222" lon="12.45699">
        <ele>876.86</ele>
        <time>2012-07-31T16:44:42Z</time>
      </trkpt>
      <trkpt lat="46.48231" lon="12.45707">
        <ele>875.9</ele>
        <time>2012-07-31T16:44:43Z</time>
      </trkpt>
      <trkpt lat="46.48238" lon="12.45719">
        <ele>875.42</ele>
        <time>2012-07-31T16:44:44Z</time>
      </trkpt>
      <trkpt lat="46.48245" lon="12.45734">
        <ele>874.94</ele>
        <time>2012-07-31T16:44:45Z</time>
      </trkpt>
      <trkpt lat="46.48251" lon="12.45751">
        <ele>873.98</ele>
        <time>2012-07-31T16:44:46Z</time>
      </trkpt>
      <trkpt lat="46.48256" lon="12.4577">
        <ele>873.5</ele>
        <time>2012-07-31T16:44:47Z</time>
      </trkpt>
      <trkpt lat="46.48279" lon="12.45847">
        <ele>870.13</ele>
        <time>2012-07-31T16:44:51Z</time>
      </trkpt>
      <trkpt lat="46.48297" lon="12.45907">
        <ele>866.77</ele>
        <time>2012-07-31T16:44:54Z</time>
      </trkpt>
      <trkpt lat="46.48315" lon="12.4597">
        <ele>863.4</ele>
        <time>2012-07-31T16:44:57Z</time>
      </trkpt>
      <trkpt lat="46.48323" lon="12.4599">
        <ele>861.96</ele>
        <time>2012-07-31T16:44:58Z</time>
      </trkpt>
      <trkpt lat="46.48331" lon="12.46009">
        <ele>861</ele>
        <time>2012-07-31T16:44:59Z</time>
      </trkpt>
      <trkpt lat="46.4836" lon="12.46064">
        <ele>857.15</ele>
        <time>2012-07-31T16:45:02Z</time>
      </trkpt>
      <trkpt lat="46.48391" lon="12.46117">
        <ele>853.79</ele>
        <time>2012-07-31T16:45:05Z</time>
      </trkpt>
      <trkpt lat="46.48424" lon="12.46172">
        <ele>849.94</ele>
        <time>2012-07-31T16:45:08Z</time>
      </trkpt>
      <trkpt lat="46.48456" lon="12.46228">
        <ele>846.1</ele>
        <time>2012-07-31T16:45:11Z</time>
      </trkpt>
      <trkpt lat="46.48476" lon="12.46264">
        <ele>843.21</ele>
        <time>2012-07-31T16:45:13Z</time>
      </trkpt>
      <trkpt lat="46.48492" lon="12.463">
        <ele>840.33</ele>
        <time>2012-07-31T16:45:15Z</time>
      </trkpt>
      <trkpt lat="46.48498" lon="12.46319">
        <ele>838.89</ele>
        <time>2012-07-31T16:45:16Z</time>
      </trkpt>
      <trkpt lat="46.48509" lon="12.4637">
        <ele>835.04</ele>
        <time>2012-07-31T16:45:19Z</time>
      </trkpt>
      <trkpt lat="46.48512" lon="12.46381">
        <ele>834.08</ele>
        <time>2012-07-31T16:45:20Z</time>
      </trkpt>
      <trkpt lat="46.48517" lon="12.46389">
        <ele>833.12</ele>
        <time>2012-07-31T16:45:21Z</time>
      </trkpt>
      <trkpt lat="46.48523" lon="12.46393">
        <ele>832.64</ele>
        <time>2012-07-31T16:45:22Z</time>
      </trkpt>
      <trkpt lat="46.4853" lon="12.46392">
        <ele>832.16</ele>
        <time>2012-07-31T16:45:23Z</time>
      </trkpt>
      <trkpt lat="46.48537" lon="12.46385">
        <ele>832.16</ele>
        <time>2012-07-31T16:45:24Z</time>
      </trkpt>
      <trkpt lat="46.48542" lon="12.46374">
        <ele>831.68</ele>
        <time>2012-07-31T16:45:25Z</time>
      </trkpt>
      <trkpt lat="46.48545" lon="12.4636">
        <ele>831.2</ele>
        <time>2012-07-31T16:45:26Z</time>
      </trkpt>
      <trkpt lat="46.48543" lon="12.46343">
        <ele>831.2</ele>
        <time>2012-07-31T16:45:27Z</time>
      </trkpt>
      <trkpt lat="46.48539" lon="12.46325">
        <ele>831.2</ele>
        <time>2012-07-31T16:45:28Z</time>
      </trkpt>
      <trkpt lat="46.48514" lon="12.46179">
        <ele>827.35</ele>
        <time>2012-07-31T16:45:35Z</time>
      </trkpt>
      <trkpt lat="46.48508" lon="12.46117">
        <ele>823.51</ele>
        <time>2012-07-31T16:45:38Z</time>
      </trkpt>
      <trkpt lat="46.48509" lon="12.46096">
        <ele>822.55</ele>
        <time>2012-07-31T16:45:39Z</time>
      </trkpt>
      <trkpt lat="46.48511" lon="12.46073">
        <ele>821.58</ele>
        <time>2012-07-31T16:45:40Z</time>
      </trkpt>
      <trkpt lat="46.48518" lon="12.46006">
        <ele>817.26</ele>
        <time>2012-07-31T16:45:43Z</time>
      </trkpt>
      <trkpt lat="46.48521" lon="12.4597">
        <ele>814.37</ele>
        <time>2012-07-31T16:45:45Z</time>
      </trkpt>
      <trkpt lat="46.48525" lon="12.45945">
        <ele>811.97</ele>
        <time>2012-07-31T16:45:47Z</time>
      </trkpt>
      <trkpt lat="46.48529" lon="12.45935">
        <ele>811.49</ele>
        <time>2012-07-31T16:45:48Z</time>
      </trkpt>
      <trkpt lat="46.48534" lon="12.4593">
        <ele>810.05</ele>
        <time>2012-07-31T16:45:49Z</time>
      </trkpt>
      <trkpt lat="46.4854" lon="12.4593">
        <ele>809.57</ele>
        <time>2012-07-31T16:45:50Z</time>
      </trkpt>
      <trkpt lat="46.48546" lon="12.45937">
        <ele>809.57</ele>
        <time>2012-07-31T16:45:51Z</time>
      </trkpt>
      <trkpt lat="46.48549" lon="12.4595">
        <ele>810.05</ele>
        <time>2012-07-31T16:45:52Z</time>
      </trkpt>
      <trkpt lat="46.4855" lon="12.45967">
        <ele>810.05</ele>
        <time>2012-07-31T16:45:53Z</time>
      </trkpt>
      <trkpt lat="46.48565" lon="12.46105">
        <ele>807.64</ele>
        <time>2012-07-31T16:45:59Z</time>
      </trkpt>
      <trkpt lat="46.48573" lon="12.46182">
        <ele>803.32</ele>
        <time>2012-07-31T16:46:02Z</time>
      </trkpt>
      <trkpt lat="46.48583" lon="12.46254">
        <ele>799.47</ele>
        <time>2012-07-31T16:46:05Z</time>
      </trkpt>
      <trkpt lat="46.48589" lon="12.46276">
        <ele>798.51</ele>
        <time>2012-07-31T16:46:06Z</time>
      </trkpt>
      <trkpt lat="46.48596" lon="12.46295">
        <ele>797.07</ele>
        <time>2012-07-31T16:46:07Z</time>
      </trkpt>
      <trkpt lat="46.48606" lon="12.46313">
        <ele>796.11</ele>
        <time>2012-07-31T16:46:08Z</time>
      </trkpt>
      <trkpt lat="46.48617" lon="12.46329">
        <ele>795.63</ele>
        <time>2012-07-31T16:46:09Z</time>
      </trkpt>
      <trkpt lat="46.4864" lon="12.46358">
        <ele>794.19</ele>
        <time>2012-07-31T16:46:11Z</time>
      </trkpt>
      <trkpt lat="46.48651" lon="12.46375">
        <ele>793.71</ele>
        <time>2012-07-31T16:46:12Z</time>
      </trkpt>
      <trkpt lat="46.48659" lon="12.46395">
        <ele>792.74</ele>
        <time>2012-07-31T16:46:13Z</time>
      </trkpt>
      <trkpt lat="46.48665" lon="12.46416">
        <ele>791.3</ele>
        <time>2012-07-31T16:46:14Z</time>
      </trkpt>
      <trkpt lat="46.4867" lon="12.46437">
        <ele>790.34</ele>
        <time>2012-07-31T16:46:15Z</time>
      </trkpt>
      <trkpt lat="46.48675" lon="12.4646">
        <ele>789.86</ele>
        <time>2012-07-31T16:46:16Z</time>
      </trkpt>
      <trkpt lat="46.48678" lon="12.46484">
        <ele>788.9</ele>
        <time>2012-07-31T16:46:17Z</time>
      </trkpt>
      <trkpt lat="46.48689" lon="12.46556">
        <ele>785.05</ele>
        <time>2012-07-31T16:46:20Z</time>
      </trkpt>
      <trkpt lat="46.48714" lon="12.46651">
        <ele>781.21</ele>
        <time>2012-07-31T16:46:24Z</time>
      </trkpt>
      <trkpt lat="46.48718" lon="12.46674">
        <ele>779.29</ele>
        <time>2012-07-31T16:46:25Z</time>
      </trkpt>
      <trkpt lat="46.48722" lon="12.46696">
        <ele>777.84</ele>
        <time>2012-07-31T16:46:26Z</time>
      </trkpt>
      <trkpt lat="46.48723" lon="12.46717">
        <ele>776.4</ele>
        <time>2012-07-31T16:46:27Z</time>
      </trkpt>
      <trkpt lat="46.48721" lon="12.46753">
        <ele>773.52</ele>
        <time>2012-07-31T16:46:29Z</time>
      </trkpt>
      <trkpt lat="46.48724" lon="12.46768">
        <ele>773.04</ele>
        <time>2012-07-31T16:46:30Z</time>
      </trkpt>
      <trkpt lat="46.48731" lon="12.46782">
        <ele>773.04</ele>
        <time>2012-07-31T16:46:31Z</time>
      </trkpt>
      <trkpt lat="46.48744" lon="12.46804">
        <ele>772.08</ele>
        <time>2012-07-31T16:46:33Z</time>
      </trkpt>
      <trkpt lat="46.48751" lon="12.4681">
        <ele>771.6</ele>
        <time>2012-07-31T16:46:34Z</time>
      </trkpt>
      <trkpt lat="46.4876" lon="12.46812">
        <ele>771.6</ele>
        <time>2012-07-31T16:46:35Z</time>
      </trkpt>
      <trkpt lat="46.48769" lon="12.46808">
        <ele>772.08</ele>
        <time>2012-07-31T16:46:36Z</time>
      </trkpt>
      <trkpt lat="46.4878" lon="12.46801">
        <ele>773.04</ele>
        <time>2012-07-31T16:46:37Z</time>
      </trkpt>
      <trkpt lat="46.48798" lon="12.46785">
        <ele>774</ele>
        <time>2012-07-31T16:46:39Z</time>
      </trkpt>
      <trkpt lat="46.48804" lon="12.46775">
        <ele>774.48</ele>
        <time>2012-07-31T16:46:40Z</time>
      </trkpt>
      <trkpt lat="46.48807" lon="12.46762">
        <ele>774.96</ele>
        <time>2012-07-31T16:46:41Z</time>
      </trkpt>
      <trkpt lat="46.48807" lon="12.46747">
        <ele>775.92</ele>
        <time>2012-07-31T16:46:42Z</time>
      </trkpt>
      <trkpt lat="46.48805" lon="12.4673">
        <ele>776.88</ele>
        <time>2012-07-31T16:46:43Z</time>
      </trkpt>
      <trkpt lat="46.48803" lon="12.46713">
        <ele>777.36</ele>
        <time>2012-07-31T16:46:44Z</time>
      </trkpt>
      <trkpt lat="46.48802" lon="12.46695">
        <ele>777.84</ele>
        <time>2012-07-31T16:46:45Z</time>
      </trkpt>
      <trkpt lat="46.48802" lon="12.46676">
        <ele>778.81</ele>
        <time>2012-07-31T16:46:46Z</time>
      </trkpt>
      <trkpt lat="46.48805" lon="12.46658">
        <ele>779.29</ele>
        <time>2012-07-31T16:46:47Z</time>
      </trkpt>
      <trkpt lat="46.48808" lon="12.4664">
        <ele>780.25</ele>
        <time>2012-07-31T16:46:48Z</time>
      </trkpt>
      <trkpt lat="46.48808" lon="12.46621">
        <ele>782.17</ele>
        <time>2012-07-31T16:46:49Z</time>
      </trkpt>
      <trkpt lat="46.48805" lon="12.46603">
        <ele>784.09</ele>
        <time>2012-07-31T16:46:50Z</time>
      </trkpt>
      <trkpt lat="46.48799" lon="12.46584">
        <ele>784.09</ele>
        <time>2012-07-31T16:46:51Z</time>
      </trkpt>
      <trkpt lat="46.48787" lon="12.46545">
        <ele>786.98</ele>
        <time>2012-07-31T16:46:53Z</time>
      </trkpt>
      <trkpt lat="46.48783" lon="12.46524">
        <ele>787.94</ele>
        <time>2012-07-31T16:46:54Z</time>
      </trkpt>
      <trkpt lat="46.48777" lon="12.46482">
        <ele>788.9</ele>
        <time>2012-07-31T16:46:56Z</time>
      </trkpt>
      <trkpt lat="46.48773" lon="12.46415">
        <ele>789.38</ele>
        <time>2012-07-31T16:47:00Z</time>
      </trkpt>
      <trkpt lat="46.48776" lon="12.46403">
        <ele>789.86</ele>
        <time>2012-07-31T16:47:01Z</time>
      </trkpt>
      <trkpt lat="46.48782" lon="12.46393">
        <ele>790.34</ele>
        <time>2012-07-31T16:47:02Z</time>
      </trkpt>
      <trkpt lat="46.48789" lon="12.46385">
        <ele>790.34</ele>
        <time>2012-07-31T16:47:03Z</time>
      </trkpt>
      <trkpt lat="46.48799" lon="12.46382">
        <ele>790.82</ele>
        <time>2012-07-31T16:47:04Z</time>
      </trkpt>
      <trkpt lat="46.4881" lon="12.46384">
        <ele>791.3</ele>
        <time>2012-07-31T16:47:05Z</time>
      </trkpt>
      <trkpt lat="46.48821" lon="12.46389">
        <ele>791.78</ele>
        <time>2012-07-31T16:47:06Z</time>
      </trkpt>
      <trkpt lat="46.48833" lon="12.46397">
        <ele>792.26</ele>
        <time>2012-07-31T16:47:07Z</time>
      </trkpt>
      <trkpt lat="46.48844" lon="12.46404">
        <ele>791.78</ele>
        <time>2012-07-31T16:47:08Z</time>
      </trkpt>
      <trkpt lat="46.48864" lon="12.46413">
        <ele>790.82</ele>
        <time>2012-07-31T16:47:10Z</time>
      </trkpt>
      <trkpt lat="46.48874" lon="12.46413">
        <ele>790.82</ele>
        <time>2012-07-31T16:47:11Z</time>
      </trkpt>
      <trkpt lat="46.48884" lon="12.46411">
        <ele>790.82</ele>
        <time>2012-07-31T16:47:12Z</time>
      </trkpt>
      <trkpt lat="46.48893" lon="12.46404">
        <ele>791.3</ele>
        <time>2012-07-31T16:47:13Z</time>
      </trkpt>
      <trkpt lat="46.489" lon="12.46393">
        <ele>791.3</ele>
        <time>2012-07-31T16:47:14Z</time>
      </trkpt>
      <trkpt lat="46.48903" lon="12.46381">
        <ele>790.82</ele>
        <time>2012-07-31T16:47:15Z</time>
      </trkpt>
      <trkpt lat="46.48901" lon="12.46369">
        <ele>790.34</ele>
        <time>2012-07-31T16:47:16Z</time>
      </trkpt>
      <trkpt lat="46.48896" lon="12.46357">
        <ele>790.82</ele>
        <time>2012-07-31T16:47:17Z</time>
      </trkpt>
      <trkpt lat="46.48889" lon="12.46346">
        <ele>792.26</ele>
        <time>2012-07-31T16:47:18Z</time>
      </trkpt>
      <trkpt lat="46.48881" lon="12.46335">
        <ele>792.74</ele>
        <time>2012-07-31T16:47:19Z</time>
      </trkpt>
      <trkpt lat="46.48875" lon="12.46323">
        <ele>793.22</ele>
        <time>2012-07-31T16:47:20Z</time>
      </trkpt>
      <trkpt lat="46.48871" lon="12.46309">
        <ele>792.74</ele>
        <time>2012-07-31T16:47:21Z</time>
      </trkpt>
      <trkpt lat="46.48871" lon="12.46295">
        <ele>793.71</ele>
        <time>2012-07-31T16:47:22Z</time>
      </trkpt>
      <trkpt lat="46.48872" lon="12.4628">
        <ele>794.19</ele>
        <time>2012-07-31T16:47:23Z</time>
      </trkpt>
      <trkpt lat="46.48875" lon="12.46264">
        <ele>794.67</ele>
        <time>2012-07-31T16:47:24Z</time>
      </trkpt>
      <trkpt lat="46.48878" lon="12.46248">
        <ele>795.15</ele>
        <time>2012-07-31T16:47:25Z</time>
      </trkpt>
      <trkpt lat="46.48914" lon="12.46076">
        <ele>795.15</ele>
        <time>2012-07-31T16:47:35Z</time>
      </trkpt>
      <trkpt lat="46.48932" lon="12.45986">
        <ele>793.71</ele>
        <time>2012-07-31T16:47:40Z</time>
      </trkpt>
      <trkpt lat="46.48963" lon="12.45856">
        <ele>789.86</ele>
        <time>2012-07-31T16:47:47Z</time>
      </trkpt>
      <trkpt lat="46.48978" lon="12.45806">
        <ele>788.42</ele>
        <time>2012-07-31T16:47:50Z</time>
      </trkpt>
      <trkpt lat="46.48987" lon="12.45771">
        <ele>786.98</ele>
        <time>2012-07-31T16:47:52Z</time>
      </trkpt>
      <trkpt lat="46.49004" lon="12.45719">
        <ele>784.09</ele>
        <time>2012-07-31T16:47:55Z</time>
      </trkpt>
      <trkpt lat="46.49009" lon="12.45702">
        <ele>783.61</ele>
        <time>2012-07-31T16:47:56Z</time>
      </trkpt>
      <trkpt lat="46.49026" lon="12.4565">
        <ele>782.17</ele>
        <time>2012-07-31T16:47:59Z</time>
      </trkpt>
      <trkpt lat="46.49071" lon="12.45514">
        <ele>780.25</ele>
        <time>2012-07-31T16:48:07Z</time>
      </trkpt>
      <trkpt lat="46.49092" lon="12.45463">
        <ele>778.81</ele>
        <time>2012-07-31T16:48:10Z</time>
      </trkpt>
      <trkpt lat="46.49112" lon="12.45411">
        <ele>777.36</ele>
        <time>2012-07-31T16:48:13Z</time>
      </trkpt>
      <trkpt lat="46.49132" lon="12.4536">
        <ele>773.04</ele>
        <time>2012-07-31T16:48:16Z</time>
      </trkpt>
      <trkpt lat="46.4914" lon="12.45344">
        <ele>772.08</ele>
        <time>2012-07-31T16:48:17Z</time>
      </trkpt>
      <trkpt lat="46.4915" lon="12.45329">
        <ele>771.6</ele>
        <time>2012-07-31T16:48:18Z</time>
      </trkpt>
      <trkpt lat="46.49162" lon="12.45316">
        <ele>770.15</ele>
        <time>2012-07-31T16:48:19Z</time>
      </trkpt>
      <trkpt lat="46.49174" lon="12.45304">
        <ele>769.19</ele>
        <time>2012-07-31T16:48:20Z</time>
      </trkpt>
      <trkpt lat="46.49187" lon="12.45294">
        <ele>768.23</ele>
        <time>2012-07-31T16:48:21Z</time>
      </trkpt>
      <trkpt lat="46.492" lon="12.45287">
        <ele>766.79</ele>
        <time>2012-07-31T16:48:22Z</time>
      </trkpt>
      <trkpt lat="46.49213" lon="12.45282">
        <ele>765.83</ele>
        <time>2012-07-31T16:48:23Z</time>
      </trkpt>
      <trkpt lat="46.49227" lon="12.4528">
        <ele>765.83</ele>
        <time>2012-07-31T16:48:24Z</time>
      </trkpt>
      <trkpt lat="46.49241" lon="12.4528">
        <ele>764.39</ele>
        <time>2012-07-31T16:48:25Z</time>
      </trkpt>
      <trkpt lat="46.49282" lon="12.45276">
        <ele>761.5</ele>
        <time>2012-07-31T16:48:28Z</time>
      </trkpt>
      <trkpt lat="46.49295" lon="12.45269">
        <ele>760.06</ele>
        <time>2012-07-31T16:48:29Z</time>
      </trkpt>
      <trkpt lat="46.49306" lon="12.45262">
        <ele>757.66</ele>
        <time>2012-07-31T16:48:30Z</time>
      </trkpt>
      <trkpt lat="46.49319" lon="12.45255">
        <ele>756.69</ele>
        <time>2012-07-31T16:48:31Z</time>
      </trkpt>
      <trkpt lat="46.49331" lon="12.45251">
        <ele>756.69</ele>
        <time>2012-07-31T16:48:32Z</time>
      </trkpt>
      <trkpt lat="46.49345" lon="12.45249">
        <ele>755.25</ele>
        <time>2012-07-31T16:48:33Z</time>
      </trkpt>
      <trkpt lat="46.49359" lon="12.45249">
        <ele>754.77</ele>
        <time>2012-07-31T16:48:34Z</time>
      </trkpt>
      <trkpt lat="46.49373" lon="12.4525">
        <ele>753.81</ele>
        <time>2012-07-31T16:48:35Z</time>
      </trkpt>
      <trkpt lat="46.4941" lon="12.4525">
        <ele>750.93</ele>
        <time>2012-07-31T16:48:38Z</time>
      </trkpt>
      <trkpt lat="46.49443" lon="12.45245">
        <ele>748.04</ele>
        <time>2012-07-31T16:48:42Z</time>
      </trkpt>
      <trkpt lat="46.49447" lon="12.45242">
        <ele>747.56</ele>
        <time>2012-07-31T16:48:43Z</time>
      </trkpt>
      <trkpt lat="46.49452" lon="12.45233">
        <ele>748.04</ele>
        <time>2012-07-31T16:48:49Z</time>
      </trkpt>
      <trkpt lat="46.49449" lon="12.45227">
        <ele>748.52</ele>
        <time>2012-07-31T16:48:50Z</time>
      </trkpt>
      <trkpt lat="46.49442" lon="12.45222">
        <ele>749</ele>
        <time>2012-07-31T16:48:51Z</time>
      </trkpt>
      <trkpt lat="46.49433" lon="12.45218">
        <ele>749.49</ele>
        <time>2012-07-31T16:48:52Z</time>
      </trkpt>
      <trkpt lat="46.49423" lon="12.45215">
        <ele>749.49</ele>
        <time>2012-07-31T16:48:53Z</time>
      </trkpt>
      <trkpt lat="46.49412" lon="12.45215">
        <ele>749.97</ele>
        <time>2012-07-31T16:48:54Z</time>
      </trkpt>
      <trkpt lat="46.49401" lon="12.45219">
        <ele>749.97</ele>
        <time>2012-07-31T16:48:55Z</time>
      </trkpt>
      <trkpt lat="46.49391" lon="12.45226">
        <ele>749.97</ele>
        <time>2012-07-31T16:48:56Z</time>
      </trkpt>
      <trkpt lat="46.49381" lon="12.45233">
        <ele>749.97</ele>
        <time>2012-07-31T16:48:57Z</time>
      </trkpt>
      <trkpt lat="46.49371" lon="12.45239">
        <ele>749.97</ele>
        <time>2012-07-31T16:48:58Z</time>
      </trkpt>
      <trkpt lat="46.49362" lon="12.45243">
        <ele>749.49</ele>
        <time>2012-07-31T16:48:59Z</time>
      </trkpt>
      <trkpt lat="46.49353" lon="12.45245">
        <ele>749.49</ele>
        <time>2012-07-31T16:49:00Z</time>
      </trkpt>
      <trkpt lat="46.49345" lon="12.45243">
        <ele>749</ele>
        <time>2012-07-31T16:49:01Z</time>
      </trkpt>
      <trkpt lat="46.49337" lon="12.45239">
        <ele>749</ele>
        <time>2012-07-31T16:49:02Z</time>
      </trkpt>
      <trkpt lat="46.49332" lon="12.45231">
        <ele>749</ele>
        <time>2012-07-31T16:49:03Z</time>
      </trkpt>
      <trkpt lat="46.49327" lon="12.45219">
        <ele>749</ele>
        <time>2012-07-31T16:49:04Z</time>
      </trkpt>
      <trkpt lat="46.49322" lon="12.45206">
        <ele>749.97</ele>
        <time>2012-07-31T16:49:05Z</time>
      </trkpt>
      <trkpt lat="46.49298" lon="12.45159">
        <ele>749.97</ele>
        <time>2012-07-31T16:49:09Z</time>
      </trkpt>
      <trkpt lat="46.49289" lon="12.45152">
        <ele>750.45</ele>
        <time>2012-07-31T16:49:10Z</time>
      </trkpt>
      <trkpt lat="46.49278" lon="12.45147">
        <ele>750.93</ele>
        <time>2012-07-31T16:49:11Z</time>
      </trkpt>
      <trkpt lat="46.49267" lon="12.45144">
        <ele>751.41</ele>
        <time>2012-07-31T16:49:12Z</time>
      </trkpt>
      <trkpt lat="46.49255" lon="12.45141">
        <ele>752.37</ele>
        <time>2012-07-31T16:49:13Z</time>
      </trkpt>
      <trkpt lat="46.49204" lon="12.4514">
        <ele>754.77</ele>
        <time>2012-07-31T16:49:17Z</time>
      </trkpt>
      <trkpt lat="46.49151" lon="12.4514">
        <ele>757.18</ele>
        <time>2012-07-31T16:49:21Z</time>
      </trkpt>
      <trkpt lat="46.49112" lon="12.45135">
        <ele>758.14</ele>
        <time>2012-07-31T16:49:24Z</time>
      </trkpt>
      <trkpt lat="46.491" lon="12.45135">
        <ele>758.14</ele>
        <time>2012-07-31T16:49:25Z</time>
      </trkpt>
      <trkpt lat="46.49088" lon="12.45138">
        <ele>759.1</ele>
        <time>2012-07-31T16:49:26Z</time>
      </trkpt>
      <trkpt lat="46.49064" lon="12.45143">
        <ele>759.1</ele>
        <time>2012-07-31T16:49:28Z</time>
      </trkpt>
      <trkpt lat="46.49052" lon="12.45142">
        <ele>759.1</ele>
        <time>2012-07-31T16:49:29Z</time>
      </trkpt>
      <trkpt lat="46.49039" lon="12.45139">
        <ele>759.1</ele>
        <time>2012-07-31T16:49:30Z</time>
      </trkpt>
      <trkpt lat="46.48976" lon="12.45116">
        <ele>761.5</ele>
        <time>2012-07-31T16:49:35Z</time>
      </trkpt>
      <trkpt lat="46.48863" lon="12.45083">
        <ele>764.39</ele>
        <time>2012-07-31T16:49:43Z</time>
      </trkpt>
      <trkpt lat="46.4873" lon="12.45078">
        <ele>761.5</ele>
        <time>2012-07-31T16:49:51Z</time>
      </trkpt>
      <trkpt lat="46.48713" lon="12.45077">
        <ele>761.02</ele>
        <time>2012-07-31T16:49:52Z</time>
      </trkpt>
      <trkpt lat="46.48631" lon="12.45068">
        <ele>757.18</ele>
        <time>2012-07-31T16:49:57Z</time>
      </trkpt>
      <trkpt lat="46.48538" lon="12.45017">
        <ele>753.81</ele>
        <time>2012-07-31T16:50:03Z</time>
      </trkpt>
      <trkpt lat="46.48471" lon="12.44939">
        <ele>749.97</ele>
        <time>2012-07-31T16:50:08Z</time>
      </trkpt>
      <trkpt lat="46.48391" lon="12.44768">
        <ele>751.41</ele>
        <time>2012-07-31T16:50:16Z</time>
      </trkpt>
      <trkpt lat="46.48366" lon="12.44698">
        <ele>753.33</ele>
        <time>2012-07-31T16:50:19Z</time>
      </trkpt>
      <trkpt lat="46.48334" lon="12.44605">
        <ele>756.69</ele>
        <time>2012-07-31T16:50:23Z</time>
      </trkpt>
      <trkpt lat="46.48303" lon="12.44512">
        <ele>761.02</ele>
        <time>2012-07-31T16:50:27Z</time>
      </trkpt>
      <trkpt lat="46.48265" lon="12.44424">
        <ele>764.87</ele>
        <time>2012-07-31T16:50:31Z</time>
      </trkpt>
      <trkpt lat="46.48216" lon="12.44347">
        <ele>768.71</ele>
        <time>2012-07-31T16:50:35Z</time>
      </trkpt>
      <trkpt lat="46.48166" lon="12.44272">
        <ele>772.08</ele>
        <time>2012-07-31T16:50:39Z</time>
      </trkpt>
      <trkpt lat="46.48115" lon="12.44199">
        <ele>775.44</ele>
        <time>2012-07-31T16:50:43Z</time>
      </trkpt>
      <trkpt lat="46.48072" lon="12.44148">
        <ele>778.81</ele>
        <time>2012-07-31T16:50:46Z</time>
      </trkpt>
      <trkpt lat="46.48008" lon="12.44094">
        <ele>782.17</ele>
        <time>2012-07-31T16:50:50Z</time>
      </trkpt>
      <trkpt lat="46.47956" lon="12.4406">
        <ele>785.05</ele>
        <time>2012-07-31T16:50:53Z</time>
      </trkpt>
      <trkpt lat="46.47906" lon="12.44026">
        <ele>788.42</ele>
        <time>2012-07-31T16:50:56Z</time>
      </trkpt>
      <trkpt lat="46.4789" lon="12.44013">
        <ele>788.9</ele>
        <time>2012-07-31T16:50:57Z</time>
      </trkpt>
      <trkpt lat="46.47846" lon="12.43964">
        <ele>791.78</ele>
        <time>2012-07-31T16:51:00Z</time>
      </trkpt>
      <trkpt lat="46.47797" lon="12.43884">
        <ele>795.15</ele>
        <time>2012-07-31T16:51:04Z</time>
      </trkpt>
      <trkpt lat="46.47762" lon="12.43822">
        <ele>798.51</ele>
        <time>2012-07-31T16:51:07Z</time>
      </trkpt>
      <trkpt lat="46.47739" lon="12.43782">
        <ele>799.95</ele>
        <time>2012-07-31T16:51:09Z</time>
      </trkpt>
      <trkpt lat="46.4769" lon="12.43715">
        <ele>803.32</ele>
        <time>2012-07-31T16:51:13Z</time>
      </trkpt>
      <trkpt lat="46.47649" lon="12.43672">
        <ele>806.68</ele>
        <time>2012-07-31T16:51:16Z</time>
      </trkpt>
      <trkpt lat="46.47609" lon="12.43631">
        <ele>808.61</ele>
        <time>2012-07-31T16:51:19Z</time>
      </trkpt>
      <trkpt lat="46.4757" lon="12.43588">
        <ele>810.53</ele>
        <time>2012-07-31T16:51:22Z</time>
      </trkpt>
      <trkpt lat="46.47486" lon="12.43457">
        <ele>810.53</ele>
        <time>2012-07-31T16:51:30Z</time>
      </trkpt>
      <trkpt lat="46.47474" lon="12.4344">
        <ele>809.09</ele>
        <time>2012-07-31T16:51:31Z</time>
      </trkpt>
      <trkpt lat="46.47462" lon="12.43425">
        <ele>810.05</ele>
        <time>2012-07-31T16:51:32Z</time>
      </trkpt>
      <trkpt lat="46.47448" lon="12.43412">
        <ele>809.57</ele>
        <time>2012-07-31T16:51:33Z</time>
      </trkpt>
      <trkpt lat="46.47366" lon="12.43333">
        <ele>809.09</ele>
        <time>2012-07-31T16:51:39Z</time>
      </trkpt>
      <trkpt lat="46.47355" lon="12.43316">
        <ele>809.09</ele>
        <time>2012-07-31T16:51:40Z</time>
      </trkpt>
      <trkpt lat="46.47301" lon="12.43227">
        <ele>807.64</ele>
        <time>2012-07-31T16:51:45Z</time>
      </trkpt>
      <trkpt lat="46.47289" lon="12.43214">
        <ele>807.64</ele>
        <time>2012-07-31T16:51:46Z</time>
      </trkpt>
      <trkpt lat="46.47276" lon="12.43204">
        <ele>807.64</ele>
        <time>2012-07-31T16:51:47Z</time>
      </trkpt>
      <trkpt lat="46.47262" lon="12.43198">
        <ele>807.64</ele>
        <time>2012-07-31T16:51:48Z</time>
      </trkpt>
      <trkpt lat="46.47247" lon="12.43196">
        <ele>808.13</ele>
        <time>2012-07-31T16:51:49Z</time>
      </trkpt>
      <trkpt lat="46.47232" lon="12.43198">
        <ele>808.61</ele>
        <time>2012-07-31T16:51:50Z</time>
      </trkpt>
      <trkpt lat="46.47216" lon="12.43202">
        <ele>809.09</ele>
        <time>2012-07-31T16:51:51Z</time>
      </trkpt>
      <trkpt lat="46.4713" lon="12.43221">
        <ele>811.01</ele>
        <time>2012-07-31T16:51:56Z</time>
      </trkpt>
      <trkpt lat="46.47081" lon="12.43218">
        <ele>813.41</ele>
        <time>2012-07-31T16:51:59Z</time>
      </trkpt>
      <trkpt lat="46.47065" lon="12.43212">
        <ele>814.85</ele>
        <time>2012-07-31T16:52:00Z</time>
      </trkpt>
      <trkpt lat="46.4705" lon="12.43204">
        <ele>814.85</ele>
        <time>2012-07-31T16:52:01Z</time>
      </trkpt>
      <trkpt lat="46.47037" lon="12.43191">
        <ele>815.34</ele>
        <time>2012-07-31T16:52:02Z</time>
      </trkpt>
      <trkpt lat="46.47024" lon="12.43176">
        <ele>816.78</ele>
        <time>2012-07-31T16:52:03Z</time>
      </trkpt>
      <trkpt lat="46.47011" lon="12.43159">
        <ele>817.74</ele>
        <time>2012-07-31T16:52:04Z</time>
      </trkpt>
      <trkpt lat="46.46959" lon="12.43093">
        <ele>820.62</ele>
        <time>2012-07-31T16:52:08Z</time>
      </trkpt>
      <trkpt lat="46.46878" lon="12.43001">
        <ele>823.51</ele>
        <time>2012-07-31T16:52:14Z</time>
      </trkpt>
      <trkpt lat="46.46785" lon="12.42836">
        <ele>823.51</ele>
        <time>2012-07-31T16:52:23Z</time>
      </trkpt>
      <trkpt lat="46.46727" lon="12.42735">
        <ele>821.58</ele>
        <time>2012-07-31T16:52:29Z</time>
      </trkpt>
      <trkpt lat="46.46669" lon="12.42657">
        <ele>817.74</ele>
        <time>2012-07-31T16:52:34Z</time>
      </trkpt>
      <trkpt lat="46.46633" lon="12.42586">
        <ele>813.89</ele>
        <time>2012-07-31T16:52:38Z</time>
      </trkpt>
      <trkpt lat="46.46614" lon="12.42553">
        <ele>812.93</ele>
        <time>2012-07-31T16:52:40Z</time>
      </trkpt>
      <trkpt lat="46.46578" lon="12.42489">
        <ele>810.05</ele>
        <time>2012-07-31T16:52:44Z</time>
      </trkpt>
      <trkpt lat="46.4655" lon="12.42443">
        <ele>808.13</ele>
        <time>2012-07-31T16:52:47Z</time>
      </trkpt>
      <trkpt lat="46.46227" lon="12.41862">
        <ele>774</ele>
        <time>2012-07-31T17:57:43Z</time>
      </trkpt>
      <trkpt lat="46.46228" lon="12.41862">
        <ele>774</ele>
        <time>2012-07-31T17:57:44Z</time>
      </trkpt>
      <trkpt lat="46.46242" lon="12.41857">
        <ele>773.04</ele>
        <time>2012-07-31T17:58:16Z</time>
      </trkpt>
      <trkpt lat="46.46238" lon="12.41848">
        <ele>773.52</ele>
        <time>2012-07-31T17:58:41Z</time>
      </trkpt>
      <trkpt lat="46.46242" lon="12.41853">
        <ele>773.04</ele>
        <time>2012-07-31T17:59:04Z</time>
      </trkpt>
      <trkpt lat="46.46242" lon="12.41851">
        <ele>773.52</ele>
        <time>2012-07-31T17:59:27Z</time>
      </trkpt>
      <trkpt lat="46.46245" lon="12.41848">
        <ele>773.52</ele>
        <time>2012-07-31T17:59:54Z</time>
      </trkpt>
      <trkpt lat="46.46248" lon="12.4185">
        <ele>773.52</ele>
        <time>2012-07-31T18:00:18Z</time>
      </trkpt>
      <trkpt lat="46.46251" lon="12.41847">
        <ele>773.04</ele>
        <time>2012-07-31T18:00:45Z</time>
      </trkpt>
      <trkpt lat="46.46258" lon="12.41854">
        <ele>773.52</ele>
        <time>2012-07-31T18:01:05Z</time>
      </trkpt>
      <trkpt lat="46.46252" lon="12.41856">
        <ele>772.56</ele>
        <time>2012-07-31T18:01:21Z</time>
      </trkpt>
      <trkpt lat="46.46249" lon="12.41855">
        <ele>774</ele>
        <time>2012-07-31T18:01:23Z</time>
      </trkpt>
      <trkpt lat="46.46248" lon="12.41854">
        <ele>773.52</ele>
        <time>2012-07-31T18:01:24Z</time>
      </trkpt>
      <trkpt lat="46.46246" lon="12.41853">
        <ele>773.04</ele>
        <time>2012-07-31T18:01:45Z</time>
      </trkpt>
      <trkpt lat="46.46247" lon="12.41846">
        <ele>773.52</ele>
        <time>2012-07-31T18:02:05Z</time>
      </trkpt>
      <trkpt lat="46.46246" lon="12.41829">
        <ele>773.04</ele>
        <time>2012-07-31T18:02:34Z</time>
      </trkpt>
      <trkpt lat="46.46243" lon="12.41825">
        <ele>773.52</ele>
        <time>2012-07-31T18:02:56Z</time>
      </trkpt>
      <trkpt lat="46.46245" lon="12.41828">
        <ele>773.52</ele>
        <time>2012-07-31T18:03:19Z</time>
      </trkpt>
      <trkpt lat="46.46246" lon="12.41836">
        <ele>773.52</ele>
        <time>2012-07-31T18:03:42Z</time>
      </trkpt>
      <trkpt lat="46.46252" lon="12.41846">
        <ele>773.52</ele>
        <time>2012-07-31T18:04:08Z</time>
      </trkpt>
      <trkpt lat="46.46255" lon="12.41847">
        <ele>773.04</ele>
        <time>2012-07-31T18:04:34Z</time>
      </trkpt>
      <trkpt lat="46.46252" lon="12.41857">
        <ele>772.56</ele>
        <time>2012-07-31T18:05:04Z</time>
      </trkpt>
      <trkpt lat="46.46249" lon="12.41859">
        <ele>773.04</ele>
        <time>2012-07-31T18:05:35Z</time>
      </trkpt>
      <trkpt lat="46.46247" lon="12.41861">
        <ele>773.04</ele>
        <time>2012-07-31T18:06:04Z</time>
      </trkpt>
      <trkpt lat="46.46243" lon="12.41858">
        <ele>773.52</ele>
        <time>2012-07-31T18:06:40Z</time>
      </trkpt>
      <trkpt lat="46.46244" lon="12.41857">
        <ele>773.52</ele>
        <time>2012-07-31T18:07:18Z</time>
      </trkpt>
      <trkpt lat="46.46244" lon="12.41857">
        <ele>773.52</ele>
        <time>2012-07-31T18:07:27Z</time>
      </trkpt>
      <trkpt lat="46.46237" lon="12.41849">
        <ele>773.52</ele>
        <time>2012-07-31T18:07:48Z</time>
      </trkpt>
      <trkpt lat="46.46233" lon="12.41852">
        <ele>773.52</ele>
        <time>2012-07-31T18:08:07Z</time>
      </trkpt>
      <trkpt lat="46.46234" lon="12.41851">
        <ele>773.52</ele>
        <time>2012-07-31T18:08:30Z</time>
      </trkpt>
      <trkpt lat="46.46231" lon="12.41861">
        <ele>773.52</ele>
        <time>2012-07-31T18:08:53Z</time>
      </trkpt>
      <trkpt lat="46.46234" lon="12.41848">
        <ele>774</ele>
        <time>2012-07-31T18:09:18Z</time>
      </trkpt>
      <trkpt lat="46.4624" lon="12.41849">
        <ele>774</ele>
        <time>2012-07-31T18:09:39Z</time>
      </trkpt>
      <trkpt lat="46.46243" lon="12.41846">
        <ele>773.04</ele>
        <time>2012-07-31T18:09:59Z</time>
      </trkpt>
      <trkpt lat="46.46252" lon="12.41833">
        <ele>774.96</ele>
        <time>2012-07-31T18:10:16Z</time>
      </trkpt>
      <trkpt lat="46.46252" lon="12.41832">
        <ele>773.52</ele>
        <time>2012-07-31T18:10:17Z</time>
      </trkpt>
      <trkpt lat="46.46253" lon="12.41827">
        <ele>774</ele>
        <time>2012-07-31T18:10:36Z</time>
      </trkpt>
      <trkpt lat="46.46235" lon="12.41841">
        <ele>762.94</ele>
        <time>2012-07-31T19:46:08Z</time>
      </trkpt>
      <trkpt lat="46.46252" lon="12.41842">
        <ele>764.39</ele>
        <time>2012-07-31T19:53:34Z</time>
      </trkpt>
      <trkpt lat="46.4625" lon="12.41845">
        <ele>764.87</ele>
        <time>2012-07-31T19:53:35Z</time>
      </trkpt>
      <trkpt lat="46.46244" lon="12.41862">
        <ele>764.87</ele>
        <time>2012-07-31T19:53:41Z</time>
      </trkpt>
      <trkpt lat="46.46243" lon="12.41864">
        <ele>762.94</ele>
        <time>2012-07-31T19:53:42Z</time>
      </trkpt>
      <trkpt lat="46.46243" lon="12.4187">
        <ele>764.87</ele>
        <time>2012-07-31T19:53:45Z</time>
      </trkpt>
      <trkpt lat="46.46243" lon="12.41873">
        <ele>761.5</ele>
        <time>2012-07-31T19:53:47Z</time>
      </trkpt>
      <trkpt lat="46.46243" lon="12.41875">
        <ele>765.83</ele>
        <time>2012-07-31T19:53:48Z</time>
      </trkpt>
      <trkpt lat="46.46241" lon="12.41871">
        <ele>764.39</ele>
        <time>2012-07-31T19:54:07Z</time>
      </trkpt>
      <trkpt lat="46.46235" lon="12.41869">
        <ele>763.9</ele>
        <time>2012-07-31T19:54:32Z</time>
      </trkpt>
      <trkpt lat="46.46232" lon="12.41866">
        <ele>764.39</ele>
        <time>2012-07-31T19:54:57Z</time>
      </trkpt>
      <trkpt lat="46.46234" lon="12.41864">
        <ele>768.23</ele>
        <time>2012-07-31T19:55:00Z</time>
      </trkpt>
      <trkpt lat="46.46236" lon="12.41864">
        <ele>771.6</ele>
        <time>2012-07-31T19:55:05Z</time>
      </trkpt>
      <trkpt lat="46.46236" lon="12.41864">
        <ele>771.6</ele>
        <time>2012-07-31T19:55:06Z</time>
      </trkpt>
      <trkpt lat="46.46237" lon="12.41865">
        <ele>773.04</ele>
        <time>2012-07-31T19:55:08Z</time>
      </trkpt>
      <trkpt lat="46.46236" lon="12.41864">
        <ele>775.44</ele>
        <time>2012-07-31T19:55:12Z</time>
      </trkpt>
      <trkpt lat="46.46236" lon="12.41864">
        <ele>777.36</ele>
        <time>2012-07-31T19:55:15Z</time>
      </trkpt>
      <trkpt lat="46.46234" lon="12.41864">
        <ele>780.25</ele>
        <time>2012-07-31T19:55:21Z</time>
      </trkpt>
      <trkpt lat="46.46234" lon="12.41864">
        <ele>783.13</ele>
        <time>2012-07-31T19:55:29Z</time>
      </trkpt>
      <trkpt lat="46.46234" lon="12.41864">
        <ele>784.09</ele>
        <time>2012-07-31T19:55:31Z</time>
      </trkpt>
      <trkpt lat="46.46234" lon="12.41864">
        <ele>786.02</ele>
        <time>2012-07-31T19:55:40Z</time>
      </trkpt>
      <trkpt lat="46.46234" lon="12.41864">
        <ele>789.38</ele>
        <time>2012-07-31T19:55:49Z</time>
      </trkpt>
      <trkpt lat="46.46234" lon="12.41864">
        <ele>789.38</ele>
        <time>2012-07-31T19:55:50Z</time>
      </trkpt>
      <trkpt lat="46.46234" lon="12.41866">
        <ele>791.78</ele>
        <time>2012-07-31T19:56:17Z</time>
      </trkpt>
      <trkpt lat="46.46234" lon="12.41867">
        <ele>795.63</ele>
        <time>2012-07-31T19:56:37Z</time>
      </trkpt>
      <trkpt lat="46.46234" lon="12.41866">
        <ele>790.82</ele>
        <time>2012-07-31T19:56:38Z</time>
      </trkpt>
      <trkpt lat="46.46234" lon="12.41866">
        <ele>793.22</ele>
        <time>2012-07-31T19:56:39Z</time>
      </trkpt>
      <trkpt lat="46.46236" lon="12.41865">
        <ele>792.74</ele>
        <time>2012-07-31T19:56:59Z</time>
      </trkpt>
      <trkpt lat="46.46237" lon="12.41867">
        <ele>791.78</ele>
        <time>2012-07-31T19:57:26Z</time>
      </trkpt>
      <trkpt lat="46.46236" lon="12.41876">
        <ele>795.15</ele>
        <time>2012-07-31T19:57:37Z</time>
      </trkpt>
      <trkpt lat="46.46234" lon="12.41873">
        <ele>793.71</ele>
        <time>2012-07-31T19:58:01Z</time>
      </trkpt>
      <trkpt lat="46.46235" lon="12.41871">
        <ele>788.9</ele>
        <time>2012-07-31T19:58:14Z</time>
      </trkpt>
      <trkpt lat="46.46235" lon="12.41871">
        <ele>795.15</ele>
        <time>2012-07-31T19:58:15Z</time>
      </trkpt>
      <trkpt lat="46.46235" lon="12.41871">
        <ele>792.74</ele>
        <time>2012-07-31T19:58:16Z</time>
      </trkpt>
      <trkpt lat="46.46235" lon="12.41871">
        <ele>794.19</ele>
        <time>2012-07-31T19:58:38Z</time>
      </trkpt>
      <trkpt lat="46.46233" lon="12.41862">
        <ele>793.22</ele>
        <time>2012-07-31T19:59:00Z</time>
      </trkpt>
      <trkpt lat="46.46234" lon="12.41864">
        <ele>793.22</ele>
        <time>2012-07-31T19:59:26Z</time>
      </trkpt>
      <trkpt lat="46.46235" lon="12.41865">
        <ele>793.71</ele>
        <time>2012-07-31T19:59:55Z</time>
      </trkpt>
      <trkpt lat="46.46233" lon="12.41868">
        <ele>793.71</ele>
        <time>2012-07-31T20:00:22Z</time>
      </trkpt>
      <trkpt lat="46.46235" lon="12.41873">
        <ele>791.78</ele>
        <time>2012-07-31T20:00:40Z</time>
      </trkpt>
      <trkpt lat="46.46235" lon="12.41874">
        <ele>794.19</ele>
        <time>2012-07-31T20:00:42Z</time>
      </trkpt>
      <trkpt lat="46.46241" lon="12.4188">
        <ele>792.26</ele>
        <time>2012-07-31T20:00:55Z</time>
      </trkpt>
      <trkpt lat="46.46241" lon="12.4188">
        <ele>794.19</ele>
        <time>2012-07-31T20:00:57Z</time>
      </trkpt>
      <trkpt lat="46.4624" lon="12.41866">
        <ele>793.71</ele>
        <time>2012-07-31T20:01:31Z</time>
      </trkpt>
      <trkpt lat="46.46244" lon="12.4187">
        <ele>793.22</ele>
        <time>2012-07-31T20:01:56Z</time>
      </trkpt>
      <trkpt lat="46.46242" lon="12.41868">
        <ele>793.71</ele>
        <time>2012-07-31T20:02:20Z</time>
      </trkpt>
      <trkpt lat="46.46241" lon="12.41867">
        <ele>793.22</ele>
        <time>2012-07-31T20:02:50Z</time>
      </trkpt>
      <trkpt lat="46.4624" lon="12.41865">
        <ele>792.74</ele>
        <time>2012-07-31T20:03:19Z</time>
      </trkpt>
      <trkpt lat="46.4624" lon="12.41865">
        <ele>793.71</ele>
        <time>2012-07-31T20:03:58Z</time>
      </trkpt>
      <trkpt lat="46.4624" lon="12.41864">
        <ele>793.22</ele>
        <time>2012-07-31T20:04:31Z</time>
      </trkpt>
      <trkpt lat="46.46241" lon="12.41867">
        <ele>794.19</ele>
        <time>2012-07-31T20:04:56Z</time>
      </trkpt>
      <trkpt lat="46.46237" lon="12.4187">
        <ele>790.34</ele>
        <time>2012-07-31T20:05:21Z</time>
      </trkpt>
      <trkpt lat="46.46236" lon="12.4187">
        <ele>795.15</ele>
        <time>2012-07-31T20:05:22Z</time>
      </trkpt>
      <trkpt lat="46.46236" lon="12.4187">
        <ele>792.26</ele>
        <time>2012-07-31T20:05:24Z</time>
      </trkpt>
      <trkpt lat="46.46236" lon="12.41867">
        <ele>793.22</ele>
        <time>2012-07-31T20:05:43Z</time>
      </trkpt>
      <trkpt lat="46.46237" lon="12.41864">
        <ele>793.71</ele>
        <time>2012-07-31T20:05:46Z</time>
      </trkpt>
      <trkpt lat="46.4624" lon="12.41824">
        <ele>792.74</ele>
        <time>2012-07-31T20:06:13Z</time>
      </trkpt>
      <trkpt lat="46.46237" lon="12.41828">
        <ele>791.78</ele>
        <time>2012-07-31T20:06:17Z</time>
      </trkpt>
      <trkpt lat="46.46231" lon="12.41858">
        <ele>793.22</ele>
        <time>2012-07-31T20:06:41Z</time>
      </trkpt>
      <trkpt lat="46.46233" lon="12.41868">
        <ele>792.26</ele>
        <time>2012-07-31T20:07:04Z</time>
      </trkpt>
      <trkpt lat="46.46231" lon="12.41872">
        <ele>792.74</ele>
        <time>2012-07-31T20:07:26Z</time>
      </trkpt>
      <trkpt lat="46.4623" lon="12.41863">
        <ele>792.74</ele>
        <time>2012-07-31T20:07:47Z</time>
      </trkpt>
      <trkpt lat="46.46235" lon="12.41861">
        <ele>792.26</ele>
        <time>2012-07-31T20:08:08Z</time>
      </trkpt>
      <trkpt lat="46.46236" lon="12.41861">
        <ele>792.26</ele>
        <time>2012-07-31T20:08:34Z</time>
      </trkpt>
      <trkpt lat="46.46237" lon="12.41861">
        <ele>792.74</ele>
        <time>2012-07-31T20:09:00Z</time>
      </trkpt>
      <trkpt lat="46.46238" lon="12.41861">
        <ele>792.26</ele>
        <time>2012-07-31T20:09:24Z</time>
      </trkpt>
      <trkpt lat="46.46237" lon="12.41859">
        <ele>792.26</ele>
        <time>2012-07-31T20:09:39Z</time>
      </trkpt>
      <trkpt lat="46.46231" lon="12.41855">
        <ele>791.78</ele>
        <time>2012-07-31T20:10:12Z</time>
      </trkpt>
      <trkpt lat="46.46239" lon="12.41862">
        <ele>791.78</ele>
        <time>2012-07-31T20:10:48Z</time>
      </trkpt>
      <trkpt lat="46.46242" lon="12.41864">
        <ele>791.78</ele>
        <time>2012-07-31T20:11:20Z</time>
      </trkpt>
      <trkpt lat="46.46243" lon="12.41866">
        <ele>792.74</ele>
        <time>2012-07-31T20:11:46Z</time>
      </trkpt>
      <trkpt lat="46.46241" lon="12.41864">
        <ele>792.26</ele>
        <time>2012-07-31T20:12:07Z</time>
      </trkpt>
      <trkpt lat="46.46239" lon="12.41865">
        <ele>791.78</ele>
        <time>2012-07-31T20:12:41Z</time>
      </trkpt>
      <trkpt lat="46.4624" lon="12.41867">
        <ele>791.3</ele>
        <time>2012-07-31T20:13:12Z</time>
      </trkpt>
      <trkpt lat="46.4624" lon="12.41866">
        <ele>791.78</ele>
        <time>2012-07-31T20:13:33Z</time>
      </trkpt>
      <trkpt lat="46.46239" lon="12.41867">
        <ele>791.78</ele>
        <time>2012-07-31T20:13:58Z</time>
      </trkpt>
      <trkpt lat="46.4624" lon="12.41867">
        <ele>791.78</ele>
        <time>2012-07-31T20:14:30Z</time>
      </trkpt>
      <trkpt lat="46.4624" lon="12.41867">
        <ele>791.3</ele>
        <time>2012-07-31T20:15:01Z</time>
      </trkpt>
      <trkpt lat="46.4624" lon="12.41867">
        <ele>791.3</ele>
        <time>2012-07-31T20:15:29Z</time>
      </trkpt>
      <trkpt lat="46.46239" lon="12.41868">
        <ele>790.82</ele>
        <time>2012-07-31T20:15:58Z</time>
      </trkpt>
      <trkpt lat="46.46247" lon="12.4187">
        <ele>790.82</ele>
        <time>2012-07-31T20:16:21Z</time>
      </trkpt>
      <trkpt lat="46.46241" lon="12.41872">
        <ele>791.3</ele>
        <time>2012-07-31T20:16:50Z</time>
      </trkpt>
      <trkpt lat="46.46243" lon="12.41869">
        <ele>790.82</ele>
        <time>2012-07-31T20:17:18Z</time>
      </trkpt>
      <trkpt lat="46.46242" lon="12.41872">
        <ele>790.82</ele>
        <time>2012-07-31T20:17:43Z</time>
      </trkpt>
      <trkpt lat="46.46238" lon="12.41876">
        <ele>790.82</ele>
        <time>2012-07-31T20:18:09Z</time>
      </trkpt>
      <trkpt lat="46.46238" lon="12.41874">
        <ele>790.82</ele>
        <time>2012-07-31T20:18:33Z</time>
      </trkpt>
      <trkpt lat="46.46238" lon="12.41873">
        <ele>791.3</ele>
        <time>2012-07-31T20:19:00Z</time>
      </trkpt>
      <trkpt lat="46.46236" lon="12.41868">
        <ele>791.3</ele>
        <time>2012-07-31T20:19:21Z</time>
      </trkpt>
      <trkpt lat="46.46236" lon="12.41868">
        <ele>791.3</ele>
        <time>2012-07-31T20:19:53Z</time>
      </trkpt>
      <trkpt lat="46.46237" lon="12.41867">
        <ele>791.3</ele>
        <time>2012-07-31T20:20:27Z</time>
      </trkpt>
      <trkpt lat="46.46237" lon="12.41867">
        <ele>790.82</ele>
        <time>2012-07-31T20:21:00Z</time>
      </trkpt>
      <trkpt lat="46.46237" lon="12.41867">
        <ele>791.78</ele>
        <time>2012-07-31T20:21:25Z</time>
      </trkpt>
      <trkpt lat="46.46234" lon="12.41869">
        <ele>788.9</ele>
        <time>2012-07-31T20:21:40Z</time>
      </trkpt>
      <trkpt lat="46.46234" lon="12.41869">
        <ele>792.26</ele>
        <time>2012-07-31T20:21:41Z</time>
      </trkpt>
      <trkpt lat="46.46233" lon="12.4187">
        <ele>791.78</ele>
        <time>2012-07-31T20:21:45Z</time>
      </trkpt>
      <trkpt lat="46.46234" lon="12.41871">
        <ele>790.34</ele>
        <time>2012-07-31T20:22:02Z</time>
      </trkpt>
      <trkpt lat="46.46233" lon="12.41874">
        <ele>791.78</ele>
        <time>2012-07-31T20:22:04Z</time>
      </trkpt>
      <trkpt lat="46.46233" lon="12.41876">
        <ele>791.3</ele>
        <time>2012-07-31T20:22:05Z</time>
      </trkpt>
      <trkpt lat="46.46233" lon="12.41871">
        <ele>790.34</ele>
        <time>2012-07-31T20:22:28Z</time>
      </trkpt>
      <trkpt lat="46.46237" lon="12.41864">
        <ele>793.71</ele>
        <time>2012-07-31T20:22:52Z</time>
      </trkpt>
      <trkpt lat="46.46235" lon="12.41866">
        <ele>791.3</ele>
        <time>2012-07-31T20:22:55Z</time>
      </trkpt>
      <trkpt lat="46.46237" lon="12.41865">
        <ele>790.82</ele>
        <time>2012-07-31T20:23:22Z</time>
      </trkpt>
      <trkpt lat="46.46238" lon="12.41867">
        <ele>791.3</ele>
        <time>2012-07-31T20:23:59Z</time>
      </trkpt>
      <trkpt lat="46.46238" lon="12.41868">
        <ele>791.3</ele>
        <time>2012-07-31T20:24:30Z</time>
      </trkpt>
      <trkpt lat="46.46238" lon="12.41868">
        <ele>791.3</ele>
        <time>2012-07-31T20:24:58Z</time>
      </trkpt>
      <trkpt lat="46.46238" lon="12.41868">
        <ele>791.3</ele>
        <time>2012-07-31T20:25:24Z</time>
      </trkpt>
      <trkpt lat="46.46237" lon="12.41868">
        <ele>791.3</ele>
        <time>2012-07-31T20:25:52Z</time>
      </trkpt>
      <trkpt lat="46.46237" lon="12.41868">
        <ele>791.3</ele>
        <time>2012-07-31T20:26:22Z</time>
      </trkpt>
      <trkpt lat="46.46236" lon="12.41869">
        <ele>790.82</ele>
        <time>2012-07-31T20:26:49Z</time>
      </trkpt>
      <trkpt lat="46.46235" lon="12.41869">
        <ele>791.3</ele>
        <time>2012-07-31T20:27:16Z</time>
      </trkpt>
      <trkpt lat="46.4624" lon="12.4187">
        <ele>790.82</ele>
        <time>2012-07-31T20:27:24Z</time>
      </trkpt>
      <trkpt lat="46.46247" lon="12.41871">
        <ele>791.3</ele>
        <time>2012-07-31T20:27:46Z</time>
      </trkpt>
      <trkpt lat="46.46246" lon="12.41871">
        <ele>791.3</ele>
        <time>2012-07-31T20:28:17Z</time>
      </trkpt>
      <trkpt lat="46.46245" lon="12.41871">
        <ele>790.82</ele>
        <time>2012-07-31T20:28:43Z</time>
      </trkpt>
      <trkpt lat="46.4624" lon="12.41862">
        <ele>791.3</ele>
        <time>2012-07-31T20:29:07Z</time>
      </trkpt>
      <trkpt lat="46.46238" lon="12.41865">
        <ele>790.82</ele>
        <time>2012-07-31T20:29:35Z</time>
      </trkpt>
      <trkpt lat="46.46237" lon="12.41863">
        <ele>790.82</ele>
        <time>2012-07-31T20:29:59Z</time>
      </trkpt>
      <trkpt lat="46.46239" lon="12.41864">
        <ele>790.82</ele>
        <time>2012-07-31T20:30:26Z</time>
      </trkpt>
      <trkpt lat="46.46239" lon="12.41864">
        <ele>791.3</ele>
        <time>2012-07-31T20:30:52Z</time>
      </trkpt>
      <trkpt lat="46.46237" lon="12.41865">
        <ele>790.82</ele>
        <time>2012-07-31T20:31:18Z</time>
      </trkpt>
      <trkpt lat="46.46237" lon="12.41866">
        <ele>790.82</ele>
        <time>2012-07-31T20:31:46Z</time>
      </trkpt>
      <trkpt lat="46.46237" lon="12.41865">
        <ele>790.82</ele>
        <time>2012-07-31T20:32:18Z</time>
      </trkpt>
      <trkpt lat="46.46235" lon="12.41866">
        <ele>790.82</ele>
        <time>2012-07-31T20:32:41Z</time>
      </trkpt>
      <trkpt lat="46.46236" lon="12.41867">
        <ele>790.82</ele>
        <time>2012-07-31T20:33:03Z</time>
      </trkpt>
      <trkpt lat="46.46236" lon="12.41867">
        <ele>790.34</ele>
        <time>2012-07-31T20:33:07Z</time>
      </trkpt>
      <trkpt lat="46.46233" lon="12.41863">
        <ele>788.9</ele>
        <time>2012-07-31T20:33:19Z</time>
      </trkpt>
      <trkpt lat="46.46233" lon="12.41862">
        <ele>790.34</ele>
        <time>2012-07-31T20:33:20Z</time>
      </trkpt>
      <trkpt lat="46.46232" lon="12.41861">
        <ele>791.3</ele>
        <time>2012-07-31T20:33:23Z</time>
      </trkpt>
      <trkpt lat="46.46231" lon="12.4186">
        <ele>790.82</ele>
        <time>2012-07-31T20:33:25Z</time>
      </trkpt>
      <trkpt lat="46.46222" lon="12.41866">
        <ele>789.86</ele>
        <time>2012-07-31T20:33:27Z</time>
      </trkpt>
      <trkpt lat="46.46209" lon="12.41877">
        <ele>791.78</ele>
        <time>2012-07-31T20:33:41Z</time>
      </trkpt>
      <trkpt lat="46.46207" lon="12.41895">
        <ele>791.78</ele>
        <time>2012-07-31T20:34:06Z</time>
      </trkpt>
      <trkpt lat="46.46204" lon="12.419">
        <ele>787.46</ele>
        <time>2012-07-31T20:34:13Z</time>
      </trkpt>
      <trkpt lat="46.46204" lon="12.419">
        <ele>791.3</ele>
        <time>2012-07-31T20:34:14Z</time>
      </trkpt>
      <trkpt lat="46.46234" lon="12.41854">
        <ele>790.82</ele>
        <time>2012-07-31T20:50:45Z</time>
      </trkpt>
      <trkpt lat="46.46232" lon="12.41865">
        <ele>789.86</ele>
        <time>2012-07-31T20:51:10Z</time>
      </trkpt>
      <trkpt lat="46.46233" lon="12.41864">
        <ele>790.82</ele>
        <time>2012-07-31T20:51:32Z</time>
      </trkpt>
      <trkpt lat="46.46231" lon="12.41866">
        <ele>789.86</ele>
        <time>2012-07-31T20:51:53Z</time>
      </trkpt>
      <trkpt lat="46.46238" lon="12.41866">
        <ele>789.86</ele>
        <time>2012-07-31T20:52:16Z</time>
      </trkpt>
      <trkpt lat="46.46243" lon="12.41868">
        <ele>790.82</ele>
        <time>2012-07-31T20:52:37Z</time>
      </trkpt>
      <trkpt lat="46.46249" lon="12.41871">
        <ele>790.34</ele>
        <time>2012-07-31T20:52:58Z</time>
      </trkpt>
      <trkpt lat="46.46241" lon="12.41868">
        <ele>790.34</ele>
        <time>2012-07-31T20:53:17Z</time>
      </trkpt>
      <trkpt lat="46.46238" lon="12.41859">
        <ele>789.86</ele>
        <time>2012-07-31T20:53:37Z</time>
      </trkpt>
      <trkpt lat="46.46239" lon="12.41866">
        <ele>790.34</ele>
        <time>2012-07-31T20:53:56Z</time>
      </trkpt>
      <trkpt lat="46.4624" lon="12.4186">
        <ele>790.34</ele>
        <time>2012-07-31T20:54:17Z</time>
      </trkpt>
      <trkpt lat="46.46238" lon="12.41853">
        <ele>790.34</ele>
        <time>2012-07-31T20:54:39Z</time>
      </trkpt>
      <trkpt lat="46.46233" lon="12.41856">
        <ele>789.86</ele>
        <time>2012-07-31T20:55:02Z</time>
      </trkpt>
      <trkpt lat="46.46231" lon="12.41855">
        <ele>789.86</ele>
        <time>2012-07-31T20:55:22Z</time>
      </trkpt>
      <trkpt lat="46.46215" lon="12.41869">
        <ele>789.86</ele>
        <time>2012-07-31T20:55:40Z</time>
      </trkpt>
      <trkpt lat="46.46227" lon="12.41863">
        <ele>790.34</ele>
        <time>2012-07-31T20:56:03Z</time>
      </trkpt>
      <trkpt lat="46.46234" lon="12.41859">
        <ele>790.34</ele>
        <time>2012-07-31T20:56:28Z</time>
      </trkpt>
      <trkpt lat="46.46236" lon="12.41857">
        <ele>786.98</ele>
        <time>2012-07-31T20:56:42Z</time>
      </trkpt>
      <trkpt lat="46.46236" lon="12.41857">
        <ele>790.34</ele>
        <time>2012-07-31T20:56:43Z</time>
      </trkpt>
    </trkseg>
  </trk>
</gpx>